<?xml version="1.0" encoding="UTF-8" standalone="no" ?>
<gpx xmlns="http://www.topografix.com/GPX/1/1" xmlns:xsi="http://www.w3.org/2001/XMLSchema-instance" xsi:schemaLocation="http://www.topografix.com/GPX/1/1 http://www.topografix.com/GPX/1/1/gpx.xsd" version="1.1" creator="VisuGPX - https://www.visugpx.com">
  <metadata>
    <name>J2 - Villard de Lans - Croix des Suifs Eymards</name>
    <desc><![CDATA[Au Depart de Villard, combo croix des suifs / Eymards par une ;oliere integrale]]></desc>
  </metadata>
  <trk>
    <name><![CDATA[J2 - Villard de Lans - Croix des Suifs Eymards_1]]></name>
    <trkseg>
      <trkpt lat="45.07374" lon="5.56047">
        <ele>1033.3</ele>
      </trkpt>
      <trkpt lat="45.07402" lon="5.56174">
        <ele>1033.8</ele>
      </trkpt>
      <trkpt lat="45.07394" lon="5.56364">
        <ele>1032</ele>
      </trkpt>
      <trkpt lat="45.07369" lon="5.56375">
        <ele>1033</ele>
      </trkpt>
      <trkpt lat="45.07283" lon="5.56422">
        <ele>1033.7</ele>
      </trkpt>
      <trkpt lat="45.07361" lon="5.56438">
        <ele>1029.5</ele>
      </trkpt>
      <trkpt lat="45.07435" lon="5.56488">
        <ele>1022</ele>
      </trkpt>
      <trkpt lat="45.0748" lon="5.56588">
        <ele>1011.1</ele>
      </trkpt>
      <trkpt lat="45.07523" lon="5.5661">
        <ele>1012.7</ele>
      </trkpt>
      <trkpt lat="45.07591" lon="5.56651">
        <ele>1024.1</ele>
      </trkpt>
      <trkpt lat="45.07639" lon="5.56629">
        <ele>1029.1</ele>
      </trkpt>
      <trkpt lat="45.07684" lon="5.56593">
        <ele>1030.2</ele>
      </trkpt>
      <trkpt lat="45.07719" lon="5.56507">
        <ele>1027.9</ele>
      </trkpt>
      <trkpt lat="45.07749" lon="5.56516">
        <ele>1033.3</ele>
      </trkpt>
      <trkpt lat="45.07733" lon="5.56643">
        <ele>1039.9</ele>
      </trkpt>
      <trkpt lat="45.07671" lon="5.56734">
        <ele>1050.1</ele>
      </trkpt>
      <trkpt lat="45.07678" lon="5.56877">
        <ele>1064.6</ele>
      </trkpt>
      <trkpt lat="45.07706" lon="5.56966">
        <ele>1072</ele>
      </trkpt>
      <trkpt lat="45.07712" lon="5.57126">
        <ele>1084.6</ele>
      </trkpt>
      <trkpt lat="45.07698" lon="5.57156">
        <ele>1087.1</ele>
      </trkpt>
      <trkpt lat="45.07723" lon="5.57247">
        <ele>1099.1</ele>
      </trkpt>
      <trkpt lat="45.07752" lon="5.57302">
        <ele>1102</ele>
      </trkpt>
      <trkpt lat="45.07744" lon="5.57392">
        <ele>1121</ele>
        <time>2020-08-23T10:10:46Z</time>
      </trkpt>
      <trkpt lat="45.07741" lon="5.57391">
        <ele>1121.2</ele>
        <time>2020-08-23T10:10:47Z</time>
      </trkpt>
      <trkpt lat="45.07739" lon="5.57391">
        <ele>1121.4</ele>
        <time>2020-08-23T10:10:48Z</time>
      </trkpt>
      <trkpt lat="45.07737" lon="5.57392">
        <ele>1121.4</ele>
        <time>2020-08-23T10:10:49Z</time>
      </trkpt>
      <trkpt lat="45.07734" lon="5.57394">
        <ele>1121.6</ele>
        <time>2020-08-23T10:10:50Z</time>
      </trkpt>
      <trkpt lat="45.07732" lon="5.57397">
        <ele>1121.6</ele>
        <time>2020-08-23T10:10:51Z</time>
      </trkpt>
      <trkpt lat="45.0773" lon="5.57399">
        <ele>1121.6</ele>
        <time>2020-08-23T10:10:52Z</time>
      </trkpt>
      <trkpt lat="45.07728" lon="5.57401">
        <ele>1121.8</ele>
        <time>2020-08-23T10:10:53Z</time>
      </trkpt>
      <trkpt lat="45.07726" lon="5.57404">
        <ele>1122</ele>
        <time>2020-08-23T10:10:54Z</time>
      </trkpt>
      <trkpt lat="45.07724" lon="5.57406">
        <ele>1122</ele>
        <time>2020-08-23T10:10:55Z</time>
      </trkpt>
      <trkpt lat="45.07721" lon="5.57408">
        <ele>1122.2</ele>
        <time>2020-08-23T10:10:56Z</time>
      </trkpt>
      <trkpt lat="45.07719" lon="5.5741">
        <ele>1122.4</ele>
        <time>2020-08-23T10:10:57Z</time>
      </trkpt>
      <trkpt lat="45.07717" lon="5.57413">
        <ele>1122.4</ele>
        <time>2020-08-23T10:10:58Z</time>
      </trkpt>
      <trkpt lat="45.07715" lon="5.57415">
        <ele>1122.6</ele>
        <time>2020-08-23T10:10:59Z</time>
      </trkpt>
      <trkpt lat="45.07713" lon="5.57418">
        <ele>1122.6</ele>
        <time>2020-08-23T10:11:00Z</time>
      </trkpt>
      <trkpt lat="45.0771" lon="5.5742">
        <ele>1122.8</ele>
        <time>2020-08-23T10:11:01Z</time>
      </trkpt>
      <trkpt lat="45.07708" lon="5.57423">
        <ele>1122.8</ele>
        <time>2020-08-23T10:11:02Z</time>
      </trkpt>
      <trkpt lat="45.07706" lon="5.57425">
        <ele>1123</ele>
        <time>2020-08-23T10:11:03Z</time>
      </trkpt>
      <trkpt lat="45.07705" lon="5.57427">
        <ele>1123</ele>
        <time>2020-08-23T10:11:04Z</time>
      </trkpt>
      <trkpt lat="45.07703" lon="5.57429">
        <ele>1123.2</ele>
        <time>2020-08-23T10:11:05Z</time>
      </trkpt>
      <trkpt lat="45.07701" lon="5.57432">
        <ele>1123.2</ele>
        <time>2020-08-23T10:11:06Z</time>
      </trkpt>
      <trkpt lat="45.07699" lon="5.57434">
        <ele>1123.4</ele>
        <time>2020-08-23T10:11:07Z</time>
      </trkpt>
      <trkpt lat="45.07697" lon="5.57437">
        <ele>1123.4</ele>
        <time>2020-08-23T10:11:08Z</time>
      </trkpt>
      <trkpt lat="45.07696" lon="5.57439">
        <ele>1123.6</ele>
        <time>2020-08-23T10:11:09Z</time>
      </trkpt>
      <trkpt lat="45.07694" lon="5.57442">
        <ele>1123.6</ele>
        <time>2020-08-23T10:11:10Z</time>
      </trkpt>
      <trkpt lat="45.07693" lon="5.57445">
        <ele>1123.6</ele>
        <time>2020-08-23T10:11:11Z</time>
      </trkpt>
      <trkpt lat="45.07691" lon="5.57447">
        <ele>1123.6</ele>
        <time>2020-08-23T10:11:12Z</time>
      </trkpt>
      <trkpt lat="45.0769" lon="5.5745">
        <ele>1123.6</ele>
        <time>2020-08-23T10:11:13Z</time>
      </trkpt>
      <trkpt lat="45.07689" lon="5.57453">
        <ele>1123.6</ele>
        <time>2020-08-23T10:11:14Z</time>
      </trkpt>
      <trkpt lat="45.07688" lon="5.57457">
        <ele>1123.6</ele>
        <time>2020-08-23T10:11:15Z</time>
      </trkpt>
      <trkpt lat="45.07687" lon="5.5746">
        <ele>1123.8</ele>
        <time>2020-08-23T10:11:16Z</time>
      </trkpt>
      <trkpt lat="45.07687" lon="5.57463">
        <ele>1123.8</ele>
        <time>2020-08-23T10:11:17Z</time>
      </trkpt>
      <trkpt lat="45.07686" lon="5.57466">
        <ele>1123.8</ele>
        <time>2020-08-23T10:11:18Z</time>
      </trkpt>
      <trkpt lat="45.07686" lon="5.57469">
        <ele>1124</ele>
        <time>2020-08-23T10:11:19Z</time>
      </trkpt>
      <trkpt lat="45.07686" lon="5.57472">
        <ele>1124</ele>
        <time>2020-08-23T10:11:20Z</time>
      </trkpt>
      <trkpt lat="45.07686" lon="5.57476">
        <ele>1124.2</ele>
        <time>2020-08-23T10:11:21Z</time>
      </trkpt>
      <trkpt lat="45.07685" lon="5.57479">
        <ele>1124.4</ele>
        <time>2020-08-23T10:11:22Z</time>
      </trkpt>
      <trkpt lat="45.07685" lon="5.57482">
        <ele>1124.6</ele>
        <time>2020-08-23T10:11:23Z</time>
      </trkpt>
      <trkpt lat="45.07685" lon="5.57485">
        <ele>1124.6</ele>
        <time>2020-08-23T10:11:24Z</time>
      </trkpt>
      <trkpt lat="45.07685" lon="5.57488">
        <ele>1124.8</ele>
        <time>2020-08-23T10:11:25Z</time>
      </trkpt>
      <trkpt lat="45.07685" lon="5.5749">
        <ele>1125</ele>
        <time>2020-08-23T10:11:26Z</time>
      </trkpt>
      <trkpt lat="45.07685" lon="5.57493">
        <ele>1125.2</ele>
        <time>2020-08-23T10:11:27Z</time>
      </trkpt>
      <trkpt lat="45.07685" lon="5.57496">
        <ele>1125.4</ele>
        <time>2020-08-23T10:11:28Z</time>
      </trkpt>
      <trkpt lat="45.07685" lon="5.57498">
        <ele>1125.8</ele>
        <time>2020-08-23T10:11:29Z</time>
      </trkpt>
      <trkpt lat="45.07685" lon="5.575">
        <ele>1126</ele>
        <time>2020-08-23T10:11:30Z</time>
      </trkpt>
      <trkpt lat="45.07685" lon="5.57503">
        <ele>1126.2</ele>
        <time>2020-08-23T10:11:31Z</time>
      </trkpt>
      <trkpt lat="45.07684" lon="5.57505">
        <ele>1126.4</ele>
        <time>2020-08-23T10:11:32Z</time>
      </trkpt>
      <trkpt lat="45.07684" lon="5.57507">
        <ele>1126.6</ele>
        <time>2020-08-23T10:11:33Z</time>
      </trkpt>
      <trkpt lat="45.07684" lon="5.5751">
        <ele>1126.8</ele>
        <time>2020-08-23T10:11:34Z</time>
      </trkpt>
      <trkpt lat="45.07684" lon="5.57512">
        <ele>1127</ele>
        <time>2020-08-23T10:11:35Z</time>
      </trkpt>
      <trkpt lat="45.07684" lon="5.57514">
        <ele>1127.2</ele>
        <time>2020-08-23T10:11:36Z</time>
      </trkpt>
      <trkpt lat="45.07684" lon="5.57517">
        <ele>1127.4</ele>
        <time>2020-08-23T10:11:37Z</time>
      </trkpt>
      <trkpt lat="45.07684" lon="5.57519">
        <ele>1127.4</ele>
        <time>2020-08-23T10:11:38Z</time>
      </trkpt>
      <trkpt lat="45.07684" lon="5.57521">
        <ele>1127.6</ele>
        <time>2020-08-23T10:11:39Z</time>
      </trkpt>
      <trkpt lat="45.07684" lon="5.57524">
        <ele>1127.8</ele>
        <time>2020-08-23T10:11:40Z</time>
      </trkpt>
      <trkpt lat="45.07684" lon="5.57526">
        <ele>1127.8</ele>
        <time>2020-08-23T10:11:41Z</time>
      </trkpt>
      <trkpt lat="45.07683" lon="5.57529">
        <ele>1128</ele>
        <time>2020-08-23T10:11:42Z</time>
      </trkpt>
      <trkpt lat="45.07683" lon="5.57531">
        <ele>1128</ele>
        <time>2020-08-23T10:11:43Z</time>
      </trkpt>
      <trkpt lat="45.07682" lon="5.57534">
        <ele>1128.2</ele>
        <time>2020-08-23T10:11:44Z</time>
      </trkpt>
      <trkpt lat="45.07682" lon="5.57536">
        <ele>1128.4</ele>
        <time>2020-08-23T10:11:45Z</time>
      </trkpt>
      <trkpt lat="45.07681" lon="5.57538">
        <ele>1128.4</ele>
        <time>2020-08-23T10:11:46Z</time>
      </trkpt>
      <trkpt lat="45.0768" lon="5.5754">
        <ele>1128.6</ele>
        <time>2020-08-23T10:11:47Z</time>
      </trkpt>
      <trkpt lat="45.07679" lon="5.57542">
        <ele>1128.8</ele>
        <time>2020-08-23T10:11:48Z</time>
      </trkpt>
      <trkpt lat="45.07679" lon="5.57544">
        <ele>1129</ele>
        <time>2020-08-23T10:11:49Z</time>
      </trkpt>
      <trkpt lat="45.07678" lon="5.57546">
        <ele>1129</ele>
        <time>2020-08-23T10:11:50Z</time>
      </trkpt>
      <trkpt lat="45.07677" lon="5.57548">
        <ele>1129.2</ele>
        <time>2020-08-23T10:11:51Z</time>
      </trkpt>
      <trkpt lat="45.07676" lon="5.57549">
        <ele>1129.2</ele>
        <time>2020-08-23T10:11:52Z</time>
      </trkpt>
      <trkpt lat="45.07674" lon="5.5755">
        <ele>1129.4</ele>
        <time>2020-08-23T10:11:53Z</time>
      </trkpt>
      <trkpt lat="45.07673" lon="5.57551">
        <ele>1129.4</ele>
        <time>2020-08-23T10:11:54Z</time>
      </trkpt>
      <trkpt lat="45.07672" lon="5.57552">
        <ele>1129.6</ele>
        <time>2020-08-23T10:11:55Z</time>
      </trkpt>
      <trkpt lat="45.07671" lon="5.57554">
        <ele>1129.8</ele>
        <time>2020-08-23T10:11:56Z</time>
      </trkpt>
      <trkpt lat="45.0767" lon="5.57555">
        <ele>1129.8</ele>
        <time>2020-08-23T10:11:57Z</time>
      </trkpt>
      <trkpt lat="45.07669" lon="5.57557">
        <ele>1130</ele>
        <time>2020-08-23T10:11:58Z</time>
      </trkpt>
      <trkpt lat="45.07668" lon="5.57558">
        <ele>1130.2</ele>
        <time>2020-08-23T10:11:59Z</time>
      </trkpt>
      <trkpt lat="45.07667" lon="5.5756">
        <ele>1130.4</ele>
        <time>2020-08-23T10:12:00Z</time>
      </trkpt>
      <trkpt lat="45.07666" lon="5.57561">
        <ele>1130.4</ele>
        <time>2020-08-23T10:12:01Z</time>
      </trkpt>
      <trkpt lat="45.07665" lon="5.57562">
        <ele>1130.6</ele>
        <time>2020-08-23T10:12:02Z</time>
      </trkpt>
      <trkpt lat="45.07664" lon="5.57564">
        <ele>1130.6</ele>
        <time>2020-08-23T10:12:03Z</time>
      </trkpt>
      <trkpt lat="45.07663" lon="5.57565">
        <ele>1130.8</ele>
        <time>2020-08-23T10:12:04Z</time>
      </trkpt>
      <trkpt lat="45.07662" lon="5.57567">
        <ele>1130.8</ele>
        <time>2020-08-23T10:12:05Z</time>
      </trkpt>
      <trkpt lat="45.07661" lon="5.57568">
        <ele>1130.8</ele>
        <time>2020-08-23T10:12:06Z</time>
      </trkpt>
      <trkpt lat="45.07661" lon="5.57569">
        <ele>1130.8</ele>
        <time>2020-08-23T10:12:07Z</time>
      </trkpt>
      <trkpt lat="45.0766" lon="5.57571">
        <ele>1131</ele>
        <time>2020-08-23T10:12:08Z</time>
      </trkpt>
      <trkpt lat="45.07659" lon="5.57572">
        <ele>1131</ele>
        <time>2020-08-23T10:12:09Z</time>
      </trkpt>
      <trkpt lat="45.07658" lon="5.57573">
        <ele>1131</ele>
        <time>2020-08-23T10:12:10Z</time>
      </trkpt>
      <trkpt lat="45.07657" lon="5.57575">
        <ele>1131</ele>
        <time>2020-08-23T10:12:11Z</time>
      </trkpt>
      <trkpt lat="45.07656" lon="5.57576">
        <ele>1131</ele>
        <time>2020-08-23T10:12:12Z</time>
      </trkpt>
      <trkpt lat="45.07655" lon="5.57577">
        <ele>1131</ele>
        <time>2020-08-23T10:12:13Z</time>
      </trkpt>
      <trkpt lat="45.07655" lon="5.57578">
        <ele>1131</ele>
        <time>2020-08-23T10:12:14Z</time>
      </trkpt>
      <trkpt lat="45.07654" lon="5.5758">
        <ele>1131.2</ele>
        <time>2020-08-23T10:12:15Z</time>
      </trkpt>
      <trkpt lat="45.07653" lon="5.57581">
        <ele>1131.2</ele>
        <time>2020-08-23T10:12:16Z</time>
      </trkpt>
      <trkpt lat="45.07653" lon="5.57582">
        <ele>1131.2</ele>
        <time>2020-08-23T10:12:17Z</time>
      </trkpt>
      <trkpt lat="45.07652" lon="5.57584">
        <ele>1131.2</ele>
        <time>2020-08-23T10:12:18Z</time>
      </trkpt>
      <trkpt lat="45.07651" lon="5.57585">
        <ele>1131.2</ele>
        <time>2020-08-23T10:12:19Z</time>
      </trkpt>
      <trkpt lat="45.0765" lon="5.57586">
        <ele>1131.4</ele>
        <time>2020-08-23T10:12:20Z</time>
      </trkpt>
      <trkpt lat="45.07649" lon="5.57587">
        <ele>1131.4</ele>
        <time>2020-08-23T10:12:21Z</time>
      </trkpt>
      <trkpt lat="45.07649" lon="5.57589">
        <ele>1131.4</ele>
        <time>2020-08-23T10:12:22Z</time>
      </trkpt>
      <trkpt lat="45.07648" lon="5.5759">
        <ele>1131.6</ele>
        <time>2020-08-23T10:12:23Z</time>
      </trkpt>
      <trkpt lat="45.07648" lon="5.57592">
        <ele>1131.6</ele>
        <time>2020-08-23T10:12:24Z</time>
      </trkpt>
      <trkpt lat="45.07647" lon="5.57593">
        <ele>1131.8</ele>
        <time>2020-08-23T10:12:25Z</time>
      </trkpt>
      <trkpt lat="45.07646" lon="5.57595">
        <ele>1131.8</ele>
        <time>2020-08-23T10:12:26Z</time>
      </trkpt>
      <trkpt lat="45.07645" lon="5.57596">
        <ele>1132</ele>
        <time>2020-08-23T10:12:27Z</time>
      </trkpt>
      <trkpt lat="45.07645" lon="5.57598">
        <ele>1132</ele>
        <time>2020-08-23T10:12:28Z</time>
      </trkpt>
      <trkpt lat="45.07644" lon="5.57599">
        <ele>1132</ele>
        <time>2020-08-23T10:12:29Z</time>
      </trkpt>
      <trkpt lat="45.07644" lon="5.576">
        <ele>1132.2</ele>
        <time>2020-08-23T10:12:30Z</time>
      </trkpt>
      <trkpt lat="45.07643" lon="5.57602">
        <ele>1132.2</ele>
        <time>2020-08-23T10:12:31Z</time>
      </trkpt>
      <trkpt lat="45.07643" lon="5.57604">
        <ele>1132.2</ele>
        <time>2020-08-23T10:12:32Z</time>
      </trkpt>
      <trkpt lat="45.07643" lon="5.57606">
        <ele>1132.2</ele>
        <time>2020-08-23T10:12:33Z</time>
      </trkpt>
      <trkpt lat="45.07642" lon="5.57607">
        <ele>1132.2</ele>
        <time>2020-08-23T10:12:34Z</time>
      </trkpt>
      <trkpt lat="45.07642" lon="5.57609">
        <ele>1132.4</ele>
        <time>2020-08-23T10:12:35Z</time>
      </trkpt>
      <trkpt lat="45.07641" lon="5.5761">
        <ele>1132.6</ele>
        <time>2020-08-23T10:12:36Z</time>
      </trkpt>
      <trkpt lat="45.07641" lon="5.57612">
        <ele>1132.6</ele>
        <time>2020-08-23T10:12:37Z</time>
      </trkpt>
      <trkpt lat="45.07641" lon="5.57614">
        <ele>1132.8</ele>
        <time>2020-08-23T10:12:38Z</time>
      </trkpt>
      <trkpt lat="45.07641" lon="5.57615">
        <ele>1133</ele>
        <time>2020-08-23T10:12:39Z</time>
      </trkpt>
      <trkpt lat="45.0764" lon="5.57617">
        <ele>1133</ele>
        <time>2020-08-23T10:12:40Z</time>
      </trkpt>
      <trkpt lat="45.0764" lon="5.57618">
        <ele>1133.2</ele>
        <time>2020-08-23T10:12:41Z</time>
      </trkpt>
      <trkpt lat="45.0764" lon="5.5762">
        <ele>1133.2</ele>
        <time>2020-08-23T10:12:42Z</time>
      </trkpt>
      <trkpt lat="45.07639" lon="5.57621">
        <ele>1133.4</ele>
        <time>2020-08-23T10:12:43Z</time>
      </trkpt>
      <trkpt lat="45.07639" lon="5.57623">
        <ele>1133.6</ele>
        <time>2020-08-23T10:12:44Z</time>
      </trkpt>
      <trkpt lat="45.07639" lon="5.57624">
        <ele>1133.6</ele>
        <time>2020-08-23T10:12:45Z</time>
      </trkpt>
      <trkpt lat="45.0764" lon="5.57626">
        <ele>1133.8</ele>
        <time>2020-08-23T10:12:46Z</time>
      </trkpt>
      <trkpt lat="45.0764" lon="5.57628">
        <ele>1134</ele>
        <time>2020-08-23T10:12:47Z</time>
      </trkpt>
      <trkpt lat="45.0764" lon="5.57629">
        <ele>1134.2</ele>
        <time>2020-08-23T10:12:48Z</time>
      </trkpt>
      <trkpt lat="45.0764" lon="5.57631">
        <ele>1134.2</ele>
        <time>2020-08-23T10:12:49Z</time>
      </trkpt>
      <trkpt lat="45.07639" lon="5.57632">
        <ele>1134.4</ele>
        <time>2020-08-23T10:12:50Z</time>
      </trkpt>
      <trkpt lat="45.07639" lon="5.57634">
        <ele>1134.6</ele>
        <time>2020-08-23T10:12:51Z</time>
      </trkpt>
      <trkpt lat="45.07639" lon="5.57635">
        <ele>1134.8</ele>
        <time>2020-08-23T10:12:52Z</time>
      </trkpt>
      <trkpt lat="45.07639" lon="5.57637">
        <ele>1134.8</ele>
        <time>2020-08-23T10:12:53Z</time>
      </trkpt>
      <trkpt lat="45.07639" lon="5.57639">
        <ele>1134.8</ele>
        <time>2020-08-23T10:12:54Z</time>
      </trkpt>
      <trkpt lat="45.07639" lon="5.57641">
        <ele>1135</ele>
        <time>2020-08-23T10:12:55Z</time>
      </trkpt>
      <trkpt lat="45.07639" lon="5.57642">
        <ele>1135.2</ele>
        <time>2020-08-23T10:12:56Z</time>
      </trkpt>
      <trkpt lat="45.0764" lon="5.57644">
        <ele>1135.2</ele>
        <time>2020-08-23T10:12:57Z</time>
      </trkpt>
      <trkpt lat="45.0764" lon="5.57645">
        <ele>1135.4</ele>
        <time>2020-08-23T10:12:58Z</time>
      </trkpt>
      <trkpt lat="45.07641" lon="5.57647">
        <ele>1135.4</ele>
        <time>2020-08-23T10:12:59Z</time>
      </trkpt>
      <trkpt lat="45.07641" lon="5.57648">
        <ele>1135.6</ele>
        <time>2020-08-23T10:13:00Z</time>
      </trkpt>
      <trkpt lat="45.07641" lon="5.5765">
        <ele>1135.8</ele>
        <time>2020-08-23T10:13:01Z</time>
      </trkpt>
      <trkpt lat="45.07641" lon="5.57651">
        <ele>1135.8</ele>
        <time>2020-08-23T10:13:02Z</time>
      </trkpt>
      <trkpt lat="45.07641" lon="5.57653">
        <ele>1135.8</ele>
        <time>2020-08-23T10:13:03Z</time>
      </trkpt>
      <trkpt lat="45.07641" lon="5.57654">
        <ele>1136</ele>
        <time>2020-08-23T10:13:04Z</time>
      </trkpt>
      <trkpt lat="45.07641" lon="5.57656">
        <ele>1136</ele>
        <time>2020-08-23T10:13:05Z</time>
      </trkpt>
      <trkpt lat="45.07641" lon="5.57657">
        <ele>1136</ele>
        <time>2020-08-23T10:13:06Z</time>
      </trkpt>
      <trkpt lat="45.07641" lon="5.57659">
        <ele>1136.2</ele>
        <time>2020-08-23T10:13:07Z</time>
      </trkpt>
      <trkpt lat="45.07641" lon="5.5766">
        <ele>1136.2</ele>
        <time>2020-08-23T10:13:08Z</time>
      </trkpt>
      <trkpt lat="45.07641" lon="5.57662">
        <ele>1136.2</ele>
        <time>2020-08-23T10:13:09Z</time>
      </trkpt>
      <trkpt lat="45.07641" lon="5.57663">
        <ele>1136.2</ele>
        <time>2020-08-23T10:13:10Z</time>
      </trkpt>
      <trkpt lat="45.07641" lon="5.57665">
        <ele>1136.2</ele>
        <time>2020-08-23T10:13:11Z</time>
      </trkpt>
      <trkpt lat="45.07641" lon="5.57666">
        <ele>1136.4</ele>
        <time>2020-08-23T10:13:12Z</time>
      </trkpt>
      <trkpt lat="45.07641" lon="5.57668">
        <ele>1136.4</ele>
        <time>2020-08-23T10:13:13Z</time>
      </trkpt>
      <trkpt lat="45.07641" lon="5.57669">
        <ele>1136.6</ele>
        <time>2020-08-23T10:13:14Z</time>
      </trkpt>
      <trkpt lat="45.0764" lon="5.57671">
        <ele>1136.8</ele>
        <time>2020-08-23T10:13:15Z</time>
      </trkpt>
      <trkpt lat="45.07639" lon="5.57672">
        <ele>1136.8</ele>
        <time>2020-08-23T10:13:16Z</time>
      </trkpt>
      <trkpt lat="45.07639" lon="5.57674">
        <ele>1137</ele>
        <time>2020-08-23T10:13:17Z</time>
      </trkpt>
      <trkpt lat="45.07638" lon="5.57675">
        <ele>1137.2</ele>
        <time>2020-08-23T10:13:18Z</time>
      </trkpt>
      <trkpt lat="45.07637" lon="5.57676">
        <ele>1137.2</ele>
        <time>2020-08-23T10:13:19Z</time>
      </trkpt>
      <trkpt lat="45.07637" lon="5.57677">
        <ele>1137.4</ele>
        <time>2020-08-23T10:13:20Z</time>
      </trkpt>
      <trkpt lat="45.07636" lon="5.57678">
        <ele>1137.6</ele>
        <time>2020-08-23T10:13:21Z</time>
      </trkpt>
      <trkpt lat="45.07635" lon="5.57679">
        <ele>1137.6</ele>
        <time>2020-08-23T10:13:22Z</time>
      </trkpt>
      <trkpt lat="45.07633" lon="5.57679">
        <ele>1137.8</ele>
        <time>2020-08-23T10:13:23Z</time>
      </trkpt>
      <trkpt lat="45.07632" lon="5.57679">
        <ele>1137.8</ele>
        <time>2020-08-23T10:13:24Z</time>
      </trkpt>
      <trkpt lat="45.07631" lon="5.5768">
        <ele>1138</ele>
        <time>2020-08-23T10:13:25Z</time>
      </trkpt>
      <trkpt lat="45.0763" lon="5.5768">
        <ele>1138.2</ele>
        <time>2020-08-23T10:13:26Z</time>
      </trkpt>
      <trkpt lat="45.07628" lon="5.57681">
        <ele>1138.4</ele>
        <time>2020-08-23T10:13:27Z</time>
      </trkpt>
      <trkpt lat="45.07627" lon="5.57681">
        <ele>1138.6</ele>
        <time>2020-08-23T10:13:28Z</time>
      </trkpt>
      <trkpt lat="45.07626" lon="5.57681">
        <ele>1138.8</ele>
        <time>2020-08-23T10:13:29Z</time>
      </trkpt>
      <trkpt lat="45.07625" lon="5.57681">
        <ele>1138.8</ele>
        <time>2020-08-23T10:13:30Z</time>
      </trkpt>
      <trkpt lat="45.07624" lon="5.5768">
        <ele>1139</ele>
        <time>2020-08-23T10:13:31Z</time>
      </trkpt>
      <trkpt lat="45.07623" lon="5.5768">
        <ele>1139.2</ele>
        <time>2020-08-23T10:13:32Z</time>
      </trkpt>
      <trkpt lat="45.07621" lon="5.5768">
        <ele>1139.2</ele>
        <time>2020-08-23T10:13:33Z</time>
      </trkpt>
      <trkpt lat="45.0762" lon="5.57679">
        <ele>1139.4</ele>
        <time>2020-08-23T10:13:34Z</time>
      </trkpt>
      <trkpt lat="45.07619" lon="5.57679">
        <ele>1139.6</ele>
        <time>2020-08-23T10:13:35Z</time>
      </trkpt>
      <trkpt lat="45.07618" lon="5.5768">
        <ele>1139.8</ele>
        <time>2020-08-23T10:13:36Z</time>
      </trkpt>
      <trkpt lat="45.07617" lon="5.5768">
        <ele>1140</ele>
        <time>2020-08-23T10:13:37Z</time>
      </trkpt>
      <trkpt lat="45.07616" lon="5.5768">
        <ele>1140.2</ele>
        <time>2020-08-23T10:13:38Z</time>
      </trkpt>
      <trkpt lat="45.07615" lon="5.5768">
        <ele>1140.2</ele>
        <time>2020-08-23T10:13:39Z</time>
      </trkpt>
      <trkpt lat="45.07614" lon="5.5768">
        <ele>1140.4</ele>
        <time>2020-08-23T10:13:40Z</time>
      </trkpt>
      <trkpt lat="45.07613" lon="5.5768">
        <ele>1140.6</ele>
        <time>2020-08-23T10:13:41Z</time>
      </trkpt>
      <trkpt lat="45.07612" lon="5.57679">
        <ele>1140.6</ele>
        <time>2020-08-23T10:13:42Z</time>
      </trkpt>
      <trkpt lat="45.0761" lon="5.5768">
        <ele>1140.8</ele>
        <time>2020-08-23T10:13:43Z</time>
      </trkpt>
      <trkpt lat="45.0761" lon="5.5768">
        <ele>1141</ele>
        <time>2020-08-23T10:13:44Z</time>
      </trkpt>
      <trkpt lat="45.07608" lon="5.57681">
        <ele>1141.2</ele>
        <time>2020-08-23T10:13:45Z</time>
      </trkpt>
      <trkpt lat="45.07607" lon="5.57681">
        <ele>1141.4</ele>
        <time>2020-08-23T10:13:46Z</time>
      </trkpt>
      <trkpt lat="45.07607" lon="5.57681">
        <ele>1141.4</ele>
        <time>2020-08-23T10:13:47Z</time>
      </trkpt>
      <trkpt lat="45.07605" lon="5.57681">
        <ele>1141.8</ele>
        <time>2020-08-23T10:13:48Z</time>
      </trkpt>
      <trkpt lat="45.07604" lon="5.5768">
        <ele>1141.8</ele>
        <time>2020-08-23T10:13:49Z</time>
      </trkpt>
      <trkpt lat="45.07603" lon="5.57679">
        <ele>1142</ele>
        <time>2020-08-23T10:13:50Z</time>
      </trkpt>
      <trkpt lat="45.07602" lon="5.57678">
        <ele>1142.2</ele>
        <time>2020-08-23T10:13:51Z</time>
      </trkpt>
      <trkpt lat="45.07601" lon="5.57679">
        <ele>1142.4</ele>
        <time>2020-08-23T10:13:52Z</time>
      </trkpt>
      <trkpt lat="45.076" lon="5.5768">
        <ele>1142.6</ele>
        <time>2020-08-23T10:13:53Z</time>
      </trkpt>
      <trkpt lat="45.076" lon="5.57681">
        <ele>1142.6</ele>
        <time>2020-08-23T10:13:54Z</time>
      </trkpt>
      <trkpt lat="45.07599" lon="5.57683">
        <ele>1142.8</ele>
        <time>2020-08-23T10:13:55Z</time>
      </trkpt>
      <trkpt lat="45.07599" lon="5.57685">
        <ele>1142.8</ele>
        <time>2020-08-23T10:13:56Z</time>
      </trkpt>
      <trkpt lat="45.07599" lon="5.57687">
        <ele>1142.8</ele>
        <time>2020-08-23T10:13:57Z</time>
      </trkpt>
      <trkpt lat="45.07599" lon="5.57688">
        <ele>1143</ele>
        <time>2020-08-23T10:13:58Z</time>
      </trkpt>
      <trkpt lat="45.07598" lon="5.5769">
        <ele>1143</ele>
        <time>2020-08-23T10:13:59Z</time>
      </trkpt>
      <trkpt lat="45.07598" lon="5.57691">
        <ele>1143.2</ele>
        <time>2020-08-23T10:14:00Z</time>
      </trkpt>
      <trkpt lat="45.07598" lon="5.57693">
        <ele>1143.4</ele>
        <time>2020-08-23T10:14:01Z</time>
      </trkpt>
      <trkpt lat="45.07598" lon="5.57695">
        <ele>1143.4</ele>
        <time>2020-08-23T10:14:02Z</time>
      </trkpt>
      <trkpt lat="45.07597" lon="5.57696">
        <ele>1143.6</ele>
        <time>2020-08-23T10:14:03Z</time>
      </trkpt>
      <trkpt lat="45.07597" lon="5.57698">
        <ele>1143.6</ele>
        <time>2020-08-23T10:14:04Z</time>
      </trkpt>
      <trkpt lat="45.07597" lon="5.577">
        <ele>1143.8</ele>
        <time>2020-08-23T10:14:05Z</time>
      </trkpt>
      <trkpt lat="45.07596" lon="5.57701">
        <ele>1144</ele>
        <time>2020-08-23T10:14:06Z</time>
      </trkpt>
      <trkpt lat="45.07596" lon="5.57702">
        <ele>1144</ele>
        <time>2020-08-23T10:14:07Z</time>
      </trkpt>
      <trkpt lat="45.07595" lon="5.57704">
        <ele>1144.2</ele>
        <time>2020-08-23T10:14:08Z</time>
      </trkpt>
      <trkpt lat="45.07595" lon="5.57705">
        <ele>1144.2</ele>
        <time>2020-08-23T10:14:09Z</time>
      </trkpt>
      <trkpt lat="45.07594" lon="5.57706">
        <ele>1144.4</ele>
        <time>2020-08-23T10:14:10Z</time>
      </trkpt>
      <trkpt lat="45.07592" lon="5.57707">
        <ele>1144.4</ele>
        <time>2020-08-23T10:14:11Z</time>
      </trkpt>
      <trkpt lat="45.07592" lon="5.57708">
        <ele>1144.6</ele>
        <time>2020-08-23T10:14:12Z</time>
      </trkpt>
      <trkpt lat="45.0759" lon="5.57709">
        <ele>1144.8</ele>
        <time>2020-08-23T10:14:13Z</time>
      </trkpt>
      <trkpt lat="45.07589" lon="5.57709">
        <ele>1144.8</ele>
        <time>2020-08-23T10:14:14Z</time>
      </trkpt>
      <trkpt lat="45.07588" lon="5.5771">
        <ele>1145</ele>
        <time>2020-08-23T10:14:15Z</time>
      </trkpt>
      <trkpt lat="45.07587" lon="5.5771">
        <ele>1145</ele>
        <time>2020-08-23T10:14:16Z</time>
      </trkpt>
      <trkpt lat="45.07586" lon="5.5771">
        <ele>1145.2</ele>
        <time>2020-08-23T10:14:17Z</time>
      </trkpt>
      <trkpt lat="45.07584" lon="5.5771">
        <ele>1145.4</ele>
        <time>2020-08-23T10:14:18Z</time>
      </trkpt>
      <trkpt lat="45.07583" lon="5.5771">
        <ele>1145.4</ele>
        <time>2020-08-23T10:14:19Z</time>
      </trkpt>
      <trkpt lat="45.07582" lon="5.57709">
        <ele>1145.4</ele>
        <time>2020-08-23T10:14:20Z</time>
      </trkpt>
      <trkpt lat="45.07581" lon="5.57709">
        <ele>1145.6</ele>
        <time>2020-08-23T10:14:21Z</time>
      </trkpt>
      <trkpt lat="45.07579" lon="5.57709">
        <ele>1145.6</ele>
        <time>2020-08-23T10:14:22Z</time>
      </trkpt>
      <trkpt lat="45.07578" lon="5.57709">
        <ele>1145.8</ele>
        <time>2020-08-23T10:14:23Z</time>
      </trkpt>
      <trkpt lat="45.07577" lon="5.57708">
        <ele>1145.8</ele>
        <time>2020-08-23T10:14:24Z</time>
      </trkpt>
      <trkpt lat="45.07576" lon="5.57707">
        <ele>1146</ele>
        <time>2020-08-23T10:14:25Z</time>
      </trkpt>
      <trkpt lat="45.07575" lon="5.57706">
        <ele>1146</ele>
        <time>2020-08-23T10:14:26Z</time>
      </trkpt>
      <trkpt lat="45.07574" lon="5.57706">
        <ele>1146.2</ele>
        <time>2020-08-23T10:14:27Z</time>
      </trkpt>
      <trkpt lat="45.07573" lon="5.57706">
        <ele>1146.4</ele>
        <time>2020-08-23T10:14:28Z</time>
      </trkpt>
      <trkpt lat="45.07571" lon="5.57705">
        <ele>1146.6</ele>
        <time>2020-08-23T10:14:29Z</time>
      </trkpt>
      <trkpt lat="45.07571" lon="5.57706">
        <ele>1146.8</ele>
        <time>2020-08-23T10:14:30Z</time>
      </trkpt>
      <trkpt lat="45.0757" lon="5.57707">
        <ele>1147</ele>
        <time>2020-08-23T10:14:31Z</time>
      </trkpt>
      <trkpt lat="45.07569" lon="5.57708">
        <ele>1147.2</ele>
        <time>2020-08-23T10:14:32Z</time>
      </trkpt>
      <trkpt lat="45.07568" lon="5.5771">
        <ele>1147.2</ele>
        <time>2020-08-23T10:14:33Z</time>
      </trkpt>
      <trkpt lat="45.07568" lon="5.57711">
        <ele>1147.4</ele>
        <time>2020-08-23T10:14:34Z</time>
      </trkpt>
      <trkpt lat="45.07568" lon="5.57713">
        <ele>1147.6</ele>
        <time>2020-08-23T10:14:35Z</time>
      </trkpt>
      <trkpt lat="45.07568" lon="5.57715">
        <ele>1148</ele>
        <time>2020-08-23T10:14:36Z</time>
      </trkpt>
      <trkpt lat="45.07567" lon="5.57716">
        <ele>1148.2</ele>
        <time>2020-08-23T10:14:37Z</time>
      </trkpt>
      <trkpt lat="45.07566" lon="5.57716">
        <ele>1148.4</ele>
        <time>2020-08-23T10:14:38Z</time>
      </trkpt>
      <trkpt lat="45.07565" lon="5.57716">
        <ele>1148.6</ele>
        <time>2020-08-23T10:14:39Z</time>
      </trkpt>
      <trkpt lat="45.07563" lon="5.57717">
        <ele>1148.8</ele>
        <time>2020-08-23T10:14:40Z</time>
      </trkpt>
      <trkpt lat="45.07562" lon="5.57717">
        <ele>1149</ele>
        <time>2020-08-23T10:14:41Z</time>
      </trkpt>
      <trkpt lat="45.07561" lon="5.57717">
        <ele>1149.2</ele>
        <time>2020-08-23T10:14:42Z</time>
      </trkpt>
      <trkpt lat="45.0756" lon="5.57718">
        <ele>1149.4</ele>
        <time>2020-08-23T10:14:43Z</time>
      </trkpt>
      <trkpt lat="45.07559" lon="5.57719">
        <ele>1149.6</ele>
        <time>2020-08-23T10:14:44Z</time>
      </trkpt>
      <trkpt lat="45.07558" lon="5.5772">
        <ele>1149.8</ele>
        <time>2020-08-23T10:14:45Z</time>
      </trkpt>
      <trkpt lat="45.07557" lon="5.57721">
        <ele>1150</ele>
        <time>2020-08-23T10:14:46Z</time>
      </trkpt>
      <trkpt lat="45.07556" lon="5.57723">
        <ele>1150.2</ele>
        <time>2020-08-23T10:14:47Z</time>
      </trkpt>
      <trkpt lat="45.07556" lon="5.57724">
        <ele>1150.4</ele>
        <time>2020-08-23T10:14:48Z</time>
      </trkpt>
      <trkpt lat="45.07555" lon="5.57726">
        <ele>1150.6</ele>
        <time>2020-08-23T10:14:49Z</time>
      </trkpt>
      <trkpt lat="45.07554" lon="5.57727">
        <ele>1150.6</ele>
        <time>2020-08-23T10:14:50Z</time>
      </trkpt>
      <trkpt lat="45.07554" lon="5.57728">
        <ele>1150.8</ele>
        <time>2020-08-23T10:14:51Z</time>
      </trkpt>
      <trkpt lat="45.07553" lon="5.57729">
        <ele>1151</ele>
        <time>2020-08-23T10:14:52Z</time>
      </trkpt>
      <trkpt lat="45.07551" lon="5.57729">
        <ele>1151.2</ele>
        <time>2020-08-23T10:14:53Z</time>
      </trkpt>
      <trkpt lat="45.0755" lon="5.57729">
        <ele>1151.4</ele>
        <time>2020-08-23T10:14:54Z</time>
      </trkpt>
      <trkpt lat="45.07549" lon="5.5773">
        <ele>1151.6</ele>
        <time>2020-08-23T10:14:55Z</time>
      </trkpt>
      <trkpt lat="45.07548" lon="5.57731">
        <ele>1151.6</ele>
        <time>2020-08-23T10:14:56Z</time>
      </trkpt>
      <trkpt lat="45.07547" lon="5.57732">
        <ele>1151.8</ele>
        <time>2020-08-23T10:14:57Z</time>
      </trkpt>
      <trkpt lat="45.07547" lon="5.57734">
        <ele>1151.8</ele>
        <time>2020-08-23T10:14:58Z</time>
      </trkpt>
      <trkpt lat="45.07547" lon="5.57735">
        <ele>1152</ele>
        <time>2020-08-23T10:14:59Z</time>
      </trkpt>
      <trkpt lat="45.07546" lon="5.57736">
        <ele>1152.2</ele>
        <time>2020-08-23T10:15:00Z</time>
      </trkpt>
      <trkpt lat="45.07545" lon="5.57737">
        <ele>1152.4</ele>
        <time>2020-08-23T10:15:01Z</time>
      </trkpt>
      <trkpt lat="45.07544" lon="5.57737">
        <ele>1152.4</ele>
        <time>2020-08-23T10:15:02Z</time>
      </trkpt>
      <trkpt lat="45.07542" lon="5.57737">
        <ele>1152.6</ele>
        <time>2020-08-23T10:15:03Z</time>
      </trkpt>
      <trkpt lat="45.07541" lon="5.57737">
        <ele>1153</ele>
        <time>2020-08-23T10:15:04Z</time>
      </trkpt>
      <trkpt lat="45.0754" lon="5.57738">
        <ele>1153.2</ele>
        <time>2020-08-23T10:15:05Z</time>
      </trkpt>
      <trkpt lat="45.07539" lon="5.57739">
        <ele>1153.4</ele>
        <time>2020-08-23T10:15:06Z</time>
      </trkpt>
      <trkpt lat="45.07538" lon="5.5774">
        <ele>1153.6</ele>
        <time>2020-08-23T10:15:07Z</time>
      </trkpt>
      <trkpt lat="45.07537" lon="5.57741">
        <ele>1153.8</ele>
        <time>2020-08-23T10:15:08Z</time>
      </trkpt>
      <trkpt lat="45.07536" lon="5.57742">
        <ele>1154</ele>
        <time>2020-08-23T10:15:09Z</time>
      </trkpt>
      <trkpt lat="45.07535" lon="5.57743">
        <ele>1154.2</ele>
        <time>2020-08-23T10:15:10Z</time>
      </trkpt>
      <trkpt lat="45.07534" lon="5.57744">
        <ele>1154.4</ele>
        <time>2020-08-23T10:15:11Z</time>
      </trkpt>
      <trkpt lat="45.07533" lon="5.57745">
        <ele>1154.4</ele>
        <time>2020-08-23T10:15:12Z</time>
      </trkpt>
      <trkpt lat="45.07533" lon="5.57745">
        <ele>1154.6</ele>
        <time>2020-08-23T10:15:13Z</time>
      </trkpt>
      <trkpt lat="45.07532" lon="5.57746">
        <ele>1154.8</ele>
        <time>2020-08-23T10:15:14Z</time>
      </trkpt>
      <trkpt lat="45.07531" lon="5.57747">
        <ele>1155</ele>
        <time>2020-08-23T10:15:15Z</time>
      </trkpt>
      <trkpt lat="45.07529" lon="5.57748">
        <ele>1155.2</ele>
        <time>2020-08-23T10:15:16Z</time>
      </trkpt>
      <trkpt lat="45.07529" lon="5.57749">
        <ele>1155.4</ele>
        <time>2020-08-23T10:15:17Z</time>
      </trkpt>
      <trkpt lat="45.07528" lon="5.5775">
        <ele>1155.6</ele>
        <time>2020-08-23T10:15:18Z</time>
      </trkpt>
      <trkpt lat="45.07527" lon="5.57751">
        <ele>1155.8</ele>
        <time>2020-08-23T10:15:19Z</time>
      </trkpt>
      <trkpt lat="45.07526" lon="5.57752">
        <ele>1156</ele>
        <time>2020-08-23T10:15:20Z</time>
      </trkpt>
      <trkpt lat="45.07525" lon="5.57753">
        <ele>1156.2</ele>
        <time>2020-08-23T10:15:21Z</time>
      </trkpt>
      <trkpt lat="45.07524" lon="5.57754">
        <ele>1156.4</ele>
        <time>2020-08-23T10:15:22Z</time>
      </trkpt>
      <trkpt lat="45.07523" lon="5.57754">
        <ele>1156.6</ele>
        <time>2020-08-23T10:15:23Z</time>
      </trkpt>
      <trkpt lat="45.07521" lon="5.57754">
        <ele>1156.8</ele>
        <time>2020-08-23T10:15:24Z</time>
      </trkpt>
      <trkpt lat="45.07521" lon="5.57755">
        <ele>1156.8</ele>
        <time>2020-08-23T10:15:25Z</time>
      </trkpt>
      <trkpt lat="45.0752" lon="5.57755">
        <ele>1157</ele>
        <time>2020-08-23T10:15:26Z</time>
      </trkpt>
      <trkpt lat="45.07519" lon="5.57756">
        <ele>1157.2</ele>
        <time>2020-08-23T10:15:27Z</time>
      </trkpt>
      <trkpt lat="45.07518" lon="5.57758">
        <ele>1157.4</ele>
        <time>2020-08-23T10:15:28Z</time>
      </trkpt>
      <trkpt lat="45.07517" lon="5.57759">
        <ele>1157.6</ele>
        <time>2020-08-23T10:15:29Z</time>
      </trkpt>
      <trkpt lat="45.07517" lon="5.5776">
        <ele>1157.8</ele>
        <time>2020-08-23T10:15:30Z</time>
      </trkpt>
      <trkpt lat="45.07516" lon="5.57761">
        <ele>1158</ele>
        <time>2020-08-23T10:15:31Z</time>
      </trkpt>
      <trkpt lat="45.07515" lon="5.57763">
        <ele>1158.2</ele>
        <time>2020-08-23T10:15:32Z</time>
      </trkpt>
      <trkpt lat="45.07514" lon="5.57764">
        <ele>1158.4</ele>
        <time>2020-08-23T10:15:33Z</time>
      </trkpt>
      <trkpt lat="45.07513" lon="5.57765">
        <ele>1158.6</ele>
        <time>2020-08-23T10:15:34Z</time>
      </trkpt>
      <trkpt lat="45.07513" lon="5.57766">
        <ele>1158.8</ele>
        <time>2020-08-23T10:15:35Z</time>
      </trkpt>
      <trkpt lat="45.07512" lon="5.57767">
        <ele>1159</ele>
        <time>2020-08-23T10:15:36Z</time>
      </trkpt>
      <trkpt lat="45.07511" lon="5.57768">
        <ele>1159.2</ele>
        <time>2020-08-23T10:15:37Z</time>
      </trkpt>
      <trkpt lat="45.0751" lon="5.57769">
        <ele>1159.4</ele>
        <time>2020-08-23T10:15:38Z</time>
      </trkpt>
      <trkpt lat="45.07509" lon="5.5777">
        <ele>1159.6</ele>
        <time>2020-08-23T10:15:39Z</time>
      </trkpt>
      <trkpt lat="45.07508" lon="5.57771">
        <ele>1159.8</ele>
        <time>2020-08-23T10:15:40Z</time>
      </trkpt>
      <trkpt lat="45.07507" lon="5.57773">
        <ele>1160</ele>
        <time>2020-08-23T10:15:41Z</time>
      </trkpt>
      <trkpt lat="45.07506" lon="5.57774">
        <ele>1160.2</ele>
        <time>2020-08-23T10:15:42Z</time>
      </trkpt>
      <trkpt lat="45.07505" lon="5.57775">
        <ele>1160.4</ele>
        <time>2020-08-23T10:15:43Z</time>
      </trkpt>
      <trkpt lat="45.07504" lon="5.57777">
        <ele>1160.6</ele>
        <time>2020-08-23T10:15:44Z</time>
      </trkpt>
      <trkpt lat="45.07504" lon="5.57778">
        <ele>1160.8</ele>
        <time>2020-08-23T10:15:45Z</time>
      </trkpt>
      <trkpt lat="45.07502" lon="5.57779">
        <ele>1161</ele>
        <time>2020-08-23T10:15:46Z</time>
      </trkpt>
      <trkpt lat="45.07501" lon="5.5778">
        <ele>1161.4</ele>
        <time>2020-08-23T10:15:47Z</time>
      </trkpt>
      <trkpt lat="45.07501" lon="5.57781">
        <ele>1161.6</ele>
        <time>2020-08-23T10:15:48Z</time>
      </trkpt>
      <trkpt lat="45.075" lon="5.57782">
        <ele>1161.8</ele>
        <time>2020-08-23T10:15:49Z</time>
      </trkpt>
      <trkpt lat="45.07499" lon="5.57784">
        <ele>1162</ele>
        <time>2020-08-23T10:15:50Z</time>
      </trkpt>
      <trkpt lat="45.07497" lon="5.57785">
        <ele>1162.2</ele>
        <time>2020-08-23T10:15:51Z</time>
      </trkpt>
      <trkpt lat="45.07497" lon="5.57787">
        <ele>1162.4</ele>
        <time>2020-08-23T10:15:52Z</time>
      </trkpt>
      <trkpt lat="45.07496" lon="5.57788">
        <ele>1162.6</ele>
        <time>2020-08-23T10:15:53Z</time>
      </trkpt>
      <trkpt lat="45.07495" lon="5.57789">
        <ele>1162.8</ele>
        <time>2020-08-23T10:15:54Z</time>
      </trkpt>
      <trkpt lat="45.07494" lon="5.57791">
        <ele>1163.2</ele>
        <time>2020-08-23T10:15:55Z</time>
      </trkpt>
      <trkpt lat="45.07493" lon="5.57792">
        <ele>1163.4</ele>
        <time>2020-08-23T10:15:56Z</time>
      </trkpt>
      <trkpt lat="45.07492" lon="5.57793">
        <ele>1163.8</ele>
        <time>2020-08-23T10:15:57Z</time>
      </trkpt>
      <trkpt lat="45.07491" lon="5.57794">
        <ele>1164</ele>
        <time>2020-08-23T10:15:58Z</time>
      </trkpt>
      <trkpt lat="45.0749" lon="5.57796">
        <ele>1164.4</ele>
        <time>2020-08-23T10:15:59Z</time>
      </trkpt>
      <trkpt lat="45.07489" lon="5.57797">
        <ele>1164.8</ele>
        <time>2020-08-23T10:16:00Z</time>
      </trkpt>
      <trkpt lat="45.07488" lon="5.57798">
        <ele>1165</ele>
        <time>2020-08-23T10:16:01Z</time>
      </trkpt>
      <trkpt lat="45.07486" lon="5.57799">
        <ele>1165.4</ele>
        <time>2020-08-23T10:16:02Z</time>
      </trkpt>
      <trkpt lat="45.07485" lon="5.578">
        <ele>1165.6</ele>
        <time>2020-08-23T10:16:03Z</time>
      </trkpt>
      <trkpt lat="45.07484" lon="5.57801">
        <ele>1166</ele>
        <time>2020-08-23T10:16:04Z</time>
      </trkpt>
      <trkpt lat="45.07483" lon="5.57802">
        <ele>1166.2</ele>
        <time>2020-08-23T10:16:05Z</time>
      </trkpt>
      <trkpt lat="45.07481" lon="5.57803">
        <ele>1166.6</ele>
        <time>2020-08-23T10:16:06Z</time>
      </trkpt>
      <trkpt lat="45.0748" lon="5.57803">
        <ele>1167</ele>
        <time>2020-08-23T10:16:07Z</time>
      </trkpt>
      <trkpt lat="45.07478" lon="5.57804">
        <ele>1167.2</ele>
        <time>2020-08-23T10:16:08Z</time>
      </trkpt>
      <trkpt lat="45.07477" lon="5.57805">
        <ele>1167.6</ele>
        <time>2020-08-23T10:16:09Z</time>
      </trkpt>
      <trkpt lat="45.07476" lon="5.57806">
        <ele>1168</ele>
        <time>2020-08-23T10:16:10Z</time>
      </trkpt>
      <trkpt lat="45.07475" lon="5.57807">
        <ele>1168.2</ele>
        <time>2020-08-23T10:16:11Z</time>
      </trkpt>
      <trkpt lat="45.07473" lon="5.57808">
        <ele>1168.6</ele>
        <time>2020-08-23T10:16:12Z</time>
      </trkpt>
      <trkpt lat="45.07472" lon="5.57809">
        <ele>1169</ele>
        <time>2020-08-23T10:16:13Z</time>
      </trkpt>
      <trkpt lat="45.07471" lon="5.5781">
        <ele>1169.2</ele>
        <time>2020-08-23T10:16:14Z</time>
      </trkpt>
      <trkpt lat="45.0747" lon="5.57811">
        <ele>1169.6</ele>
        <time>2020-08-23T10:16:15Z</time>
      </trkpt>
      <trkpt lat="45.07468" lon="5.57811">
        <ele>1169.8</ele>
        <time>2020-08-23T10:16:16Z</time>
      </trkpt>
      <trkpt lat="45.07467" lon="5.57812">
        <ele>1170.2</ele>
        <time>2020-08-23T10:16:17Z</time>
      </trkpt>
      <trkpt lat="45.07465" lon="5.57812">
        <ele>1170.6</ele>
        <time>2020-08-23T10:16:18Z</time>
      </trkpt>
      <trkpt lat="45.07464" lon="5.57813">
        <ele>1170.8</ele>
        <time>2020-08-23T10:16:19Z</time>
      </trkpt>
      <trkpt lat="45.07462" lon="5.57814">
        <ele>1171.2</ele>
        <time>2020-08-23T10:16:20Z</time>
      </trkpt>
      <trkpt lat="45.07461" lon="5.57815">
        <ele>1171.4</ele>
        <time>2020-08-23T10:16:21Z</time>
      </trkpt>
      <trkpt lat="45.07459" lon="5.57816">
        <ele>1171.8</ele>
        <time>2020-08-23T10:16:22Z</time>
      </trkpt>
      <trkpt lat="45.07458" lon="5.57817">
        <ele>1172</ele>
        <time>2020-08-23T10:16:23Z</time>
      </trkpt>
      <trkpt lat="45.07456" lon="5.57818">
        <ele>1172.4</ele>
        <time>2020-08-23T10:16:24Z</time>
      </trkpt>
      <trkpt lat="45.07455" lon="5.57819">
        <ele>1172.6</ele>
        <time>2020-08-23T10:16:25Z</time>
      </trkpt>
      <trkpt lat="45.07454" lon="5.5782">
        <ele>1172.8</ele>
        <time>2020-08-23T10:16:26Z</time>
      </trkpt>
      <trkpt lat="45.07452" lon="5.57822">
        <ele>1173.2</ele>
        <time>2020-08-23T10:16:27Z</time>
      </trkpt>
      <trkpt lat="45.07451" lon="5.57823">
        <ele>1173.4</ele>
        <time>2020-08-23T10:16:28Z</time>
      </trkpt>
      <trkpt lat="45.0745" lon="5.57825">
        <ele>1173.8</ele>
        <time>2020-08-23T10:16:29Z</time>
      </trkpt>
      <trkpt lat="45.07449" lon="5.57826">
        <ele>1174</ele>
        <time>2020-08-23T10:16:30Z</time>
      </trkpt>
      <trkpt lat="45.07448" lon="5.57827">
        <ele>1174.4</ele>
        <time>2020-08-23T10:16:31Z</time>
      </trkpt>
      <trkpt lat="45.07447" lon="5.57828">
        <ele>1174.6</ele>
        <time>2020-08-23T10:16:32Z</time>
      </trkpt>
      <trkpt lat="45.07445" lon="5.57829">
        <ele>1174.8</ele>
        <time>2020-08-23T10:16:33Z</time>
      </trkpt>
      <trkpt lat="45.07443" lon="5.57829">
        <ele>1175</ele>
        <time>2020-08-23T10:16:34Z</time>
      </trkpt>
      <trkpt lat="45.07441" lon="5.57829">
        <ele>1175.2</ele>
        <time>2020-08-23T10:16:35Z</time>
      </trkpt>
      <trkpt lat="45.07439" lon="5.57828">
        <ele>1175.4</ele>
        <time>2020-08-23T10:16:36Z</time>
      </trkpt>
      <trkpt lat="45.07438" lon="5.57827">
        <ele>1175.6</ele>
        <time>2020-08-23T10:16:37Z</time>
      </trkpt>
      <trkpt lat="45.07436" lon="5.57827">
        <ele>1175.8</ele>
        <time>2020-08-23T10:16:38Z</time>
      </trkpt>
      <trkpt lat="45.07433" lon="5.57827">
        <ele>1176.2</ele>
        <time>2020-08-23T10:16:39Z</time>
      </trkpt>
      <trkpt lat="45.07431" lon="5.57826">
        <ele>1176.4</ele>
        <time>2020-08-23T10:16:40Z</time>
      </trkpt>
      <trkpt lat="45.07428" lon="5.57826">
        <ele>1176.6</ele>
        <time>2020-08-23T10:16:41Z</time>
      </trkpt>
      <trkpt lat="45.07426" lon="5.57825">
        <ele>1176.8</ele>
        <time>2020-08-23T10:16:42Z</time>
      </trkpt>
      <trkpt lat="45.07423" lon="5.57824">
        <ele>1177</ele>
        <time>2020-08-23T10:16:43Z</time>
      </trkpt>
      <trkpt lat="45.0742" lon="5.57824">
        <ele>1177.2</ele>
        <time>2020-08-23T10:16:44Z</time>
      </trkpt>
      <trkpt lat="45.07417" lon="5.57823">
        <ele>1177.4</ele>
        <time>2020-08-23T10:16:45Z</time>
      </trkpt>
      <trkpt lat="45.07414" lon="5.57822">
        <ele>1177.6</ele>
        <time>2020-08-23T10:16:46Z</time>
      </trkpt>
      <trkpt lat="45.07412" lon="5.57821">
        <ele>1177.8</ele>
        <time>2020-08-23T10:16:47Z</time>
      </trkpt>
      <trkpt lat="45.07409" lon="5.5782">
        <ele>1178</ele>
        <time>2020-08-23T10:16:48Z</time>
      </trkpt>
      <trkpt lat="45.07405" lon="5.57819">
        <ele>1178.2</ele>
        <time>2020-08-23T10:16:49Z</time>
      </trkpt>
      <trkpt lat="45.07402" lon="5.57817">
        <ele>1178.4</ele>
        <time>2020-08-23T10:16:50Z</time>
      </trkpt>
      <trkpt lat="45.07399" lon="5.57816">
        <ele>1178.6</ele>
        <time>2020-08-23T10:16:51Z</time>
      </trkpt>
      <trkpt lat="45.07396" lon="5.57816">
        <ele>1178.8</ele>
        <time>2020-08-23T10:16:52Z</time>
      </trkpt>
      <trkpt lat="45.07393" lon="5.57815">
        <ele>1178.8</ele>
        <time>2020-08-23T10:16:53Z</time>
      </trkpt>
      <trkpt lat="45.0739" lon="5.57814">
        <ele>1179</ele>
        <time>2020-08-23T10:16:54Z</time>
      </trkpt>
      <trkpt lat="45.07388" lon="5.57813">
        <ele>1179.2</ele>
        <time>2020-08-23T10:16:55Z</time>
      </trkpt>
      <trkpt lat="45.07385" lon="5.57812">
        <ele>1179.4</ele>
        <time>2020-08-23T10:16:56Z</time>
      </trkpt>
      <trkpt lat="45.07383" lon="5.5781">
        <ele>1179.6</ele>
        <time>2020-08-23T10:16:57Z</time>
      </trkpt>
      <trkpt lat="45.0738" lon="5.57808">
        <ele>1179.8</ele>
        <time>2020-08-23T10:16:58Z</time>
      </trkpt>
      <trkpt lat="45.07377" lon="5.57807">
        <ele>1180</ele>
        <time>2020-08-23T10:16:59Z</time>
      </trkpt>
      <trkpt lat="45.07374" lon="5.57806">
        <ele>1180.2</ele>
        <time>2020-08-23T10:17:00Z</time>
      </trkpt>
      <trkpt lat="45.07371" lon="5.57807">
        <ele>1180.4</ele>
        <time>2020-08-23T10:17:01Z</time>
      </trkpt>
      <trkpt lat="45.07368" lon="5.57808">
        <ele>1180.4</ele>
        <time>2020-08-23T10:17:02Z</time>
      </trkpt>
      <trkpt lat="45.07366" lon="5.5781">
        <ele>1180.6</ele>
        <time>2020-08-23T10:17:03Z</time>
      </trkpt>
      <trkpt lat="45.07364" lon="5.57812">
        <ele>1180.8</ele>
        <time>2020-08-23T10:17:04Z</time>
      </trkpt>
      <trkpt lat="45.07362" lon="5.57814">
        <ele>1180.8</ele>
        <time>2020-08-23T10:17:05Z</time>
      </trkpt>
      <trkpt lat="45.0736" lon="5.57816">
        <ele>1181</ele>
        <time>2020-08-23T10:17:06Z</time>
      </trkpt>
      <trkpt lat="45.07358" lon="5.57818">
        <ele>1181.2</ele>
        <time>2020-08-23T10:17:07Z</time>
      </trkpt>
      <trkpt lat="45.07356" lon="5.57821">
        <ele>1181.4</ele>
        <time>2020-08-23T10:17:08Z</time>
      </trkpt>
      <trkpt lat="45.07354" lon="5.57824">
        <ele>1181.6</ele>
        <time>2020-08-23T10:17:09Z</time>
      </trkpt>
      <trkpt lat="45.07352" lon="5.57829">
        <ele>1181.8</ele>
        <time>2020-08-23T10:17:10Z</time>
      </trkpt>
      <trkpt lat="45.0735" lon="5.57835">
        <ele>1182</ele>
        <time>2020-08-23T10:17:11Z</time>
      </trkpt>
      <trkpt lat="45.07348" lon="5.5784">
        <ele>1182.2</ele>
        <time>2020-08-23T10:17:12Z</time>
      </trkpt>
      <trkpt lat="45.07346" lon="5.57845">
        <ele>1182.6</ele>
        <time>2020-08-23T10:17:13Z</time>
      </trkpt>
      <trkpt lat="45.07344" lon="5.57849">
        <ele>1182.8</ele>
        <time>2020-08-23T10:17:14Z</time>
      </trkpt>
      <trkpt lat="45.07343" lon="5.57853">
        <ele>1183.2</ele>
        <time>2020-08-23T10:17:15Z</time>
      </trkpt>
      <trkpt lat="45.07343" lon="5.57856">
        <ele>1183.4</ele>
        <time>2020-08-23T10:17:16Z</time>
      </trkpt>
      <trkpt lat="45.07341" lon="5.57859">
        <ele>1183.8</ele>
        <time>2020-08-23T10:17:17Z</time>
      </trkpt>
      <trkpt lat="45.07341" lon="5.57861">
        <ele>1184</ele>
        <time>2020-08-23T10:17:18Z</time>
      </trkpt>
      <trkpt lat="45.07341" lon="5.57863">
        <ele>1184.4</ele>
        <time>2020-08-23T10:17:19Z</time>
      </trkpt>
      <trkpt lat="45.0734" lon="5.57865">
        <ele>1184.8</ele>
        <time>2020-08-23T10:17:20Z</time>
      </trkpt>
      <trkpt lat="45.07339" lon="5.57867">
        <ele>1185</ele>
        <time>2020-08-23T10:17:21Z</time>
      </trkpt>
      <trkpt lat="45.07339" lon="5.57869">
        <ele>1185.4</ele>
        <time>2020-08-23T10:17:22Z</time>
      </trkpt>
      <trkpt lat="45.07338" lon="5.57871">
        <ele>1185.6</ele>
        <time>2020-08-23T10:17:23Z</time>
      </trkpt>
      <trkpt lat="45.07337" lon="5.57873">
        <ele>1186</ele>
        <time>2020-08-23T10:17:24Z</time>
      </trkpt>
      <trkpt lat="45.07337" lon="5.57875">
        <ele>1186.4</ele>
        <time>2020-08-23T10:17:25Z</time>
      </trkpt>
      <trkpt lat="45.07336" lon="5.57876">
        <ele>1186.6</ele>
        <time>2020-08-23T10:17:26Z</time>
      </trkpt>
      <trkpt lat="45.07336" lon="5.57879">
        <ele>1187</ele>
        <time>2020-08-23T10:17:27Z</time>
      </trkpt>
      <trkpt lat="45.07335" lon="5.57881">
        <ele>1187.4</ele>
        <time>2020-08-23T10:17:28Z</time>
      </trkpt>
      <trkpt lat="45.07335" lon="5.57883">
        <ele>1187.8</ele>
        <time>2020-08-23T10:17:29Z</time>
      </trkpt>
      <trkpt lat="45.07334" lon="5.57885">
        <ele>1188.2</ele>
        <time>2020-08-23T10:17:30Z</time>
      </trkpt>
      <trkpt lat="45.07333" lon="5.57887">
        <ele>1188.4</ele>
        <time>2020-08-23T10:17:31Z</time>
      </trkpt>
      <trkpt lat="45.07333" lon="5.57889">
        <ele>1188.8</ele>
        <time>2020-08-23T10:17:32Z</time>
      </trkpt>
      <trkpt lat="45.07333" lon="5.57891">
        <ele>1189.2</ele>
        <time>2020-08-23T10:17:33Z</time>
      </trkpt>
      <trkpt lat="45.07333" lon="5.57893">
        <ele>1189.6</ele>
        <time>2020-08-23T10:17:34Z</time>
      </trkpt>
      <trkpt lat="45.07332" lon="5.57895">
        <ele>1190</ele>
        <time>2020-08-23T10:17:35Z</time>
      </trkpt>
      <trkpt lat="45.07332" lon="5.57897">
        <ele>1190.4</ele>
        <time>2020-08-23T10:17:36Z</time>
      </trkpt>
      <trkpt lat="45.07332" lon="5.57899">
        <ele>1190.8</ele>
        <time>2020-08-23T10:17:37Z</time>
      </trkpt>
      <trkpt lat="45.07332" lon="5.57902">
        <ele>1191.2</ele>
        <time>2020-08-23T10:17:38Z</time>
      </trkpt>
      <trkpt lat="45.07332" lon="5.57904">
        <ele>1191.6</ele>
        <time>2020-08-23T10:17:39Z</time>
      </trkpt>
      <trkpt lat="45.07332" lon="5.57906">
        <ele>1192</ele>
        <time>2020-08-23T10:17:40Z</time>
      </trkpt>
      <trkpt lat="45.07331" lon="5.57909">
        <ele>1192.4</ele>
        <time>2020-08-23T10:17:41Z</time>
      </trkpt>
      <trkpt lat="45.07331" lon="5.5791">
        <ele>1193</ele>
        <time>2020-08-23T10:17:42Z</time>
      </trkpt>
      <trkpt lat="45.0733" lon="5.57913">
        <ele>1193.4</ele>
        <time>2020-08-23T10:17:43Z</time>
      </trkpt>
      <trkpt lat="45.07329" lon="5.57915">
        <ele>1193.8</ele>
        <time>2020-08-23T10:17:44Z</time>
      </trkpt>
      <trkpt lat="45.07328" lon="5.57917">
        <ele>1194.2</ele>
        <time>2020-08-23T10:17:45Z</time>
      </trkpt>
      <trkpt lat="45.07327" lon="5.57918">
        <ele>1194.6</ele>
        <time>2020-08-23T10:17:46Z</time>
      </trkpt>
      <trkpt lat="45.07326" lon="5.5792">
        <ele>1195</ele>
        <time>2020-08-23T10:17:47Z</time>
      </trkpt>
      <trkpt lat="45.07325" lon="5.57922">
        <ele>1195.4</ele>
        <time>2020-08-23T10:17:48Z</time>
      </trkpt>
      <trkpt lat="45.07324" lon="5.57923">
        <ele>1195.8</ele>
        <time>2020-08-23T10:17:49Z</time>
      </trkpt>
      <trkpt lat="45.07323" lon="5.57924">
        <ele>1196.2</ele>
        <time>2020-08-23T10:17:50Z</time>
      </trkpt>
      <trkpt lat="45.07322" lon="5.57926">
        <ele>1196.6</ele>
        <time>2020-08-23T10:17:51Z</time>
      </trkpt>
      <trkpt lat="45.0732" lon="5.57927">
        <ele>1197.2</ele>
        <time>2020-08-23T10:17:52Z</time>
      </trkpt>
      <trkpt lat="45.07319" lon="5.57929">
        <ele>1197.6</ele>
        <time>2020-08-23T10:17:53Z</time>
      </trkpt>
      <trkpt lat="45.07318" lon="5.5793">
        <ele>1198</ele>
        <time>2020-08-23T10:17:54Z</time>
      </trkpt>
      <trkpt lat="45.07317" lon="5.57932">
        <ele>1198.4</ele>
        <time>2020-08-23T10:17:55Z</time>
      </trkpt>
      <trkpt lat="45.07317" lon="5.57934">
        <ele>1198.8</ele>
        <time>2020-08-23T10:17:56Z</time>
      </trkpt>
      <trkpt lat="45.07315" lon="5.57936">
        <ele>1199.2</ele>
        <time>2020-08-23T10:17:57Z</time>
      </trkpt>
      <trkpt lat="45.07315" lon="5.57938">
        <ele>1199.6</ele>
        <time>2020-08-23T10:17:58Z</time>
      </trkpt>
      <trkpt lat="45.07314" lon="5.5794">
        <ele>1200</ele>
        <time>2020-08-23T10:17:59Z</time>
      </trkpt>
      <trkpt lat="45.07314" lon="5.57942">
        <ele>1200.4</ele>
        <time>2020-08-23T10:18:00Z</time>
      </trkpt>
      <trkpt lat="45.07313" lon="5.57944">
        <ele>1200.8</ele>
        <time>2020-08-23T10:18:01Z</time>
      </trkpt>
      <trkpt lat="45.07312" lon="5.57946">
        <ele>1201.2</ele>
        <time>2020-08-23T10:18:02Z</time>
      </trkpt>
      <trkpt lat="45.07311" lon="5.57948">
        <ele>1201.4</ele>
        <time>2020-08-23T10:18:03Z</time>
      </trkpt>
      <trkpt lat="45.0731" lon="5.5795">
        <ele>1201.8</ele>
        <time>2020-08-23T10:18:04Z</time>
      </trkpt>
      <trkpt lat="45.07309" lon="5.57952">
        <ele>1202.2</ele>
        <time>2020-08-23T10:18:05Z</time>
      </trkpt>
      <trkpt lat="45.07309" lon="5.57954">
        <ele>1202.6</ele>
        <time>2020-08-23T10:18:06Z</time>
      </trkpt>
      <trkpt lat="45.07309" lon="5.57956">
        <ele>1202.8</ele>
        <time>2020-08-23T10:18:07Z</time>
      </trkpt>
      <trkpt lat="45.07308" lon="5.57957">
        <ele>1203.2</ele>
        <time>2020-08-23T10:18:08Z</time>
      </trkpt>
      <trkpt lat="45.07308" lon="5.57959">
        <ele>1203.4</ele>
        <time>2020-08-23T10:18:09Z</time>
      </trkpt>
      <trkpt lat="45.07307" lon="5.5796">
        <ele>1203.8</ele>
        <time>2020-08-23T10:18:10Z</time>
      </trkpt>
      <trkpt lat="45.07307" lon="5.57962">
        <ele>1204.2</ele>
        <time>2020-08-23T10:18:11Z</time>
      </trkpt>
      <trkpt lat="45.07307" lon="5.57963">
        <ele>1204.4</ele>
        <time>2020-08-23T10:18:12Z</time>
      </trkpt>
      <trkpt lat="45.07306" lon="5.57965">
        <ele>1204.8</ele>
        <time>2020-08-23T10:18:13Z</time>
      </trkpt>
      <trkpt lat="45.07306" lon="5.57966">
        <ele>1205.2</ele>
        <time>2020-08-23T10:18:14Z</time>
      </trkpt>
      <trkpt lat="45.07306" lon="5.57968">
        <ele>1205.6</ele>
        <time>2020-08-23T10:18:15Z</time>
      </trkpt>
      <trkpt lat="45.07306" lon="5.5797">
        <ele>1205.8</ele>
        <time>2020-08-23T10:18:16Z</time>
      </trkpt>
      <trkpt lat="45.07306" lon="5.57971">
        <ele>1206.2</ele>
        <time>2020-08-23T10:18:17Z</time>
      </trkpt>
      <trkpt lat="45.07305" lon="5.57973">
        <ele>1206.6</ele>
        <time>2020-08-23T10:18:18Z</time>
      </trkpt>
      <trkpt lat="45.07305" lon="5.57974">
        <ele>1207</ele>
        <time>2020-08-23T10:18:19Z</time>
      </trkpt>
      <trkpt lat="45.07305" lon="5.57976">
        <ele>1207.4</ele>
        <time>2020-08-23T10:18:20Z</time>
      </trkpt>
      <trkpt lat="45.07304" lon="5.57977">
        <ele>1207.6</ele>
        <time>2020-08-23T10:18:21Z</time>
      </trkpt>
      <trkpt lat="45.07304" lon="5.57979">
        <ele>1208</ele>
        <time>2020-08-23T10:18:22Z</time>
      </trkpt>
      <trkpt lat="45.07303" lon="5.57981">
        <ele>1208.4</ele>
        <time>2020-08-23T10:18:23Z</time>
      </trkpt>
      <trkpt lat="45.07303" lon="5.57982">
        <ele>1208.8</ele>
        <time>2020-08-23T10:18:24Z</time>
      </trkpt>
      <trkpt lat="45.07303" lon="5.57984">
        <ele>1209.2</ele>
        <time>2020-08-23T10:18:25Z</time>
      </trkpt>
      <trkpt lat="45.07301" lon="5.57985">
        <ele>1209.6</ele>
        <time>2020-08-23T10:18:26Z</time>
      </trkpt>
      <trkpt lat="45.07301" lon="5.57987">
        <ele>1209.8</ele>
        <time>2020-08-23T10:18:27Z</time>
      </trkpt>
      <trkpt lat="45.073" lon="5.57988">
        <ele>1210.2</ele>
        <time>2020-08-23T10:18:28Z</time>
      </trkpt>
      <trkpt lat="45.073" lon="5.5799">
        <ele>1210.6</ele>
        <time>2020-08-23T10:18:29Z</time>
      </trkpt>
      <trkpt lat="45.07299" lon="5.57992">
        <ele>1210.8</ele>
        <time>2020-08-23T10:18:30Z</time>
      </trkpt>
      <trkpt lat="45.07299" lon="5.57993">
        <ele>1211.2</ele>
        <time>2020-08-23T10:18:31Z</time>
      </trkpt>
      <trkpt lat="45.07298" lon="5.57995">
        <ele>1211.6</ele>
        <time>2020-08-23T10:18:32Z</time>
      </trkpt>
      <trkpt lat="45.07298" lon="5.57996">
        <ele>1211.8</ele>
        <time>2020-08-23T10:18:33Z</time>
      </trkpt>
      <trkpt lat="45.07297" lon="5.57998">
        <ele>1212.2</ele>
        <time>2020-08-23T10:18:34Z</time>
      </trkpt>
      <trkpt lat="45.07296" lon="5.58">
        <ele>1212.6</ele>
        <time>2020-08-23T10:18:35Z</time>
      </trkpt>
      <trkpt lat="45.07296" lon="5.58001">
        <ele>1213</ele>
        <time>2020-08-23T10:18:36Z</time>
      </trkpt>
      <trkpt lat="45.07295" lon="5.58003">
        <ele>1213.2</ele>
        <time>2020-08-23T10:18:37Z</time>
      </trkpt>
      <trkpt lat="45.07295" lon="5.58005">
        <ele>1213.6</ele>
        <time>2020-08-23T10:18:38Z</time>
      </trkpt>
      <trkpt lat="45.07294" lon="5.58007">
        <ele>1214</ele>
        <time>2020-08-23T10:18:39Z</time>
      </trkpt>
      <trkpt lat="45.07293" lon="5.58008">
        <ele>1214.2</ele>
        <time>2020-08-23T10:18:40Z</time>
      </trkpt>
      <trkpt lat="45.07293" lon="5.5801">
        <ele>1214.6</ele>
        <time>2020-08-23T10:18:41Z</time>
      </trkpt>
      <trkpt lat="45.07292" lon="5.58011">
        <ele>1215</ele>
        <time>2020-08-23T10:18:42Z</time>
      </trkpt>
      <trkpt lat="45.07292" lon="5.58012">
        <ele>1215.2</ele>
        <time>2020-08-23T10:18:43Z</time>
      </trkpt>
      <trkpt lat="45.07291" lon="5.58014">
        <ele>1215.6</ele>
        <time>2020-08-23T10:18:44Z</time>
      </trkpt>
      <trkpt lat="45.07291" lon="5.58015">
        <ele>1215.8</ele>
        <time>2020-08-23T10:18:45Z</time>
      </trkpt>
      <trkpt lat="45.0729" lon="5.58016">
        <ele>1216.2</ele>
        <time>2020-08-23T10:18:46Z</time>
      </trkpt>
      <trkpt lat="45.07289" lon="5.58018">
        <ele>1216.6</ele>
        <time>2020-08-23T10:18:47Z</time>
      </trkpt>
      <trkpt lat="45.07289" lon="5.58019">
        <ele>1216.8</ele>
        <time>2020-08-23T10:18:48Z</time>
      </trkpt>
      <trkpt lat="45.07288" lon="5.5802">
        <ele>1217.2</ele>
        <time>2020-08-23T10:18:49Z</time>
      </trkpt>
      <trkpt lat="45.07288" lon="5.58022">
        <ele>1217.4</ele>
        <time>2020-08-23T10:18:50Z</time>
      </trkpt>
      <trkpt lat="45.07288" lon="5.58023">
        <ele>1217.8</ele>
        <time>2020-08-23T10:18:51Z</time>
      </trkpt>
      <trkpt lat="45.07287" lon="5.58024">
        <ele>1218</ele>
        <time>2020-08-23T10:18:52Z</time>
      </trkpt>
      <trkpt lat="45.07287" lon="5.58026">
        <ele>1218.4</ele>
        <time>2020-08-23T10:18:53Z</time>
      </trkpt>
      <trkpt lat="45.07286" lon="5.58027">
        <ele>1218.6</ele>
        <time>2020-08-23T10:18:54Z</time>
      </trkpt>
      <trkpt lat="45.07285" lon="5.58028">
        <ele>1219</ele>
        <time>2020-08-23T10:18:55Z</time>
      </trkpt>
      <trkpt lat="45.07284" lon="5.5803">
        <ele>1219.2</ele>
        <time>2020-08-23T10:18:56Z</time>
      </trkpt>
      <trkpt lat="45.07284" lon="5.58031">
        <ele>1219.6</ele>
        <time>2020-08-23T10:18:57Z</time>
      </trkpt>
      <trkpt lat="45.07283" lon="5.58033">
        <ele>1220</ele>
        <time>2020-08-23T10:18:58Z</time>
      </trkpt>
      <trkpt lat="45.07283" lon="5.58035">
        <ele>1220.2</ele>
        <time>2020-08-23T10:18:59Z</time>
      </trkpt>
      <trkpt lat="45.07283" lon="5.58037">
        <ele>1220.6</ele>
        <time>2020-08-23T10:19:00Z</time>
      </trkpt>
      <trkpt lat="45.07282" lon="5.58039">
        <ele>1220.8</ele>
        <time>2020-08-23T10:19:01Z</time>
      </trkpt>
      <trkpt lat="45.07282" lon="5.58041">
        <ele>1221.2</ele>
        <time>2020-08-23T10:19:02Z</time>
      </trkpt>
      <trkpt lat="45.0728" lon="5.58042">
        <ele>1221.4</ele>
        <time>2020-08-23T10:19:03Z</time>
      </trkpt>
      <trkpt lat="45.0728" lon="5.58044">
        <ele>1221.8</ele>
        <time>2020-08-23T10:19:04Z</time>
      </trkpt>
      <trkpt lat="45.07279" lon="5.58046">
        <ele>1222</ele>
        <time>2020-08-23T10:19:05Z</time>
      </trkpt>
      <trkpt lat="45.07278" lon="5.58048">
        <ele>1222.4</ele>
        <time>2020-08-23T10:19:06Z</time>
      </trkpt>
      <trkpt lat="45.07278" lon="5.58049">
        <ele>1222.6</ele>
        <time>2020-08-23T10:19:07Z</time>
      </trkpt>
      <trkpt lat="45.07277" lon="5.58051">
        <ele>1223</ele>
        <time>2020-08-23T10:19:08Z</time>
      </trkpt>
      <trkpt lat="45.07276" lon="5.58052">
        <ele>1223.2</ele>
        <time>2020-08-23T10:19:09Z</time>
      </trkpt>
      <trkpt lat="45.07276" lon="5.58053">
        <ele>1223.6</ele>
        <time>2020-08-23T10:19:10Z</time>
      </trkpt>
      <trkpt lat="45.07275" lon="5.58055">
        <ele>1223.8</ele>
        <time>2020-08-23T10:19:11Z</time>
      </trkpt>
      <trkpt lat="45.07274" lon="5.58056">
        <ele>1224.2</ele>
        <time>2020-08-23T10:19:12Z</time>
      </trkpt>
      <trkpt lat="45.07273" lon="5.58058">
        <ele>1224.6</ele>
        <time>2020-08-23T10:19:13Z</time>
      </trkpt>
      <trkpt lat="45.07273" lon="5.58059">
        <ele>1225</ele>
        <time>2020-08-23T10:19:14Z</time>
      </trkpt>
      <trkpt lat="45.07272" lon="5.5806">
        <ele>1225.2</ele>
        <time>2020-08-23T10:19:15Z</time>
      </trkpt>
      <trkpt lat="45.07272" lon="5.58062">
        <ele>1225.6</ele>
        <time>2020-08-23T10:19:16Z</time>
      </trkpt>
      <trkpt lat="45.07272" lon="5.58064">
        <ele>1226</ele>
        <time>2020-08-23T10:19:17Z</time>
      </trkpt>
      <trkpt lat="45.07271" lon="5.58065">
        <ele>1226.2</ele>
        <time>2020-08-23T10:19:18Z</time>
      </trkpt>
      <trkpt lat="45.07271" lon="5.58067">
        <ele>1226.6</ele>
        <time>2020-08-23T10:19:19Z</time>
      </trkpt>
      <trkpt lat="45.07271" lon="5.58069">
        <ele>1227</ele>
        <time>2020-08-23T10:19:20Z</time>
      </trkpt>
      <trkpt lat="45.07271" lon="5.5807">
        <ele>1227.4</ele>
        <time>2020-08-23T10:19:21Z</time>
      </trkpt>
      <trkpt lat="45.07271" lon="5.58072">
        <ele>1227.6</ele>
        <time>2020-08-23T10:19:22Z</time>
      </trkpt>
      <trkpt lat="45.07271" lon="5.58073">
        <ele>1228</ele>
        <time>2020-08-23T10:19:23Z</time>
      </trkpt>
      <trkpt lat="45.07271" lon="5.58075">
        <ele>1228.2</ele>
        <time>2020-08-23T10:19:24Z</time>
      </trkpt>
      <trkpt lat="45.07271" lon="5.58076">
        <ele>1228.6</ele>
        <time>2020-08-23T10:19:25Z</time>
      </trkpt>
      <trkpt lat="45.07272" lon="5.58078">
        <ele>1228.8</ele>
        <time>2020-08-23T10:19:26Z</time>
      </trkpt>
      <trkpt lat="45.07272" lon="5.58079">
        <ele>1229.2</ele>
        <time>2020-08-23T10:19:27Z</time>
      </trkpt>
      <trkpt lat="45.07272" lon="5.58081">
        <ele>1229.4</ele>
        <time>2020-08-23T10:19:28Z</time>
      </trkpt>
      <trkpt lat="45.07273" lon="5.58082">
        <ele>1229.8</ele>
        <time>2020-08-23T10:19:29Z</time>
      </trkpt>
      <trkpt lat="45.07273" lon="5.58083">
        <ele>1230</ele>
        <time>2020-08-23T10:19:30Z</time>
      </trkpt>
      <trkpt lat="45.07274" lon="5.58084">
        <ele>1230.4</ele>
        <time>2020-08-23T10:19:31Z</time>
      </trkpt>
      <trkpt lat="45.07275" lon="5.58086">
        <ele>1230.8</ele>
        <time>2020-08-23T10:19:32Z</time>
      </trkpt>
      <trkpt lat="45.07275" lon="5.58087">
        <ele>1231</ele>
        <time>2020-08-23T10:19:33Z</time>
      </trkpt>
      <trkpt lat="45.07276" lon="5.58088">
        <ele>1231.2</ele>
        <time>2020-08-23T10:19:34Z</time>
      </trkpt>
      <trkpt lat="45.07277" lon="5.5809">
        <ele>1231.4</ele>
        <time>2020-08-23T10:19:35Z</time>
      </trkpt>
      <trkpt lat="45.07277" lon="5.58091">
        <ele>1231.6</ele>
        <time>2020-08-23T10:19:36Z</time>
      </trkpt>
      <trkpt lat="45.07278" lon="5.58093">
        <ele>1232</ele>
        <time>2020-08-23T10:19:37Z</time>
      </trkpt>
      <trkpt lat="45.07278" lon="5.58094">
        <ele>1232.2</ele>
        <time>2020-08-23T10:19:38Z</time>
      </trkpt>
      <trkpt lat="45.0728" lon="5.58095">
        <ele>1232.6</ele>
        <time>2020-08-23T10:19:39Z</time>
      </trkpt>
      <trkpt lat="45.07281" lon="5.58096">
        <ele>1232.8</ele>
        <time>2020-08-23T10:19:40Z</time>
      </trkpt>
      <trkpt lat="45.07282" lon="5.58097">
        <ele>1233.2</ele>
        <time>2020-08-23T10:19:41Z</time>
      </trkpt>
      <trkpt lat="45.07283" lon="5.58098">
        <ele>1233.4</ele>
        <time>2020-08-23T10:19:42Z</time>
      </trkpt>
      <trkpt lat="45.07284" lon="5.58099">
        <ele>1233.8</ele>
        <time>2020-08-23T10:19:43Z</time>
      </trkpt>
      <trkpt lat="45.07285" lon="5.581">
        <ele>1234</ele>
        <time>2020-08-23T10:19:44Z</time>
      </trkpt>
      <trkpt lat="45.07286" lon="5.58102">
        <ele>1234.2</ele>
        <time>2020-08-23T10:19:45Z</time>
      </trkpt>
      <trkpt lat="45.07286" lon="5.58103">
        <ele>1234.4</ele>
        <time>2020-08-23T10:19:46Z</time>
      </trkpt>
      <trkpt lat="45.07287" lon="5.58104">
        <ele>1234.8</ele>
        <time>2020-08-23T10:19:47Z</time>
      </trkpt>
      <trkpt lat="45.07288" lon="5.58105">
        <ele>1235</ele>
        <time>2020-08-23T10:19:48Z</time>
      </trkpt>
      <trkpt lat="45.07289" lon="5.58106">
        <ele>1235.2</ele>
        <time>2020-08-23T10:19:49Z</time>
      </trkpt>
      <trkpt lat="45.0729" lon="5.58107">
        <ele>1235.4</ele>
        <time>2020-08-23T10:19:50Z</time>
      </trkpt>
      <trkpt lat="45.07291" lon="5.58108">
        <ele>1235.6</ele>
        <time>2020-08-23T10:19:51Z</time>
      </trkpt>
      <trkpt lat="45.07292" lon="5.58109">
        <ele>1235.8</ele>
        <time>2020-08-23T10:19:52Z</time>
      </trkpt>
      <trkpt lat="45.07293" lon="5.58111">
        <ele>1236</ele>
        <time>2020-08-23T10:19:53Z</time>
      </trkpt>
      <trkpt lat="45.07294" lon="5.58112">
        <ele>1236.4</ele>
        <time>2020-08-23T10:19:54Z</time>
      </trkpt>
      <trkpt lat="45.07295" lon="5.58113">
        <ele>1236.6</ele>
        <time>2020-08-23T10:19:55Z</time>
      </trkpt>
      <trkpt lat="45.07296" lon="5.58114">
        <ele>1236.8</ele>
        <time>2020-08-23T10:19:56Z</time>
      </trkpt>
      <trkpt lat="45.07296" lon="5.58115">
        <ele>1237</ele>
        <time>2020-08-23T10:19:57Z</time>
      </trkpt>
      <trkpt lat="45.07297" lon="5.58117">
        <ele>1237.2</ele>
        <time>2020-08-23T10:19:58Z</time>
      </trkpt>
      <trkpt lat="45.07298" lon="5.58118">
        <ele>1237.4</ele>
        <time>2020-08-23T10:19:59Z</time>
      </trkpt>
      <trkpt lat="45.07299" lon="5.58119">
        <ele>1237.6</ele>
        <time>2020-08-23T10:20:00Z</time>
      </trkpt>
      <trkpt lat="45.07299" lon="5.5812">
        <ele>1237.8</ele>
        <time>2020-08-23T10:20:01Z</time>
      </trkpt>
      <trkpt lat="45.073" lon="5.58122">
        <ele>1238.2</ele>
        <time>2020-08-23T10:20:02Z</time>
      </trkpt>
      <trkpt lat="45.07301" lon="5.58123">
        <ele>1238.4</ele>
        <time>2020-08-23T10:20:03Z</time>
      </trkpt>
      <trkpt lat="45.07301" lon="5.58125">
        <ele>1238.6</ele>
        <time>2020-08-23T10:20:04Z</time>
      </trkpt>
      <trkpt lat="45.07302" lon="5.58126">
        <ele>1239</ele>
        <time>2020-08-23T10:20:05Z</time>
      </trkpt>
      <trkpt lat="45.07303" lon="5.58127">
        <ele>1239.2</ele>
        <time>2020-08-23T10:20:06Z</time>
      </trkpt>
      <trkpt lat="45.07303" lon="5.58129">
        <ele>1239.4</ele>
        <time>2020-08-23T10:20:07Z</time>
      </trkpt>
      <trkpt lat="45.07304" lon="5.5813">
        <ele>1239.8</ele>
        <time>2020-08-23T10:20:08Z</time>
      </trkpt>
      <trkpt lat="45.07305" lon="5.58132">
        <ele>1240</ele>
        <time>2020-08-23T10:20:09Z</time>
      </trkpt>
      <trkpt lat="45.07305" lon="5.58133">
        <ele>1240.2</ele>
        <time>2020-08-23T10:20:10Z</time>
      </trkpt>
      <trkpt lat="45.07306" lon="5.58134">
        <ele>1240.6</ele>
        <time>2020-08-23T10:20:11Z</time>
      </trkpt>
      <trkpt lat="45.07307" lon="5.58135">
        <ele>1240.8</ele>
        <time>2020-08-23T10:20:12Z</time>
      </trkpt>
      <trkpt lat="45.07307" lon="5.58137">
        <ele>1241</ele>
        <time>2020-08-23T10:20:13Z</time>
      </trkpt>
      <trkpt lat="45.07308" lon="5.58138">
        <ele>1241.2</ele>
        <time>2020-08-23T10:20:14Z</time>
      </trkpt>
      <trkpt lat="45.07308" lon="5.58139">
        <ele>1241.6</ele>
        <time>2020-08-23T10:20:15Z</time>
      </trkpt>
      <trkpt lat="45.07309" lon="5.58141">
        <ele>1241.8</ele>
        <time>2020-08-23T10:20:16Z</time>
      </trkpt>
      <trkpt lat="45.07309" lon="5.58142">
        <ele>1242.2</ele>
        <time>2020-08-23T10:20:17Z</time>
      </trkpt>
      <trkpt lat="45.0731" lon="5.58143">
        <ele>1242.4</ele>
        <time>2020-08-23T10:20:18Z</time>
      </trkpt>
      <trkpt lat="45.07311" lon="5.58144">
        <ele>1242.6</ele>
        <time>2020-08-23T10:20:19Z</time>
      </trkpt>
      <trkpt lat="45.07312" lon="5.58145">
        <ele>1242.8</ele>
        <time>2020-08-23T10:20:20Z</time>
      </trkpt>
      <trkpt lat="45.07313" lon="5.58147">
        <ele>1243</ele>
        <time>2020-08-23T10:20:21Z</time>
      </trkpt>
      <trkpt lat="45.07314" lon="5.58148">
        <ele>1243.2</ele>
        <time>2020-08-23T10:20:22Z</time>
      </trkpt>
      <trkpt lat="45.07314" lon="5.58149">
        <ele>1243.6</ele>
        <time>2020-08-23T10:20:23Z</time>
      </trkpt>
      <trkpt lat="45.07315" lon="5.58151">
        <ele>1243.8</ele>
        <time>2020-08-23T10:20:24Z</time>
      </trkpt>
      <trkpt lat="45.07315" lon="5.58152">
        <ele>1244</ele>
        <time>2020-08-23T10:20:25Z</time>
      </trkpt>
      <trkpt lat="45.07316" lon="5.58154">
        <ele>1244.4</ele>
        <time>2020-08-23T10:20:26Z</time>
      </trkpt>
      <trkpt lat="45.07317" lon="5.58155">
        <ele>1244.6</ele>
        <time>2020-08-23T10:20:27Z</time>
      </trkpt>
      <trkpt lat="45.07317" lon="5.58156">
        <ele>1244.8</ele>
        <time>2020-08-23T10:20:28Z</time>
      </trkpt>
      <trkpt lat="45.07318" lon="5.58158">
        <ele>1245.2</ele>
        <time>2020-08-23T10:20:29Z</time>
      </trkpt>
      <trkpt lat="45.07319" lon="5.58159">
        <ele>1245.4</ele>
        <time>2020-08-23T10:20:30Z</time>
      </trkpt>
      <trkpt lat="45.07319" lon="5.5816">
        <ele>1245.6</ele>
        <time>2020-08-23T10:20:31Z</time>
      </trkpt>
      <trkpt lat="45.07319" lon="5.58162">
        <ele>1245.8</ele>
        <time>2020-08-23T10:20:32Z</time>
      </trkpt>
      <trkpt lat="45.0732" lon="5.58163">
        <ele>1246.2</ele>
        <time>2020-08-23T10:20:33Z</time>
      </trkpt>
      <trkpt lat="45.07321" lon="5.58165">
        <ele>1246.4</ele>
        <time>2020-08-23T10:20:34Z</time>
      </trkpt>
      <trkpt lat="45.07322" lon="5.58166">
        <ele>1246.6</ele>
        <time>2020-08-23T10:20:35Z</time>
      </trkpt>
      <trkpt lat="45.07322" lon="5.58167">
        <ele>1246.8</ele>
        <time>2020-08-23T10:20:36Z</time>
      </trkpt>
      <trkpt lat="45.07324" lon="5.58169">
        <ele>1247</ele>
        <time>2020-08-23T10:20:37Z</time>
      </trkpt>
      <trkpt lat="45.07324" lon="5.5817">
        <ele>1247.2</ele>
        <time>2020-08-23T10:20:38Z</time>
      </trkpt>
      <trkpt lat="45.07324" lon="5.58172">
        <ele>1247.4</ele>
        <time>2020-08-23T10:20:39Z</time>
      </trkpt>
      <trkpt lat="45.07325" lon="5.58173">
        <ele>1247.6</ele>
        <time>2020-08-23T10:20:40Z</time>
      </trkpt>
      <trkpt lat="45.07325" lon="5.58175">
        <ele>1247.8</ele>
        <time>2020-08-23T10:20:41Z</time>
      </trkpt>
      <trkpt lat="45.07326" lon="5.58177">
        <ele>1248.2</ele>
        <time>2020-08-23T10:20:42Z</time>
      </trkpt>
      <trkpt lat="45.07327" lon="5.58178">
        <ele>1248.4</ele>
        <time>2020-08-23T10:20:43Z</time>
      </trkpt>
      <trkpt lat="45.07327" lon="5.5818">
        <ele>1248.6</ele>
        <time>2020-08-23T10:20:44Z</time>
      </trkpt>
      <trkpt lat="45.07327" lon="5.58182">
        <ele>1248.8</ele>
        <time>2020-08-23T10:20:45Z</time>
      </trkpt>
      <trkpt lat="45.07328" lon="5.58183">
        <ele>1249</ele>
        <time>2020-08-23T10:20:46Z</time>
      </trkpt>
      <trkpt lat="45.07328" lon="5.58185">
        <ele>1249.2</ele>
        <time>2020-08-23T10:20:47Z</time>
      </trkpt>
      <trkpt lat="45.07329" lon="5.58186">
        <ele>1249.6</ele>
        <time>2020-08-23T10:20:48Z</time>
      </trkpt>
      <trkpt lat="45.0733" lon="5.58188">
        <ele>1249.8</ele>
        <time>2020-08-23T10:20:49Z</time>
      </trkpt>
      <trkpt lat="45.0733" lon="5.5819">
        <ele>1250</ele>
        <time>2020-08-23T10:20:50Z</time>
      </trkpt>
      <trkpt lat="45.07331" lon="5.58191">
        <ele>1250.2</ele>
        <time>2020-08-23T10:20:51Z</time>
      </trkpt>
      <trkpt lat="45.07332" lon="5.58193">
        <ele>1250.4</ele>
        <time>2020-08-23T10:20:52Z</time>
      </trkpt>
      <trkpt lat="45.07332" lon="5.58194">
        <ele>1250.6</ele>
        <time>2020-08-23T10:20:53Z</time>
      </trkpt>
      <trkpt lat="45.07333" lon="5.58196">
        <ele>1250.8</ele>
        <time>2020-08-23T10:20:54Z</time>
      </trkpt>
      <trkpt lat="45.07333" lon="5.58198">
        <ele>1251</ele>
        <time>2020-08-23T10:20:55Z</time>
      </trkpt>
      <trkpt lat="45.07334" lon="5.58199">
        <ele>1251.2</ele>
        <time>2020-08-23T10:20:56Z</time>
      </trkpt>
      <trkpt lat="45.07334" lon="5.58201">
        <ele>1251.4</ele>
        <time>2020-08-23T10:20:57Z</time>
      </trkpt>
      <trkpt lat="45.07335" lon="5.58202">
        <ele>1251.6</ele>
        <time>2020-08-23T10:20:58Z</time>
      </trkpt>
      <trkpt lat="45.07336" lon="5.58204">
        <ele>1251.8</ele>
        <time>2020-08-23T10:20:59Z</time>
      </trkpt>
      <trkpt lat="45.07336" lon="5.58206">
        <ele>1252</ele>
        <time>2020-08-23T10:21:00Z</time>
      </trkpt>
      <trkpt lat="45.07337" lon="5.58207">
        <ele>1252.2</ele>
        <time>2020-08-23T10:21:01Z</time>
      </trkpt>
      <trkpt lat="45.07338" lon="5.58209">
        <ele>1252.4</ele>
        <time>2020-08-23T10:21:02Z</time>
      </trkpt>
      <trkpt lat="45.07338" lon="5.5821">
        <ele>1252.6</ele>
        <time>2020-08-23T10:21:03Z</time>
      </trkpt>
      <trkpt lat="45.07339" lon="5.58212">
        <ele>1252.8</ele>
        <time>2020-08-23T10:21:04Z</time>
      </trkpt>
      <trkpt lat="45.07339" lon="5.58213">
        <ele>1252.8</ele>
        <time>2020-08-23T10:21:05Z</time>
      </trkpt>
      <trkpt lat="45.0734" lon="5.58215">
        <ele>1253</ele>
        <time>2020-08-23T10:21:06Z</time>
      </trkpt>
      <trkpt lat="45.07341" lon="5.58216">
        <ele>1253.2</ele>
        <time>2020-08-23T10:21:07Z</time>
      </trkpt>
      <trkpt lat="45.07341" lon="5.58217">
        <ele>1253.4</ele>
        <time>2020-08-23T10:21:08Z</time>
      </trkpt>
      <trkpt lat="45.07341" lon="5.58219">
        <ele>1253.6</ele>
        <time>2020-08-23T10:21:09Z</time>
      </trkpt>
      <trkpt lat="45.07342" lon="5.5822">
        <ele>1253.8</ele>
        <time>2020-08-23T10:21:10Z</time>
      </trkpt>
      <trkpt lat="45.07343" lon="5.58221">
        <ele>1254</ele>
        <time>2020-08-23T10:21:11Z</time>
      </trkpt>
      <trkpt lat="45.07344" lon="5.58223">
        <ele>1254.2</ele>
        <time>2020-08-23T10:21:12Z</time>
      </trkpt>
      <trkpt lat="45.07344" lon="5.58224">
        <ele>1254.4</ele>
        <time>2020-08-23T10:21:13Z</time>
      </trkpt>
      <trkpt lat="45.07344" lon="5.58225">
        <ele>1254.6</ele>
        <time>2020-08-23T10:21:14Z</time>
      </trkpt>
      <trkpt lat="45.07346" lon="5.58227">
        <ele>1254.8</ele>
        <time>2020-08-23T10:21:15Z</time>
      </trkpt>
      <trkpt lat="45.07346" lon="5.58228">
        <ele>1255</ele>
        <time>2020-08-23T10:21:16Z</time>
      </trkpt>
      <trkpt lat="45.07347" lon="5.58229">
        <ele>1255.2</ele>
        <time>2020-08-23T10:21:17Z</time>
      </trkpt>
      <trkpt lat="45.07348" lon="5.5823">
        <ele>1255.4</ele>
        <time>2020-08-23T10:21:18Z</time>
      </trkpt>
      <trkpt lat="45.07348" lon="5.58232">
        <ele>1255.6</ele>
        <time>2020-08-23T10:21:19Z</time>
      </trkpt>
      <trkpt lat="45.07349" lon="5.58233">
        <ele>1255.8</ele>
        <time>2020-08-23T10:21:20Z</time>
      </trkpt>
      <trkpt lat="45.0735" lon="5.58235">
        <ele>1256</ele>
        <time>2020-08-23T10:21:21Z</time>
      </trkpt>
      <trkpt lat="45.0735" lon="5.58236">
        <ele>1256.2</ele>
        <time>2020-08-23T10:21:22Z</time>
      </trkpt>
      <trkpt lat="45.07351" lon="5.58238">
        <ele>1256.4</ele>
        <time>2020-08-23T10:21:23Z</time>
      </trkpt>
      <trkpt lat="45.07352" lon="5.58239">
        <ele>1256.6</ele>
        <time>2020-08-23T10:21:24Z</time>
      </trkpt>
      <trkpt lat="45.07352" lon="5.5824">
        <ele>1256.8</ele>
        <time>2020-08-23T10:21:25Z</time>
      </trkpt>
      <trkpt lat="45.07353" lon="5.58241">
        <ele>1257</ele>
        <time>2020-08-23T10:21:26Z</time>
      </trkpt>
      <trkpt lat="45.07354" lon="5.58243">
        <ele>1257.4</ele>
        <time>2020-08-23T10:21:27Z</time>
      </trkpt>
      <trkpt lat="45.07354" lon="5.58244">
        <ele>1257.6</ele>
        <time>2020-08-23T10:21:28Z</time>
      </trkpt>
      <trkpt lat="45.07355" lon="5.58245">
        <ele>1257.8</ele>
        <time>2020-08-23T10:21:29Z</time>
      </trkpt>
      <trkpt lat="45.07356" lon="5.58247">
        <ele>1258</ele>
        <time>2020-08-23T10:21:30Z</time>
      </trkpt>
      <trkpt lat="45.07356" lon="5.58249">
        <ele>1258.2</ele>
        <time>2020-08-23T10:21:31Z</time>
      </trkpt>
      <trkpt lat="45.07357" lon="5.5825">
        <ele>1258.4</ele>
        <time>2020-08-23T10:21:32Z</time>
      </trkpt>
      <trkpt lat="45.07358" lon="5.58251">
        <ele>1258.8</ele>
        <time>2020-08-23T10:21:33Z</time>
      </trkpt>
      <trkpt lat="45.07359" lon="5.58253">
        <ele>1259</ele>
        <time>2020-08-23T10:21:34Z</time>
      </trkpt>
      <trkpt lat="45.07359" lon="5.58254">
        <ele>1259.2</ele>
        <time>2020-08-23T10:21:35Z</time>
      </trkpt>
      <trkpt lat="45.0736" lon="5.58256">
        <ele>1259.4</ele>
        <time>2020-08-23T10:21:36Z</time>
      </trkpt>
      <trkpt lat="45.07361" lon="5.58257">
        <ele>1259.6</ele>
        <time>2020-08-23T10:21:37Z</time>
      </trkpt>
      <trkpt lat="45.07361" lon="5.58258">
        <ele>1259.8</ele>
        <time>2020-08-23T10:21:38Z</time>
      </trkpt>
      <trkpt lat="45.07362" lon="5.5826">
        <ele>1260.2</ele>
        <time>2020-08-23T10:21:39Z</time>
      </trkpt>
      <trkpt lat="45.07362" lon="5.58261">
        <ele>1260.2</ele>
        <time>2020-08-23T10:21:40Z</time>
      </trkpt>
      <trkpt lat="45.07363" lon="5.58263">
        <ele>1260.4</ele>
        <time>2020-08-23T10:21:41Z</time>
      </trkpt>
      <trkpt lat="45.07364" lon="5.58264">
        <ele>1260.6</ele>
        <time>2020-08-23T10:21:42Z</time>
      </trkpt>
      <trkpt lat="45.07364" lon="5.58265">
        <ele>1260.8</ele>
        <time>2020-08-23T10:21:43Z</time>
      </trkpt>
      <trkpt lat="45.07365" lon="5.58267">
        <ele>1261</ele>
        <time>2020-08-23T10:21:44Z</time>
      </trkpt>
      <trkpt lat="45.07365" lon="5.58268">
        <ele>1261.2</ele>
        <time>2020-08-23T10:21:45Z</time>
      </trkpt>
      <trkpt lat="45.07366" lon="5.5827">
        <ele>1261.4</ele>
        <time>2020-08-23T10:21:46Z</time>
      </trkpt>
      <trkpt lat="45.07367" lon="5.58271">
        <ele>1261.6</ele>
        <time>2020-08-23T10:21:47Z</time>
      </trkpt>
      <trkpt lat="45.07368" lon="5.58272">
        <ele>1261.8</ele>
        <time>2020-08-23T10:21:48Z</time>
      </trkpt>
      <trkpt lat="45.07369" lon="5.58274">
        <ele>1262</ele>
        <time>2020-08-23T10:21:49Z</time>
      </trkpt>
      <trkpt lat="45.07369" lon="5.58275">
        <ele>1262.2</ele>
        <time>2020-08-23T10:21:50Z</time>
      </trkpt>
      <trkpt lat="45.0737" lon="5.58276">
        <ele>1262.2</ele>
        <time>2020-08-23T10:21:51Z</time>
      </trkpt>
      <trkpt lat="45.07371" lon="5.58277">
        <ele>1262.6</ele>
        <time>2020-08-23T10:21:52Z</time>
      </trkpt>
      <trkpt lat="45.07372" lon="5.58278">
        <ele>1262.8</ele>
        <time>2020-08-23T10:21:53Z</time>
      </trkpt>
      <trkpt lat="45.07373" lon="5.58279">
        <ele>1263</ele>
        <time>2020-08-23T10:21:54Z</time>
      </trkpt>
      <trkpt lat="45.07374" lon="5.5828">
        <ele>1263.2</ele>
        <time>2020-08-23T10:21:55Z</time>
      </trkpt>
      <trkpt lat="45.07375" lon="5.58281">
        <ele>1263.4</ele>
        <time>2020-08-23T10:21:56Z</time>
      </trkpt>
      <trkpt lat="45.07375" lon="5.58282">
        <ele>1263.6</ele>
        <time>2020-08-23T10:21:57Z</time>
      </trkpt>
      <trkpt lat="45.07377" lon="5.58284">
        <ele>1263.6</ele>
        <time>2020-08-23T10:21:58Z</time>
      </trkpt>
      <trkpt lat="45.07377" lon="5.58285">
        <ele>1263.8</ele>
        <time>2020-08-23T10:21:59Z</time>
      </trkpt>
      <trkpt lat="45.07378" lon="5.58286">
        <ele>1264</ele>
        <time>2020-08-23T10:22:00Z</time>
      </trkpt>
      <trkpt lat="45.07378" lon="5.58287">
        <ele>1264</ele>
        <time>2020-08-23T10:22:01Z</time>
      </trkpt>
      <trkpt lat="45.0738" lon="5.58288">
        <ele>1264.2</ele>
        <time>2020-08-23T10:22:02Z</time>
      </trkpt>
      <trkpt lat="45.07379" lon="5.58288">
        <ele>1264.4</ele>
        <time>2020-08-23T10:22:04Z</time>
      </trkpt>
      <trkpt lat="45.07379" lon="5.58288">
        <ele>1264.6</ele>
        <time>2020-08-23T10:22:05Z</time>
      </trkpt>
      <trkpt lat="45.07379" lon="5.58288">
        <ele>1264.6</ele>
        <time>2020-08-23T10:22:06Z</time>
      </trkpt>
      <trkpt lat="45.07379" lon="5.58288">
        <ele>1264.6</ele>
        <time>2020-08-23T10:22:07Z</time>
      </trkpt>
      <trkpt lat="45.07379" lon="5.58288">
        <ele>1264.8</ele>
        <time>2020-08-23T10:22:08Z</time>
      </trkpt>
      <trkpt lat="45.07379" lon="5.58288">
        <ele>1264.8</ele>
        <time>2020-08-23T10:22:09Z</time>
      </trkpt>
      <trkpt lat="45.07383" lon="5.58293">
        <ele>1265</ele>
        <time>2020-08-23T10:41:27Z</time>
      </trkpt>
      <trkpt lat="45.07384" lon="5.58294">
        <ele>1265</ele>
        <time>2020-08-23T10:41:28Z</time>
      </trkpt>
      <trkpt lat="45.07385" lon="5.58296">
        <ele>1265</ele>
        <time>2020-08-23T10:41:29Z</time>
      </trkpt>
      <trkpt lat="45.07386" lon="5.58297">
        <ele>1264.8</ele>
        <time>2020-08-23T10:41:30Z</time>
      </trkpt>
      <trkpt lat="45.07386" lon="5.58299">
        <ele>1264.8</ele>
        <time>2020-08-23T10:41:31Z</time>
      </trkpt>
      <trkpt lat="45.07388" lon="5.583">
        <ele>1264.8</ele>
        <time>2020-08-23T10:41:32Z</time>
      </trkpt>
      <trkpt lat="45.07388" lon="5.58302">
        <ele>1265</ele>
        <time>2020-08-23T10:41:33Z</time>
      </trkpt>
      <trkpt lat="45.0739" lon="5.58304">
        <ele>1265</ele>
        <time>2020-08-23T10:41:34Z</time>
      </trkpt>
      <trkpt lat="45.07391" lon="5.58306">
        <ele>1265</ele>
        <time>2020-08-23T10:41:35Z</time>
      </trkpt>
      <trkpt lat="45.07392" lon="5.58308">
        <ele>1265.2</ele>
        <time>2020-08-23T10:41:36Z</time>
      </trkpt>
      <trkpt lat="45.07393" lon="5.58309">
        <ele>1265.2</ele>
        <time>2020-08-23T10:41:37Z</time>
      </trkpt>
      <trkpt lat="45.07394" lon="5.5831">
        <ele>1265.2</ele>
        <time>2020-08-23T10:41:38Z</time>
      </trkpt>
      <trkpt lat="45.07395" lon="5.5831">
        <ele>1265.2</ele>
        <time>2020-08-23T10:41:39Z</time>
      </trkpt>
      <trkpt lat="45.07396" lon="5.58311">
        <ele>1265.4</ele>
        <time>2020-08-23T10:41:40Z</time>
      </trkpt>
      <trkpt lat="45.07398" lon="5.58312">
        <ele>1265.4</ele>
        <time>2020-08-23T10:41:41Z</time>
      </trkpt>
      <trkpt lat="45.07399" lon="5.58314">
        <ele>1265.4</ele>
        <time>2020-08-23T10:41:42Z</time>
      </trkpt>
      <trkpt lat="45.074" lon="5.58315">
        <ele>1265.6</ele>
        <time>2020-08-23T10:41:43Z</time>
      </trkpt>
      <trkpt lat="45.07401" lon="5.58317">
        <ele>1265.6</ele>
        <time>2020-08-23T10:41:44Z</time>
      </trkpt>
      <trkpt lat="45.07402" lon="5.58319">
        <ele>1265.8</ele>
        <time>2020-08-23T10:41:45Z</time>
      </trkpt>
      <trkpt lat="45.07404" lon="5.5832">
        <ele>1266</ele>
        <time>2020-08-23T10:41:46Z</time>
      </trkpt>
      <trkpt lat="45.07405" lon="5.58321">
        <ele>1266</ele>
        <time>2020-08-23T10:41:47Z</time>
      </trkpt>
      <trkpt lat="45.07407" lon="5.58323">
        <ele>1266.2</ele>
        <time>2020-08-23T10:41:48Z</time>
      </trkpt>
      <trkpt lat="45.07408" lon="5.58325">
        <ele>1266.2</ele>
        <time>2020-08-23T10:41:49Z</time>
      </trkpt>
      <trkpt lat="45.0741" lon="5.58327">
        <ele>1266.4</ele>
        <time>2020-08-23T10:41:50Z</time>
      </trkpt>
      <trkpt lat="45.07412" lon="5.58329">
        <ele>1266.4</ele>
        <time>2020-08-23T10:41:51Z</time>
      </trkpt>
      <trkpt lat="45.07414" lon="5.58331">
        <ele>1266.6</ele>
        <time>2020-08-23T10:41:52Z</time>
      </trkpt>
      <trkpt lat="45.07417" lon="5.58333">
        <ele>1266.8</ele>
        <time>2020-08-23T10:41:53Z</time>
      </trkpt>
      <trkpt lat="45.0742" lon="5.58336">
        <ele>1266.8</ele>
        <time>2020-08-23T10:41:54Z</time>
      </trkpt>
      <trkpt lat="45.07423" lon="5.58338">
        <ele>1267</ele>
        <time>2020-08-23T10:41:55Z</time>
      </trkpt>
      <trkpt lat="45.07425" lon="5.58341">
        <ele>1267.2</ele>
        <time>2020-08-23T10:41:56Z</time>
      </trkpt>
      <trkpt lat="45.07428" lon="5.58344">
        <ele>1267.2</ele>
        <time>2020-08-23T10:41:57Z</time>
      </trkpt>
      <trkpt lat="45.0743" lon="5.58346">
        <ele>1267.4</ele>
        <time>2020-08-23T10:41:58Z</time>
      </trkpt>
      <trkpt lat="45.07433" lon="5.58349">
        <ele>1267.4</ele>
        <time>2020-08-23T10:41:59Z</time>
      </trkpt>
      <trkpt lat="45.07435" lon="5.58351">
        <ele>1267.6</ele>
        <time>2020-08-23T10:42:00Z</time>
      </trkpt>
      <trkpt lat="45.07438" lon="5.58354">
        <ele>1267.8</ele>
        <time>2020-08-23T10:42:01Z</time>
      </trkpt>
      <trkpt lat="45.0744" lon="5.58357">
        <ele>1268</ele>
        <time>2020-08-23T10:42:02Z</time>
      </trkpt>
      <trkpt lat="45.07443" lon="5.5836">
        <ele>1268.2</ele>
        <time>2020-08-23T10:42:03Z</time>
      </trkpt>
      <trkpt lat="45.07444" lon="5.58363">
        <ele>1268.2</ele>
        <time>2020-08-23T10:42:04Z</time>
      </trkpt>
      <trkpt lat="45.07447" lon="5.58366">
        <ele>1268.4</ele>
        <time>2020-08-23T10:42:05Z</time>
      </trkpt>
      <trkpt lat="45.07449" lon="5.58369">
        <ele>1268.4</ele>
        <time>2020-08-23T10:42:06Z</time>
      </trkpt>
      <trkpt lat="45.07451" lon="5.58372">
        <ele>1268.6</ele>
        <time>2020-08-23T10:42:07Z</time>
      </trkpt>
      <trkpt lat="45.07453" lon="5.58375">
        <ele>1268.8</ele>
        <time>2020-08-23T10:42:08Z</time>
      </trkpt>
      <trkpt lat="45.07455" lon="5.58378">
        <ele>1269</ele>
        <time>2020-08-23T10:42:09Z</time>
      </trkpt>
      <trkpt lat="45.07457" lon="5.5838">
        <ele>1269</ele>
        <time>2020-08-23T10:42:10Z</time>
      </trkpt>
      <trkpt lat="45.07459" lon="5.58383">
        <ele>1269.2</ele>
        <time>2020-08-23T10:42:11Z</time>
      </trkpt>
      <trkpt lat="45.0746" lon="5.58386">
        <ele>1269.4</ele>
        <time>2020-08-23T10:42:12Z</time>
      </trkpt>
      <trkpt lat="45.07462" lon="5.58388">
        <ele>1269.6</ele>
        <time>2020-08-23T10:42:13Z</time>
      </trkpt>
      <trkpt lat="45.07464" lon="5.58391">
        <ele>1269.6</ele>
        <time>2020-08-23T10:42:14Z</time>
      </trkpt>
      <trkpt lat="45.07465" lon="5.58393">
        <ele>1269.8</ele>
        <time>2020-08-23T10:42:15Z</time>
      </trkpt>
      <trkpt lat="45.07467" lon="5.58396">
        <ele>1270</ele>
        <time>2020-08-23T10:42:16Z</time>
      </trkpt>
      <trkpt lat="45.07469" lon="5.58399">
        <ele>1270</ele>
        <time>2020-08-23T10:42:17Z</time>
      </trkpt>
      <trkpt lat="45.0747" lon="5.58401">
        <ele>1270.2</ele>
        <time>2020-08-23T10:42:18Z</time>
      </trkpt>
      <trkpt lat="45.07472" lon="5.58404">
        <ele>1270.4</ele>
        <time>2020-08-23T10:42:19Z</time>
      </trkpt>
      <trkpt lat="45.07473" lon="5.58406">
        <ele>1270.4</ele>
        <time>2020-08-23T10:42:20Z</time>
      </trkpt>
      <trkpt lat="45.07475" lon="5.58409">
        <ele>1270.6</ele>
        <time>2020-08-23T10:42:21Z</time>
      </trkpt>
      <trkpt lat="45.07476" lon="5.58412">
        <ele>1270.6</ele>
        <time>2020-08-23T10:42:22Z</time>
      </trkpt>
      <trkpt lat="45.07478" lon="5.58414">
        <ele>1270.8</ele>
        <time>2020-08-23T10:42:23Z</time>
      </trkpt>
      <trkpt lat="45.07479" lon="5.58416">
        <ele>1271</ele>
        <time>2020-08-23T10:42:24Z</time>
      </trkpt>
      <trkpt lat="45.0748" lon="5.58418">
        <ele>1271.2</ele>
        <time>2020-08-23T10:42:25Z</time>
      </trkpt>
      <trkpt lat="45.07482" lon="5.58421">
        <ele>1271.2</ele>
        <time>2020-08-23T10:42:26Z</time>
      </trkpt>
      <trkpt lat="45.07483" lon="5.58423">
        <ele>1271.4</ele>
        <time>2020-08-23T10:42:27Z</time>
      </trkpt>
      <trkpt lat="45.07484" lon="5.58425">
        <ele>1271.6</ele>
        <time>2020-08-23T10:42:28Z</time>
      </trkpt>
      <trkpt lat="45.07485" lon="5.58426">
        <ele>1271.8</ele>
        <time>2020-08-23T10:42:29Z</time>
      </trkpt>
      <trkpt lat="45.07486" lon="5.58428">
        <ele>1271.8</ele>
        <time>2020-08-23T10:42:30Z</time>
      </trkpt>
      <trkpt lat="45.07488" lon="5.5843">
        <ele>1272</ele>
        <time>2020-08-23T10:42:31Z</time>
      </trkpt>
      <trkpt lat="45.07489" lon="5.58432">
        <ele>1272.2</ele>
        <time>2020-08-23T10:42:32Z</time>
      </trkpt>
      <trkpt lat="45.0749" lon="5.58434">
        <ele>1272.4</ele>
        <time>2020-08-23T10:42:33Z</time>
      </trkpt>
      <trkpt lat="45.07491" lon="5.58436">
        <ele>1272.6</ele>
        <time>2020-08-23T10:42:34Z</time>
      </trkpt>
      <trkpt lat="45.07492" lon="5.58437">
        <ele>1272.8</ele>
        <time>2020-08-23T10:42:35Z</time>
      </trkpt>
      <trkpt lat="45.07494" lon="5.58439">
        <ele>1272.8</ele>
        <time>2020-08-23T10:42:36Z</time>
      </trkpt>
      <trkpt lat="45.07495" lon="5.58441">
        <ele>1273</ele>
        <time>2020-08-23T10:42:37Z</time>
      </trkpt>
      <trkpt lat="45.07496" lon="5.58444">
        <ele>1273</ele>
        <time>2020-08-23T10:42:38Z</time>
      </trkpt>
      <trkpt lat="45.07497" lon="5.58446">
        <ele>1273.2</ele>
        <time>2020-08-23T10:42:39Z</time>
      </trkpt>
      <trkpt lat="45.07498" lon="5.58447">
        <ele>1273.4</ele>
        <time>2020-08-23T10:42:40Z</time>
      </trkpt>
      <trkpt lat="45.07499" lon="5.58449">
        <ele>1273.4</ele>
        <time>2020-08-23T10:42:41Z</time>
      </trkpt>
      <trkpt lat="45.07501" lon="5.58451">
        <ele>1273.6</ele>
        <time>2020-08-23T10:42:42Z</time>
      </trkpt>
      <trkpt lat="45.07502" lon="5.58453">
        <ele>1273.6</ele>
        <time>2020-08-23T10:42:43Z</time>
      </trkpt>
      <trkpt lat="45.07503" lon="5.58455">
        <ele>1273.8</ele>
        <time>2020-08-23T10:42:44Z</time>
      </trkpt>
      <trkpt lat="45.07504" lon="5.58456">
        <ele>1274</ele>
        <time>2020-08-23T10:42:45Z</time>
      </trkpt>
      <trkpt lat="45.07505" lon="5.58458">
        <ele>1274.2</ele>
        <time>2020-08-23T10:42:46Z</time>
      </trkpt>
      <trkpt lat="45.07505" lon="5.5846">
        <ele>1274.2</ele>
        <time>2020-08-23T10:42:47Z</time>
      </trkpt>
      <trkpt lat="45.07507" lon="5.58461">
        <ele>1274.4</ele>
        <time>2020-08-23T10:42:48Z</time>
      </trkpt>
      <trkpt lat="45.07508" lon="5.58463">
        <ele>1274.6</ele>
        <time>2020-08-23T10:42:49Z</time>
      </trkpt>
      <trkpt lat="45.07509" lon="5.58464">
        <ele>1274.8</ele>
        <time>2020-08-23T10:42:50Z</time>
      </trkpt>
      <trkpt lat="45.0751" lon="5.58465">
        <ele>1274.8</ele>
        <time>2020-08-23T10:42:51Z</time>
      </trkpt>
      <trkpt lat="45.07511" lon="5.58467">
        <ele>1275</ele>
        <time>2020-08-23T10:42:52Z</time>
      </trkpt>
      <trkpt lat="45.07512" lon="5.58468">
        <ele>1275.2</ele>
        <time>2020-08-23T10:42:53Z</time>
      </trkpt>
      <trkpt lat="45.07513" lon="5.58469">
        <ele>1275.4</ele>
        <time>2020-08-23T10:42:54Z</time>
      </trkpt>
      <trkpt lat="45.07514" lon="5.5847">
        <ele>1275.4</ele>
        <time>2020-08-23T10:42:55Z</time>
      </trkpt>
      <trkpt lat="45.07515" lon="5.58472">
        <ele>1275.6</ele>
        <time>2020-08-23T10:42:56Z</time>
      </trkpt>
      <trkpt lat="45.07515" lon="5.58473">
        <ele>1275.8</ele>
        <time>2020-08-23T10:42:57Z</time>
      </trkpt>
      <trkpt lat="45.07516" lon="5.58475">
        <ele>1276</ele>
        <time>2020-08-23T10:42:58Z</time>
      </trkpt>
      <trkpt lat="45.07517" lon="5.58476">
        <ele>1276.2</ele>
        <time>2020-08-23T10:42:59Z</time>
      </trkpt>
      <trkpt lat="45.07518" lon="5.58477">
        <ele>1276.4</ele>
        <time>2020-08-23T10:43:00Z</time>
      </trkpt>
      <trkpt lat="45.07519" lon="5.58478">
        <ele>1276.6</ele>
        <time>2020-08-23T10:43:01Z</time>
      </trkpt>
      <trkpt lat="45.0752" lon="5.58479">
        <ele>1276.8</ele>
        <time>2020-08-23T10:43:02Z</time>
      </trkpt>
      <trkpt lat="45.07521" lon="5.58481">
        <ele>1276.8</ele>
        <time>2020-08-23T10:43:03Z</time>
      </trkpt>
      <trkpt lat="45.07522" lon="5.58482">
        <ele>1277</ele>
        <time>2020-08-23T10:43:04Z</time>
      </trkpt>
      <trkpt lat="45.07523" lon="5.58483">
        <ele>1277.2</ele>
        <time>2020-08-23T10:43:05Z</time>
      </trkpt>
      <trkpt lat="45.07524" lon="5.58484">
        <ele>1277.4</ele>
        <time>2020-08-23T10:43:06Z</time>
      </trkpt>
      <trkpt lat="45.07526" lon="5.58485">
        <ele>1277.4</ele>
        <time>2020-08-23T10:43:07Z</time>
      </trkpt>
      <trkpt lat="45.07527" lon="5.58487">
        <ele>1277.6</ele>
        <time>2020-08-23T10:43:08Z</time>
      </trkpt>
      <trkpt lat="45.07528" lon="5.58488">
        <ele>1277.8</ele>
        <time>2020-08-23T10:43:09Z</time>
      </trkpt>
      <trkpt lat="45.0753" lon="5.58489">
        <ele>1278</ele>
        <time>2020-08-23T10:43:10Z</time>
      </trkpt>
      <trkpt lat="45.07531" lon="5.5849">
        <ele>1278.2</ele>
        <time>2020-08-23T10:43:11Z</time>
      </trkpt>
      <trkpt lat="45.07532" lon="5.58491">
        <ele>1278.2</ele>
        <time>2020-08-23T10:43:12Z</time>
      </trkpt>
      <trkpt lat="45.07534" lon="5.58492">
        <ele>1278.4</ele>
        <time>2020-08-23T10:43:13Z</time>
      </trkpt>
      <trkpt lat="45.07535" lon="5.58493">
        <ele>1278.6</ele>
        <time>2020-08-23T10:43:14Z</time>
      </trkpt>
      <trkpt lat="45.07537" lon="5.58494">
        <ele>1278.6</ele>
        <time>2020-08-23T10:43:15Z</time>
      </trkpt>
      <trkpt lat="45.07538" lon="5.58495">
        <ele>1278.8</ele>
        <time>2020-08-23T10:43:16Z</time>
      </trkpt>
      <trkpt lat="45.07539" lon="5.58496">
        <ele>1279</ele>
        <time>2020-08-23T10:43:17Z</time>
      </trkpt>
      <trkpt lat="45.07541" lon="5.58497">
        <ele>1279.2</ele>
        <time>2020-08-23T10:43:18Z</time>
      </trkpt>
      <trkpt lat="45.07542" lon="5.58498">
        <ele>1279.4</ele>
        <time>2020-08-23T10:43:19Z</time>
      </trkpt>
      <trkpt lat="45.07543" lon="5.58499">
        <ele>1279.6</ele>
        <time>2020-08-23T10:43:20Z</time>
      </trkpt>
      <trkpt lat="45.07545" lon="5.585">
        <ele>1279.8</ele>
        <time>2020-08-23T10:43:21Z</time>
      </trkpt>
      <trkpt lat="45.07546" lon="5.58501">
        <ele>1280</ele>
        <time>2020-08-23T10:43:22Z</time>
      </trkpt>
      <trkpt lat="45.07548" lon="5.58502">
        <ele>1280.2</ele>
        <time>2020-08-23T10:43:23Z</time>
      </trkpt>
      <trkpt lat="45.07549" lon="5.58503">
        <ele>1280.2</ele>
        <time>2020-08-23T10:43:24Z</time>
      </trkpt>
      <trkpt lat="45.07551" lon="5.58504">
        <ele>1280.4</ele>
        <time>2020-08-23T10:43:25Z</time>
      </trkpt>
      <trkpt lat="45.07552" lon="5.58505">
        <ele>1280.6</ele>
        <time>2020-08-23T10:43:26Z</time>
      </trkpt>
      <trkpt lat="45.07554" lon="5.58507">
        <ele>1280.8</ele>
        <time>2020-08-23T10:43:27Z</time>
      </trkpt>
      <trkpt lat="45.07556" lon="5.58508">
        <ele>1280.8</ele>
        <time>2020-08-23T10:43:28Z</time>
      </trkpt>
      <trkpt lat="45.07557" lon="5.58509">
        <ele>1281</ele>
        <time>2020-08-23T10:43:29Z</time>
      </trkpt>
      <trkpt lat="45.07558" lon="5.58511">
        <ele>1281.2</ele>
        <time>2020-08-23T10:43:30Z</time>
      </trkpt>
      <trkpt lat="45.0756" lon="5.58512">
        <ele>1281.2</ele>
        <time>2020-08-23T10:43:31Z</time>
      </trkpt>
      <trkpt lat="45.07562" lon="5.58514">
        <ele>1281.4</ele>
        <time>2020-08-23T10:43:32Z</time>
      </trkpt>
      <trkpt lat="45.07563" lon="5.58516">
        <ele>1281.6</ele>
        <time>2020-08-23T10:43:33Z</time>
      </trkpt>
      <trkpt lat="45.07565" lon="5.58517">
        <ele>1281.8</ele>
        <time>2020-08-23T10:43:34Z</time>
      </trkpt>
      <trkpt lat="45.07566" lon="5.58519">
        <ele>1281.8</ele>
        <time>2020-08-23T10:43:35Z</time>
      </trkpt>
      <trkpt lat="45.07568" lon="5.58521">
        <ele>1282</ele>
        <time>2020-08-23T10:43:36Z</time>
      </trkpt>
      <trkpt lat="45.07569" lon="5.58523">
        <ele>1282.2</ele>
        <time>2020-08-23T10:43:37Z</time>
      </trkpt>
      <trkpt lat="45.0757" lon="5.58524">
        <ele>1282.2</ele>
        <time>2020-08-23T10:43:38Z</time>
      </trkpt>
      <trkpt lat="45.07571" lon="5.58526">
        <ele>1282.4</ele>
        <time>2020-08-23T10:43:39Z</time>
      </trkpt>
      <trkpt lat="45.07573" lon="5.58528">
        <ele>1282.6</ele>
        <time>2020-08-23T10:43:40Z</time>
      </trkpt>
      <trkpt lat="45.07574" lon="5.58529">
        <ele>1282.6</ele>
        <time>2020-08-23T10:43:41Z</time>
      </trkpt>
      <trkpt lat="45.07575" lon="5.58531">
        <ele>1282.8</ele>
        <time>2020-08-23T10:43:42Z</time>
      </trkpt>
      <trkpt lat="45.07576" lon="5.58533">
        <ele>1283</ele>
        <time>2020-08-23T10:43:43Z</time>
      </trkpt>
      <trkpt lat="45.07578" lon="5.58535">
        <ele>1283.2</ele>
        <time>2020-08-23T10:43:44Z</time>
      </trkpt>
      <trkpt lat="45.07579" lon="5.58537">
        <ele>1283.2</ele>
        <time>2020-08-23T10:43:45Z</time>
      </trkpt>
      <trkpt lat="45.0758" lon="5.58539">
        <ele>1283.4</ele>
        <time>2020-08-23T10:43:46Z</time>
      </trkpt>
      <trkpt lat="45.07581" lon="5.58541">
        <ele>1283.4</ele>
        <time>2020-08-23T10:43:47Z</time>
      </trkpt>
      <trkpt lat="45.07583" lon="5.58542">
        <ele>1283.6</ele>
        <time>2020-08-23T10:43:48Z</time>
      </trkpt>
      <trkpt lat="45.07584" lon="5.58544">
        <ele>1283.8</ele>
        <time>2020-08-23T10:43:49Z</time>
      </trkpt>
      <trkpt lat="45.07585" lon="5.58546">
        <ele>1283.8</ele>
        <time>2020-08-23T10:43:50Z</time>
      </trkpt>
      <trkpt lat="45.07586" lon="5.58548">
        <ele>1284</ele>
        <time>2020-08-23T10:43:51Z</time>
      </trkpt>
      <trkpt lat="45.07587" lon="5.58549">
        <ele>1284</ele>
        <time>2020-08-23T10:43:52Z</time>
      </trkpt>
      <trkpt lat="45.07588" lon="5.58551">
        <ele>1284.2</ele>
        <time>2020-08-23T10:43:53Z</time>
      </trkpt>
      <trkpt lat="45.07589" lon="5.58553">
        <ele>1284.4</ele>
        <time>2020-08-23T10:43:54Z</time>
      </trkpt>
      <trkpt lat="45.0759" lon="5.58554">
        <ele>1284.4</ele>
        <time>2020-08-23T10:43:55Z</time>
      </trkpt>
      <trkpt lat="45.07591" lon="5.58556">
        <ele>1284.6</ele>
        <time>2020-08-23T10:43:56Z</time>
      </trkpt>
      <trkpt lat="45.07592" lon="5.58557">
        <ele>1284.6</ele>
        <time>2020-08-23T10:43:57Z</time>
      </trkpt>
      <trkpt lat="45.07592" lon="5.58559">
        <ele>1284.8</ele>
        <time>2020-08-23T10:43:58Z</time>
      </trkpt>
      <trkpt lat="45.07593" lon="5.5856">
        <ele>1284.8</ele>
        <time>2020-08-23T10:43:59Z</time>
      </trkpt>
      <trkpt lat="45.07594" lon="5.58561">
        <ele>1284.8</ele>
        <time>2020-08-23T10:44:00Z</time>
      </trkpt>
      <trkpt lat="45.07595" lon="5.58563">
        <ele>1285</ele>
        <time>2020-08-23T10:44:01Z</time>
      </trkpt>
      <trkpt lat="45.07595" lon="5.58565">
        <ele>1285</ele>
        <time>2020-08-23T10:44:02Z</time>
      </trkpt>
      <trkpt lat="45.07596" lon="5.58566">
        <ele>1285</ele>
        <time>2020-08-23T10:44:03Z</time>
      </trkpt>
      <trkpt lat="45.07597" lon="5.58568">
        <ele>1285.2</ele>
        <time>2020-08-23T10:44:04Z</time>
      </trkpt>
      <trkpt lat="45.07597" lon="5.58569">
        <ele>1285.2</ele>
        <time>2020-08-23T10:44:05Z</time>
      </trkpt>
      <trkpt lat="45.07598" lon="5.58571">
        <ele>1285.2</ele>
        <time>2020-08-23T10:44:06Z</time>
      </trkpt>
      <trkpt lat="45.07598" lon="5.58572">
        <ele>1285.4</ele>
        <time>2020-08-23T10:44:07Z</time>
      </trkpt>
      <trkpt lat="45.07599" lon="5.58574">
        <ele>1285.4</ele>
        <time>2020-08-23T10:44:08Z</time>
      </trkpt>
      <trkpt lat="45.076" lon="5.58575">
        <ele>1285.4</ele>
        <time>2020-08-23T10:44:09Z</time>
      </trkpt>
      <trkpt lat="45.076" lon="5.58577">
        <ele>1285.6</ele>
        <time>2020-08-23T10:44:10Z</time>
      </trkpt>
      <trkpt lat="45.07601" lon="5.58579">
        <ele>1285.6</ele>
        <time>2020-08-23T10:44:11Z</time>
      </trkpt>
      <trkpt lat="45.07602" lon="5.5858">
        <ele>1285.6</ele>
        <time>2020-08-23T10:44:12Z</time>
      </trkpt>
      <trkpt lat="45.07602" lon="5.58582">
        <ele>1285.8</ele>
        <time>2020-08-23T10:44:13Z</time>
      </trkpt>
      <trkpt lat="45.07603" lon="5.58583">
        <ele>1285.8</ele>
        <time>2020-08-23T10:44:14Z</time>
      </trkpt>
      <trkpt lat="45.07604" lon="5.58585">
        <ele>1286</ele>
        <time>2020-08-23T10:44:15Z</time>
      </trkpt>
      <trkpt lat="45.07604" lon="5.58586">
        <ele>1286</ele>
        <time>2020-08-23T10:44:16Z</time>
      </trkpt>
      <trkpt lat="45.07605" lon="5.58588">
        <ele>1286.2</ele>
        <time>2020-08-23T10:44:17Z</time>
      </trkpt>
      <trkpt lat="45.07606" lon="5.58589">
        <ele>1286.4</ele>
        <time>2020-08-23T10:44:18Z</time>
      </trkpt>
      <trkpt lat="45.07606" lon="5.58591">
        <ele>1286.4</ele>
        <time>2020-08-23T10:44:19Z</time>
      </trkpt>
      <trkpt lat="45.07607" lon="5.58592">
        <ele>1286.4</ele>
        <time>2020-08-23T10:44:20Z</time>
      </trkpt>
      <trkpt lat="45.07607" lon="5.58594">
        <ele>1286.6</ele>
        <time>2020-08-23T10:44:21Z</time>
      </trkpt>
      <trkpt lat="45.07608" lon="5.58595">
        <ele>1286.6</ele>
        <time>2020-08-23T10:44:22Z</time>
      </trkpt>
      <trkpt lat="45.07609" lon="5.58597">
        <ele>1286.6</ele>
        <time>2020-08-23T10:44:23Z</time>
      </trkpt>
      <trkpt lat="45.07609" lon="5.58598">
        <ele>1286.6</ele>
        <time>2020-08-23T10:44:24Z</time>
      </trkpt>
      <trkpt lat="45.0761" lon="5.586">
        <ele>1286.8</ele>
        <time>2020-08-23T10:44:25Z</time>
      </trkpt>
      <trkpt lat="45.07611" lon="5.58601">
        <ele>1286.8</ele>
        <time>2020-08-23T10:44:26Z</time>
      </trkpt>
      <trkpt lat="45.07611" lon="5.58603">
        <ele>1287</ele>
        <time>2020-08-23T10:44:27Z</time>
      </trkpt>
      <trkpt lat="45.07612" lon="5.58604">
        <ele>1287</ele>
        <time>2020-08-23T10:44:28Z</time>
      </trkpt>
      <trkpt lat="45.07613" lon="5.58605">
        <ele>1287</ele>
        <time>2020-08-23T10:44:29Z</time>
      </trkpt>
      <trkpt lat="45.07613" lon="5.58607">
        <ele>1287</ele>
        <time>2020-08-23T10:44:30Z</time>
      </trkpt>
      <trkpt lat="45.07614" lon="5.58608">
        <ele>1287</ele>
        <time>2020-08-23T10:44:31Z</time>
      </trkpt>
      <trkpt lat="45.07614" lon="5.5861">
        <ele>1287</ele>
        <time>2020-08-23T10:44:32Z</time>
      </trkpt>
      <trkpt lat="45.07615" lon="5.58611">
        <ele>1287</ele>
        <time>2020-08-23T10:44:33Z</time>
      </trkpt>
      <trkpt lat="45.07615" lon="5.58613">
        <ele>1287</ele>
        <time>2020-08-23T10:44:34Z</time>
      </trkpt>
      <trkpt lat="45.07616" lon="5.58614">
        <ele>1287</ele>
        <time>2020-08-23T10:44:35Z</time>
      </trkpt>
      <trkpt lat="45.07616" lon="5.58616">
        <ele>1287</ele>
        <time>2020-08-23T10:44:36Z</time>
      </trkpt>
      <trkpt lat="45.07617" lon="5.58617">
        <ele>1287.2</ele>
        <time>2020-08-23T10:44:37Z</time>
      </trkpt>
      <trkpt lat="45.07618" lon="5.58619">
        <ele>1287.2</ele>
        <time>2020-08-23T10:44:38Z</time>
      </trkpt>
      <trkpt lat="45.07618" lon="5.5862">
        <ele>1287.2</ele>
        <time>2020-08-23T10:44:39Z</time>
      </trkpt>
      <trkpt lat="45.07619" lon="5.58621">
        <ele>1287.2</ele>
        <time>2020-08-23T10:44:40Z</time>
      </trkpt>
      <trkpt lat="45.07619" lon="5.58623">
        <ele>1287.2</ele>
        <time>2020-08-23T10:44:41Z</time>
      </trkpt>
      <trkpt lat="45.0762" lon="5.58625">
        <ele>1287.2</ele>
        <time>2020-08-23T10:44:42Z</time>
      </trkpt>
      <trkpt lat="45.0762" lon="5.58626">
        <ele>1287.2</ele>
        <time>2020-08-23T10:44:43Z</time>
      </trkpt>
      <trkpt lat="45.07621" lon="5.58628">
        <ele>1287.2</ele>
        <time>2020-08-23T10:44:44Z</time>
      </trkpt>
      <trkpt lat="45.07621" lon="5.58629">
        <ele>1287.2</ele>
        <time>2020-08-23T10:44:45Z</time>
      </trkpt>
      <trkpt lat="45.07621" lon="5.5863">
        <ele>1287.2</ele>
        <time>2020-08-23T10:44:46Z</time>
      </trkpt>
      <trkpt lat="45.07622" lon="5.58631">
        <ele>1287.2</ele>
        <time>2020-08-23T10:44:47Z</time>
      </trkpt>
      <trkpt lat="45.07622" lon="5.58633">
        <ele>1287.2</ele>
        <time>2020-08-23T10:44:48Z</time>
      </trkpt>
      <trkpt lat="45.07623" lon="5.58634">
        <ele>1287.2</ele>
        <time>2020-08-23T10:44:49Z</time>
      </trkpt>
      <trkpt lat="45.07623" lon="5.58636">
        <ele>1287.2</ele>
        <time>2020-08-23T10:44:50Z</time>
      </trkpt>
      <trkpt lat="45.07623" lon="5.58637">
        <ele>1287.2</ele>
        <time>2020-08-23T10:44:51Z</time>
      </trkpt>
      <trkpt lat="45.07624" lon="5.58639">
        <ele>1287.2</ele>
        <time>2020-08-23T10:44:52Z</time>
      </trkpt>
      <trkpt lat="45.07624" lon="5.5864">
        <ele>1287.2</ele>
        <time>2020-08-23T10:44:53Z</time>
      </trkpt>
      <trkpt lat="45.07624" lon="5.58642">
        <ele>1287.2</ele>
        <time>2020-08-23T10:44:54Z</time>
      </trkpt>
      <trkpt lat="45.07625" lon="5.58643">
        <ele>1287.4</ele>
        <time>2020-08-23T10:44:55Z</time>
      </trkpt>
      <trkpt lat="45.07626" lon="5.58644">
        <ele>1287.4</ele>
        <time>2020-08-23T10:44:56Z</time>
      </trkpt>
      <trkpt lat="45.07626" lon="5.58646">
        <ele>1287.4</ele>
        <time>2020-08-23T10:44:57Z</time>
      </trkpt>
      <trkpt lat="45.07627" lon="5.58647">
        <ele>1287.4</ele>
        <time>2020-08-23T10:44:58Z</time>
      </trkpt>
      <trkpt lat="45.07628" lon="5.58649">
        <ele>1287.6</ele>
        <time>2020-08-23T10:44:59Z</time>
      </trkpt>
      <trkpt lat="45.07628" lon="5.5865">
        <ele>1287.6</ele>
        <time>2020-08-23T10:45:00Z</time>
      </trkpt>
      <trkpt lat="45.07629" lon="5.58652">
        <ele>1287.6</ele>
        <time>2020-08-23T10:45:01Z</time>
      </trkpt>
      <trkpt lat="45.0763" lon="5.58653">
        <ele>1287.8</ele>
        <time>2020-08-23T10:45:02Z</time>
      </trkpt>
      <trkpt lat="45.07631" lon="5.58655">
        <ele>1287.8</ele>
        <time>2020-08-23T10:45:03Z</time>
      </trkpt>
      <trkpt lat="45.07631" lon="5.58656">
        <ele>1287.8</ele>
        <time>2020-08-23T10:45:04Z</time>
      </trkpt>
      <trkpt lat="45.07632" lon="5.58658">
        <ele>1288</ele>
        <time>2020-08-23T10:45:05Z</time>
      </trkpt>
      <trkpt lat="45.07633" lon="5.58659">
        <ele>1288</ele>
        <time>2020-08-23T10:45:06Z</time>
      </trkpt>
      <trkpt lat="45.07634" lon="5.58661">
        <ele>1288</ele>
        <time>2020-08-23T10:45:07Z</time>
      </trkpt>
      <trkpt lat="45.07634" lon="5.58662">
        <ele>1288.2</ele>
        <time>2020-08-23T10:45:08Z</time>
      </trkpt>
      <trkpt lat="45.07634" lon="5.58664">
        <ele>1288.2</ele>
        <time>2020-08-23T10:45:09Z</time>
      </trkpt>
      <trkpt lat="45.07635" lon="5.58665">
        <ele>1288.2</ele>
        <time>2020-08-23T10:45:10Z</time>
      </trkpt>
      <trkpt lat="45.07636" lon="5.58667">
        <ele>1288.2</ele>
        <time>2020-08-23T10:45:11Z</time>
      </trkpt>
      <trkpt lat="45.07636" lon="5.58669">
        <ele>1288.2</ele>
        <time>2020-08-23T10:45:12Z</time>
      </trkpt>
      <trkpt lat="45.07637" lon="5.5867">
        <ele>1288.4</ele>
        <time>2020-08-23T10:45:13Z</time>
      </trkpt>
      <trkpt lat="45.07637" lon="5.58672">
        <ele>1288.4</ele>
        <time>2020-08-23T10:45:14Z</time>
      </trkpt>
      <trkpt lat="45.07637" lon="5.58674">
        <ele>1288.4</ele>
        <time>2020-08-23T10:45:15Z</time>
      </trkpt>
      <trkpt lat="45.07638" lon="5.58676">
        <ele>1288.6</ele>
        <time>2020-08-23T10:45:16Z</time>
      </trkpt>
      <trkpt lat="45.07638" lon="5.58678">
        <ele>1288.6</ele>
        <time>2020-08-23T10:45:17Z</time>
      </trkpt>
      <trkpt lat="45.07639" lon="5.5868">
        <ele>1288.6</ele>
        <time>2020-08-23T10:45:18Z</time>
      </trkpt>
      <trkpt lat="45.07639" lon="5.58682">
        <ele>1288.8</ele>
        <time>2020-08-23T10:45:19Z</time>
      </trkpt>
      <trkpt lat="45.0764" lon="5.58684">
        <ele>1288.8</ele>
        <time>2020-08-23T10:45:20Z</time>
      </trkpt>
      <trkpt lat="45.07641" lon="5.58686">
        <ele>1289</ele>
        <time>2020-08-23T10:45:21Z</time>
      </trkpt>
      <trkpt lat="45.07641" lon="5.58688">
        <ele>1289.2</ele>
        <time>2020-08-23T10:45:22Z</time>
      </trkpt>
      <trkpt lat="45.07641" lon="5.5869">
        <ele>1289.4</ele>
        <time>2020-08-23T10:45:23Z</time>
      </trkpt>
      <trkpt lat="45.07641" lon="5.58692">
        <ele>1289.4</ele>
        <time>2020-08-23T10:45:24Z</time>
      </trkpt>
      <trkpt lat="45.07641" lon="5.58695">
        <ele>1289.6</ele>
        <time>2020-08-23T10:45:25Z</time>
      </trkpt>
      <trkpt lat="45.07641" lon="5.58697">
        <ele>1289.6</ele>
        <time>2020-08-23T10:45:26Z</time>
      </trkpt>
      <trkpt lat="45.07642" lon="5.58699">
        <ele>1289.8</ele>
        <time>2020-08-23T10:45:27Z</time>
      </trkpt>
      <trkpt lat="45.07642" lon="5.58702">
        <ele>1290</ele>
        <time>2020-08-23T10:45:28Z</time>
      </trkpt>
      <trkpt lat="45.07642" lon="5.58704">
        <ele>1290</ele>
        <time>2020-08-23T10:45:29Z</time>
      </trkpt>
      <trkpt lat="45.07642" lon="5.58706">
        <ele>1290.2</ele>
        <time>2020-08-23T10:45:30Z</time>
      </trkpt>
      <trkpt lat="45.07642" lon="5.58709">
        <ele>1290.4</ele>
        <time>2020-08-23T10:45:31Z</time>
      </trkpt>
      <trkpt lat="45.07643" lon="5.58711">
        <ele>1290.4</ele>
        <time>2020-08-23T10:45:32Z</time>
      </trkpt>
      <trkpt lat="45.07643" lon="5.58713">
        <ele>1290.6</ele>
        <time>2020-08-23T10:45:33Z</time>
      </trkpt>
      <trkpt lat="45.07644" lon="5.58716">
        <ele>1290.6</ele>
        <time>2020-08-23T10:45:34Z</time>
      </trkpt>
      <trkpt lat="45.07644" lon="5.58718">
        <ele>1290.8</ele>
        <time>2020-08-23T10:45:35Z</time>
      </trkpt>
      <trkpt lat="45.07644" lon="5.58721">
        <ele>1291</ele>
        <time>2020-08-23T10:45:36Z</time>
      </trkpt>
      <trkpt lat="45.07645" lon="5.58723">
        <ele>1291.2</ele>
        <time>2020-08-23T10:45:37Z</time>
      </trkpt>
      <trkpt lat="45.07645" lon="5.58726">
        <ele>1291.2</ele>
        <time>2020-08-23T10:45:38Z</time>
      </trkpt>
      <trkpt lat="45.07645" lon="5.58729">
        <ele>1291.4</ele>
        <time>2020-08-23T10:45:39Z</time>
      </trkpt>
      <trkpt lat="45.07646" lon="5.58731">
        <ele>1291.4</ele>
        <time>2020-08-23T10:45:40Z</time>
      </trkpt>
      <trkpt lat="45.07646" lon="5.58734">
        <ele>1291.6</ele>
        <time>2020-08-23T10:45:41Z</time>
      </trkpt>
      <trkpt lat="45.07647" lon="5.58737">
        <ele>1291.6</ele>
        <time>2020-08-23T10:45:42Z</time>
      </trkpt>
      <trkpt lat="45.07647" lon="5.58739">
        <ele>1291.8</ele>
        <time>2020-08-23T10:45:43Z</time>
      </trkpt>
      <trkpt lat="45.07648" lon="5.58742">
        <ele>1291.8</ele>
        <time>2020-08-23T10:45:44Z</time>
      </trkpt>
      <trkpt lat="45.07649" lon="5.58745">
        <ele>1292</ele>
        <time>2020-08-23T10:45:45Z</time>
      </trkpt>
      <trkpt lat="45.07649" lon="5.58747">
        <ele>1292</ele>
        <time>2020-08-23T10:45:46Z</time>
      </trkpt>
      <trkpt lat="45.0765" lon="5.5875">
        <ele>1292.2</ele>
        <time>2020-08-23T10:45:47Z</time>
      </trkpt>
      <trkpt lat="45.07651" lon="5.58752">
        <ele>1292.2</ele>
        <time>2020-08-23T10:45:48Z</time>
      </trkpt>
      <trkpt lat="45.07652" lon="5.58754">
        <ele>1292.4</ele>
        <time>2020-08-23T10:45:49Z</time>
      </trkpt>
      <trkpt lat="45.07652" lon="5.58757">
        <ele>1292.4</ele>
        <time>2020-08-23T10:45:50Z</time>
      </trkpt>
      <trkpt lat="45.07653" lon="5.58759">
        <ele>1292.6</ele>
        <time>2020-08-23T10:45:51Z</time>
      </trkpt>
      <trkpt lat="45.07654" lon="5.58762">
        <ele>1292.6</ele>
        <time>2020-08-23T10:45:52Z</time>
      </trkpt>
      <trkpt lat="45.07655" lon="5.58764">
        <ele>1292.6</ele>
        <time>2020-08-23T10:45:53Z</time>
      </trkpt>
      <trkpt lat="45.07657" lon="5.58767">
        <ele>1292.8</ele>
        <time>2020-08-23T10:45:54Z</time>
      </trkpt>
      <trkpt lat="45.07658" lon="5.58769">
        <ele>1292.8</ele>
        <time>2020-08-23T10:45:55Z</time>
      </trkpt>
      <trkpt lat="45.07659" lon="5.58771">
        <ele>1293</ele>
        <time>2020-08-23T10:45:56Z</time>
      </trkpt>
      <trkpt lat="45.0766" lon="5.58773">
        <ele>1293</ele>
        <time>2020-08-23T10:45:57Z</time>
      </trkpt>
      <trkpt lat="45.07662" lon="5.58776">
        <ele>1293.2</ele>
        <time>2020-08-23T10:45:58Z</time>
      </trkpt>
      <trkpt lat="45.07663" lon="5.58778">
        <ele>1293.2</ele>
        <time>2020-08-23T10:45:59Z</time>
      </trkpt>
      <trkpt lat="45.07664" lon="5.5878">
        <ele>1293.4</ele>
        <time>2020-08-23T10:46:00Z</time>
      </trkpt>
      <trkpt lat="45.07666" lon="5.58782">
        <ele>1293.6</ele>
        <time>2020-08-23T10:46:01Z</time>
      </trkpt>
      <trkpt lat="45.07667" lon="5.58785">
        <ele>1293.6</ele>
        <time>2020-08-23T10:46:02Z</time>
      </trkpt>
      <trkpt lat="45.07668" lon="5.58787">
        <ele>1293.8</ele>
        <time>2020-08-23T10:46:03Z</time>
      </trkpt>
      <trkpt lat="45.07669" lon="5.58789">
        <ele>1293.8</ele>
        <time>2020-08-23T10:46:04Z</time>
      </trkpt>
      <trkpt lat="45.07671" lon="5.58791">
        <ele>1294</ele>
        <time>2020-08-23T10:46:05Z</time>
      </trkpt>
      <trkpt lat="45.07672" lon="5.58793">
        <ele>1294</ele>
        <time>2020-08-23T10:46:06Z</time>
      </trkpt>
      <trkpt lat="45.07673" lon="5.58796">
        <ele>1294.2</ele>
        <time>2020-08-23T10:46:07Z</time>
      </trkpt>
      <trkpt lat="45.07674" lon="5.58798">
        <ele>1294.2</ele>
        <time>2020-08-23T10:46:08Z</time>
      </trkpt>
      <trkpt lat="45.07674" lon="5.588">
        <ele>1294.2</ele>
        <time>2020-08-23T10:46:09Z</time>
      </trkpt>
      <trkpt lat="45.07675" lon="5.58802">
        <ele>1294.4</ele>
        <time>2020-08-23T10:46:10Z</time>
      </trkpt>
      <trkpt lat="45.07675" lon="5.58804">
        <ele>1294.4</ele>
        <time>2020-08-23T10:46:11Z</time>
      </trkpt>
      <trkpt lat="45.07675" lon="5.58806">
        <ele>1294.4</ele>
        <time>2020-08-23T10:46:12Z</time>
      </trkpt>
      <trkpt lat="45.07675" lon="5.58808">
        <ele>1294.6</ele>
        <time>2020-08-23T10:46:13Z</time>
      </trkpt>
      <trkpt lat="45.07676" lon="5.58811">
        <ele>1294.6</ele>
        <time>2020-08-23T10:46:14Z</time>
      </trkpt>
      <trkpt lat="45.07676" lon="5.58812">
        <ele>1294.6</ele>
        <time>2020-08-23T10:46:15Z</time>
      </trkpt>
      <trkpt lat="45.07676" lon="5.58814">
        <ele>1294.8</ele>
        <time>2020-08-23T10:46:16Z</time>
      </trkpt>
      <trkpt lat="45.07676" lon="5.58816">
        <ele>1295</ele>
        <time>2020-08-23T10:46:17Z</time>
      </trkpt>
      <trkpt lat="45.07676" lon="5.58817">
        <ele>1295</ele>
        <time>2020-08-23T10:46:18Z</time>
      </trkpt>
      <trkpt lat="45.07677" lon="5.58819">
        <ele>1295.2</ele>
        <time>2020-08-23T10:46:19Z</time>
      </trkpt>
      <trkpt lat="45.07677" lon="5.5882">
        <ele>1295.4</ele>
        <time>2020-08-23T10:46:20Z</time>
      </trkpt>
      <trkpt lat="45.07678" lon="5.58822">
        <ele>1295.4</ele>
        <time>2020-08-23T10:46:21Z</time>
      </trkpt>
      <trkpt lat="45.07678" lon="5.58823">
        <ele>1295.6</ele>
        <time>2020-08-23T10:46:22Z</time>
      </trkpt>
      <trkpt lat="45.07678" lon="5.58825">
        <ele>1295.8</ele>
        <time>2020-08-23T10:46:23Z</time>
      </trkpt>
      <trkpt lat="45.07679" lon="5.58826">
        <ele>1295.8</ele>
        <time>2020-08-23T10:46:24Z</time>
      </trkpt>
      <trkpt lat="45.07679" lon="5.58828">
        <ele>1296</ele>
        <time>2020-08-23T10:46:25Z</time>
      </trkpt>
      <trkpt lat="45.0768" lon="5.5883">
        <ele>1296</ele>
        <time>2020-08-23T10:46:26Z</time>
      </trkpt>
      <trkpt lat="45.07681" lon="5.58832">
        <ele>1296.2</ele>
        <time>2020-08-23T10:46:27Z</time>
      </trkpt>
      <trkpt lat="45.07682" lon="5.58834">
        <ele>1296.2</ele>
        <time>2020-08-23T10:46:28Z</time>
      </trkpt>
      <trkpt lat="45.07683" lon="5.58835">
        <ele>1296.2</ele>
        <time>2020-08-23T10:46:29Z</time>
      </trkpt>
      <trkpt lat="45.07684" lon="5.58837">
        <ele>1296.2</ele>
        <time>2020-08-23T10:46:30Z</time>
      </trkpt>
      <trkpt lat="45.07684" lon="5.58839">
        <ele>1296.4</ele>
        <time>2020-08-23T10:46:31Z</time>
      </trkpt>
      <trkpt lat="45.07685" lon="5.58841">
        <ele>1296.4</ele>
        <time>2020-08-23T10:46:32Z</time>
      </trkpt>
      <trkpt lat="45.07685" lon="5.58843">
        <ele>1296.6</ele>
        <time>2020-08-23T10:46:33Z</time>
      </trkpt>
      <trkpt lat="45.07685" lon="5.58845">
        <ele>1296.6</ele>
        <time>2020-08-23T10:46:34Z</time>
      </trkpt>
      <trkpt lat="45.07685" lon="5.58847">
        <ele>1296.6</ele>
        <time>2020-08-23T10:46:35Z</time>
      </trkpt>
      <trkpt lat="45.07685" lon="5.58849">
        <ele>1296.8</ele>
        <time>2020-08-23T10:46:36Z</time>
      </trkpt>
      <trkpt lat="45.07684" lon="5.5885">
        <ele>1296.8</ele>
        <time>2020-08-23T10:46:37Z</time>
      </trkpt>
      <trkpt lat="45.07684" lon="5.58852">
        <ele>1297</ele>
        <time>2020-08-23T10:46:38Z</time>
      </trkpt>
      <trkpt lat="45.07683" lon="5.58854">
        <ele>1297</ele>
        <time>2020-08-23T10:46:39Z</time>
      </trkpt>
      <trkpt lat="45.07683" lon="5.58855">
        <ele>1297.2</ele>
        <time>2020-08-23T10:46:40Z</time>
      </trkpt>
      <trkpt lat="45.07682" lon="5.58857">
        <ele>1297.2</ele>
        <time>2020-08-23T10:46:41Z</time>
      </trkpt>
      <trkpt lat="45.07682" lon="5.58858">
        <ele>1297.4</ele>
        <time>2020-08-23T10:46:42Z</time>
      </trkpt>
      <trkpt lat="45.07682" lon="5.5886">
        <ele>1297.6</ele>
        <time>2020-08-23T10:46:43Z</time>
      </trkpt>
      <trkpt lat="45.07681" lon="5.58862">
        <ele>1297.6</ele>
        <time>2020-08-23T10:46:44Z</time>
      </trkpt>
      <trkpt lat="45.07681" lon="5.58863">
        <ele>1297.8</ele>
        <time>2020-08-23T10:46:45Z</time>
      </trkpt>
      <trkpt lat="45.0768" lon="5.58865">
        <ele>1297.8</ele>
        <time>2020-08-23T10:46:46Z</time>
      </trkpt>
      <trkpt lat="45.0768" lon="5.58867">
        <ele>1298</ele>
        <time>2020-08-23T10:46:47Z</time>
      </trkpt>
      <trkpt lat="45.07679" lon="5.58868">
        <ele>1298.2</ele>
        <time>2020-08-23T10:46:48Z</time>
      </trkpt>
      <trkpt lat="45.07679" lon="5.5887">
        <ele>1298.2</ele>
        <time>2020-08-23T10:46:49Z</time>
      </trkpt>
      <trkpt lat="45.07679" lon="5.58872">
        <ele>1298.4</ele>
        <time>2020-08-23T10:46:50Z</time>
      </trkpt>
      <trkpt lat="45.07678" lon="5.58873">
        <ele>1298.6</ele>
        <time>2020-08-23T10:46:51Z</time>
      </trkpt>
      <trkpt lat="45.07678" lon="5.58875">
        <ele>1298.8</ele>
        <time>2020-08-23T10:46:52Z</time>
      </trkpt>
      <trkpt lat="45.07678" lon="5.58877">
        <ele>1299</ele>
        <time>2020-08-23T10:46:53Z</time>
      </trkpt>
      <trkpt lat="45.07678" lon="5.58878">
        <ele>1299</ele>
        <time>2020-08-23T10:46:54Z</time>
      </trkpt>
      <trkpt lat="45.07678" lon="5.5888">
        <ele>1299.2</ele>
        <time>2020-08-23T10:46:55Z</time>
      </trkpt>
      <trkpt lat="45.07678" lon="5.58882">
        <ele>1299.2</ele>
        <time>2020-08-23T10:46:56Z</time>
      </trkpt>
      <trkpt lat="45.07678" lon="5.58883">
        <ele>1299.4</ele>
        <time>2020-08-23T10:46:57Z</time>
      </trkpt>
      <trkpt lat="45.07678" lon="5.58885">
        <ele>1299.6</ele>
        <time>2020-08-23T10:46:58Z</time>
      </trkpt>
      <trkpt lat="45.07678" lon="5.58886">
        <ele>1299.8</ele>
        <time>2020-08-23T10:46:59Z</time>
      </trkpt>
      <trkpt lat="45.07678" lon="5.58888">
        <ele>1299.8</ele>
        <time>2020-08-23T10:47:00Z</time>
      </trkpt>
      <trkpt lat="45.07678" lon="5.58889">
        <ele>1300</ele>
        <time>2020-08-23T10:47:01Z</time>
      </trkpt>
      <trkpt lat="45.07678" lon="5.58891">
        <ele>1300</ele>
        <time>2020-08-23T10:47:02Z</time>
      </trkpt>
      <trkpt lat="45.07678" lon="5.58893">
        <ele>1300.2</ele>
        <time>2020-08-23T10:47:03Z</time>
      </trkpt>
      <trkpt lat="45.07679" lon="5.58894">
        <ele>1300.2</ele>
        <time>2020-08-23T10:47:04Z</time>
      </trkpt>
      <trkpt lat="45.07679" lon="5.58896">
        <ele>1300.4</ele>
        <time>2020-08-23T10:47:05Z</time>
      </trkpt>
      <trkpt lat="45.0768" lon="5.58898">
        <ele>1300.4</ele>
        <time>2020-08-23T10:47:06Z</time>
      </trkpt>
      <trkpt lat="45.07681" lon="5.589">
        <ele>1300.6</ele>
        <time>2020-08-23T10:47:07Z</time>
      </trkpt>
      <trkpt lat="45.07681" lon="5.58901">
        <ele>1300.8</ele>
        <time>2020-08-23T10:47:08Z</time>
      </trkpt>
      <trkpt lat="45.07682" lon="5.58902">
        <ele>1300.8</ele>
        <time>2020-08-23T10:47:09Z</time>
      </trkpt>
      <trkpt lat="45.07682" lon="5.58904">
        <ele>1301</ele>
        <time>2020-08-23T10:47:10Z</time>
      </trkpt>
      <trkpt lat="45.07683" lon="5.58905">
        <ele>1301.2</ele>
        <time>2020-08-23T10:47:11Z</time>
      </trkpt>
      <trkpt lat="45.07684" lon="5.58906">
        <ele>1301.2</ele>
        <time>2020-08-23T10:47:12Z</time>
      </trkpt>
      <trkpt lat="45.07684" lon="5.58908">
        <ele>1301.4</ele>
        <time>2020-08-23T10:47:13Z</time>
      </trkpt>
      <trkpt lat="45.07685" lon="5.58909">
        <ele>1301.4</ele>
        <time>2020-08-23T10:47:14Z</time>
      </trkpt>
      <trkpt lat="45.07686" lon="5.5891">
        <ele>1301.6</ele>
        <time>2020-08-23T10:47:15Z</time>
      </trkpt>
      <trkpt lat="45.07687" lon="5.58911">
        <ele>1301.8</ele>
        <time>2020-08-23T10:47:16Z</time>
      </trkpt>
      <trkpt lat="45.07687" lon="5.58912">
        <ele>1301.8</ele>
        <time>2020-08-23T10:47:17Z</time>
      </trkpt>
      <trkpt lat="45.07688" lon="5.58913">
        <ele>1302</ele>
        <time>2020-08-23T10:47:18Z</time>
      </trkpt>
      <trkpt lat="45.07689" lon="5.58915">
        <ele>1302.2</ele>
        <time>2020-08-23T10:47:19Z</time>
      </trkpt>
      <trkpt lat="45.0769" lon="5.58916">
        <ele>1302.2</ele>
        <time>2020-08-23T10:47:20Z</time>
      </trkpt>
      <trkpt lat="45.0769" lon="5.58918">
        <ele>1302.4</ele>
        <time>2020-08-23T10:47:21Z</time>
      </trkpt>
      <trkpt lat="45.07691" lon="5.58919">
        <ele>1302.4</ele>
        <time>2020-08-23T10:47:22Z</time>
      </trkpt>
      <trkpt lat="45.07691" lon="5.58921">
        <ele>1302.6</ele>
        <time>2020-08-23T10:47:23Z</time>
      </trkpt>
      <trkpt lat="45.07692" lon="5.58923">
        <ele>1302.6</ele>
        <time>2020-08-23T10:47:24Z</time>
      </trkpt>
      <trkpt lat="45.07692" lon="5.58925">
        <ele>1302.6</ele>
        <time>2020-08-23T10:47:25Z</time>
      </trkpt>
      <trkpt lat="45.07693" lon="5.58928">
        <ele>1302.6</ele>
        <time>2020-08-23T10:47:26Z</time>
      </trkpt>
      <trkpt lat="45.07694" lon="5.58931">
        <ele>1302.6</ele>
        <time>2020-08-23T10:47:27Z</time>
      </trkpt>
      <trkpt lat="45.07695" lon="5.58933">
        <ele>1302.8</ele>
        <time>2020-08-23T10:47:28Z</time>
      </trkpt>
      <trkpt lat="45.07695" lon="5.58937">
        <ele>1302.8</ele>
        <time>2020-08-23T10:47:29Z</time>
      </trkpt>
      <trkpt lat="45.07697" lon="5.5894">
        <ele>1302.8</ele>
        <time>2020-08-23T10:47:30Z</time>
      </trkpt>
      <trkpt lat="45.07698" lon="5.58943">
        <ele>1302.8</ele>
        <time>2020-08-23T10:47:31Z</time>
      </trkpt>
      <trkpt lat="45.07699" lon="5.58946">
        <ele>1303</ele>
        <time>2020-08-23T10:47:32Z</time>
      </trkpt>
      <trkpt lat="45.077" lon="5.58949">
        <ele>1303</ele>
        <time>2020-08-23T10:47:33Z</time>
      </trkpt>
      <trkpt lat="45.07701" lon="5.58951">
        <ele>1303</ele>
        <time>2020-08-23T10:47:34Z</time>
      </trkpt>
      <trkpt lat="45.07702" lon="5.58954">
        <ele>1303</ele>
        <time>2020-08-23T10:47:35Z</time>
      </trkpt>
      <trkpt lat="45.07703" lon="5.58956">
        <ele>1303.2</ele>
        <time>2020-08-23T10:47:36Z</time>
      </trkpt>
      <trkpt lat="45.07704" lon="5.58959">
        <ele>1303.2</ele>
        <time>2020-08-23T10:47:37Z</time>
      </trkpt>
      <trkpt lat="45.07705" lon="5.58962">
        <ele>1303.4</ele>
        <time>2020-08-23T10:47:38Z</time>
      </trkpt>
      <trkpt lat="45.07706" lon="5.58965">
        <ele>1303.4</ele>
        <time>2020-08-23T10:47:39Z</time>
      </trkpt>
      <trkpt lat="45.07707" lon="5.58967">
        <ele>1303.6</ele>
        <time>2020-08-23T10:47:40Z</time>
      </trkpt>
      <trkpt lat="45.07708" lon="5.5897">
        <ele>1303.6</ele>
        <time>2020-08-23T10:47:41Z</time>
      </trkpt>
      <trkpt lat="45.07709" lon="5.58973">
        <ele>1303.6</ele>
        <time>2020-08-23T10:47:42Z</time>
      </trkpt>
      <trkpt lat="45.0771" lon="5.58976">
        <ele>1303.8</ele>
        <time>2020-08-23T10:47:43Z</time>
      </trkpt>
      <trkpt lat="45.07712" lon="5.58979">
        <ele>1303.8</ele>
        <time>2020-08-23T10:47:44Z</time>
      </trkpt>
      <trkpt lat="45.07713" lon="5.58982">
        <ele>1303.8</ele>
        <time>2020-08-23T10:47:45Z</time>
      </trkpt>
      <trkpt lat="45.07715" lon="5.58985">
        <ele>1303.8</ele>
        <time>2020-08-23T10:47:46Z</time>
      </trkpt>
      <trkpt lat="45.07717" lon="5.58989">
        <ele>1304</ele>
        <time>2020-08-23T10:47:47Z</time>
      </trkpt>
      <trkpt lat="45.07718" lon="5.58993">
        <ele>1304</ele>
        <time>2020-08-23T10:47:48Z</time>
      </trkpt>
      <trkpt lat="45.07719" lon="5.58996">
        <ele>1304.2</ele>
        <time>2020-08-23T10:47:49Z</time>
      </trkpt>
      <trkpt lat="45.07721" lon="5.59">
        <ele>1304.2</ele>
        <time>2020-08-23T10:47:50Z</time>
      </trkpt>
      <trkpt lat="45.07721" lon="5.59004">
        <ele>1304.4</ele>
        <time>2020-08-23T10:47:51Z</time>
      </trkpt>
      <trkpt lat="45.07722" lon="5.59007">
        <ele>1304.4</ele>
        <time>2020-08-23T10:47:52Z</time>
      </trkpt>
      <trkpt lat="45.07722" lon="5.59011">
        <ele>1304.6</ele>
        <time>2020-08-23T10:47:53Z</time>
      </trkpt>
      <trkpt lat="45.07723" lon="5.59014">
        <ele>1304.6</ele>
        <time>2020-08-23T10:47:54Z</time>
      </trkpt>
      <trkpt lat="45.07723" lon="5.59017">
        <ele>1304.8</ele>
        <time>2020-08-23T10:47:55Z</time>
      </trkpt>
      <trkpt lat="45.07723" lon="5.59021">
        <ele>1305</ele>
        <time>2020-08-23T10:47:56Z</time>
      </trkpt>
      <trkpt lat="45.07724" lon="5.59024">
        <ele>1305</ele>
        <time>2020-08-23T10:47:57Z</time>
      </trkpt>
      <trkpt lat="45.07724" lon="5.59027">
        <ele>1305</ele>
        <time>2020-08-23T10:47:58Z</time>
      </trkpt>
      <trkpt lat="45.07725" lon="5.5903">
        <ele>1305.2</ele>
        <time>2020-08-23T10:47:59Z</time>
      </trkpt>
      <trkpt lat="45.07725" lon="5.59032">
        <ele>1305.2</ele>
        <time>2020-08-23T10:48:00Z</time>
      </trkpt>
      <trkpt lat="45.07726" lon="5.59035">
        <ele>1305.4</ele>
        <time>2020-08-23T10:48:01Z</time>
      </trkpt>
      <trkpt lat="45.07727" lon="5.59038">
        <ele>1305.6</ele>
        <time>2020-08-23T10:48:02Z</time>
      </trkpt>
      <trkpt lat="45.07727" lon="5.59041">
        <ele>1305.8</ele>
        <time>2020-08-23T10:48:03Z</time>
      </trkpt>
      <trkpt lat="45.07729" lon="5.59043">
        <ele>1306</ele>
        <time>2020-08-23T10:48:04Z</time>
      </trkpt>
      <trkpt lat="45.07729" lon="5.59046">
        <ele>1306</ele>
        <time>2020-08-23T10:48:05Z</time>
      </trkpt>
      <trkpt lat="45.0773" lon="5.59048">
        <ele>1306.2</ele>
        <time>2020-08-23T10:48:06Z</time>
      </trkpt>
      <trkpt lat="45.07732" lon="5.59051">
        <ele>1306.4</ele>
        <time>2020-08-23T10:48:07Z</time>
      </trkpt>
      <trkpt lat="45.07733" lon="5.59053">
        <ele>1306.6</ele>
        <time>2020-08-23T10:48:08Z</time>
      </trkpt>
      <trkpt lat="45.07734" lon="5.59055">
        <ele>1306.6</ele>
        <time>2020-08-23T10:48:09Z</time>
      </trkpt>
      <trkpt lat="45.07735" lon="5.59057">
        <ele>1306.8</ele>
        <time>2020-08-23T10:48:10Z</time>
      </trkpt>
      <trkpt lat="45.07737" lon="5.59059">
        <ele>1307</ele>
        <time>2020-08-23T10:48:11Z</time>
      </trkpt>
      <trkpt lat="45.07738" lon="5.59061">
        <ele>1307</ele>
        <time>2020-08-23T10:48:12Z</time>
      </trkpt>
      <trkpt lat="45.07739" lon="5.59063">
        <ele>1307.2</ele>
        <time>2020-08-23T10:48:13Z</time>
      </trkpt>
      <trkpt lat="45.0774" lon="5.59065">
        <ele>1307.4</ele>
        <time>2020-08-23T10:48:14Z</time>
      </trkpt>
      <trkpt lat="45.07741" lon="5.59067">
        <ele>1307.6</ele>
        <time>2020-08-23T10:48:15Z</time>
      </trkpt>
      <trkpt lat="45.07742" lon="5.59069">
        <ele>1307.8</ele>
        <time>2020-08-23T10:48:16Z</time>
      </trkpt>
      <trkpt lat="45.07744" lon="5.59071">
        <ele>1308</ele>
        <time>2020-08-23T10:48:17Z</time>
      </trkpt>
      <trkpt lat="45.07745" lon="5.59073">
        <ele>1308</ele>
        <time>2020-08-23T10:48:18Z</time>
      </trkpt>
      <trkpt lat="45.07746" lon="5.59075">
        <ele>1308.2</ele>
        <time>2020-08-23T10:48:19Z</time>
      </trkpt>
      <trkpt lat="45.07747" lon="5.59077">
        <ele>1308.6</ele>
        <time>2020-08-23T10:48:20Z</time>
      </trkpt>
      <trkpt lat="45.07748" lon="5.5908">
        <ele>1308.8</ele>
        <time>2020-08-23T10:48:21Z</time>
      </trkpt>
      <trkpt lat="45.0775" lon="5.59082">
        <ele>1308.8</ele>
        <time>2020-08-23T10:48:22Z</time>
      </trkpt>
      <trkpt lat="45.07751" lon="5.59084">
        <ele>1309</ele>
        <time>2020-08-23T10:48:23Z</time>
      </trkpt>
      <trkpt lat="45.07752" lon="5.59087">
        <ele>1309.2</ele>
        <time>2020-08-23T10:48:24Z</time>
      </trkpt>
      <trkpt lat="45.07753" lon="5.59089">
        <ele>1309.4</ele>
        <time>2020-08-23T10:48:25Z</time>
      </trkpt>
      <trkpt lat="45.07754" lon="5.59091">
        <ele>1309.6</ele>
        <time>2020-08-23T10:48:26Z</time>
      </trkpt>
      <trkpt lat="45.07755" lon="5.59094">
        <ele>1309.8</ele>
        <time>2020-08-23T10:48:27Z</time>
      </trkpt>
      <trkpt lat="45.07756" lon="5.59096">
        <ele>1310</ele>
        <time>2020-08-23T10:48:28Z</time>
      </trkpt>
      <trkpt lat="45.07758" lon="5.59099">
        <ele>1310.2</ele>
        <time>2020-08-23T10:48:29Z</time>
      </trkpt>
      <trkpt lat="45.07759" lon="5.59101">
        <ele>1310.4</ele>
        <time>2020-08-23T10:48:30Z</time>
      </trkpt>
      <trkpt lat="45.0776" lon="5.59104">
        <ele>1310.6</ele>
        <time>2020-08-23T10:48:31Z</time>
      </trkpt>
      <trkpt lat="45.07761" lon="5.59107">
        <ele>1310.8</ele>
        <time>2020-08-23T10:48:32Z</time>
      </trkpt>
      <trkpt lat="45.07762" lon="5.5911">
        <ele>1311</ele>
        <time>2020-08-23T10:48:33Z</time>
      </trkpt>
      <trkpt lat="45.07763" lon="5.59113">
        <ele>1311.2</ele>
        <time>2020-08-23T10:48:34Z</time>
      </trkpt>
      <trkpt lat="45.07763" lon="5.59117">
        <ele>1311.4</ele>
        <time>2020-08-23T10:48:35Z</time>
      </trkpt>
      <trkpt lat="45.07764" lon="5.5912">
        <ele>1311.6</ele>
        <time>2020-08-23T10:48:36Z</time>
      </trkpt>
      <trkpt lat="45.07765" lon="5.59123">
        <ele>1311.6</ele>
        <time>2020-08-23T10:48:37Z</time>
      </trkpt>
      <trkpt lat="45.07766" lon="5.59126">
        <ele>1311.8</ele>
        <time>2020-08-23T10:48:38Z</time>
      </trkpt>
      <trkpt lat="45.07767" lon="5.59129">
        <ele>1312</ele>
        <time>2020-08-23T10:48:39Z</time>
      </trkpt>
      <trkpt lat="45.07768" lon="5.59133">
        <ele>1312.2</ele>
        <time>2020-08-23T10:48:40Z</time>
      </trkpt>
      <trkpt lat="45.07769" lon="5.59137">
        <ele>1312.4</ele>
        <time>2020-08-23T10:48:41Z</time>
      </trkpt>
      <trkpt lat="45.0777" lon="5.59141">
        <ele>1312.6</ele>
        <time>2020-08-23T10:48:42Z</time>
      </trkpt>
      <trkpt lat="45.07771" lon="5.59145">
        <ele>1312.8</ele>
        <time>2020-08-23T10:48:43Z</time>
      </trkpt>
      <trkpt lat="45.07771" lon="5.59149">
        <ele>1313</ele>
        <time>2020-08-23T10:48:44Z</time>
      </trkpt>
      <trkpt lat="45.07772" lon="5.59154">
        <ele>1313.2</ele>
        <time>2020-08-23T10:48:45Z</time>
      </trkpt>
      <trkpt lat="45.07773" lon="5.59159">
        <ele>1313.4</ele>
        <time>2020-08-23T10:48:46Z</time>
      </trkpt>
      <trkpt lat="45.07774" lon="5.59164">
        <ele>1313.4</ele>
        <time>2020-08-23T10:48:47Z</time>
      </trkpt>
      <trkpt lat="45.07775" lon="5.5917">
        <ele>1313.6</ele>
        <time>2020-08-23T10:48:48Z</time>
      </trkpt>
      <trkpt lat="45.07776" lon="5.59176">
        <ele>1313.6</ele>
        <time>2020-08-23T10:48:49Z</time>
      </trkpt>
      <trkpt lat="45.07777" lon="5.59182">
        <ele>1313.8</ele>
        <time>2020-08-23T10:48:50Z</time>
      </trkpt>
      <trkpt lat="45.07779" lon="5.59189">
        <ele>1314</ele>
        <time>2020-08-23T10:48:51Z</time>
      </trkpt>
      <trkpt lat="45.0778" lon="5.59196">
        <ele>1314.2</ele>
        <time>2020-08-23T10:48:52Z</time>
      </trkpt>
      <trkpt lat="45.0778" lon="5.59203">
        <ele>1314.4</ele>
        <time>2020-08-23T10:48:53Z</time>
      </trkpt>
      <trkpt lat="45.07779" lon="5.5921">
        <ele>1314.6</ele>
        <time>2020-08-23T10:48:54Z</time>
      </trkpt>
      <trkpt lat="45.07779" lon="5.59216">
        <ele>1314.8</ele>
        <time>2020-08-23T10:48:55Z</time>
      </trkpt>
      <trkpt lat="45.07779" lon="5.59221">
        <ele>1314.8</ele>
        <time>2020-08-23T10:48:56Z</time>
      </trkpt>
      <trkpt lat="45.07779" lon="5.59226">
        <ele>1315</ele>
        <time>2020-08-23T10:48:57Z</time>
      </trkpt>
      <trkpt lat="45.07779" lon="5.59231">
        <ele>1315</ele>
        <time>2020-08-23T10:48:58Z</time>
      </trkpt>
      <trkpt lat="45.07779" lon="5.59236">
        <ele>1315.2</ele>
        <time>2020-08-23T10:48:59Z</time>
      </trkpt>
      <trkpt lat="45.07779" lon="5.5924">
        <ele>1315.4</ele>
        <time>2020-08-23T10:49:00Z</time>
      </trkpt>
      <trkpt lat="45.07779" lon="5.59243">
        <ele>1315.8</ele>
        <time>2020-08-23T10:49:01Z</time>
      </trkpt>
      <trkpt lat="45.0778" lon="5.59245">
        <ele>1316</ele>
        <time>2020-08-23T10:49:02Z</time>
      </trkpt>
      <trkpt lat="45.07781" lon="5.59248">
        <ele>1316.2</ele>
        <time>2020-08-23T10:49:03Z</time>
      </trkpt>
      <trkpt lat="45.07781" lon="5.5925">
        <ele>1316.6</ele>
        <time>2020-08-23T10:49:04Z</time>
      </trkpt>
      <trkpt lat="45.07782" lon="5.59253">
        <ele>1316.8</ele>
        <time>2020-08-23T10:49:05Z</time>
      </trkpt>
      <trkpt lat="45.07783" lon="5.59256">
        <ele>1317</ele>
        <time>2020-08-23T10:49:06Z</time>
      </trkpt>
      <trkpt lat="45.07784" lon="5.59258">
        <ele>1317.2</ele>
        <time>2020-08-23T10:49:07Z</time>
      </trkpt>
      <trkpt lat="45.07784" lon="5.59261">
        <ele>1317.6</ele>
        <time>2020-08-23T10:49:08Z</time>
      </trkpt>
      <trkpt lat="45.07784" lon="5.59263">
        <ele>1317.8</ele>
        <time>2020-08-23T10:49:09Z</time>
      </trkpt>
      <trkpt lat="45.07784" lon="5.59266">
        <ele>1318</ele>
        <time>2020-08-23T10:49:10Z</time>
      </trkpt>
      <trkpt lat="45.07787" lon="5.59273">
        <ele>1319.6</ele>
        <time>2020-08-23T10:49:41Z</time>
      </trkpt>
      <trkpt lat="45.07787" lon="5.59274">
        <ele>1319.4</ele>
        <time>2020-08-23T10:49:42Z</time>
      </trkpt>
      <trkpt lat="45.07787" lon="5.59275">
        <ele>1319.4</ele>
        <time>2020-08-23T10:49:43Z</time>
      </trkpt>
      <trkpt lat="45.07787" lon="5.59276">
        <ele>1319.2</ele>
        <time>2020-08-23T10:49:44Z</time>
      </trkpt>
      <trkpt lat="45.07787" lon="5.59276">
        <ele>1319</ele>
        <time>2020-08-23T10:49:45Z</time>
      </trkpt>
      <trkpt lat="45.07787" lon="5.59277">
        <ele>1319</ele>
        <time>2020-08-23T10:49:46Z</time>
      </trkpt>
      <trkpt lat="45.07788" lon="5.59278">
        <ele>1319</ele>
        <time>2020-08-23T10:49:47Z</time>
      </trkpt>
      <trkpt lat="45.07788" lon="5.5928">
        <ele>1319</ele>
        <time>2020-08-23T10:49:48Z</time>
      </trkpt>
      <trkpt lat="45.07789" lon="5.59281">
        <ele>1319</ele>
        <time>2020-08-23T10:49:49Z</time>
      </trkpt>
      <trkpt lat="45.07789" lon="5.59283">
        <ele>1319</ele>
        <time>2020-08-23T10:49:50Z</time>
      </trkpt>
      <trkpt lat="45.07789" lon="5.59285">
        <ele>1319</ele>
        <time>2020-08-23T10:49:51Z</time>
      </trkpt>
      <trkpt lat="45.07789" lon="5.59287">
        <ele>1319.2</ele>
        <time>2020-08-23T10:49:52Z</time>
      </trkpt>
      <trkpt lat="45.0779" lon="5.59289">
        <ele>1319.4</ele>
        <time>2020-08-23T10:49:53Z</time>
      </trkpt>
      <trkpt lat="45.0779" lon="5.59291">
        <ele>1319.6</ele>
        <time>2020-08-23T10:49:54Z</time>
      </trkpt>
      <trkpt lat="45.07791" lon="5.59293">
        <ele>1319.6</ele>
        <time>2020-08-23T10:49:55Z</time>
      </trkpt>
      <trkpt lat="45.07792" lon="5.59296">
        <ele>1319.8</ele>
        <time>2020-08-23T10:49:56Z</time>
      </trkpt>
      <trkpt lat="45.07793" lon="5.59299">
        <ele>1320</ele>
        <time>2020-08-23T10:49:57Z</time>
      </trkpt>
      <trkpt lat="45.07793" lon="5.59301">
        <ele>1320</ele>
        <time>2020-08-23T10:49:58Z</time>
      </trkpt>
      <trkpt lat="45.07794" lon="5.59304">
        <ele>1320.2</ele>
        <time>2020-08-23T10:49:59Z</time>
      </trkpt>
      <trkpt lat="45.07795" lon="5.59307">
        <ele>1320.4</ele>
        <time>2020-08-23T10:50:00Z</time>
      </trkpt>
      <trkpt lat="45.07797" lon="5.5931">
        <ele>1320.6</ele>
        <time>2020-08-23T10:50:01Z</time>
      </trkpt>
      <trkpt lat="45.07798" lon="5.59312">
        <ele>1320.8</ele>
        <time>2020-08-23T10:50:02Z</time>
      </trkpt>
      <trkpt lat="45.07799" lon="5.59315">
        <ele>1321</ele>
        <time>2020-08-23T10:50:03Z</time>
      </trkpt>
      <trkpt lat="45.07801" lon="5.59317">
        <ele>1321.2</ele>
        <time>2020-08-23T10:50:04Z</time>
      </trkpt>
      <trkpt lat="45.07801" lon="5.59319">
        <ele>1321.4</ele>
        <time>2020-08-23T10:50:05Z</time>
      </trkpt>
      <trkpt lat="45.07803" lon="5.59321">
        <ele>1321.6</ele>
        <time>2020-08-23T10:50:06Z</time>
      </trkpt>
      <trkpt lat="45.07804" lon="5.59322">
        <ele>1321.8</ele>
        <time>2020-08-23T10:50:07Z</time>
      </trkpt>
      <trkpt lat="45.07805" lon="5.59324">
        <ele>1322</ele>
        <time>2020-08-23T10:50:08Z</time>
      </trkpt>
      <trkpt lat="45.07807" lon="5.59325">
        <ele>1322.2</ele>
        <time>2020-08-23T10:50:09Z</time>
      </trkpt>
      <trkpt lat="45.07808" lon="5.59326">
        <ele>1322.2</ele>
        <time>2020-08-23T10:50:10Z</time>
      </trkpt>
      <trkpt lat="45.07809" lon="5.59328">
        <ele>1322.6</ele>
        <time>2020-08-23T10:50:11Z</time>
      </trkpt>
      <trkpt lat="45.0781" lon="5.59329">
        <ele>1322.8</ele>
        <time>2020-08-23T10:50:12Z</time>
      </trkpt>
      <trkpt lat="45.07811" lon="5.59331">
        <ele>1323</ele>
        <time>2020-08-23T10:50:13Z</time>
      </trkpt>
      <trkpt lat="45.07813" lon="5.59332">
        <ele>1323.2</ele>
        <time>2020-08-23T10:50:14Z</time>
      </trkpt>
      <trkpt lat="45.07814" lon="5.59334">
        <ele>1323.4</ele>
        <time>2020-08-23T10:50:15Z</time>
      </trkpt>
      <trkpt lat="45.07815" lon="5.59335">
        <ele>1323.6</ele>
        <time>2020-08-23T10:50:16Z</time>
      </trkpt>
      <trkpt lat="45.07816" lon="5.59336">
        <ele>1323.8</ele>
        <time>2020-08-23T10:50:17Z</time>
      </trkpt>
      <trkpt lat="45.07818" lon="5.59337">
        <ele>1324</ele>
        <time>2020-08-23T10:50:18Z</time>
      </trkpt>
      <trkpt lat="45.07819" lon="5.59338">
        <ele>1324</ele>
        <time>2020-08-23T10:50:19Z</time>
      </trkpt>
      <trkpt lat="45.0782" lon="5.59339">
        <ele>1324.2</ele>
        <time>2020-08-23T10:50:20Z</time>
      </trkpt>
      <trkpt lat="45.07822" lon="5.59339">
        <ele>1324.4</ele>
        <time>2020-08-23T10:50:21Z</time>
      </trkpt>
      <trkpt lat="45.07823" lon="5.5934">
        <ele>1324.4</ele>
        <time>2020-08-23T10:50:22Z</time>
      </trkpt>
      <trkpt lat="45.07824" lon="5.59341">
        <ele>1324.6</ele>
        <time>2020-08-23T10:50:23Z</time>
      </trkpt>
      <trkpt lat="45.07826" lon="5.59342">
        <ele>1324.8</ele>
        <time>2020-08-23T10:50:24Z</time>
      </trkpt>
      <trkpt lat="45.07827" lon="5.59342">
        <ele>1324.8</ele>
        <time>2020-08-23T10:50:25Z</time>
      </trkpt>
      <trkpt lat="45.07828" lon="5.59343">
        <ele>1325</ele>
        <time>2020-08-23T10:50:26Z</time>
      </trkpt>
      <trkpt lat="45.07829" lon="5.59344">
        <ele>1325.2</ele>
        <time>2020-08-23T10:50:27Z</time>
      </trkpt>
      <trkpt lat="45.0783" lon="5.59344">
        <ele>1325.2</ele>
        <time>2020-08-23T10:50:28Z</time>
      </trkpt>
      <trkpt lat="45.07832" lon="5.59345">
        <ele>1325.4</ele>
        <time>2020-08-23T10:50:29Z</time>
      </trkpt>
      <trkpt lat="45.07833" lon="5.59346">
        <ele>1325.6</ele>
        <time>2020-08-23T10:50:30Z</time>
      </trkpt>
      <trkpt lat="45.07835" lon="5.59347">
        <ele>1325.6</ele>
        <time>2020-08-23T10:50:31Z</time>
      </trkpt>
      <trkpt lat="45.07836" lon="5.59348">
        <ele>1325.8</ele>
        <time>2020-08-23T10:50:32Z</time>
      </trkpt>
      <trkpt lat="45.07837" lon="5.59349">
        <ele>1325.8</ele>
        <time>2020-08-23T10:50:33Z</time>
      </trkpt>
      <trkpt lat="45.07838" lon="5.59351">
        <ele>1326</ele>
        <time>2020-08-23T10:50:34Z</time>
      </trkpt>
      <trkpt lat="45.07839" lon="5.59352">
        <ele>1326</ele>
        <time>2020-08-23T10:50:35Z</time>
      </trkpt>
      <trkpt lat="45.0784" lon="5.59353">
        <ele>1326</ele>
        <time>2020-08-23T10:50:36Z</time>
      </trkpt>
      <trkpt lat="45.07841" lon="5.59354">
        <ele>1326.2</ele>
        <time>2020-08-23T10:50:37Z</time>
      </trkpt>
      <trkpt lat="45.07842" lon="5.59355">
        <ele>1326.2</ele>
        <time>2020-08-23T10:50:38Z</time>
      </trkpt>
      <trkpt lat="45.07842" lon="5.59355">
        <ele>1326.4</ele>
        <time>2020-08-23T10:50:39Z</time>
      </trkpt>
      <trkpt lat="45.07843" lon="5.59356">
        <ele>1326.6</ele>
        <time>2020-08-23T10:50:40Z</time>
      </trkpt>
      <trkpt lat="45.07844" lon="5.59357">
        <ele>1326.6</ele>
        <time>2020-08-23T10:50:41Z</time>
      </trkpt>
      <trkpt lat="45.07845" lon="5.59358">
        <ele>1326.8</ele>
        <time>2020-08-23T10:50:42Z</time>
      </trkpt>
      <trkpt lat="45.07847" lon="5.59358">
        <ele>1326.8</ele>
        <time>2020-08-23T10:50:43Z</time>
      </trkpt>
      <trkpt lat="45.07848" lon="5.59359">
        <ele>1327</ele>
        <time>2020-08-23T10:50:44Z</time>
      </trkpt>
      <trkpt lat="45.0785" lon="5.59359">
        <ele>1327</ele>
        <time>2020-08-23T10:50:45Z</time>
      </trkpt>
      <trkpt lat="45.07851" lon="5.5936">
        <ele>1327.2</ele>
        <time>2020-08-23T10:50:46Z</time>
      </trkpt>
      <trkpt lat="45.07852" lon="5.5936">
        <ele>1327.2</ele>
        <time>2020-08-23T10:50:47Z</time>
      </trkpt>
      <trkpt lat="45.07854" lon="5.5936">
        <ele>1328</ele>
        <time>2020-08-23T10:50:52Z</time>
      </trkpt>
      <trkpt lat="45.07855" lon="5.5936">
        <ele>1328</ele>
        <time>2020-08-23T10:50:53Z</time>
      </trkpt>
      <trkpt lat="45.07856" lon="5.5936">
        <ele>1328</ele>
        <time>2020-08-23T10:50:54Z</time>
      </trkpt>
      <trkpt lat="45.07856" lon="5.5936">
        <ele>1328</ele>
        <time>2020-08-23T10:50:55Z</time>
      </trkpt>
      <trkpt lat="45.07856" lon="5.5936">
        <ele>1328</ele>
        <time>2020-08-23T10:50:56Z</time>
      </trkpt>
      <trkpt lat="45.07856" lon="5.5936">
        <ele>1328</ele>
        <time>2020-08-23T10:50:57Z</time>
      </trkpt>
      <trkpt lat="45.07856" lon="5.5936">
        <ele>1328.2</ele>
        <time>2020-08-23T10:50:58Z</time>
      </trkpt>
      <trkpt lat="45.07856" lon="5.5936">
        <ele>1328.2</ele>
        <time>2020-08-23T10:50:59Z</time>
      </trkpt>
      <trkpt lat="45.07858" lon="5.5936">
        <ele>1328.4</ele>
        <time>2020-08-23T10:51:05Z</time>
      </trkpt>
      <trkpt lat="45.07859" lon="5.5936">
        <ele>1328.6</ele>
        <time>2020-08-23T10:51:06Z</time>
      </trkpt>
      <trkpt lat="45.0786" lon="5.59359">
        <ele>1328.6</ele>
        <time>2020-08-23T10:51:07Z</time>
      </trkpt>
      <trkpt lat="45.07861" lon="5.59359">
        <ele>1328.6</ele>
        <time>2020-08-23T10:51:08Z</time>
      </trkpt>
      <trkpt lat="45.07863" lon="5.59359">
        <ele>1328.6</ele>
        <time>2020-08-23T10:51:09Z</time>
      </trkpt>
      <trkpt lat="45.07863" lon="5.59359">
        <ele>1328.6</ele>
        <time>2020-08-23T10:51:10Z</time>
      </trkpt>
      <trkpt lat="45.07864" lon="5.5936">
        <ele>1328.6</ele>
        <time>2020-08-23T10:51:11Z</time>
      </trkpt>
      <trkpt lat="45.07865" lon="5.5936">
        <ele>1328.8</ele>
        <time>2020-08-23T10:51:12Z</time>
      </trkpt>
      <trkpt lat="45.07866" lon="5.59361">
        <ele>1328.8</ele>
        <time>2020-08-23T10:51:13Z</time>
      </trkpt>
      <trkpt lat="45.07867" lon="5.59362">
        <ele>1329</ele>
        <time>2020-08-23T10:51:14Z</time>
      </trkpt>
      <trkpt lat="45.07868" lon="5.59363">
        <ele>1329</ele>
        <time>2020-08-23T10:51:15Z</time>
      </trkpt>
      <trkpt lat="45.07869" lon="5.59363">
        <ele>1329.2</ele>
        <time>2020-08-23T10:51:16Z</time>
      </trkpt>
      <trkpt lat="45.07871" lon="5.59364">
        <ele>1329.2</ele>
        <time>2020-08-23T10:51:17Z</time>
      </trkpt>
      <trkpt lat="45.07871" lon="5.59365">
        <ele>1329.4</ele>
        <time>2020-08-23T10:51:18Z</time>
      </trkpt>
      <trkpt lat="45.07872" lon="5.59366">
        <ele>1329.6</ele>
        <time>2020-08-23T10:51:19Z</time>
      </trkpt>
      <trkpt lat="45.07874" lon="5.59366">
        <ele>1329.8</ele>
        <time>2020-08-23T10:51:20Z</time>
      </trkpt>
      <trkpt lat="45.07874" lon="5.59368">
        <ele>1329.8</ele>
        <time>2020-08-23T10:51:21Z</time>
      </trkpt>
      <trkpt lat="45.07875" lon="5.59369">
        <ele>1330</ele>
        <time>2020-08-23T10:51:22Z</time>
      </trkpt>
      <trkpt lat="45.07876" lon="5.59369">
        <ele>1330.2</ele>
        <time>2020-08-23T10:51:23Z</time>
      </trkpt>
      <trkpt lat="45.07877" lon="5.59371">
        <ele>1330.4</ele>
        <time>2020-08-23T10:51:24Z</time>
      </trkpt>
      <trkpt lat="45.07878" lon="5.59372">
        <ele>1330.4</ele>
        <time>2020-08-23T10:51:25Z</time>
      </trkpt>
      <trkpt lat="45.07879" lon="5.59374">
        <ele>1330.6</ele>
        <time>2020-08-23T10:51:26Z</time>
      </trkpt>
      <trkpt lat="45.07879" lon="5.59375">
        <ele>1330.6</ele>
        <time>2020-08-23T10:51:27Z</time>
      </trkpt>
      <trkpt lat="45.0788" lon="5.59378">
        <ele>1330.6</ele>
        <time>2020-08-23T10:51:28Z</time>
      </trkpt>
      <trkpt lat="45.0788" lon="5.59379">
        <ele>1330.8</ele>
        <time>2020-08-23T10:51:29Z</time>
      </trkpt>
      <trkpt lat="45.07881" lon="5.59382">
        <ele>1331</ele>
        <time>2020-08-23T10:51:30Z</time>
      </trkpt>
      <trkpt lat="45.07882" lon="5.59384">
        <ele>1331</ele>
        <time>2020-08-23T10:51:31Z</time>
      </trkpt>
      <trkpt lat="45.07882" lon="5.59386">
        <ele>1331.2</ele>
        <time>2020-08-23T10:51:32Z</time>
      </trkpt>
      <trkpt lat="45.07883" lon="5.59388">
        <ele>1331.2</ele>
        <time>2020-08-23T10:51:33Z</time>
      </trkpt>
      <trkpt lat="45.07884" lon="5.5939">
        <ele>1331.2</ele>
        <time>2020-08-23T10:51:34Z</time>
      </trkpt>
      <trkpt lat="45.07885" lon="5.59393">
        <ele>1331.4</ele>
        <time>2020-08-23T10:51:35Z</time>
      </trkpt>
      <trkpt lat="45.07886" lon="5.59395">
        <ele>1331.4</ele>
        <time>2020-08-23T10:51:36Z</time>
      </trkpt>
      <trkpt lat="45.07887" lon="5.59397">
        <ele>1331.6</ele>
        <time>2020-08-23T10:51:37Z</time>
      </trkpt>
      <trkpt lat="45.07888" lon="5.59399">
        <ele>1331.8</ele>
        <time>2020-08-23T10:51:38Z</time>
      </trkpt>
      <trkpt lat="45.07889" lon="5.594">
        <ele>1331.8</ele>
        <time>2020-08-23T10:51:39Z</time>
      </trkpt>
      <trkpt lat="45.0789" lon="5.59402">
        <ele>1332</ele>
        <time>2020-08-23T10:51:40Z</time>
      </trkpt>
      <trkpt lat="45.07891" lon="5.59404">
        <ele>1332.2</ele>
        <time>2020-08-23T10:51:41Z</time>
      </trkpt>
      <trkpt lat="45.07892" lon="5.59405">
        <ele>1332.4</ele>
        <time>2020-08-23T10:51:42Z</time>
      </trkpt>
      <trkpt lat="45.07893" lon="5.59407">
        <ele>1332.6</ele>
        <time>2020-08-23T10:51:43Z</time>
      </trkpt>
      <trkpt lat="45.07894" lon="5.59408">
        <ele>1332.6</ele>
        <time>2020-08-23T10:51:44Z</time>
      </trkpt>
      <trkpt lat="45.07895" lon="5.5941">
        <ele>1332.8</ele>
        <time>2020-08-23T10:51:45Z</time>
      </trkpt>
      <trkpt lat="45.07896" lon="5.59412">
        <ele>1333</ele>
        <time>2020-08-23T10:51:46Z</time>
      </trkpt>
      <trkpt lat="45.07897" lon="5.59414">
        <ele>1333.2</ele>
        <time>2020-08-23T10:51:47Z</time>
      </trkpt>
      <trkpt lat="45.07898" lon="5.59415">
        <ele>1333.2</ele>
        <time>2020-08-23T10:51:48Z</time>
      </trkpt>
      <trkpt lat="45.079" lon="5.59417">
        <ele>1333.4</ele>
        <time>2020-08-23T10:51:49Z</time>
      </trkpt>
      <trkpt lat="45.07901" lon="5.59419">
        <ele>1333.4</ele>
        <time>2020-08-23T10:51:50Z</time>
      </trkpt>
      <trkpt lat="45.07902" lon="5.59421">
        <ele>1333.6</ele>
        <time>2020-08-23T10:51:51Z</time>
      </trkpt>
      <trkpt lat="45.07903" lon="5.59423">
        <ele>1333.6</ele>
        <time>2020-08-23T10:51:52Z</time>
      </trkpt>
      <trkpt lat="45.07904" lon="5.59426">
        <ele>1333.8</ele>
        <time>2020-08-23T10:51:53Z</time>
      </trkpt>
      <trkpt lat="45.07905" lon="5.59428">
        <ele>1334</ele>
        <time>2020-08-23T10:51:54Z</time>
      </trkpt>
      <trkpt lat="45.07906" lon="5.59431">
        <ele>1334</ele>
        <time>2020-08-23T10:51:55Z</time>
      </trkpt>
      <trkpt lat="45.07906" lon="5.59434">
        <ele>1334.2</ele>
        <time>2020-08-23T10:51:56Z</time>
      </trkpt>
      <trkpt lat="45.07907" lon="5.59437">
        <ele>1334.2</ele>
        <time>2020-08-23T10:51:57Z</time>
      </trkpt>
      <trkpt lat="45.07908" lon="5.59441">
        <ele>1334.4</ele>
        <time>2020-08-23T10:51:58Z</time>
      </trkpt>
      <trkpt lat="45.0791" lon="5.59444">
        <ele>1334.4</ele>
        <time>2020-08-23T10:51:59Z</time>
      </trkpt>
      <trkpt lat="45.07911" lon="5.59448">
        <ele>1334.4</ele>
        <time>2020-08-23T10:52:00Z</time>
      </trkpt>
      <trkpt lat="45.07913" lon="5.59451">
        <ele>1334.4</ele>
        <time>2020-08-23T10:52:01Z</time>
      </trkpt>
      <trkpt lat="45.07915" lon="5.59453">
        <ele>1334.6</ele>
        <time>2020-08-23T10:52:02Z</time>
      </trkpt>
      <trkpt lat="45.07917" lon="5.59455">
        <ele>1334.6</ele>
        <time>2020-08-23T10:52:03Z</time>
      </trkpt>
      <trkpt lat="45.07918" lon="5.59456">
        <ele>1334.8</ele>
        <time>2020-08-23T10:52:04Z</time>
      </trkpt>
      <trkpt lat="45.07919" lon="5.59457">
        <ele>1334.8</ele>
        <time>2020-08-23T10:52:05Z</time>
      </trkpt>
      <trkpt lat="45.07921" lon="5.59458">
        <ele>1335</ele>
        <time>2020-08-23T10:52:06Z</time>
      </trkpt>
      <trkpt lat="45.07922" lon="5.59458">
        <ele>1335</ele>
        <time>2020-08-23T10:52:07Z</time>
      </trkpt>
      <trkpt lat="45.07923" lon="5.59459">
        <ele>1335.2</ele>
        <time>2020-08-23T10:52:08Z</time>
      </trkpt>
      <trkpt lat="45.07925" lon="5.5946">
        <ele>1335.4</ele>
        <time>2020-08-23T10:52:09Z</time>
      </trkpt>
      <trkpt lat="45.07926" lon="5.59461">
        <ele>1335.6</ele>
        <time>2020-08-23T10:52:10Z</time>
      </trkpt>
      <trkpt lat="45.07927" lon="5.59462">
        <ele>1335.8</ele>
        <time>2020-08-23T10:52:11Z</time>
      </trkpt>
      <trkpt lat="45.07929" lon="5.59463">
        <ele>1335.8</ele>
        <time>2020-08-23T10:52:12Z</time>
      </trkpt>
      <trkpt lat="45.0793" lon="5.59464">
        <ele>1336</ele>
        <time>2020-08-23T10:52:13Z</time>
      </trkpt>
      <trkpt lat="45.07931" lon="5.59464">
        <ele>1336.2</ele>
        <time>2020-08-23T10:52:14Z</time>
      </trkpt>
      <trkpt lat="45.07932" lon="5.59464">
        <ele>1336.4</ele>
        <time>2020-08-23T10:52:15Z</time>
      </trkpt>
      <trkpt lat="45.07933" lon="5.59464">
        <ele>1336.6</ele>
        <time>2020-08-23T10:52:16Z</time>
      </trkpt>
      <trkpt lat="45.07934" lon="5.59465">
        <ele>1336.6</ele>
        <time>2020-08-23T10:52:17Z</time>
      </trkpt>
      <trkpt lat="45.07935" lon="5.59465">
        <ele>1336.8</ele>
        <time>2020-08-23T10:52:18Z</time>
      </trkpt>
      <trkpt lat="45.07937" lon="5.59466">
        <ele>1336.8</ele>
        <time>2020-08-23T10:52:19Z</time>
      </trkpt>
      <trkpt lat="45.07938" lon="5.59467">
        <ele>1337</ele>
        <time>2020-08-23T10:52:20Z</time>
      </trkpt>
      <trkpt lat="45.07939" lon="5.59468">
        <ele>1337.2</ele>
        <time>2020-08-23T10:52:21Z</time>
      </trkpt>
      <trkpt lat="45.0794" lon="5.5947">
        <ele>1337.2</ele>
        <time>2020-08-23T10:52:22Z</time>
      </trkpt>
      <trkpt lat="45.07941" lon="5.59471">
        <ele>1337.4</ele>
        <time>2020-08-23T10:52:23Z</time>
      </trkpt>
      <trkpt lat="45.07943" lon="5.59472">
        <ele>1337.4</ele>
        <time>2020-08-23T10:52:24Z</time>
      </trkpt>
      <trkpt lat="45.07944" lon="5.59473">
        <ele>1337.6</ele>
        <time>2020-08-23T10:52:25Z</time>
      </trkpt>
      <trkpt lat="45.07945" lon="5.59474">
        <ele>1337.6</ele>
        <time>2020-08-23T10:52:26Z</time>
      </trkpt>
      <trkpt lat="45.07945" lon="5.59476">
        <ele>1337.8</ele>
        <time>2020-08-23T10:52:27Z</time>
      </trkpt>
      <trkpt lat="45.07946" lon="5.59477">
        <ele>1337.8</ele>
        <time>2020-08-23T10:52:28Z</time>
      </trkpt>
      <trkpt lat="45.07947" lon="5.59479">
        <ele>1338</ele>
        <time>2020-08-23T10:52:29Z</time>
      </trkpt>
      <trkpt lat="45.07947" lon="5.59481">
        <ele>1338</ele>
        <time>2020-08-23T10:52:30Z</time>
      </trkpt>
      <trkpt lat="45.07948" lon="5.59482">
        <ele>1338</ele>
        <time>2020-08-23T10:52:31Z</time>
      </trkpt>
      <trkpt lat="45.07948" lon="5.59484">
        <ele>1338.2</ele>
        <time>2020-08-23T10:52:32Z</time>
      </trkpt>
      <trkpt lat="45.07949" lon="5.59486">
        <ele>1338.2</ele>
        <time>2020-08-23T10:52:33Z</time>
      </trkpt>
      <trkpt lat="45.07949" lon="5.59487">
        <ele>1338.4</ele>
        <time>2020-08-23T10:52:34Z</time>
      </trkpt>
      <trkpt lat="45.0795" lon="5.59489">
        <ele>1338.4</ele>
        <time>2020-08-23T10:52:35Z</time>
      </trkpt>
      <trkpt lat="45.0795" lon="5.59491">
        <ele>1338.6</ele>
        <time>2020-08-23T10:52:36Z</time>
      </trkpt>
      <trkpt lat="45.0795" lon="5.59492">
        <ele>1338.8</ele>
        <time>2020-08-23T10:52:37Z</time>
      </trkpt>
      <trkpt lat="45.0795" lon="5.59494">
        <ele>1339</ele>
        <time>2020-08-23T10:52:38Z</time>
      </trkpt>
      <trkpt lat="45.07951" lon="5.59495">
        <ele>1339</ele>
        <time>2020-08-23T10:52:39Z</time>
      </trkpt>
      <trkpt lat="45.07951" lon="5.59496">
        <ele>1339.2</ele>
        <time>2020-08-23T10:52:40Z</time>
      </trkpt>
      <trkpt lat="45.07951" lon="5.59497">
        <ele>1339.4</ele>
        <time>2020-08-23T10:52:41Z</time>
      </trkpt>
      <trkpt lat="45.07951" lon="5.59499">
        <ele>1339.6</ele>
        <time>2020-08-23T10:52:42Z</time>
      </trkpt>
      <trkpt lat="45.07951" lon="5.595">
        <ele>1339.6</ele>
        <time>2020-08-23T10:52:43Z</time>
      </trkpt>
      <trkpt lat="45.07952" lon="5.59501">
        <ele>1339.8</ele>
        <time>2020-08-23T10:52:44Z</time>
      </trkpt>
      <trkpt lat="45.07952" lon="5.59502">
        <ele>1340</ele>
        <time>2020-08-23T10:52:45Z</time>
      </trkpt>
      <trkpt lat="45.07952" lon="5.59504">
        <ele>1340.2</ele>
        <time>2020-08-23T10:52:46Z</time>
      </trkpt>
      <trkpt lat="45.07952" lon="5.59505">
        <ele>1340.2</ele>
        <time>2020-08-23T10:52:47Z</time>
      </trkpt>
      <trkpt lat="45.07952" lon="5.59507">
        <ele>1340.4</ele>
        <time>2020-08-23T10:52:48Z</time>
      </trkpt>
      <trkpt lat="45.07952" lon="5.59508">
        <ele>1340.4</ele>
        <time>2020-08-23T10:52:49Z</time>
      </trkpt>
      <trkpt lat="45.07952" lon="5.5951">
        <ele>1340.6</ele>
        <time>2020-08-23T10:52:50Z</time>
      </trkpt>
      <trkpt lat="45.07953" lon="5.59512">
        <ele>1340.6</ele>
        <time>2020-08-23T10:52:51Z</time>
      </trkpt>
      <trkpt lat="45.07953" lon="5.59514">
        <ele>1340.8</ele>
        <time>2020-08-23T10:52:52Z</time>
      </trkpt>
      <trkpt lat="45.07953" lon="5.59516">
        <ele>1340.8</ele>
        <time>2020-08-23T10:52:53Z</time>
      </trkpt>
      <trkpt lat="45.07954" lon="5.59518">
        <ele>1341</ele>
        <time>2020-08-23T10:52:54Z</time>
      </trkpt>
      <trkpt lat="45.07954" lon="5.5952">
        <ele>1341.2</ele>
        <time>2020-08-23T10:52:55Z</time>
      </trkpt>
      <trkpt lat="45.07954" lon="5.59521">
        <ele>1341.2</ele>
        <time>2020-08-23T10:52:56Z</time>
      </trkpt>
      <trkpt lat="45.07955" lon="5.59524">
        <ele>1341.2</ele>
        <time>2020-08-23T10:52:57Z</time>
      </trkpt>
      <trkpt lat="45.07956" lon="5.59525">
        <ele>1341.4</ele>
        <time>2020-08-23T10:52:58Z</time>
      </trkpt>
      <trkpt lat="45.07957" lon="5.59527">
        <ele>1341.6</ele>
        <time>2020-08-23T10:52:59Z</time>
      </trkpt>
      <trkpt lat="45.07958" lon="5.59528">
        <ele>1341.6</ele>
        <time>2020-08-23T10:53:00Z</time>
      </trkpt>
      <trkpt lat="45.07959" lon="5.59529">
        <ele>1341.8</ele>
        <time>2020-08-23T10:53:01Z</time>
      </trkpt>
      <trkpt lat="45.07959" lon="5.5953">
        <ele>1341.8</ele>
        <time>2020-08-23T10:53:02Z</time>
      </trkpt>
      <trkpt lat="45.07959" lon="5.5953">
        <ele>1342</ele>
        <time>2020-08-23T10:53:03Z</time>
      </trkpt>
      <trkpt lat="45.07959" lon="5.5953">
        <ele>1342.2</ele>
        <time>2020-08-23T10:53:04Z</time>
      </trkpt>
      <trkpt lat="45.07959" lon="5.5953">
        <ele>1342.2</ele>
        <time>2020-08-23T10:53:05Z</time>
      </trkpt>
      <trkpt lat="45.07959" lon="5.5953">
        <ele>1342.2</ele>
        <time>2020-08-23T10:53:06Z</time>
      </trkpt>
      <trkpt lat="45.0796" lon="5.59531">
        <ele>1342.2</ele>
        <time>2020-08-23T10:53:07Z</time>
      </trkpt>
      <trkpt lat="45.0796" lon="5.59532">
        <ele>1342.4</ele>
        <time>2020-08-23T10:53:08Z</time>
      </trkpt>
      <trkpt lat="45.07961" lon="5.59532">
        <ele>1342.4</ele>
        <time>2020-08-23T10:53:09Z</time>
      </trkpt>
      <trkpt lat="45.07961" lon="5.59533">
        <ele>1342.4</ele>
        <time>2020-08-23T10:53:10Z</time>
      </trkpt>
      <trkpt lat="45.07962" lon="5.59534">
        <ele>1342.4</ele>
        <time>2020-08-23T10:53:11Z</time>
      </trkpt>
      <trkpt lat="45.07962" lon="5.59535">
        <ele>1342.4</ele>
        <time>2020-08-23T10:53:12Z</time>
      </trkpt>
      <trkpt lat="45.07962" lon="5.59535">
        <ele>1342.4</ele>
        <time>2020-08-23T10:53:13Z</time>
      </trkpt>
      <trkpt lat="45.07963" lon="5.59536">
        <ele>1342.4</ele>
        <time>2020-08-23T10:53:14Z</time>
      </trkpt>
      <trkpt lat="45.07964" lon="5.59537">
        <ele>1342.4</ele>
        <time>2020-08-23T10:53:15Z</time>
      </trkpt>
      <trkpt lat="45.07964" lon="5.59537">
        <ele>1342.4</ele>
        <time>2020-08-23T10:53:16Z</time>
      </trkpt>
      <trkpt lat="45.07965" lon="5.59538">
        <ele>1342.4</ele>
        <time>2020-08-23T10:53:17Z</time>
      </trkpt>
      <trkpt lat="45.07965" lon="5.59538">
        <ele>1342.6</ele>
        <time>2020-08-23T10:53:18Z</time>
      </trkpt>
      <trkpt lat="45.07966" lon="5.59539">
        <ele>1342.4</ele>
        <time>2020-08-23T10:53:19Z</time>
      </trkpt>
      <trkpt lat="45.07966" lon="5.59539">
        <ele>1342.4</ele>
        <time>2020-08-23T10:53:20Z</time>
      </trkpt>
      <trkpt lat="45.07967" lon="5.5954">
        <ele>1342.4</ele>
        <time>2020-08-23T10:53:21Z</time>
      </trkpt>
      <trkpt lat="45.07968" lon="5.5954">
        <ele>1342.4</ele>
        <time>2020-08-23T10:53:22Z</time>
      </trkpt>
      <trkpt lat="45.07968" lon="5.5954">
        <ele>1342.4</ele>
        <time>2020-08-23T10:53:23Z</time>
      </trkpt>
      <trkpt lat="45.07969" lon="5.59541">
        <ele>1342.4</ele>
        <time>2020-08-23T10:53:24Z</time>
      </trkpt>
      <trkpt lat="45.07969" lon="5.59541">
        <ele>1342.4</ele>
        <time>2020-08-23T10:53:25Z</time>
      </trkpt>
      <trkpt lat="45.0797" lon="5.59541">
        <ele>1342.4</ele>
        <time>2020-08-23T10:53:26Z</time>
      </trkpt>
      <trkpt lat="45.0797" lon="5.59542">
        <ele>1342.4</ele>
        <time>2020-08-23T10:53:27Z</time>
      </trkpt>
      <trkpt lat="45.07971" lon="5.59542">
        <ele>1342.4</ele>
        <time>2020-08-23T10:53:28Z</time>
      </trkpt>
      <trkpt lat="45.07971" lon="5.59543">
        <ele>1342.4</ele>
        <time>2020-08-23T10:53:29Z</time>
      </trkpt>
      <trkpt lat="45.07972" lon="5.59543">
        <ele>1342.4</ele>
        <time>2020-08-23T10:53:30Z</time>
      </trkpt>
      <trkpt lat="45.07972" lon="5.59544">
        <ele>1342.4</ele>
        <time>2020-08-23T10:53:31Z</time>
      </trkpt>
      <trkpt lat="45.07973" lon="5.59545">
        <ele>1342.4</ele>
        <time>2020-08-23T10:53:32Z</time>
      </trkpt>
      <trkpt lat="45.07974" lon="5.59545">
        <ele>1342.4</ele>
        <time>2020-08-23T10:53:33Z</time>
      </trkpt>
      <trkpt lat="45.07974" lon="5.59546">
        <ele>1342.4</ele>
        <time>2020-08-23T10:53:34Z</time>
      </trkpt>
      <trkpt lat="45.07975" lon="5.59547">
        <ele>1342.4</ele>
        <time>2020-08-23T10:53:35Z</time>
      </trkpt>
      <trkpt lat="45.07975" lon="5.59548">
        <ele>1342.4</ele>
        <time>2020-08-23T10:53:36Z</time>
      </trkpt>
      <trkpt lat="45.07976" lon="5.59549">
        <ele>1342.4</ele>
        <time>2020-08-23T10:53:37Z</time>
      </trkpt>
      <trkpt lat="45.07976" lon="5.5955">
        <ele>1342.4</ele>
        <time>2020-08-23T10:53:38Z</time>
      </trkpt>
      <trkpt lat="45.07977" lon="5.5955">
        <ele>1342.4</ele>
        <time>2020-08-23T10:53:39Z</time>
      </trkpt>
      <trkpt lat="45.07977" lon="5.59551">
        <ele>1342.6</ele>
        <time>2020-08-23T10:53:40Z</time>
      </trkpt>
      <trkpt lat="45.07978" lon="5.59552">
        <ele>1342.6</ele>
        <time>2020-08-23T10:53:41Z</time>
      </trkpt>
      <trkpt lat="45.07978" lon="5.59553">
        <ele>1342.6</ele>
        <time>2020-08-23T10:53:42Z</time>
      </trkpt>
      <trkpt lat="45.07979" lon="5.59553">
        <ele>1342.6</ele>
        <time>2020-08-23T10:53:43Z</time>
      </trkpt>
      <trkpt lat="45.0798" lon="5.59554">
        <ele>1342.6</ele>
        <time>2020-08-23T10:53:44Z</time>
      </trkpt>
      <trkpt lat="45.0798" lon="5.59555">
        <ele>1342.8</ele>
        <time>2020-08-23T10:53:45Z</time>
      </trkpt>
      <trkpt lat="45.0798" lon="5.59555">
        <ele>1342.8</ele>
        <time>2020-08-23T10:53:46Z</time>
      </trkpt>
      <trkpt lat="45.07981" lon="5.59556">
        <ele>1342.8</ele>
        <time>2020-08-23T10:53:47Z</time>
      </trkpt>
      <trkpt lat="45.07982" lon="5.59556">
        <ele>1342.8</ele>
        <time>2020-08-23T10:53:48Z</time>
      </trkpt>
      <trkpt lat="45.07982" lon="5.59557">
        <ele>1343</ele>
        <time>2020-08-23T10:53:49Z</time>
      </trkpt>
      <trkpt lat="45.07983" lon="5.59558">
        <ele>1343</ele>
        <time>2020-08-23T10:53:50Z</time>
      </trkpt>
      <trkpt lat="45.07983" lon="5.59558">
        <ele>1343</ele>
        <time>2020-08-23T10:53:51Z</time>
      </trkpt>
      <trkpt lat="45.07984" lon="5.59559">
        <ele>1343.2</ele>
        <time>2020-08-23T10:53:52Z</time>
      </trkpt>
      <trkpt lat="45.07984" lon="5.59559">
        <ele>1343.2</ele>
        <time>2020-08-23T10:53:53Z</time>
      </trkpt>
      <trkpt lat="45.07985" lon="5.5956">
        <ele>1343.2</ele>
        <time>2020-08-23T10:53:54Z</time>
      </trkpt>
      <trkpt lat="45.07985" lon="5.5956">
        <ele>1343.4</ele>
        <time>2020-08-23T10:53:55Z</time>
      </trkpt>
      <trkpt lat="45.07986" lon="5.59561">
        <ele>1343.4</ele>
        <time>2020-08-23T10:53:56Z</time>
      </trkpt>
      <trkpt lat="45.07987" lon="5.59561">
        <ele>1343.4</ele>
        <time>2020-08-23T10:53:57Z</time>
      </trkpt>
      <trkpt lat="45.07987" lon="5.59562">
        <ele>1343.4</ele>
        <time>2020-08-23T10:53:58Z</time>
      </trkpt>
      <trkpt lat="45.07988" lon="5.59563">
        <ele>1343.6</ele>
        <time>2020-08-23T10:53:59Z</time>
      </trkpt>
      <trkpt lat="45.07988" lon="5.59563">
        <ele>1343.6</ele>
        <time>2020-08-23T10:54:00Z</time>
      </trkpt>
      <trkpt lat="45.07989" lon="5.59564">
        <ele>1343.6</ele>
        <time>2020-08-23T10:54:01Z</time>
      </trkpt>
      <trkpt lat="45.0799" lon="5.59565">
        <ele>1343.8</ele>
        <time>2020-08-23T10:54:02Z</time>
      </trkpt>
      <trkpt lat="45.0799" lon="5.59565">
        <ele>1343.8</ele>
        <time>2020-08-23T10:54:03Z</time>
      </trkpt>
      <trkpt lat="45.0799" lon="5.59565">
        <ele>1343.8</ele>
        <time>2020-08-23T10:54:04Z</time>
      </trkpt>
      <trkpt lat="45.07991" lon="5.59566">
        <ele>1344</ele>
        <time>2020-08-23T10:54:05Z</time>
      </trkpt>
      <trkpt lat="45.07991" lon="5.59567">
        <ele>1344</ele>
        <time>2020-08-23T10:54:06Z</time>
      </trkpt>
      <trkpt lat="45.07992" lon="5.59568">
        <ele>1344.2</ele>
        <time>2020-08-23T10:54:07Z</time>
      </trkpt>
      <trkpt lat="45.07992" lon="5.59568">
        <ele>1344.2</ele>
        <time>2020-08-23T10:54:08Z</time>
      </trkpt>
      <trkpt lat="45.07992" lon="5.59568">
        <ele>1344.2</ele>
        <time>2020-08-23T10:54:09Z</time>
      </trkpt>
      <trkpt lat="45.07992" lon="5.59568">
        <ele>1344.4</ele>
        <time>2020-08-23T10:54:10Z</time>
      </trkpt>
      <trkpt lat="45.07992" lon="5.59568">
        <ele>1344.4</ele>
        <time>2020-08-23T10:54:11Z</time>
      </trkpt>
      <trkpt lat="45.07992" lon="5.59568">
        <ele>1344.6</ele>
        <time>2020-08-23T10:54:12Z</time>
      </trkpt>
      <trkpt lat="45.07992" lon="5.59568">
        <ele>1344.6</ele>
        <time>2020-08-23T10:54:13Z</time>
      </trkpt>
      <trkpt lat="45.07992" lon="5.59568">
        <ele>1344.8</ele>
        <time>2020-08-23T10:54:14Z</time>
      </trkpt>
      <trkpt lat="45.07992" lon="5.59568">
        <ele>1344.8</ele>
        <time>2020-08-23T10:54:15Z</time>
      </trkpt>
      <trkpt lat="45.07994" lon="5.59569">
        <ele>1345</ele>
        <time>2020-08-23T10:54:16Z</time>
      </trkpt>
      <trkpt lat="45.07995" lon="5.5957">
        <ele>1345</ele>
        <time>2020-08-23T10:54:17Z</time>
      </trkpt>
      <trkpt lat="45.07996" lon="5.59571">
        <ele>1345</ele>
        <time>2020-08-23T10:54:18Z</time>
      </trkpt>
      <trkpt lat="45.07997" lon="5.59572">
        <ele>1345.2</ele>
        <time>2020-08-23T10:54:19Z</time>
      </trkpt>
      <trkpt lat="45.07998" lon="5.59573">
        <ele>1345.2</ele>
        <time>2020-08-23T10:54:20Z</time>
      </trkpt>
      <trkpt lat="45.07999" lon="5.59574">
        <ele>1345.2</ele>
        <time>2020-08-23T10:54:21Z</time>
      </trkpt>
      <trkpt lat="45.08" lon="5.59575">
        <ele>1345.2</ele>
        <time>2020-08-23T10:54:22Z</time>
      </trkpt>
      <trkpt lat="45.08001" lon="5.59575">
        <ele>1345.4</ele>
        <time>2020-08-23T10:54:23Z</time>
      </trkpt>
      <trkpt lat="45.08002" lon="5.59576">
        <ele>1345.4</ele>
        <time>2020-08-23T10:54:24Z</time>
      </trkpt>
      <trkpt lat="45.08004" lon="5.59577">
        <ele>1345.6</ele>
        <time>2020-08-23T10:54:25Z</time>
      </trkpt>
      <trkpt lat="45.08005" lon="5.59577">
        <ele>1345.6</ele>
        <time>2020-08-23T10:54:26Z</time>
      </trkpt>
      <trkpt lat="45.08006" lon="5.59577">
        <ele>1345.8</ele>
        <time>2020-08-23T10:54:27Z</time>
      </trkpt>
      <trkpt lat="45.08007" lon="5.59578">
        <ele>1345.8</ele>
        <time>2020-08-23T10:54:28Z</time>
      </trkpt>
      <trkpt lat="45.08008" lon="5.59578">
        <ele>1346</ele>
        <time>2020-08-23T10:54:29Z</time>
      </trkpt>
      <trkpt lat="45.08009" lon="5.59578">
        <ele>1346</ele>
        <time>2020-08-23T10:54:30Z</time>
      </trkpt>
      <trkpt lat="45.0801" lon="5.59578">
        <ele>1346.2</ele>
        <time>2020-08-23T10:54:31Z</time>
      </trkpt>
      <trkpt lat="45.08011" lon="5.59578">
        <ele>1346.4</ele>
        <time>2020-08-23T10:54:32Z</time>
      </trkpt>
      <trkpt lat="45.08012" lon="5.59578">
        <ele>1346.4</ele>
        <time>2020-08-23T10:54:33Z</time>
      </trkpt>
      <trkpt lat="45.08013" lon="5.59578">
        <ele>1346.6</ele>
        <time>2020-08-23T10:54:34Z</time>
      </trkpt>
      <trkpt lat="45.08014" lon="5.59579">
        <ele>1346.8</ele>
        <time>2020-08-23T10:54:35Z</time>
      </trkpt>
      <trkpt lat="45.08015" lon="5.59579">
        <ele>1346.8</ele>
        <time>2020-08-23T10:54:36Z</time>
      </trkpt>
      <trkpt lat="45.08016" lon="5.5958">
        <ele>1347</ele>
        <time>2020-08-23T10:54:37Z</time>
      </trkpt>
      <trkpt lat="45.08017" lon="5.5958">
        <ele>1347</ele>
        <time>2020-08-23T10:54:38Z</time>
      </trkpt>
      <trkpt lat="45.08019" lon="5.5958">
        <ele>1347.2</ele>
        <time>2020-08-23T10:54:39Z</time>
      </trkpt>
      <trkpt lat="45.08019" lon="5.59581">
        <ele>1347.4</ele>
        <time>2020-08-23T10:54:40Z</time>
      </trkpt>
      <trkpt lat="45.0802" lon="5.59581">
        <ele>1347.4</ele>
        <time>2020-08-23T10:54:41Z</time>
      </trkpt>
      <trkpt lat="45.08022" lon="5.59582">
        <ele>1347.6</ele>
        <time>2020-08-23T10:54:42Z</time>
      </trkpt>
      <trkpt lat="45.08023" lon="5.59582">
        <ele>1347.6</ele>
        <time>2020-08-23T10:54:43Z</time>
      </trkpt>
      <trkpt lat="45.08024" lon="5.59583">
        <ele>1347.8</ele>
        <time>2020-08-23T10:54:44Z</time>
      </trkpt>
      <trkpt lat="45.08025" lon="5.59584">
        <ele>1348</ele>
        <time>2020-08-23T10:54:45Z</time>
      </trkpt>
      <trkpt lat="45.08026" lon="5.59584">
        <ele>1348</ele>
        <time>2020-08-23T10:54:46Z</time>
      </trkpt>
      <trkpt lat="45.08027" lon="5.59585">
        <ele>1348.2</ele>
        <time>2020-08-23T10:54:47Z</time>
      </trkpt>
      <trkpt lat="45.08028" lon="5.59586">
        <ele>1348.4</ele>
        <time>2020-08-23T10:54:48Z</time>
      </trkpt>
      <trkpt lat="45.08029" lon="5.59587">
        <ele>1348.4</ele>
        <time>2020-08-23T10:54:49Z</time>
      </trkpt>
      <trkpt lat="45.0803" lon="5.59587">
        <ele>1348.6</ele>
        <time>2020-08-23T10:54:50Z</time>
      </trkpt>
      <trkpt lat="45.08032" lon="5.59588">
        <ele>1348.8</ele>
        <time>2020-08-23T10:54:51Z</time>
      </trkpt>
      <trkpt lat="45.08033" lon="5.59589">
        <ele>1348.8</ele>
        <time>2020-08-23T10:54:52Z</time>
      </trkpt>
      <trkpt lat="45.08035" lon="5.5959">
        <ele>1349</ele>
        <time>2020-08-23T10:54:53Z</time>
      </trkpt>
      <trkpt lat="45.08036" lon="5.59591">
        <ele>1349</ele>
        <time>2020-08-23T10:54:54Z</time>
      </trkpt>
      <trkpt lat="45.08037" lon="5.59592">
        <ele>1349</ele>
        <time>2020-08-23T10:54:55Z</time>
      </trkpt>
      <trkpt lat="45.08038" lon="5.59593">
        <ele>1349.2</ele>
        <time>2020-08-23T10:54:56Z</time>
      </trkpt>
      <trkpt lat="45.0804" lon="5.59594">
        <ele>1349.2</ele>
        <time>2020-08-23T10:54:57Z</time>
      </trkpt>
      <trkpt lat="45.08041" lon="5.59595">
        <ele>1349.2</ele>
        <time>2020-08-23T10:54:58Z</time>
      </trkpt>
      <trkpt lat="45.08042" lon="5.59596">
        <ele>1349.4</ele>
        <time>2020-08-23T10:54:59Z</time>
      </trkpt>
      <trkpt lat="45.08043" lon="5.59597">
        <ele>1349.4</ele>
        <time>2020-08-23T10:55:00Z</time>
      </trkpt>
      <trkpt lat="45.08044" lon="5.59598">
        <ele>1349.4</ele>
        <time>2020-08-23T10:55:01Z</time>
      </trkpt>
      <trkpt lat="45.08046" lon="5.59599">
        <ele>1349.4</ele>
        <time>2020-08-23T10:55:02Z</time>
      </trkpt>
      <trkpt lat="45.08047" lon="5.596">
        <ele>1349.6</ele>
        <time>2020-08-23T10:55:03Z</time>
      </trkpt>
      <trkpt lat="45.08049" lon="5.59601">
        <ele>1349.6</ele>
        <time>2020-08-23T10:55:04Z</time>
      </trkpt>
      <trkpt lat="45.0805" lon="5.59601">
        <ele>1349.6</ele>
        <time>2020-08-23T10:55:05Z</time>
      </trkpt>
      <trkpt lat="45.08051" lon="5.59602">
        <ele>1349.6</ele>
        <time>2020-08-23T10:55:06Z</time>
      </trkpt>
      <trkpt lat="45.08052" lon="5.59603">
        <ele>1349.6</ele>
        <time>2020-08-23T10:55:07Z</time>
      </trkpt>
      <trkpt lat="45.08054" lon="5.59604">
        <ele>1349.6</ele>
        <time>2020-08-23T10:55:08Z</time>
      </trkpt>
      <trkpt lat="45.08057" lon="5.59606">
        <ele>1349.6</ele>
        <time>2020-08-23T10:55:09Z</time>
      </trkpt>
      <trkpt lat="45.08059" lon="5.59608">
        <ele>1349.4</ele>
        <time>2020-08-23T10:55:10Z</time>
      </trkpt>
      <trkpt lat="45.08063" lon="5.59611">
        <ele>1349.4</ele>
        <time>2020-08-23T10:55:11Z</time>
      </trkpt>
      <trkpt lat="45.08066" lon="5.59613">
        <ele>1349.4</ele>
        <time>2020-08-23T10:55:12Z</time>
      </trkpt>
      <trkpt lat="45.08069" lon="5.59615">
        <ele>1349.4</ele>
        <time>2020-08-23T10:55:13Z</time>
      </trkpt>
      <trkpt lat="45.08071" lon="5.59617">
        <ele>1349.6</ele>
        <time>2020-08-23T10:55:14Z</time>
      </trkpt>
      <trkpt lat="45.08073" lon="5.59618">
        <ele>1349.6</ele>
        <time>2020-08-23T10:55:15Z</time>
      </trkpt>
      <trkpt lat="45.08076" lon="5.59619">
        <ele>1349.6</ele>
        <time>2020-08-23T10:55:16Z</time>
      </trkpt>
      <trkpt lat="45.08077" lon="5.59621">
        <ele>1349.6</ele>
        <time>2020-08-23T10:55:17Z</time>
      </trkpt>
      <trkpt lat="45.08078" lon="5.59622">
        <ele>1349.8</ele>
        <time>2020-08-23T10:55:18Z</time>
      </trkpt>
      <trkpt lat="45.0808" lon="5.59622">
        <ele>1349.8</ele>
        <time>2020-08-23T10:55:19Z</time>
      </trkpt>
      <trkpt lat="45.08082" lon="5.59623">
        <ele>1350</ele>
        <time>2020-08-23T10:55:20Z</time>
      </trkpt>
      <trkpt lat="45.08085" lon="5.59625">
        <ele>1350.2</ele>
        <time>2020-08-23T10:55:21Z</time>
      </trkpt>
      <trkpt lat="45.08087" lon="5.59627">
        <ele>1350.4</ele>
        <time>2020-08-23T10:55:22Z</time>
      </trkpt>
      <trkpt lat="45.08089" lon="5.59628">
        <ele>1350.4</ele>
        <time>2020-08-23T10:55:23Z</time>
      </trkpt>
      <trkpt lat="45.0809" lon="5.59629">
        <ele>1350.6</ele>
        <time>2020-08-23T10:55:24Z</time>
      </trkpt>
      <trkpt lat="45.08092" lon="5.59629">
        <ele>1350.8</ele>
        <time>2020-08-23T10:55:25Z</time>
      </trkpt>
      <trkpt lat="45.08094" lon="5.59629">
        <ele>1351</ele>
        <time>2020-08-23T10:55:26Z</time>
      </trkpt>
      <trkpt lat="45.08096" lon="5.59629">
        <ele>1351.2</ele>
        <time>2020-08-23T10:55:27Z</time>
      </trkpt>
      <trkpt lat="45.08098" lon="5.59629">
        <ele>1351.2</ele>
        <time>2020-08-23T10:55:28Z</time>
      </trkpt>
      <trkpt lat="45.08101" lon="5.5963">
        <ele>1351.4</ele>
        <time>2020-08-23T10:55:29Z</time>
      </trkpt>
      <trkpt lat="45.08103" lon="5.59631">
        <ele>1351.6</ele>
        <time>2020-08-23T10:55:30Z</time>
      </trkpt>
      <trkpt lat="45.08104" lon="5.59632">
        <ele>1351.8</ele>
        <time>2020-08-23T10:55:31Z</time>
      </trkpt>
      <trkpt lat="45.08106" lon="5.59634">
        <ele>1352</ele>
        <time>2020-08-23T10:55:32Z</time>
      </trkpt>
      <trkpt lat="45.08108" lon="5.59636">
        <ele>1352.2</ele>
        <time>2020-08-23T10:55:33Z</time>
      </trkpt>
      <trkpt lat="45.08111" lon="5.59637">
        <ele>1352.2</ele>
        <time>2020-08-23T10:55:34Z</time>
      </trkpt>
      <trkpt lat="45.08115" lon="5.59638">
        <ele>1352.4</ele>
        <time>2020-08-23T10:55:35Z</time>
      </trkpt>
      <trkpt lat="45.08118" lon="5.59639">
        <ele>1352.4</ele>
        <time>2020-08-23T10:55:36Z</time>
      </trkpt>
      <trkpt lat="45.08123" lon="5.5964">
        <ele>1352.6</ele>
        <time>2020-08-23T10:55:37Z</time>
      </trkpt>
      <trkpt lat="45.08128" lon="5.59642">
        <ele>1352.8</ele>
        <time>2020-08-23T10:55:38Z</time>
      </trkpt>
      <trkpt lat="45.08132" lon="5.59643">
        <ele>1352.8</ele>
        <time>2020-08-23T10:55:39Z</time>
      </trkpt>
      <trkpt lat="45.08136" lon="5.59645">
        <ele>1353</ele>
        <time>2020-08-23T10:55:40Z</time>
      </trkpt>
      <trkpt lat="45.08139" lon="5.59647">
        <ele>1353.2</ele>
        <time>2020-08-23T10:55:41Z</time>
      </trkpt>
      <trkpt lat="45.08142" lon="5.59649">
        <ele>1353.2</ele>
        <time>2020-08-23T10:55:42Z</time>
      </trkpt>
      <trkpt lat="45.08144" lon="5.59651">
        <ele>1353.4</ele>
        <time>2020-08-23T10:55:43Z</time>
      </trkpt>
      <trkpt lat="45.08147" lon="5.59653">
        <ele>1353.6</ele>
        <time>2020-08-23T10:55:44Z</time>
      </trkpt>
      <trkpt lat="45.08148" lon="5.59654">
        <ele>1353.6</ele>
        <time>2020-08-23T10:55:45Z</time>
      </trkpt>
      <trkpt lat="45.08149" lon="5.59654">
        <ele>1353.8</ele>
        <time>2020-08-23T10:55:46Z</time>
      </trkpt>
      <trkpt lat="45.08149" lon="5.59654">
        <ele>1353.8</ele>
        <time>2020-08-23T10:55:47Z</time>
      </trkpt>
      <trkpt lat="45.08149" lon="5.59654">
        <ele>1354</ele>
        <time>2020-08-23T10:55:48Z</time>
      </trkpt>
      <trkpt lat="45.08149" lon="5.59654">
        <ele>1354.2</ele>
        <time>2020-08-23T10:55:49Z</time>
      </trkpt>
      <trkpt lat="45.08149" lon="5.59654">
        <ele>1354.2</ele>
        <time>2020-08-23T10:55:50Z</time>
      </trkpt>
      <trkpt lat="45.08149" lon="5.59654">
        <ele>1354.4</ele>
        <time>2020-08-23T10:55:51Z</time>
      </trkpt>
      <trkpt lat="45.08149" lon="5.59654">
        <ele>1354.6</ele>
        <time>2020-08-23T10:55:52Z</time>
      </trkpt>
      <trkpt lat="45.08149" lon="5.59654">
        <ele>1354.8</ele>
        <time>2020-08-23T10:55:53Z</time>
      </trkpt>
      <trkpt lat="45.08149" lon="5.59654">
        <ele>1355</ele>
        <time>2020-08-23T10:55:54Z</time>
      </trkpt>
      <trkpt lat="45.0815" lon="5.59655">
        <ele>1355.6</ele>
        <time>2020-08-23T10:56:34Z</time>
      </trkpt>
      <trkpt lat="45.08151" lon="5.59656">
        <ele>1355.6</ele>
        <time>2020-08-23T10:56:35Z</time>
      </trkpt>
      <trkpt lat="45.08151" lon="5.59657">
        <ele>1355.6</ele>
        <time>2020-08-23T10:56:36Z</time>
      </trkpt>
      <trkpt lat="45.08153" lon="5.59658">
        <ele>1355.6</ele>
        <time>2020-08-23T10:56:37Z</time>
      </trkpt>
      <trkpt lat="45.08154" lon="5.59659">
        <ele>1355.6</ele>
        <time>2020-08-23T10:56:38Z</time>
      </trkpt>
      <trkpt lat="45.08156" lon="5.59659">
        <ele>1355.4</ele>
        <time>2020-08-23T10:56:39Z</time>
      </trkpt>
      <trkpt lat="45.08158" lon="5.5966">
        <ele>1355.4</ele>
        <time>2020-08-23T10:56:40Z</time>
      </trkpt>
      <trkpt lat="45.0816" lon="5.59661">
        <ele>1355.4</ele>
        <time>2020-08-23T10:56:41Z</time>
      </trkpt>
      <trkpt lat="45.08162" lon="5.59662">
        <ele>1355.4</ele>
        <time>2020-08-23T10:56:42Z</time>
      </trkpt>
      <trkpt lat="45.08164" lon="5.59664">
        <ele>1355.4</ele>
        <time>2020-08-23T10:56:43Z</time>
      </trkpt>
      <trkpt lat="45.08165" lon="5.59665">
        <ele>1355.4</ele>
        <time>2020-08-23T10:56:44Z</time>
      </trkpt>
      <trkpt lat="45.08167" lon="5.59666">
        <ele>1355.4</ele>
        <time>2020-08-23T10:56:45Z</time>
      </trkpt>
      <trkpt lat="45.08168" lon="5.59668">
        <ele>1355.4</ele>
        <time>2020-08-23T10:56:46Z</time>
      </trkpt>
      <trkpt lat="45.08169" lon="5.59669">
        <ele>1355.6</ele>
        <time>2020-08-23T10:56:47Z</time>
      </trkpt>
      <trkpt lat="45.08171" lon="5.5967">
        <ele>1355.6</ele>
        <time>2020-08-23T10:56:48Z</time>
      </trkpt>
      <trkpt lat="45.08172" lon="5.59671">
        <ele>1355.6</ele>
        <time>2020-08-23T10:56:49Z</time>
      </trkpt>
      <trkpt lat="45.08174" lon="5.59672">
        <ele>1355.8</ele>
        <time>2020-08-23T10:56:50Z</time>
      </trkpt>
      <trkpt lat="45.08175" lon="5.59673">
        <ele>1355.8</ele>
        <time>2020-08-23T10:56:51Z</time>
      </trkpt>
      <trkpt lat="45.08177" lon="5.59674">
        <ele>1356</ele>
        <time>2020-08-23T10:56:52Z</time>
      </trkpt>
      <trkpt lat="45.08179" lon="5.59675">
        <ele>1356</ele>
        <time>2020-08-23T10:56:53Z</time>
      </trkpt>
      <trkpt lat="45.0818" lon="5.59677">
        <ele>1356</ele>
        <time>2020-08-23T10:56:54Z</time>
      </trkpt>
      <trkpt lat="45.08181" lon="5.59678">
        <ele>1356.2</ele>
        <time>2020-08-23T10:56:55Z</time>
      </trkpt>
      <trkpt lat="45.08182" lon="5.59679">
        <ele>1356.2</ele>
        <time>2020-08-23T10:56:56Z</time>
      </trkpt>
      <trkpt lat="45.08183" lon="5.59679">
        <ele>1356.2</ele>
        <time>2020-08-23T10:56:57Z</time>
      </trkpt>
      <trkpt lat="45.08183" lon="5.59679">
        <ele>1356.4</ele>
        <time>2020-08-23T10:56:58Z</time>
      </trkpt>
      <trkpt lat="45.08184" lon="5.59679">
        <ele>1356.4</ele>
        <time>2020-08-23T10:56:59Z</time>
      </trkpt>
      <trkpt lat="45.08185" lon="5.59679">
        <ele>1356.6</ele>
        <time>2020-08-23T10:57:00Z</time>
      </trkpt>
      <trkpt lat="45.08186" lon="5.59679">
        <ele>1356.6</ele>
        <time>2020-08-23T10:57:01Z</time>
      </trkpt>
      <trkpt lat="45.08188" lon="5.59679">
        <ele>1356.6</ele>
        <time>2020-08-23T10:57:02Z</time>
      </trkpt>
      <trkpt lat="45.08189" lon="5.5968">
        <ele>1356.8</ele>
        <time>2020-08-23T10:57:03Z</time>
      </trkpt>
      <trkpt lat="45.0819" lon="5.59682">
        <ele>1356.8</ele>
        <time>2020-08-23T10:57:04Z</time>
      </trkpt>
      <trkpt lat="45.08191" lon="5.59684">
        <ele>1357</ele>
        <time>2020-08-23T10:57:05Z</time>
      </trkpt>
      <trkpt lat="45.08192" lon="5.59685">
        <ele>1357</ele>
        <time>2020-08-23T10:57:06Z</time>
      </trkpt>
      <trkpt lat="45.08193" lon="5.59687">
        <ele>1357</ele>
        <time>2020-08-23T10:57:07Z</time>
      </trkpt>
      <trkpt lat="45.08195" lon="5.59689">
        <ele>1357.2</ele>
        <time>2020-08-23T10:57:08Z</time>
      </trkpt>
      <trkpt lat="45.08196" lon="5.5969">
        <ele>1357.2</ele>
        <time>2020-08-23T10:57:09Z</time>
      </trkpt>
      <trkpt lat="45.08198" lon="5.59692">
        <ele>1357.2</ele>
        <time>2020-08-23T10:57:10Z</time>
      </trkpt>
      <trkpt lat="45.082" lon="5.59693">
        <ele>1357.4</ele>
        <time>2020-08-23T10:57:11Z</time>
      </trkpt>
      <trkpt lat="45.08202" lon="5.59694">
        <ele>1357.4</ele>
        <time>2020-08-23T10:57:12Z</time>
      </trkpt>
      <trkpt lat="45.08203" lon="5.59695">
        <ele>1357.6</ele>
        <time>2020-08-23T10:57:13Z</time>
      </trkpt>
      <trkpt lat="45.08204" lon="5.59696">
        <ele>1357.6</ele>
        <time>2020-08-23T10:57:14Z</time>
      </trkpt>
      <trkpt lat="45.08205" lon="5.59696">
        <ele>1357.8</ele>
        <time>2020-08-23T10:57:15Z</time>
      </trkpt>
      <trkpt lat="45.08206" lon="5.59697">
        <ele>1357.8</ele>
        <time>2020-08-23T10:57:16Z</time>
      </trkpt>
      <trkpt lat="45.08207" lon="5.59698">
        <ele>1357.8</ele>
        <time>2020-08-23T10:57:17Z</time>
      </trkpt>
      <trkpt lat="45.08209" lon="5.59699">
        <ele>1358</ele>
        <time>2020-08-23T10:57:18Z</time>
      </trkpt>
      <trkpt lat="45.0821" lon="5.59701">
        <ele>1358</ele>
        <time>2020-08-23T10:57:19Z</time>
      </trkpt>
      <trkpt lat="45.08211" lon="5.59702">
        <ele>1358</ele>
        <time>2020-08-23T10:57:20Z</time>
      </trkpt>
      <trkpt lat="45.08213" lon="5.59704">
        <ele>1358.2</ele>
        <time>2020-08-23T10:57:21Z</time>
      </trkpt>
      <trkpt lat="45.08214" lon="5.59705">
        <ele>1358.2</ele>
        <time>2020-08-23T10:57:22Z</time>
      </trkpt>
      <trkpt lat="45.08216" lon="5.59707">
        <ele>1358.2</ele>
        <time>2020-08-23T10:57:23Z</time>
      </trkpt>
      <trkpt lat="45.08218" lon="5.59709">
        <ele>1358.2</ele>
        <time>2020-08-23T10:57:24Z</time>
      </trkpt>
      <trkpt lat="45.08219" lon="5.5971">
        <ele>1358.4</ele>
        <time>2020-08-23T10:57:25Z</time>
      </trkpt>
      <trkpt lat="45.08221" lon="5.59712">
        <ele>1358.4</ele>
        <time>2020-08-23T10:57:26Z</time>
      </trkpt>
      <trkpt lat="45.08222" lon="5.59713">
        <ele>1358.6</ele>
        <time>2020-08-23T10:57:27Z</time>
      </trkpt>
      <trkpt lat="45.08224" lon="5.59715">
        <ele>1358.6</ele>
        <time>2020-08-23T10:57:28Z</time>
      </trkpt>
      <trkpt lat="45.08225" lon="5.59716">
        <ele>1358.6</ele>
        <time>2020-08-23T10:57:29Z</time>
      </trkpt>
      <trkpt lat="45.08227" lon="5.59718">
        <ele>1358.6</ele>
        <time>2020-08-23T10:57:30Z</time>
      </trkpt>
      <trkpt lat="45.08228" lon="5.59719">
        <ele>1358.6</ele>
        <time>2020-08-23T10:57:31Z</time>
      </trkpt>
      <trkpt lat="45.0823" lon="5.59721">
        <ele>1358.8</ele>
        <time>2020-08-23T10:57:32Z</time>
      </trkpt>
      <trkpt lat="45.08231" lon="5.59722">
        <ele>1358.8</ele>
        <time>2020-08-23T10:57:33Z</time>
      </trkpt>
      <trkpt lat="45.08233" lon="5.59724">
        <ele>1358.8</ele>
        <time>2020-08-23T10:57:34Z</time>
      </trkpt>
      <trkpt lat="45.08233" lon="5.59726">
        <ele>1359</ele>
        <time>2020-08-23T10:57:35Z</time>
      </trkpt>
      <trkpt lat="45.08234" lon="5.59728">
        <ele>1359</ele>
        <time>2020-08-23T10:57:36Z</time>
      </trkpt>
      <trkpt lat="45.08236" lon="5.5973">
        <ele>1359</ele>
        <time>2020-08-23T10:57:37Z</time>
      </trkpt>
      <trkpt lat="45.08237" lon="5.59732">
        <ele>1359.2</ele>
        <time>2020-08-23T10:57:38Z</time>
      </trkpt>
      <trkpt lat="45.08238" lon="5.59734">
        <ele>1359.2</ele>
        <time>2020-08-23T10:57:39Z</time>
      </trkpt>
      <trkpt lat="45.0824" lon="5.59736">
        <ele>1359.2</ele>
        <time>2020-08-23T10:57:40Z</time>
      </trkpt>
      <trkpt lat="45.08241" lon="5.59737">
        <ele>1359.4</ele>
        <time>2020-08-23T10:57:41Z</time>
      </trkpt>
      <trkpt lat="45.08243" lon="5.59739">
        <ele>1359.4</ele>
        <time>2020-08-23T10:57:42Z</time>
      </trkpt>
      <trkpt lat="45.08244" lon="5.5974">
        <ele>1359.4</ele>
        <time>2020-08-23T10:57:43Z</time>
      </trkpt>
      <trkpt lat="45.08246" lon="5.59742">
        <ele>1359.4</ele>
        <time>2020-08-23T10:57:44Z</time>
      </trkpt>
      <trkpt lat="45.08247" lon="5.59744">
        <ele>1359.6</ele>
        <time>2020-08-23T10:57:45Z</time>
      </trkpt>
      <trkpt lat="45.08248" lon="5.59745">
        <ele>1359.6</ele>
        <time>2020-08-23T10:57:46Z</time>
      </trkpt>
      <trkpt lat="45.08249" lon="5.59746">
        <ele>1359.6</ele>
        <time>2020-08-23T10:57:47Z</time>
      </trkpt>
      <trkpt lat="45.0825" lon="5.59748">
        <ele>1359.8</ele>
        <time>2020-08-23T10:57:48Z</time>
      </trkpt>
      <trkpt lat="45.08251" lon="5.59749">
        <ele>1359.8</ele>
        <time>2020-08-23T10:57:49Z</time>
      </trkpt>
      <trkpt lat="45.08252" lon="5.5975">
        <ele>1360</ele>
        <time>2020-08-23T10:57:50Z</time>
      </trkpt>
      <trkpt lat="45.08253" lon="5.59751">
        <ele>1360</ele>
        <time>2020-08-23T10:57:51Z</time>
      </trkpt>
      <trkpt lat="45.08254" lon="5.59753">
        <ele>1360.2</ele>
        <time>2020-08-23T10:57:52Z</time>
      </trkpt>
      <trkpt lat="45.08255" lon="5.59754">
        <ele>1360.4</ele>
        <time>2020-08-23T10:57:53Z</time>
      </trkpt>
      <trkpt lat="45.08256" lon="5.59755">
        <ele>1360.6</ele>
        <time>2020-08-23T10:57:54Z</time>
      </trkpt>
      <trkpt lat="45.08257" lon="5.59755">
        <ele>1360.6</ele>
        <time>2020-08-23T10:57:55Z</time>
      </trkpt>
      <trkpt lat="45.08258" lon="5.59757">
        <ele>1360.8</ele>
        <time>2020-08-23T10:57:56Z</time>
      </trkpt>
      <trkpt lat="45.08259" lon="5.59758">
        <ele>1361</ele>
        <time>2020-08-23T10:57:57Z</time>
      </trkpt>
      <trkpt lat="45.0826" lon="5.59759">
        <ele>1361</ele>
        <time>2020-08-23T10:57:58Z</time>
      </trkpt>
      <trkpt lat="45.0826" lon="5.59761">
        <ele>1361.2</ele>
        <time>2020-08-23T10:57:59Z</time>
      </trkpt>
      <trkpt lat="45.08261" lon="5.59762">
        <ele>1361.2</ele>
        <time>2020-08-23T10:58:00Z</time>
      </trkpt>
      <trkpt lat="45.08262" lon="5.59763">
        <ele>1361.2</ele>
        <time>2020-08-23T10:58:01Z</time>
      </trkpt>
      <trkpt lat="45.08263" lon="5.59764">
        <ele>1361.4</ele>
        <time>2020-08-23T10:58:02Z</time>
      </trkpt>
      <trkpt lat="45.08264" lon="5.59765">
        <ele>1361.4</ele>
        <time>2020-08-23T10:58:03Z</time>
      </trkpt>
      <trkpt lat="45.08265" lon="5.59766">
        <ele>1361.6</ele>
        <time>2020-08-23T10:58:04Z</time>
      </trkpt>
      <trkpt lat="45.08266" lon="5.59767">
        <ele>1361.6</ele>
        <time>2020-08-23T10:58:05Z</time>
      </trkpt>
      <trkpt lat="45.08267" lon="5.59768">
        <ele>1361.8</ele>
        <time>2020-08-23T10:58:06Z</time>
      </trkpt>
      <trkpt lat="45.08268" lon="5.59769">
        <ele>1361.8</ele>
        <time>2020-08-23T10:58:07Z</time>
      </trkpt>
      <trkpt lat="45.08268" lon="5.59771">
        <ele>1362</ele>
        <time>2020-08-23T10:58:08Z</time>
      </trkpt>
      <trkpt lat="45.08269" lon="5.59772">
        <ele>1362.2</ele>
        <time>2020-08-23T10:58:09Z</time>
      </trkpt>
      <trkpt lat="45.0827" lon="5.59774">
        <ele>1362.4</ele>
        <time>2020-08-23T10:58:10Z</time>
      </trkpt>
      <trkpt lat="45.0827" lon="5.59775">
        <ele>1362.4</ele>
        <time>2020-08-23T10:58:11Z</time>
      </trkpt>
      <trkpt lat="45.0827" lon="5.59777">
        <ele>1362.6</ele>
        <time>2020-08-23T10:58:12Z</time>
      </trkpt>
      <trkpt lat="45.08271" lon="5.59779">
        <ele>1362.6</ele>
        <time>2020-08-23T10:58:13Z</time>
      </trkpt>
      <trkpt lat="45.08271" lon="5.5978">
        <ele>1362.8</ele>
        <time>2020-08-23T10:58:14Z</time>
      </trkpt>
      <trkpt lat="45.08272" lon="5.59781">
        <ele>1362.8</ele>
        <time>2020-08-23T10:58:15Z</time>
      </trkpt>
      <trkpt lat="45.08273" lon="5.59782">
        <ele>1363</ele>
        <time>2020-08-23T10:58:16Z</time>
      </trkpt>
      <trkpt lat="45.08275" lon="5.59782">
        <ele>1363</ele>
        <time>2020-08-23T10:58:17Z</time>
      </trkpt>
      <trkpt lat="45.08276" lon="5.59783">
        <ele>1363.2</ele>
        <time>2020-08-23T10:58:18Z</time>
      </trkpt>
      <trkpt lat="45.08276" lon="5.59784">
        <ele>1363.4</ele>
        <time>2020-08-23T10:58:19Z</time>
      </trkpt>
      <trkpt lat="45.08277" lon="5.59785">
        <ele>1363.4</ele>
        <time>2020-08-23T10:58:20Z</time>
      </trkpt>
      <trkpt lat="45.08278" lon="5.59787">
        <ele>1363.6</ele>
        <time>2020-08-23T10:58:21Z</time>
      </trkpt>
      <trkpt lat="45.08278" lon="5.59788">
        <ele>1363.8</ele>
        <time>2020-08-23T10:58:22Z</time>
      </trkpt>
      <trkpt lat="45.08279" lon="5.59789">
        <ele>1364</ele>
        <time>2020-08-23T10:58:23Z</time>
      </trkpt>
      <trkpt lat="45.0828" lon="5.5979">
        <ele>1364</ele>
        <time>2020-08-23T10:58:24Z</time>
      </trkpt>
      <trkpt lat="45.08281" lon="5.59791">
        <ele>1364.2</ele>
        <time>2020-08-23T10:58:25Z</time>
      </trkpt>
      <trkpt lat="45.08282" lon="5.59792">
        <ele>1364.4</ele>
        <time>2020-08-23T10:58:26Z</time>
      </trkpt>
      <trkpt lat="45.08283" lon="5.59793">
        <ele>1364.4</ele>
        <time>2020-08-23T10:58:27Z</time>
      </trkpt>
      <trkpt lat="45.08283" lon="5.59794">
        <ele>1364.6</ele>
        <time>2020-08-23T10:58:28Z</time>
      </trkpt>
      <trkpt lat="45.08284" lon="5.59796">
        <ele>1364.8</ele>
        <time>2020-08-23T10:58:29Z</time>
      </trkpt>
      <trkpt lat="45.08284" lon="5.59797">
        <ele>1364.8</ele>
        <time>2020-08-23T10:58:30Z</time>
      </trkpt>
      <trkpt lat="45.08285" lon="5.59798">
        <ele>1365</ele>
        <time>2020-08-23T10:58:31Z</time>
      </trkpt>
      <trkpt lat="45.08286" lon="5.59799">
        <ele>1365.2</ele>
        <time>2020-08-23T10:58:32Z</time>
      </trkpt>
      <trkpt lat="45.08287" lon="5.598">
        <ele>1365.2</ele>
        <time>2020-08-23T10:58:33Z</time>
      </trkpt>
      <trkpt lat="45.08288" lon="5.59801">
        <ele>1365.4</ele>
        <time>2020-08-23T10:58:34Z</time>
      </trkpt>
      <trkpt lat="45.08289" lon="5.59802">
        <ele>1365.6</ele>
        <time>2020-08-23T10:58:35Z</time>
      </trkpt>
      <trkpt lat="45.0829" lon="5.59803">
        <ele>1365.6</ele>
        <time>2020-08-23T10:58:36Z</time>
      </trkpt>
      <trkpt lat="45.08291" lon="5.59804">
        <ele>1365.8</ele>
        <time>2020-08-23T10:58:37Z</time>
      </trkpt>
      <trkpt lat="45.08292" lon="5.59805">
        <ele>1366</ele>
        <time>2020-08-23T10:58:38Z</time>
      </trkpt>
      <trkpt lat="45.08292" lon="5.59806">
        <ele>1366.2</ele>
        <time>2020-08-23T10:58:39Z</time>
      </trkpt>
      <trkpt lat="45.08294" lon="5.59807">
        <ele>1366.4</ele>
        <time>2020-08-23T10:58:40Z</time>
      </trkpt>
      <trkpt lat="45.08294" lon="5.59807">
        <ele>1366.6</ele>
        <time>2020-08-23T10:58:41Z</time>
      </trkpt>
      <trkpt lat="45.08295" lon="5.59808">
        <ele>1366.8</ele>
        <time>2020-08-23T10:58:42Z</time>
      </trkpt>
      <trkpt lat="45.08296" lon="5.59809">
        <ele>1366.8</ele>
        <time>2020-08-23T10:58:43Z</time>
      </trkpt>
      <trkpt lat="45.08297" lon="5.59809">
        <ele>1367</ele>
        <time>2020-08-23T10:58:44Z</time>
      </trkpt>
      <trkpt lat="45.08297" lon="5.59809">
        <ele>1367.2</ele>
        <time>2020-08-23T10:58:45Z</time>
      </trkpt>
      <trkpt lat="45.08298" lon="5.59809">
        <ele>1367.4</ele>
        <time>2020-08-23T10:58:46Z</time>
      </trkpt>
      <trkpt lat="45.08299" lon="5.5981">
        <ele>1367.6</ele>
        <time>2020-08-23T10:58:47Z</time>
      </trkpt>
      <trkpt lat="45.083" lon="5.5981">
        <ele>1367.8</ele>
        <time>2020-08-23T10:58:48Z</time>
      </trkpt>
      <trkpt lat="45.08301" lon="5.5981">
        <ele>1368</ele>
        <time>2020-08-23T10:58:49Z</time>
      </trkpt>
      <trkpt lat="45.08302" lon="5.59811">
        <ele>1368.2</ele>
        <time>2020-08-23T10:58:50Z</time>
      </trkpt>
      <trkpt lat="45.08303" lon="5.59811">
        <ele>1368.4</ele>
        <time>2020-08-23T10:58:51Z</time>
      </trkpt>
      <trkpt lat="45.08304" lon="5.59812">
        <ele>1368.6</ele>
        <time>2020-08-23T10:58:52Z</time>
      </trkpt>
      <trkpt lat="45.08305" lon="5.59812">
        <ele>1368.8</ele>
        <time>2020-08-23T10:58:53Z</time>
      </trkpt>
      <trkpt lat="45.08305" lon="5.59813">
        <ele>1369</ele>
        <time>2020-08-23T10:58:54Z</time>
      </trkpt>
      <trkpt lat="45.08306" lon="5.59813">
        <ele>1369.2</ele>
        <time>2020-08-23T10:58:55Z</time>
      </trkpt>
      <trkpt lat="45.08307" lon="5.59813">
        <ele>1369.4</ele>
        <time>2020-08-23T10:58:56Z</time>
      </trkpt>
      <trkpt lat="45.08308" lon="5.59813">
        <ele>1369.6</ele>
        <time>2020-08-23T10:58:57Z</time>
      </trkpt>
      <trkpt lat="45.08308" lon="5.59814">
        <ele>1369.8</ele>
        <time>2020-08-23T10:58:58Z</time>
      </trkpt>
      <trkpt lat="45.08308" lon="5.59814">
        <ele>1370</ele>
        <time>2020-08-23T10:58:59Z</time>
      </trkpt>
      <trkpt lat="45.08309" lon="5.59813">
        <ele>1370.2</ele>
        <time>2020-08-23T10:59:00Z</time>
      </trkpt>
      <trkpt lat="45.08309" lon="5.59813">
        <ele>1370.4</ele>
        <time>2020-08-23T10:59:01Z</time>
      </trkpt>
      <trkpt lat="45.08309" lon="5.59813">
        <ele>1370.6</ele>
        <time>2020-08-23T10:59:02Z</time>
      </trkpt>
      <trkpt lat="45.08309" lon="5.59813">
        <ele>1370.8</ele>
        <time>2020-08-23T10:59:03Z</time>
      </trkpt>
      <trkpt lat="45.08309" lon="5.59813">
        <ele>1371</ele>
        <time>2020-08-23T10:59:04Z</time>
      </trkpt>
      <trkpt lat="45.08309" lon="5.59813">
        <ele>1371</ele>
        <time>2020-08-23T10:59:05Z</time>
      </trkpt>
      <trkpt lat="45.08309" lon="5.59813">
        <ele>1371.2</ele>
        <time>2020-08-23T10:59:06Z</time>
      </trkpt>
      <trkpt lat="45.08309" lon="5.59813">
        <ele>1371.4</ele>
        <time>2020-08-23T10:59:07Z</time>
      </trkpt>
      <trkpt lat="45.08309" lon="5.59813">
        <ele>1371.6</ele>
        <time>2020-08-23T10:59:08Z</time>
      </trkpt>
      <trkpt lat="45.0831" lon="5.59814">
        <ele>1372</ele>
        <time>2020-08-23T10:59:10Z</time>
      </trkpt>
      <trkpt lat="45.0831" lon="5.59814">
        <ele>1372.2</ele>
        <time>2020-08-23T10:59:11Z</time>
      </trkpt>
      <trkpt lat="45.08311" lon="5.59814">
        <ele>1372.2</ele>
        <time>2020-08-23T10:59:12Z</time>
      </trkpt>
      <trkpt lat="45.08311" lon="5.59814">
        <ele>1372.4</ele>
        <time>2020-08-23T10:59:13Z</time>
      </trkpt>
      <trkpt lat="45.08311" lon="5.59814">
        <ele>1372.4</ele>
        <time>2020-08-23T10:59:14Z</time>
      </trkpt>
      <trkpt lat="45.08311" lon="5.59814">
        <ele>1372.6</ele>
        <time>2020-08-23T10:59:15Z</time>
      </trkpt>
      <trkpt lat="45.08311" lon="5.59814">
        <ele>1373</ele>
        <time>2020-08-23T10:59:41Z</time>
      </trkpt>
      <trkpt lat="45.08312" lon="5.59812">
        <ele>1373.2</ele>
        <time>2020-08-23T10:59:42Z</time>
      </trkpt>
      <trkpt lat="45.08313" lon="5.59812">
        <ele>1373</ele>
        <time>2020-08-23T10:59:43Z</time>
      </trkpt>
      <trkpt lat="45.08313" lon="5.59812">
        <ele>1373</ele>
        <time>2020-08-23T10:59:44Z</time>
      </trkpt>
      <trkpt lat="45.08313" lon="5.59812">
        <ele>1373.2</ele>
        <time>2020-08-23T10:59:45Z</time>
      </trkpt>
      <trkpt lat="45.08313" lon="5.59812">
        <ele>1373.2</ele>
        <time>2020-08-23T10:59:46Z</time>
      </trkpt>
      <trkpt lat="45.08313" lon="5.59812">
        <ele>1373.2</ele>
        <time>2020-08-23T10:59:47Z</time>
      </trkpt>
      <trkpt lat="45.08313" lon="5.59812">
        <ele>1373.4</ele>
        <time>2020-08-23T10:59:48Z</time>
      </trkpt>
      <trkpt lat="45.08314" lon="5.59811">
        <ele>1373.8</ele>
        <time>2020-08-23T10:59:53Z</time>
      </trkpt>
      <trkpt lat="45.08315" lon="5.5981">
        <ele>1373.8</ele>
        <time>2020-08-23T10:59:54Z</time>
      </trkpt>
      <trkpt lat="45.08316" lon="5.59809">
        <ele>1373.8</ele>
        <time>2020-08-23T10:59:55Z</time>
      </trkpt>
      <trkpt lat="45.08318" lon="5.59808">
        <ele>1374</ele>
        <time>2020-08-23T10:59:56Z</time>
      </trkpt>
      <trkpt lat="45.08318" lon="5.59808">
        <ele>1374</ele>
        <time>2020-08-23T10:59:57Z</time>
      </trkpt>
      <trkpt lat="45.08319" lon="5.59807">
        <ele>1374</ele>
        <time>2020-08-23T10:59:58Z</time>
      </trkpt>
      <trkpt lat="45.08321" lon="5.59806">
        <ele>1374.2</ele>
        <time>2020-08-23T10:59:59Z</time>
      </trkpt>
      <trkpt lat="45.08322" lon="5.59806">
        <ele>1374.2</ele>
        <time>2020-08-23T11:00:00Z</time>
      </trkpt>
      <trkpt lat="45.08323" lon="5.59805">
        <ele>1374.4</ele>
        <time>2020-08-23T11:00:01Z</time>
      </trkpt>
      <trkpt lat="45.08324" lon="5.59804">
        <ele>1374.4</ele>
        <time>2020-08-23T11:00:02Z</time>
      </trkpt>
      <trkpt lat="45.08326" lon="5.59803">
        <ele>1374.6</ele>
        <time>2020-08-23T11:00:03Z</time>
      </trkpt>
      <trkpt lat="45.08327" lon="5.59803">
        <ele>1374.8</ele>
        <time>2020-08-23T11:00:04Z</time>
      </trkpt>
      <trkpt lat="45.08329" lon="5.59802">
        <ele>1375</ele>
        <time>2020-08-23T11:00:05Z</time>
      </trkpt>
      <trkpt lat="45.0833" lon="5.59801">
        <ele>1375.2</ele>
        <time>2020-08-23T11:00:06Z</time>
      </trkpt>
      <trkpt lat="45.08332" lon="5.598">
        <ele>1375.4</ele>
        <time>2020-08-23T11:00:07Z</time>
      </trkpt>
      <trkpt lat="45.08333" lon="5.59799">
        <ele>1375.6</ele>
        <time>2020-08-23T11:00:08Z</time>
      </trkpt>
      <trkpt lat="45.08334" lon="5.59798">
        <ele>1375.8</ele>
        <time>2020-08-23T11:00:09Z</time>
      </trkpt>
      <trkpt lat="45.08336" lon="5.59797">
        <ele>1376</ele>
        <time>2020-08-23T11:00:10Z</time>
      </trkpt>
      <trkpt lat="45.08337" lon="5.59796">
        <ele>1376.2</ele>
        <time>2020-08-23T11:00:11Z</time>
      </trkpt>
      <trkpt lat="45.08339" lon="5.59795">
        <ele>1376.4</ele>
        <time>2020-08-23T11:00:12Z</time>
      </trkpt>
      <trkpt lat="45.08341" lon="5.59794">
        <ele>1376.6</ele>
        <time>2020-08-23T11:00:13Z</time>
      </trkpt>
      <trkpt lat="45.08343" lon="5.59793">
        <ele>1377</ele>
        <time>2020-08-23T11:00:14Z</time>
      </trkpt>
      <trkpt lat="45.08344" lon="5.59792">
        <ele>1377.2</ele>
        <time>2020-08-23T11:00:15Z</time>
      </trkpt>
      <trkpt lat="45.08346" lon="5.59791">
        <ele>1377.4</ele>
        <time>2020-08-23T11:00:16Z</time>
      </trkpt>
      <trkpt lat="45.08347" lon="5.59791">
        <ele>1377.6</ele>
        <time>2020-08-23T11:00:17Z</time>
      </trkpt>
      <trkpt lat="45.08349" lon="5.5979">
        <ele>1377.8</ele>
        <time>2020-08-23T11:00:18Z</time>
      </trkpt>
      <trkpt lat="45.0835" lon="5.59789">
        <ele>1378</ele>
        <time>2020-08-23T11:00:19Z</time>
      </trkpt>
      <trkpt lat="45.08351" lon="5.59788">
        <ele>1378.2</ele>
        <time>2020-08-23T11:00:20Z</time>
      </trkpt>
      <trkpt lat="45.08352" lon="5.59787">
        <ele>1378.4</ele>
        <time>2020-08-23T11:00:21Z</time>
      </trkpt>
      <trkpt lat="45.08354" lon="5.59787">
        <ele>1378.8</ele>
        <time>2020-08-23T11:00:22Z</time>
      </trkpt>
      <trkpt lat="45.08355" lon="5.59787">
        <ele>1378.8</ele>
        <time>2020-08-23T11:00:23Z</time>
      </trkpt>
      <trkpt lat="45.08356" lon="5.59786">
        <ele>1379</ele>
        <time>2020-08-23T11:00:24Z</time>
      </trkpt>
      <trkpt lat="45.08358" lon="5.59785">
        <ele>1379.2</ele>
        <time>2020-08-23T11:00:25Z</time>
      </trkpt>
      <trkpt lat="45.08359" lon="5.59784">
        <ele>1379.4</ele>
        <time>2020-08-23T11:00:26Z</time>
      </trkpt>
      <trkpt lat="45.0836" lon="5.59783">
        <ele>1379.6</ele>
        <time>2020-08-23T11:00:27Z</time>
      </trkpt>
      <trkpt lat="45.08362" lon="5.59783">
        <ele>1379.6</ele>
        <time>2020-08-23T11:00:28Z</time>
      </trkpt>
      <trkpt lat="45.08364" lon="5.59782">
        <ele>1379.8</ele>
        <time>2020-08-23T11:00:29Z</time>
      </trkpt>
      <trkpt lat="45.08366" lon="5.59781">
        <ele>1380</ele>
        <time>2020-08-23T11:00:30Z</time>
      </trkpt>
      <trkpt lat="45.08367" lon="5.5978">
        <ele>1380.2</ele>
        <time>2020-08-23T11:00:31Z</time>
      </trkpt>
      <trkpt lat="45.08369" lon="5.59779">
        <ele>1380.4</ele>
        <time>2020-08-23T11:00:32Z</time>
      </trkpt>
      <trkpt lat="45.0837" lon="5.59778">
        <ele>1380.6</ele>
        <time>2020-08-23T11:00:33Z</time>
      </trkpt>
      <trkpt lat="45.08371" lon="5.59778">
        <ele>1380.8</ele>
        <time>2020-08-23T11:00:34Z</time>
      </trkpt>
      <trkpt lat="45.08372" lon="5.59777">
        <ele>1381</ele>
        <time>2020-08-23T11:00:35Z</time>
      </trkpt>
      <trkpt lat="45.08373" lon="5.59776">
        <ele>1381.2</ele>
        <time>2020-08-23T11:00:36Z</time>
      </trkpt>
      <trkpt lat="45.08374" lon="5.59776">
        <ele>1381.4</ele>
        <time>2020-08-23T11:00:37Z</time>
      </trkpt>
      <trkpt lat="45.08376" lon="5.59775">
        <ele>1381.6</ele>
        <time>2020-08-23T11:00:38Z</time>
      </trkpt>
      <trkpt lat="45.08377" lon="5.59774">
        <ele>1381.6</ele>
        <time>2020-08-23T11:00:39Z</time>
      </trkpt>
      <trkpt lat="45.08378" lon="5.59774">
        <ele>1381.8</ele>
        <time>2020-08-23T11:00:40Z</time>
      </trkpt>
      <trkpt lat="45.08379" lon="5.59773">
        <ele>1382</ele>
        <time>2020-08-23T11:00:41Z</time>
      </trkpt>
      <trkpt lat="45.08381" lon="5.59773">
        <ele>1382.2</ele>
        <time>2020-08-23T11:00:42Z</time>
      </trkpt>
      <trkpt lat="45.08381" lon="5.59772">
        <ele>1382.4</ele>
        <time>2020-08-23T11:00:43Z</time>
      </trkpt>
      <trkpt lat="45.08383" lon="5.59772">
        <ele>1382.8</ele>
        <time>2020-08-23T11:00:44Z</time>
      </trkpt>
      <trkpt lat="45.08384" lon="5.59771">
        <ele>1383</ele>
        <time>2020-08-23T11:00:45Z</time>
      </trkpt>
      <trkpt lat="45.08386" lon="5.59771">
        <ele>1383.2</ele>
        <time>2020-08-23T11:00:46Z</time>
      </trkpt>
      <trkpt lat="45.08387" lon="5.5977">
        <ele>1383.4</ele>
        <time>2020-08-23T11:00:47Z</time>
      </trkpt>
      <trkpt lat="45.08388" lon="5.5977">
        <ele>1383.6</ele>
        <time>2020-08-23T11:00:48Z</time>
      </trkpt>
      <trkpt lat="45.08389" lon="5.59769">
        <ele>1384</ele>
        <time>2020-08-23T11:00:49Z</time>
      </trkpt>
      <trkpt lat="45.0839" lon="5.59768">
        <ele>1384.2</ele>
        <time>2020-08-23T11:00:50Z</time>
      </trkpt>
      <trkpt lat="45.08391" lon="5.59767">
        <ele>1384.2</ele>
        <time>2020-08-23T11:00:51Z</time>
      </trkpt>
      <trkpt lat="45.08392" lon="5.59767">
        <ele>1384.4</ele>
        <time>2020-08-23T11:00:52Z</time>
      </trkpt>
      <trkpt lat="45.08392" lon="5.59766">
        <ele>1384.6</ele>
        <time>2020-08-23T11:00:53Z</time>
      </trkpt>
      <trkpt lat="45.08393" lon="5.59766">
        <ele>1384.8</ele>
        <time>2020-08-23T11:00:54Z</time>
      </trkpt>
      <trkpt lat="45.08395" lon="5.59767">
        <ele>1385</ele>
        <time>2020-08-23T11:00:55Z</time>
      </trkpt>
      <trkpt lat="45.08396" lon="5.59766">
        <ele>1385.2</ele>
        <time>2020-08-23T11:00:56Z</time>
      </trkpt>
      <trkpt lat="45.08397" lon="5.59766">
        <ele>1385.6</ele>
        <time>2020-08-23T11:00:57Z</time>
      </trkpt>
      <trkpt lat="45.08399" lon="5.59766">
        <ele>1385.8</ele>
        <time>2020-08-23T11:00:58Z</time>
      </trkpt>
      <trkpt lat="45.084" lon="5.59766">
        <ele>1386</ele>
        <time>2020-08-23T11:00:59Z</time>
      </trkpt>
      <trkpt lat="45.08402" lon="5.59766">
        <ele>1386.2</ele>
        <time>2020-08-23T11:01:00Z</time>
      </trkpt>
      <trkpt lat="45.08403" lon="5.59767">
        <ele>1386.2</ele>
        <time>2020-08-23T11:01:01Z</time>
      </trkpt>
      <trkpt lat="45.08404" lon="5.59767">
        <ele>1386.4</ele>
        <time>2020-08-23T11:01:02Z</time>
      </trkpt>
      <trkpt lat="45.08405" lon="5.59767">
        <ele>1386.6</ele>
        <time>2020-08-23T11:01:03Z</time>
      </trkpt>
      <trkpt lat="45.08406" lon="5.59767">
        <ele>1386.8</ele>
        <time>2020-08-23T11:01:04Z</time>
      </trkpt>
      <trkpt lat="45.08407" lon="5.59767">
        <ele>1387.2</ele>
        <time>2020-08-23T11:01:05Z</time>
      </trkpt>
      <trkpt lat="45.08408" lon="5.59767">
        <ele>1387.4</ele>
        <time>2020-08-23T11:01:06Z</time>
      </trkpt>
      <trkpt lat="45.08409" lon="5.59767">
        <ele>1387.6</ele>
        <time>2020-08-23T11:01:07Z</time>
      </trkpt>
      <trkpt lat="45.08411" lon="5.59767">
        <ele>1387.8</ele>
        <time>2020-08-23T11:01:08Z</time>
      </trkpt>
      <trkpt lat="45.08412" lon="5.59767">
        <ele>1388</ele>
        <time>2020-08-23T11:01:09Z</time>
      </trkpt>
      <trkpt lat="45.08414" lon="5.59767">
        <ele>1388.2</ele>
        <time>2020-08-23T11:01:10Z</time>
      </trkpt>
      <trkpt lat="45.08415" lon="5.59767">
        <ele>1388.2</ele>
        <time>2020-08-23T11:01:11Z</time>
      </trkpt>
      <trkpt lat="45.08416" lon="5.59767">
        <ele>1388.4</ele>
        <time>2020-08-23T11:01:12Z</time>
      </trkpt>
      <trkpt lat="45.08418" lon="5.59767">
        <ele>1388.6</ele>
        <time>2020-08-23T11:01:13Z</time>
      </trkpt>
      <trkpt lat="45.08419" lon="5.59768">
        <ele>1388.8</ele>
        <time>2020-08-23T11:01:14Z</time>
      </trkpt>
      <trkpt lat="45.0842" lon="5.59768">
        <ele>1389</ele>
        <time>2020-08-23T11:01:15Z</time>
      </trkpt>
      <trkpt lat="45.08421" lon="5.59768">
        <ele>1389.2</ele>
        <time>2020-08-23T11:01:16Z</time>
      </trkpt>
      <trkpt lat="45.08422" lon="5.59769">
        <ele>1389.2</ele>
        <time>2020-08-23T11:01:17Z</time>
      </trkpt>
      <trkpt lat="45.08424" lon="5.59769">
        <ele>1389.4</ele>
        <time>2020-08-23T11:01:18Z</time>
      </trkpt>
      <trkpt lat="45.08425" lon="5.59769">
        <ele>1389.6</ele>
        <time>2020-08-23T11:01:19Z</time>
      </trkpt>
      <trkpt lat="45.08426" lon="5.5977">
        <ele>1389.8</ele>
        <time>2020-08-23T11:01:20Z</time>
      </trkpt>
      <trkpt lat="45.08428" lon="5.5977">
        <ele>1390</ele>
        <time>2020-08-23T11:01:21Z</time>
      </trkpt>
      <trkpt lat="45.08429" lon="5.59771">
        <ele>1390.2</ele>
        <time>2020-08-23T11:01:22Z</time>
      </trkpt>
      <trkpt lat="45.08431" lon="5.59771">
        <ele>1390.4</ele>
        <time>2020-08-23T11:01:23Z</time>
      </trkpt>
      <trkpt lat="45.08432" lon="5.59771">
        <ele>1390.6</ele>
        <time>2020-08-23T11:01:24Z</time>
      </trkpt>
      <trkpt lat="45.08434" lon="5.59772">
        <ele>1390.8</ele>
        <time>2020-08-23T11:01:25Z</time>
      </trkpt>
      <trkpt lat="45.08435" lon="5.59772">
        <ele>1391</ele>
        <time>2020-08-23T11:01:26Z</time>
      </trkpt>
      <trkpt lat="45.08436" lon="5.59772">
        <ele>1391.2</ele>
        <time>2020-08-23T11:01:27Z</time>
      </trkpt>
      <trkpt lat="45.08437" lon="5.59773">
        <ele>1391.4</ele>
        <time>2020-08-23T11:01:28Z</time>
      </trkpt>
      <trkpt lat="45.08438" lon="5.59772">
        <ele>1391.6</ele>
        <time>2020-08-23T11:01:29Z</time>
      </trkpt>
      <trkpt lat="45.08439" lon="5.59773">
        <ele>1391.8</ele>
        <time>2020-08-23T11:01:30Z</time>
      </trkpt>
      <trkpt lat="45.0844" lon="5.59773">
        <ele>1392</ele>
        <time>2020-08-23T11:01:31Z</time>
      </trkpt>
      <trkpt lat="45.0844" lon="5.59773">
        <ele>1392.2</ele>
        <time>2020-08-23T11:01:32Z</time>
      </trkpt>
      <trkpt lat="45.08442" lon="5.59772">
        <ele>1392.4</ele>
        <time>2020-08-23T11:01:33Z</time>
      </trkpt>
      <trkpt lat="45.08442" lon="5.59772">
        <ele>1392.6</ele>
        <time>2020-08-23T11:01:34Z</time>
      </trkpt>
      <trkpt lat="45.08443" lon="5.59772">
        <ele>1392.8</ele>
        <time>2020-08-23T11:01:35Z</time>
      </trkpt>
      <trkpt lat="45.08445" lon="5.59772">
        <ele>1393</ele>
        <time>2020-08-23T11:01:36Z</time>
      </trkpt>
      <trkpt lat="45.08446" lon="5.59771">
        <ele>1393.2</ele>
        <time>2020-08-23T11:01:37Z</time>
      </trkpt>
      <trkpt lat="45.08448" lon="5.59771">
        <ele>1393.4</ele>
        <time>2020-08-23T11:01:38Z</time>
      </trkpt>
      <trkpt lat="45.0845" lon="5.59771">
        <ele>1393.6</ele>
        <time>2020-08-23T11:01:39Z</time>
      </trkpt>
      <trkpt lat="45.08452" lon="5.5977">
        <ele>1393.8</ele>
        <time>2020-08-23T11:01:40Z</time>
      </trkpt>
      <trkpt lat="45.08453" lon="5.59769">
        <ele>1394</ele>
        <time>2020-08-23T11:01:41Z</time>
      </trkpt>
      <trkpt lat="45.08454" lon="5.59768">
        <ele>1394.2</ele>
        <time>2020-08-23T11:01:42Z</time>
      </trkpt>
      <trkpt lat="45.08455" lon="5.59767">
        <ele>1394.4</ele>
        <time>2020-08-23T11:01:43Z</time>
      </trkpt>
      <trkpt lat="45.08457" lon="5.59766">
        <ele>1394.6</ele>
        <time>2020-08-23T11:01:44Z</time>
      </trkpt>
      <trkpt lat="45.08458" lon="5.59765">
        <ele>1394.8</ele>
        <time>2020-08-23T11:01:45Z</time>
      </trkpt>
      <trkpt lat="45.0846" lon="5.59764">
        <ele>1395</ele>
        <time>2020-08-23T11:01:46Z</time>
      </trkpt>
      <trkpt lat="45.08461" lon="5.59762">
        <ele>1395.2</ele>
        <time>2020-08-23T11:01:47Z</time>
      </trkpt>
      <trkpt lat="45.08463" lon="5.59761">
        <ele>1395.4</ele>
        <time>2020-08-23T11:01:48Z</time>
      </trkpt>
      <trkpt lat="45.08464" lon="5.59759">
        <ele>1395.6</ele>
        <time>2020-08-23T11:01:49Z</time>
      </trkpt>
      <trkpt lat="45.08465" lon="5.59757">
        <ele>1395.8</ele>
        <time>2020-08-23T11:01:50Z</time>
      </trkpt>
      <trkpt lat="45.08466" lon="5.59755">
        <ele>1396</ele>
        <time>2020-08-23T11:01:51Z</time>
      </trkpt>
      <trkpt lat="45.08467" lon="5.59754">
        <ele>1396.2</ele>
        <time>2020-08-23T11:01:52Z</time>
      </trkpt>
      <trkpt lat="45.08468" lon="5.59752">
        <ele>1396.4</ele>
        <time>2020-08-23T11:01:53Z</time>
      </trkpt>
      <trkpt lat="45.08469" lon="5.5975">
        <ele>1396.6</ele>
        <time>2020-08-23T11:01:54Z</time>
      </trkpt>
      <trkpt lat="45.0847" lon="5.59748">
        <ele>1396.8</ele>
        <time>2020-08-23T11:01:55Z</time>
      </trkpt>
      <trkpt lat="45.0847" lon="5.59747">
        <ele>1397.2</ele>
        <time>2020-08-23T11:01:56Z</time>
      </trkpt>
      <trkpt lat="45.08471" lon="5.59745">
        <ele>1397.4</ele>
        <time>2020-08-23T11:01:57Z</time>
      </trkpt>
      <trkpt lat="45.08472" lon="5.59744">
        <ele>1397.6</ele>
        <time>2020-08-23T11:01:58Z</time>
      </trkpt>
      <trkpt lat="45.08473" lon="5.59743">
        <ele>1397.8</ele>
        <time>2020-08-23T11:01:59Z</time>
      </trkpt>
      <trkpt lat="45.08474" lon="5.59742">
        <ele>1398</ele>
        <time>2020-08-23T11:02:00Z</time>
      </trkpt>
      <trkpt lat="45.08475" lon="5.5974">
        <ele>1398.4</ele>
        <time>2020-08-23T11:02:01Z</time>
      </trkpt>
      <trkpt lat="45.08476" lon="5.59739">
        <ele>1398.6</ele>
        <time>2020-08-23T11:02:02Z</time>
      </trkpt>
      <trkpt lat="45.08476" lon="5.59738">
        <ele>1398.8</ele>
        <time>2020-08-23T11:02:03Z</time>
      </trkpt>
      <trkpt lat="45.08477" lon="5.59737">
        <ele>1399</ele>
        <time>2020-08-23T11:02:04Z</time>
      </trkpt>
      <trkpt lat="45.08477" lon="5.59736">
        <ele>1399.2</ele>
        <time>2020-08-23T11:02:05Z</time>
      </trkpt>
      <trkpt lat="45.08477" lon="5.59734">
        <ele>1399.6</ele>
        <time>2020-08-23T11:02:06Z</time>
      </trkpt>
      <trkpt lat="45.08477" lon="5.59733">
        <ele>1399.8</ele>
        <time>2020-08-23T11:02:07Z</time>
      </trkpt>
      <trkpt lat="45.08478" lon="5.59731">
        <ele>1400</ele>
        <time>2020-08-23T11:02:08Z</time>
      </trkpt>
      <trkpt lat="45.08478" lon="5.5973">
        <ele>1400.2</ele>
        <time>2020-08-23T11:02:09Z</time>
      </trkpt>
      <trkpt lat="45.08479" lon="5.59728">
        <ele>1400.4</ele>
        <time>2020-08-23T11:02:10Z</time>
      </trkpt>
      <trkpt lat="45.08479" lon="5.59727">
        <ele>1400.6</ele>
        <time>2020-08-23T11:02:11Z</time>
      </trkpt>
      <trkpt lat="45.0848" lon="5.59725">
        <ele>1401</ele>
        <time>2020-08-23T11:02:12Z</time>
      </trkpt>
      <trkpt lat="45.08481" lon="5.59724">
        <ele>1401.2</ele>
        <time>2020-08-23T11:02:13Z</time>
      </trkpt>
      <trkpt lat="45.08481" lon="5.59722">
        <ele>1401.4</ele>
        <time>2020-08-23T11:02:14Z</time>
      </trkpt>
      <trkpt lat="45.08482" lon="5.59721">
        <ele>1401.6</ele>
        <time>2020-08-23T11:02:15Z</time>
      </trkpt>
      <trkpt lat="45.08483" lon="5.59719">
        <ele>1401.8</ele>
        <time>2020-08-23T11:02:16Z</time>
      </trkpt>
      <trkpt lat="45.08484" lon="5.59718">
        <ele>1402</ele>
        <time>2020-08-23T11:02:17Z</time>
      </trkpt>
      <trkpt lat="45.08485" lon="5.59718">
        <ele>1402.2</ele>
        <time>2020-08-23T11:02:18Z</time>
      </trkpt>
      <trkpt lat="45.08486" lon="5.59717">
        <ele>1402.4</ele>
        <time>2020-08-23T11:02:19Z</time>
      </trkpt>
      <trkpt lat="45.08487" lon="5.59717">
        <ele>1402.6</ele>
        <time>2020-08-23T11:02:20Z</time>
      </trkpt>
      <trkpt lat="45.08489" lon="5.59716">
        <ele>1402.8</ele>
        <time>2020-08-23T11:02:21Z</time>
      </trkpt>
      <trkpt lat="45.0849" lon="5.59716">
        <ele>1403</ele>
        <time>2020-08-23T11:02:22Z</time>
      </trkpt>
      <trkpt lat="45.08491" lon="5.59715">
        <ele>1403.2</ele>
        <time>2020-08-23T11:02:23Z</time>
      </trkpt>
      <trkpt lat="45.08492" lon="5.59714">
        <ele>1403.6</ele>
        <time>2020-08-23T11:02:24Z</time>
      </trkpt>
      <trkpt lat="45.08493" lon="5.59714">
        <ele>1403.8</ele>
        <time>2020-08-23T11:02:25Z</time>
      </trkpt>
      <trkpt lat="45.08495" lon="5.59712">
        <ele>1404</ele>
        <time>2020-08-23T11:02:26Z</time>
      </trkpt>
      <trkpt lat="45.08496" lon="5.59711">
        <ele>1404.2</ele>
        <time>2020-08-23T11:02:27Z</time>
      </trkpt>
      <trkpt lat="45.08497" lon="5.5971">
        <ele>1404.6</ele>
        <time>2020-08-23T11:02:28Z</time>
      </trkpt>
      <trkpt lat="45.08498" lon="5.59709">
        <ele>1404.6</ele>
        <time>2020-08-23T11:02:29Z</time>
      </trkpt>
      <trkpt lat="45.08499" lon="5.59708">
        <ele>1404.8</ele>
        <time>2020-08-23T11:02:30Z</time>
      </trkpt>
      <trkpt lat="45.085" lon="5.59707">
        <ele>1405</ele>
        <time>2020-08-23T11:02:31Z</time>
      </trkpt>
      <trkpt lat="45.08501" lon="5.59706">
        <ele>1405.2</ele>
        <time>2020-08-23T11:02:32Z</time>
      </trkpt>
      <trkpt lat="45.08503" lon="5.59705">
        <ele>1405.4</ele>
        <time>2020-08-23T11:02:33Z</time>
      </trkpt>
      <trkpt lat="45.08504" lon="5.59704">
        <ele>1405.6</ele>
        <time>2020-08-23T11:02:34Z</time>
      </trkpt>
      <trkpt lat="45.08505" lon="5.59703">
        <ele>1405.6</ele>
        <time>2020-08-23T11:02:35Z</time>
      </trkpt>
      <trkpt lat="45.08506" lon="5.59702">
        <ele>1405.8</ele>
        <time>2020-08-23T11:02:36Z</time>
      </trkpt>
      <trkpt lat="45.08507" lon="5.59701">
        <ele>1406</ele>
        <time>2020-08-23T11:02:37Z</time>
      </trkpt>
      <trkpt lat="45.08508" lon="5.59701">
        <ele>1406.2</ele>
        <time>2020-08-23T11:02:38Z</time>
      </trkpt>
      <trkpt lat="45.08509" lon="5.597">
        <ele>1406.4</ele>
        <time>2020-08-23T11:02:39Z</time>
      </trkpt>
      <trkpt lat="45.08511" lon="5.597">
        <ele>1406.6</ele>
        <time>2020-08-23T11:02:40Z</time>
      </trkpt>
      <trkpt lat="45.08512" lon="5.59699">
        <ele>1406.8</ele>
        <time>2020-08-23T11:02:41Z</time>
      </trkpt>
      <trkpt lat="45.08513" lon="5.59699">
        <ele>1407.2</ele>
        <time>2020-08-23T11:02:42Z</time>
      </trkpt>
      <trkpt lat="45.08514" lon="5.59699">
        <ele>1407.4</ele>
        <time>2020-08-23T11:02:43Z</time>
      </trkpt>
      <trkpt lat="45.08515" lon="5.59699">
        <ele>1407.4</ele>
        <time>2020-08-23T11:02:44Z</time>
      </trkpt>
      <trkpt lat="45.08516" lon="5.59699">
        <ele>1407.6</ele>
        <time>2020-08-23T11:02:45Z</time>
      </trkpt>
      <trkpt lat="45.08517" lon="5.59699">
        <ele>1407.8</ele>
        <time>2020-08-23T11:02:46Z</time>
      </trkpt>
      <trkpt lat="45.08518" lon="5.59698">
        <ele>1408</ele>
        <time>2020-08-23T11:02:47Z</time>
      </trkpt>
      <trkpt lat="45.08519" lon="5.59698">
        <ele>1408.2</ele>
        <time>2020-08-23T11:02:48Z</time>
      </trkpt>
      <trkpt lat="45.08519" lon="5.59698">
        <ele>1408.4</ele>
        <time>2020-08-23T11:02:49Z</time>
      </trkpt>
      <trkpt lat="45.08521" lon="5.59698">
        <ele>1408.6</ele>
        <time>2020-08-23T11:02:50Z</time>
      </trkpt>
      <trkpt lat="45.08522" lon="5.59698">
        <ele>1408.6</ele>
        <time>2020-08-23T11:02:51Z</time>
      </trkpt>
      <trkpt lat="45.08523" lon="5.59697">
        <ele>1408.8</ele>
        <time>2020-08-23T11:02:52Z</time>
      </trkpt>
      <trkpt lat="45.08524" lon="5.59697">
        <ele>1409</ele>
        <time>2020-08-23T11:02:53Z</time>
      </trkpt>
      <trkpt lat="45.08526" lon="5.59697">
        <ele>1409.2</ele>
        <time>2020-08-23T11:02:54Z</time>
      </trkpt>
      <trkpt lat="45.08527" lon="5.59697">
        <ele>1409.4</ele>
        <time>2020-08-23T11:02:55Z</time>
      </trkpt>
      <trkpt lat="45.08528" lon="5.59696">
        <ele>1409.6</ele>
        <time>2020-08-23T11:02:56Z</time>
      </trkpt>
      <trkpt lat="45.08529" lon="5.59696">
        <ele>1409.8</ele>
        <time>2020-08-23T11:02:57Z</time>
      </trkpt>
      <trkpt lat="45.0853" lon="5.59696">
        <ele>1409.8</ele>
        <time>2020-08-23T11:02:58Z</time>
      </trkpt>
      <trkpt lat="45.08532" lon="5.59695">
        <ele>1410</ele>
        <time>2020-08-23T11:02:59Z</time>
      </trkpt>
      <trkpt lat="45.08532" lon="5.59695">
        <ele>1410.2</ele>
        <time>2020-08-23T11:03:00Z</time>
      </trkpt>
      <trkpt lat="45.08533" lon="5.59695">
        <ele>1410.4</ele>
        <time>2020-08-23T11:03:01Z</time>
      </trkpt>
      <trkpt lat="45.08534" lon="5.59694">
        <ele>1410.6</ele>
        <time>2020-08-23T11:03:02Z</time>
      </trkpt>
      <trkpt lat="45.08535" lon="5.59694">
        <ele>1410.8</ele>
        <time>2020-08-23T11:03:03Z</time>
      </trkpt>
      <trkpt lat="45.08536" lon="5.59695">
        <ele>1410.8</ele>
        <time>2020-08-23T11:03:04Z</time>
      </trkpt>
      <trkpt lat="45.08537" lon="5.59694">
        <ele>1411</ele>
        <time>2020-08-23T11:03:05Z</time>
      </trkpt>
      <trkpt lat="45.08538" lon="5.59694">
        <ele>1411.2</ele>
        <time>2020-08-23T11:03:06Z</time>
      </trkpt>
      <trkpt lat="45.08538" lon="5.59693">
        <ele>1411.4</ele>
        <time>2020-08-23T11:03:07Z</time>
      </trkpt>
      <trkpt lat="45.08539" lon="5.59693">
        <ele>1411.6</ele>
        <time>2020-08-23T11:03:08Z</time>
      </trkpt>
      <trkpt lat="45.0854" lon="5.59693">
        <ele>1411.8</ele>
        <time>2020-08-23T11:03:09Z</time>
      </trkpt>
      <trkpt lat="45.08542" lon="5.59693">
        <ele>1411.8</ele>
        <time>2020-08-23T11:03:10Z</time>
      </trkpt>
      <trkpt lat="45.08543" lon="5.59692">
        <ele>1412</ele>
        <time>2020-08-23T11:03:11Z</time>
      </trkpt>
      <trkpt lat="45.08545" lon="5.59692">
        <ele>1412.2</ele>
        <time>2020-08-23T11:03:12Z</time>
      </trkpt>
      <trkpt lat="45.08546" lon="5.59691">
        <ele>1412.2</ele>
        <time>2020-08-23T11:03:13Z</time>
      </trkpt>
      <trkpt lat="45.08548" lon="5.59691">
        <ele>1412.4</ele>
        <time>2020-08-23T11:03:14Z</time>
      </trkpt>
      <trkpt lat="45.0855" lon="5.59691">
        <ele>1412.6</ele>
        <time>2020-08-23T11:03:15Z</time>
      </trkpt>
      <trkpt lat="45.08552" lon="5.59691">
        <ele>1412.8</ele>
        <time>2020-08-23T11:03:16Z</time>
      </trkpt>
      <trkpt lat="45.08554" lon="5.59691">
        <ele>1412.8</ele>
        <time>2020-08-23T11:03:17Z</time>
      </trkpt>
      <trkpt lat="45.08556" lon="5.59691">
        <ele>1413</ele>
        <time>2020-08-23T11:03:18Z</time>
      </trkpt>
      <trkpt lat="45.08558" lon="5.59692">
        <ele>1413.2</ele>
        <time>2020-08-23T11:03:19Z</time>
      </trkpt>
      <trkpt lat="45.08559" lon="5.59692">
        <ele>1413.4</ele>
        <time>2020-08-23T11:03:20Z</time>
      </trkpt>
      <trkpt lat="45.08561" lon="5.59692">
        <ele>1413.4</ele>
        <time>2020-08-23T11:03:21Z</time>
      </trkpt>
      <trkpt lat="45.08563" lon="5.59692">
        <ele>1413.6</ele>
        <time>2020-08-23T11:03:22Z</time>
      </trkpt>
      <trkpt lat="45.08564" lon="5.59693">
        <ele>1413.6</ele>
        <time>2020-08-23T11:03:23Z</time>
      </trkpt>
      <trkpt lat="45.08566" lon="5.59692">
        <ele>1413.8</ele>
        <time>2020-08-23T11:03:24Z</time>
      </trkpt>
      <trkpt lat="45.08567" lon="5.59692">
        <ele>1414</ele>
        <time>2020-08-23T11:03:25Z</time>
      </trkpt>
      <trkpt lat="45.08569" lon="5.59692">
        <ele>1414</ele>
        <time>2020-08-23T11:03:26Z</time>
      </trkpt>
      <trkpt lat="45.08571" lon="5.59691">
        <ele>1414.2</ele>
        <time>2020-08-23T11:03:27Z</time>
      </trkpt>
      <trkpt lat="45.08572" lon="5.5969">
        <ele>1414.2</ele>
        <time>2020-08-23T11:03:28Z</time>
      </trkpt>
      <trkpt lat="45.08573" lon="5.59688">
        <ele>1414.2</ele>
        <time>2020-08-23T11:03:29Z</time>
      </trkpt>
      <trkpt lat="45.08574" lon="5.59686">
        <ele>1414.4</ele>
        <time>2020-08-23T11:03:30Z</time>
      </trkpt>
      <trkpt lat="45.08575" lon="5.59684">
        <ele>1414.4</ele>
        <time>2020-08-23T11:03:31Z</time>
      </trkpt>
      <trkpt lat="45.08577" lon="5.59682">
        <ele>1414.6</ele>
        <time>2020-08-23T11:03:32Z</time>
      </trkpt>
      <trkpt lat="45.08578" lon="5.59681">
        <ele>1414.8</ele>
        <time>2020-08-23T11:03:33Z</time>
      </trkpt>
      <trkpt lat="45.08579" lon="5.59679">
        <ele>1414.8</ele>
        <time>2020-08-23T11:03:34Z</time>
      </trkpt>
      <trkpt lat="45.08579" lon="5.59677">
        <ele>1415</ele>
        <time>2020-08-23T11:03:35Z</time>
      </trkpt>
      <trkpt lat="45.0858" lon="5.59676">
        <ele>1415.2</ele>
        <time>2020-08-23T11:03:36Z</time>
      </trkpt>
      <trkpt lat="45.0858" lon="5.59674">
        <ele>1415.2</ele>
        <time>2020-08-23T11:03:37Z</time>
      </trkpt>
      <trkpt lat="45.08581" lon="5.59673">
        <ele>1415.4</ele>
        <time>2020-08-23T11:03:38Z</time>
      </trkpt>
      <trkpt lat="45.08582" lon="5.59672">
        <ele>1415.6</ele>
        <time>2020-08-23T11:03:39Z</time>
      </trkpt>
      <trkpt lat="45.08582" lon="5.59671">
        <ele>1415.8</ele>
        <time>2020-08-23T11:03:40Z</time>
      </trkpt>
      <trkpt lat="45.08583" lon="5.5967">
        <ele>1416</ele>
        <time>2020-08-23T11:03:41Z</time>
      </trkpt>
      <trkpt lat="45.08583" lon="5.59668">
        <ele>1416.2</ele>
        <time>2020-08-23T11:03:42Z</time>
      </trkpt>
      <trkpt lat="45.08584" lon="5.59667">
        <ele>1416.4</ele>
        <time>2020-08-23T11:03:43Z</time>
      </trkpt>
      <trkpt lat="45.08585" lon="5.59666">
        <ele>1416.6</ele>
        <time>2020-08-23T11:03:44Z</time>
      </trkpt>
      <trkpt lat="45.08585" lon="5.59665">
        <ele>1416.8</ele>
        <time>2020-08-23T11:03:45Z</time>
      </trkpt>
      <trkpt lat="45.08586" lon="5.59664">
        <ele>1417</ele>
        <time>2020-08-23T11:03:46Z</time>
      </trkpt>
      <trkpt lat="45.08587" lon="5.59663">
        <ele>1417.2</ele>
        <time>2020-08-23T11:03:47Z</time>
      </trkpt>
      <trkpt lat="45.08587" lon="5.59662">
        <ele>1417.4</ele>
        <time>2020-08-23T11:03:48Z</time>
      </trkpt>
      <trkpt lat="45.08587" lon="5.59661">
        <ele>1417.6</ele>
        <time>2020-08-23T11:03:49Z</time>
      </trkpt>
      <trkpt lat="45.08588" lon="5.5966">
        <ele>1417.8</ele>
        <time>2020-08-23T11:03:50Z</time>
      </trkpt>
      <trkpt lat="45.08588" lon="5.59659">
        <ele>1418</ele>
        <time>2020-08-23T11:03:51Z</time>
      </trkpt>
      <trkpt lat="45.08589" lon="5.59657">
        <ele>1418.2</ele>
        <time>2020-08-23T11:03:52Z</time>
      </trkpt>
      <trkpt lat="45.08589" lon="5.59656">
        <ele>1418.2</ele>
        <time>2020-08-23T11:03:53Z</time>
      </trkpt>
      <trkpt lat="45.0859" lon="5.59655">
        <ele>1418.4</ele>
        <time>2020-08-23T11:03:54Z</time>
      </trkpt>
      <trkpt lat="45.08591" lon="5.59654">
        <ele>1418.6</ele>
        <time>2020-08-23T11:03:55Z</time>
      </trkpt>
      <trkpt lat="45.08591" lon="5.59653">
        <ele>1418.8</ele>
        <time>2020-08-23T11:03:56Z</time>
      </trkpt>
      <trkpt lat="45.08592" lon="5.59652">
        <ele>1419</ele>
        <time>2020-08-23T11:03:57Z</time>
      </trkpt>
      <trkpt lat="45.08592" lon="5.59651">
        <ele>1419.2</ele>
        <time>2020-08-23T11:03:58Z</time>
      </trkpt>
      <trkpt lat="45.08593" lon="5.5965">
        <ele>1419.4</ele>
        <time>2020-08-23T11:03:59Z</time>
      </trkpt>
      <trkpt lat="45.08593" lon="5.59649">
        <ele>1419.6</ele>
        <time>2020-08-23T11:04:00Z</time>
      </trkpt>
      <trkpt lat="45.08594" lon="5.59648">
        <ele>1419.8</ele>
        <time>2020-08-23T11:04:01Z</time>
      </trkpt>
      <trkpt lat="45.08595" lon="5.59647">
        <ele>1420</ele>
        <time>2020-08-23T11:04:02Z</time>
      </trkpt>
      <trkpt lat="45.08595" lon="5.59645">
        <ele>1420</ele>
        <time>2020-08-23T11:04:03Z</time>
      </trkpt>
      <trkpt lat="45.08596" lon="5.59643">
        <ele>1420.2</ele>
        <time>2020-08-23T11:04:04Z</time>
      </trkpt>
      <trkpt lat="45.08596" lon="5.59642">
        <ele>1420.4</ele>
        <time>2020-08-23T11:04:05Z</time>
      </trkpt>
      <trkpt lat="45.08596" lon="5.59641">
        <ele>1420.4</ele>
        <time>2020-08-23T11:04:06Z</time>
      </trkpt>
      <trkpt lat="45.08597" lon="5.5964">
        <ele>1420.6</ele>
        <time>2020-08-23T11:04:07Z</time>
      </trkpt>
      <trkpt lat="45.08597" lon="5.59638">
        <ele>1420.8</ele>
        <time>2020-08-23T11:04:08Z</time>
      </trkpt>
      <trkpt lat="45.08597" lon="5.59637">
        <ele>1420.8</ele>
        <time>2020-08-23T11:04:09Z</time>
      </trkpt>
      <trkpt lat="45.08598" lon="5.59636">
        <ele>1421</ele>
        <time>2020-08-23T11:04:10Z</time>
      </trkpt>
      <trkpt lat="45.08598" lon="5.59634">
        <ele>1421.2</ele>
        <time>2020-08-23T11:04:11Z</time>
      </trkpt>
      <trkpt lat="45.08598" lon="5.59633">
        <ele>1421.4</ele>
        <time>2020-08-23T11:04:12Z</time>
      </trkpt>
      <trkpt lat="45.08599" lon="5.59631">
        <ele>1421.6</ele>
        <time>2020-08-23T11:04:13Z</time>
      </trkpt>
      <trkpt lat="45.086" lon="5.5963">
        <ele>1421.8</ele>
        <time>2020-08-23T11:04:14Z</time>
      </trkpt>
      <trkpt lat="45.08601" lon="5.59629">
        <ele>1421.8</ele>
        <time>2020-08-23T11:04:15Z</time>
      </trkpt>
      <trkpt lat="45.08601" lon="5.59628">
        <ele>1422</ele>
        <time>2020-08-23T11:04:16Z</time>
      </trkpt>
      <trkpt lat="45.08602" lon="5.59628">
        <ele>1422.2</ele>
        <time>2020-08-23T11:04:17Z</time>
      </trkpt>
      <trkpt lat="45.08603" lon="5.59627">
        <ele>1422.4</ele>
        <time>2020-08-23T11:04:18Z</time>
      </trkpt>
      <trkpt lat="45.08604" lon="5.59626">
        <ele>1422.6</ele>
        <time>2020-08-23T11:04:19Z</time>
      </trkpt>
      <trkpt lat="45.08605" lon="5.59624">
        <ele>1422.6</ele>
        <time>2020-08-23T11:04:20Z</time>
      </trkpt>
      <trkpt lat="45.08606" lon="5.59623">
        <ele>1422.8</ele>
        <time>2020-08-23T11:04:21Z</time>
      </trkpt>
      <trkpt lat="45.08606" lon="5.59622">
        <ele>1423</ele>
        <time>2020-08-23T11:04:22Z</time>
      </trkpt>
      <trkpt lat="45.08608" lon="5.59622">
        <ele>1423.2</ele>
        <time>2020-08-23T11:04:23Z</time>
      </trkpt>
      <trkpt lat="45.08608" lon="5.59621">
        <ele>1423.4</ele>
        <time>2020-08-23T11:04:24Z</time>
      </trkpt>
      <trkpt lat="45.08609" lon="5.59619">
        <ele>1423.4</ele>
        <time>2020-08-23T11:04:25Z</time>
      </trkpt>
      <trkpt lat="45.08609" lon="5.59618">
        <ele>1423.6</ele>
        <time>2020-08-23T11:04:26Z</time>
      </trkpt>
      <trkpt lat="45.0861" lon="5.59617">
        <ele>1423.8</ele>
        <time>2020-08-23T11:04:27Z</time>
      </trkpt>
      <trkpt lat="45.08611" lon="5.59616">
        <ele>1424</ele>
        <time>2020-08-23T11:04:28Z</time>
      </trkpt>
      <trkpt lat="45.08611" lon="5.59615">
        <ele>1424.2</ele>
        <time>2020-08-23T11:04:29Z</time>
      </trkpt>
      <trkpt lat="45.08612" lon="5.59613">
        <ele>1424.4</ele>
        <time>2020-08-23T11:04:30Z</time>
      </trkpt>
      <trkpt lat="45.08613" lon="5.59612">
        <ele>1424.4</ele>
        <time>2020-08-23T11:04:31Z</time>
      </trkpt>
      <trkpt lat="45.08614" lon="5.59611">
        <ele>1424.6</ele>
        <time>2020-08-23T11:04:32Z</time>
      </trkpt>
      <trkpt lat="45.08615" lon="5.59609">
        <ele>1424.8</ele>
        <time>2020-08-23T11:04:33Z</time>
      </trkpt>
      <trkpt lat="45.08616" lon="5.59608">
        <ele>1425</ele>
        <time>2020-08-23T11:04:34Z</time>
      </trkpt>
      <trkpt lat="45.08616" lon="5.59607">
        <ele>1425.2</ele>
        <time>2020-08-23T11:04:35Z</time>
      </trkpt>
      <trkpt lat="45.08617" lon="5.59605">
        <ele>1425.4</ele>
        <time>2020-08-23T11:04:36Z</time>
      </trkpt>
      <trkpt lat="45.08618" lon="5.59604">
        <ele>1425.6</ele>
        <time>2020-08-23T11:04:37Z</time>
      </trkpt>
      <trkpt lat="45.08619" lon="5.59603">
        <ele>1425.6</ele>
        <time>2020-08-23T11:04:38Z</time>
      </trkpt>
      <trkpt lat="45.0862" lon="5.59602">
        <ele>1425.8</ele>
        <time>2020-08-23T11:04:39Z</time>
      </trkpt>
      <trkpt lat="45.0862" lon="5.59601">
        <ele>1426</ele>
        <time>2020-08-23T11:04:40Z</time>
      </trkpt>
      <trkpt lat="45.08621" lon="5.59599">
        <ele>1426.2</ele>
        <time>2020-08-23T11:04:41Z</time>
      </trkpt>
      <trkpt lat="45.08622" lon="5.59598">
        <ele>1426.4</ele>
        <time>2020-08-23T11:04:42Z</time>
      </trkpt>
      <trkpt lat="45.08622" lon="5.59596">
        <ele>1426.6</ele>
        <time>2020-08-23T11:04:43Z</time>
      </trkpt>
      <trkpt lat="45.08622" lon="5.59595">
        <ele>1426.8</ele>
        <time>2020-08-23T11:04:44Z</time>
      </trkpt>
      <trkpt lat="45.08623" lon="5.59593">
        <ele>1427</ele>
        <time>2020-08-23T11:04:45Z</time>
      </trkpt>
      <trkpt lat="45.08624" lon="5.59592">
        <ele>1427</ele>
        <time>2020-08-23T11:04:46Z</time>
      </trkpt>
      <trkpt lat="45.08624" lon="5.59591">
        <ele>1427.2</ele>
        <time>2020-08-23T11:04:47Z</time>
      </trkpt>
      <trkpt lat="45.08625" lon="5.5959">
        <ele>1427.4</ele>
        <time>2020-08-23T11:04:48Z</time>
      </trkpt>
      <trkpt lat="45.08627" lon="5.59589">
        <ele>1427.6</ele>
        <time>2020-08-23T11:04:49Z</time>
      </trkpt>
      <trkpt lat="45.08627" lon="5.59588">
        <ele>1427.8</ele>
        <time>2020-08-23T11:04:50Z</time>
      </trkpt>
      <trkpt lat="45.08628" lon="5.59587">
        <ele>1428</ele>
        <time>2020-08-23T11:04:51Z</time>
      </trkpt>
      <trkpt lat="45.08629" lon="5.59586">
        <ele>1428</ele>
        <time>2020-08-23T11:04:52Z</time>
      </trkpt>
      <trkpt lat="45.0863" lon="5.59585">
        <ele>1428.2</ele>
        <time>2020-08-23T11:04:53Z</time>
      </trkpt>
      <trkpt lat="45.08631" lon="5.59585">
        <ele>1428.4</ele>
        <time>2020-08-23T11:04:54Z</time>
      </trkpt>
      <trkpt lat="45.08632" lon="5.59584">
        <ele>1428.6</ele>
        <time>2020-08-23T11:04:55Z</time>
      </trkpt>
      <trkpt lat="45.08633" lon="5.59583">
        <ele>1428.6</ele>
        <time>2020-08-23T11:04:56Z</time>
      </trkpt>
      <trkpt lat="45.08634" lon="5.59583">
        <ele>1428.8</ele>
        <time>2020-08-23T11:04:57Z</time>
      </trkpt>
      <trkpt lat="45.08635" lon="5.59582">
        <ele>1429</ele>
        <time>2020-08-23T11:04:58Z</time>
      </trkpt>
      <trkpt lat="45.08636" lon="5.59581">
        <ele>1429</ele>
        <time>2020-08-23T11:04:59Z</time>
      </trkpt>
      <trkpt lat="45.08637" lon="5.59579">
        <ele>1429.2</ele>
        <time>2020-08-23T11:05:00Z</time>
      </trkpt>
      <trkpt lat="45.08637" lon="5.59578">
        <ele>1429.4</ele>
        <time>2020-08-23T11:05:01Z</time>
      </trkpt>
      <trkpt lat="45.08638" lon="5.59577">
        <ele>1429.4</ele>
        <time>2020-08-23T11:05:02Z</time>
      </trkpt>
      <trkpt lat="45.08639" lon="5.59576">
        <ele>1429.6</ele>
        <time>2020-08-23T11:05:03Z</time>
      </trkpt>
      <trkpt lat="45.0864" lon="5.59575">
        <ele>1429.6</ele>
        <time>2020-08-23T11:05:04Z</time>
      </trkpt>
      <trkpt lat="45.08641" lon="5.59574">
        <ele>1429.8</ele>
        <time>2020-08-23T11:05:05Z</time>
      </trkpt>
      <trkpt lat="45.08642" lon="5.59574">
        <ele>1430</ele>
        <time>2020-08-23T11:05:06Z</time>
      </trkpt>
      <trkpt lat="45.08643" lon="5.59574">
        <ele>1430</ele>
        <time>2020-08-23T11:05:07Z</time>
      </trkpt>
      <trkpt lat="45.08643" lon="5.59573">
        <ele>1430.2</ele>
        <time>2020-08-23T11:05:08Z</time>
      </trkpt>
      <trkpt lat="45.08644" lon="5.59573">
        <ele>1430.2</ele>
        <time>2020-08-23T11:05:09Z</time>
      </trkpt>
      <trkpt lat="45.08645" lon="5.59572">
        <ele>1430.4</ele>
        <time>2020-08-23T11:05:10Z</time>
      </trkpt>
      <trkpt lat="45.08646" lon="5.59572">
        <ele>1430.4</ele>
        <time>2020-08-23T11:05:11Z</time>
      </trkpt>
      <trkpt lat="45.08646" lon="5.59571">
        <ele>1430.6</ele>
        <time>2020-08-23T11:05:12Z</time>
      </trkpt>
      <trkpt lat="45.08647" lon="5.59571">
        <ele>1430.8</ele>
        <time>2020-08-23T11:05:13Z</time>
      </trkpt>
      <trkpt lat="45.08649" lon="5.59571">
        <ele>1430.8</ele>
        <time>2020-08-23T11:05:14Z</time>
      </trkpt>
      <trkpt lat="45.0865" lon="5.5957">
        <ele>1431</ele>
        <time>2020-08-23T11:05:15Z</time>
      </trkpt>
      <trkpt lat="45.08651" lon="5.5957">
        <ele>1431</ele>
        <time>2020-08-23T11:05:16Z</time>
      </trkpt>
      <trkpt lat="45.08652" lon="5.5957">
        <ele>1431.2</ele>
        <time>2020-08-23T11:05:17Z</time>
      </trkpt>
      <trkpt lat="45.08654" lon="5.5957">
        <ele>1431.4</ele>
        <time>2020-08-23T11:05:18Z</time>
      </trkpt>
      <trkpt lat="45.08656" lon="5.59569">
        <ele>1431.4</ele>
        <time>2020-08-23T11:05:19Z</time>
      </trkpt>
      <trkpt lat="45.08657" lon="5.59569">
        <ele>1431.6</ele>
        <time>2020-08-23T11:05:20Z</time>
      </trkpt>
      <trkpt lat="45.08659" lon="5.59569">
        <ele>1431.8</ele>
        <time>2020-08-23T11:05:21Z</time>
      </trkpt>
      <trkpt lat="45.0866" lon="5.59569">
        <ele>1431.8</ele>
        <time>2020-08-23T11:05:22Z</time>
      </trkpt>
      <trkpt lat="45.08661" lon="5.59568">
        <ele>1432</ele>
        <time>2020-08-23T11:05:23Z</time>
      </trkpt>
      <trkpt lat="45.08663" lon="5.59567">
        <ele>1432.2</ele>
        <time>2020-08-23T11:05:24Z</time>
      </trkpt>
      <trkpt lat="45.08664" lon="5.59566">
        <ele>1432.2</ele>
        <time>2020-08-23T11:05:25Z</time>
      </trkpt>
      <trkpt lat="45.08666" lon="5.59565">
        <ele>1432.2</ele>
        <time>2020-08-23T11:05:26Z</time>
      </trkpt>
      <trkpt lat="45.08668" lon="5.59563">
        <ele>1432.4</ele>
        <time>2020-08-23T11:05:27Z</time>
      </trkpt>
      <trkpt lat="45.0867" lon="5.59561">
        <ele>1432.4</ele>
        <time>2020-08-23T11:05:28Z</time>
      </trkpt>
      <trkpt lat="45.08673" lon="5.5956">
        <ele>1432.6</ele>
        <time>2020-08-23T11:05:29Z</time>
      </trkpt>
      <trkpt lat="45.08675" lon="5.5956">
        <ele>1432.6</ele>
        <time>2020-08-23T11:05:30Z</time>
      </trkpt>
      <trkpt lat="45.08677" lon="5.59559">
        <ele>1432.8</ele>
        <time>2020-08-23T11:05:31Z</time>
      </trkpt>
      <trkpt lat="45.08679" lon="5.59557">
        <ele>1433</ele>
        <time>2020-08-23T11:05:32Z</time>
      </trkpt>
      <trkpt lat="45.08681" lon="5.59557">
        <ele>1433.2</ele>
        <time>2020-08-23T11:05:33Z</time>
      </trkpt>
      <trkpt lat="45.08682" lon="5.59555">
        <ele>1433.4</ele>
        <time>2020-08-23T11:05:34Z</time>
      </trkpt>
      <trkpt lat="45.08683" lon="5.59554">
        <ele>1433.6</ele>
        <time>2020-08-23T11:05:35Z</time>
      </trkpt>
      <trkpt lat="45.08685" lon="5.59552">
        <ele>1433.8</ele>
        <time>2020-08-23T11:05:36Z</time>
      </trkpt>
      <trkpt lat="45.08687" lon="5.59551">
        <ele>1434</ele>
        <time>2020-08-23T11:05:37Z</time>
      </trkpt>
      <trkpt lat="45.08689" lon="5.5955">
        <ele>1434</ele>
        <time>2020-08-23T11:05:38Z</time>
      </trkpt>
      <trkpt lat="45.08691" lon="5.59549">
        <ele>1434.2</ele>
        <time>2020-08-23T11:05:39Z</time>
      </trkpt>
      <trkpt lat="45.08694" lon="5.59548">
        <ele>1434.2</ele>
        <time>2020-08-23T11:05:40Z</time>
      </trkpt>
      <trkpt lat="45.08696" lon="5.59547">
        <ele>1434.4</ele>
        <time>2020-08-23T11:05:41Z</time>
      </trkpt>
      <trkpt lat="45.08699" lon="5.59546">
        <ele>1434.4</ele>
        <time>2020-08-23T11:05:42Z</time>
      </trkpt>
      <trkpt lat="45.08701" lon="5.59545">
        <ele>1434.6</ele>
        <time>2020-08-23T11:05:43Z</time>
      </trkpt>
      <trkpt lat="45.08703" lon="5.59543">
        <ele>1434.8</ele>
        <time>2020-08-23T11:05:44Z</time>
      </trkpt>
      <trkpt lat="45.08704" lon="5.59543">
        <ele>1435</ele>
        <time>2020-08-23T11:05:45Z</time>
      </trkpt>
      <trkpt lat="45.08706" lon="5.59542">
        <ele>1435.2</ele>
        <time>2020-08-23T11:05:46Z</time>
      </trkpt>
      <trkpt lat="45.08709" lon="5.59541">
        <ele>1435.2</ele>
        <time>2020-08-23T11:05:47Z</time>
      </trkpt>
      <trkpt lat="45.08711" lon="5.5954">
        <ele>1435.4</ele>
        <time>2020-08-23T11:05:48Z</time>
      </trkpt>
      <trkpt lat="45.08713" lon="5.59538">
        <ele>1435.6</ele>
        <time>2020-08-23T11:05:49Z</time>
      </trkpt>
      <trkpt lat="45.08715" lon="5.59537">
        <ele>1435.8</ele>
        <time>2020-08-23T11:05:50Z</time>
      </trkpt>
      <trkpt lat="45.08716" lon="5.59537">
        <ele>1436</ele>
        <time>2020-08-23T11:05:51Z</time>
      </trkpt>
      <trkpt lat="45.08718" lon="5.59536">
        <ele>1436.2</ele>
        <time>2020-08-23T11:05:52Z</time>
      </trkpt>
      <trkpt lat="45.0872" lon="5.59536">
        <ele>1436.4</ele>
        <time>2020-08-23T11:05:53Z</time>
      </trkpt>
      <trkpt lat="45.08722" lon="5.59536">
        <ele>1436.4</ele>
        <time>2020-08-23T11:05:54Z</time>
      </trkpt>
      <trkpt lat="45.08723" lon="5.59535">
        <ele>1436.6</ele>
        <time>2020-08-23T11:05:55Z</time>
      </trkpt>
      <trkpt lat="45.08725" lon="5.59535">
        <ele>1436.8</ele>
        <time>2020-08-23T11:05:56Z</time>
      </trkpt>
      <trkpt lat="45.08727" lon="5.59534">
        <ele>1437</ele>
        <time>2020-08-23T11:05:57Z</time>
      </trkpt>
      <trkpt lat="45.08729" lon="5.59534">
        <ele>1437.2</ele>
        <time>2020-08-23T11:05:58Z</time>
      </trkpt>
      <trkpt lat="45.08731" lon="5.59533">
        <ele>1437.2</ele>
        <time>2020-08-23T11:05:59Z</time>
      </trkpt>
      <trkpt lat="45.08732" lon="5.59532">
        <ele>1437.4</ele>
        <time>2020-08-23T11:06:00Z</time>
      </trkpt>
      <trkpt lat="45.08734" lon="5.59532">
        <ele>1437.6</ele>
        <time>2020-08-23T11:06:01Z</time>
      </trkpt>
      <trkpt lat="45.08735" lon="5.59532">
        <ele>1437.8</ele>
        <time>2020-08-23T11:06:02Z</time>
      </trkpt>
      <trkpt lat="45.08737" lon="5.59532">
        <ele>1438</ele>
        <time>2020-08-23T11:06:03Z</time>
      </trkpt>
      <trkpt lat="45.08738" lon="5.59532">
        <ele>1438.2</ele>
        <time>2020-08-23T11:06:04Z</time>
      </trkpt>
      <trkpt lat="45.0874" lon="5.59532">
        <ele>1438.4</ele>
        <time>2020-08-23T11:06:05Z</time>
      </trkpt>
      <trkpt lat="45.08741" lon="5.59532">
        <ele>1438.6</ele>
        <time>2020-08-23T11:06:06Z</time>
      </trkpt>
      <trkpt lat="45.08743" lon="5.59532">
        <ele>1438.6</ele>
        <time>2020-08-23T11:06:07Z</time>
      </trkpt>
      <trkpt lat="45.08743" lon="5.59532">
        <ele>1438.8</ele>
        <time>2020-08-23T11:06:08Z</time>
      </trkpt>
      <trkpt lat="45.08744" lon="5.59532">
        <ele>1439</ele>
        <time>2020-08-23T11:06:09Z</time>
      </trkpt>
      <trkpt lat="45.08746" lon="5.59532">
        <ele>1439.2</ele>
        <time>2020-08-23T11:06:10Z</time>
      </trkpt>
      <trkpt lat="45.08746" lon="5.59532">
        <ele>1439.2</ele>
        <time>2020-08-23T11:06:11Z</time>
      </trkpt>
      <trkpt lat="45.08746" lon="5.59532">
        <ele>1439.4</ele>
        <time>2020-08-23T11:06:12Z</time>
      </trkpt>
      <trkpt lat="45.08747" lon="5.59533">
        <ele>1439.6</ele>
        <time>2020-08-23T11:06:13Z</time>
      </trkpt>
      <trkpt lat="45.08747" lon="5.59533">
        <ele>1439.8</ele>
        <time>2020-08-23T11:06:14Z</time>
      </trkpt>
      <trkpt lat="45.08749" lon="5.59532">
        <ele>1439.8</ele>
        <time>2020-08-23T11:06:15Z</time>
      </trkpt>
      <trkpt lat="45.0875" lon="5.59532">
        <ele>1440</ele>
        <time>2020-08-23T11:06:16Z</time>
      </trkpt>
      <trkpt lat="45.0875" lon="5.59532">
        <ele>1440.2</ele>
        <time>2020-08-23T11:06:17Z</time>
      </trkpt>
      <trkpt lat="45.08751" lon="5.59532">
        <ele>1440.2</ele>
        <time>2020-08-23T11:06:18Z</time>
      </trkpt>
      <trkpt lat="45.08751" lon="5.59532">
        <ele>1440.2</ele>
        <time>2020-08-23T11:06:19Z</time>
      </trkpt>
      <trkpt lat="45.08753" lon="5.59533">
        <ele>1440.6</ele>
        <time>2020-08-23T11:06:22Z</time>
      </trkpt>
      <trkpt lat="45.08754" lon="5.59533">
        <ele>1440.8</ele>
        <time>2020-08-23T11:06:23Z</time>
      </trkpt>
      <trkpt lat="45.08754" lon="5.59534">
        <ele>1440.8</ele>
        <time>2020-08-23T11:06:24Z</time>
      </trkpt>
      <trkpt lat="45.08754" lon="5.59534">
        <ele>1440.8</ele>
        <time>2020-08-23T11:06:25Z</time>
      </trkpt>
      <trkpt lat="45.08754" lon="5.59534">
        <ele>1441</ele>
        <time>2020-08-23T11:06:26Z</time>
      </trkpt>
      <trkpt lat="45.08754" lon="5.59534">
        <ele>1441</ele>
        <time>2020-08-23T11:06:27Z</time>
      </trkpt>
      <trkpt lat="45.08756" lon="5.59535">
        <ele>1441.4</ele>
        <time>2020-08-23T11:07:15Z</time>
      </trkpt>
      <trkpt lat="45.08758" lon="5.59535">
        <ele>1441.4</ele>
        <time>2020-08-23T11:07:16Z</time>
      </trkpt>
      <trkpt lat="45.08759" lon="5.59536">
        <ele>1441.4</ele>
        <time>2020-08-23T11:07:17Z</time>
      </trkpt>
      <trkpt lat="45.08759" lon="5.59537">
        <ele>1441.4</ele>
        <time>2020-08-23T11:07:18Z</time>
      </trkpt>
      <trkpt lat="45.08761" lon="5.59538">
        <ele>1441.4</ele>
        <time>2020-08-23T11:07:19Z</time>
      </trkpt>
      <trkpt lat="45.08761" lon="5.59538">
        <ele>1441.4</ele>
        <time>2020-08-23T11:07:20Z</time>
      </trkpt>
      <trkpt lat="45.08762" lon="5.59538">
        <ele>1441.4</ele>
        <time>2020-08-23T11:07:21Z</time>
      </trkpt>
      <trkpt lat="45.08763" lon="5.59538">
        <ele>1441.4</ele>
        <time>2020-08-23T11:07:22Z</time>
      </trkpt>
      <trkpt lat="45.08764" lon="5.59538">
        <ele>1441.4</ele>
        <time>2020-08-23T11:07:23Z</time>
      </trkpt>
      <trkpt lat="45.08765" lon="5.59538">
        <ele>1441.6</ele>
        <time>2020-08-23T11:07:24Z</time>
      </trkpt>
      <trkpt lat="45.08767" lon="5.59537">
        <ele>1441.6</ele>
        <time>2020-08-23T11:07:25Z</time>
      </trkpt>
      <trkpt lat="45.08768" lon="5.59537">
        <ele>1441.6</ele>
        <time>2020-08-23T11:07:26Z</time>
      </trkpt>
      <trkpt lat="45.08769" lon="5.59537">
        <ele>1441.8</ele>
        <time>2020-08-23T11:07:27Z</time>
      </trkpt>
      <trkpt lat="45.0877" lon="5.59537">
        <ele>1441.8</ele>
        <time>2020-08-23T11:07:28Z</time>
      </trkpt>
      <trkpt lat="45.08772" lon="5.59536">
        <ele>1441.8</ele>
        <time>2020-08-23T11:07:29Z</time>
      </trkpt>
      <trkpt lat="45.08773" lon="5.59536">
        <ele>1442</ele>
        <time>2020-08-23T11:07:30Z</time>
      </trkpt>
      <trkpt lat="45.08774" lon="5.59536">
        <ele>1442</ele>
        <time>2020-08-23T11:07:31Z</time>
      </trkpt>
      <trkpt lat="45.08775" lon="5.59536">
        <ele>1442.2</ele>
        <time>2020-08-23T11:07:32Z</time>
      </trkpt>
      <trkpt lat="45.08777" lon="5.59536">
        <ele>1442.2</ele>
        <time>2020-08-23T11:07:33Z</time>
      </trkpt>
      <trkpt lat="45.08778" lon="5.59536">
        <ele>1442.2</ele>
        <time>2020-08-23T11:07:34Z</time>
      </trkpt>
      <trkpt lat="45.08779" lon="5.59536">
        <ele>1442.4</ele>
        <time>2020-08-23T11:07:35Z</time>
      </trkpt>
      <trkpt lat="45.0878" lon="5.59536">
        <ele>1442.4</ele>
        <time>2020-08-23T11:07:36Z</time>
      </trkpt>
      <trkpt lat="45.08781" lon="5.59536">
        <ele>1442.6</ele>
        <time>2020-08-23T11:07:37Z</time>
      </trkpt>
      <trkpt lat="45.08783" lon="5.59536">
        <ele>1442.6</ele>
        <time>2020-08-23T11:07:38Z</time>
      </trkpt>
      <trkpt lat="45.08785" lon="5.59535">
        <ele>1442.6</ele>
        <time>2020-08-23T11:07:39Z</time>
      </trkpt>
      <trkpt lat="45.08786" lon="5.59535">
        <ele>1442.8</ele>
        <time>2020-08-23T11:07:40Z</time>
      </trkpt>
      <trkpt lat="45.08787" lon="5.59534">
        <ele>1442.8</ele>
        <time>2020-08-23T11:07:41Z</time>
      </trkpt>
      <trkpt lat="45.08789" lon="5.59534">
        <ele>1443</ele>
        <time>2020-08-23T11:07:42Z</time>
      </trkpt>
      <trkpt lat="45.0879" lon="5.59534">
        <ele>1443</ele>
        <time>2020-08-23T11:07:43Z</time>
      </trkpt>
      <trkpt lat="45.08792" lon="5.59534">
        <ele>1443.2</ele>
        <time>2020-08-23T11:07:44Z</time>
      </trkpt>
      <trkpt lat="45.08794" lon="5.59533">
        <ele>1443.2</ele>
        <time>2020-08-23T11:07:45Z</time>
      </trkpt>
      <trkpt lat="45.08795" lon="5.59532">
        <ele>1443.2</ele>
        <time>2020-08-23T11:07:46Z</time>
      </trkpt>
      <trkpt lat="45.08797" lon="5.59531">
        <ele>1443.4</ele>
        <time>2020-08-23T11:07:47Z</time>
      </trkpt>
      <trkpt lat="45.08799" lon="5.5953">
        <ele>1443.4</ele>
        <time>2020-08-23T11:07:48Z</time>
      </trkpt>
      <trkpt lat="45.08802" lon="5.59528">
        <ele>1443.4</ele>
        <time>2020-08-23T11:07:49Z</time>
      </trkpt>
      <trkpt lat="45.08804" lon="5.59526">
        <ele>1443.4</ele>
        <time>2020-08-23T11:07:50Z</time>
      </trkpt>
      <trkpt lat="45.08807" lon="5.59525">
        <ele>1443.4</ele>
        <time>2020-08-23T11:07:51Z</time>
      </trkpt>
      <trkpt lat="45.0881" lon="5.59524">
        <ele>1443.4</ele>
        <time>2020-08-23T11:07:52Z</time>
      </trkpt>
      <trkpt lat="45.08812" lon="5.59524">
        <ele>1443.6</ele>
        <time>2020-08-23T11:07:53Z</time>
      </trkpt>
      <trkpt lat="45.08814" lon="5.59524">
        <ele>1443.6</ele>
        <time>2020-08-23T11:07:54Z</time>
      </trkpt>
      <trkpt lat="45.08816" lon="5.59523">
        <ele>1443.8</ele>
        <time>2020-08-23T11:07:55Z</time>
      </trkpt>
      <trkpt lat="45.08818" lon="5.59523">
        <ele>1443.8</ele>
        <time>2020-08-23T11:07:56Z</time>
      </trkpt>
      <trkpt lat="45.08819" lon="5.59523">
        <ele>1443.8</ele>
        <time>2020-08-23T11:07:57Z</time>
      </trkpt>
      <trkpt lat="45.08821" lon="5.59522">
        <ele>1444</ele>
        <time>2020-08-23T11:07:58Z</time>
      </trkpt>
      <trkpt lat="45.08823" lon="5.59522">
        <ele>1444</ele>
        <time>2020-08-23T11:07:59Z</time>
      </trkpt>
      <trkpt lat="45.08825" lon="5.59521">
        <ele>1444</ele>
        <time>2020-08-23T11:08:00Z</time>
      </trkpt>
      <trkpt lat="45.08828" lon="5.59521">
        <ele>1444.2</ele>
        <time>2020-08-23T11:08:01Z</time>
      </trkpt>
      <trkpt lat="45.08829" lon="5.5952">
        <ele>1444.2</ele>
        <time>2020-08-23T11:08:02Z</time>
      </trkpt>
      <trkpt lat="45.08831" lon="5.5952">
        <ele>1444.4</ele>
        <time>2020-08-23T11:08:03Z</time>
      </trkpt>
      <trkpt lat="45.08833" lon="5.5952">
        <ele>1444.4</ele>
        <time>2020-08-23T11:08:04Z</time>
      </trkpt>
      <trkpt lat="45.08836" lon="5.5952">
        <ele>1444.6</ele>
        <time>2020-08-23T11:08:05Z</time>
      </trkpt>
      <trkpt lat="45.08838" lon="5.59519">
        <ele>1444.6</ele>
        <time>2020-08-23T11:08:06Z</time>
      </trkpt>
      <trkpt lat="45.0884" lon="5.59519">
        <ele>1444.8</ele>
        <time>2020-08-23T11:08:07Z</time>
      </trkpt>
      <trkpt lat="45.08842" lon="5.59519">
        <ele>1444.8</ele>
        <time>2020-08-23T11:08:08Z</time>
      </trkpt>
      <trkpt lat="45.08844" lon="5.59519">
        <ele>1445</ele>
        <time>2020-08-23T11:08:09Z</time>
      </trkpt>
      <trkpt lat="45.08846" lon="5.5952">
        <ele>1445</ele>
        <time>2020-08-23T11:08:10Z</time>
      </trkpt>
      <trkpt lat="45.08847" lon="5.59521">
        <ele>1445</ele>
        <time>2020-08-23T11:08:11Z</time>
      </trkpt>
      <trkpt lat="45.08849" lon="5.59522">
        <ele>1445.2</ele>
        <time>2020-08-23T11:08:12Z</time>
      </trkpt>
      <trkpt lat="45.08851" lon="5.59523">
        <ele>1445.2</ele>
        <time>2020-08-23T11:08:13Z</time>
      </trkpt>
      <trkpt lat="45.08853" lon="5.59524">
        <ele>1445.2</ele>
        <time>2020-08-23T11:08:14Z</time>
      </trkpt>
      <trkpt lat="45.08854" lon="5.59525">
        <ele>1445.4</ele>
        <time>2020-08-23T11:08:15Z</time>
      </trkpt>
      <trkpt lat="45.08856" lon="5.59526">
        <ele>1445.4</ele>
        <time>2020-08-23T11:08:16Z</time>
      </trkpt>
      <trkpt lat="45.08857" lon="5.59527">
        <ele>1445.6</ele>
        <time>2020-08-23T11:08:17Z</time>
      </trkpt>
      <trkpt lat="45.08858" lon="5.59529">
        <ele>1445.8</ele>
        <time>2020-08-23T11:08:18Z</time>
      </trkpt>
      <trkpt lat="45.0886" lon="5.5953">
        <ele>1445.8</ele>
        <time>2020-08-23T11:08:19Z</time>
      </trkpt>
      <trkpt lat="45.08861" lon="5.59532">
        <ele>1446</ele>
        <time>2020-08-23T11:08:20Z</time>
      </trkpt>
      <trkpt lat="45.08862" lon="5.59534">
        <ele>1446</ele>
        <time>2020-08-23T11:08:21Z</time>
      </trkpt>
      <trkpt lat="45.08864" lon="5.59535">
        <ele>1446.2</ele>
        <time>2020-08-23T11:08:22Z</time>
      </trkpt>
      <trkpt lat="45.08865" lon="5.59537">
        <ele>1446.2</ele>
        <time>2020-08-23T11:08:23Z</time>
      </trkpt>
      <trkpt lat="45.08866" lon="5.59539">
        <ele>1446.4</ele>
        <time>2020-08-23T11:08:24Z</time>
      </trkpt>
      <trkpt lat="45.08867" lon="5.59541">
        <ele>1446.4</ele>
        <time>2020-08-23T11:08:25Z</time>
      </trkpt>
      <trkpt lat="45.08868" lon="5.59542">
        <ele>1446.4</ele>
        <time>2020-08-23T11:08:26Z</time>
      </trkpt>
      <trkpt lat="45.08868" lon="5.59542">
        <ele>1446.6</ele>
        <time>2020-08-23T11:08:27Z</time>
      </trkpt>
      <trkpt lat="45.08869" lon="5.59542">
        <ele>1446.8</ele>
        <time>2020-08-23T11:08:28Z</time>
      </trkpt>
      <trkpt lat="45.0887" lon="5.59543">
        <ele>1446.8</ele>
        <time>2020-08-23T11:08:29Z</time>
      </trkpt>
      <trkpt lat="45.0887" lon="5.59544">
        <ele>1447</ele>
        <time>2020-08-23T11:08:30Z</time>
      </trkpt>
      <trkpt lat="45.08871" lon="5.59545">
        <ele>1447</ele>
        <time>2020-08-23T11:08:31Z</time>
      </trkpt>
      <trkpt lat="45.08872" lon="5.59546">
        <ele>1447.2</ele>
        <time>2020-08-23T11:08:32Z</time>
      </trkpt>
      <trkpt lat="45.08873" lon="5.59547">
        <ele>1447.2</ele>
        <time>2020-08-23T11:08:33Z</time>
      </trkpt>
      <trkpt lat="45.08875" lon="5.59548">
        <ele>1447.2</ele>
        <time>2020-08-23T11:08:34Z</time>
      </trkpt>
      <trkpt lat="45.08876" lon="5.59548">
        <ele>1447.4</ele>
        <time>2020-08-23T11:08:35Z</time>
      </trkpt>
      <trkpt lat="45.08876" lon="5.59549">
        <ele>1447.4</ele>
        <time>2020-08-23T11:08:36Z</time>
      </trkpt>
      <trkpt lat="45.08877" lon="5.59549">
        <ele>1447.6</ele>
        <time>2020-08-23T11:08:37Z</time>
      </trkpt>
      <trkpt lat="45.08878" lon="5.5955">
        <ele>1447.8</ele>
        <time>2020-08-23T11:08:38Z</time>
      </trkpt>
      <trkpt lat="45.08879" lon="5.59552">
        <ele>1448</ele>
        <time>2020-08-23T11:08:39Z</time>
      </trkpt>
      <trkpt lat="45.0888" lon="5.59553">
        <ele>1448</ele>
        <time>2020-08-23T11:08:40Z</time>
      </trkpt>
      <trkpt lat="45.0888" lon="5.59554">
        <ele>1448.2</ele>
        <time>2020-08-23T11:08:41Z</time>
      </trkpt>
      <trkpt lat="45.08882" lon="5.59556">
        <ele>1448.2</ele>
        <time>2020-08-23T11:08:42Z</time>
      </trkpt>
      <trkpt lat="45.08883" lon="5.59556">
        <ele>1448.4</ele>
        <time>2020-08-23T11:08:43Z</time>
      </trkpt>
      <trkpt lat="45.08884" lon="5.59557">
        <ele>1448.4</ele>
        <time>2020-08-23T11:08:44Z</time>
      </trkpt>
      <trkpt lat="45.08885" lon="5.59558">
        <ele>1448.6</ele>
        <time>2020-08-23T11:08:45Z</time>
      </trkpt>
      <trkpt lat="45.08885" lon="5.59559">
        <ele>1448.6</ele>
        <time>2020-08-23T11:08:46Z</time>
      </trkpt>
      <trkpt lat="45.08886" lon="5.59559">
        <ele>1448.8</ele>
        <time>2020-08-23T11:08:47Z</time>
      </trkpt>
      <trkpt lat="45.08887" lon="5.5956">
        <ele>1448.8</ele>
        <time>2020-08-23T11:08:48Z</time>
      </trkpt>
      <trkpt lat="45.08888" lon="5.59561">
        <ele>1449</ele>
        <time>2020-08-23T11:08:49Z</time>
      </trkpt>
      <trkpt lat="45.08889" lon="5.59561">
        <ele>1449</ele>
        <time>2020-08-23T11:08:50Z</time>
      </trkpt>
      <trkpt lat="45.0889" lon="5.59561">
        <ele>1449.2</ele>
        <time>2020-08-23T11:08:51Z</time>
      </trkpt>
      <trkpt lat="45.08892" lon="5.59561">
        <ele>1449.4</ele>
        <time>2020-08-23T11:08:52Z</time>
      </trkpt>
      <trkpt lat="45.08893" lon="5.59561">
        <ele>1449.4</ele>
        <time>2020-08-23T11:08:53Z</time>
      </trkpt>
      <trkpt lat="45.08894" lon="5.59561">
        <ele>1449.6</ele>
        <time>2020-08-23T11:08:54Z</time>
      </trkpt>
      <trkpt lat="45.08895" lon="5.59561">
        <ele>1449.6</ele>
        <time>2020-08-23T11:08:55Z</time>
      </trkpt>
      <trkpt lat="45.08896" lon="5.59562">
        <ele>1449.8</ele>
        <time>2020-08-23T11:08:56Z</time>
      </trkpt>
      <trkpt lat="45.08896" lon="5.59562">
        <ele>1450</ele>
        <time>2020-08-23T11:08:57Z</time>
      </trkpt>
      <trkpt lat="45.08897" lon="5.59562">
        <ele>1450</ele>
        <time>2020-08-23T11:08:58Z</time>
      </trkpt>
      <trkpt lat="45.08897" lon="5.59562">
        <ele>1450.2</ele>
        <time>2020-08-23T11:08:59Z</time>
      </trkpt>
      <trkpt lat="45.08898" lon="5.59563">
        <ele>1450.2</ele>
        <time>2020-08-23T11:09:00Z</time>
      </trkpt>
      <trkpt lat="45.08899" lon="5.59564">
        <ele>1450.4</ele>
        <time>2020-08-23T11:09:01Z</time>
      </trkpt>
      <trkpt lat="45.089" lon="5.59564">
        <ele>1450.6</ele>
        <time>2020-08-23T11:09:02Z</time>
      </trkpt>
      <trkpt lat="45.089" lon="5.59565">
        <ele>1450.6</ele>
        <time>2020-08-23T11:09:03Z</time>
      </trkpt>
      <trkpt lat="45.08901" lon="5.59566">
        <ele>1450.8</ele>
        <time>2020-08-23T11:09:04Z</time>
      </trkpt>
      <trkpt lat="45.08901" lon="5.59567">
        <ele>1451</ele>
        <time>2020-08-23T11:09:05Z</time>
      </trkpt>
      <trkpt lat="45.08901" lon="5.59568">
        <ele>1451</ele>
        <time>2020-08-23T11:09:06Z</time>
      </trkpt>
      <trkpt lat="45.08901" lon="5.59568">
        <ele>1451.2</ele>
        <time>2020-08-23T11:09:07Z</time>
      </trkpt>
      <trkpt lat="45.08901" lon="5.59569">
        <ele>1451.2</ele>
        <time>2020-08-23T11:09:08Z</time>
      </trkpt>
      <trkpt lat="45.08901" lon="5.59569">
        <ele>1451.4</ele>
        <time>2020-08-23T11:09:09Z</time>
      </trkpt>
      <trkpt lat="45.08901" lon="5.5957">
        <ele>1451.6</ele>
        <time>2020-08-23T11:09:10Z</time>
      </trkpt>
      <trkpt lat="45.08902" lon="5.5957">
        <ele>1451.8</ele>
        <time>2020-08-23T11:09:11Z</time>
      </trkpt>
      <trkpt lat="45.08902" lon="5.5957">
        <ele>1452</ele>
        <time>2020-08-23T11:09:12Z</time>
      </trkpt>
      <trkpt lat="45.08902" lon="5.5957">
        <ele>1452</ele>
        <time>2020-08-23T11:09:13Z</time>
      </trkpt>
      <trkpt lat="45.08902" lon="5.5957">
        <ele>1452.2</ele>
        <time>2020-08-23T11:09:14Z</time>
      </trkpt>
      <trkpt lat="45.08902" lon="5.5957">
        <ele>1452.2</ele>
        <time>2020-08-23T11:09:15Z</time>
      </trkpt>
      <trkpt lat="45.08904" lon="5.59574">
        <ele>1452.8</ele>
        <time>2020-08-23T11:09:21Z</time>
      </trkpt>
      <trkpt lat="45.08905" lon="5.59576">
        <ele>1452.8</ele>
        <time>2020-08-23T11:09:22Z</time>
      </trkpt>
      <trkpt lat="45.08905" lon="5.59576">
        <ele>1452.8</ele>
        <time>2020-08-23T11:09:23Z</time>
      </trkpt>
      <trkpt lat="45.08905" lon="5.59576">
        <ele>1452.8</ele>
        <time>2020-08-23T11:09:24Z</time>
      </trkpt>
      <trkpt lat="45.08905" lon="5.59577">
        <ele>1452.8</ele>
        <time>2020-08-23T11:09:25Z</time>
      </trkpt>
      <trkpt lat="45.08906" lon="5.59578">
        <ele>1452.8</ele>
        <time>2020-08-23T11:09:26Z</time>
      </trkpt>
      <trkpt lat="45.08906" lon="5.59578">
        <ele>1453</ele>
        <time>2020-08-23T11:09:27Z</time>
      </trkpt>
      <trkpt lat="45.08906" lon="5.59579">
        <ele>1453</ele>
        <time>2020-08-23T11:09:28Z</time>
      </trkpt>
      <trkpt lat="45.08907" lon="5.5958">
        <ele>1453</ele>
        <time>2020-08-23T11:09:29Z</time>
      </trkpt>
      <trkpt lat="45.08907" lon="5.59581">
        <ele>1453.2</ele>
        <time>2020-08-23T11:09:30Z</time>
      </trkpt>
      <trkpt lat="45.08907" lon="5.59581">
        <ele>1453.2</ele>
        <time>2020-08-23T11:09:31Z</time>
      </trkpt>
      <trkpt lat="45.08907" lon="5.59582">
        <ele>1453.4</ele>
        <time>2020-08-23T11:09:32Z</time>
      </trkpt>
      <trkpt lat="45.0891" lon="5.59587">
        <ele>1454</ele>
        <time>2020-08-23T11:09:45Z</time>
      </trkpt>
      <trkpt lat="45.08911" lon="5.5959">
        <ele>1454</ele>
        <time>2020-08-23T11:09:46Z</time>
      </trkpt>
      <trkpt lat="45.08912" lon="5.5959">
        <ele>1454</ele>
        <time>2020-08-23T11:09:47Z</time>
      </trkpt>
      <trkpt lat="45.08913" lon="5.59592">
        <ele>1454</ele>
        <time>2020-08-23T11:09:48Z</time>
      </trkpt>
      <trkpt lat="45.08916" lon="5.59594">
        <ele>1454</ele>
        <time>2020-08-23T11:09:49Z</time>
      </trkpt>
      <trkpt lat="45.08918" lon="5.59596">
        <ele>1454</ele>
        <time>2020-08-23T11:09:50Z</time>
      </trkpt>
      <trkpt lat="45.08921" lon="5.59599">
        <ele>1454</ele>
        <time>2020-08-23T11:09:51Z</time>
      </trkpt>
      <trkpt lat="45.08923" lon="5.59602">
        <ele>1454.2</ele>
        <time>2020-08-23T11:09:52Z</time>
      </trkpt>
      <trkpt lat="45.08923" lon="5.59603">
        <ele>1454.2</ele>
        <time>2020-08-23T11:09:53Z</time>
      </trkpt>
      <trkpt lat="45.08923" lon="5.59605">
        <ele>1454.2</ele>
        <time>2020-08-23T11:09:54Z</time>
      </trkpt>
      <trkpt lat="45.08923" lon="5.59607">
        <ele>1454.2</ele>
        <time>2020-08-23T11:09:55Z</time>
      </trkpt>
      <trkpt lat="45.08923" lon="5.59609">
        <ele>1454.2</ele>
        <time>2020-08-23T11:09:56Z</time>
      </trkpt>
      <trkpt lat="45.08924" lon="5.5961">
        <ele>1454.4</ele>
        <time>2020-08-23T11:09:57Z</time>
      </trkpt>
      <trkpt lat="45.08925" lon="5.59611">
        <ele>1454.4</ele>
        <time>2020-08-23T11:09:58Z</time>
      </trkpt>
      <trkpt lat="45.08926" lon="5.59612">
        <ele>1454.6</ele>
        <time>2020-08-23T11:09:59Z</time>
      </trkpt>
      <trkpt lat="45.08927" lon="5.59613">
        <ele>1454.6</ele>
        <time>2020-08-23T11:10:00Z</time>
      </trkpt>
      <trkpt lat="45.08927" lon="5.59614">
        <ele>1454.6</ele>
        <time>2020-08-23T11:10:01Z</time>
      </trkpt>
      <trkpt lat="45.08928" lon="5.59615">
        <ele>1454.8</ele>
        <time>2020-08-23T11:10:02Z</time>
      </trkpt>
      <trkpt lat="45.08929" lon="5.59616">
        <ele>1455</ele>
        <time>2020-08-23T11:10:03Z</time>
      </trkpt>
      <trkpt lat="45.08929" lon="5.59618">
        <ele>1455</ele>
        <time>2020-08-23T11:10:04Z</time>
      </trkpt>
      <trkpt lat="45.0893" lon="5.5962">
        <ele>1455.2</ele>
        <time>2020-08-23T11:10:05Z</time>
      </trkpt>
      <trkpt lat="45.08931" lon="5.59621">
        <ele>1455.2</ele>
        <time>2020-08-23T11:10:06Z</time>
      </trkpt>
      <trkpt lat="45.08931" lon="5.59623">
        <ele>1455.4</ele>
        <time>2020-08-23T11:10:07Z</time>
      </trkpt>
      <trkpt lat="45.08931" lon="5.59625">
        <ele>1455.6</ele>
        <time>2020-08-23T11:10:08Z</time>
      </trkpt>
      <trkpt lat="45.08932" lon="5.59626">
        <ele>1455.8</ele>
        <time>2020-08-23T11:10:09Z</time>
      </trkpt>
      <trkpt lat="45.08932" lon="5.59628">
        <ele>1455.8</ele>
        <time>2020-08-23T11:10:10Z</time>
      </trkpt>
      <trkpt lat="45.08933" lon="5.5963">
        <ele>1456</ele>
        <time>2020-08-23T11:10:11Z</time>
      </trkpt>
      <trkpt lat="45.08933" lon="5.59633">
        <ele>1456</ele>
        <time>2020-08-23T11:10:12Z</time>
      </trkpt>
      <trkpt lat="45.08933" lon="5.59634">
        <ele>1456.2</ele>
        <time>2020-08-23T11:10:13Z</time>
      </trkpt>
      <trkpt lat="45.08933" lon="5.59637">
        <ele>1456.4</ele>
        <time>2020-08-23T11:10:14Z</time>
      </trkpt>
      <trkpt lat="45.08933" lon="5.59639">
        <ele>1456.6</ele>
        <time>2020-08-23T11:10:15Z</time>
      </trkpt>
      <trkpt lat="45.08933" lon="5.59641">
        <ele>1456.6</ele>
        <time>2020-08-23T11:10:16Z</time>
      </trkpt>
      <trkpt lat="45.08934" lon="5.59644">
        <ele>1456.8</ele>
        <time>2020-08-23T11:10:17Z</time>
      </trkpt>
      <trkpt lat="45.08934" lon="5.59646">
        <ele>1456.8</ele>
        <time>2020-08-23T11:10:18Z</time>
      </trkpt>
      <trkpt lat="45.08934" lon="5.59649">
        <ele>1457</ele>
        <time>2020-08-23T11:10:19Z</time>
      </trkpt>
      <trkpt lat="45.08933" lon="5.59653">
        <ele>1457</ele>
        <time>2020-08-23T11:10:20Z</time>
      </trkpt>
      <trkpt lat="45.08934" lon="5.59657">
        <ele>1457</ele>
        <time>2020-08-23T11:10:21Z</time>
      </trkpt>
      <trkpt lat="45.08934" lon="5.59662">
        <ele>1457</ele>
        <time>2020-08-23T11:10:22Z</time>
      </trkpt>
      <trkpt lat="45.08935" lon="5.59667">
        <ele>1457.2</ele>
        <time>2020-08-23T11:10:23Z</time>
      </trkpt>
      <trkpt lat="45.08936" lon="5.59672">
        <ele>1457.2</ele>
        <time>2020-08-23T11:10:24Z</time>
      </trkpt>
      <trkpt lat="45.08936" lon="5.59675">
        <ele>1457.2</ele>
        <time>2020-08-23T11:10:25Z</time>
      </trkpt>
      <trkpt lat="45.08937" lon="5.59679">
        <ele>1457.2</ele>
        <time>2020-08-23T11:10:26Z</time>
      </trkpt>
      <trkpt lat="45.08938" lon="5.59681">
        <ele>1457.4</ele>
        <time>2020-08-23T11:10:27Z</time>
      </trkpt>
      <trkpt lat="45.08938" lon="5.59684">
        <ele>1457.4</ele>
        <time>2020-08-23T11:10:28Z</time>
      </trkpt>
      <trkpt lat="45.08939" lon="5.59687">
        <ele>1457.4</ele>
        <time>2020-08-23T11:10:29Z</time>
      </trkpt>
      <trkpt lat="45.0894" lon="5.59689">
        <ele>1457.6</ele>
        <time>2020-08-23T11:10:30Z</time>
      </trkpt>
      <trkpt lat="45.08941" lon="5.59691">
        <ele>1457.6</ele>
        <time>2020-08-23T11:10:31Z</time>
      </trkpt>
      <trkpt lat="45.08941" lon="5.59693">
        <ele>1457.6</ele>
        <time>2020-08-23T11:10:32Z</time>
      </trkpt>
      <trkpt lat="45.08942" lon="5.59695">
        <ele>1457.6</ele>
        <time>2020-08-23T11:10:33Z</time>
      </trkpt>
      <trkpt lat="45.08942" lon="5.59696">
        <ele>1457.8</ele>
        <time>2020-08-23T11:10:34Z</time>
      </trkpt>
      <trkpt lat="45.08942" lon="5.59698">
        <ele>1457.8</ele>
        <time>2020-08-23T11:10:35Z</time>
      </trkpt>
      <trkpt lat="45.08942" lon="5.597">
        <ele>1457.8</ele>
        <time>2020-08-23T11:10:36Z</time>
      </trkpt>
      <trkpt lat="45.08943" lon="5.59701">
        <ele>1458</ele>
        <time>2020-08-23T11:10:37Z</time>
      </trkpt>
      <trkpt lat="45.08944" lon="5.59703">
        <ele>1458.2</ele>
        <time>2020-08-23T11:10:38Z</time>
      </trkpt>
      <trkpt lat="45.08945" lon="5.59705">
        <ele>1458.2</ele>
        <time>2020-08-23T11:10:39Z</time>
      </trkpt>
      <trkpt lat="45.08946" lon="5.59706">
        <ele>1458.4</ele>
        <time>2020-08-23T11:10:40Z</time>
      </trkpt>
      <trkpt lat="45.08946" lon="5.59708">
        <ele>1458.4</ele>
        <time>2020-08-23T11:10:41Z</time>
      </trkpt>
      <trkpt lat="45.08947" lon="5.59709">
        <ele>1458.6</ele>
        <time>2020-08-23T11:10:42Z</time>
      </trkpt>
      <trkpt lat="45.08948" lon="5.59711">
        <ele>1458.6</ele>
        <time>2020-08-23T11:10:43Z</time>
      </trkpt>
      <trkpt lat="45.0895" lon="5.59714">
        <ele>1458.8</ele>
        <time>2020-08-23T11:10:44Z</time>
      </trkpt>
      <trkpt lat="45.08952" lon="5.59718">
        <ele>1458.8</ele>
        <time>2020-08-23T11:10:45Z</time>
      </trkpt>
      <trkpt lat="45.08957" lon="5.59724">
        <ele>1458.8</ele>
        <time>2020-08-23T11:10:46Z</time>
      </trkpt>
      <trkpt lat="45.0896" lon="5.59729">
        <ele>1459</ele>
        <time>2020-08-23T11:10:47Z</time>
      </trkpt>
      <trkpt lat="45.08962" lon="5.59734">
        <ele>1459</ele>
        <time>2020-08-23T11:10:48Z</time>
      </trkpt>
      <trkpt lat="45.08963" lon="5.59738">
        <ele>1459</ele>
        <time>2020-08-23T11:10:49Z</time>
      </trkpt>
      <trkpt lat="45.08963" lon="5.59741">
        <ele>1459.2</ele>
        <time>2020-08-23T11:10:50Z</time>
      </trkpt>
      <trkpt lat="45.08963" lon="5.59743">
        <ele>1459.2</ele>
        <time>2020-08-23T11:10:51Z</time>
      </trkpt>
      <trkpt lat="45.08962" lon="5.59745">
        <ele>1459.4</ele>
        <time>2020-08-23T11:10:52Z</time>
      </trkpt>
      <trkpt lat="45.08962" lon="5.59747">
        <ele>1459.4</ele>
        <time>2020-08-23T11:10:53Z</time>
      </trkpt>
      <trkpt lat="45.08961" lon="5.59748">
        <ele>1459.6</ele>
        <time>2020-08-23T11:10:54Z</time>
      </trkpt>
      <trkpt lat="45.08961" lon="5.5975">
        <ele>1459.6</ele>
        <time>2020-08-23T11:10:55Z</time>
      </trkpt>
      <trkpt lat="45.0896" lon="5.59752">
        <ele>1459.8</ele>
        <time>2020-08-23T11:10:56Z</time>
      </trkpt>
      <trkpt lat="45.0896" lon="5.59753">
        <ele>1459.8</ele>
        <time>2020-08-23T11:10:57Z</time>
      </trkpt>
      <trkpt lat="45.0896" lon="5.59754">
        <ele>1460</ele>
        <time>2020-08-23T11:10:58Z</time>
      </trkpt>
      <trkpt lat="45.08959" lon="5.59755">
        <ele>1460</ele>
        <time>2020-08-23T11:10:59Z</time>
      </trkpt>
      <trkpt lat="45.08959" lon="5.59757">
        <ele>1460.2</ele>
        <time>2020-08-23T11:11:00Z</time>
      </trkpt>
      <trkpt lat="45.08958" lon="5.59758">
        <ele>1460.2</ele>
        <time>2020-08-23T11:11:01Z</time>
      </trkpt>
      <trkpt lat="45.08957" lon="5.5976">
        <ele>1460.4</ele>
        <time>2020-08-23T11:11:02Z</time>
      </trkpt>
      <trkpt lat="45.08957" lon="5.59762">
        <ele>1460.6</ele>
        <time>2020-08-23T11:11:03Z</time>
      </trkpt>
      <trkpt lat="45.08957" lon="5.59764">
        <ele>1460.6</ele>
        <time>2020-08-23T11:11:04Z</time>
      </trkpt>
      <trkpt lat="45.08957" lon="5.59765">
        <ele>1460.8</ele>
        <time>2020-08-23T11:11:05Z</time>
      </trkpt>
      <trkpt lat="45.08957" lon="5.59766">
        <ele>1461</ele>
        <time>2020-08-23T11:11:06Z</time>
      </trkpt>
      <trkpt lat="45.08957" lon="5.59768">
        <ele>1461.2</ele>
        <time>2020-08-23T11:11:07Z</time>
      </trkpt>
      <trkpt lat="45.08957" lon="5.59769">
        <ele>1461.4</ele>
        <time>2020-08-23T11:11:08Z</time>
      </trkpt>
      <trkpt lat="45.08956" lon="5.59771">
        <ele>1461.6</ele>
        <time>2020-08-23T11:11:09Z</time>
      </trkpt>
      <trkpt lat="45.08956" lon="5.59772">
        <ele>1461.6</ele>
        <time>2020-08-23T11:11:10Z</time>
      </trkpt>
      <trkpt lat="45.08956" lon="5.59773">
        <ele>1461.8</ele>
        <time>2020-08-23T11:11:11Z</time>
      </trkpt>
      <trkpt lat="45.08955" lon="5.59775">
        <ele>1462</ele>
        <time>2020-08-23T11:11:12Z</time>
      </trkpt>
      <trkpt lat="45.08955" lon="5.59777">
        <ele>1462.2</ele>
        <time>2020-08-23T11:11:13Z</time>
      </trkpt>
      <trkpt lat="45.08954" lon="5.59778">
        <ele>1462.4</ele>
        <time>2020-08-23T11:11:14Z</time>
      </trkpt>
      <trkpt lat="45.08954" lon="5.5978">
        <ele>1462.4</ele>
        <time>2020-08-23T11:11:15Z</time>
      </trkpt>
      <trkpt lat="45.08953" lon="5.59781">
        <ele>1462.6</ele>
        <time>2020-08-23T11:11:16Z</time>
      </trkpt>
      <trkpt lat="45.08953" lon="5.59782">
        <ele>1462.8</ele>
        <time>2020-08-23T11:11:17Z</time>
      </trkpt>
      <trkpt lat="45.08952" lon="5.59783">
        <ele>1463</ele>
        <time>2020-08-23T11:11:18Z</time>
      </trkpt>
      <trkpt lat="45.08951" lon="5.59784">
        <ele>1463</ele>
        <time>2020-08-23T11:11:19Z</time>
      </trkpt>
      <trkpt lat="45.08951" lon="5.59786">
        <ele>1463.2</ele>
        <time>2020-08-23T11:11:20Z</time>
      </trkpt>
      <trkpt lat="45.0895" lon="5.59787">
        <ele>1463.4</ele>
        <time>2020-08-23T11:11:21Z</time>
      </trkpt>
      <trkpt lat="45.0895" lon="5.59789">
        <ele>1463.6</ele>
        <time>2020-08-23T11:11:22Z</time>
      </trkpt>
      <trkpt lat="45.0895" lon="5.5979">
        <ele>1463.8</ele>
        <time>2020-08-23T11:11:23Z</time>
      </trkpt>
      <trkpt lat="45.0895" lon="5.59792">
        <ele>1464</ele>
        <time>2020-08-23T11:11:24Z</time>
      </trkpt>
      <trkpt lat="45.0895" lon="5.59793">
        <ele>1464.2</ele>
        <time>2020-08-23T11:11:25Z</time>
      </trkpt>
      <trkpt lat="45.08949" lon="5.59795">
        <ele>1464.2</ele>
        <time>2020-08-23T11:11:26Z</time>
      </trkpt>
      <trkpt lat="45.08949" lon="5.59796">
        <ele>1464.4</ele>
        <time>2020-08-23T11:11:27Z</time>
      </trkpt>
      <trkpt lat="45.08949" lon="5.59798">
        <ele>1464.6</ele>
        <time>2020-08-23T11:11:28Z</time>
      </trkpt>
      <trkpt lat="45.08949" lon="5.59799">
        <ele>1464.8</ele>
        <time>2020-08-23T11:11:29Z</time>
      </trkpt>
      <trkpt lat="45.08949" lon="5.598">
        <ele>1465</ele>
        <time>2020-08-23T11:11:30Z</time>
      </trkpt>
      <trkpt lat="45.08949" lon="5.59802">
        <ele>1465.2</ele>
        <time>2020-08-23T11:11:31Z</time>
      </trkpt>
      <trkpt lat="45.08948" lon="5.59804">
        <ele>1465.2</ele>
        <time>2020-08-23T11:11:32Z</time>
      </trkpt>
      <trkpt lat="45.08948" lon="5.59805">
        <ele>1465.4</ele>
        <time>2020-08-23T11:11:33Z</time>
      </trkpt>
      <trkpt lat="45.08947" lon="5.59807">
        <ele>1465.6</ele>
        <time>2020-08-23T11:11:34Z</time>
      </trkpt>
      <trkpt lat="45.08947" lon="5.59808">
        <ele>1465.6</ele>
        <time>2020-08-23T11:11:35Z</time>
      </trkpt>
      <trkpt lat="45.08947" lon="5.5981">
        <ele>1465.8</ele>
        <time>2020-08-23T11:11:36Z</time>
      </trkpt>
      <trkpt lat="45.08946" lon="5.59811">
        <ele>1466</ele>
        <time>2020-08-23T11:11:37Z</time>
      </trkpt>
      <trkpt lat="45.08946" lon="5.59813">
        <ele>1466.2</ele>
        <time>2020-08-23T11:11:38Z</time>
      </trkpt>
      <trkpt lat="45.08946" lon="5.59815">
        <ele>1466.4</ele>
        <time>2020-08-23T11:11:39Z</time>
      </trkpt>
      <trkpt lat="45.08946" lon="5.59817">
        <ele>1466.4</ele>
        <time>2020-08-23T11:11:40Z</time>
      </trkpt>
      <trkpt lat="45.08945" lon="5.59818">
        <ele>1466.6</ele>
        <time>2020-08-23T11:11:41Z</time>
      </trkpt>
      <trkpt lat="45.08945" lon="5.5982">
        <ele>1466.8</ele>
        <time>2020-08-23T11:11:42Z</time>
      </trkpt>
      <trkpt lat="45.08945" lon="5.59822">
        <ele>1467</ele>
        <time>2020-08-23T11:11:43Z</time>
      </trkpt>
      <trkpt lat="45.08945" lon="5.59824">
        <ele>1467.2</ele>
        <time>2020-08-23T11:11:44Z</time>
      </trkpt>
      <trkpt lat="45.08945" lon="5.59826">
        <ele>1467.2</ele>
        <time>2020-08-23T11:11:45Z</time>
      </trkpt>
      <trkpt lat="45.08944" lon="5.59827">
        <ele>1467.4</ele>
        <time>2020-08-23T11:11:46Z</time>
      </trkpt>
      <trkpt lat="45.08944" lon="5.59829">
        <ele>1467.6</ele>
        <time>2020-08-23T11:11:47Z</time>
      </trkpt>
      <trkpt lat="45.08944" lon="5.59831">
        <ele>1467.8</ele>
        <time>2020-08-23T11:11:48Z</time>
      </trkpt>
      <trkpt lat="45.08944" lon="5.59833">
        <ele>1467.8</ele>
        <time>2020-08-23T11:11:49Z</time>
      </trkpt>
      <trkpt lat="45.08943" lon="5.59835">
        <ele>1468</ele>
        <time>2020-08-23T11:11:50Z</time>
      </trkpt>
      <trkpt lat="45.08943" lon="5.59837">
        <ele>1468.2</ele>
        <time>2020-08-23T11:11:51Z</time>
      </trkpt>
      <trkpt lat="45.08943" lon="5.59839">
        <ele>1468.2</ele>
        <time>2020-08-23T11:11:52Z</time>
      </trkpt>
      <trkpt lat="45.08943" lon="5.59841">
        <ele>1468.4</ele>
        <time>2020-08-23T11:11:53Z</time>
      </trkpt>
      <trkpt lat="45.08943" lon="5.59843">
        <ele>1468.6</ele>
        <time>2020-08-23T11:11:54Z</time>
      </trkpt>
      <trkpt lat="45.08943" lon="5.59844">
        <ele>1468.6</ele>
        <time>2020-08-23T11:11:55Z</time>
      </trkpt>
      <trkpt lat="45.08943" lon="5.59847">
        <ele>1468.8</ele>
        <time>2020-08-23T11:11:56Z</time>
      </trkpt>
      <trkpt lat="45.08943" lon="5.59849">
        <ele>1469</ele>
        <time>2020-08-23T11:11:57Z</time>
      </trkpt>
      <trkpt lat="45.08944" lon="5.5985">
        <ele>1469.2</ele>
        <time>2020-08-23T11:11:58Z</time>
      </trkpt>
      <trkpt lat="45.08944" lon="5.59852">
        <ele>1469.2</ele>
        <time>2020-08-23T11:11:59Z</time>
      </trkpt>
      <trkpt lat="45.08944" lon="5.59854">
        <ele>1469.4</ele>
        <time>2020-08-23T11:12:00Z</time>
      </trkpt>
      <trkpt lat="45.08944" lon="5.59856">
        <ele>1469.6</ele>
        <time>2020-08-23T11:12:01Z</time>
      </trkpt>
      <trkpt lat="45.08944" lon="5.59858">
        <ele>1469.6</ele>
        <time>2020-08-23T11:12:02Z</time>
      </trkpt>
      <trkpt lat="45.08944" lon="5.59859">
        <ele>1469.8</ele>
        <time>2020-08-23T11:12:03Z</time>
      </trkpt>
      <trkpt lat="45.08944" lon="5.59861">
        <ele>1470</ele>
        <time>2020-08-23T11:12:04Z</time>
      </trkpt>
      <trkpt lat="45.08944" lon="5.59862">
        <ele>1470</ele>
        <time>2020-08-23T11:12:05Z</time>
      </trkpt>
      <trkpt lat="45.08944" lon="5.59864">
        <ele>1470.2</ele>
        <time>2020-08-23T11:12:06Z</time>
      </trkpt>
      <trkpt lat="45.08944" lon="5.59865">
        <ele>1470.2</ele>
        <time>2020-08-23T11:12:07Z</time>
      </trkpt>
      <trkpt lat="45.08944" lon="5.59867">
        <ele>1470.4</ele>
        <time>2020-08-23T11:12:08Z</time>
      </trkpt>
      <trkpt lat="45.08944" lon="5.59868">
        <ele>1470.6</ele>
        <time>2020-08-23T11:12:09Z</time>
      </trkpt>
      <trkpt lat="45.08945" lon="5.59869">
        <ele>1470.8</ele>
        <time>2020-08-23T11:12:10Z</time>
      </trkpt>
      <trkpt lat="45.08945" lon="5.5987">
        <ele>1470.8</ele>
        <time>2020-08-23T11:12:11Z</time>
      </trkpt>
      <trkpt lat="45.08946" lon="5.59871">
        <ele>1471</ele>
        <time>2020-08-23T11:12:12Z</time>
      </trkpt>
      <trkpt lat="45.08946" lon="5.59873">
        <ele>1471</ele>
        <time>2020-08-23T11:12:13Z</time>
      </trkpt>
      <trkpt lat="45.08946" lon="5.59874">
        <ele>1471.2</ele>
        <time>2020-08-23T11:12:14Z</time>
      </trkpt>
      <trkpt lat="45.08947" lon="5.59876">
        <ele>1471.4</ele>
        <time>2020-08-23T11:12:15Z</time>
      </trkpt>
      <trkpt lat="45.08947" lon="5.59878">
        <ele>1471.4</ele>
        <time>2020-08-23T11:12:16Z</time>
      </trkpt>
      <trkpt lat="45.08947" lon="5.59879">
        <ele>1471.6</ele>
        <time>2020-08-23T11:12:17Z</time>
      </trkpt>
      <trkpt lat="45.08948" lon="5.5988">
        <ele>1471.8</ele>
        <time>2020-08-23T11:12:18Z</time>
      </trkpt>
      <trkpt lat="45.08949" lon="5.59882">
        <ele>1472</ele>
        <time>2020-08-23T11:12:19Z</time>
      </trkpt>
      <trkpt lat="45.0895" lon="5.59884">
        <ele>1472</ele>
        <time>2020-08-23T11:12:20Z</time>
      </trkpt>
      <trkpt lat="45.08951" lon="5.59886">
        <ele>1472</ele>
        <time>2020-08-23T11:12:21Z</time>
      </trkpt>
      <trkpt lat="45.08951" lon="5.59888">
        <ele>1472.2</ele>
        <time>2020-08-23T11:12:22Z</time>
      </trkpt>
      <trkpt lat="45.08951" lon="5.5989">
        <ele>1472.4</ele>
        <time>2020-08-23T11:12:23Z</time>
      </trkpt>
      <trkpt lat="45.08951" lon="5.59892">
        <ele>1472.6</ele>
        <time>2020-08-23T11:12:24Z</time>
      </trkpt>
      <trkpt lat="45.08951" lon="5.59894">
        <ele>1472.6</ele>
        <time>2020-08-23T11:12:25Z</time>
      </trkpt>
      <trkpt lat="45.08951" lon="5.59896">
        <ele>1472.8</ele>
        <time>2020-08-23T11:12:26Z</time>
      </trkpt>
      <trkpt lat="45.08951" lon="5.59897">
        <ele>1473</ele>
        <time>2020-08-23T11:12:27Z</time>
      </trkpt>
      <trkpt lat="45.08952" lon="5.59899">
        <ele>1473</ele>
        <time>2020-08-23T11:12:28Z</time>
      </trkpt>
      <trkpt lat="45.08952" lon="5.59901">
        <ele>1473.2</ele>
        <time>2020-08-23T11:12:29Z</time>
      </trkpt>
      <trkpt lat="45.08953" lon="5.59902">
        <ele>1473.4</ele>
        <time>2020-08-23T11:12:30Z</time>
      </trkpt>
      <trkpt lat="45.08954" lon="5.59904">
        <ele>1473.6</ele>
        <time>2020-08-23T11:12:31Z</time>
      </trkpt>
      <trkpt lat="45.08954" lon="5.59906">
        <ele>1473.6</ele>
        <time>2020-08-23T11:12:32Z</time>
      </trkpt>
      <trkpt lat="45.08954" lon="5.59908">
        <ele>1473.8</ele>
        <time>2020-08-23T11:12:33Z</time>
      </trkpt>
      <trkpt lat="45.08955" lon="5.59911">
        <ele>1474</ele>
        <time>2020-08-23T11:12:34Z</time>
      </trkpt>
      <trkpt lat="45.08957" lon="5.59912">
        <ele>1474.2</ele>
        <time>2020-08-23T11:12:35Z</time>
      </trkpt>
      <trkpt lat="45.08958" lon="5.59914">
        <ele>1474.2</ele>
        <time>2020-08-23T11:12:36Z</time>
      </trkpt>
      <trkpt lat="45.0896" lon="5.59916">
        <ele>1474.4</ele>
        <time>2020-08-23T11:12:37Z</time>
      </trkpt>
      <trkpt lat="45.08962" lon="5.59918">
        <ele>1474.6</ele>
        <time>2020-08-23T11:12:38Z</time>
      </trkpt>
      <trkpt lat="45.08963" lon="5.5992">
        <ele>1474.6</ele>
        <time>2020-08-23T11:12:39Z</time>
      </trkpt>
      <trkpt lat="45.08964" lon="5.59923">
        <ele>1474.8</ele>
        <time>2020-08-23T11:12:40Z</time>
      </trkpt>
      <trkpt lat="45.08965" lon="5.59927">
        <ele>1474.8</ele>
        <time>2020-08-23T11:12:41Z</time>
      </trkpt>
      <trkpt lat="45.08966" lon="5.59931">
        <ele>1474.8</ele>
        <time>2020-08-23T11:12:42Z</time>
      </trkpt>
      <trkpt lat="45.08967" lon="5.59935">
        <ele>1475</ele>
        <time>2020-08-23T11:12:43Z</time>
      </trkpt>
      <trkpt lat="45.08968" lon="5.59939">
        <ele>1475</ele>
        <time>2020-08-23T11:12:44Z</time>
      </trkpt>
      <trkpt lat="45.0897" lon="5.59942">
        <ele>1475.2</ele>
        <time>2020-08-23T11:12:45Z</time>
      </trkpt>
      <trkpt lat="45.08971" lon="5.59946">
        <ele>1475.2</ele>
        <time>2020-08-23T11:12:46Z</time>
      </trkpt>
      <trkpt lat="45.08973" lon="5.59948">
        <ele>1475.4</ele>
        <time>2020-08-23T11:12:47Z</time>
      </trkpt>
      <trkpt lat="45.08975" lon="5.59951">
        <ele>1475.6</ele>
        <time>2020-08-23T11:12:48Z</time>
      </trkpt>
      <trkpt lat="45.08977" lon="5.59952">
        <ele>1475.6</ele>
        <time>2020-08-23T11:12:49Z</time>
      </trkpt>
      <trkpt lat="45.08979" lon="5.59953">
        <ele>1475.8</ele>
        <time>2020-08-23T11:12:50Z</time>
      </trkpt>
      <trkpt lat="45.08981" lon="5.59953">
        <ele>1476</ele>
        <time>2020-08-23T11:12:51Z</time>
      </trkpt>
      <trkpt lat="45.08983" lon="5.59954">
        <ele>1476.2</ele>
        <time>2020-08-23T11:12:52Z</time>
      </trkpt>
      <trkpt lat="45.08984" lon="5.59955">
        <ele>1476.2</ele>
        <time>2020-08-23T11:12:53Z</time>
      </trkpt>
      <trkpt lat="45.08985" lon="5.59955">
        <ele>1476.4</ele>
        <time>2020-08-23T11:12:54Z</time>
      </trkpt>
      <trkpt lat="45.08986" lon="5.59955">
        <ele>1476.6</ele>
        <time>2020-08-23T11:12:55Z</time>
      </trkpt>
      <trkpt lat="45.08988" lon="5.59955">
        <ele>1476.8</ele>
        <time>2020-08-23T11:12:56Z</time>
      </trkpt>
      <trkpt lat="45.0899" lon="5.59956">
        <ele>1476.8</ele>
        <time>2020-08-23T11:12:57Z</time>
      </trkpt>
      <trkpt lat="45.08992" lon="5.59958">
        <ele>1477</ele>
        <time>2020-08-23T11:12:58Z</time>
      </trkpt>
      <trkpt lat="45.08994" lon="5.59961">
        <ele>1477</ele>
        <time>2020-08-23T11:12:59Z</time>
      </trkpt>
      <trkpt lat="45.08997" lon="5.59964">
        <ele>1477.2</ele>
        <time>2020-08-23T11:13:00Z</time>
      </trkpt>
      <trkpt lat="45.08998" lon="5.59966">
        <ele>1477.2</ele>
        <time>2020-08-23T11:13:01Z</time>
      </trkpt>
      <trkpt lat="45.09" lon="5.59967">
        <ele>1477.4</ele>
        <time>2020-08-23T11:13:02Z</time>
      </trkpt>
      <trkpt lat="45.09002" lon="5.59968">
        <ele>1477.6</ele>
        <time>2020-08-23T11:13:03Z</time>
      </trkpt>
      <trkpt lat="45.09004" lon="5.59969">
        <ele>1477.8</ele>
        <time>2020-08-23T11:13:04Z</time>
      </trkpt>
      <trkpt lat="45.09005" lon="5.5997">
        <ele>1477.8</ele>
        <time>2020-08-23T11:13:05Z</time>
      </trkpt>
      <trkpt lat="45.09007" lon="5.59972">
        <ele>1478</ele>
        <time>2020-08-23T11:13:06Z</time>
      </trkpt>
      <trkpt lat="45.09008" lon="5.59974">
        <ele>1478.2</ele>
        <time>2020-08-23T11:13:07Z</time>
      </trkpt>
      <trkpt lat="45.09009" lon="5.59975">
        <ele>1478.4</ele>
        <time>2020-08-23T11:13:08Z</time>
      </trkpt>
      <trkpt lat="45.0901" lon="5.59976">
        <ele>1478.6</ele>
        <time>2020-08-23T11:13:09Z</time>
      </trkpt>
      <trkpt lat="45.09011" lon="5.59978">
        <ele>1478.6</ele>
        <time>2020-08-23T11:13:10Z</time>
      </trkpt>
      <trkpt lat="45.09012" lon="5.5998">
        <ele>1478.4</ele>
        <time>2020-08-23T11:13:11Z</time>
      </trkpt>
      <trkpt lat="45.09013" lon="5.59982">
        <ele>1478.2</ele>
        <time>2020-08-23T11:13:12Z</time>
      </trkpt>
      <trkpt lat="45.09014" lon="5.59984">
        <ele>1478.2</ele>
        <time>2020-08-23T11:13:13Z</time>
      </trkpt>
      <trkpt lat="45.09015" lon="5.59986">
        <ele>1478.2</ele>
        <time>2020-08-23T11:13:14Z</time>
      </trkpt>
      <trkpt lat="45.09017" lon="5.59988">
        <ele>1478.6</ele>
        <time>2020-08-23T11:13:15Z</time>
      </trkpt>
      <trkpt lat="45.09018" lon="5.5999">
        <ele>1478.8</ele>
        <time>2020-08-23T11:13:16Z</time>
      </trkpt>
      <trkpt lat="45.09022" lon="5.59992">
        <ele>1478.8</ele>
        <time>2020-08-23T11:13:17Z</time>
      </trkpt>
      <trkpt lat="45.09027" lon="5.59995">
        <ele>1479</ele>
        <time>2020-08-23T11:13:18Z</time>
      </trkpt>
      <trkpt lat="45.09032" lon="5.59997">
        <ele>1479.2</ele>
        <time>2020-08-23T11:13:19Z</time>
      </trkpt>
      <trkpt lat="45.09038" lon="5.59998">
        <ele>1479.2</ele>
        <time>2020-08-23T11:13:20Z</time>
      </trkpt>
      <trkpt lat="45.09042" lon="5.6">
        <ele>1479.4</ele>
        <time>2020-08-23T11:13:21Z</time>
      </trkpt>
      <trkpt lat="45.09045" lon="5.6">
        <ele>1479.4</ele>
        <time>2020-08-23T11:13:22Z</time>
      </trkpt>
      <trkpt lat="45.09048" lon="5.6">
        <ele>1479.6</ele>
        <time>2020-08-23T11:13:23Z</time>
      </trkpt>
      <trkpt lat="45.0905" lon="5.6">
        <ele>1479.6</ele>
        <time>2020-08-23T11:13:24Z</time>
      </trkpt>
      <trkpt lat="45.09052" lon="5.6">
        <ele>1479.8</ele>
        <time>2020-08-23T11:13:25Z</time>
      </trkpt>
      <trkpt lat="45.09055" lon="5.6">
        <ele>1480</ele>
        <time>2020-08-23T11:13:26Z</time>
      </trkpt>
      <trkpt lat="45.09058" lon="5.6">
        <ele>1480</ele>
        <time>2020-08-23T11:13:27Z</time>
      </trkpt>
      <trkpt lat="45.0906" lon="5.6">
        <ele>1480.2</ele>
        <time>2020-08-23T11:13:28Z</time>
      </trkpt>
      <trkpt lat="45.09063" lon="5.6">
        <ele>1480.4</ele>
        <time>2020-08-23T11:13:29Z</time>
      </trkpt>
      <trkpt lat="45.09065" lon="5.6">
        <ele>1480.4</ele>
        <time>2020-08-23T11:13:30Z</time>
      </trkpt>
      <trkpt lat="45.09068" lon="5.59999">
        <ele>1480.6</ele>
        <time>2020-08-23T11:13:31Z</time>
      </trkpt>
      <trkpt lat="45.09071" lon="5.59999">
        <ele>1480.8</ele>
        <time>2020-08-23T11:13:32Z</time>
      </trkpt>
      <trkpt lat="45.09073" lon="5.59999">
        <ele>1480.8</ele>
        <time>2020-08-23T11:13:33Z</time>
      </trkpt>
      <trkpt lat="45.09076" lon="5.59999">
        <ele>1481</ele>
        <time>2020-08-23T11:13:34Z</time>
      </trkpt>
      <trkpt lat="45.09078" lon="5.59999">
        <ele>1481.2</ele>
        <time>2020-08-23T11:13:35Z</time>
      </trkpt>
      <trkpt lat="45.0908" lon="5.6">
        <ele>1481.4</ele>
        <time>2020-08-23T11:13:36Z</time>
      </trkpt>
      <trkpt lat="45.09083" lon="5.6">
        <ele>1481.6</ele>
        <time>2020-08-23T11:13:37Z</time>
      </trkpt>
      <trkpt lat="45.09084" lon="5.60001">
        <ele>1481.6</ele>
        <time>2020-08-23T11:13:38Z</time>
      </trkpt>
      <trkpt lat="45.09086" lon="5.60002">
        <ele>1481.8</ele>
        <time>2020-08-23T11:13:39Z</time>
      </trkpt>
      <trkpt lat="45.09088" lon="5.60003">
        <ele>1481.8</ele>
        <time>2020-08-23T11:13:40Z</time>
      </trkpt>
      <trkpt lat="45.0909" lon="5.60004">
        <ele>1482</ele>
        <time>2020-08-23T11:13:41Z</time>
      </trkpt>
      <trkpt lat="45.09094" lon="5.60006">
        <ele>1482.2</ele>
        <time>2020-08-23T11:13:42Z</time>
      </trkpt>
      <trkpt lat="45.09098" lon="5.60008">
        <ele>1482.2</ele>
        <time>2020-08-23T11:13:43Z</time>
      </trkpt>
      <trkpt lat="45.09103" lon="5.60008">
        <ele>1482.4</ele>
        <time>2020-08-23T11:13:44Z</time>
      </trkpt>
      <trkpt lat="45.09106" lon="5.60008">
        <ele>1482.6</ele>
        <time>2020-08-23T11:13:45Z</time>
      </trkpt>
      <trkpt lat="45.09109" lon="5.60008">
        <ele>1482.6</ele>
        <time>2020-08-23T11:13:46Z</time>
      </trkpt>
      <trkpt lat="45.09111" lon="5.60007">
        <ele>1482.8</ele>
        <time>2020-08-23T11:13:47Z</time>
      </trkpt>
      <trkpt lat="45.09113" lon="5.60006">
        <ele>1483</ele>
        <time>2020-08-23T11:13:48Z</time>
      </trkpt>
      <trkpt lat="45.09115" lon="5.60005">
        <ele>1483</ele>
        <time>2020-08-23T11:13:49Z</time>
      </trkpt>
      <trkpt lat="45.09117" lon="5.60005">
        <ele>1483.2</ele>
        <time>2020-08-23T11:13:50Z</time>
      </trkpt>
      <trkpt lat="45.09118" lon="5.60004">
        <ele>1483.4</ele>
        <time>2020-08-23T11:13:51Z</time>
      </trkpt>
      <trkpt lat="45.0912" lon="5.60004">
        <ele>1483.4</ele>
        <time>2020-08-23T11:13:52Z</time>
      </trkpt>
      <trkpt lat="45.09121" lon="5.60004">
        <ele>1483.6</ele>
        <time>2020-08-23T11:13:53Z</time>
      </trkpt>
      <trkpt lat="45.09123" lon="5.60004">
        <ele>1483.8</ele>
        <time>2020-08-23T11:13:54Z</time>
      </trkpt>
      <trkpt lat="45.09124" lon="5.60004">
        <ele>1484</ele>
        <time>2020-08-23T11:13:55Z</time>
      </trkpt>
      <trkpt lat="45.09125" lon="5.60004">
        <ele>1484</ele>
        <time>2020-08-23T11:13:56Z</time>
      </trkpt>
      <trkpt lat="45.09127" lon="5.60003">
        <ele>1484.2</ele>
        <time>2020-08-23T11:13:57Z</time>
      </trkpt>
      <trkpt lat="45.09128" lon="5.60003">
        <ele>1484.4</ele>
        <time>2020-08-23T11:13:58Z</time>
      </trkpt>
      <trkpt lat="45.09129" lon="5.60003">
        <ele>1484.4</ele>
        <time>2020-08-23T11:13:59Z</time>
      </trkpt>
      <trkpt lat="45.0913" lon="5.60003">
        <ele>1484.6</ele>
        <time>2020-08-23T11:14:00Z</time>
      </trkpt>
      <trkpt lat="45.09132" lon="5.60003">
        <ele>1484.8</ele>
        <time>2020-08-23T11:14:01Z</time>
      </trkpt>
      <trkpt lat="45.09133" lon="5.60003">
        <ele>1485</ele>
        <time>2020-08-23T11:14:02Z</time>
      </trkpt>
      <trkpt lat="45.09135" lon="5.60003">
        <ele>1485</ele>
        <time>2020-08-23T11:14:03Z</time>
      </trkpt>
      <trkpt lat="45.09136" lon="5.60003">
        <ele>1485.2</ele>
        <time>2020-08-23T11:14:04Z</time>
      </trkpt>
      <trkpt lat="45.09137" lon="5.60003">
        <ele>1485.2</ele>
        <time>2020-08-23T11:14:05Z</time>
      </trkpt>
      <trkpt lat="45.09138" lon="5.60004">
        <ele>1485.4</ele>
        <time>2020-08-23T11:14:06Z</time>
      </trkpt>
      <trkpt lat="45.09139" lon="5.60004">
        <ele>1485.6</ele>
        <time>2020-08-23T11:14:07Z</time>
      </trkpt>
      <trkpt lat="45.0914" lon="5.60004">
        <ele>1485.8</ele>
        <time>2020-08-23T11:14:08Z</time>
      </trkpt>
      <trkpt lat="45.09141" lon="5.60004">
        <ele>1486</ele>
        <time>2020-08-23T11:14:09Z</time>
      </trkpt>
      <trkpt lat="45.09143" lon="5.60004">
        <ele>1486.2</ele>
        <time>2020-08-23T11:14:10Z</time>
      </trkpt>
      <trkpt lat="45.09144" lon="5.60004">
        <ele>1486.2</ele>
        <time>2020-08-23T11:14:11Z</time>
      </trkpt>
      <trkpt lat="45.09145" lon="5.60004">
        <ele>1486.4</ele>
        <time>2020-08-23T11:14:12Z</time>
      </trkpt>
      <trkpt lat="45.09147" lon="5.60004">
        <ele>1486.4</ele>
        <time>2020-08-23T11:14:13Z</time>
      </trkpt>
      <trkpt lat="45.09148" lon="5.60004">
        <ele>1486.6</ele>
        <time>2020-08-23T11:14:14Z</time>
      </trkpt>
      <trkpt lat="45.0915" lon="5.60004">
        <ele>1486.6</ele>
        <time>2020-08-23T11:14:15Z</time>
      </trkpt>
      <trkpt lat="45.09151" lon="5.60004">
        <ele>1486.6</ele>
        <time>2020-08-23T11:14:16Z</time>
      </trkpt>
      <trkpt lat="45.09153" lon="5.60005">
        <ele>1486.8</ele>
        <time>2020-08-23T11:14:17Z</time>
      </trkpt>
      <trkpt lat="45.09154" lon="5.60005">
        <ele>1486.8</ele>
        <time>2020-08-23T11:14:18Z</time>
      </trkpt>
      <trkpt lat="45.09156" lon="5.60006">
        <ele>1486.8</ele>
        <time>2020-08-23T11:14:19Z</time>
      </trkpt>
      <trkpt lat="45.09157" lon="5.60006">
        <ele>1487</ele>
        <time>2020-08-23T11:14:20Z</time>
      </trkpt>
      <trkpt lat="45.09158" lon="5.60007">
        <ele>1487</ele>
        <time>2020-08-23T11:14:21Z</time>
      </trkpt>
      <trkpt lat="45.0916" lon="5.60007">
        <ele>1487</ele>
        <time>2020-08-23T11:14:22Z</time>
      </trkpt>
      <trkpt lat="45.09161" lon="5.60008">
        <ele>1487.2</ele>
        <time>2020-08-23T11:14:23Z</time>
      </trkpt>
      <trkpt lat="45.09162" lon="5.60009">
        <ele>1487.2</ele>
        <time>2020-08-23T11:14:24Z</time>
      </trkpt>
      <trkpt lat="45.09163" lon="5.60009">
        <ele>1487.2</ele>
        <time>2020-08-23T11:14:25Z</time>
      </trkpt>
      <trkpt lat="45.09164" lon="5.6001">
        <ele>1487.2</ele>
        <time>2020-08-23T11:14:26Z</time>
      </trkpt>
      <trkpt lat="45.09166" lon="5.60011">
        <ele>1487.2</ele>
        <time>2020-08-23T11:14:27Z</time>
      </trkpt>
      <trkpt lat="45.09167" lon="5.60012">
        <ele>1487.2</ele>
        <time>2020-08-23T11:14:28Z</time>
      </trkpt>
      <trkpt lat="45.09168" lon="5.60012">
        <ele>1487.2</ele>
        <time>2020-08-23T11:14:29Z</time>
      </trkpt>
      <trkpt lat="45.09169" lon="5.60012">
        <ele>1487.4</ele>
        <time>2020-08-23T11:14:30Z</time>
      </trkpt>
      <trkpt lat="45.09169" lon="5.60012">
        <ele>1487.4</ele>
        <time>2020-08-23T11:14:31Z</time>
      </trkpt>
      <trkpt lat="45.09169" lon="5.60013">
        <ele>1487.4</ele>
        <time>2020-08-23T11:14:32Z</time>
      </trkpt>
      <trkpt lat="45.09169" lon="5.60013">
        <ele>1487.4</ele>
        <time>2020-08-23T11:14:33Z</time>
      </trkpt>
      <trkpt lat="45.0917" lon="5.60014">
        <ele>1487.4</ele>
        <time>2020-08-23T11:15:27Z</time>
      </trkpt>
      <trkpt lat="45.09171" lon="5.60014">
        <ele>1487.4</ele>
        <time>2020-08-23T11:15:28Z</time>
      </trkpt>
      <trkpt lat="45.09172" lon="5.60013">
        <ele>1487.4</ele>
        <time>2020-08-23T11:15:29Z</time>
      </trkpt>
      <trkpt lat="45.09173" lon="5.60012">
        <ele>1487.4</ele>
        <time>2020-08-23T11:15:30Z</time>
      </trkpt>
      <trkpt lat="45.09174" lon="5.60009">
        <ele>1487.2</ele>
        <time>2020-08-23T11:15:31Z</time>
      </trkpt>
      <trkpt lat="45.09175" lon="5.60007">
        <ele>1487.2</ele>
        <time>2020-08-23T11:15:32Z</time>
      </trkpt>
      <trkpt lat="45.09176" lon="5.60005">
        <ele>1487</ele>
        <time>2020-08-23T11:15:33Z</time>
      </trkpt>
      <trkpt lat="45.09177" lon="5.60003">
        <ele>1487</ele>
        <time>2020-08-23T11:15:34Z</time>
      </trkpt>
      <trkpt lat="45.09178" lon="5.60001">
        <ele>1486.8</ele>
        <time>2020-08-23T11:15:35Z</time>
      </trkpt>
      <trkpt lat="45.09179" lon="5.59999">
        <ele>1486.8</ele>
        <time>2020-08-23T11:15:36Z</time>
      </trkpt>
      <trkpt lat="45.0918" lon="5.59998">
        <ele>1486.8</ele>
        <time>2020-08-23T11:15:37Z</time>
      </trkpt>
      <trkpt lat="45.09181" lon="5.59996">
        <ele>1486.8</ele>
        <time>2020-08-23T11:15:38Z</time>
      </trkpt>
      <trkpt lat="45.09182" lon="5.59994">
        <ele>1486.8</ele>
        <time>2020-08-23T11:15:39Z</time>
      </trkpt>
      <trkpt lat="45.09182" lon="5.59992">
        <ele>1486.8</ele>
        <time>2020-08-23T11:15:40Z</time>
      </trkpt>
      <trkpt lat="45.09183" lon="5.59991">
        <ele>1486.8</ele>
        <time>2020-08-23T11:15:41Z</time>
      </trkpt>
      <trkpt lat="45.09184" lon="5.59989">
        <ele>1486.8</ele>
        <time>2020-08-23T11:15:42Z</time>
      </trkpt>
      <trkpt lat="45.09185" lon="5.59987">
        <ele>1486.8</ele>
        <time>2020-08-23T11:15:43Z</time>
      </trkpt>
      <trkpt lat="45.09186" lon="5.59986">
        <ele>1486.6</ele>
        <time>2020-08-23T11:15:44Z</time>
      </trkpt>
      <trkpt lat="45.09187" lon="5.59985">
        <ele>1486.8</ele>
        <time>2020-08-23T11:15:45Z</time>
      </trkpt>
      <trkpt lat="45.09188" lon="5.59983">
        <ele>1486.8</ele>
        <time>2020-08-23T11:15:46Z</time>
      </trkpt>
      <trkpt lat="45.09189" lon="5.59981">
        <ele>1486.8</ele>
        <time>2020-08-23T11:15:47Z</time>
      </trkpt>
      <trkpt lat="45.09189" lon="5.5998">
        <ele>1486.8</ele>
        <time>2020-08-23T11:15:48Z</time>
      </trkpt>
      <trkpt lat="45.0919" lon="5.59978">
        <ele>1486.8</ele>
        <time>2020-08-23T11:15:49Z</time>
      </trkpt>
      <trkpt lat="45.09192" lon="5.59976">
        <ele>1486.8</ele>
        <time>2020-08-23T11:15:50Z</time>
      </trkpt>
      <trkpt lat="45.09192" lon="5.59975">
        <ele>1486.8</ele>
        <time>2020-08-23T11:15:51Z</time>
      </trkpt>
      <trkpt lat="45.09193" lon="5.59973">
        <ele>1487</ele>
        <time>2020-08-23T11:15:52Z</time>
      </trkpt>
      <trkpt lat="45.09194" lon="5.59972">
        <ele>1487</ele>
        <time>2020-08-23T11:15:53Z</time>
      </trkpt>
      <trkpt lat="45.09195" lon="5.5997">
        <ele>1487</ele>
        <time>2020-08-23T11:15:54Z</time>
      </trkpt>
      <trkpt lat="45.09196" lon="5.59968">
        <ele>1487</ele>
        <time>2020-08-23T11:15:55Z</time>
      </trkpt>
      <trkpt lat="45.09196" lon="5.59967">
        <ele>1487</ele>
        <time>2020-08-23T11:15:56Z</time>
      </trkpt>
      <trkpt lat="45.09197" lon="5.59966">
        <ele>1487</ele>
        <time>2020-08-23T11:15:57Z</time>
      </trkpt>
      <trkpt lat="45.09198" lon="5.59964">
        <ele>1487</ele>
        <time>2020-08-23T11:15:58Z</time>
      </trkpt>
      <trkpt lat="45.09199" lon="5.59963">
        <ele>1487</ele>
        <time>2020-08-23T11:15:59Z</time>
      </trkpt>
      <trkpt lat="45.092" lon="5.59961">
        <ele>1487</ele>
        <time>2020-08-23T11:16:00Z</time>
      </trkpt>
      <trkpt lat="45.09201" lon="5.5996">
        <ele>1487</ele>
        <time>2020-08-23T11:16:01Z</time>
      </trkpt>
      <trkpt lat="45.09201" lon="5.59958">
        <ele>1487</ele>
        <time>2020-08-23T11:16:02Z</time>
      </trkpt>
      <trkpt lat="45.09203" lon="5.59957">
        <ele>1487</ele>
        <time>2020-08-23T11:16:03Z</time>
      </trkpt>
      <trkpt lat="45.09204" lon="5.59956">
        <ele>1487</ele>
        <time>2020-08-23T11:16:04Z</time>
      </trkpt>
      <trkpt lat="45.09205" lon="5.59954">
        <ele>1487</ele>
        <time>2020-08-23T11:16:05Z</time>
      </trkpt>
      <trkpt lat="45.09206" lon="5.59953">
        <ele>1487</ele>
        <time>2020-08-23T11:16:06Z</time>
      </trkpt>
      <trkpt lat="45.09208" lon="5.59953">
        <ele>1487</ele>
        <time>2020-08-23T11:16:07Z</time>
      </trkpt>
      <trkpt lat="45.09209" lon="5.59952">
        <ele>1487</ele>
        <time>2020-08-23T11:16:08Z</time>
      </trkpt>
      <trkpt lat="45.0921" lon="5.5995">
        <ele>1487</ele>
        <time>2020-08-23T11:16:09Z</time>
      </trkpt>
      <trkpt lat="45.09212" lon="5.59949">
        <ele>1487</ele>
        <time>2020-08-23T11:16:10Z</time>
      </trkpt>
      <trkpt lat="45.09213" lon="5.59949">
        <ele>1487</ele>
        <time>2020-08-23T11:16:11Z</time>
      </trkpt>
      <trkpt lat="45.09214" lon="5.59948">
        <ele>1487</ele>
        <time>2020-08-23T11:16:12Z</time>
      </trkpt>
      <trkpt lat="45.09216" lon="5.59947">
        <ele>1487</ele>
        <time>2020-08-23T11:16:13Z</time>
      </trkpt>
      <trkpt lat="45.09217" lon="5.59947">
        <ele>1487</ele>
        <time>2020-08-23T11:16:14Z</time>
      </trkpt>
      <trkpt lat="45.09219" lon="5.59948">
        <ele>1487</ele>
        <time>2020-08-23T11:16:15Z</time>
      </trkpt>
      <trkpt lat="45.0922" lon="5.59949">
        <ele>1487</ele>
        <time>2020-08-23T11:16:16Z</time>
      </trkpt>
      <trkpt lat="45.09221" lon="5.5995">
        <ele>1487</ele>
        <time>2020-08-23T11:16:17Z</time>
      </trkpt>
      <trkpt lat="45.09222" lon="5.59952">
        <ele>1487</ele>
        <time>2020-08-23T11:16:18Z</time>
      </trkpt>
      <trkpt lat="45.09222" lon="5.59954">
        <ele>1487</ele>
        <time>2020-08-23T11:16:19Z</time>
      </trkpt>
      <trkpt lat="45.09224" lon="5.59955">
        <ele>1487.2</ele>
        <time>2020-08-23T11:16:20Z</time>
      </trkpt>
      <trkpt lat="45.09224" lon="5.59956">
        <ele>1487.2</ele>
        <time>2020-08-23T11:16:21Z</time>
      </trkpt>
      <trkpt lat="45.09225" lon="5.59958">
        <ele>1487.4</ele>
        <time>2020-08-23T11:16:22Z</time>
      </trkpt>
      <trkpt lat="45.09226" lon="5.59959">
        <ele>1487.4</ele>
        <time>2020-08-23T11:16:23Z</time>
      </trkpt>
      <trkpt lat="45.09227" lon="5.59961">
        <ele>1487.6</ele>
        <time>2020-08-23T11:16:24Z</time>
      </trkpt>
      <trkpt lat="45.09228" lon="5.59962">
        <ele>1487.6</ele>
        <time>2020-08-23T11:16:25Z</time>
      </trkpt>
      <trkpt lat="45.09229" lon="5.59964">
        <ele>1487.8</ele>
        <time>2020-08-23T11:16:26Z</time>
      </trkpt>
      <trkpt lat="45.09231" lon="5.59965">
        <ele>1487.8</ele>
        <time>2020-08-23T11:16:27Z</time>
      </trkpt>
      <trkpt lat="45.09232" lon="5.59967">
        <ele>1487.8</ele>
        <time>2020-08-23T11:16:28Z</time>
      </trkpt>
      <trkpt lat="45.09234" lon="5.59968">
        <ele>1488</ele>
        <time>2020-08-23T11:16:29Z</time>
      </trkpt>
      <trkpt lat="45.09235" lon="5.59969">
        <ele>1488</ele>
        <time>2020-08-23T11:16:30Z</time>
      </trkpt>
      <trkpt lat="45.09236" lon="5.5997">
        <ele>1488</ele>
        <time>2020-08-23T11:16:31Z</time>
      </trkpt>
      <trkpt lat="45.09237" lon="5.59972">
        <ele>1488.2</ele>
        <time>2020-08-23T11:16:32Z</time>
      </trkpt>
      <trkpt lat="45.09239" lon="5.59973">
        <ele>1488.2</ele>
        <time>2020-08-23T11:16:33Z</time>
      </trkpt>
      <trkpt lat="45.0924" lon="5.59975">
        <ele>1488.4</ele>
        <time>2020-08-23T11:16:34Z</time>
      </trkpt>
      <trkpt lat="45.09242" lon="5.59976">
        <ele>1488.4</ele>
        <time>2020-08-23T11:16:35Z</time>
      </trkpt>
      <trkpt lat="45.09243" lon="5.59977">
        <ele>1488.6</ele>
        <time>2020-08-23T11:16:36Z</time>
      </trkpt>
      <trkpt lat="45.09245" lon="5.59977">
        <ele>1488.6</ele>
        <time>2020-08-23T11:16:37Z</time>
      </trkpt>
      <trkpt lat="45.09247" lon="5.59978">
        <ele>1488.6</ele>
        <time>2020-08-23T11:16:38Z</time>
      </trkpt>
      <trkpt lat="45.09248" lon="5.59979">
        <ele>1488.8</ele>
        <time>2020-08-23T11:16:39Z</time>
      </trkpt>
      <trkpt lat="45.0925" lon="5.5998">
        <ele>1488.8</ele>
        <time>2020-08-23T11:16:40Z</time>
      </trkpt>
      <trkpt lat="45.09253" lon="5.59981">
        <ele>1488.8</ele>
        <time>2020-08-23T11:16:41Z</time>
      </trkpt>
      <trkpt lat="45.09254" lon="5.59981">
        <ele>1488.8</ele>
        <time>2020-08-23T11:16:42Z</time>
      </trkpt>
      <trkpt lat="45.09256" lon="5.59982">
        <ele>1489</ele>
        <time>2020-08-23T11:16:43Z</time>
      </trkpt>
      <trkpt lat="45.09259" lon="5.59982">
        <ele>1489.2</ele>
        <time>2020-08-23T11:16:44Z</time>
      </trkpt>
      <trkpt lat="45.09261" lon="5.59982">
        <ele>1489.2</ele>
        <time>2020-08-23T11:16:45Z</time>
      </trkpt>
      <trkpt lat="45.09263" lon="5.59983">
        <ele>1489.4</ele>
        <time>2020-08-23T11:16:46Z</time>
      </trkpt>
      <trkpt lat="45.09264" lon="5.59984">
        <ele>1489.4</ele>
        <time>2020-08-23T11:16:47Z</time>
      </trkpt>
      <trkpt lat="45.09266" lon="5.59985">
        <ele>1489.6</ele>
        <time>2020-08-23T11:16:48Z</time>
      </trkpt>
      <trkpt lat="45.09269" lon="5.59986">
        <ele>1489.6</ele>
        <time>2020-08-23T11:16:49Z</time>
      </trkpt>
      <trkpt lat="45.09271" lon="5.59988">
        <ele>1489.8</ele>
        <time>2020-08-23T11:16:50Z</time>
      </trkpt>
      <trkpt lat="45.09273" lon="5.59989">
        <ele>1489.8</ele>
        <time>2020-08-23T11:16:51Z</time>
      </trkpt>
      <trkpt lat="45.09275" lon="5.5999">
        <ele>1490</ele>
        <time>2020-08-23T11:16:52Z</time>
      </trkpt>
      <trkpt lat="45.09278" lon="5.59992">
        <ele>1490</ele>
        <time>2020-08-23T11:16:53Z</time>
      </trkpt>
      <trkpt lat="45.0928" lon="5.59994">
        <ele>1490.2</ele>
        <time>2020-08-23T11:16:54Z</time>
      </trkpt>
      <trkpt lat="45.09283" lon="5.59995">
        <ele>1490.2</ele>
        <time>2020-08-23T11:16:55Z</time>
      </trkpt>
      <trkpt lat="45.09285" lon="5.59996">
        <ele>1490.2</ele>
        <time>2020-08-23T11:16:56Z</time>
      </trkpt>
      <trkpt lat="45.09287" lon="5.59998">
        <ele>1490.2</ele>
        <time>2020-08-23T11:16:57Z</time>
      </trkpt>
      <trkpt lat="45.09289" lon="5.59999">
        <ele>1490.4</ele>
        <time>2020-08-23T11:16:58Z</time>
      </trkpt>
      <trkpt lat="45.09292" lon="5.59999">
        <ele>1490.4</ele>
        <time>2020-08-23T11:16:59Z</time>
      </trkpt>
      <trkpt lat="45.09294" lon="5.6">
        <ele>1490.6</ele>
        <time>2020-08-23T11:17:00Z</time>
      </trkpt>
      <trkpt lat="45.09296" lon="5.6">
        <ele>1490.6</ele>
        <time>2020-08-23T11:17:01Z</time>
      </trkpt>
      <trkpt lat="45.09298" lon="5.60001">
        <ele>1490.8</ele>
        <time>2020-08-23T11:17:02Z</time>
      </trkpt>
      <trkpt lat="45.093" lon="5.60002">
        <ele>1490.8</ele>
        <time>2020-08-23T11:17:03Z</time>
      </trkpt>
      <trkpt lat="45.09301" lon="5.60002">
        <ele>1491</ele>
        <time>2020-08-23T11:17:04Z</time>
      </trkpt>
      <trkpt lat="45.09303" lon="5.60003">
        <ele>1491</ele>
        <time>2020-08-23T11:17:05Z</time>
      </trkpt>
      <trkpt lat="45.09305" lon="5.60004">
        <ele>1491.2</ele>
        <time>2020-08-23T11:17:06Z</time>
      </trkpt>
      <trkpt lat="45.09306" lon="5.60005">
        <ele>1491.4</ele>
        <time>2020-08-23T11:17:07Z</time>
      </trkpt>
      <trkpt lat="45.09308" lon="5.60006">
        <ele>1491.4</ele>
        <time>2020-08-23T11:17:08Z</time>
      </trkpt>
      <trkpt lat="45.09311" lon="5.60007">
        <ele>1491.6</ele>
        <time>2020-08-23T11:17:09Z</time>
      </trkpt>
      <trkpt lat="45.09312" lon="5.60008">
        <ele>1491.8</ele>
        <time>2020-08-23T11:17:10Z</time>
      </trkpt>
      <trkpt lat="45.09314" lon="5.60009">
        <ele>1491.8</ele>
        <time>2020-08-23T11:17:11Z</time>
      </trkpt>
      <trkpt lat="45.09316" lon="5.6001">
        <ele>1492</ele>
        <time>2020-08-23T11:17:12Z</time>
      </trkpt>
      <trkpt lat="45.09318" lon="5.6001">
        <ele>1492</ele>
        <time>2020-08-23T11:17:13Z</time>
      </trkpt>
      <trkpt lat="45.0932" lon="5.60011">
        <ele>1492.2</ele>
        <time>2020-08-23T11:17:14Z</time>
      </trkpt>
      <trkpt lat="45.09321" lon="5.60011">
        <ele>1492.2</ele>
        <time>2020-08-23T11:17:15Z</time>
      </trkpt>
      <trkpt lat="45.09323" lon="5.60012">
        <ele>1492.4</ele>
        <time>2020-08-23T11:17:16Z</time>
      </trkpt>
      <trkpt lat="45.09325" lon="5.60013">
        <ele>1492.6</ele>
        <time>2020-08-23T11:17:17Z</time>
      </trkpt>
      <trkpt lat="45.09326" lon="5.60013">
        <ele>1492.6</ele>
        <time>2020-08-23T11:17:18Z</time>
      </trkpt>
      <trkpt lat="45.09328" lon="5.60014">
        <ele>1492.8</ele>
        <time>2020-08-23T11:17:19Z</time>
      </trkpt>
      <trkpt lat="45.0933" lon="5.60015">
        <ele>1493</ele>
        <time>2020-08-23T11:17:20Z</time>
      </trkpt>
      <trkpt lat="45.09331" lon="5.60015">
        <ele>1493</ele>
        <time>2020-08-23T11:17:21Z</time>
      </trkpt>
      <trkpt lat="45.09333" lon="5.60015">
        <ele>1493.2</ele>
        <time>2020-08-23T11:17:22Z</time>
      </trkpt>
      <trkpt lat="45.09335" lon="5.60016">
        <ele>1493.4</ele>
        <time>2020-08-23T11:17:23Z</time>
      </trkpt>
      <trkpt lat="45.09337" lon="5.60016">
        <ele>1493.6</ele>
        <time>2020-08-23T11:17:24Z</time>
      </trkpt>
      <trkpt lat="45.09339" lon="5.60016">
        <ele>1493.8</ele>
        <time>2020-08-23T11:17:25Z</time>
      </trkpt>
      <trkpt lat="45.09341" lon="5.60016">
        <ele>1494</ele>
        <time>2020-08-23T11:17:26Z</time>
      </trkpt>
      <trkpt lat="45.09343" lon="5.60017">
        <ele>1494.2</ele>
        <time>2020-08-23T11:17:27Z</time>
      </trkpt>
      <trkpt lat="45.09344" lon="5.60017">
        <ele>1494.4</ele>
        <time>2020-08-23T11:17:28Z</time>
      </trkpt>
      <trkpt lat="45.09346" lon="5.60017">
        <ele>1494.4</ele>
        <time>2020-08-23T11:17:29Z</time>
      </trkpt>
      <trkpt lat="45.09347" lon="5.60017">
        <ele>1495.8</ele>
        <time>2020-08-23T11:17:55Z</time>
      </trkpt>
      <trkpt lat="45.09351" lon="5.60021">
        <ele>1495.8</ele>
        <time>2020-08-23T11:17:56Z</time>
      </trkpt>
      <trkpt lat="45.09353" lon="5.60022">
        <ele>1495.6</ele>
        <time>2020-08-23T11:17:57Z</time>
      </trkpt>
      <trkpt lat="45.09354" lon="5.60023">
        <ele>1495.6</ele>
        <time>2020-08-23T11:17:58Z</time>
      </trkpt>
      <trkpt lat="45.09356" lon="5.60024">
        <ele>1495.6</ele>
        <time>2020-08-23T11:17:59Z</time>
      </trkpt>
      <trkpt lat="45.09358" lon="5.60024">
        <ele>1495.6</ele>
        <time>2020-08-23T11:18:00Z</time>
      </trkpt>
      <trkpt lat="45.09359" lon="5.60025">
        <ele>1495.6</ele>
        <time>2020-08-23T11:18:01Z</time>
      </trkpt>
      <trkpt lat="45.09361" lon="5.60025">
        <ele>1495.4</ele>
        <time>2020-08-23T11:18:02Z</time>
      </trkpt>
      <trkpt lat="45.09363" lon="5.60025">
        <ele>1495.6</ele>
        <time>2020-08-23T11:18:03Z</time>
      </trkpt>
      <trkpt lat="45.09365" lon="5.60026">
        <ele>1495.6</ele>
        <time>2020-08-23T11:18:04Z</time>
      </trkpt>
      <trkpt lat="45.09367" lon="5.60027">
        <ele>1495.6</ele>
        <time>2020-08-23T11:18:05Z</time>
      </trkpt>
      <trkpt lat="45.09369" lon="5.60028">
        <ele>1495.6</ele>
        <time>2020-08-23T11:18:06Z</time>
      </trkpt>
      <trkpt lat="45.0937" lon="5.60029">
        <ele>1495.6</ele>
        <time>2020-08-23T11:18:07Z</time>
      </trkpt>
      <trkpt lat="45.09372" lon="5.6003">
        <ele>1495.6</ele>
        <time>2020-08-23T11:18:08Z</time>
      </trkpt>
      <trkpt lat="45.09374" lon="5.60031">
        <ele>1495.6</ele>
        <time>2020-08-23T11:18:09Z</time>
      </trkpt>
      <trkpt lat="45.09376" lon="5.60032">
        <ele>1495.6</ele>
        <time>2020-08-23T11:18:10Z</time>
      </trkpt>
      <trkpt lat="45.09378" lon="5.60033">
        <ele>1495.6</ele>
        <time>2020-08-23T11:18:11Z</time>
      </trkpt>
      <trkpt lat="45.0938" lon="5.60035">
        <ele>1495.8</ele>
        <time>2020-08-23T11:18:12Z</time>
      </trkpt>
      <trkpt lat="45.09382" lon="5.60036">
        <ele>1495.8</ele>
        <time>2020-08-23T11:18:13Z</time>
      </trkpt>
      <trkpt lat="45.09383" lon="5.60038">
        <ele>1495.8</ele>
        <time>2020-08-23T11:18:14Z</time>
      </trkpt>
      <trkpt lat="45.09385" lon="5.60039">
        <ele>1495.8</ele>
        <time>2020-08-23T11:18:15Z</time>
      </trkpt>
      <trkpt lat="45.09387" lon="5.6004">
        <ele>1496</ele>
        <time>2020-08-23T11:18:16Z</time>
      </trkpt>
      <trkpt lat="45.0939" lon="5.60041">
        <ele>1496</ele>
        <time>2020-08-23T11:18:17Z</time>
      </trkpt>
      <trkpt lat="45.09391" lon="5.60043">
        <ele>1496</ele>
        <time>2020-08-23T11:18:18Z</time>
      </trkpt>
      <trkpt lat="45.09393" lon="5.60044">
        <ele>1496.2</ele>
        <time>2020-08-23T11:18:19Z</time>
      </trkpt>
      <trkpt lat="45.09395" lon="5.60045">
        <ele>1496.2</ele>
        <time>2020-08-23T11:18:20Z</time>
      </trkpt>
      <trkpt lat="45.09397" lon="5.60046">
        <ele>1496.2</ele>
        <time>2020-08-23T11:18:21Z</time>
      </trkpt>
      <trkpt lat="45.09399" lon="5.60047">
        <ele>1496.4</ele>
        <time>2020-08-23T11:18:22Z</time>
      </trkpt>
      <trkpt lat="45.094" lon="5.60048">
        <ele>1496.4</ele>
        <time>2020-08-23T11:18:23Z</time>
      </trkpt>
      <trkpt lat="45.09402" lon="5.60049">
        <ele>1496.4</ele>
        <time>2020-08-23T11:18:24Z</time>
      </trkpt>
      <trkpt lat="45.09404" lon="5.6005">
        <ele>1496.6</ele>
        <time>2020-08-23T11:18:25Z</time>
      </trkpt>
      <trkpt lat="45.09406" lon="5.60052">
        <ele>1496.6</ele>
        <time>2020-08-23T11:18:26Z</time>
      </trkpt>
      <trkpt lat="45.09407" lon="5.60053">
        <ele>1496.6</ele>
        <time>2020-08-23T11:18:27Z</time>
      </trkpt>
      <trkpt lat="45.09409" lon="5.60055">
        <ele>1496.8</ele>
        <time>2020-08-23T11:18:28Z</time>
      </trkpt>
      <trkpt lat="45.09411" lon="5.60056">
        <ele>1496.8</ele>
        <time>2020-08-23T11:18:29Z</time>
      </trkpt>
      <trkpt lat="45.09413" lon="5.60057">
        <ele>1496.8</ele>
        <time>2020-08-23T11:18:30Z</time>
      </trkpt>
      <trkpt lat="45.09414" lon="5.60058">
        <ele>1497</ele>
        <time>2020-08-23T11:18:31Z</time>
      </trkpt>
      <trkpt lat="45.09416" lon="5.60059">
        <ele>1497</ele>
        <time>2020-08-23T11:18:32Z</time>
      </trkpt>
      <trkpt lat="45.09418" lon="5.60061">
        <ele>1497</ele>
        <time>2020-08-23T11:18:33Z</time>
      </trkpt>
      <trkpt lat="45.0942" lon="5.60062">
        <ele>1497</ele>
        <time>2020-08-23T11:18:34Z</time>
      </trkpt>
      <trkpt lat="45.09422" lon="5.60064">
        <ele>1497</ele>
        <time>2020-08-23T11:18:35Z</time>
      </trkpt>
      <trkpt lat="45.09424" lon="5.60065">
        <ele>1497.2</ele>
        <time>2020-08-23T11:18:36Z</time>
      </trkpt>
      <trkpt lat="45.09426" lon="5.60067">
        <ele>1497.2</ele>
        <time>2020-08-23T11:18:37Z</time>
      </trkpt>
      <trkpt lat="45.09428" lon="5.60068">
        <ele>1497.2</ele>
        <time>2020-08-23T11:18:38Z</time>
      </trkpt>
      <trkpt lat="45.0943" lon="5.6007">
        <ele>1497.2</ele>
        <time>2020-08-23T11:18:39Z</time>
      </trkpt>
      <trkpt lat="45.09432" lon="5.6007">
        <ele>1497.4</ele>
        <time>2020-08-23T11:18:40Z</time>
      </trkpt>
      <trkpt lat="45.09434" lon="5.60071">
        <ele>1497.4</ele>
        <time>2020-08-23T11:18:41Z</time>
      </trkpt>
      <trkpt lat="45.09436" lon="5.60071">
        <ele>1497.6</ele>
        <time>2020-08-23T11:18:42Z</time>
      </trkpt>
      <trkpt lat="45.09438" lon="5.60071">
        <ele>1497.6</ele>
        <time>2020-08-23T11:18:43Z</time>
      </trkpt>
      <trkpt lat="45.0944" lon="5.60072">
        <ele>1497.6</ele>
        <time>2020-08-23T11:18:44Z</time>
      </trkpt>
      <trkpt lat="45.09441" lon="5.60072">
        <ele>1497.8</ele>
        <time>2020-08-23T11:18:45Z</time>
      </trkpt>
      <trkpt lat="45.09443" lon="5.60073">
        <ele>1497.8</ele>
        <time>2020-08-23T11:18:46Z</time>
      </trkpt>
      <trkpt lat="45.09445" lon="5.60073">
        <ele>1498</ele>
        <time>2020-08-23T11:18:47Z</time>
      </trkpt>
      <trkpt lat="45.09447" lon="5.60073">
        <ele>1498</ele>
        <time>2020-08-23T11:18:48Z</time>
      </trkpt>
      <trkpt lat="45.09449" lon="5.60074">
        <ele>1498.2</ele>
        <time>2020-08-23T11:18:49Z</time>
      </trkpt>
      <trkpt lat="45.09451" lon="5.60073">
        <ele>1498.2</ele>
        <time>2020-08-23T11:18:50Z</time>
      </trkpt>
      <trkpt lat="45.09453" lon="5.60073">
        <ele>1498.4</ele>
        <time>2020-08-23T11:18:51Z</time>
      </trkpt>
      <trkpt lat="45.09455" lon="5.60072">
        <ele>1498.6</ele>
        <time>2020-08-23T11:18:52Z</time>
      </trkpt>
      <trkpt lat="45.09456" lon="5.60072">
        <ele>1498.6</ele>
        <time>2020-08-23T11:18:53Z</time>
      </trkpt>
      <trkpt lat="45.09458" lon="5.60072">
        <ele>1498.8</ele>
        <time>2020-08-23T11:18:54Z</time>
      </trkpt>
      <trkpt lat="45.0946" lon="5.60072">
        <ele>1499</ele>
        <time>2020-08-23T11:18:55Z</time>
      </trkpt>
      <trkpt lat="45.09462" lon="5.60072">
        <ele>1499</ele>
        <time>2020-08-23T11:18:56Z</time>
      </trkpt>
      <trkpt lat="45.09463" lon="5.60073">
        <ele>1499.2</ele>
        <time>2020-08-23T11:18:57Z</time>
      </trkpt>
      <trkpt lat="45.09465" lon="5.60073">
        <ele>1499.4</ele>
        <time>2020-08-23T11:18:58Z</time>
      </trkpt>
      <trkpt lat="45.09467" lon="5.60074">
        <ele>1499.6</ele>
        <time>2020-08-23T11:18:59Z</time>
      </trkpt>
      <trkpt lat="45.09469" lon="5.60074">
        <ele>1499.8</ele>
        <time>2020-08-23T11:19:00Z</time>
      </trkpt>
      <trkpt lat="45.0947" lon="5.60075">
        <ele>1499.8</ele>
        <time>2020-08-23T11:19:01Z</time>
      </trkpt>
      <trkpt lat="45.09472" lon="5.60075">
        <ele>1500</ele>
        <time>2020-08-23T11:19:02Z</time>
      </trkpt>
      <trkpt lat="45.09474" lon="5.60076">
        <ele>1500.2</ele>
        <time>2020-08-23T11:19:03Z</time>
      </trkpt>
      <trkpt lat="45.09476" lon="5.60076">
        <ele>1500.2</ele>
        <time>2020-08-23T11:19:04Z</time>
      </trkpt>
      <trkpt lat="45.09478" lon="5.60077">
        <ele>1500.4</ele>
        <time>2020-08-23T11:19:05Z</time>
      </trkpt>
      <trkpt lat="45.0948" lon="5.60077">
        <ele>1500.6</ele>
        <time>2020-08-23T11:19:06Z</time>
      </trkpt>
      <trkpt lat="45.09481" lon="5.60078">
        <ele>1500.6</ele>
        <time>2020-08-23T11:19:07Z</time>
      </trkpt>
      <trkpt lat="45.09484" lon="5.60079">
        <ele>1500.8</ele>
        <time>2020-08-23T11:19:08Z</time>
      </trkpt>
      <trkpt lat="45.09486" lon="5.6008">
        <ele>1500.8</ele>
        <time>2020-08-23T11:19:09Z</time>
      </trkpt>
      <trkpt lat="45.09488" lon="5.6008">
        <ele>1501</ele>
        <time>2020-08-23T11:19:10Z</time>
      </trkpt>
      <trkpt lat="45.0949" lon="5.60081">
        <ele>1501.2</ele>
        <time>2020-08-23T11:19:11Z</time>
      </trkpt>
      <trkpt lat="45.09492" lon="5.60082">
        <ele>1501.2</ele>
        <time>2020-08-23T11:19:12Z</time>
      </trkpt>
      <trkpt lat="45.09494" lon="5.60083">
        <ele>1501.4</ele>
        <time>2020-08-23T11:19:13Z</time>
      </trkpt>
      <trkpt lat="45.09496" lon="5.60083">
        <ele>1501.4</ele>
        <time>2020-08-23T11:19:14Z</time>
      </trkpt>
      <trkpt lat="45.09498" lon="5.60083">
        <ele>1501.6</ele>
        <time>2020-08-23T11:19:15Z</time>
      </trkpt>
      <trkpt lat="45.095" lon="5.60083">
        <ele>1501.8</ele>
        <time>2020-08-23T11:19:16Z</time>
      </trkpt>
      <trkpt lat="45.09502" lon="5.60083">
        <ele>1501.8</ele>
        <time>2020-08-23T11:19:17Z</time>
      </trkpt>
      <trkpt lat="45.09504" lon="5.60083">
        <ele>1502</ele>
        <time>2020-08-23T11:19:18Z</time>
      </trkpt>
      <trkpt lat="45.09506" lon="5.60084">
        <ele>1502.2</ele>
        <time>2020-08-23T11:19:19Z</time>
      </trkpt>
      <trkpt lat="45.09507" lon="5.60084">
        <ele>1502.2</ele>
        <time>2020-08-23T11:19:20Z</time>
      </trkpt>
      <trkpt lat="45.09509" lon="5.60084">
        <ele>1502.4</ele>
        <time>2020-08-23T11:19:21Z</time>
      </trkpt>
      <trkpt lat="45.09511" lon="5.60085">
        <ele>1502.6</ele>
        <time>2020-08-23T11:19:22Z</time>
      </trkpt>
      <trkpt lat="45.09513" lon="5.60085">
        <ele>1502.8</ele>
        <time>2020-08-23T11:19:23Z</time>
      </trkpt>
      <trkpt lat="45.09515" lon="5.60086">
        <ele>1502.8</ele>
        <time>2020-08-23T11:19:24Z</time>
      </trkpt>
      <trkpt lat="45.09517" lon="5.60086">
        <ele>1503</ele>
        <time>2020-08-23T11:19:25Z</time>
      </trkpt>
      <trkpt lat="45.09519" lon="5.60086">
        <ele>1503</ele>
        <time>2020-08-23T11:19:26Z</time>
      </trkpt>
      <trkpt lat="45.0952" lon="5.60087">
        <ele>1503.2</ele>
        <time>2020-08-23T11:19:27Z</time>
      </trkpt>
      <trkpt lat="45.09521" lon="5.60087">
        <ele>1503.4</ele>
        <time>2020-08-23T11:19:28Z</time>
      </trkpt>
      <trkpt lat="45.09522" lon="5.60087">
        <ele>1503.8</ele>
        <time>2020-08-23T11:19:32Z</time>
      </trkpt>
      <trkpt lat="45.09523" lon="5.60087">
        <ele>1503.8</ele>
        <time>2020-08-23T11:19:33Z</time>
      </trkpt>
      <trkpt lat="45.09524" lon="5.60088">
        <ele>1504</ele>
        <time>2020-08-23T11:19:34Z</time>
      </trkpt>
      <trkpt lat="45.09525" lon="5.60088">
        <ele>1504</ele>
        <time>2020-08-23T11:19:35Z</time>
      </trkpt>
      <trkpt lat="45.09526" lon="5.60089">
        <ele>1504</ele>
        <time>2020-08-23T11:19:36Z</time>
      </trkpt>
      <trkpt lat="45.09528" lon="5.60089">
        <ele>1504.2</ele>
        <time>2020-08-23T11:19:37Z</time>
      </trkpt>
      <trkpt lat="45.0953" lon="5.60089">
        <ele>1504.2</ele>
        <time>2020-08-23T11:19:38Z</time>
      </trkpt>
      <trkpt lat="45.09531" lon="5.60089">
        <ele>1504.2</ele>
        <time>2020-08-23T11:19:39Z</time>
      </trkpt>
      <trkpt lat="45.09533" lon="5.60088">
        <ele>1504.2</ele>
        <time>2020-08-23T11:19:40Z</time>
      </trkpt>
      <trkpt lat="45.09535" lon="5.60087">
        <ele>1504.4</ele>
        <time>2020-08-23T11:19:41Z</time>
      </trkpt>
      <trkpt lat="45.09537" lon="5.60087">
        <ele>1504.4</ele>
        <time>2020-08-23T11:19:42Z</time>
      </trkpt>
      <trkpt lat="45.09539" lon="5.60087">
        <ele>1504.4</ele>
        <time>2020-08-23T11:19:43Z</time>
      </trkpt>
      <trkpt lat="45.0954" lon="5.60087">
        <ele>1504.4</ele>
        <time>2020-08-23T11:19:44Z</time>
      </trkpt>
      <trkpt lat="45.09541" lon="5.60087">
        <ele>1504.6</ele>
        <time>2020-08-23T11:19:45Z</time>
      </trkpt>
      <trkpt lat="45.09542" lon="5.60088">
        <ele>1504.6</ele>
        <time>2020-08-23T11:19:46Z</time>
      </trkpt>
      <trkpt lat="45.09544" lon="5.60088">
        <ele>1504.6</ele>
        <time>2020-08-23T11:19:47Z</time>
      </trkpt>
      <trkpt lat="45.09546" lon="5.60088">
        <ele>1504.8</ele>
        <time>2020-08-23T11:19:48Z</time>
      </trkpt>
      <trkpt lat="45.09549" lon="5.60088">
        <ele>1504.8</ele>
        <time>2020-08-23T11:19:49Z</time>
      </trkpt>
      <trkpt lat="45.09552" lon="5.60089">
        <ele>1504.8</ele>
        <time>2020-08-23T11:19:50Z</time>
      </trkpt>
      <trkpt lat="45.09555" lon="5.60089">
        <ele>1505</ele>
        <time>2020-08-23T11:19:51Z</time>
      </trkpt>
      <trkpt lat="45.09557" lon="5.60089">
        <ele>1505</ele>
        <time>2020-08-23T11:19:52Z</time>
      </trkpt>
      <trkpt lat="45.0956" lon="5.60089">
        <ele>1505</ele>
        <time>2020-08-23T11:19:53Z</time>
      </trkpt>
      <trkpt lat="45.09562" lon="5.60088">
        <ele>1505.2</ele>
        <time>2020-08-23T11:19:54Z</time>
      </trkpt>
      <trkpt lat="45.09565" lon="5.60087">
        <ele>1505.2</ele>
        <time>2020-08-23T11:19:55Z</time>
      </trkpt>
      <trkpt lat="45.09568" lon="5.60086">
        <ele>1505.2</ele>
        <time>2020-08-23T11:19:56Z</time>
      </trkpt>
      <trkpt lat="45.09571" lon="5.60085">
        <ele>1505.2</ele>
        <time>2020-08-23T11:19:57Z</time>
      </trkpt>
      <trkpt lat="45.09573" lon="5.60084">
        <ele>1505.4</ele>
        <time>2020-08-23T11:19:58Z</time>
      </trkpt>
      <trkpt lat="45.09575" lon="5.60083">
        <ele>1505.4</ele>
        <time>2020-08-23T11:19:59Z</time>
      </trkpt>
      <trkpt lat="45.09578" lon="5.60082">
        <ele>1505.6</ele>
        <time>2020-08-23T11:20:00Z</time>
      </trkpt>
      <trkpt lat="45.0958" lon="5.60081">
        <ele>1505.6</ele>
        <time>2020-08-23T11:20:01Z</time>
      </trkpt>
      <trkpt lat="45.09582" lon="5.6008">
        <ele>1505.8</ele>
        <time>2020-08-23T11:20:02Z</time>
      </trkpt>
      <trkpt lat="45.09584" lon="5.60079">
        <ele>1505.8</ele>
        <time>2020-08-23T11:20:03Z</time>
      </trkpt>
      <trkpt lat="45.09586" lon="5.60078">
        <ele>1505.8</ele>
        <time>2020-08-23T11:20:04Z</time>
      </trkpt>
      <trkpt lat="45.09588" lon="5.60076">
        <ele>1505.8</ele>
        <time>2020-08-23T11:20:05Z</time>
      </trkpt>
      <trkpt lat="45.09589" lon="5.60074">
        <ele>1506</ele>
        <time>2020-08-23T11:20:06Z</time>
      </trkpt>
      <trkpt lat="45.09591" lon="5.60072">
        <ele>1506</ele>
        <time>2020-08-23T11:20:07Z</time>
      </trkpt>
      <trkpt lat="45.09592" lon="5.6007">
        <ele>1506.2</ele>
        <time>2020-08-23T11:20:08Z</time>
      </trkpt>
      <trkpt lat="45.09594" lon="5.60069">
        <ele>1506.2</ele>
        <time>2020-08-23T11:20:09Z</time>
      </trkpt>
      <trkpt lat="45.09596" lon="5.60067">
        <ele>1506.4</ele>
        <time>2020-08-23T11:20:10Z</time>
      </trkpt>
      <trkpt lat="45.09597" lon="5.60065">
        <ele>1506.4</ele>
        <time>2020-08-23T11:20:11Z</time>
      </trkpt>
      <trkpt lat="45.09599" lon="5.60064">
        <ele>1506.4</ele>
        <time>2020-08-23T11:20:12Z</time>
      </trkpt>
      <trkpt lat="45.096" lon="5.60062">
        <ele>1506.6</ele>
        <time>2020-08-23T11:20:13Z</time>
      </trkpt>
      <trkpt lat="45.09602" lon="5.6006">
        <ele>1506.6</ele>
        <time>2020-08-23T11:20:14Z</time>
      </trkpt>
      <trkpt lat="45.09604" lon="5.60059">
        <ele>1506.6</ele>
        <time>2020-08-23T11:20:15Z</time>
      </trkpt>
      <trkpt lat="45.09606" lon="5.60058">
        <ele>1506.8</ele>
        <time>2020-08-23T11:20:16Z</time>
      </trkpt>
      <trkpt lat="45.09607" lon="5.60058">
        <ele>1506.8</ele>
        <time>2020-08-23T11:20:17Z</time>
      </trkpt>
      <trkpt lat="45.09609" lon="5.60058">
        <ele>1506.8</ele>
        <time>2020-08-23T11:20:18Z</time>
      </trkpt>
      <trkpt lat="45.09611" lon="5.60057">
        <ele>1507</ele>
        <time>2020-08-23T11:20:19Z</time>
      </trkpt>
      <trkpt lat="45.09613" lon="5.60057">
        <ele>1507</ele>
        <time>2020-08-23T11:20:20Z</time>
      </trkpt>
      <trkpt lat="45.09615" lon="5.60057">
        <ele>1507</ele>
        <time>2020-08-23T11:20:21Z</time>
      </trkpt>
      <trkpt lat="45.09616" lon="5.60057">
        <ele>1507.2</ele>
        <time>2020-08-23T11:20:22Z</time>
      </trkpt>
      <trkpt lat="45.09618" lon="5.60057">
        <ele>1507.2</ele>
        <time>2020-08-23T11:20:23Z</time>
      </trkpt>
      <trkpt lat="45.0962" lon="5.60057">
        <ele>1507.4</ele>
        <time>2020-08-23T11:20:24Z</time>
      </trkpt>
      <trkpt lat="45.09621" lon="5.60057">
        <ele>1507.4</ele>
        <time>2020-08-23T11:20:25Z</time>
      </trkpt>
      <trkpt lat="45.09623" lon="5.60057">
        <ele>1507.6</ele>
        <time>2020-08-23T11:20:26Z</time>
      </trkpt>
      <trkpt lat="45.09625" lon="5.60057">
        <ele>1507.6</ele>
        <time>2020-08-23T11:20:27Z</time>
      </trkpt>
      <trkpt lat="45.09626" lon="5.60057">
        <ele>1507.8</ele>
        <time>2020-08-23T11:20:28Z</time>
      </trkpt>
      <trkpt lat="45.09628" lon="5.60056">
        <ele>1508</ele>
        <time>2020-08-23T11:20:29Z</time>
      </trkpt>
      <trkpt lat="45.0963" lon="5.60056">
        <ele>1508</ele>
        <time>2020-08-23T11:20:30Z</time>
      </trkpt>
      <trkpt lat="45.09631" lon="5.60055">
        <ele>1508.2</ele>
        <time>2020-08-23T11:20:31Z</time>
      </trkpt>
      <trkpt lat="45.09634" lon="5.60055">
        <ele>1508.2</ele>
        <time>2020-08-23T11:20:32Z</time>
      </trkpt>
      <trkpt lat="45.09635" lon="5.60055">
        <ele>1508.4</ele>
        <time>2020-08-23T11:20:33Z</time>
      </trkpt>
      <trkpt lat="45.09637" lon="5.60054">
        <ele>1508.6</ele>
        <time>2020-08-23T11:20:34Z</time>
      </trkpt>
      <trkpt lat="45.09639" lon="5.60054">
        <ele>1508.6</ele>
        <time>2020-08-23T11:20:35Z</time>
      </trkpt>
      <trkpt lat="45.09641" lon="5.60053">
        <ele>1508.8</ele>
        <time>2020-08-23T11:20:36Z</time>
      </trkpt>
      <trkpt lat="45.09643" lon="5.60052">
        <ele>1508.8</ele>
        <time>2020-08-23T11:20:37Z</time>
      </trkpt>
      <trkpt lat="45.09645" lon="5.60052">
        <ele>1509</ele>
        <time>2020-08-23T11:20:38Z</time>
      </trkpt>
      <trkpt lat="45.09647" lon="5.60051">
        <ele>1509.2</ele>
        <time>2020-08-23T11:20:39Z</time>
      </trkpt>
      <trkpt lat="45.09649" lon="5.6005">
        <ele>1509.2</ele>
        <time>2020-08-23T11:20:40Z</time>
      </trkpt>
      <trkpt lat="45.09651" lon="5.60049">
        <ele>1509.4</ele>
        <time>2020-08-23T11:20:41Z</time>
      </trkpt>
      <trkpt lat="45.09653" lon="5.60048">
        <ele>1509.6</ele>
        <time>2020-08-23T11:20:42Z</time>
      </trkpt>
      <trkpt lat="45.09655" lon="5.60048">
        <ele>1509.6</ele>
        <time>2020-08-23T11:20:43Z</time>
      </trkpt>
      <trkpt lat="45.09656" lon="5.60047">
        <ele>1509.8</ele>
        <time>2020-08-23T11:20:44Z</time>
      </trkpt>
      <trkpt lat="45.09658" lon="5.60046">
        <ele>1509.8</ele>
        <time>2020-08-23T11:20:45Z</time>
      </trkpt>
      <trkpt lat="45.09659" lon="5.60046">
        <ele>1510</ele>
        <time>2020-08-23T11:20:46Z</time>
      </trkpt>
      <trkpt lat="45.0966" lon="5.60046">
        <ele>1510</ele>
        <time>2020-08-23T11:20:47Z</time>
      </trkpt>
      <trkpt lat="45.09662" lon="5.60045">
        <ele>1510.2</ele>
        <time>2020-08-23T11:20:48Z</time>
      </trkpt>
      <trkpt lat="45.09664" lon="5.60045">
        <ele>1510.2</ele>
        <time>2020-08-23T11:20:49Z</time>
      </trkpt>
      <trkpt lat="45.09666" lon="5.60045">
        <ele>1510.2</ele>
        <time>2020-08-23T11:20:50Z</time>
      </trkpt>
      <trkpt lat="45.09668" lon="5.60045">
        <ele>1510.4</ele>
        <time>2020-08-23T11:20:51Z</time>
      </trkpt>
      <trkpt lat="45.09669" lon="5.60046">
        <ele>1510.6</ele>
        <time>2020-08-23T11:20:52Z</time>
      </trkpt>
      <trkpt lat="45.09671" lon="5.60047">
        <ele>1510.6</ele>
        <time>2020-08-23T11:20:53Z</time>
      </trkpt>
      <trkpt lat="45.09673" lon="5.60048">
        <ele>1510.8</ele>
        <time>2020-08-23T11:20:54Z</time>
      </trkpt>
      <trkpt lat="45.09674" lon="5.60049">
        <ele>1510.8</ele>
        <time>2020-08-23T11:20:55Z</time>
      </trkpt>
      <trkpt lat="45.09675" lon="5.60049">
        <ele>1510.8</ele>
        <time>2020-08-23T11:20:56Z</time>
      </trkpt>
      <trkpt lat="45.09677" lon="5.6005">
        <ele>1510.8</ele>
        <time>2020-08-23T11:20:57Z</time>
      </trkpt>
      <trkpt lat="45.09678" lon="5.6005">
        <ele>1511</ele>
        <time>2020-08-23T11:20:58Z</time>
      </trkpt>
      <trkpt lat="45.09678" lon="5.6005">
        <ele>1511</ele>
        <time>2020-08-23T11:20:59Z</time>
      </trkpt>
      <trkpt lat="45.09694" lon="5.60042">
        <ele>1511.2</ele>
        <time>2020-08-23T11:37:45Z</time>
      </trkpt>
      <trkpt lat="45.09699" lon="5.6004">
        <ele>1511.2</ele>
        <time>2020-08-23T11:37:46Z</time>
      </trkpt>
      <trkpt lat="45.09704" lon="5.60038">
        <ele>1511.2</ele>
        <time>2020-08-23T11:37:47Z</time>
      </trkpt>
      <trkpt lat="45.0971" lon="5.60033">
        <ele>1511.2</ele>
        <time>2020-08-23T11:37:48Z</time>
      </trkpt>
      <trkpt lat="45.09716" lon="5.60029">
        <ele>1511.2</ele>
        <time>2020-08-23T11:37:49Z</time>
      </trkpt>
      <trkpt lat="45.09722" lon="5.60024">
        <ele>1511.2</ele>
        <time>2020-08-23T11:37:50Z</time>
      </trkpt>
      <trkpt lat="45.09729" lon="5.6002">
        <ele>1511.2</ele>
        <time>2020-08-23T11:37:51Z</time>
      </trkpt>
      <trkpt lat="45.09735" lon="5.60017">
        <ele>1511.2</ele>
        <time>2020-08-23T11:37:52Z</time>
      </trkpt>
      <trkpt lat="45.09741" lon="5.60016">
        <ele>1511.4</ele>
        <time>2020-08-23T11:37:53Z</time>
      </trkpt>
      <trkpt lat="45.09747" lon="5.60016">
        <ele>1511.4</ele>
        <time>2020-08-23T11:37:54Z</time>
      </trkpt>
      <trkpt lat="45.09752" lon="5.60016">
        <ele>1511.4</ele>
        <time>2020-08-23T11:37:55Z</time>
      </trkpt>
      <trkpt lat="45.09756" lon="5.60017">
        <ele>1511.6</ele>
        <time>2020-08-23T11:37:56Z</time>
      </trkpt>
      <trkpt lat="45.09758" lon="5.60018">
        <ele>1511.6</ele>
        <time>2020-08-23T11:37:57Z</time>
      </trkpt>
      <trkpt lat="45.09761" lon="5.60018">
        <ele>1511.8</ele>
        <time>2020-08-23T11:37:58Z</time>
      </trkpt>
      <trkpt lat="45.09763" lon="5.60018">
        <ele>1511.8</ele>
        <time>2020-08-23T11:37:59Z</time>
      </trkpt>
      <trkpt lat="45.09766" lon="5.60019">
        <ele>1512</ele>
        <time>2020-08-23T11:38:00Z</time>
      </trkpt>
      <trkpt lat="45.09768" lon="5.60019">
        <ele>1512.2</ele>
        <time>2020-08-23T11:38:01Z</time>
      </trkpt>
      <trkpt lat="45.09771" lon="5.60019">
        <ele>1512.4</ele>
        <time>2020-08-23T11:38:02Z</time>
      </trkpt>
      <trkpt lat="45.09773" lon="5.60019">
        <ele>1512.6</ele>
        <time>2020-08-23T11:38:03Z</time>
      </trkpt>
      <trkpt lat="45.09775" lon="5.60018">
        <ele>1512.8</ele>
        <time>2020-08-23T11:38:04Z</time>
      </trkpt>
      <trkpt lat="45.09778" lon="5.60018">
        <ele>1513</ele>
        <time>2020-08-23T11:38:05Z</time>
      </trkpt>
      <trkpt lat="45.09779" lon="5.60018">
        <ele>1513.2</ele>
        <time>2020-08-23T11:38:06Z</time>
      </trkpt>
      <trkpt lat="45.09781" lon="5.60018">
        <ele>1513.4</ele>
        <time>2020-08-23T11:38:07Z</time>
      </trkpt>
      <trkpt lat="45.09783" lon="5.60018">
        <ele>1513.4</ele>
        <time>2020-08-23T11:38:08Z</time>
      </trkpt>
      <trkpt lat="45.09786" lon="5.60018">
        <ele>1513.4</ele>
        <time>2020-08-23T11:38:09Z</time>
      </trkpt>
      <trkpt lat="45.09787" lon="5.60017">
        <ele>1513.6</ele>
        <time>2020-08-23T11:38:10Z</time>
      </trkpt>
      <trkpt lat="45.09789" lon="5.60017">
        <ele>1513.8</ele>
        <time>2020-08-23T11:38:11Z</time>
      </trkpt>
      <trkpt lat="45.09791" lon="5.60016">
        <ele>1513.8</ele>
        <time>2020-08-23T11:38:12Z</time>
      </trkpt>
      <trkpt lat="45.09793" lon="5.60015">
        <ele>1514</ele>
        <time>2020-08-23T11:38:13Z</time>
      </trkpt>
      <trkpt lat="45.09794" lon="5.60014">
        <ele>1514</ele>
        <time>2020-08-23T11:38:14Z</time>
      </trkpt>
      <trkpt lat="45.09795" lon="5.60013">
        <ele>1514.2</ele>
        <time>2020-08-23T11:38:15Z</time>
      </trkpt>
      <trkpt lat="45.09796" lon="5.60012">
        <ele>1514.4</ele>
        <time>2020-08-23T11:38:16Z</time>
      </trkpt>
      <trkpt lat="45.09797" lon="5.60011">
        <ele>1514.4</ele>
        <time>2020-08-23T11:38:17Z</time>
      </trkpt>
      <trkpt lat="45.09798" lon="5.6001">
        <ele>1514.6</ele>
        <time>2020-08-23T11:38:18Z</time>
      </trkpt>
      <trkpt lat="45.098" lon="5.60009">
        <ele>1514.8</ele>
        <time>2020-08-23T11:38:19Z</time>
      </trkpt>
      <trkpt lat="45.09803" lon="5.60007">
        <ele>1514.8</ele>
        <time>2020-08-23T11:38:20Z</time>
      </trkpt>
      <trkpt lat="45.09805" lon="5.60006">
        <ele>1515</ele>
        <time>2020-08-23T11:38:21Z</time>
      </trkpt>
      <trkpt lat="45.09807" lon="5.60004">
        <ele>1515</ele>
        <time>2020-08-23T11:38:22Z</time>
      </trkpt>
      <trkpt lat="45.0981" lon="5.60001">
        <ele>1515</ele>
        <time>2020-08-23T11:38:23Z</time>
      </trkpt>
      <trkpt lat="45.09812" lon="5.59999">
        <ele>1515.2</ele>
        <time>2020-08-23T11:38:24Z</time>
      </trkpt>
      <trkpt lat="45.09815" lon="5.59997">
        <ele>1515.2</ele>
        <time>2020-08-23T11:38:25Z</time>
      </trkpt>
      <trkpt lat="45.09818" lon="5.59995">
        <ele>1515.2</ele>
        <time>2020-08-23T11:38:26Z</time>
      </trkpt>
      <trkpt lat="45.09821" lon="5.59993">
        <ele>1515.2</ele>
        <time>2020-08-23T11:38:27Z</time>
      </trkpt>
      <trkpt lat="45.09823" lon="5.59992">
        <ele>1515.4</ele>
        <time>2020-08-23T11:38:28Z</time>
      </trkpt>
      <trkpt lat="45.09826" lon="5.59991">
        <ele>1515.4</ele>
        <time>2020-08-23T11:38:29Z</time>
      </trkpt>
      <trkpt lat="45.09829" lon="5.5999">
        <ele>1515.6</ele>
        <time>2020-08-23T11:38:30Z</time>
      </trkpt>
      <trkpt lat="45.09831" lon="5.59989">
        <ele>1515.6</ele>
        <time>2020-08-23T11:38:31Z</time>
      </trkpt>
      <trkpt lat="45.09834" lon="5.59989">
        <ele>1515.8</ele>
        <time>2020-08-23T11:38:32Z</time>
      </trkpt>
      <trkpt lat="45.09836" lon="5.59988">
        <ele>1515.8</ele>
        <time>2020-08-23T11:38:33Z</time>
      </trkpt>
      <trkpt lat="45.09839" lon="5.59988">
        <ele>1515.8</ele>
        <time>2020-08-23T11:38:34Z</time>
      </trkpt>
      <trkpt lat="45.09841" lon="5.59988">
        <ele>1516</ele>
        <time>2020-08-23T11:38:35Z</time>
      </trkpt>
      <trkpt lat="45.09843" lon="5.59989">
        <ele>1516</ele>
        <time>2020-08-23T11:38:36Z</time>
      </trkpt>
      <trkpt lat="45.09846" lon="5.5999">
        <ele>1516.2</ele>
        <time>2020-08-23T11:38:37Z</time>
      </trkpt>
      <trkpt lat="45.09848" lon="5.59991">
        <ele>1516.2</ele>
        <time>2020-08-23T11:38:38Z</time>
      </trkpt>
      <trkpt lat="45.09851" lon="5.59992">
        <ele>1516.4</ele>
        <time>2020-08-23T11:38:39Z</time>
      </trkpt>
      <trkpt lat="45.09854" lon="5.59993">
        <ele>1516.4</ele>
        <time>2020-08-23T11:38:40Z</time>
      </trkpt>
      <trkpt lat="45.09858" lon="5.59994">
        <ele>1516.6</ele>
        <time>2020-08-23T11:38:41Z</time>
      </trkpt>
      <trkpt lat="45.09862" lon="5.59995">
        <ele>1516.6</ele>
        <time>2020-08-23T11:38:42Z</time>
      </trkpt>
      <trkpt lat="45.09867" lon="5.59996">
        <ele>1516.8</ele>
        <time>2020-08-23T11:38:43Z</time>
      </trkpt>
      <trkpt lat="45.09873" lon="5.59997">
        <ele>1516.8</ele>
        <time>2020-08-23T11:38:44Z</time>
      </trkpt>
      <trkpt lat="45.0988" lon="5.59998">
        <ele>1517</ele>
        <time>2020-08-23T11:38:45Z</time>
      </trkpt>
      <trkpt lat="45.09887" lon="5.59997">
        <ele>1517</ele>
        <time>2020-08-23T11:38:46Z</time>
      </trkpt>
      <trkpt lat="45.09895" lon="5.59996">
        <ele>1517</ele>
        <time>2020-08-23T11:38:47Z</time>
      </trkpt>
      <trkpt lat="45.09902" lon="5.59995">
        <ele>1517</ele>
        <time>2020-08-23T11:38:48Z</time>
      </trkpt>
      <trkpt lat="45.09908" lon="5.59994">
        <ele>1517</ele>
        <time>2020-08-23T11:38:49Z</time>
      </trkpt>
      <trkpt lat="45.09914" lon="5.59994">
        <ele>1517.2</ele>
        <time>2020-08-23T11:38:50Z</time>
      </trkpt>
      <trkpt lat="45.09919" lon="5.59995">
        <ele>1517.4</ele>
        <time>2020-08-23T11:38:51Z</time>
      </trkpt>
      <trkpt lat="45.09922" lon="5.59996">
        <ele>1517.6</ele>
        <time>2020-08-23T11:38:52Z</time>
      </trkpt>
      <trkpt lat="45.09925" lon="5.59999">
        <ele>1518</ele>
        <time>2020-08-23T11:38:53Z</time>
      </trkpt>
      <trkpt lat="45.09927" lon="5.6">
        <ele>1518.2</ele>
        <time>2020-08-23T11:38:54Z</time>
      </trkpt>
      <trkpt lat="45.09929" lon="5.60002">
        <ele>1518.6</ele>
        <time>2020-08-23T11:38:55Z</time>
      </trkpt>
      <trkpt lat="45.09931" lon="5.60004">
        <ele>1518.8</ele>
        <time>2020-08-23T11:38:56Z</time>
      </trkpt>
      <trkpt lat="45.09933" lon="5.60006">
        <ele>1519</ele>
        <time>2020-08-23T11:38:57Z</time>
      </trkpt>
      <trkpt lat="45.09935" lon="5.60007">
        <ele>1519.2</ele>
        <time>2020-08-23T11:38:58Z</time>
      </trkpt>
      <trkpt lat="45.09937" lon="5.60008">
        <ele>1519.4</ele>
        <time>2020-08-23T11:38:59Z</time>
      </trkpt>
      <trkpt lat="45.0994" lon="5.60009">
        <ele>1519.8</ele>
        <time>2020-08-23T11:39:00Z</time>
      </trkpt>
      <trkpt lat="45.09942" lon="5.60009">
        <ele>1519.8</ele>
        <time>2020-08-23T11:39:01Z</time>
      </trkpt>
      <trkpt lat="45.09945" lon="5.60008">
        <ele>1519.4</ele>
        <time>2020-08-23T11:39:02Z</time>
      </trkpt>
      <trkpt lat="45.09947" lon="5.60007">
        <ele>1519.2</ele>
        <time>2020-08-23T11:39:03Z</time>
      </trkpt>
      <trkpt lat="45.0995" lon="5.60005">
        <ele>1519</ele>
        <time>2020-08-23T11:39:04Z</time>
      </trkpt>
      <trkpt lat="45.09952" lon="5.60003">
        <ele>1519</ele>
        <time>2020-08-23T11:39:05Z</time>
      </trkpt>
      <trkpt lat="45.09954" lon="5.60001">
        <ele>1519</ele>
        <time>2020-08-23T11:39:06Z</time>
      </trkpt>
      <trkpt lat="45.09956" lon="5.59999">
        <ele>1519</ele>
        <time>2020-08-23T11:39:07Z</time>
      </trkpt>
      <trkpt lat="45.09958" lon="5.59997">
        <ele>1519</ele>
        <time>2020-08-23T11:39:08Z</time>
      </trkpt>
      <trkpt lat="45.09959" lon="5.59994">
        <ele>1519.2</ele>
        <time>2020-08-23T11:39:09Z</time>
      </trkpt>
      <trkpt lat="45.0996" lon="5.59992">
        <ele>1519.4</ele>
        <time>2020-08-23T11:39:10Z</time>
      </trkpt>
      <trkpt lat="45.09961" lon="5.5999">
        <ele>1519.6</ele>
        <time>2020-08-23T11:39:11Z</time>
      </trkpt>
      <trkpt lat="45.09963" lon="5.59988">
        <ele>1519.8</ele>
        <time>2020-08-23T11:39:12Z</time>
      </trkpt>
      <trkpt lat="45.09964" lon="5.59987">
        <ele>1519.8</ele>
        <time>2020-08-23T11:39:13Z</time>
      </trkpt>
      <trkpt lat="45.09965" lon="5.59985">
        <ele>1520</ele>
        <time>2020-08-23T11:39:14Z</time>
      </trkpt>
      <trkpt lat="45.09966" lon="5.59984">
        <ele>1520.2</ele>
        <time>2020-08-23T11:39:15Z</time>
      </trkpt>
      <trkpt lat="45.09967" lon="5.59983">
        <ele>1520.4</ele>
        <time>2020-08-23T11:39:16Z</time>
      </trkpt>
      <trkpt lat="45.09968" lon="5.59982">
        <ele>1520.6</ele>
        <time>2020-08-23T11:39:17Z</time>
      </trkpt>
      <trkpt lat="45.09969" lon="5.59981">
        <ele>1521</ele>
        <time>2020-08-23T11:39:18Z</time>
      </trkpt>
      <trkpt lat="45.0997" lon="5.5998">
        <ele>1521.2</ele>
        <time>2020-08-23T11:39:19Z</time>
      </trkpt>
      <trkpt lat="45.09971" lon="5.59978">
        <ele>1521.4</ele>
        <time>2020-08-23T11:39:20Z</time>
      </trkpt>
      <trkpt lat="45.09972" lon="5.59977">
        <ele>1521.6</ele>
        <time>2020-08-23T11:39:21Z</time>
      </trkpt>
      <trkpt lat="45.09974" lon="5.59976">
        <ele>1521.8</ele>
        <time>2020-08-23T11:39:22Z</time>
      </trkpt>
      <trkpt lat="45.09975" lon="5.59974">
        <ele>1522</ele>
        <time>2020-08-23T11:39:23Z</time>
      </trkpt>
      <trkpt lat="45.09977" lon="5.59973">
        <ele>1522.2</ele>
        <time>2020-08-23T11:39:24Z</time>
      </trkpt>
      <trkpt lat="45.09978" lon="5.59972">
        <ele>1522.2</ele>
        <time>2020-08-23T11:39:25Z</time>
      </trkpt>
      <trkpt lat="45.0998" lon="5.59971">
        <ele>1522.4</ele>
        <time>2020-08-23T11:39:26Z</time>
      </trkpt>
      <trkpt lat="45.09981" lon="5.59971">
        <ele>1522.6</ele>
        <time>2020-08-23T11:39:27Z</time>
      </trkpt>
      <trkpt lat="45.09983" lon="5.5997">
        <ele>1522.8</ele>
        <time>2020-08-23T11:39:28Z</time>
      </trkpt>
      <trkpt lat="45.09985" lon="5.5997">
        <ele>1523</ele>
        <time>2020-08-23T11:39:29Z</time>
      </trkpt>
      <trkpt lat="45.09986" lon="5.59969">
        <ele>1523.2</ele>
        <time>2020-08-23T11:39:30Z</time>
      </trkpt>
      <trkpt lat="45.09988" lon="5.59969">
        <ele>1523.4</ele>
        <time>2020-08-23T11:39:31Z</time>
      </trkpt>
      <trkpt lat="45.09989" lon="5.59968">
        <ele>1523.6</ele>
        <time>2020-08-23T11:39:32Z</time>
      </trkpt>
      <trkpt lat="45.0999" lon="5.59967">
        <ele>1523.8</ele>
        <time>2020-08-23T11:39:33Z</time>
      </trkpt>
      <trkpt lat="45.09992" lon="5.59967">
        <ele>1524</ele>
        <time>2020-08-23T11:39:34Z</time>
      </trkpt>
      <trkpt lat="45.09993" lon="5.59967">
        <ele>1524.2</ele>
        <time>2020-08-23T11:39:35Z</time>
      </trkpt>
      <trkpt lat="45.09995" lon="5.59967">
        <ele>1524.4</ele>
        <time>2020-08-23T11:39:36Z</time>
      </trkpt>
      <trkpt lat="45.09998" lon="5.59967">
        <ele>1524.4</ele>
        <time>2020-08-23T11:39:37Z</time>
      </trkpt>
      <trkpt lat="45.1" lon="5.59967">
        <ele>1524.6</ele>
        <time>2020-08-23T11:39:38Z</time>
      </trkpt>
      <trkpt lat="45.10002" lon="5.59967">
        <ele>1524.8</ele>
        <time>2020-08-23T11:39:39Z</time>
      </trkpt>
      <trkpt lat="45.10005" lon="5.59966">
        <ele>1525</ele>
        <time>2020-08-23T11:39:40Z</time>
      </trkpt>
      <trkpt lat="45.10008" lon="5.59966">
        <ele>1525</ele>
        <time>2020-08-23T11:39:41Z</time>
      </trkpt>
      <trkpt lat="45.10011" lon="5.59965">
        <ele>1525.2</ele>
        <time>2020-08-23T11:39:42Z</time>
      </trkpt>
      <trkpt lat="45.10014" lon="5.59965">
        <ele>1525.2</ele>
        <time>2020-08-23T11:39:43Z</time>
      </trkpt>
      <trkpt lat="45.10017" lon="5.59963">
        <ele>1525.4</ele>
        <time>2020-08-23T11:39:44Z</time>
      </trkpt>
      <trkpt lat="45.1002" lon="5.59961">
        <ele>1525.6</ele>
        <time>2020-08-23T11:39:45Z</time>
      </trkpt>
      <trkpt lat="45.10025" lon="5.59958">
        <ele>1525.6</ele>
        <time>2020-08-23T11:39:46Z</time>
      </trkpt>
      <trkpt lat="45.1003" lon="5.59954">
        <ele>1525.8</ele>
        <time>2020-08-23T11:39:47Z</time>
      </trkpt>
      <trkpt lat="45.10034" lon="5.59951">
        <ele>1526</ele>
        <time>2020-08-23T11:39:48Z</time>
      </trkpt>
      <trkpt lat="45.10038" lon="5.59947">
        <ele>1526</ele>
        <time>2020-08-23T11:39:49Z</time>
      </trkpt>
      <trkpt lat="45.10042" lon="5.59944">
        <ele>1526.2</ele>
        <time>2020-08-23T11:39:50Z</time>
      </trkpt>
      <trkpt lat="45.10045" lon="5.59943">
        <ele>1526.2</ele>
        <time>2020-08-23T11:39:51Z</time>
      </trkpt>
      <trkpt lat="45.10047" lon="5.59941">
        <ele>1526.4</ele>
        <time>2020-08-23T11:39:52Z</time>
      </trkpt>
      <trkpt lat="45.10049" lon="5.5994">
        <ele>1526.4</ele>
        <time>2020-08-23T11:39:53Z</time>
      </trkpt>
      <trkpt lat="45.10052" lon="5.59939">
        <ele>1526.4</ele>
        <time>2020-08-23T11:39:54Z</time>
      </trkpt>
      <trkpt lat="45.10054" lon="5.59938">
        <ele>1526.6</ele>
        <time>2020-08-23T11:39:55Z</time>
      </trkpt>
      <trkpt lat="45.10057" lon="5.59938">
        <ele>1526.6</ele>
        <time>2020-08-23T11:39:56Z</time>
      </trkpt>
      <trkpt lat="45.1006" lon="5.59937">
        <ele>1526.8</ele>
        <time>2020-08-23T11:39:57Z</time>
      </trkpt>
      <trkpt lat="45.10063" lon="5.59937">
        <ele>1526.8</ele>
        <time>2020-08-23T11:39:58Z</time>
      </trkpt>
      <trkpt lat="45.10066" lon="5.59936">
        <ele>1527</ele>
        <time>2020-08-23T11:39:59Z</time>
      </trkpt>
      <trkpt lat="45.10068" lon="5.59936">
        <ele>1527.2</ele>
        <time>2020-08-23T11:40:00Z</time>
      </trkpt>
      <trkpt lat="45.1007" lon="5.59935">
        <ele>1527.2</ele>
        <time>2020-08-23T11:40:01Z</time>
      </trkpt>
      <trkpt lat="45.10073" lon="5.59934">
        <ele>1527.2</ele>
        <time>2020-08-23T11:40:02Z</time>
      </trkpt>
      <trkpt lat="45.10075" lon="5.59934">
        <ele>1527.4</ele>
        <time>2020-08-23T11:40:03Z</time>
      </trkpt>
      <trkpt lat="45.10078" lon="5.59933">
        <ele>1527.4</ele>
        <time>2020-08-23T11:40:04Z</time>
      </trkpt>
      <trkpt lat="45.1008" lon="5.59933">
        <ele>1527.6</ele>
        <time>2020-08-23T11:40:05Z</time>
      </trkpt>
      <trkpt lat="45.10083" lon="5.59932">
        <ele>1527.6</ele>
        <time>2020-08-23T11:40:06Z</time>
      </trkpt>
      <trkpt lat="45.10086" lon="5.59931">
        <ele>1527.8</ele>
        <time>2020-08-23T11:40:07Z</time>
      </trkpt>
      <trkpt lat="45.10089" lon="5.5993">
        <ele>1527.8</ele>
        <time>2020-08-23T11:40:08Z</time>
      </trkpt>
      <trkpt lat="45.10092" lon="5.5993">
        <ele>1528</ele>
        <time>2020-08-23T11:40:09Z</time>
      </trkpt>
      <trkpt lat="45.10095" lon="5.59929">
        <ele>1528</ele>
        <time>2020-08-23T11:40:10Z</time>
      </trkpt>
      <trkpt lat="45.10099" lon="5.59928">
        <ele>1528.2</ele>
        <time>2020-08-23T11:40:11Z</time>
      </trkpt>
      <trkpt lat="45.10102" lon="5.59928">
        <ele>1528.2</ele>
        <time>2020-08-23T11:40:12Z</time>
      </trkpt>
      <trkpt lat="45.10105" lon="5.59927">
        <ele>1528.2</ele>
        <time>2020-08-23T11:40:13Z</time>
      </trkpt>
      <trkpt lat="45.10108" lon="5.59927">
        <ele>1528.4</ele>
        <time>2020-08-23T11:40:14Z</time>
      </trkpt>
      <trkpt lat="45.10111" lon="5.59926">
        <ele>1528.4</ele>
        <time>2020-08-23T11:40:15Z</time>
      </trkpt>
      <trkpt lat="45.10114" lon="5.59926">
        <ele>1528.6</ele>
        <time>2020-08-23T11:40:16Z</time>
      </trkpt>
      <trkpt lat="45.10117" lon="5.59926">
        <ele>1528.8</ele>
        <time>2020-08-23T11:40:17Z</time>
      </trkpt>
      <trkpt lat="45.10119" lon="5.59925">
        <ele>1528.8</ele>
        <time>2020-08-23T11:40:18Z</time>
      </trkpt>
      <trkpt lat="45.10122" lon="5.59925">
        <ele>1529</ele>
        <time>2020-08-23T11:40:19Z</time>
      </trkpt>
      <trkpt lat="45.10125" lon="5.59925">
        <ele>1529.2</ele>
        <time>2020-08-23T11:40:20Z</time>
      </trkpt>
      <trkpt lat="45.10128" lon="5.59926">
        <ele>1529.2</ele>
        <time>2020-08-23T11:40:21Z</time>
      </trkpt>
      <trkpt lat="45.1013" lon="5.59926">
        <ele>1529.4</ele>
        <time>2020-08-23T11:40:22Z</time>
      </trkpt>
      <trkpt lat="45.10133" lon="5.59926">
        <ele>1529.6</ele>
        <time>2020-08-23T11:40:23Z</time>
      </trkpt>
      <trkpt lat="45.10136" lon="5.59927">
        <ele>1529.8</ele>
        <time>2020-08-23T11:40:24Z</time>
      </trkpt>
      <trkpt lat="45.10139" lon="5.59928">
        <ele>1530</ele>
        <time>2020-08-23T11:40:25Z</time>
      </trkpt>
      <trkpt lat="45.10142" lon="5.59929">
        <ele>1530</ele>
        <time>2020-08-23T11:40:26Z</time>
      </trkpt>
      <trkpt lat="45.10145" lon="5.59929">
        <ele>1530.2</ele>
        <time>2020-08-23T11:40:27Z</time>
      </trkpt>
      <trkpt lat="45.10148" lon="5.59929">
        <ele>1530.2</ele>
        <time>2020-08-23T11:40:28Z</time>
      </trkpt>
      <trkpt lat="45.10151" lon="5.59929">
        <ele>1530.4</ele>
        <time>2020-08-23T11:40:29Z</time>
      </trkpt>
      <trkpt lat="45.10154" lon="5.59929">
        <ele>1530.6</ele>
        <time>2020-08-23T11:40:30Z</time>
      </trkpt>
      <trkpt lat="45.10156" lon="5.59928">
        <ele>1530.6</ele>
        <time>2020-08-23T11:40:31Z</time>
      </trkpt>
      <trkpt lat="45.10159" lon="5.59928">
        <ele>1530.8</ele>
        <time>2020-08-23T11:40:32Z</time>
      </trkpt>
      <trkpt lat="45.10162" lon="5.59927">
        <ele>1531</ele>
        <time>2020-08-23T11:40:33Z</time>
      </trkpt>
      <trkpt lat="45.10164" lon="5.59927">
        <ele>1531</ele>
        <time>2020-08-23T11:40:34Z</time>
      </trkpt>
      <trkpt lat="45.10166" lon="5.59926">
        <ele>1531.2</ele>
        <time>2020-08-23T11:40:35Z</time>
      </trkpt>
      <trkpt lat="45.10168" lon="5.59926">
        <ele>1531.4</ele>
        <time>2020-08-23T11:40:36Z</time>
      </trkpt>
      <trkpt lat="45.1017" lon="5.59925">
        <ele>1531.4</ele>
        <time>2020-08-23T11:40:37Z</time>
      </trkpt>
      <trkpt lat="45.10172" lon="5.59925">
        <ele>1531.6</ele>
        <time>2020-08-23T11:40:38Z</time>
      </trkpt>
      <trkpt lat="45.10174" lon="5.59925">
        <ele>1531.8</ele>
        <time>2020-08-23T11:40:39Z</time>
      </trkpt>
      <trkpt lat="45.10175" lon="5.59926">
        <ele>1532</ele>
        <time>2020-08-23T11:40:40Z</time>
      </trkpt>
      <trkpt lat="45.10177" lon="5.59926">
        <ele>1532</ele>
        <time>2020-08-23T11:40:41Z</time>
      </trkpt>
      <trkpt lat="45.10179" lon="5.59926">
        <ele>1532</ele>
        <time>2020-08-23T11:40:42Z</time>
      </trkpt>
      <trkpt lat="45.10181" lon="5.59925">
        <ele>1532.2</ele>
        <time>2020-08-23T11:40:43Z</time>
      </trkpt>
      <trkpt lat="45.10183" lon="5.59925">
        <ele>1532.2</ele>
        <time>2020-08-23T11:40:44Z</time>
      </trkpt>
      <trkpt lat="45.10185" lon="5.59925">
        <ele>1532.2</ele>
        <time>2020-08-23T11:40:45Z</time>
      </trkpt>
      <trkpt lat="45.10187" lon="5.59924">
        <ele>1532.4</ele>
        <time>2020-08-23T11:40:46Z</time>
      </trkpt>
      <trkpt lat="45.10188" lon="5.59924">
        <ele>1532.4</ele>
        <time>2020-08-23T11:40:47Z</time>
      </trkpt>
      <trkpt lat="45.10191" lon="5.59923">
        <ele>1532.4</ele>
        <time>2020-08-23T11:40:48Z</time>
      </trkpt>
      <trkpt lat="45.10193" lon="5.59923">
        <ele>1532.4</ele>
        <time>2020-08-23T11:40:49Z</time>
      </trkpt>
      <trkpt lat="45.10194" lon="5.59922">
        <ele>1532.4</ele>
        <time>2020-08-23T11:40:50Z</time>
      </trkpt>
      <trkpt lat="45.10196" lon="5.59922">
        <ele>1532.4</ele>
        <time>2020-08-23T11:40:51Z</time>
      </trkpt>
      <trkpt lat="45.10199" lon="5.59921">
        <ele>1532.4</ele>
        <time>2020-08-23T11:40:52Z</time>
      </trkpt>
      <trkpt lat="45.10201" lon="5.59921">
        <ele>1532.4</ele>
        <time>2020-08-23T11:40:53Z</time>
      </trkpt>
      <trkpt lat="45.10203" lon="5.5992">
        <ele>1532.6</ele>
        <time>2020-08-23T11:40:54Z</time>
      </trkpt>
      <trkpt lat="45.10205" lon="5.5992">
        <ele>1532.6</ele>
        <time>2020-08-23T11:40:55Z</time>
      </trkpt>
      <trkpt lat="45.10207" lon="5.59919">
        <ele>1532.6</ele>
        <time>2020-08-23T11:40:56Z</time>
      </trkpt>
      <trkpt lat="45.1021" lon="5.59919">
        <ele>1532.8</ele>
        <time>2020-08-23T11:40:57Z</time>
      </trkpt>
      <trkpt lat="45.10212" lon="5.59918">
        <ele>1532.8</ele>
        <time>2020-08-23T11:40:58Z</time>
      </trkpt>
      <trkpt lat="45.10215" lon="5.59918">
        <ele>1532.8</ele>
        <time>2020-08-23T11:40:59Z</time>
      </trkpt>
      <trkpt lat="45.10217" lon="5.59917">
        <ele>1533</ele>
        <time>2020-08-23T11:41:00Z</time>
      </trkpt>
      <trkpt lat="45.1022" lon="5.59916">
        <ele>1533</ele>
        <time>2020-08-23T11:41:01Z</time>
      </trkpt>
      <trkpt lat="45.10223" lon="5.59915">
        <ele>1533</ele>
        <time>2020-08-23T11:41:02Z</time>
      </trkpt>
      <trkpt lat="45.10226" lon="5.59915">
        <ele>1533.2</ele>
        <time>2020-08-23T11:41:03Z</time>
      </trkpt>
      <trkpt lat="45.10228" lon="5.59914">
        <ele>1533.2</ele>
        <time>2020-08-23T11:41:04Z</time>
      </trkpt>
      <trkpt lat="45.10231" lon="5.59914">
        <ele>1533.2</ele>
        <time>2020-08-23T11:41:05Z</time>
      </trkpt>
      <trkpt lat="45.10234" lon="5.59913">
        <ele>1533.4</ele>
        <time>2020-08-23T11:41:06Z</time>
      </trkpt>
      <trkpt lat="45.10237" lon="5.59913">
        <ele>1533.4</ele>
        <time>2020-08-23T11:41:07Z</time>
      </trkpt>
      <trkpt lat="45.10239" lon="5.59912">
        <ele>1533.4</ele>
        <time>2020-08-23T11:41:08Z</time>
      </trkpt>
      <trkpt lat="45.10243" lon="5.59911">
        <ele>1533.4</ele>
        <time>2020-08-23T11:41:09Z</time>
      </trkpt>
      <trkpt lat="45.10246" lon="5.59911">
        <ele>1533.4</ele>
        <time>2020-08-23T11:41:10Z</time>
      </trkpt>
      <trkpt lat="45.10251" lon="5.59911">
        <ele>1533.6</ele>
        <time>2020-08-23T11:41:11Z</time>
      </trkpt>
      <trkpt lat="45.10255" lon="5.59911">
        <ele>1533.6</ele>
        <time>2020-08-23T11:41:12Z</time>
      </trkpt>
      <trkpt lat="45.10259" lon="5.59911">
        <ele>1533.6</ele>
        <time>2020-08-23T11:41:13Z</time>
      </trkpt>
      <trkpt lat="45.10265" lon="5.59911">
        <ele>1533.6</ele>
        <time>2020-08-23T11:41:14Z</time>
      </trkpt>
      <trkpt lat="45.1027" lon="5.59911">
        <ele>1533.8</ele>
        <time>2020-08-23T11:41:15Z</time>
      </trkpt>
      <trkpt lat="45.10276" lon="5.5991">
        <ele>1533.8</ele>
        <time>2020-08-23T11:41:16Z</time>
      </trkpt>
      <trkpt lat="45.10282" lon="5.59909">
        <ele>1533.6</ele>
        <time>2020-08-23T11:41:17Z</time>
      </trkpt>
      <trkpt lat="45.10287" lon="5.59908">
        <ele>1533.6</ele>
        <time>2020-08-23T11:41:18Z</time>
      </trkpt>
      <trkpt lat="45.10292" lon="5.59907">
        <ele>1533.8</ele>
        <time>2020-08-23T11:41:19Z</time>
      </trkpt>
      <trkpt lat="45.10297" lon="5.59906">
        <ele>1533.8</ele>
        <time>2020-08-23T11:41:20Z</time>
      </trkpt>
      <trkpt lat="45.10302" lon="5.59905">
        <ele>1533.8</ele>
        <time>2020-08-23T11:41:21Z</time>
      </trkpt>
      <trkpt lat="45.10308" lon="5.59905">
        <ele>1534</ele>
        <time>2020-08-23T11:41:22Z</time>
      </trkpt>
      <trkpt lat="45.10314" lon="5.59905">
        <ele>1534</ele>
        <time>2020-08-23T11:41:23Z</time>
      </trkpt>
      <trkpt lat="45.10321" lon="5.59905">
        <ele>1534.2</ele>
        <time>2020-08-23T11:41:24Z</time>
      </trkpt>
      <trkpt lat="45.10329" lon="5.59905">
        <ele>1534.2</ele>
        <time>2020-08-23T11:41:25Z</time>
      </trkpt>
      <trkpt lat="45.10336" lon="5.59904">
        <ele>1534.2</ele>
        <time>2020-08-23T11:41:26Z</time>
      </trkpt>
      <trkpt lat="45.10342" lon="5.59904">
        <ele>1534.2</ele>
        <time>2020-08-23T11:41:27Z</time>
      </trkpt>
      <trkpt lat="45.10346" lon="5.59903">
        <ele>1534.4</ele>
        <time>2020-08-23T11:41:28Z</time>
      </trkpt>
      <trkpt lat="45.10349" lon="5.59902">
        <ele>1534.6</ele>
        <time>2020-08-23T11:41:29Z</time>
      </trkpt>
      <trkpt lat="45.10351" lon="5.59901">
        <ele>1534.8</ele>
        <time>2020-08-23T11:41:30Z</time>
      </trkpt>
      <trkpt lat="45.10353" lon="5.599">
        <ele>1535</ele>
        <time>2020-08-23T11:41:31Z</time>
      </trkpt>
      <trkpt lat="45.10355" lon="5.599">
        <ele>1535.2</ele>
        <time>2020-08-23T11:41:32Z</time>
      </trkpt>
      <trkpt lat="45.10356" lon="5.59899">
        <ele>1535.4</ele>
        <time>2020-08-23T11:41:33Z</time>
      </trkpt>
      <trkpt lat="45.10358" lon="5.59898">
        <ele>1535.6</ele>
        <time>2020-08-23T11:41:34Z</time>
      </trkpt>
      <trkpt lat="45.1036" lon="5.59898">
        <ele>1535.8</ele>
        <time>2020-08-23T11:41:35Z</time>
      </trkpt>
      <trkpt lat="45.10362" lon="5.59898">
        <ele>1536</ele>
        <time>2020-08-23T11:41:36Z</time>
      </trkpt>
      <trkpt lat="45.10365" lon="5.59898">
        <ele>1536.2</ele>
        <time>2020-08-23T11:41:37Z</time>
      </trkpt>
      <trkpt lat="45.10366" lon="5.59898">
        <ele>1536.4</ele>
        <time>2020-08-23T11:41:38Z</time>
      </trkpt>
      <trkpt lat="45.10369" lon="5.59898">
        <ele>1536.4</ele>
        <time>2020-08-23T11:41:39Z</time>
      </trkpt>
      <trkpt lat="45.10371" lon="5.59899">
        <ele>1536.6</ele>
        <time>2020-08-23T11:41:40Z</time>
      </trkpt>
      <trkpt lat="45.10373" lon="5.59898">
        <ele>1536.6</ele>
        <time>2020-08-23T11:41:41Z</time>
      </trkpt>
      <trkpt lat="45.10375" lon="5.59898">
        <ele>1536.8</ele>
        <time>2020-08-23T11:41:42Z</time>
      </trkpt>
      <trkpt lat="45.10378" lon="5.59898">
        <ele>1536.8</ele>
        <time>2020-08-23T11:41:43Z</time>
      </trkpt>
      <trkpt lat="45.10379" lon="5.59897">
        <ele>1537</ele>
        <time>2020-08-23T11:41:44Z</time>
      </trkpt>
      <trkpt lat="45.10381" lon="5.59897">
        <ele>1537</ele>
        <time>2020-08-23T11:41:45Z</time>
      </trkpt>
      <trkpt lat="45.10384" lon="5.59897">
        <ele>1537.2</ele>
        <time>2020-08-23T11:41:46Z</time>
      </trkpt>
      <trkpt lat="45.10386" lon="5.59897">
        <ele>1537.2</ele>
        <time>2020-08-23T11:41:47Z</time>
      </trkpt>
      <trkpt lat="45.10388" lon="5.59896">
        <ele>1537.4</ele>
        <time>2020-08-23T11:41:48Z</time>
      </trkpt>
      <trkpt lat="45.1039" lon="5.59896">
        <ele>1537.4</ele>
        <time>2020-08-23T11:41:49Z</time>
      </trkpt>
      <trkpt lat="45.10392" lon="5.59895">
        <ele>1537.6</ele>
        <time>2020-08-23T11:41:50Z</time>
      </trkpt>
      <trkpt lat="45.10395" lon="5.59894">
        <ele>1537.8</ele>
        <time>2020-08-23T11:41:51Z</time>
      </trkpt>
      <trkpt lat="45.10397" lon="5.59893">
        <ele>1537.8</ele>
        <time>2020-08-23T11:41:52Z</time>
      </trkpt>
      <trkpt lat="45.10399" lon="5.59893">
        <ele>1537.8</ele>
        <time>2020-08-23T11:41:53Z</time>
      </trkpt>
      <trkpt lat="45.10401" lon="5.59892">
        <ele>1537.8</ele>
        <time>2020-08-23T11:41:54Z</time>
      </trkpt>
      <trkpt lat="45.10403" lon="5.59891">
        <ele>1538</ele>
        <time>2020-08-23T11:41:55Z</time>
      </trkpt>
      <trkpt lat="45.10404" lon="5.5989">
        <ele>1538</ele>
        <time>2020-08-23T11:41:56Z</time>
      </trkpt>
      <trkpt lat="45.10406" lon="5.5989">
        <ele>1537.4</ele>
        <time>2020-08-23T11:41:57Z</time>
      </trkpt>
      <trkpt lat="45.10408" lon="5.59888">
        <ele>1537.4</ele>
        <time>2020-08-23T11:41:58Z</time>
      </trkpt>
      <trkpt lat="45.1041" lon="5.59887">
        <ele>1537.6</ele>
        <time>2020-08-23T11:41:59Z</time>
      </trkpt>
      <trkpt lat="45.10413" lon="5.59885">
        <ele>1537.6</ele>
        <time>2020-08-23T11:42:00Z</time>
      </trkpt>
      <trkpt lat="45.10415" lon="5.59883">
        <ele>1537.8</ele>
        <time>2020-08-23T11:42:01Z</time>
      </trkpt>
      <trkpt lat="45.10418" lon="5.59881">
        <ele>1538</ele>
        <time>2020-08-23T11:42:02Z</time>
      </trkpt>
      <trkpt lat="45.10421" lon="5.59879">
        <ele>1538</ele>
        <time>2020-08-23T11:42:03Z</time>
      </trkpt>
      <trkpt lat="45.10424" lon="5.59877">
        <ele>1537.6</ele>
        <time>2020-08-23T11:42:04Z</time>
      </trkpt>
      <trkpt lat="45.10428" lon="5.59876">
        <ele>1537.2</ele>
        <time>2020-08-23T11:42:05Z</time>
      </trkpt>
      <trkpt lat="45.10431" lon="5.59874">
        <ele>1536.4</ele>
        <time>2020-08-23T11:42:06Z</time>
      </trkpt>
      <trkpt lat="45.10435" lon="5.59872">
        <ele>1536.2</ele>
        <time>2020-08-23T11:42:07Z</time>
      </trkpt>
      <trkpt lat="45.10439" lon="5.5987">
        <ele>1536.2</ele>
        <time>2020-08-23T11:42:08Z</time>
      </trkpt>
      <trkpt lat="45.10443" lon="5.59869">
        <ele>1536.4</ele>
        <time>2020-08-23T11:42:09Z</time>
      </trkpt>
      <trkpt lat="45.10447" lon="5.59868">
        <ele>1536.4</ele>
        <time>2020-08-23T11:42:10Z</time>
      </trkpt>
      <trkpt lat="45.10451" lon="5.59867">
        <ele>1536.6</ele>
        <time>2020-08-23T11:42:11Z</time>
      </trkpt>
      <trkpt lat="45.10456" lon="5.59866">
        <ele>1536.6</ele>
        <time>2020-08-23T11:42:12Z</time>
      </trkpt>
      <trkpt lat="45.1046" lon="5.59866">
        <ele>1536.6</ele>
        <time>2020-08-23T11:42:13Z</time>
      </trkpt>
      <trkpt lat="45.10463" lon="5.59866">
        <ele>1536.6</ele>
        <time>2020-08-23T11:42:14Z</time>
      </trkpt>
      <trkpt lat="45.10466" lon="5.59865">
        <ele>1536.8</ele>
        <time>2020-08-23T11:42:15Z</time>
      </trkpt>
      <trkpt lat="45.10468" lon="5.59865">
        <ele>1536.8</ele>
        <time>2020-08-23T11:42:16Z</time>
      </trkpt>
      <trkpt lat="45.10471" lon="5.59865">
        <ele>1537</ele>
        <time>2020-08-23T11:42:17Z</time>
      </trkpt>
      <trkpt lat="45.10474" lon="5.59864">
        <ele>1537.2</ele>
        <time>2020-08-23T11:42:18Z</time>
      </trkpt>
      <trkpt lat="45.10476" lon="5.59864">
        <ele>1537.2</ele>
        <time>2020-08-23T11:42:19Z</time>
      </trkpt>
      <trkpt lat="45.10479" lon="5.59863">
        <ele>1537.4</ele>
        <time>2020-08-23T11:42:20Z</time>
      </trkpt>
      <trkpt lat="45.10482" lon="5.59863">
        <ele>1537.4</ele>
        <time>2020-08-23T11:42:21Z</time>
      </trkpt>
      <trkpt lat="45.10485" lon="5.59863">
        <ele>1537.6</ele>
        <time>2020-08-23T11:42:22Z</time>
      </trkpt>
      <trkpt lat="45.10489" lon="5.59862">
        <ele>1537.8</ele>
        <time>2020-08-23T11:42:23Z</time>
      </trkpt>
      <trkpt lat="45.10492" lon="5.59863">
        <ele>1537.8</ele>
        <time>2020-08-23T11:42:24Z</time>
      </trkpt>
      <trkpt lat="45.10495" lon="5.59863">
        <ele>1537.8</ele>
        <time>2020-08-23T11:42:25Z</time>
      </trkpt>
      <trkpt lat="45.10499" lon="5.59863">
        <ele>1538</ele>
        <time>2020-08-23T11:42:26Z</time>
      </trkpt>
      <trkpt lat="45.10503" lon="5.59864">
        <ele>1538</ele>
        <time>2020-08-23T11:42:27Z</time>
      </trkpt>
      <trkpt lat="45.10507" lon="5.59866">
        <ele>1538.2</ele>
        <time>2020-08-23T11:42:28Z</time>
      </trkpt>
      <trkpt lat="45.10511" lon="5.59867">
        <ele>1538.2</ele>
        <time>2020-08-23T11:42:29Z</time>
      </trkpt>
      <trkpt lat="45.10515" lon="5.5987">
        <ele>1538.4</ele>
        <time>2020-08-23T11:42:30Z</time>
      </trkpt>
      <trkpt lat="45.10518" lon="5.59872">
        <ele>1538.6</ele>
        <time>2020-08-23T11:42:31Z</time>
      </trkpt>
      <trkpt lat="45.10523" lon="5.59874">
        <ele>1538.8</ele>
        <time>2020-08-23T11:42:32Z</time>
      </trkpt>
      <trkpt lat="45.10526" lon="5.59875">
        <ele>1539</ele>
        <time>2020-08-23T11:42:33Z</time>
      </trkpt>
      <trkpt lat="45.10531" lon="5.59877">
        <ele>1539.2</ele>
        <time>2020-08-23T11:42:34Z</time>
      </trkpt>
      <trkpt lat="45.10535" lon="5.59878">
        <ele>1539.2</ele>
        <time>2020-08-23T11:42:35Z</time>
      </trkpt>
      <trkpt lat="45.1054" lon="5.59878">
        <ele>1539.4</ele>
        <time>2020-08-23T11:42:36Z</time>
      </trkpt>
      <trkpt lat="45.10545" lon="5.59878">
        <ele>1539.4</ele>
        <time>2020-08-23T11:42:37Z</time>
      </trkpt>
      <trkpt lat="45.10549" lon="5.59877">
        <ele>1539.6</ele>
        <time>2020-08-23T11:42:38Z</time>
      </trkpt>
      <trkpt lat="45.10552" lon="5.59875">
        <ele>1539.6</ele>
        <time>2020-08-23T11:42:39Z</time>
      </trkpt>
      <trkpt lat="45.10556" lon="5.59874">
        <ele>1539.6</ele>
        <time>2020-08-23T11:42:40Z</time>
      </trkpt>
      <trkpt lat="45.1056" lon="5.59874">
        <ele>1539.8</ele>
        <time>2020-08-23T11:42:41Z</time>
      </trkpt>
      <trkpt lat="45.10563" lon="5.59873">
        <ele>1540</ele>
        <time>2020-08-23T11:42:42Z</time>
      </trkpt>
      <trkpt lat="45.10566" lon="5.59873">
        <ele>1540</ele>
        <time>2020-08-23T11:42:43Z</time>
      </trkpt>
      <trkpt lat="45.1057" lon="5.59873">
        <ele>1540.4</ele>
        <time>2020-08-23T11:42:44Z</time>
      </trkpt>
      <trkpt lat="45.10573" lon="5.59873">
        <ele>1540.6</ele>
        <time>2020-08-23T11:42:45Z</time>
      </trkpt>
      <trkpt lat="45.10576" lon="5.59873">
        <ele>1540.8</ele>
        <time>2020-08-23T11:42:46Z</time>
      </trkpt>
      <trkpt lat="45.10579" lon="5.59873">
        <ele>1541</ele>
        <time>2020-08-23T11:42:47Z</time>
      </trkpt>
      <trkpt lat="45.10582" lon="5.59873">
        <ele>1541.2</ele>
        <time>2020-08-23T11:42:48Z</time>
      </trkpt>
      <trkpt lat="45.10584" lon="5.59874">
        <ele>1541.4</ele>
        <time>2020-08-23T11:42:49Z</time>
      </trkpt>
      <trkpt lat="45.10586" lon="5.59876">
        <ele>1541.6</ele>
        <time>2020-08-23T11:42:50Z</time>
      </trkpt>
      <trkpt lat="45.10588" lon="5.59877">
        <ele>1541.8</ele>
        <time>2020-08-23T11:42:51Z</time>
      </trkpt>
      <trkpt lat="45.1059" lon="5.59877">
        <ele>1542</ele>
        <time>2020-08-23T11:42:52Z</time>
      </trkpt>
      <trkpt lat="45.10593" lon="5.59876">
        <ele>1542</ele>
        <time>2020-08-23T11:42:53Z</time>
      </trkpt>
      <trkpt lat="45.10595" lon="5.59875">
        <ele>1542.2</ele>
        <time>2020-08-23T11:42:54Z</time>
      </trkpt>
      <trkpt lat="45.10597" lon="5.59875">
        <ele>1542.4</ele>
        <time>2020-08-23T11:42:55Z</time>
      </trkpt>
      <trkpt lat="45.10599" lon="5.59876">
        <ele>1542.6</ele>
        <time>2020-08-23T11:42:56Z</time>
      </trkpt>
      <trkpt lat="45.106" lon="5.59877">
        <ele>1542.6</ele>
        <time>2020-08-23T11:42:57Z</time>
      </trkpt>
      <trkpt lat="45.10601" lon="5.59878">
        <ele>1542.8</ele>
        <time>2020-08-23T11:42:58Z</time>
      </trkpt>
      <trkpt lat="45.10602" lon="5.59878">
        <ele>1543</ele>
        <time>2020-08-23T11:42:59Z</time>
      </trkpt>
      <trkpt lat="45.10603" lon="5.59878">
        <ele>1543.2</ele>
        <time>2020-08-23T11:43:00Z</time>
      </trkpt>
      <trkpt lat="45.10603" lon="5.59878">
        <ele>1543.2</ele>
        <time>2020-08-23T11:43:01Z</time>
      </trkpt>
      <trkpt lat="45.10603" lon="5.59878">
        <ele>1543.4</ele>
        <time>2020-08-23T11:43:02Z</time>
      </trkpt>
      <trkpt lat="45.10603" lon="5.59878">
        <ele>1543.4</ele>
        <time>2020-08-23T11:43:03Z</time>
      </trkpt>
      <trkpt lat="45.10614" lon="5.59882">
        <ele>1544</ele>
        <time>2020-08-23T11:52:48Z</time>
      </trkpt>
      <trkpt lat="45.10617" lon="5.59883">
        <ele>1544</ele>
        <time>2020-08-23T11:52:49Z</time>
      </trkpt>
      <trkpt lat="45.1062" lon="5.59884">
        <ele>1544</ele>
        <time>2020-08-23T11:52:50Z</time>
      </trkpt>
      <trkpt lat="45.10623" lon="5.59885">
        <ele>1543.8</ele>
        <time>2020-08-23T11:52:51Z</time>
      </trkpt>
      <trkpt lat="45.10626" lon="5.59886">
        <ele>1543.8</ele>
        <time>2020-08-23T11:52:52Z</time>
      </trkpt>
      <trkpt lat="45.10629" lon="5.59887">
        <ele>1543.6</ele>
        <time>2020-08-23T11:52:53Z</time>
      </trkpt>
      <trkpt lat="45.10632" lon="5.59888">
        <ele>1543.4</ele>
        <time>2020-08-23T11:52:54Z</time>
      </trkpt>
      <trkpt lat="45.10635" lon="5.59889">
        <ele>1543.2</ele>
        <time>2020-08-23T11:52:55Z</time>
      </trkpt>
      <trkpt lat="45.10639" lon="5.5989">
        <ele>1543</ele>
        <time>2020-08-23T11:52:56Z</time>
      </trkpt>
      <trkpt lat="45.10643" lon="5.59891">
        <ele>1542.6</ele>
        <time>2020-08-23T11:52:57Z</time>
      </trkpt>
      <trkpt lat="45.10646" lon="5.59892">
        <ele>1542.4</ele>
        <time>2020-08-23T11:52:58Z</time>
      </trkpt>
      <trkpt lat="45.10651" lon="5.59893">
        <ele>1542.4</ele>
        <time>2020-08-23T11:52:59Z</time>
      </trkpt>
      <trkpt lat="45.10655" lon="5.59894">
        <ele>1542.4</ele>
        <time>2020-08-23T11:53:00Z</time>
      </trkpt>
      <trkpt lat="45.10659" lon="5.59895">
        <ele>1542.2</ele>
        <time>2020-08-23T11:53:01Z</time>
      </trkpt>
      <trkpt lat="45.10664" lon="5.59895">
        <ele>1542</ele>
        <time>2020-08-23T11:53:02Z</time>
      </trkpt>
      <trkpt lat="45.10669" lon="5.59897">
        <ele>1541.8</ele>
        <time>2020-08-23T11:53:03Z</time>
      </trkpt>
      <trkpt lat="45.10673" lon="5.59899">
        <ele>1541.8</ele>
        <time>2020-08-23T11:53:04Z</time>
      </trkpt>
      <trkpt lat="45.10679" lon="5.599">
        <ele>1541.6</ele>
        <time>2020-08-23T11:53:05Z</time>
      </trkpt>
      <trkpt lat="45.10684" lon="5.599">
        <ele>1541.2</ele>
        <time>2020-08-23T11:53:06Z</time>
      </trkpt>
      <trkpt lat="45.10688" lon="5.59901">
        <ele>1541.2</ele>
        <time>2020-08-23T11:53:07Z</time>
      </trkpt>
      <trkpt lat="45.10693" lon="5.59901">
        <ele>1541.2</ele>
        <time>2020-08-23T11:53:08Z</time>
      </trkpt>
      <trkpt lat="45.10696" lon="5.59902">
        <ele>1541.2</ele>
        <time>2020-08-23T11:53:09Z</time>
      </trkpt>
      <trkpt lat="45.10698" lon="5.59903">
        <ele>1541.2</ele>
        <time>2020-08-23T11:53:10Z</time>
      </trkpt>
      <trkpt lat="45.10701" lon="5.59905">
        <ele>1541.2</ele>
        <time>2020-08-23T11:53:11Z</time>
      </trkpt>
      <trkpt lat="45.10704" lon="5.59906">
        <ele>1541.2</ele>
        <time>2020-08-23T11:53:12Z</time>
      </trkpt>
      <trkpt lat="45.10707" lon="5.59907">
        <ele>1541.2</ele>
        <time>2020-08-23T11:53:13Z</time>
      </trkpt>
      <trkpt lat="45.10709" lon="5.59909">
        <ele>1541.2</ele>
        <time>2020-08-23T11:53:14Z</time>
      </trkpt>
      <trkpt lat="45.10712" lon="5.5991">
        <ele>1541.2</ele>
        <time>2020-08-23T11:53:15Z</time>
      </trkpt>
      <trkpt lat="45.10714" lon="5.59912">
        <ele>1541.4</ele>
        <time>2020-08-23T11:53:16Z</time>
      </trkpt>
      <trkpt lat="45.10717" lon="5.59913">
        <ele>1541.4</ele>
        <time>2020-08-23T11:53:17Z</time>
      </trkpt>
      <trkpt lat="45.10719" lon="5.59915">
        <ele>1541.6</ele>
        <time>2020-08-23T11:53:18Z</time>
      </trkpt>
      <trkpt lat="45.10722" lon="5.59915">
        <ele>1541.8</ele>
        <time>2020-08-23T11:53:19Z</time>
      </trkpt>
      <trkpt lat="45.10725" lon="5.59917">
        <ele>1542</ele>
        <time>2020-08-23T11:53:20Z</time>
      </trkpt>
      <trkpt lat="45.10728" lon="5.59919">
        <ele>1542.2</ele>
        <time>2020-08-23T11:53:21Z</time>
      </trkpt>
      <trkpt lat="45.1073" lon="5.5992">
        <ele>1542.4</ele>
        <time>2020-08-23T11:53:22Z</time>
      </trkpt>
      <trkpt lat="45.10733" lon="5.59922">
        <ele>1542.6</ele>
        <time>2020-08-23T11:53:23Z</time>
      </trkpt>
      <trkpt lat="45.10735" lon="5.59923">
        <ele>1543</ele>
        <time>2020-08-23T11:53:24Z</time>
      </trkpt>
      <trkpt lat="45.10737" lon="5.59923">
        <ele>1543.2</ele>
        <time>2020-08-23T11:53:25Z</time>
      </trkpt>
      <trkpt lat="45.10739" lon="5.59923">
        <ele>1543.4</ele>
        <time>2020-08-23T11:53:26Z</time>
      </trkpt>
      <trkpt lat="45.1074" lon="5.59924">
        <ele>1543.8</ele>
        <time>2020-08-23T11:53:27Z</time>
      </trkpt>
      <trkpt lat="45.10742" lon="5.59926">
        <ele>1544</ele>
        <time>2020-08-23T11:53:28Z</time>
      </trkpt>
      <trkpt lat="45.10744" lon="5.59928">
        <ele>1544.2</ele>
        <time>2020-08-23T11:53:29Z</time>
      </trkpt>
      <trkpt lat="45.10746" lon="5.5993">
        <ele>1544.6</ele>
        <time>2020-08-23T11:53:30Z</time>
      </trkpt>
      <trkpt lat="45.1075" lon="5.59931">
        <ele>1544.8</ele>
        <time>2020-08-23T11:53:31Z</time>
      </trkpt>
      <trkpt lat="45.10754" lon="5.59933">
        <ele>1545</ele>
        <time>2020-08-23T11:53:32Z</time>
      </trkpt>
      <trkpt lat="45.10759" lon="5.59935">
        <ele>1545.2</ele>
        <time>2020-08-23T11:53:33Z</time>
      </trkpt>
      <trkpt lat="45.10762" lon="5.59938">
        <ele>1545.4</ele>
        <time>2020-08-23T11:53:34Z</time>
      </trkpt>
      <trkpt lat="45.10766" lon="5.59941">
        <ele>1545.6</ele>
        <time>2020-08-23T11:53:35Z</time>
      </trkpt>
      <trkpt lat="45.10769" lon="5.59943">
        <ele>1545.8</ele>
        <time>2020-08-23T11:53:36Z</time>
      </trkpt>
      <trkpt lat="45.10771" lon="5.59944">
        <ele>1545.8</ele>
        <time>2020-08-23T11:53:37Z</time>
      </trkpt>
      <trkpt lat="45.10774" lon="5.59944">
        <ele>1546</ele>
        <time>2020-08-23T11:53:38Z</time>
      </trkpt>
      <trkpt lat="45.10777" lon="5.59944">
        <ele>1546</ele>
        <time>2020-08-23T11:53:39Z</time>
      </trkpt>
      <trkpt lat="45.1078" lon="5.59944">
        <ele>1546.2</ele>
        <time>2020-08-23T11:53:40Z</time>
      </trkpt>
      <trkpt lat="45.10782" lon="5.59941">
        <ele>1546.2</ele>
        <time>2020-08-23T11:53:41Z</time>
      </trkpt>
      <trkpt lat="45.10784" lon="5.59938">
        <ele>1546.4</ele>
        <time>2020-08-23T11:53:42Z</time>
      </trkpt>
      <trkpt lat="45.10785" lon="5.59934">
        <ele>1546.6</ele>
        <time>2020-08-23T11:53:43Z</time>
      </trkpt>
      <trkpt lat="45.10786" lon="5.59931">
        <ele>1546.6</ele>
        <time>2020-08-23T11:53:44Z</time>
      </trkpt>
      <trkpt lat="45.10786" lon="5.59928">
        <ele>1546.6</ele>
        <time>2020-08-23T11:53:45Z</time>
      </trkpt>
      <trkpt lat="45.10786" lon="5.59925">
        <ele>1546.8</ele>
        <time>2020-08-23T11:53:46Z</time>
      </trkpt>
      <trkpt lat="45.10786" lon="5.59922">
        <ele>1546.8</ele>
        <time>2020-08-23T11:53:47Z</time>
      </trkpt>
      <trkpt lat="45.10786" lon="5.59919">
        <ele>1546.8</ele>
        <time>2020-08-23T11:53:48Z</time>
      </trkpt>
      <trkpt lat="45.10786" lon="5.59917">
        <ele>1547</ele>
        <time>2020-08-23T11:53:49Z</time>
      </trkpt>
      <trkpt lat="45.10787" lon="5.59915">
        <ele>1547</ele>
        <time>2020-08-23T11:53:50Z</time>
      </trkpt>
      <trkpt lat="45.10788" lon="5.59914">
        <ele>1547</ele>
        <time>2020-08-23T11:53:51Z</time>
      </trkpt>
      <trkpt lat="45.10789" lon="5.59913">
        <ele>1547.2</ele>
        <time>2020-08-23T11:53:52Z</time>
      </trkpt>
      <trkpt lat="45.1079" lon="5.59913">
        <ele>1547.2</ele>
        <time>2020-08-23T11:53:53Z</time>
      </trkpt>
      <trkpt lat="45.1079" lon="5.59914">
        <ele>1547.4</ele>
        <time>2020-08-23T11:53:54Z</time>
      </trkpt>
      <trkpt lat="45.10792" lon="5.59915">
        <ele>1547.6</ele>
        <time>2020-08-23T11:53:55Z</time>
      </trkpt>
      <trkpt lat="45.10793" lon="5.59914">
        <ele>1547.8</ele>
        <time>2020-08-23T11:53:56Z</time>
      </trkpt>
      <trkpt lat="45.10794" lon="5.59914">
        <ele>1547.8</ele>
        <time>2020-08-23T11:53:57Z</time>
      </trkpt>
      <trkpt lat="45.10795" lon="5.59912">
        <ele>1548</ele>
        <time>2020-08-23T11:53:58Z</time>
      </trkpt>
      <trkpt lat="45.10795" lon="5.5991">
        <ele>1548.2</ele>
        <time>2020-08-23T11:53:59Z</time>
      </trkpt>
      <trkpt lat="45.10797" lon="5.59908">
        <ele>1548.4</ele>
        <time>2020-08-23T11:54:00Z</time>
      </trkpt>
      <trkpt lat="45.10798" lon="5.59905">
        <ele>1548.6</ele>
        <time>2020-08-23T11:54:01Z</time>
      </trkpt>
      <trkpt lat="45.10798" lon="5.59902">
        <ele>1548.8</ele>
        <time>2020-08-23T11:54:02Z</time>
      </trkpt>
      <trkpt lat="45.10798" lon="5.599">
        <ele>1548.8</ele>
        <time>2020-08-23T11:54:03Z</time>
      </trkpt>
      <trkpt lat="45.10798" lon="5.59897">
        <ele>1549</ele>
        <time>2020-08-23T11:54:04Z</time>
      </trkpt>
      <trkpt lat="45.10797" lon="5.59894">
        <ele>1549.2</ele>
        <time>2020-08-23T11:54:05Z</time>
      </trkpt>
      <trkpt lat="45.10797" lon="5.5989">
        <ele>1549.2</ele>
        <time>2020-08-23T11:54:06Z</time>
      </trkpt>
      <trkpt lat="45.10798" lon="5.59886">
        <ele>1549.4</ele>
        <time>2020-08-23T11:54:07Z</time>
      </trkpt>
      <trkpt lat="45.10798" lon="5.59883">
        <ele>1549.4</ele>
        <time>2020-08-23T11:54:08Z</time>
      </trkpt>
      <trkpt lat="45.10798" lon="5.5988">
        <ele>1549.6</ele>
        <time>2020-08-23T11:54:09Z</time>
      </trkpt>
      <trkpt lat="45.10798" lon="5.59877">
        <ele>1549.8</ele>
        <time>2020-08-23T11:54:10Z</time>
      </trkpt>
      <trkpt lat="45.10799" lon="5.59875">
        <ele>1550</ele>
        <time>2020-08-23T11:54:11Z</time>
      </trkpt>
      <trkpt lat="45.108" lon="5.59872">
        <ele>1550</ele>
        <time>2020-08-23T11:54:12Z</time>
      </trkpt>
      <trkpt lat="45.108" lon="5.59869">
        <ele>1550.2</ele>
        <time>2020-08-23T11:54:13Z</time>
      </trkpt>
      <trkpt lat="45.10801" lon="5.59867">
        <ele>1550.2</ele>
        <time>2020-08-23T11:54:14Z</time>
      </trkpt>
      <trkpt lat="45.10802" lon="5.59864">
        <ele>1550.4</ele>
        <time>2020-08-23T11:54:15Z</time>
      </trkpt>
      <trkpt lat="45.10803" lon="5.59862">
        <ele>1550.4</ele>
        <time>2020-08-23T11:54:16Z</time>
      </trkpt>
      <trkpt lat="45.10804" lon="5.59859">
        <ele>1550.6</ele>
        <time>2020-08-23T11:54:17Z</time>
      </trkpt>
      <trkpt lat="45.10805" lon="5.59857">
        <ele>1550.8</ele>
        <time>2020-08-23T11:54:18Z</time>
      </trkpt>
      <trkpt lat="45.10806" lon="5.59854">
        <ele>1550.8</ele>
        <time>2020-08-23T11:54:19Z</time>
      </trkpt>
      <trkpt lat="45.10807" lon="5.59851">
        <ele>1551</ele>
        <time>2020-08-23T11:54:20Z</time>
      </trkpt>
      <trkpt lat="45.10807" lon="5.59848">
        <ele>1551</ele>
        <time>2020-08-23T11:54:21Z</time>
      </trkpt>
      <trkpt lat="45.10808" lon="5.59846">
        <ele>1551</ele>
        <time>2020-08-23T11:54:22Z</time>
      </trkpt>
      <trkpt lat="45.10808" lon="5.59843">
        <ele>1551</ele>
        <time>2020-08-23T11:54:23Z</time>
      </trkpt>
      <trkpt lat="45.10809" lon="5.59841">
        <ele>1551.2</ele>
        <time>2020-08-23T11:54:24Z</time>
      </trkpt>
      <trkpt lat="45.10809" lon="5.59839">
        <ele>1551.2</ele>
        <time>2020-08-23T11:54:25Z</time>
      </trkpt>
      <trkpt lat="45.1081" lon="5.59836">
        <ele>1551.2</ele>
        <time>2020-08-23T11:54:26Z</time>
      </trkpt>
      <trkpt lat="45.10811" lon="5.59832">
        <ele>1551.2</ele>
        <time>2020-08-23T11:54:27Z</time>
      </trkpt>
      <trkpt lat="45.10811" lon="5.59828">
        <ele>1551.2</ele>
        <time>2020-08-23T11:54:28Z</time>
      </trkpt>
      <trkpt lat="45.10812" lon="5.59824">
        <ele>1551.4</ele>
        <time>2020-08-23T11:54:29Z</time>
      </trkpt>
      <trkpt lat="45.10813" lon="5.59821">
        <ele>1551.4</ele>
        <time>2020-08-23T11:54:30Z</time>
      </trkpt>
      <trkpt lat="45.10813" lon="5.59817">
        <ele>1551.4</ele>
        <time>2020-08-23T11:54:31Z</time>
      </trkpt>
      <trkpt lat="45.10813" lon="5.59813">
        <ele>1551.6</ele>
        <time>2020-08-23T11:54:32Z</time>
      </trkpt>
      <trkpt lat="45.10814" lon="5.5981">
        <ele>1551.6</ele>
        <time>2020-08-23T11:54:33Z</time>
      </trkpt>
      <trkpt lat="45.10816" lon="5.59808">
        <ele>1551.8</ele>
        <time>2020-08-23T11:54:34Z</time>
      </trkpt>
      <trkpt lat="45.10817" lon="5.59805">
        <ele>1551.8</ele>
        <time>2020-08-23T11:54:35Z</time>
      </trkpt>
      <trkpt lat="45.10819" lon="5.59802">
        <ele>1551.8</ele>
        <time>2020-08-23T11:54:36Z</time>
      </trkpt>
      <trkpt lat="45.1082" lon="5.59799">
        <ele>1551.6</ele>
        <time>2020-08-23T11:54:37Z</time>
      </trkpt>
      <trkpt lat="45.10822" lon="5.59797">
        <ele>1551.8</ele>
        <time>2020-08-23T11:54:38Z</time>
      </trkpt>
      <trkpt lat="45.10825" lon="5.59794">
        <ele>1552</ele>
        <time>2020-08-23T11:54:39Z</time>
      </trkpt>
      <trkpt lat="45.1083" lon="5.59793">
        <ele>1552</ele>
        <time>2020-08-23T11:54:40Z</time>
      </trkpt>
      <trkpt lat="45.10834" lon="5.59791">
        <ele>1552.2</ele>
        <time>2020-08-23T11:54:41Z</time>
      </trkpt>
      <trkpt lat="45.10838" lon="5.59789">
        <ele>1552.2</ele>
        <time>2020-08-23T11:54:42Z</time>
      </trkpt>
      <trkpt lat="45.1084" lon="5.59787">
        <ele>1552</ele>
        <time>2020-08-23T11:54:43Z</time>
      </trkpt>
      <trkpt lat="45.10843" lon="5.59786">
        <ele>1552</ele>
        <time>2020-08-23T11:54:44Z</time>
      </trkpt>
      <trkpt lat="45.10845" lon="5.59783">
        <ele>1552</ele>
        <time>2020-08-23T11:54:45Z</time>
      </trkpt>
      <trkpt lat="45.10847" lon="5.59781">
        <ele>1552.2</ele>
        <time>2020-08-23T11:54:46Z</time>
      </trkpt>
      <trkpt lat="45.10849" lon="5.5978">
        <ele>1552.2</ele>
        <time>2020-08-23T11:54:47Z</time>
      </trkpt>
      <trkpt lat="45.1085" lon="5.59779">
        <ele>1552.4</ele>
        <time>2020-08-23T11:54:48Z</time>
      </trkpt>
      <trkpt lat="45.10851" lon="5.59779">
        <ele>1552.4</ele>
        <time>2020-08-23T11:54:49Z</time>
      </trkpt>
      <trkpt lat="45.10852" lon="5.59779">
        <ele>1552.4</ele>
        <time>2020-08-23T11:54:50Z</time>
      </trkpt>
      <trkpt lat="45.10854" lon="5.59779">
        <ele>1552.4</ele>
        <time>2020-08-23T11:54:51Z</time>
      </trkpt>
      <trkpt lat="45.10856" lon="5.59779">
        <ele>1552.6</ele>
        <time>2020-08-23T11:54:52Z</time>
      </trkpt>
      <trkpt lat="45.10858" lon="5.5978">
        <ele>1552.6</ele>
        <time>2020-08-23T11:54:53Z</time>
      </trkpt>
      <trkpt lat="45.10859" lon="5.5978">
        <ele>1552.6</ele>
        <time>2020-08-23T11:54:54Z</time>
      </trkpt>
      <trkpt lat="45.10861" lon="5.59779">
        <ele>1552.6</ele>
        <time>2020-08-23T11:54:55Z</time>
      </trkpt>
      <trkpt lat="45.10863" lon="5.59779">
        <ele>1552.8</ele>
        <time>2020-08-23T11:54:56Z</time>
      </trkpt>
      <trkpt lat="45.10865" lon="5.59778">
        <ele>1552.6</ele>
        <time>2020-08-23T11:54:57Z</time>
      </trkpt>
      <trkpt lat="45.10867" lon="5.59776">
        <ele>1552.6</ele>
        <time>2020-08-23T11:54:58Z</time>
      </trkpt>
      <trkpt lat="45.10869" lon="5.59775">
        <ele>1552.6</ele>
        <time>2020-08-23T11:54:59Z</time>
      </trkpt>
      <trkpt lat="45.1087" lon="5.59774">
        <ele>1552.6</ele>
        <time>2020-08-23T11:55:00Z</time>
      </trkpt>
      <trkpt lat="45.10872" lon="5.59774">
        <ele>1552.6</ele>
        <time>2020-08-23T11:55:01Z</time>
      </trkpt>
      <trkpt lat="45.10874" lon="5.59773">
        <ele>1552.6</ele>
        <time>2020-08-23T11:55:02Z</time>
      </trkpt>
      <trkpt lat="45.10875" lon="5.59773">
        <ele>1552.6</ele>
        <time>2020-08-23T11:55:03Z</time>
      </trkpt>
      <trkpt lat="45.10877" lon="5.59773">
        <ele>1552.4</ele>
        <time>2020-08-23T11:55:04Z</time>
      </trkpt>
      <trkpt lat="45.10878" lon="5.59772">
        <ele>1552.4</ele>
        <time>2020-08-23T11:55:05Z</time>
      </trkpt>
      <trkpt lat="45.10878" lon="5.59772">
        <ele>1552.4</ele>
        <time>2020-08-23T11:55:06Z</time>
      </trkpt>
      <trkpt lat="45.10878" lon="5.59772">
        <ele>1552.4</ele>
        <time>2020-08-23T11:55:07Z</time>
      </trkpt>
      <trkpt lat="45.10881" lon="5.5977">
        <ele>1552.4</ele>
        <time>2020-08-23T11:55:08Z</time>
      </trkpt>
      <trkpt lat="45.10884" lon="5.59769">
        <ele>1552.2</ele>
        <time>2020-08-23T11:55:09Z</time>
      </trkpt>
      <trkpt lat="45.10886" lon="5.59769">
        <ele>1552.2</ele>
        <time>2020-08-23T11:55:10Z</time>
      </trkpt>
      <trkpt lat="45.10888" lon="5.59768">
        <ele>1552.2</ele>
        <time>2020-08-23T11:55:11Z</time>
      </trkpt>
      <trkpt lat="45.1089" lon="5.59767">
        <ele>1552.2</ele>
        <time>2020-08-23T11:55:12Z</time>
      </trkpt>
      <trkpt lat="45.10892" lon="5.59765">
        <ele>1552.2</ele>
        <time>2020-08-23T11:55:13Z</time>
      </trkpt>
      <trkpt lat="45.10894" lon="5.59765">
        <ele>1552.2</ele>
        <time>2020-08-23T11:55:14Z</time>
      </trkpt>
      <trkpt lat="45.10896" lon="5.59766">
        <ele>1552</ele>
        <time>2020-08-23T11:55:15Z</time>
      </trkpt>
      <trkpt lat="45.10899" lon="5.59767">
        <ele>1552</ele>
        <time>2020-08-23T11:55:16Z</time>
      </trkpt>
      <trkpt lat="45.10901" lon="5.59768">
        <ele>1551.8</ele>
        <time>2020-08-23T11:55:17Z</time>
      </trkpt>
      <trkpt lat="45.10903" lon="5.59768">
        <ele>1551.8</ele>
        <time>2020-08-23T11:55:18Z</time>
      </trkpt>
      <trkpt lat="45.10904" lon="5.59769">
        <ele>1551.8</ele>
        <time>2020-08-23T11:55:19Z</time>
      </trkpt>
      <trkpt lat="45.10906" lon="5.59771">
        <ele>1551.6</ele>
        <time>2020-08-23T11:55:20Z</time>
      </trkpt>
      <trkpt lat="45.10907" lon="5.59772">
        <ele>1551.6</ele>
        <time>2020-08-23T11:55:21Z</time>
      </trkpt>
      <trkpt lat="45.1091" lon="5.59774">
        <ele>1551.6</ele>
        <time>2020-08-23T11:55:22Z</time>
      </trkpt>
      <trkpt lat="45.10912" lon="5.59776">
        <ele>1551.4</ele>
        <time>2020-08-23T11:55:23Z</time>
      </trkpt>
      <trkpt lat="45.10914" lon="5.59779">
        <ele>1551.4</ele>
        <time>2020-08-23T11:55:24Z</time>
      </trkpt>
      <trkpt lat="45.10916" lon="5.5978">
        <ele>1551.2</ele>
        <time>2020-08-23T11:55:25Z</time>
      </trkpt>
      <trkpt lat="45.10918" lon="5.59781">
        <ele>1551.2</ele>
        <time>2020-08-23T11:55:26Z</time>
      </trkpt>
      <trkpt lat="45.1092" lon="5.59782">
        <ele>1551</ele>
        <time>2020-08-23T11:55:27Z</time>
      </trkpt>
      <trkpt lat="45.10923" lon="5.59784">
        <ele>1551</ele>
        <time>2020-08-23T11:55:28Z</time>
      </trkpt>
      <trkpt lat="45.10925" lon="5.59786">
        <ele>1550.8</ele>
        <time>2020-08-23T11:55:29Z</time>
      </trkpt>
      <trkpt lat="45.10926" lon="5.59789">
        <ele>1550.8</ele>
        <time>2020-08-23T11:55:30Z</time>
      </trkpt>
      <trkpt lat="45.10926" lon="5.59791">
        <ele>1550.8</ele>
        <time>2020-08-23T11:55:31Z</time>
      </trkpt>
      <trkpt lat="45.10928" lon="5.59792">
        <ele>1550.6</ele>
        <time>2020-08-23T11:55:32Z</time>
      </trkpt>
      <trkpt lat="45.10928" lon="5.59794">
        <ele>1550.6</ele>
        <time>2020-08-23T11:55:33Z</time>
      </trkpt>
      <trkpt lat="45.1093" lon="5.59795">
        <ele>1550.4</ele>
        <time>2020-08-23T11:55:34Z</time>
      </trkpt>
      <trkpt lat="45.1093" lon="5.59795">
        <ele>1550.2</ele>
        <time>2020-08-23T11:55:35Z</time>
      </trkpt>
      <trkpt lat="45.1093" lon="5.59795">
        <ele>1550</ele>
        <time>2020-08-23T11:55:36Z</time>
      </trkpt>
      <trkpt lat="45.1093" lon="5.59795">
        <ele>1550</ele>
        <time>2020-08-23T11:55:37Z</time>
      </trkpt>
      <trkpt lat="45.1093" lon="5.59795">
        <ele>1549.8</ele>
        <time>2020-08-23T11:55:38Z</time>
      </trkpt>
      <trkpt lat="45.1093" lon="5.59795">
        <ele>1549.6</ele>
        <time>2020-08-23T11:55:39Z</time>
      </trkpt>
      <trkpt lat="45.1093" lon="5.59795">
        <ele>1549.6</ele>
        <time>2020-08-23T11:55:40Z</time>
      </trkpt>
      <trkpt lat="45.1093" lon="5.59795">
        <ele>1549.4</ele>
        <time>2020-08-23T11:55:41Z</time>
      </trkpt>
      <trkpt lat="45.1093" lon="5.59795">
        <ele>1549.2</ele>
        <time>2020-08-23T11:55:42Z</time>
      </trkpt>
      <trkpt lat="45.1093" lon="5.59795">
        <ele>1549.2</ele>
        <time>2020-08-23T11:55:43Z</time>
      </trkpt>
      <trkpt lat="45.1093" lon="5.59795">
        <ele>1549</ele>
        <time>2020-08-23T11:55:44Z</time>
      </trkpt>
      <trkpt lat="45.1093" lon="5.59795">
        <ele>1547.8</ele>
        <time>2020-08-23T11:55:56Z</time>
      </trkpt>
      <trkpt lat="45.1093" lon="5.59795">
        <ele>1547.8</ele>
        <time>2020-08-23T11:55:57Z</time>
      </trkpt>
      <trkpt lat="45.1093" lon="5.59795">
        <ele>1547.8</ele>
        <time>2020-08-23T11:55:58Z</time>
      </trkpt>
      <trkpt lat="45.1093" lon="5.59795">
        <ele>1547.8</ele>
        <time>2020-08-23T11:55:59Z</time>
      </trkpt>
      <trkpt lat="45.1093" lon="5.59795">
        <ele>1547.6</ele>
        <time>2020-08-23T11:56:00Z</time>
      </trkpt>
      <trkpt lat="45.1093" lon="5.59795">
        <ele>1547.6</ele>
        <time>2020-08-23T11:56:01Z</time>
      </trkpt>
      <trkpt lat="45.1093" lon="5.59795">
        <ele>1546.6</ele>
        <time>2020-08-23T11:56:15Z</time>
      </trkpt>
      <trkpt lat="45.1093" lon="5.59795">
        <ele>1546.6</ele>
        <time>2020-08-23T11:56:16Z</time>
      </trkpt>
      <trkpt lat="45.1093" lon="5.59802">
        <ele>1546.6</ele>
        <time>2020-08-23T11:56:17Z</time>
      </trkpt>
      <trkpt lat="45.10932" lon="5.59805">
        <ele>1546.4</ele>
        <time>2020-08-23T11:56:18Z</time>
      </trkpt>
      <trkpt lat="45.10934" lon="5.59806">
        <ele>1546.2</ele>
        <time>2020-08-23T11:56:19Z</time>
      </trkpt>
      <trkpt lat="45.10937" lon="5.59807">
        <ele>1546</ele>
        <time>2020-08-23T11:56:20Z</time>
      </trkpt>
      <trkpt lat="45.10939" lon="5.59808">
        <ele>1545.6</ele>
        <time>2020-08-23T11:56:21Z</time>
      </trkpt>
      <trkpt lat="45.10941" lon="5.59808">
        <ele>1545.4</ele>
        <time>2020-08-23T11:56:22Z</time>
      </trkpt>
      <trkpt lat="45.10944" lon="5.59808">
        <ele>1545.2</ele>
        <time>2020-08-23T11:56:23Z</time>
      </trkpt>
      <trkpt lat="45.10947" lon="5.59808">
        <ele>1545</ele>
        <time>2020-08-23T11:56:24Z</time>
      </trkpt>
      <trkpt lat="45.10949" lon="5.59808">
        <ele>1545</ele>
        <time>2020-08-23T11:56:25Z</time>
      </trkpt>
      <trkpt lat="45.10952" lon="5.59809">
        <ele>1544.8</ele>
        <time>2020-08-23T11:56:26Z</time>
      </trkpt>
      <trkpt lat="45.10953" lon="5.59811">
        <ele>1544.6</ele>
        <time>2020-08-23T11:56:27Z</time>
      </trkpt>
      <trkpt lat="45.10955" lon="5.59815">
        <ele>1544.4</ele>
        <time>2020-08-23T11:56:28Z</time>
      </trkpt>
      <trkpt lat="45.10958" lon="5.59819">
        <ele>1544</ele>
        <time>2020-08-23T11:56:29Z</time>
      </trkpt>
      <trkpt lat="45.1096" lon="5.59824">
        <ele>1543.8</ele>
        <time>2020-08-23T11:56:30Z</time>
      </trkpt>
      <trkpt lat="45.10961" lon="5.59828">
        <ele>1543.6</ele>
        <time>2020-08-23T11:56:31Z</time>
      </trkpt>
      <trkpt lat="45.10962" lon="5.59834">
        <ele>1543.4</ele>
        <time>2020-08-23T11:56:32Z</time>
      </trkpt>
      <trkpt lat="45.10961" lon="5.59838">
        <ele>1543.2</ele>
        <time>2020-08-23T11:56:33Z</time>
      </trkpt>
      <trkpt lat="45.10961" lon="5.59843">
        <ele>1543</ele>
        <time>2020-08-23T11:56:34Z</time>
      </trkpt>
      <trkpt lat="45.10962" lon="5.59847">
        <ele>1542.6</ele>
        <time>2020-08-23T11:56:35Z</time>
      </trkpt>
      <trkpt lat="45.10964" lon="5.59851">
        <ele>1542.2</ele>
        <time>2020-08-23T11:56:36Z</time>
      </trkpt>
      <trkpt lat="45.10967" lon="5.59852">
        <ele>1542</ele>
        <time>2020-08-23T11:56:37Z</time>
      </trkpt>
      <trkpt lat="45.1097" lon="5.59852">
        <ele>1541.8</ele>
        <time>2020-08-23T11:56:38Z</time>
      </trkpt>
      <trkpt lat="45.10973" lon="5.59851">
        <ele>1541.6</ele>
        <time>2020-08-23T11:56:39Z</time>
      </trkpt>
      <trkpt lat="45.10976" lon="5.5985">
        <ele>1541.4</ele>
        <time>2020-08-23T11:56:40Z</time>
      </trkpt>
      <trkpt lat="45.10979" lon="5.59849">
        <ele>1541.2</ele>
        <time>2020-08-23T11:56:41Z</time>
      </trkpt>
      <trkpt lat="45.10982" lon="5.59849">
        <ele>1540.8</ele>
        <time>2020-08-23T11:56:42Z</time>
      </trkpt>
      <trkpt lat="45.10985" lon="5.59849">
        <ele>1540.4</ele>
        <time>2020-08-23T11:56:43Z</time>
      </trkpt>
      <trkpt lat="45.10988" lon="5.5985">
        <ele>1540</ele>
        <time>2020-08-23T11:56:44Z</time>
      </trkpt>
      <trkpt lat="45.1099" lon="5.59851">
        <ele>1539.6</ele>
        <time>2020-08-23T11:56:45Z</time>
      </trkpt>
      <trkpt lat="45.10992" lon="5.59854">
        <ele>1539.4</ele>
        <time>2020-08-23T11:56:46Z</time>
      </trkpt>
      <trkpt lat="45.10994" lon="5.59858">
        <ele>1539</ele>
        <time>2020-08-23T11:56:47Z</time>
      </trkpt>
      <trkpt lat="45.10995" lon="5.59864">
        <ele>1538.8</ele>
        <time>2020-08-23T11:56:48Z</time>
      </trkpt>
      <trkpt lat="45.10996" lon="5.59869">
        <ele>1538.4</ele>
        <time>2020-08-23T11:56:49Z</time>
      </trkpt>
      <trkpt lat="45.10997" lon="5.59873">
        <ele>1538</ele>
        <time>2020-08-23T11:56:50Z</time>
      </trkpt>
      <trkpt lat="45.11" lon="5.59875">
        <ele>1537.8</ele>
        <time>2020-08-23T11:56:51Z</time>
      </trkpt>
      <trkpt lat="45.11002" lon="5.59878">
        <ele>1537.4</ele>
        <time>2020-08-23T11:56:52Z</time>
      </trkpt>
      <trkpt lat="45.11004" lon="5.59882">
        <ele>1537</ele>
        <time>2020-08-23T11:56:53Z</time>
      </trkpt>
      <trkpt lat="45.11006" lon="5.59885">
        <ele>1536.6</ele>
        <time>2020-08-23T11:56:54Z</time>
      </trkpt>
      <trkpt lat="45.11009" lon="5.59888">
        <ele>1536.4</ele>
        <time>2020-08-23T11:56:55Z</time>
      </trkpt>
      <trkpt lat="45.11011" lon="5.59889">
        <ele>1536</ele>
        <time>2020-08-23T11:56:56Z</time>
      </trkpt>
      <trkpt lat="45.11013" lon="5.59888">
        <ele>1535.6</ele>
        <time>2020-08-23T11:56:57Z</time>
      </trkpt>
      <trkpt lat="45.11017" lon="5.59885">
        <ele>1535.4</ele>
        <time>2020-08-23T11:56:58Z</time>
      </trkpt>
      <trkpt lat="45.11019" lon="5.59883">
        <ele>1535</ele>
        <time>2020-08-23T11:56:59Z</time>
      </trkpt>
      <trkpt lat="45.11021" lon="5.59881">
        <ele>1534.6</ele>
        <time>2020-08-23T11:57:00Z</time>
      </trkpt>
      <trkpt lat="45.11025" lon="5.5988">
        <ele>1534.2</ele>
        <time>2020-08-23T11:57:01Z</time>
      </trkpt>
      <trkpt lat="45.11028" lon="5.59878">
        <ele>1534</ele>
        <time>2020-08-23T11:57:02Z</time>
      </trkpt>
      <trkpt lat="45.1103" lon="5.59878">
        <ele>1533.6</ele>
        <time>2020-08-23T11:57:03Z</time>
      </trkpt>
      <trkpt lat="45.11033" lon="5.59879">
        <ele>1533.4</ele>
        <time>2020-08-23T11:57:04Z</time>
      </trkpt>
      <trkpt lat="45.11035" lon="5.59882">
        <ele>1533</ele>
        <time>2020-08-23T11:57:05Z</time>
      </trkpt>
      <trkpt lat="45.11039" lon="5.59884">
        <ele>1532.6</ele>
        <time>2020-08-23T11:57:06Z</time>
      </trkpt>
      <trkpt lat="45.11042" lon="5.59886">
        <ele>1532.4</ele>
        <time>2020-08-23T11:57:07Z</time>
      </trkpt>
      <trkpt lat="45.11046" lon="5.59886">
        <ele>1532</ele>
        <time>2020-08-23T11:57:08Z</time>
      </trkpt>
      <trkpt lat="45.11049" lon="5.59885">
        <ele>1531.6</ele>
        <time>2020-08-23T11:57:09Z</time>
      </trkpt>
      <trkpt lat="45.11052" lon="5.59884">
        <ele>1531.4</ele>
        <time>2020-08-23T11:57:10Z</time>
      </trkpt>
      <trkpt lat="45.11055" lon="5.59885">
        <ele>1531</ele>
        <time>2020-08-23T11:57:11Z</time>
      </trkpt>
      <trkpt lat="45.11057" lon="5.59887">
        <ele>1530.8</ele>
        <time>2020-08-23T11:57:12Z</time>
      </trkpt>
      <trkpt lat="45.1106" lon="5.5989">
        <ele>1530.4</ele>
        <time>2020-08-23T11:57:13Z</time>
      </trkpt>
      <trkpt lat="45.11062" lon="5.59893">
        <ele>1530</ele>
        <time>2020-08-23T11:57:14Z</time>
      </trkpt>
      <trkpt lat="45.11064" lon="5.59895">
        <ele>1529.8</ele>
        <time>2020-08-23T11:57:15Z</time>
      </trkpt>
      <trkpt lat="45.1107" lon="5.59896">
        <ele>1529.4</ele>
        <time>2020-08-23T11:57:16Z</time>
      </trkpt>
      <trkpt lat="45.11075" lon="5.59897">
        <ele>1529.2</ele>
        <time>2020-08-23T11:57:17Z</time>
      </trkpt>
      <trkpt lat="45.11079" lon="5.599">
        <ele>1528.6</ele>
        <time>2020-08-23T11:57:18Z</time>
      </trkpt>
      <trkpt lat="45.11083" lon="5.59902">
        <ele>1528.4</ele>
        <time>2020-08-23T11:57:19Z</time>
      </trkpt>
      <trkpt lat="45.11087" lon="5.59905">
        <ele>1528</ele>
        <time>2020-08-23T11:57:20Z</time>
      </trkpt>
      <trkpt lat="45.11091" lon="5.59907">
        <ele>1527.6</ele>
        <time>2020-08-23T11:57:21Z</time>
      </trkpt>
      <trkpt lat="45.11095" lon="5.59909">
        <ele>1527.4</ele>
        <time>2020-08-23T11:57:22Z</time>
      </trkpt>
      <trkpt lat="45.11098" lon="5.59912">
        <ele>1527</ele>
        <time>2020-08-23T11:57:23Z</time>
      </trkpt>
      <trkpt lat="45.11101" lon="5.59913">
        <ele>1526.6</ele>
        <time>2020-08-23T11:57:24Z</time>
      </trkpt>
      <trkpt lat="45.11103" lon="5.59913">
        <ele>1526.2</ele>
        <time>2020-08-23T11:57:25Z</time>
      </trkpt>
      <trkpt lat="45.11107" lon="5.59912">
        <ele>1525.6</ele>
        <time>2020-08-23T11:57:26Z</time>
      </trkpt>
      <trkpt lat="45.1111" lon="5.5991">
        <ele>1525.2</ele>
        <time>2020-08-23T11:57:27Z</time>
      </trkpt>
      <trkpt lat="45.11115" lon="5.59909">
        <ele>1524.8</ele>
        <time>2020-08-23T11:57:28Z</time>
      </trkpt>
      <trkpt lat="45.11118" lon="5.59909">
        <ele>1524.4</ele>
        <time>2020-08-23T11:57:29Z</time>
      </trkpt>
      <trkpt lat="45.11122" lon="5.59908">
        <ele>1524</ele>
        <time>2020-08-23T11:57:30Z</time>
      </trkpt>
      <trkpt lat="45.11126" lon="5.59908">
        <ele>1523.6</ele>
        <time>2020-08-23T11:57:31Z</time>
      </trkpt>
      <trkpt lat="45.11131" lon="5.59908">
        <ele>1523</ele>
        <time>2020-08-23T11:57:32Z</time>
      </trkpt>
      <trkpt lat="45.11135" lon="5.59909">
        <ele>1522.4</ele>
        <time>2020-08-23T11:57:33Z</time>
      </trkpt>
      <trkpt lat="45.11139" lon="5.5991">
        <ele>1522</ele>
        <time>2020-08-23T11:57:34Z</time>
      </trkpt>
      <trkpt lat="45.11141" lon="5.59912">
        <ele>1521.6</ele>
        <time>2020-08-23T11:57:35Z</time>
      </trkpt>
      <trkpt lat="45.11144" lon="5.59913">
        <ele>1521.2</ele>
        <time>2020-08-23T11:57:36Z</time>
      </trkpt>
      <trkpt lat="45.11146" lon="5.59913">
        <ele>1520.8</ele>
        <time>2020-08-23T11:57:37Z</time>
      </trkpt>
      <trkpt lat="45.11149" lon="5.59913">
        <ele>1520.4</ele>
        <time>2020-08-23T11:57:38Z</time>
      </trkpt>
      <trkpt lat="45.11151" lon="5.59913">
        <ele>1519.8</ele>
        <time>2020-08-23T11:57:39Z</time>
      </trkpt>
      <trkpt lat="45.11154" lon="5.59912">
        <ele>1519.2</ele>
        <time>2020-08-23T11:57:40Z</time>
      </trkpt>
      <trkpt lat="45.11157" lon="5.5991">
        <ele>1518.8</ele>
        <time>2020-08-23T11:57:41Z</time>
      </trkpt>
      <trkpt lat="45.11159" lon="5.59908">
        <ele>1518.4</ele>
        <time>2020-08-23T11:57:42Z</time>
      </trkpt>
      <trkpt lat="45.11161" lon="5.59907">
        <ele>1518</ele>
        <time>2020-08-23T11:57:43Z</time>
      </trkpt>
      <trkpt lat="45.11162" lon="5.59906">
        <ele>1517.4</ele>
        <time>2020-08-23T11:57:44Z</time>
      </trkpt>
      <trkpt lat="45.11163" lon="5.59905">
        <ele>1517</ele>
        <time>2020-08-23T11:57:45Z</time>
      </trkpt>
      <trkpt lat="45.11165" lon="5.59901">
        <ele>1516.6</ele>
        <time>2020-08-23T11:57:46Z</time>
      </trkpt>
      <trkpt lat="45.11166" lon="5.59898">
        <ele>1516</ele>
        <time>2020-08-23T11:57:47Z</time>
      </trkpt>
      <trkpt lat="45.11167" lon="5.59894">
        <ele>1515.6</ele>
        <time>2020-08-23T11:57:48Z</time>
      </trkpt>
      <trkpt lat="45.11168" lon="5.5989">
        <ele>1515</ele>
        <time>2020-08-23T11:57:49Z</time>
      </trkpt>
      <trkpt lat="45.11169" lon="5.59887">
        <ele>1514.6</ele>
        <time>2020-08-23T11:57:50Z</time>
      </trkpt>
      <trkpt lat="45.1117" lon="5.59883">
        <ele>1514.2</ele>
        <time>2020-08-23T11:57:51Z</time>
      </trkpt>
      <trkpt lat="45.11171" lon="5.59879">
        <ele>1513.8</ele>
        <time>2020-08-23T11:57:52Z</time>
      </trkpt>
      <trkpt lat="45.11174" lon="5.59874">
        <ele>1513.4</ele>
        <time>2020-08-23T11:57:53Z</time>
      </trkpt>
      <trkpt lat="45.11176" lon="5.59869">
        <ele>1513</ele>
        <time>2020-08-23T11:57:54Z</time>
      </trkpt>
      <trkpt lat="45.11179" lon="5.59865">
        <ele>1512.6</ele>
        <time>2020-08-23T11:57:55Z</time>
      </trkpt>
      <trkpt lat="45.11181" lon="5.59861">
        <ele>1512.2</ele>
        <time>2020-08-23T11:57:56Z</time>
      </trkpt>
      <trkpt lat="45.11183" lon="5.59858">
        <ele>1511.8</ele>
        <time>2020-08-23T11:57:57Z</time>
      </trkpt>
      <trkpt lat="45.11185" lon="5.59855">
        <ele>1511.4</ele>
        <time>2020-08-23T11:57:58Z</time>
      </trkpt>
      <trkpt lat="45.11188" lon="5.59852">
        <ele>1510.8</ele>
        <time>2020-08-23T11:57:59Z</time>
      </trkpt>
      <trkpt lat="45.1119" lon="5.5985">
        <ele>1510.4</ele>
        <time>2020-08-23T11:58:00Z</time>
      </trkpt>
      <trkpt lat="45.11193" lon="5.59848">
        <ele>1509.8</ele>
        <time>2020-08-23T11:58:01Z</time>
      </trkpt>
      <trkpt lat="45.11195" lon="5.59848">
        <ele>1509.4</ele>
        <time>2020-08-23T11:58:02Z</time>
      </trkpt>
      <trkpt lat="45.11196" lon="5.59848">
        <ele>1508.8</ele>
        <time>2020-08-23T11:58:03Z</time>
      </trkpt>
      <trkpt lat="45.11197" lon="5.59847">
        <ele>1508.4</ele>
        <time>2020-08-23T11:58:04Z</time>
      </trkpt>
      <trkpt lat="45.11198" lon="5.59847">
        <ele>1508</ele>
        <time>2020-08-23T11:58:05Z</time>
      </trkpt>
      <trkpt lat="45.11198" lon="5.59846">
        <ele>1507.6</ele>
        <time>2020-08-23T11:58:06Z</time>
      </trkpt>
      <trkpt lat="45.11198" lon="5.59846">
        <ele>1507.2</ele>
        <time>2020-08-23T11:58:07Z</time>
      </trkpt>
      <trkpt lat="45.11198" lon="5.59846">
        <ele>1506.6</ele>
        <time>2020-08-23T11:58:08Z</time>
      </trkpt>
      <trkpt lat="45.11198" lon="5.59846">
        <ele>1506.2</ele>
        <time>2020-08-23T11:58:09Z</time>
      </trkpt>
      <trkpt lat="45.11198" lon="5.59846">
        <ele>1505.8</ele>
        <time>2020-08-23T11:58:10Z</time>
      </trkpt>
      <trkpt lat="45.11198" lon="5.59846">
        <ele>1505.4</ele>
        <time>2020-08-23T11:58:11Z</time>
      </trkpt>
      <trkpt lat="45.11198" lon="5.59846">
        <ele>1505</ele>
        <time>2020-08-23T11:58:12Z</time>
      </trkpt>
      <trkpt lat="45.11198" lon="5.59846">
        <ele>1504.6</ele>
        <time>2020-08-23T11:58:13Z</time>
      </trkpt>
      <trkpt lat="45.11203" lon="5.59849">
        <ele>1502.2</ele>
        <time>2020-08-23T11:59:22Z</time>
      </trkpt>
      <trkpt lat="45.11206" lon="5.59851">
        <ele>1502.2</ele>
        <time>2020-08-23T11:59:23Z</time>
      </trkpt>
      <trkpt lat="45.11208" lon="5.59853">
        <ele>1502</ele>
        <time>2020-08-23T11:59:24Z</time>
      </trkpt>
      <trkpt lat="45.1121" lon="5.59855">
        <ele>1501.6</ele>
        <time>2020-08-23T11:59:25Z</time>
      </trkpt>
      <trkpt lat="45.11211" lon="5.59857">
        <ele>1501.2</ele>
        <time>2020-08-23T11:59:26Z</time>
      </trkpt>
      <trkpt lat="45.11213" lon="5.59858">
        <ele>1500.8</ele>
        <time>2020-08-23T11:59:27Z</time>
      </trkpt>
      <trkpt lat="45.11214" lon="5.59858">
        <ele>1500.4</ele>
        <time>2020-08-23T11:59:28Z</time>
      </trkpt>
      <trkpt lat="45.11215" lon="5.59857">
        <ele>1500</ele>
        <time>2020-08-23T11:59:29Z</time>
      </trkpt>
      <trkpt lat="45.11216" lon="5.59855">
        <ele>1499.6</ele>
        <time>2020-08-23T11:59:30Z</time>
      </trkpt>
      <trkpt lat="45.11218" lon="5.59853">
        <ele>1499</ele>
        <time>2020-08-23T11:59:31Z</time>
      </trkpt>
      <trkpt lat="45.11219" lon="5.59851">
        <ele>1498.6</ele>
        <time>2020-08-23T11:59:32Z</time>
      </trkpt>
      <trkpt lat="45.11222" lon="5.5985">
        <ele>1498.2</ele>
        <time>2020-08-23T11:59:33Z</time>
      </trkpt>
      <trkpt lat="45.11224" lon="5.5985">
        <ele>1497.8</ele>
        <time>2020-08-23T11:59:34Z</time>
      </trkpt>
      <trkpt lat="45.11226" lon="5.5985">
        <ele>1497.4</ele>
        <time>2020-08-23T11:59:35Z</time>
      </trkpt>
      <trkpt lat="45.11227" lon="5.5985">
        <ele>1497</ele>
        <time>2020-08-23T11:59:36Z</time>
      </trkpt>
      <trkpt lat="45.11229" lon="5.59852">
        <ele>1496.4</ele>
        <time>2020-08-23T11:59:37Z</time>
      </trkpt>
      <trkpt lat="45.11231" lon="5.59855">
        <ele>1496</ele>
        <time>2020-08-23T11:59:38Z</time>
      </trkpt>
      <trkpt lat="45.11231" lon="5.59857">
        <ele>1495.6</ele>
        <time>2020-08-23T11:59:39Z</time>
      </trkpt>
      <trkpt lat="45.11231" lon="5.5986">
        <ele>1495.2</ele>
        <time>2020-08-23T11:59:40Z</time>
      </trkpt>
      <trkpt lat="45.11231" lon="5.59864">
        <ele>1494.8</ele>
        <time>2020-08-23T11:59:41Z</time>
      </trkpt>
      <trkpt lat="45.11231" lon="5.59868">
        <ele>1494.4</ele>
        <time>2020-08-23T11:59:42Z</time>
      </trkpt>
      <trkpt lat="45.11231" lon="5.59872">
        <ele>1494</ele>
        <time>2020-08-23T11:59:43Z</time>
      </trkpt>
      <trkpt lat="45.11232" lon="5.59875">
        <ele>1493.6</ele>
        <time>2020-08-23T11:59:44Z</time>
      </trkpt>
      <trkpt lat="45.11233" lon="5.59877">
        <ele>1493.2</ele>
        <time>2020-08-23T11:59:45Z</time>
      </trkpt>
      <trkpt lat="45.11236" lon="5.59879">
        <ele>1492.6</ele>
        <time>2020-08-23T11:59:46Z</time>
      </trkpt>
      <trkpt lat="45.1124" lon="5.5988">
        <ele>1492.4</ele>
        <time>2020-08-23T11:59:47Z</time>
      </trkpt>
      <trkpt lat="45.11245" lon="5.5988">
        <ele>1492</ele>
        <time>2020-08-23T11:59:48Z</time>
      </trkpt>
      <trkpt lat="45.11249" lon="5.59881">
        <ele>1491.6</ele>
        <time>2020-08-23T11:59:49Z</time>
      </trkpt>
      <trkpt lat="45.11254" lon="5.59884">
        <ele>1491.2</ele>
        <time>2020-08-23T11:59:50Z</time>
      </trkpt>
      <trkpt lat="45.11257" lon="5.59887">
        <ele>1490.6</ele>
        <time>2020-08-23T11:59:51Z</time>
      </trkpt>
      <trkpt lat="45.11258" lon="5.59891">
        <ele>1490.2</ele>
        <time>2020-08-23T11:59:52Z</time>
      </trkpt>
      <trkpt lat="45.1126" lon="5.59896">
        <ele>1489.8</ele>
        <time>2020-08-23T11:59:53Z</time>
      </trkpt>
      <trkpt lat="45.11262" lon="5.59899">
        <ele>1489.4</ele>
        <time>2020-08-23T11:59:54Z</time>
      </trkpt>
      <trkpt lat="45.11265" lon="5.599">
        <ele>1488.8</ele>
        <time>2020-08-23T11:59:55Z</time>
      </trkpt>
      <trkpt lat="45.11269" lon="5.599">
        <ele>1488.4</ele>
        <time>2020-08-23T11:59:56Z</time>
      </trkpt>
      <trkpt lat="45.11275" lon="5.59902">
        <ele>1487.8</ele>
        <time>2020-08-23T11:59:57Z</time>
      </trkpt>
      <trkpt lat="45.11281" lon="5.59905">
        <ele>1487.2</ele>
        <time>2020-08-23T11:59:58Z</time>
      </trkpt>
      <trkpt lat="45.11287" lon="5.59908">
        <ele>1486.8</ele>
        <time>2020-08-23T11:59:59Z</time>
      </trkpt>
      <trkpt lat="45.11293" lon="5.59911">
        <ele>1486.4</ele>
        <time>2020-08-23T12:00:00Z</time>
      </trkpt>
      <trkpt lat="45.11299" lon="5.59913">
        <ele>1485.8</ele>
        <time>2020-08-23T12:00:01Z</time>
      </trkpt>
      <trkpt lat="45.11306" lon="5.59913">
        <ele>1485.4</ele>
        <time>2020-08-23T12:00:02Z</time>
      </trkpt>
      <trkpt lat="45.11311" lon="5.59913">
        <ele>1484.8</ele>
        <time>2020-08-23T12:00:03Z</time>
      </trkpt>
      <trkpt lat="45.11317" lon="5.59912">
        <ele>1484.2</ele>
        <time>2020-08-23T12:00:04Z</time>
      </trkpt>
      <trkpt lat="45.11322" lon="5.59911">
        <ele>1483.8</ele>
        <time>2020-08-23T12:00:05Z</time>
      </trkpt>
      <trkpt lat="45.11328" lon="5.59911">
        <ele>1483.2</ele>
        <time>2020-08-23T12:00:06Z</time>
      </trkpt>
      <trkpt lat="45.11333" lon="5.5991">
        <ele>1482.8</ele>
        <time>2020-08-23T12:00:07Z</time>
      </trkpt>
      <trkpt lat="45.11338" lon="5.5991">
        <ele>1482.2</ele>
        <time>2020-08-23T12:00:08Z</time>
      </trkpt>
      <trkpt lat="45.11342" lon="5.5991">
        <ele>1481.8</ele>
        <time>2020-08-23T12:00:09Z</time>
      </trkpt>
      <trkpt lat="45.11346" lon="5.59909">
        <ele>1481.4</ele>
        <time>2020-08-23T12:00:10Z</time>
      </trkpt>
      <trkpt lat="45.11351" lon="5.59909">
        <ele>1480.8</ele>
        <time>2020-08-23T12:00:11Z</time>
      </trkpt>
      <trkpt lat="45.11355" lon="5.59908">
        <ele>1480.4</ele>
        <time>2020-08-23T12:00:12Z</time>
      </trkpt>
      <trkpt lat="45.1136" lon="5.59907">
        <ele>1480.2</ele>
        <time>2020-08-23T12:00:13Z</time>
      </trkpt>
      <trkpt lat="45.11364" lon="5.59906">
        <ele>1479.8</ele>
        <time>2020-08-23T12:00:14Z</time>
      </trkpt>
      <trkpt lat="45.11369" lon="5.59904">
        <ele>1479.2</ele>
        <time>2020-08-23T12:00:15Z</time>
      </trkpt>
      <trkpt lat="45.11373" lon="5.59902">
        <ele>1478.8</ele>
        <time>2020-08-23T12:00:16Z</time>
      </trkpt>
      <trkpt lat="45.11377" lon="5.599">
        <ele>1478.4</ele>
        <time>2020-08-23T12:00:17Z</time>
      </trkpt>
      <trkpt lat="45.1138" lon="5.59898">
        <ele>1477.8</ele>
        <time>2020-08-23T12:00:18Z</time>
      </trkpt>
      <trkpt lat="45.11384" lon="5.59897">
        <ele>1477.6</ele>
        <time>2020-08-23T12:00:19Z</time>
      </trkpt>
      <trkpt lat="45.11387" lon="5.59895">
        <ele>1477.2</ele>
        <time>2020-08-23T12:00:20Z</time>
      </trkpt>
      <trkpt lat="45.1139" lon="5.59894">
        <ele>1476.6</ele>
        <time>2020-08-23T12:00:21Z</time>
      </trkpt>
      <trkpt lat="45.11393" lon="5.59892">
        <ele>1476.2</ele>
        <time>2020-08-23T12:00:22Z</time>
      </trkpt>
      <trkpt lat="45.11396" lon="5.59891">
        <ele>1475.6</ele>
        <time>2020-08-23T12:00:23Z</time>
      </trkpt>
      <trkpt lat="45.114" lon="5.59891">
        <ele>1475.2</ele>
        <time>2020-08-23T12:00:24Z</time>
      </trkpt>
      <trkpt lat="45.11403" lon="5.5989">
        <ele>1474.6</ele>
        <time>2020-08-23T12:00:25Z</time>
      </trkpt>
      <trkpt lat="45.11406" lon="5.5989">
        <ele>1474.2</ele>
        <time>2020-08-23T12:00:26Z</time>
      </trkpt>
      <trkpt lat="45.11408" lon="5.5989">
        <ele>1473.8</ele>
        <time>2020-08-23T12:00:27Z</time>
      </trkpt>
      <trkpt lat="45.11411" lon="5.5989">
        <ele>1473.4</ele>
        <time>2020-08-23T12:00:28Z</time>
      </trkpt>
      <trkpt lat="45.11412" lon="5.5989">
        <ele>1473</ele>
        <time>2020-08-23T12:00:29Z</time>
      </trkpt>
      <trkpt lat="45.11413" lon="5.5989">
        <ele>1472.6</ele>
        <time>2020-08-23T12:00:30Z</time>
      </trkpt>
      <trkpt lat="45.11414" lon="5.59891">
        <ele>1472.2</ele>
        <time>2020-08-23T12:00:31Z</time>
      </trkpt>
      <trkpt lat="45.11416" lon="5.59891">
        <ele>1471.8</ele>
        <time>2020-08-23T12:00:32Z</time>
      </trkpt>
      <trkpt lat="45.11419" lon="5.59891">
        <ele>1471.4</ele>
        <time>2020-08-23T12:00:33Z</time>
      </trkpt>
      <trkpt lat="45.11421" lon="5.59891">
        <ele>1471</ele>
        <time>2020-08-23T12:00:34Z</time>
      </trkpt>
      <trkpt lat="45.11424" lon="5.5989">
        <ele>1470.6</ele>
        <time>2020-08-23T12:00:35Z</time>
      </trkpt>
      <trkpt lat="45.11429" lon="5.59889">
        <ele>1470.4</ele>
        <time>2020-08-23T12:00:36Z</time>
      </trkpt>
      <trkpt lat="45.11433" lon="5.59889">
        <ele>1469.8</ele>
        <time>2020-08-23T12:00:37Z</time>
      </trkpt>
      <trkpt lat="45.11438" lon="5.59889">
        <ele>1469.4</ele>
        <time>2020-08-23T12:00:38Z</time>
      </trkpt>
      <trkpt lat="45.11442" lon="5.59891">
        <ele>1469</ele>
        <time>2020-08-23T12:00:39Z</time>
      </trkpt>
      <trkpt lat="45.11446" lon="5.59891">
        <ele>1468.6</ele>
        <time>2020-08-23T12:00:40Z</time>
      </trkpt>
      <trkpt lat="45.11452" lon="5.59891">
        <ele>1468.2</ele>
        <time>2020-08-23T12:00:41Z</time>
      </trkpt>
      <trkpt lat="45.11457" lon="5.59891">
        <ele>1467.8</ele>
        <time>2020-08-23T12:00:42Z</time>
      </trkpt>
      <trkpt lat="45.11462" lon="5.5989">
        <ele>1467.4</ele>
        <time>2020-08-23T12:00:43Z</time>
      </trkpt>
      <trkpt lat="45.11467" lon="5.59889">
        <ele>1467</ele>
        <time>2020-08-23T12:00:44Z</time>
      </trkpt>
      <trkpt lat="45.11472" lon="5.59888">
        <ele>1466.4</ele>
        <time>2020-08-23T12:00:45Z</time>
      </trkpt>
      <trkpt lat="45.11476" lon="5.59888">
        <ele>1466</ele>
        <time>2020-08-23T12:00:46Z</time>
      </trkpt>
      <trkpt lat="45.11479" lon="5.59887">
        <ele>1465.6</ele>
        <time>2020-08-23T12:00:47Z</time>
      </trkpt>
      <trkpt lat="45.11482" lon="5.59887">
        <ele>1465.2</ele>
        <time>2020-08-23T12:00:48Z</time>
      </trkpt>
      <trkpt lat="45.11484" lon="5.59886">
        <ele>1464.8</ele>
        <time>2020-08-23T12:00:49Z</time>
      </trkpt>
      <trkpt lat="45.11486" lon="5.59884">
        <ele>1464.4</ele>
        <time>2020-08-23T12:00:50Z</time>
      </trkpt>
      <trkpt lat="45.11489" lon="5.59882">
        <ele>1464</ele>
        <time>2020-08-23T12:00:51Z</time>
      </trkpt>
      <trkpt lat="45.11492" lon="5.5988">
        <ele>1463.6</ele>
        <time>2020-08-23T12:00:52Z</time>
      </trkpt>
      <trkpt lat="45.11494" lon="5.59878">
        <ele>1463.2</ele>
        <time>2020-08-23T12:00:53Z</time>
      </trkpt>
      <trkpt lat="45.11498" lon="5.59876">
        <ele>1462.6</ele>
        <time>2020-08-23T12:00:54Z</time>
      </trkpt>
      <trkpt lat="45.11501" lon="5.59875">
        <ele>1462.2</ele>
        <time>2020-08-23T12:00:55Z</time>
      </trkpt>
      <trkpt lat="45.11504" lon="5.59874">
        <ele>1461.6</ele>
        <time>2020-08-23T12:00:56Z</time>
      </trkpt>
      <trkpt lat="45.11506" lon="5.59873">
        <ele>1461.2</ele>
        <time>2020-08-23T12:00:57Z</time>
      </trkpt>
      <trkpt lat="45.11509" lon="5.59873">
        <ele>1460.8</ele>
        <time>2020-08-23T12:00:58Z</time>
      </trkpt>
      <trkpt lat="45.11512" lon="5.59872">
        <ele>1460.2</ele>
        <time>2020-08-23T12:00:59Z</time>
      </trkpt>
      <trkpt lat="45.11515" lon="5.59872">
        <ele>1459.8</ele>
        <time>2020-08-23T12:01:00Z</time>
      </trkpt>
      <trkpt lat="45.11519" lon="5.59872">
        <ele>1459.2</ele>
        <time>2020-08-23T12:01:01Z</time>
      </trkpt>
      <trkpt lat="45.11522" lon="5.59872">
        <ele>1458.6</ele>
        <time>2020-08-23T12:01:02Z</time>
      </trkpt>
      <trkpt lat="45.11525" lon="5.59872">
        <ele>1458.2</ele>
        <time>2020-08-23T12:01:03Z</time>
      </trkpt>
      <trkpt lat="45.11527" lon="5.59872">
        <ele>1457.6</ele>
        <time>2020-08-23T12:01:04Z</time>
      </trkpt>
      <trkpt lat="45.1153" lon="5.59872">
        <ele>1457</ele>
        <time>2020-08-23T12:01:05Z</time>
      </trkpt>
      <trkpt lat="45.11533" lon="5.59872">
        <ele>1456.4</ele>
        <time>2020-08-23T12:01:06Z</time>
      </trkpt>
      <trkpt lat="45.11535" lon="5.59872">
        <ele>1455.8</ele>
        <time>2020-08-23T12:01:07Z</time>
      </trkpt>
      <trkpt lat="45.11538" lon="5.59871">
        <ele>1455.2</ele>
        <time>2020-08-23T12:01:08Z</time>
      </trkpt>
      <trkpt lat="45.1154" lon="5.59871">
        <ele>1454.4</ele>
        <time>2020-08-23T12:01:09Z</time>
      </trkpt>
      <trkpt lat="45.11543" lon="5.59871">
        <ele>1453.8</ele>
        <time>2020-08-23T12:01:10Z</time>
      </trkpt>
      <trkpt lat="45.11546" lon="5.5987">
        <ele>1453.2</ele>
        <time>2020-08-23T12:01:11Z</time>
      </trkpt>
      <trkpt lat="45.11548" lon="5.5987">
        <ele>1452.4</ele>
        <time>2020-08-23T12:01:12Z</time>
      </trkpt>
      <trkpt lat="45.11551" lon="5.5987">
        <ele>1451.8</ele>
        <time>2020-08-23T12:01:13Z</time>
      </trkpt>
      <trkpt lat="45.11553" lon="5.5987">
        <ele>1451.2</ele>
        <time>2020-08-23T12:01:14Z</time>
      </trkpt>
      <trkpt lat="45.11556" lon="5.5987">
        <ele>1450.6</ele>
        <time>2020-08-23T12:01:15Z</time>
      </trkpt>
      <trkpt lat="45.11559" lon="5.59869">
        <ele>1450</ele>
        <time>2020-08-23T12:01:16Z</time>
      </trkpt>
      <trkpt lat="45.11561" lon="5.59869">
        <ele>1449.4</ele>
        <time>2020-08-23T12:01:17Z</time>
      </trkpt>
      <trkpt lat="45.11564" lon="5.59869">
        <ele>1448.8</ele>
        <time>2020-08-23T12:01:18Z</time>
      </trkpt>
      <trkpt lat="45.11566" lon="5.59868">
        <ele>1448.2</ele>
        <time>2020-08-23T12:01:19Z</time>
      </trkpt>
      <trkpt lat="45.11568" lon="5.59867">
        <ele>1447.6</ele>
        <time>2020-08-23T12:01:20Z</time>
      </trkpt>
      <trkpt lat="45.1157" lon="5.59866">
        <ele>1447</ele>
        <time>2020-08-23T12:01:21Z</time>
      </trkpt>
      <trkpt lat="45.11572" lon="5.59866">
        <ele>1446.4</ele>
        <time>2020-08-23T12:01:22Z</time>
      </trkpt>
      <trkpt lat="45.11574" lon="5.59865">
        <ele>1445.8</ele>
        <time>2020-08-23T12:01:23Z</time>
      </trkpt>
      <trkpt lat="45.11576" lon="5.59865">
        <ele>1445.2</ele>
        <time>2020-08-23T12:01:24Z</time>
      </trkpt>
      <trkpt lat="45.11577" lon="5.59864">
        <ele>1444.6</ele>
        <time>2020-08-23T12:01:25Z</time>
      </trkpt>
      <trkpt lat="45.11579" lon="5.59864">
        <ele>1444</ele>
        <time>2020-08-23T12:01:26Z</time>
      </trkpt>
      <trkpt lat="45.1158" lon="5.59863">
        <ele>1443.6</ele>
        <time>2020-08-23T12:01:27Z</time>
      </trkpt>
      <trkpt lat="45.11582" lon="5.59862">
        <ele>1443</ele>
        <time>2020-08-23T12:01:28Z</time>
      </trkpt>
      <trkpt lat="45.11583" lon="5.59862">
        <ele>1442.4</ele>
        <time>2020-08-23T12:01:29Z</time>
      </trkpt>
      <trkpt lat="45.11585" lon="5.59861">
        <ele>1441.8</ele>
        <time>2020-08-23T12:01:30Z</time>
      </trkpt>
      <trkpt lat="45.11586" lon="5.59861">
        <ele>1441.2</ele>
        <time>2020-08-23T12:01:31Z</time>
      </trkpt>
      <trkpt lat="45.11588" lon="5.5986">
        <ele>1440.6</ele>
        <time>2020-08-23T12:01:32Z</time>
      </trkpt>
      <trkpt lat="45.11589" lon="5.59859">
        <ele>1440</ele>
        <time>2020-08-23T12:01:33Z</time>
      </trkpt>
      <trkpt lat="45.1159" lon="5.59858">
        <ele>1439.4</ele>
        <time>2020-08-23T12:01:34Z</time>
      </trkpt>
      <trkpt lat="45.11591" lon="5.59857">
        <ele>1438.8</ele>
        <time>2020-08-23T12:01:35Z</time>
      </trkpt>
      <trkpt lat="45.11593" lon="5.59856">
        <ele>1438</ele>
        <time>2020-08-23T12:01:36Z</time>
      </trkpt>
      <trkpt lat="45.11594" lon="5.59855">
        <ele>1437.4</ele>
        <time>2020-08-23T12:01:37Z</time>
      </trkpt>
      <trkpt lat="45.11596" lon="5.59854">
        <ele>1436.6</ele>
        <time>2020-08-23T12:01:38Z</time>
      </trkpt>
      <trkpt lat="45.11597" lon="5.59853">
        <ele>1436</ele>
        <time>2020-08-23T12:01:39Z</time>
      </trkpt>
      <trkpt lat="45.11599" lon="5.59852">
        <ele>1435.4</ele>
        <time>2020-08-23T12:01:40Z</time>
      </trkpt>
      <trkpt lat="45.11601" lon="5.59852">
        <ele>1434.8</ele>
        <time>2020-08-23T12:01:41Z</time>
      </trkpt>
      <trkpt lat="45.11602" lon="5.59851">
        <ele>1434.2</ele>
        <time>2020-08-23T12:01:42Z</time>
      </trkpt>
      <trkpt lat="45.11603" lon="5.5985">
        <ele>1433.6</ele>
        <time>2020-08-23T12:01:43Z</time>
      </trkpt>
      <trkpt lat="45.11605" lon="5.5985">
        <ele>1433</ele>
        <time>2020-08-23T12:01:44Z</time>
      </trkpt>
      <trkpt lat="45.11606" lon="5.59849">
        <ele>1432.2</ele>
        <time>2020-08-23T12:01:45Z</time>
      </trkpt>
      <trkpt lat="45.11608" lon="5.59849">
        <ele>1431.6</ele>
        <time>2020-08-23T12:01:46Z</time>
      </trkpt>
      <trkpt lat="45.11609" lon="5.59848">
        <ele>1431</ele>
        <time>2020-08-23T12:01:47Z</time>
      </trkpt>
      <trkpt lat="45.11611" lon="5.59848">
        <ele>1430.4</ele>
        <time>2020-08-23T12:01:48Z</time>
      </trkpt>
      <trkpt lat="45.11612" lon="5.59847">
        <ele>1429.6</ele>
        <time>2020-08-23T12:01:49Z</time>
      </trkpt>
      <trkpt lat="45.11614" lon="5.59846">
        <ele>1429</ele>
        <time>2020-08-23T12:01:50Z</time>
      </trkpt>
      <trkpt lat="45.11615" lon="5.59846">
        <ele>1428.4</ele>
        <time>2020-08-23T12:01:51Z</time>
      </trkpt>
      <trkpt lat="45.11617" lon="5.59845">
        <ele>1427.8</ele>
        <time>2020-08-23T12:01:52Z</time>
      </trkpt>
      <trkpt lat="45.11618" lon="5.59845">
        <ele>1427.2</ele>
        <time>2020-08-23T12:01:53Z</time>
      </trkpt>
      <trkpt lat="45.1162" lon="5.59845">
        <ele>1426.6</ele>
        <time>2020-08-23T12:01:54Z</time>
      </trkpt>
      <trkpt lat="45.11621" lon="5.59845">
        <ele>1426</ele>
        <time>2020-08-23T12:01:55Z</time>
      </trkpt>
      <trkpt lat="45.11623" lon="5.59844">
        <ele>1425.2</ele>
        <time>2020-08-23T12:01:56Z</time>
      </trkpt>
      <trkpt lat="45.11624" lon="5.59844">
        <ele>1424.6</ele>
        <time>2020-08-23T12:01:57Z</time>
      </trkpt>
      <trkpt lat="45.11625" lon="5.59843">
        <ele>1424</ele>
        <time>2020-08-23T12:01:58Z</time>
      </trkpt>
      <trkpt lat="45.11627" lon="5.59843">
        <ele>1423.4</ele>
        <time>2020-08-23T12:01:59Z</time>
      </trkpt>
      <trkpt lat="45.11628" lon="5.59843">
        <ele>1422.8</ele>
        <time>2020-08-23T12:02:00Z</time>
      </trkpt>
      <trkpt lat="45.1163" lon="5.59842">
        <ele>1422.2</ele>
        <time>2020-08-23T12:02:01Z</time>
      </trkpt>
      <trkpt lat="45.11631" lon="5.59842">
        <ele>1421.4</ele>
        <time>2020-08-23T12:02:02Z</time>
      </trkpt>
      <trkpt lat="45.11632" lon="5.59841">
        <ele>1420.8</ele>
        <time>2020-08-23T12:02:03Z</time>
      </trkpt>
      <trkpt lat="45.11634" lon="5.59841">
        <ele>1420.2</ele>
        <time>2020-08-23T12:02:04Z</time>
      </trkpt>
      <trkpt lat="45.11636" lon="5.5984">
        <ele>1419.6</ele>
        <time>2020-08-23T12:02:05Z</time>
      </trkpt>
      <trkpt lat="45.11637" lon="5.5984">
        <ele>1419</ele>
        <time>2020-08-23T12:02:06Z</time>
      </trkpt>
      <trkpt lat="45.11639" lon="5.59839">
        <ele>1418.4</ele>
        <time>2020-08-23T12:02:07Z</time>
      </trkpt>
      <trkpt lat="45.1164" lon="5.59839">
        <ele>1417.8</ele>
        <time>2020-08-23T12:02:08Z</time>
      </trkpt>
      <trkpt lat="45.11642" lon="5.59838">
        <ele>1417.2</ele>
        <time>2020-08-23T12:02:09Z</time>
      </trkpt>
      <trkpt lat="45.11643" lon="5.59838">
        <ele>1416.6</ele>
        <time>2020-08-23T12:02:10Z</time>
      </trkpt>
      <trkpt lat="45.11645" lon="5.59838">
        <ele>1416</ele>
        <time>2020-08-23T12:02:11Z</time>
      </trkpt>
      <trkpt lat="45.11646" lon="5.59837">
        <ele>1415.4</ele>
        <time>2020-08-23T12:02:12Z</time>
      </trkpt>
      <trkpt lat="45.11648" lon="5.59837">
        <ele>1414.8</ele>
        <time>2020-08-23T12:02:13Z</time>
      </trkpt>
      <trkpt lat="45.1165" lon="5.59836">
        <ele>1414.4</ele>
        <time>2020-08-23T12:02:14Z</time>
      </trkpt>
      <trkpt lat="45.11652" lon="5.59836">
        <ele>1413.8</ele>
        <time>2020-08-23T12:02:15Z</time>
      </trkpt>
      <trkpt lat="45.11653" lon="5.59835">
        <ele>1413.2</ele>
        <time>2020-08-23T12:02:16Z</time>
      </trkpt>
      <trkpt lat="45.11654" lon="5.59834">
        <ele>1412.6</ele>
        <time>2020-08-23T12:02:17Z</time>
      </trkpt>
      <trkpt lat="45.11656" lon="5.59834">
        <ele>1412.2</ele>
        <time>2020-08-23T12:02:18Z</time>
      </trkpt>
      <trkpt lat="45.11658" lon="5.59834">
        <ele>1411.6</ele>
        <time>2020-08-23T12:02:19Z</time>
      </trkpt>
      <trkpt lat="45.1166" lon="5.59833">
        <ele>1411.2</ele>
        <time>2020-08-23T12:02:20Z</time>
      </trkpt>
      <trkpt lat="45.11661" lon="5.59833">
        <ele>1410.6</ele>
        <time>2020-08-23T12:02:21Z</time>
      </trkpt>
      <trkpt lat="45.11662" lon="5.59833">
        <ele>1410.2</ele>
        <time>2020-08-23T12:02:22Z</time>
      </trkpt>
      <trkpt lat="45.11664" lon="5.59832">
        <ele>1409.6</ele>
        <time>2020-08-23T12:02:23Z</time>
      </trkpt>
      <trkpt lat="45.11666" lon="5.59832">
        <ele>1409.2</ele>
        <time>2020-08-23T12:02:24Z</time>
      </trkpt>
      <trkpt lat="45.11667" lon="5.59832">
        <ele>1408.8</ele>
        <time>2020-08-23T12:02:25Z</time>
      </trkpt>
      <trkpt lat="45.11669" lon="5.59832">
        <ele>1408.2</ele>
        <time>2020-08-23T12:02:26Z</time>
      </trkpt>
      <trkpt lat="45.1167" lon="5.59831">
        <ele>1407.8</ele>
        <time>2020-08-23T12:02:27Z</time>
      </trkpt>
      <trkpt lat="45.11672" lon="5.59831">
        <ele>1407.4</ele>
        <time>2020-08-23T12:02:28Z</time>
      </trkpt>
      <trkpt lat="45.11673" lon="5.59831">
        <ele>1407</ele>
        <time>2020-08-23T12:02:29Z</time>
      </trkpt>
      <trkpt lat="45.11675" lon="5.5983">
        <ele>1406.6</ele>
        <time>2020-08-23T12:02:30Z</time>
      </trkpt>
      <trkpt lat="45.11676" lon="5.5983">
        <ele>1406.2</ele>
        <time>2020-08-23T12:02:31Z</time>
      </trkpt>
      <trkpt lat="45.11678" lon="5.5983">
        <ele>1406</ele>
        <time>2020-08-23T12:02:32Z</time>
      </trkpt>
      <trkpt lat="45.1168" lon="5.59829">
        <ele>1405.6</ele>
        <time>2020-08-23T12:02:33Z</time>
      </trkpt>
      <trkpt lat="45.11681" lon="5.59829">
        <ele>1405.2</ele>
        <time>2020-08-23T12:02:34Z</time>
      </trkpt>
      <trkpt lat="45.11682" lon="5.59828">
        <ele>1404.8</ele>
        <time>2020-08-23T12:02:35Z</time>
      </trkpt>
      <trkpt lat="45.11684" lon="5.59828">
        <ele>1404.4</ele>
        <time>2020-08-23T12:02:36Z</time>
      </trkpt>
      <trkpt lat="45.11686" lon="5.59828">
        <ele>1404.2</ele>
        <time>2020-08-23T12:02:37Z</time>
      </trkpt>
      <trkpt lat="45.11687" lon="5.59827">
        <ele>1403.8</ele>
        <time>2020-08-23T12:02:38Z</time>
      </trkpt>
      <trkpt lat="45.11688" lon="5.59826">
        <ele>1403.4</ele>
        <time>2020-08-23T12:02:39Z</time>
      </trkpt>
      <trkpt lat="45.1169" lon="5.59825">
        <ele>1403.2</ele>
        <time>2020-08-23T12:02:40Z</time>
      </trkpt>
      <trkpt lat="45.11691" lon="5.59824">
        <ele>1402.8</ele>
        <time>2020-08-23T12:02:41Z</time>
      </trkpt>
      <trkpt lat="45.11692" lon="5.59823">
        <ele>1402.4</ele>
        <time>2020-08-23T12:02:42Z</time>
      </trkpt>
      <trkpt lat="45.11694" lon="5.59822">
        <ele>1402.2</ele>
        <time>2020-08-23T12:02:43Z</time>
      </trkpt>
      <trkpt lat="45.11694" lon="5.5982">
        <ele>1401.8</ele>
        <time>2020-08-23T12:02:44Z</time>
      </trkpt>
      <trkpt lat="45.11696" lon="5.59819">
        <ele>1401.6</ele>
        <time>2020-08-23T12:02:45Z</time>
      </trkpt>
      <trkpt lat="45.11697" lon="5.59817">
        <ele>1401.4</ele>
        <time>2020-08-23T12:02:46Z</time>
      </trkpt>
      <trkpt lat="45.11698" lon="5.59816">
        <ele>1401.2</ele>
        <time>2020-08-23T12:02:47Z</time>
      </trkpt>
      <trkpt lat="45.11699" lon="5.59814">
        <ele>1401</ele>
        <time>2020-08-23T12:02:48Z</time>
      </trkpt>
      <trkpt lat="45.11699" lon="5.59813">
        <ele>1400.8</ele>
        <time>2020-08-23T12:02:49Z</time>
      </trkpt>
      <trkpt lat="45.11699" lon="5.59811">
        <ele>1400.6</ele>
        <time>2020-08-23T12:02:50Z</time>
      </trkpt>
      <trkpt lat="45.117" lon="5.5981">
        <ele>1400.2</ele>
        <time>2020-08-23T12:02:51Z</time>
      </trkpt>
      <trkpt lat="45.117" lon="5.59809">
        <ele>1400</ele>
        <time>2020-08-23T12:02:52Z</time>
      </trkpt>
      <trkpt lat="45.11701" lon="5.59808">
        <ele>1399.8</ele>
        <time>2020-08-23T12:02:53Z</time>
      </trkpt>
      <trkpt lat="45.11703" lon="5.59808">
        <ele>1399.4</ele>
        <time>2020-08-23T12:02:54Z</time>
      </trkpt>
      <trkpt lat="45.11704" lon="5.59808">
        <ele>1399.2</ele>
        <time>2020-08-23T12:02:55Z</time>
      </trkpt>
      <trkpt lat="45.11706" lon="5.59808">
        <ele>1398.8</ele>
        <time>2020-08-23T12:02:56Z</time>
      </trkpt>
      <trkpt lat="45.11707" lon="5.59809">
        <ele>1398.6</ele>
        <time>2020-08-23T12:02:57Z</time>
      </trkpt>
      <trkpt lat="45.11709" lon="5.59809">
        <ele>1398.4</ele>
        <time>2020-08-23T12:02:58Z</time>
      </trkpt>
      <trkpt lat="45.1171" lon="5.5981">
        <ele>1398.2</ele>
        <time>2020-08-23T12:02:59Z</time>
      </trkpt>
      <trkpt lat="45.11712" lon="5.59811">
        <ele>1397.8</ele>
        <time>2020-08-23T12:03:00Z</time>
      </trkpt>
      <trkpt lat="45.11713" lon="5.59812">
        <ele>1397.6</ele>
        <time>2020-08-23T12:03:01Z</time>
      </trkpt>
      <trkpt lat="45.11715" lon="5.59812">
        <ele>1397.4</ele>
        <time>2020-08-23T12:03:02Z</time>
      </trkpt>
      <trkpt lat="45.11717" lon="5.59813">
        <ele>1397</ele>
        <time>2020-08-23T12:03:03Z</time>
      </trkpt>
      <trkpt lat="45.11718" lon="5.59814">
        <ele>1396.8</ele>
        <time>2020-08-23T12:03:04Z</time>
      </trkpt>
      <trkpt lat="45.1172" lon="5.59814">
        <ele>1396.6</ele>
        <time>2020-08-23T12:03:05Z</time>
      </trkpt>
      <trkpt lat="45.11722" lon="5.59815">
        <ele>1396.4</ele>
        <time>2020-08-23T12:03:06Z</time>
      </trkpt>
      <trkpt lat="45.11724" lon="5.59816">
        <ele>1396.2</ele>
        <time>2020-08-23T12:03:07Z</time>
      </trkpt>
      <trkpt lat="45.11725" lon="5.59817">
        <ele>1396</ele>
        <time>2020-08-23T12:03:08Z</time>
      </trkpt>
      <trkpt lat="45.11727" lon="5.59818">
        <ele>1395.6</ele>
        <time>2020-08-23T12:03:09Z</time>
      </trkpt>
      <trkpt lat="45.11729" lon="5.59819">
        <ele>1395.4</ele>
        <time>2020-08-23T12:03:10Z</time>
      </trkpt>
      <trkpt lat="45.11731" lon="5.5982">
        <ele>1395.2</ele>
        <time>2020-08-23T12:03:11Z</time>
      </trkpt>
      <trkpt lat="45.11732" lon="5.59821">
        <ele>1395</ele>
        <time>2020-08-23T12:03:12Z</time>
      </trkpt>
      <trkpt lat="45.11734" lon="5.59822">
        <ele>1394.8</ele>
        <time>2020-08-23T12:03:13Z</time>
      </trkpt>
      <trkpt lat="45.11736" lon="5.59822">
        <ele>1394.6</ele>
        <time>2020-08-23T12:03:14Z</time>
      </trkpt>
      <trkpt lat="45.11737" lon="5.59823">
        <ele>1394.6</ele>
        <time>2020-08-23T12:03:15Z</time>
      </trkpt>
      <trkpt lat="45.11739" lon="5.59823">
        <ele>1394.4</ele>
        <time>2020-08-23T12:03:16Z</time>
      </trkpt>
      <trkpt lat="45.11741" lon="5.59823">
        <ele>1394.4</ele>
        <time>2020-08-23T12:03:17Z</time>
      </trkpt>
      <trkpt lat="45.11743" lon="5.59824">
        <ele>1394.2</ele>
        <time>2020-08-23T12:03:18Z</time>
      </trkpt>
      <trkpt lat="45.11745" lon="5.59824">
        <ele>1394.2</ele>
        <time>2020-08-23T12:03:19Z</time>
      </trkpt>
      <trkpt lat="45.11747" lon="5.59825">
        <ele>1394.2</ele>
        <time>2020-08-23T12:03:20Z</time>
      </trkpt>
      <trkpt lat="45.11749" lon="5.59826">
        <ele>1394</ele>
        <time>2020-08-23T12:03:21Z</time>
      </trkpt>
      <trkpt lat="45.11751" lon="5.59826">
        <ele>1394</ele>
        <time>2020-08-23T12:03:22Z</time>
      </trkpt>
      <trkpt lat="45.11753" lon="5.59826">
        <ele>1393.8</ele>
        <time>2020-08-23T12:03:23Z</time>
      </trkpt>
      <trkpt lat="45.11755" lon="5.59826">
        <ele>1393.8</ele>
        <time>2020-08-23T12:03:24Z</time>
      </trkpt>
      <trkpt lat="45.11757" lon="5.59826">
        <ele>1393.8</ele>
        <time>2020-08-23T12:03:25Z</time>
      </trkpt>
      <trkpt lat="45.11759" lon="5.59825">
        <ele>1393.8</ele>
        <time>2020-08-23T12:03:26Z</time>
      </trkpt>
      <trkpt lat="45.11762" lon="5.59824">
        <ele>1393.6</ele>
        <time>2020-08-23T12:03:27Z</time>
      </trkpt>
      <trkpt lat="45.11764" lon="5.59823">
        <ele>1393.6</ele>
        <time>2020-08-23T12:03:28Z</time>
      </trkpt>
      <trkpt lat="45.11766" lon="5.59822">
        <ele>1393.6</ele>
        <time>2020-08-23T12:03:29Z</time>
      </trkpt>
      <trkpt lat="45.11768" lon="5.59821">
        <ele>1393.6</ele>
        <time>2020-08-23T12:03:30Z</time>
      </trkpt>
      <trkpt lat="45.11771" lon="5.59819">
        <ele>1393.4</ele>
        <time>2020-08-23T12:03:31Z</time>
      </trkpt>
      <trkpt lat="45.11773" lon="5.59818">
        <ele>1393.4</ele>
        <time>2020-08-23T12:03:32Z</time>
      </trkpt>
      <trkpt lat="45.11775" lon="5.59817">
        <ele>1393.4</ele>
        <time>2020-08-23T12:03:33Z</time>
      </trkpt>
      <trkpt lat="45.11777" lon="5.59816">
        <ele>1393.4</ele>
        <time>2020-08-23T12:03:34Z</time>
      </trkpt>
      <trkpt lat="45.11778" lon="5.59815">
        <ele>1393.2</ele>
        <time>2020-08-23T12:03:35Z</time>
      </trkpt>
      <trkpt lat="45.1178" lon="5.59813">
        <ele>1393.2</ele>
        <time>2020-08-23T12:03:36Z</time>
      </trkpt>
      <trkpt lat="45.11781" lon="5.59812">
        <ele>1393.2</ele>
        <time>2020-08-23T12:03:37Z</time>
      </trkpt>
      <trkpt lat="45.11783" lon="5.59811">
        <ele>1393</ele>
        <time>2020-08-23T12:03:38Z</time>
      </trkpt>
      <trkpt lat="45.11786" lon="5.59809">
        <ele>1393</ele>
        <time>2020-08-23T12:03:39Z</time>
      </trkpt>
      <trkpt lat="45.11787" lon="5.59807">
        <ele>1393</ele>
        <time>2020-08-23T12:03:40Z</time>
      </trkpt>
      <trkpt lat="45.1179" lon="5.59805">
        <ele>1392.8</ele>
        <time>2020-08-23T12:03:41Z</time>
      </trkpt>
      <trkpt lat="45.11792" lon="5.59803">
        <ele>1392.8</ele>
        <time>2020-08-23T12:03:42Z</time>
      </trkpt>
      <trkpt lat="45.11794" lon="5.598">
        <ele>1392.6</ele>
        <time>2020-08-23T12:03:43Z</time>
      </trkpt>
      <trkpt lat="45.11795" lon="5.59798">
        <ele>1392.4</ele>
        <time>2020-08-23T12:03:44Z</time>
      </trkpt>
      <trkpt lat="45.11797" lon="5.59795">
        <ele>1392.2</ele>
        <time>2020-08-23T12:03:45Z</time>
      </trkpt>
      <trkpt lat="45.11799" lon="5.59792">
        <ele>1392.2</ele>
        <time>2020-08-23T12:03:46Z</time>
      </trkpt>
      <trkpt lat="45.11801" lon="5.59789">
        <ele>1392</ele>
        <time>2020-08-23T12:03:47Z</time>
      </trkpt>
      <trkpt lat="45.11802" lon="5.59787">
        <ele>1391.8</ele>
        <time>2020-08-23T12:03:48Z</time>
      </trkpt>
      <trkpt lat="45.11803" lon="5.59785">
        <ele>1391.8</ele>
        <time>2020-08-23T12:03:49Z</time>
      </trkpt>
      <trkpt lat="45.11804" lon="5.59783">
        <ele>1391.6</ele>
        <time>2020-08-23T12:03:50Z</time>
      </trkpt>
      <trkpt lat="45.11805" lon="5.59782">
        <ele>1391.6</ele>
        <time>2020-08-23T12:03:51Z</time>
      </trkpt>
      <trkpt lat="45.11807" lon="5.5978">
        <ele>1391.4</ele>
        <time>2020-08-23T12:03:52Z</time>
      </trkpt>
      <trkpt lat="45.11809" lon="5.59778">
        <ele>1391.4</ele>
        <time>2020-08-23T12:03:53Z</time>
      </trkpt>
      <trkpt lat="45.1181" lon="5.59776">
        <ele>1391.2</ele>
        <time>2020-08-23T12:03:54Z</time>
      </trkpt>
      <trkpt lat="45.11812" lon="5.59775">
        <ele>1391.2</ele>
        <time>2020-08-23T12:03:55Z</time>
      </trkpt>
      <trkpt lat="45.11813" lon="5.59774">
        <ele>1391.2</ele>
        <time>2020-08-23T12:03:56Z</time>
      </trkpt>
      <trkpt lat="45.11814" lon="5.59772">
        <ele>1391.2</ele>
        <time>2020-08-23T12:03:57Z</time>
      </trkpt>
      <trkpt lat="45.11815" lon="5.59771">
        <ele>1391.2</ele>
        <time>2020-08-23T12:03:58Z</time>
      </trkpt>
      <trkpt lat="45.11816" lon="5.5977">
        <ele>1391.2</ele>
        <time>2020-08-23T12:03:59Z</time>
      </trkpt>
      <trkpt lat="45.11817" lon="5.59769">
        <ele>1391.2</ele>
        <time>2020-08-23T12:04:00Z</time>
      </trkpt>
      <trkpt lat="45.11818" lon="5.59768">
        <ele>1391.2</ele>
        <time>2020-08-23T12:04:01Z</time>
      </trkpt>
      <trkpt lat="45.11818" lon="5.59766">
        <ele>1391.2</ele>
        <time>2020-08-23T12:04:02Z</time>
      </trkpt>
      <trkpt lat="45.1182" lon="5.59765">
        <ele>1391.2</ele>
        <time>2020-08-23T12:04:03Z</time>
      </trkpt>
      <trkpt lat="45.1182" lon="5.59764">
        <ele>1391.4</ele>
        <time>2020-08-23T12:04:04Z</time>
      </trkpt>
      <trkpt lat="45.11821" lon="5.59762">
        <ele>1391.4</ele>
        <time>2020-08-23T12:04:05Z</time>
      </trkpt>
      <trkpt lat="45.11828" lon="5.59757">
        <ele>1391.4</ele>
        <time>2020-08-23T12:04:11Z</time>
      </trkpt>
      <trkpt lat="45.1183" lon="5.59756">
        <ele>1391.2</ele>
        <time>2020-08-23T12:04:12Z</time>
      </trkpt>
      <trkpt lat="45.11831" lon="5.59755">
        <ele>1391.2</ele>
        <time>2020-08-23T12:04:13Z</time>
      </trkpt>
      <trkpt lat="45.11832" lon="5.59755">
        <ele>1391.2</ele>
        <time>2020-08-23T12:04:14Z</time>
      </trkpt>
      <trkpt lat="45.11833" lon="5.59754">
        <ele>1391</ele>
        <time>2020-08-23T12:04:15Z</time>
      </trkpt>
      <trkpt lat="45.11835" lon="5.59753">
        <ele>1390.8</ele>
        <time>2020-08-23T12:04:16Z</time>
      </trkpt>
      <trkpt lat="45.11836" lon="5.59753">
        <ele>1390.6</ele>
        <time>2020-08-23T12:04:17Z</time>
      </trkpt>
      <trkpt lat="45.11837" lon="5.59752">
        <ele>1390.4</ele>
        <time>2020-08-23T12:04:18Z</time>
      </trkpt>
      <trkpt lat="45.11837" lon="5.59751">
        <ele>1390.2</ele>
        <time>2020-08-23T12:04:19Z</time>
      </trkpt>
      <trkpt lat="45.11837" lon="5.59751">
        <ele>1390</ele>
        <time>2020-08-23T12:04:20Z</time>
      </trkpt>
      <trkpt lat="45.11837" lon="5.59751">
        <ele>1390</ele>
        <time>2020-08-23T12:04:21Z</time>
      </trkpt>
      <trkpt lat="45.11837" lon="5.59751">
        <ele>1389.8</ele>
        <time>2020-08-23T12:04:22Z</time>
      </trkpt>
      <trkpt lat="45.11837" lon="5.59751">
        <ele>1389.6</ele>
        <time>2020-08-23T12:04:23Z</time>
      </trkpt>
      <trkpt lat="45.1185" lon="5.59754">
        <ele>1389.2</ele>
        <time>2020-08-23T12:06:51Z</time>
      </trkpt>
      <trkpt lat="45.11855" lon="5.59758">
        <ele>1389.2</ele>
        <time>2020-08-23T12:06:52Z</time>
      </trkpt>
      <trkpt lat="45.11862" lon="5.59762">
        <ele>1389.2</ele>
        <time>2020-08-23T12:06:53Z</time>
      </trkpt>
      <trkpt lat="45.11868" lon="5.59767">
        <ele>1389</ele>
        <time>2020-08-23T12:06:54Z</time>
      </trkpt>
      <trkpt lat="45.11874" lon="5.59771">
        <ele>1388.8</ele>
        <time>2020-08-23T12:06:55Z</time>
      </trkpt>
      <trkpt lat="45.11879" lon="5.59776">
        <ele>1388.8</ele>
        <time>2020-08-23T12:06:56Z</time>
      </trkpt>
      <trkpt lat="45.11884" lon="5.5978">
        <ele>1388.6</ele>
        <time>2020-08-23T12:06:57Z</time>
      </trkpt>
      <trkpt lat="45.11888" lon="5.59784">
        <ele>1388.4</ele>
        <time>2020-08-23T12:06:58Z</time>
      </trkpt>
      <trkpt lat="45.11891" lon="5.59787">
        <ele>1388.4</ele>
        <time>2020-08-23T12:06:59Z</time>
      </trkpt>
      <trkpt lat="45.11894" lon="5.59789">
        <ele>1388.4</ele>
        <time>2020-08-23T12:07:00Z</time>
      </trkpt>
      <trkpt lat="45.11895" lon="5.59792">
        <ele>1388.2</ele>
        <time>2020-08-23T12:07:01Z</time>
      </trkpt>
      <trkpt lat="45.11898" lon="5.59794">
        <ele>1388.2</ele>
        <time>2020-08-23T12:07:02Z</time>
      </trkpt>
      <trkpt lat="45.11899" lon="5.59796">
        <ele>1388.2</ele>
        <time>2020-08-23T12:07:03Z</time>
      </trkpt>
      <trkpt lat="45.119" lon="5.59797">
        <ele>1388.2</ele>
        <time>2020-08-23T12:07:04Z</time>
      </trkpt>
      <trkpt lat="45.119" lon="5.59797">
        <ele>1388.2</ele>
        <time>2020-08-23T12:07:05Z</time>
      </trkpt>
      <trkpt lat="45.11901" lon="5.59797">
        <ele>1388.2</ele>
        <time>2020-08-23T12:07:06Z</time>
      </trkpt>
      <trkpt lat="45.11901" lon="5.59797">
        <ele>1388.2</ele>
        <time>2020-08-23T12:07:07Z</time>
      </trkpt>
      <trkpt lat="45.11901" lon="5.59797">
        <ele>1388.2</ele>
        <time>2020-08-23T12:07:08Z</time>
      </trkpt>
      <trkpt lat="45.11905" lon="5.59789">
        <ele>1388.4</ele>
        <time>2020-08-23T12:07:14Z</time>
      </trkpt>
      <trkpt lat="45.11906" lon="5.59785">
        <ele>1388.4</ele>
        <time>2020-08-23T12:07:15Z</time>
      </trkpt>
      <trkpt lat="45.11907" lon="5.59783">
        <ele>1388.2</ele>
        <time>2020-08-23T12:07:16Z</time>
      </trkpt>
      <trkpt lat="45.11908" lon="5.59782">
        <ele>1388.2</ele>
        <time>2020-08-23T12:07:17Z</time>
      </trkpt>
      <trkpt lat="45.11908" lon="5.59782">
        <ele>1388.2</ele>
        <time>2020-08-23T12:07:18Z</time>
      </trkpt>
      <trkpt lat="45.11908" lon="5.59781">
        <ele>1388.2</ele>
        <time>2020-08-23T12:07:19Z</time>
      </trkpt>
      <trkpt lat="45.11908" lon="5.59781">
        <ele>1388.2</ele>
        <time>2020-08-23T12:07:20Z</time>
      </trkpt>
      <trkpt lat="45.11908" lon="5.59781">
        <ele>1388.2</ele>
        <time>2020-08-23T12:07:21Z</time>
      </trkpt>
      <trkpt lat="45.11908" lon="5.59781">
        <ele>1388.4</ele>
        <time>2020-08-23T12:07:22Z</time>
      </trkpt>
      <trkpt lat="45.11908" lon="5.59781">
        <ele>1388.4</ele>
        <time>2020-08-23T12:07:23Z</time>
      </trkpt>
      <trkpt lat="45.11908" lon="5.59781">
        <ele>1388.4</ele>
        <time>2020-08-23T12:07:24Z</time>
      </trkpt>
      <trkpt lat="45.11908" lon="5.59781">
        <ele>1388.6</ele>
        <time>2020-08-23T12:07:25Z</time>
      </trkpt>
      <trkpt lat="45.11908" lon="5.59781">
        <ele>1388.6</ele>
        <time>2020-08-23T12:07:26Z</time>
      </trkpt>
      <trkpt lat="45.11908" lon="5.59781">
        <ele>1388.6</ele>
        <time>2020-08-23T12:07:27Z</time>
      </trkpt>
      <trkpt lat="45.11908" lon="5.59781">
        <ele>1388.8</ele>
        <time>2020-08-23T12:07:28Z</time>
      </trkpt>
      <trkpt lat="45.11908" lon="5.59781">
        <ele>1388.8</ele>
        <time>2020-08-23T12:07:29Z</time>
      </trkpt>
      <trkpt lat="45.11908" lon="5.59781">
        <ele>1389</ele>
        <time>2020-08-23T12:07:30Z</time>
      </trkpt>
      <trkpt lat="45.11908" lon="5.59781">
        <ele>1389.2</ele>
        <time>2020-08-23T12:07:31Z</time>
      </trkpt>
      <trkpt lat="45.11908" lon="5.59781">
        <ele>1389.4</ele>
        <time>2020-08-23T12:07:32Z</time>
      </trkpt>
      <trkpt lat="45.11908" lon="5.59781">
        <ele>1389.6</ele>
        <time>2020-08-23T12:07:33Z</time>
      </trkpt>
      <trkpt lat="45.11908" lon="5.59781">
        <ele>1389.8</ele>
        <time>2020-08-23T12:07:34Z</time>
      </trkpt>
      <trkpt lat="45.11908" lon="5.59781">
        <ele>1389.8</ele>
        <time>2020-08-23T12:07:35Z</time>
      </trkpt>
      <trkpt lat="45.11908" lon="5.59781">
        <ele>1390</ele>
        <time>2020-08-23T12:07:36Z</time>
      </trkpt>
      <trkpt lat="45.11908" lon="5.59781">
        <ele>1390</ele>
        <time>2020-08-23T12:07:37Z</time>
      </trkpt>
      <trkpt lat="45.11907" lon="5.59791">
        <ele>1390.2</ele>
        <time>2020-08-23T12:07:38Z</time>
      </trkpt>
      <trkpt lat="45.11907" lon="5.59795">
        <ele>1390.2</ele>
        <time>2020-08-23T12:07:39Z</time>
      </trkpt>
      <trkpt lat="45.11908" lon="5.59796">
        <ele>1390.4</ele>
        <time>2020-08-23T12:07:40Z</time>
      </trkpt>
      <trkpt lat="45.11908" lon="5.59796">
        <ele>1390.4</ele>
        <time>2020-08-23T12:07:41Z</time>
      </trkpt>
      <trkpt lat="45.11909" lon="5.59797">
        <ele>1390.6</ele>
        <time>2020-08-23T12:07:42Z</time>
      </trkpt>
      <trkpt lat="45.1191" lon="5.59798">
        <ele>1390.6</ele>
        <time>2020-08-23T12:07:43Z</time>
      </trkpt>
      <trkpt lat="45.1191" lon="5.59798">
        <ele>1390.8</ele>
        <time>2020-08-23T12:07:44Z</time>
      </trkpt>
      <trkpt lat="45.1191" lon="5.59798">
        <ele>1390.8</ele>
        <time>2020-08-23T12:07:45Z</time>
      </trkpt>
      <trkpt lat="45.1191" lon="5.59798">
        <ele>1391</ele>
        <time>2020-08-23T12:07:46Z</time>
      </trkpt>
      <trkpt lat="45.1191" lon="5.59798">
        <ele>1391.2</ele>
        <time>2020-08-23T12:07:47Z</time>
      </trkpt>
      <trkpt lat="45.11914" lon="5.59797">
        <ele>1391.2</ele>
        <time>2020-08-23T12:07:48Z</time>
      </trkpt>
      <trkpt lat="45.11916" lon="5.59796">
        <ele>1391.4</ele>
        <time>2020-08-23T12:07:49Z</time>
      </trkpt>
      <trkpt lat="45.11917" lon="5.59796">
        <ele>1391.4</ele>
        <time>2020-08-23T12:07:50Z</time>
      </trkpt>
      <trkpt lat="45.11918" lon="5.59796">
        <ele>1391.6</ele>
        <time>2020-08-23T12:07:51Z</time>
      </trkpt>
      <trkpt lat="45.11921" lon="5.59796">
        <ele>1391.8</ele>
        <time>2020-08-23T12:07:52Z</time>
      </trkpt>
      <trkpt lat="45.11923" lon="5.59795">
        <ele>1391.8</ele>
        <time>2020-08-23T12:07:53Z</time>
      </trkpt>
      <trkpt lat="45.11924" lon="5.59795">
        <ele>1392</ele>
        <time>2020-08-23T12:07:54Z</time>
      </trkpt>
      <trkpt lat="45.11926" lon="5.59796">
        <ele>1392.2</ele>
        <time>2020-08-23T12:07:55Z</time>
      </trkpt>
      <trkpt lat="45.11929" lon="5.59796">
        <ele>1392.2</ele>
        <time>2020-08-23T12:07:56Z</time>
      </trkpt>
      <trkpt lat="45.11931" lon="5.59796">
        <ele>1392.4</ele>
        <time>2020-08-23T12:07:57Z</time>
      </trkpt>
      <trkpt lat="45.11933" lon="5.59794">
        <ele>1392.4</ele>
        <time>2020-08-23T12:07:58Z</time>
      </trkpt>
      <trkpt lat="45.11934" lon="5.59791">
        <ele>1392.4</ele>
        <time>2020-08-23T12:07:59Z</time>
      </trkpt>
      <trkpt lat="45.11935" lon="5.59788">
        <ele>1392.4</ele>
        <time>2020-08-23T12:08:00Z</time>
      </trkpt>
      <trkpt lat="45.11935" lon="5.59785">
        <ele>1392.6</ele>
        <time>2020-08-23T12:08:01Z</time>
      </trkpt>
      <trkpt lat="45.11937" lon="5.59783">
        <ele>1392.6</ele>
        <time>2020-08-23T12:08:02Z</time>
      </trkpt>
      <trkpt lat="45.11939" lon="5.59783">
        <ele>1392.8</ele>
        <time>2020-08-23T12:08:03Z</time>
      </trkpt>
      <trkpt lat="45.11941" lon="5.59784">
        <ele>1392.8</ele>
        <time>2020-08-23T12:08:04Z</time>
      </trkpt>
      <trkpt lat="45.11943" lon="5.59786">
        <ele>1393</ele>
        <time>2020-08-23T12:08:05Z</time>
      </trkpt>
      <trkpt lat="45.11945" lon="5.59787">
        <ele>1393.2</ele>
        <time>2020-08-23T12:08:06Z</time>
      </trkpt>
      <trkpt lat="45.11948" lon="5.59787">
        <ele>1393.2</ele>
        <time>2020-08-23T12:08:07Z</time>
      </trkpt>
      <trkpt lat="45.1195" lon="5.59787">
        <ele>1393.4</ele>
        <time>2020-08-23T12:08:08Z</time>
      </trkpt>
      <trkpt lat="45.11953" lon="5.59787">
        <ele>1393.4</ele>
        <time>2020-08-23T12:08:09Z</time>
      </trkpt>
      <trkpt lat="45.11955" lon="5.59787">
        <ele>1393.2</ele>
        <time>2020-08-23T12:08:10Z</time>
      </trkpt>
      <trkpt lat="45.11956" lon="5.59787">
        <ele>1393.4</ele>
        <time>2020-08-23T12:08:11Z</time>
      </trkpt>
      <trkpt lat="45.11957" lon="5.59785">
        <ele>1393.4</ele>
        <time>2020-08-23T12:08:12Z</time>
      </trkpt>
      <trkpt lat="45.11956" lon="5.59784">
        <ele>1393.4</ele>
        <time>2020-08-23T12:08:13Z</time>
      </trkpt>
      <trkpt lat="45.11955" lon="5.59782">
        <ele>1393.6</ele>
        <time>2020-08-23T12:08:14Z</time>
      </trkpt>
      <trkpt lat="45.11954" lon="5.5978">
        <ele>1393.6</ele>
        <time>2020-08-23T12:08:15Z</time>
      </trkpt>
      <trkpt lat="45.11952" lon="5.59779">
        <ele>1393.8</ele>
        <time>2020-08-23T12:08:16Z</time>
      </trkpt>
      <trkpt lat="45.1195" lon="5.59779">
        <ele>1393.8</ele>
        <time>2020-08-23T12:08:17Z</time>
      </trkpt>
      <trkpt lat="45.11948" lon="5.59779">
        <ele>1394</ele>
        <time>2020-08-23T12:08:18Z</time>
      </trkpt>
      <trkpt lat="45.11947" lon="5.59779">
        <ele>1394</ele>
        <time>2020-08-23T12:08:19Z</time>
      </trkpt>
      <trkpt lat="45.11946" lon="5.59778">
        <ele>1394.2</ele>
        <time>2020-08-23T12:08:20Z</time>
      </trkpt>
      <trkpt lat="45.11946" lon="5.59776">
        <ele>1394.2</ele>
        <time>2020-08-23T12:08:21Z</time>
      </trkpt>
      <trkpt lat="45.11945" lon="5.59773">
        <ele>1394.2</ele>
        <time>2020-08-23T12:08:22Z</time>
      </trkpt>
      <trkpt lat="45.11945" lon="5.59771">
        <ele>1394.2</ele>
        <time>2020-08-23T12:08:23Z</time>
      </trkpt>
      <trkpt lat="45.11946" lon="5.59768">
        <ele>1394.4</ele>
        <time>2020-08-23T12:08:24Z</time>
      </trkpt>
      <trkpt lat="45.11947" lon="5.59766">
        <ele>1394.4</ele>
        <time>2020-08-23T12:08:25Z</time>
      </trkpt>
      <trkpt lat="45.11948" lon="5.59764">
        <ele>1394.4</ele>
        <time>2020-08-23T12:08:26Z</time>
      </trkpt>
      <trkpt lat="45.1195" lon="5.59765">
        <ele>1394.4</ele>
        <time>2020-08-23T12:08:27Z</time>
      </trkpt>
      <trkpt lat="45.11952" lon="5.59765">
        <ele>1394.6</ele>
        <time>2020-08-23T12:08:28Z</time>
      </trkpt>
      <trkpt lat="45.11954" lon="5.59766">
        <ele>1394.6</ele>
        <time>2020-08-23T12:08:29Z</time>
      </trkpt>
      <trkpt lat="45.11956" lon="5.59765">
        <ele>1394.6</ele>
        <time>2020-08-23T12:08:30Z</time>
      </trkpt>
      <trkpt lat="45.11958" lon="5.59764">
        <ele>1394.6</ele>
        <time>2020-08-23T12:08:31Z</time>
      </trkpt>
      <trkpt lat="45.11959" lon="5.59763">
        <ele>1394.6</ele>
        <time>2020-08-23T12:08:32Z</time>
      </trkpt>
      <trkpt lat="45.11959" lon="5.59761">
        <ele>1394.6</ele>
        <time>2020-08-23T12:08:33Z</time>
      </trkpt>
      <trkpt lat="45.11959" lon="5.59759">
        <ele>1394.6</ele>
        <time>2020-08-23T12:08:34Z</time>
      </trkpt>
      <trkpt lat="45.11959" lon="5.59757">
        <ele>1394.6</ele>
        <time>2020-08-23T12:08:35Z</time>
      </trkpt>
      <trkpt lat="45.1196" lon="5.59756">
        <ele>1394.8</ele>
        <time>2020-08-23T12:08:36Z</time>
      </trkpt>
      <trkpt lat="45.11962" lon="5.59756">
        <ele>1394.8</ele>
        <time>2020-08-23T12:08:37Z</time>
      </trkpt>
      <trkpt lat="45.11964" lon="5.59756">
        <ele>1394.8</ele>
        <time>2020-08-23T12:08:38Z</time>
      </trkpt>
      <trkpt lat="45.11966" lon="5.59756">
        <ele>1394.8</ele>
        <time>2020-08-23T12:08:39Z</time>
      </trkpt>
      <trkpt lat="45.11968" lon="5.59756">
        <ele>1394.8</ele>
        <time>2020-08-23T12:08:40Z</time>
      </trkpt>
      <trkpt lat="45.1197" lon="5.59756">
        <ele>1394.8</ele>
        <time>2020-08-23T12:08:41Z</time>
      </trkpt>
      <trkpt lat="45.11972" lon="5.59755">
        <ele>1394.8</ele>
        <time>2020-08-23T12:08:42Z</time>
      </trkpt>
      <trkpt lat="45.11974" lon="5.59754">
        <ele>1394.8</ele>
        <time>2020-08-23T12:08:43Z</time>
      </trkpt>
      <trkpt lat="45.11975" lon="5.59752">
        <ele>1394.8</ele>
        <time>2020-08-23T12:08:44Z</time>
      </trkpt>
      <trkpt lat="45.11976" lon="5.5975">
        <ele>1394.8</ele>
        <time>2020-08-23T12:08:45Z</time>
      </trkpt>
      <trkpt lat="45.11975" lon="5.59747">
        <ele>1394.8</ele>
        <time>2020-08-23T12:08:46Z</time>
      </trkpt>
      <trkpt lat="45.11975" lon="5.59745">
        <ele>1394.6</ele>
        <time>2020-08-23T12:08:47Z</time>
      </trkpt>
      <trkpt lat="45.11976" lon="5.59743">
        <ele>1394.6</ele>
        <time>2020-08-23T12:08:48Z</time>
      </trkpt>
      <trkpt lat="45.11977" lon="5.59743">
        <ele>1394.6</ele>
        <time>2020-08-23T12:08:49Z</time>
      </trkpt>
      <trkpt lat="45.11978" lon="5.59743">
        <ele>1394.4</ele>
        <time>2020-08-23T12:08:50Z</time>
      </trkpt>
      <trkpt lat="45.11981" lon="5.59744">
        <ele>1394.4</ele>
        <time>2020-08-23T12:08:51Z</time>
      </trkpt>
      <trkpt lat="45.11984" lon="5.59745">
        <ele>1394.4</ele>
        <time>2020-08-23T12:08:52Z</time>
      </trkpt>
      <trkpt lat="45.11986" lon="5.59747">
        <ele>1394.4</ele>
        <time>2020-08-23T12:08:53Z</time>
      </trkpt>
      <trkpt lat="45.11988" lon="5.59749">
        <ele>1394.4</ele>
        <time>2020-08-23T12:08:54Z</time>
      </trkpt>
      <trkpt lat="45.11991" lon="5.59748">
        <ele>1394.4</ele>
        <time>2020-08-23T12:08:55Z</time>
      </trkpt>
      <trkpt lat="45.11992" lon="5.59747">
        <ele>1394.2</ele>
        <time>2020-08-23T12:08:56Z</time>
      </trkpt>
      <trkpt lat="45.11993" lon="5.59745">
        <ele>1394.2</ele>
        <time>2020-08-23T12:08:57Z</time>
      </trkpt>
      <trkpt lat="45.11992" lon="5.59743">
        <ele>1394.2</ele>
        <time>2020-08-23T12:08:58Z</time>
      </trkpt>
      <trkpt lat="45.11991" lon="5.5974">
        <ele>1394.2</ele>
        <time>2020-08-23T12:08:59Z</time>
      </trkpt>
      <trkpt lat="45.1199" lon="5.59738">
        <ele>1394.2</ele>
        <time>2020-08-23T12:09:00Z</time>
      </trkpt>
      <trkpt lat="45.11988" lon="5.59736">
        <ele>1394.2</ele>
        <time>2020-08-23T12:09:01Z</time>
      </trkpt>
      <trkpt lat="45.11987" lon="5.59733">
        <ele>1394.2</ele>
        <time>2020-08-23T12:09:02Z</time>
      </trkpt>
      <trkpt lat="45.11985" lon="5.59731">
        <ele>1394.2</ele>
        <time>2020-08-23T12:09:03Z</time>
      </trkpt>
      <trkpt lat="45.11983" lon="5.59728">
        <ele>1394.2</ele>
        <time>2020-08-23T12:09:04Z</time>
      </trkpt>
      <trkpt lat="45.11982" lon="5.59725">
        <ele>1394.2</ele>
        <time>2020-08-23T12:09:05Z</time>
      </trkpt>
      <trkpt lat="45.11981" lon="5.59722">
        <ele>1394.2</ele>
        <time>2020-08-23T12:09:06Z</time>
      </trkpt>
      <trkpt lat="45.11981" lon="5.59718">
        <ele>1394.2</ele>
        <time>2020-08-23T12:09:07Z</time>
      </trkpt>
      <trkpt lat="45.11981" lon="5.59714">
        <ele>1394</ele>
        <time>2020-08-23T12:09:08Z</time>
      </trkpt>
      <trkpt lat="45.1198" lon="5.59711">
        <ele>1394</ele>
        <time>2020-08-23T12:09:09Z</time>
      </trkpt>
      <trkpt lat="45.11979" lon="5.59708">
        <ele>1394</ele>
        <time>2020-08-23T12:09:10Z</time>
      </trkpt>
      <trkpt lat="45.11978" lon="5.59706">
        <ele>1393.8</ele>
        <time>2020-08-23T12:09:11Z</time>
      </trkpt>
      <trkpt lat="45.11976" lon="5.59704">
        <ele>1393.8</ele>
        <time>2020-08-23T12:09:12Z</time>
      </trkpt>
      <trkpt lat="45.11974" lon="5.59703">
        <ele>1393.6</ele>
        <time>2020-08-23T12:09:13Z</time>
      </trkpt>
      <trkpt lat="45.11972" lon="5.59701">
        <ele>1393.6</ele>
        <time>2020-08-23T12:09:14Z</time>
      </trkpt>
      <trkpt lat="45.11971" lon="5.59699">
        <ele>1393.6</ele>
        <time>2020-08-23T12:09:15Z</time>
      </trkpt>
      <trkpt lat="45.1197" lon="5.59697">
        <ele>1393.6</ele>
        <time>2020-08-23T12:09:16Z</time>
      </trkpt>
      <trkpt lat="45.11971" lon="5.59694">
        <ele>1393.6</ele>
        <time>2020-08-23T12:09:17Z</time>
      </trkpt>
      <trkpt lat="45.11972" lon="5.59693">
        <ele>1393.6</ele>
        <time>2020-08-23T12:09:18Z</time>
      </trkpt>
      <trkpt lat="45.11975" lon="5.59693">
        <ele>1393.4</ele>
        <time>2020-08-23T12:09:19Z</time>
      </trkpt>
      <trkpt lat="45.11977" lon="5.59693">
        <ele>1393.4</ele>
        <time>2020-08-23T12:09:20Z</time>
      </trkpt>
      <trkpt lat="45.1198" lon="5.59693">
        <ele>1393.2</ele>
        <time>2020-08-23T12:09:21Z</time>
      </trkpt>
      <trkpt lat="45.1198" lon="5.59693">
        <ele>1393.2</ele>
        <time>2020-08-23T12:09:22Z</time>
      </trkpt>
      <trkpt lat="45.1198" lon="5.59692">
        <ele>1393.2</ele>
        <time>2020-08-23T12:09:23Z</time>
      </trkpt>
      <trkpt lat="45.11981" lon="5.59692">
        <ele>1393.2</ele>
        <time>2020-08-23T12:09:24Z</time>
      </trkpt>
      <trkpt lat="45.11981" lon="5.59692">
        <ele>1393</ele>
        <time>2020-08-23T12:09:25Z</time>
      </trkpt>
      <trkpt lat="45.11981" lon="5.59692">
        <ele>1393</ele>
        <time>2020-08-23T12:09:26Z</time>
      </trkpt>
      <trkpt lat="45.11983" lon="5.59685">
        <ele>1392.6</ele>
        <time>2020-08-23T12:10:57Z</time>
      </trkpt>
      <trkpt lat="45.11984" lon="5.59685">
        <ele>1392.6</ele>
        <time>2020-08-23T12:10:58Z</time>
      </trkpt>
      <trkpt lat="45.11985" lon="5.59686">
        <ele>1392.4</ele>
        <time>2020-08-23T12:10:59Z</time>
      </trkpt>
      <trkpt lat="45.11987" lon="5.59687">
        <ele>1392.4</ele>
        <time>2020-08-23T12:11:00Z</time>
      </trkpt>
      <trkpt lat="45.11988" lon="5.59688">
        <ele>1392.2</ele>
        <time>2020-08-23T12:11:01Z</time>
      </trkpt>
      <trkpt lat="45.11991" lon="5.5969">
        <ele>1391.8</ele>
        <time>2020-08-23T12:11:02Z</time>
      </trkpt>
      <trkpt lat="45.11993" lon="5.59691">
        <ele>1391.6</ele>
        <time>2020-08-23T12:11:03Z</time>
      </trkpt>
      <trkpt lat="45.11996" lon="5.59693">
        <ele>1391.4</ele>
        <time>2020-08-23T12:11:04Z</time>
      </trkpt>
      <trkpt lat="45.11997" lon="5.59692">
        <ele>1391.2</ele>
        <time>2020-08-23T12:11:05Z</time>
      </trkpt>
      <trkpt lat="45.11998" lon="5.59692">
        <ele>1391</ele>
        <time>2020-08-23T12:11:06Z</time>
      </trkpt>
      <trkpt lat="45.11998" lon="5.5969">
        <ele>1390.8</ele>
        <time>2020-08-23T12:11:07Z</time>
      </trkpt>
      <trkpt lat="45.11997" lon="5.59689">
        <ele>1390.6</ele>
        <time>2020-08-23T12:11:08Z</time>
      </trkpt>
      <trkpt lat="45.11998" lon="5.59688">
        <ele>1390.4</ele>
        <time>2020-08-23T12:11:09Z</time>
      </trkpt>
      <trkpt lat="45.11999" lon="5.59688">
        <ele>1390.2</ele>
        <time>2020-08-23T12:11:10Z</time>
      </trkpt>
      <trkpt lat="45.12001" lon="5.59689">
        <ele>1389.8</ele>
        <time>2020-08-23T12:11:11Z</time>
      </trkpt>
      <trkpt lat="45.12003" lon="5.59689">
        <ele>1389.6</ele>
        <time>2020-08-23T12:11:12Z</time>
      </trkpt>
      <trkpt lat="45.12005" lon="5.59688">
        <ele>1389.4</ele>
        <time>2020-08-23T12:11:13Z</time>
      </trkpt>
      <trkpt lat="45.12005" lon="5.59686">
        <ele>1389.2</ele>
        <time>2020-08-23T12:11:14Z</time>
      </trkpt>
      <trkpt lat="45.12005" lon="5.59683">
        <ele>1389</ele>
        <time>2020-08-23T12:11:15Z</time>
      </trkpt>
      <trkpt lat="45.12005" lon="5.5968">
        <ele>1388.6</ele>
        <time>2020-08-23T12:11:16Z</time>
      </trkpt>
      <trkpt lat="45.12004" lon="5.59677">
        <ele>1388.6</ele>
        <time>2020-08-23T12:11:17Z</time>
      </trkpt>
      <trkpt lat="45.12002" lon="5.59674">
        <ele>1388.4</ele>
        <time>2020-08-23T12:11:18Z</time>
      </trkpt>
      <trkpt lat="45.12" lon="5.59671">
        <ele>1388.2</ele>
        <time>2020-08-23T12:11:19Z</time>
      </trkpt>
      <trkpt lat="45.11999" lon="5.59668">
        <ele>1388</ele>
        <time>2020-08-23T12:11:20Z</time>
      </trkpt>
      <trkpt lat="45.11997" lon="5.59665">
        <ele>1387.8</ele>
        <time>2020-08-23T12:11:21Z</time>
      </trkpt>
      <trkpt lat="45.11995" lon="5.59662">
        <ele>1387.8</ele>
        <time>2020-08-23T12:11:22Z</time>
      </trkpt>
      <trkpt lat="45.11994" lon="5.59658">
        <ele>1387.6</ele>
        <time>2020-08-23T12:11:23Z</time>
      </trkpt>
      <trkpt lat="45.11993" lon="5.59655">
        <ele>1387.4</ele>
        <time>2020-08-23T12:11:24Z</time>
      </trkpt>
      <trkpt lat="45.11993" lon="5.59653">
        <ele>1387.2</ele>
        <time>2020-08-23T12:11:25Z</time>
      </trkpt>
      <trkpt lat="45.11994" lon="5.59652">
        <ele>1387</ele>
        <time>2020-08-23T12:11:26Z</time>
      </trkpt>
      <trkpt lat="45.11995" lon="5.59653">
        <ele>1386.6</ele>
        <time>2020-08-23T12:11:27Z</time>
      </trkpt>
      <trkpt lat="45.11997" lon="5.59654">
        <ele>1386.4</ele>
        <time>2020-08-23T12:11:28Z</time>
      </trkpt>
      <trkpt lat="45.11999" lon="5.59656">
        <ele>1386.2</ele>
        <time>2020-08-23T12:11:29Z</time>
      </trkpt>
      <trkpt lat="45.12002" lon="5.59657">
        <ele>1386</ele>
        <time>2020-08-23T12:11:30Z</time>
      </trkpt>
      <trkpt lat="45.12003" lon="5.59657">
        <ele>1386</ele>
        <time>2020-08-23T12:11:31Z</time>
      </trkpt>
      <trkpt lat="45.12004" lon="5.59656">
        <ele>1385.8</ele>
        <time>2020-08-23T12:11:32Z</time>
      </trkpt>
      <trkpt lat="45.12003" lon="5.59654">
        <ele>1385.4</ele>
        <time>2020-08-23T12:11:33Z</time>
      </trkpt>
      <trkpt lat="45.12003" lon="5.59651">
        <ele>1385.4</ele>
        <time>2020-08-23T12:11:34Z</time>
      </trkpt>
      <trkpt lat="45.12001" lon="5.59649">
        <ele>1385.2</ele>
        <time>2020-08-23T12:11:35Z</time>
      </trkpt>
      <trkpt lat="45.12" lon="5.59645">
        <ele>1385</ele>
        <time>2020-08-23T12:11:36Z</time>
      </trkpt>
      <trkpt lat="45.11998" lon="5.59642">
        <ele>1384.8</ele>
        <time>2020-08-23T12:11:37Z</time>
      </trkpt>
      <trkpt lat="45.11997" lon="5.59638">
        <ele>1384.6</ele>
        <time>2020-08-23T12:11:38Z</time>
      </trkpt>
      <trkpt lat="45.11997" lon="5.59635">
        <ele>1384.2</ele>
        <time>2020-08-23T12:11:39Z</time>
      </trkpt>
      <trkpt lat="45.11996" lon="5.59631">
        <ele>1384</ele>
        <time>2020-08-23T12:11:40Z</time>
      </trkpt>
      <trkpt lat="45.11996" lon="5.59628">
        <ele>1383.8</ele>
        <time>2020-08-23T12:11:41Z</time>
      </trkpt>
      <trkpt lat="45.11996" lon="5.59625">
        <ele>1383.4</ele>
        <time>2020-08-23T12:11:42Z</time>
      </trkpt>
      <trkpt lat="45.11998" lon="5.59623">
        <ele>1383.2</ele>
        <time>2020-08-23T12:11:43Z</time>
      </trkpt>
      <trkpt lat="45.12" lon="5.59622">
        <ele>1383</ele>
        <time>2020-08-23T12:11:44Z</time>
      </trkpt>
      <trkpt lat="45.12002" lon="5.59621">
        <ele>1382.8</ele>
        <time>2020-08-23T12:11:45Z</time>
      </trkpt>
      <trkpt lat="45.12003" lon="5.59619">
        <ele>1382.6</ele>
        <time>2020-08-23T12:11:46Z</time>
      </trkpt>
      <trkpt lat="45.12003" lon="5.59616">
        <ele>1382.2</ele>
        <time>2020-08-23T12:11:47Z</time>
      </trkpt>
      <trkpt lat="45.12004" lon="5.59612">
        <ele>1381.8</ele>
        <time>2020-08-23T12:11:48Z</time>
      </trkpt>
      <trkpt lat="45.12003" lon="5.59609">
        <ele>1381.4</ele>
        <time>2020-08-23T12:11:49Z</time>
      </trkpt>
      <trkpt lat="45.12002" lon="5.59605">
        <ele>1381.2</ele>
        <time>2020-08-23T12:11:50Z</time>
      </trkpt>
      <trkpt lat="45.12001" lon="5.59601">
        <ele>1380.8</ele>
        <time>2020-08-23T12:11:51Z</time>
      </trkpt>
      <trkpt lat="45.12" lon="5.59598">
        <ele>1380.6</ele>
        <time>2020-08-23T12:11:52Z</time>
      </trkpt>
      <trkpt lat="45.12" lon="5.59595">
        <ele>1380.4</ele>
        <time>2020-08-23T12:11:53Z</time>
      </trkpt>
      <trkpt lat="45.12001" lon="5.59592">
        <ele>1380</ele>
        <time>2020-08-23T12:11:54Z</time>
      </trkpt>
      <trkpt lat="45.12002" lon="5.59589">
        <ele>1379.6</ele>
        <time>2020-08-23T12:11:55Z</time>
      </trkpt>
      <trkpt lat="45.12003" lon="5.59588">
        <ele>1379</ele>
        <time>2020-08-23T12:11:56Z</time>
      </trkpt>
      <trkpt lat="45.12005" lon="5.59587">
        <ele>1378.8</ele>
        <time>2020-08-23T12:11:57Z</time>
      </trkpt>
      <trkpt lat="45.12006" lon="5.59587">
        <ele>1378.4</ele>
        <time>2020-08-23T12:11:58Z</time>
      </trkpt>
      <trkpt lat="45.12007" lon="5.59588">
        <ele>1378.2</ele>
        <time>2020-08-23T12:11:59Z</time>
      </trkpt>
      <trkpt lat="45.12008" lon="5.59587">
        <ele>1377.8</ele>
        <time>2020-08-23T12:12:00Z</time>
      </trkpt>
      <trkpt lat="45.12009" lon="5.59586">
        <ele>1377.6</ele>
        <time>2020-08-23T12:12:01Z</time>
      </trkpt>
      <trkpt lat="45.12009" lon="5.59583">
        <ele>1377.2</ele>
        <time>2020-08-23T12:12:02Z</time>
      </trkpt>
      <trkpt lat="45.12009" lon="5.59581">
        <ele>1377</ele>
        <time>2020-08-23T12:12:03Z</time>
      </trkpt>
      <trkpt lat="45.1201" lon="5.59579">
        <ele>1376.6</ele>
        <time>2020-08-23T12:12:04Z</time>
      </trkpt>
      <trkpt lat="45.1201" lon="5.59576">
        <ele>1376.4</ele>
        <time>2020-08-23T12:12:05Z</time>
      </trkpt>
      <trkpt lat="45.1201" lon="5.59572">
        <ele>1376</ele>
        <time>2020-08-23T12:12:06Z</time>
      </trkpt>
      <trkpt lat="45.1201" lon="5.59569">
        <ele>1375.8</ele>
        <time>2020-08-23T12:12:07Z</time>
      </trkpt>
      <trkpt lat="45.12011" lon="5.59568">
        <ele>1375.4</ele>
        <time>2020-08-23T12:12:08Z</time>
      </trkpt>
      <trkpt lat="45.12013" lon="5.59567">
        <ele>1375.2</ele>
        <time>2020-08-23T12:12:09Z</time>
      </trkpt>
      <trkpt lat="45.12016" lon="5.59569">
        <ele>1374.8</ele>
        <time>2020-08-23T12:12:10Z</time>
      </trkpt>
      <trkpt lat="45.12019" lon="5.59571">
        <ele>1374.6</ele>
        <time>2020-08-23T12:12:11Z</time>
      </trkpt>
      <trkpt lat="45.12021" lon="5.59573">
        <ele>1374.2</ele>
        <time>2020-08-23T12:12:12Z</time>
      </trkpt>
      <trkpt lat="45.12024" lon="5.59574">
        <ele>1373.8</ele>
        <time>2020-08-23T12:12:13Z</time>
      </trkpt>
      <trkpt lat="45.12027" lon="5.59574">
        <ele>1373.4</ele>
        <time>2020-08-23T12:12:14Z</time>
      </trkpt>
      <trkpt lat="45.12027" lon="5.59572">
        <ele>1373.2</ele>
        <time>2020-08-23T12:12:15Z</time>
      </trkpt>
      <trkpt lat="45.12028" lon="5.59569">
        <ele>1372.8</ele>
        <time>2020-08-23T12:12:16Z</time>
      </trkpt>
      <trkpt lat="45.12029" lon="5.59565">
        <ele>1372.4</ele>
        <time>2020-08-23T12:12:17Z</time>
      </trkpt>
      <trkpt lat="45.12029" lon="5.5956">
        <ele>1372</ele>
        <time>2020-08-23T12:12:18Z</time>
      </trkpt>
      <trkpt lat="45.12029" lon="5.59555">
        <ele>1371.8</ele>
        <time>2020-08-23T12:12:19Z</time>
      </trkpt>
      <trkpt lat="45.1203" lon="5.5955">
        <ele>1371.4</ele>
        <time>2020-08-23T12:12:20Z</time>
      </trkpt>
      <trkpt lat="45.1203" lon="5.59546">
        <ele>1371.2</ele>
        <time>2020-08-23T12:12:21Z</time>
      </trkpt>
      <trkpt lat="45.12031" lon="5.59544">
        <ele>1370.8</ele>
        <time>2020-08-23T12:12:22Z</time>
      </trkpt>
      <trkpt lat="45.12032" lon="5.59544">
        <ele>1370.4</ele>
        <time>2020-08-23T12:12:23Z</time>
      </trkpt>
      <trkpt lat="45.12034" lon="5.59544">
        <ele>1370</ele>
        <time>2020-08-23T12:12:24Z</time>
      </trkpt>
      <trkpt lat="45.12036" lon="5.59542">
        <ele>1369.4</ele>
        <time>2020-08-23T12:12:25Z</time>
      </trkpt>
      <trkpt lat="45.12037" lon="5.5954">
        <ele>1369</ele>
        <time>2020-08-23T12:12:26Z</time>
      </trkpt>
      <trkpt lat="45.12038" lon="5.59536">
        <ele>1368.8</ele>
        <time>2020-08-23T12:12:27Z</time>
      </trkpt>
      <trkpt lat="45.12039" lon="5.59532">
        <ele>1368.4</ele>
        <time>2020-08-23T12:12:28Z</time>
      </trkpt>
      <trkpt lat="45.12041" lon="5.59529">
        <ele>1368</ele>
        <time>2020-08-23T12:12:29Z</time>
      </trkpt>
      <trkpt lat="45.12042" lon="5.59527">
        <ele>1367.6</ele>
        <time>2020-08-23T12:12:30Z</time>
      </trkpt>
      <trkpt lat="45.12043" lon="5.59527">
        <ele>1367.2</ele>
        <time>2020-08-23T12:12:31Z</time>
      </trkpt>
      <trkpt lat="45.12045" lon="5.59528">
        <ele>1366.6</ele>
        <time>2020-08-23T12:12:32Z</time>
      </trkpt>
      <trkpt lat="45.12046" lon="5.59529">
        <ele>1366.2</ele>
        <time>2020-08-23T12:12:33Z</time>
      </trkpt>
      <trkpt lat="45.12047" lon="5.59531">
        <ele>1365.8</ele>
        <time>2020-08-23T12:12:34Z</time>
      </trkpt>
      <trkpt lat="45.12048" lon="5.5953">
        <ele>1365.6</ele>
        <time>2020-08-23T12:12:35Z</time>
      </trkpt>
      <trkpt lat="45.1205" lon="5.59528">
        <ele>1365.2</ele>
        <time>2020-08-23T12:12:36Z</time>
      </trkpt>
      <trkpt lat="45.1205" lon="5.59525">
        <ele>1364.8</ele>
        <time>2020-08-23T12:12:37Z</time>
      </trkpt>
      <trkpt lat="45.1205" lon="5.59521">
        <ele>1364.4</ele>
        <time>2020-08-23T12:12:38Z</time>
      </trkpt>
      <trkpt lat="45.12051" lon="5.59517">
        <ele>1364</ele>
        <time>2020-08-23T12:12:39Z</time>
      </trkpt>
      <trkpt lat="45.12053" lon="5.59516">
        <ele>1363.8</ele>
        <time>2020-08-23T12:12:40Z</time>
      </trkpt>
      <trkpt lat="45.12055" lon="5.59515">
        <ele>1363.2</ele>
        <time>2020-08-23T12:12:41Z</time>
      </trkpt>
      <trkpt lat="45.12058" lon="5.59515">
        <ele>1362.8</ele>
        <time>2020-08-23T12:12:42Z</time>
      </trkpt>
      <trkpt lat="45.1206" lon="5.59518">
        <ele>1362.4</ele>
        <time>2020-08-23T12:12:43Z</time>
      </trkpt>
      <trkpt lat="45.12062" lon="5.5952">
        <ele>1362.2</ele>
        <time>2020-08-23T12:12:44Z</time>
      </trkpt>
      <trkpt lat="45.12064" lon="5.59521">
        <ele>1361.6</ele>
        <time>2020-08-23T12:12:45Z</time>
      </trkpt>
      <trkpt lat="45.12066" lon="5.59521">
        <ele>1361.2</ele>
        <time>2020-08-23T12:12:46Z</time>
      </trkpt>
      <trkpt lat="45.12066" lon="5.59517">
        <ele>1360.8</ele>
        <time>2020-08-23T12:12:47Z</time>
      </trkpt>
      <trkpt lat="45.12066" lon="5.59513">
        <ele>1360.4</ele>
        <time>2020-08-23T12:12:48Z</time>
      </trkpt>
      <trkpt lat="45.12067" lon="5.59511">
        <ele>1360.2</ele>
        <time>2020-08-23T12:12:49Z</time>
      </trkpt>
      <trkpt lat="45.12068" lon="5.5951">
        <ele>1359.8</ele>
        <time>2020-08-23T12:12:50Z</time>
      </trkpt>
      <trkpt lat="45.1207" lon="5.59508">
        <ele>1359.2</ele>
        <time>2020-08-23T12:12:51Z</time>
      </trkpt>
      <trkpt lat="45.12071" lon="5.59508">
        <ele>1358.8</ele>
        <time>2020-08-23T12:12:52Z</time>
      </trkpt>
      <trkpt lat="45.12072" lon="5.59508">
        <ele>1358.6</ele>
        <time>2020-08-23T12:12:53Z</time>
      </trkpt>
      <trkpt lat="45.12073" lon="5.59507">
        <ele>1358.2</ele>
        <time>2020-08-23T12:12:54Z</time>
      </trkpt>
      <trkpt lat="45.12074" lon="5.59506">
        <ele>1357.8</ele>
        <time>2020-08-23T12:12:55Z</time>
      </trkpt>
      <trkpt lat="45.12074" lon="5.59506">
        <ele>1357.4</ele>
        <time>2020-08-23T12:12:56Z</time>
      </trkpt>
      <trkpt lat="45.12074" lon="5.59506">
        <ele>1357.2</ele>
        <time>2020-08-23T12:12:57Z</time>
      </trkpt>
      <trkpt lat="45.12074" lon="5.59506">
        <ele>1356.8</ele>
        <time>2020-08-23T12:12:58Z</time>
      </trkpt>
      <trkpt lat="45.12074" lon="5.59506">
        <ele>1356.4</ele>
        <time>2020-08-23T12:12:59Z</time>
      </trkpt>
      <trkpt lat="45.12074" lon="5.59506">
        <ele>1356</ele>
        <time>2020-08-23T12:13:00Z</time>
      </trkpt>
      <trkpt lat="45.12074" lon="5.59506">
        <ele>1355.6</ele>
        <time>2020-08-23T12:13:01Z</time>
      </trkpt>
      <trkpt lat="45.12075" lon="5.59505">
        <ele>1353.4</ele>
        <time>2020-08-23T12:13:46Z</time>
      </trkpt>
      <trkpt lat="45.12077" lon="5.59504">
        <ele>1353.4</ele>
        <time>2020-08-23T12:13:47Z</time>
      </trkpt>
      <trkpt lat="45.12079" lon="5.59504">
        <ele>1353.4</ele>
        <time>2020-08-23T12:13:48Z</time>
      </trkpt>
      <trkpt lat="45.12081" lon="5.59504">
        <ele>1353</ele>
        <time>2020-08-23T12:13:49Z</time>
      </trkpt>
      <trkpt lat="45.12085" lon="5.59504">
        <ele>1352.8</ele>
        <time>2020-08-23T12:13:50Z</time>
      </trkpt>
      <trkpt lat="45.12087" lon="5.59505">
        <ele>1352.4</ele>
        <time>2020-08-23T12:13:51Z</time>
      </trkpt>
      <trkpt lat="45.1209" lon="5.59505">
        <ele>1352.2</ele>
        <time>2020-08-23T12:13:52Z</time>
      </trkpt>
      <trkpt lat="45.12091" lon="5.59506">
        <ele>1351.8</ele>
        <time>2020-08-23T12:13:53Z</time>
      </trkpt>
      <trkpt lat="45.12091" lon="5.59506">
        <ele>1351.4</ele>
        <time>2020-08-23T12:13:54Z</time>
      </trkpt>
      <trkpt lat="45.12091" lon="5.59506">
        <ele>1351</ele>
        <time>2020-08-23T12:13:55Z</time>
      </trkpt>
      <trkpt lat="45.12092" lon="5.59507">
        <ele>1350.6</ele>
        <time>2020-08-23T12:13:56Z</time>
      </trkpt>
      <trkpt lat="45.12092" lon="5.59507">
        <ele>1350.2</ele>
        <time>2020-08-23T12:13:57Z</time>
      </trkpt>
      <trkpt lat="45.12093" lon="5.59509">
        <ele>1350</ele>
        <time>2020-08-23T12:13:58Z</time>
      </trkpt>
      <trkpt lat="45.12094" lon="5.59511">
        <ele>1349.6</ele>
        <time>2020-08-23T12:13:59Z</time>
      </trkpt>
      <trkpt lat="45.12095" lon="5.59512">
        <ele>1349.2</ele>
        <time>2020-08-23T12:14:00Z</time>
      </trkpt>
      <trkpt lat="45.12097" lon="5.59514">
        <ele>1348.8</ele>
        <time>2020-08-23T12:14:01Z</time>
      </trkpt>
      <trkpt lat="45.121" lon="5.59515">
        <ele>1348.4</ele>
        <time>2020-08-23T12:14:02Z</time>
      </trkpt>
      <trkpt lat="45.12104" lon="5.59516">
        <ele>1348</ele>
        <time>2020-08-23T12:14:03Z</time>
      </trkpt>
      <trkpt lat="45.12108" lon="5.59518">
        <ele>1347.6</ele>
        <time>2020-08-23T12:14:04Z</time>
      </trkpt>
      <trkpt lat="45.12112" lon="5.59521">
        <ele>1347.2</ele>
        <time>2020-08-23T12:14:05Z</time>
      </trkpt>
      <trkpt lat="45.12115" lon="5.59523">
        <ele>1346.8</ele>
        <time>2020-08-23T12:14:06Z</time>
      </trkpt>
      <trkpt lat="45.12118" lon="5.59526">
        <ele>1346.2</ele>
        <time>2020-08-23T12:14:07Z</time>
      </trkpt>
      <trkpt lat="45.1212" lon="5.59528">
        <ele>1345.6</ele>
        <time>2020-08-23T12:14:08Z</time>
      </trkpt>
      <trkpt lat="45.12123" lon="5.59528">
        <ele>1345.2</ele>
        <time>2020-08-23T12:14:09Z</time>
      </trkpt>
      <trkpt lat="45.12125" lon="5.59528">
        <ele>1344.6</ele>
        <time>2020-08-23T12:14:10Z</time>
      </trkpt>
      <trkpt lat="45.12127" lon="5.59529">
        <ele>1344.2</ele>
        <time>2020-08-23T12:14:11Z</time>
      </trkpt>
      <trkpt lat="45.12129" lon="5.59532">
        <ele>1343.8</ele>
        <time>2020-08-23T12:14:12Z</time>
      </trkpt>
      <trkpt lat="45.1213" lon="5.59534">
        <ele>1343.4</ele>
        <time>2020-08-23T12:14:13Z</time>
      </trkpt>
      <trkpt lat="45.12131" lon="5.59538">
        <ele>1343</ele>
        <time>2020-08-23T12:14:14Z</time>
      </trkpt>
      <trkpt lat="45.12132" lon="5.5954">
        <ele>1342.6</ele>
        <time>2020-08-23T12:14:15Z</time>
      </trkpt>
      <trkpt lat="45.12134" lon="5.59541">
        <ele>1342.2</ele>
        <time>2020-08-23T12:14:16Z</time>
      </trkpt>
      <trkpt lat="45.12135" lon="5.5954">
        <ele>1341.8</ele>
        <time>2020-08-23T12:14:17Z</time>
      </trkpt>
      <trkpt lat="45.12136" lon="5.59537">
        <ele>1341.6</ele>
        <time>2020-08-23T12:14:18Z</time>
      </trkpt>
      <trkpt lat="45.12137" lon="5.59534">
        <ele>1341.2</ele>
        <time>2020-08-23T12:14:19Z</time>
      </trkpt>
      <trkpt lat="45.12138" lon="5.59529">
        <ele>1340.8</ele>
        <time>2020-08-23T12:14:20Z</time>
      </trkpt>
      <trkpt lat="45.12138" lon="5.59525">
        <ele>1340.4</ele>
        <time>2020-08-23T12:14:21Z</time>
      </trkpt>
      <trkpt lat="45.1214" lon="5.59523">
        <ele>1340</ele>
        <time>2020-08-23T12:14:22Z</time>
      </trkpt>
      <trkpt lat="45.12141" lon="5.59522">
        <ele>1339.6</ele>
        <time>2020-08-23T12:14:23Z</time>
      </trkpt>
      <trkpt lat="45.12142" lon="5.59523">
        <ele>1339</ele>
        <time>2020-08-23T12:14:24Z</time>
      </trkpt>
      <trkpt lat="45.12144" lon="5.59524">
        <ele>1338.6</ele>
        <time>2020-08-23T12:14:25Z</time>
      </trkpt>
      <trkpt lat="45.12146" lon="5.59525">
        <ele>1338.2</ele>
        <time>2020-08-23T12:14:26Z</time>
      </trkpt>
      <trkpt lat="45.12148" lon="5.59526">
        <ele>1337.8</ele>
        <time>2020-08-23T12:14:27Z</time>
      </trkpt>
      <trkpt lat="45.12151" lon="5.59527">
        <ele>1337.4</ele>
        <time>2020-08-23T12:14:28Z</time>
      </trkpt>
      <trkpt lat="45.12154" lon="5.59527">
        <ele>1337</ele>
        <time>2020-08-23T12:14:29Z</time>
      </trkpt>
      <trkpt lat="45.12157" lon="5.59526">
        <ele>1336.4</ele>
        <time>2020-08-23T12:14:30Z</time>
      </trkpt>
      <trkpt lat="45.12159" lon="5.59525">
        <ele>1336</ele>
        <time>2020-08-23T12:14:31Z</time>
      </trkpt>
      <trkpt lat="45.12162" lon="5.59525">
        <ele>1335.6</ele>
        <time>2020-08-23T12:14:32Z</time>
      </trkpt>
      <trkpt lat="45.12164" lon="5.59524">
        <ele>1335</ele>
        <time>2020-08-23T12:14:33Z</time>
      </trkpt>
      <trkpt lat="45.12166" lon="5.59526">
        <ele>1334.4</ele>
        <time>2020-08-23T12:14:34Z</time>
      </trkpt>
      <trkpt lat="45.12168" lon="5.59528">
        <ele>1334</ele>
        <time>2020-08-23T12:14:35Z</time>
      </trkpt>
      <trkpt lat="45.12169" lon="5.59531">
        <ele>1333.4</ele>
        <time>2020-08-23T12:14:36Z</time>
      </trkpt>
      <trkpt lat="45.12171" lon="5.59531">
        <ele>1333</ele>
        <time>2020-08-23T12:14:37Z</time>
      </trkpt>
      <trkpt lat="45.12174" lon="5.5953">
        <ele>1332.4</ele>
        <time>2020-08-23T12:14:38Z</time>
      </trkpt>
      <trkpt lat="45.12175" lon="5.59529">
        <ele>1332</ele>
        <time>2020-08-23T12:14:39Z</time>
      </trkpt>
      <trkpt lat="45.12176" lon="5.59527">
        <ele>1331.6</ele>
        <time>2020-08-23T12:14:40Z</time>
      </trkpt>
      <trkpt lat="45.12176" lon="5.59525">
        <ele>1331.2</ele>
        <time>2020-08-23T12:14:41Z</time>
      </trkpt>
      <trkpt lat="45.12177" lon="5.59521">
        <ele>1330.6</ele>
        <time>2020-08-23T12:14:42Z</time>
      </trkpt>
      <trkpt lat="45.12176" lon="5.59518">
        <ele>1330.2</ele>
        <time>2020-08-23T12:14:43Z</time>
      </trkpt>
      <trkpt lat="45.12175" lon="5.59515">
        <ele>1329.6</ele>
        <time>2020-08-23T12:14:44Z</time>
      </trkpt>
      <trkpt lat="45.12175" lon="5.59511">
        <ele>1329.2</ele>
        <time>2020-08-23T12:14:45Z</time>
      </trkpt>
      <trkpt lat="45.12175" lon="5.59508">
        <ele>1328.8</ele>
        <time>2020-08-23T12:14:46Z</time>
      </trkpt>
      <trkpt lat="45.12175" lon="5.59506">
        <ele>1328.2</ele>
        <time>2020-08-23T12:14:47Z</time>
      </trkpt>
      <trkpt lat="45.12174" lon="5.59504">
        <ele>1327.8</ele>
        <time>2020-08-23T12:14:48Z</time>
      </trkpt>
      <trkpt lat="45.12173" lon="5.59503">
        <ele>1327.4</ele>
        <time>2020-08-23T12:14:49Z</time>
      </trkpt>
      <trkpt lat="45.12172" lon="5.59501">
        <ele>1327</ele>
        <time>2020-08-23T12:14:50Z</time>
      </trkpt>
      <trkpt lat="45.12171" lon="5.59499">
        <ele>1326.8</ele>
        <time>2020-08-23T12:14:51Z</time>
      </trkpt>
      <trkpt lat="45.1217" lon="5.59497">
        <ele>1326.4</ele>
        <time>2020-08-23T12:14:52Z</time>
      </trkpt>
      <trkpt lat="45.12169" lon="5.59495">
        <ele>1326</ele>
        <time>2020-08-23T12:14:53Z</time>
      </trkpt>
      <trkpt lat="45.12169" lon="5.59492">
        <ele>1325.6</ele>
        <time>2020-08-23T12:14:54Z</time>
      </trkpt>
      <trkpt lat="45.12168" lon="5.59489">
        <ele>1325.2</ele>
        <time>2020-08-23T12:14:55Z</time>
      </trkpt>
      <trkpt lat="45.12167" lon="5.59486">
        <ele>1324.6</ele>
        <time>2020-08-23T12:14:56Z</time>
      </trkpt>
      <trkpt lat="45.12166" lon="5.59482">
        <ele>1324.2</ele>
        <time>2020-08-23T12:14:57Z</time>
      </trkpt>
      <trkpt lat="45.12165" lon="5.59478">
        <ele>1323.8</ele>
        <time>2020-08-23T12:14:58Z</time>
      </trkpt>
      <trkpt lat="45.12164" lon="5.59474">
        <ele>1323.2</ele>
        <time>2020-08-23T12:14:59Z</time>
      </trkpt>
      <trkpt lat="45.12162" lon="5.59469">
        <ele>1322.8</ele>
        <time>2020-08-23T12:15:00Z</time>
      </trkpt>
      <trkpt lat="45.12161" lon="5.59465">
        <ele>1322.2</ele>
        <time>2020-08-23T12:15:01Z</time>
      </trkpt>
      <trkpt lat="45.1216" lon="5.59461">
        <ele>1321.8</ele>
        <time>2020-08-23T12:15:02Z</time>
      </trkpt>
      <trkpt lat="45.12159" lon="5.59457">
        <ele>1321.4</ele>
        <time>2020-08-23T12:15:03Z</time>
      </trkpt>
      <trkpt lat="45.12159" lon="5.59453">
        <ele>1320.8</ele>
        <time>2020-08-23T12:15:04Z</time>
      </trkpt>
      <trkpt lat="45.12158" lon="5.59449">
        <ele>1320.4</ele>
        <time>2020-08-23T12:15:05Z</time>
      </trkpt>
      <trkpt lat="45.12157" lon="5.59446">
        <ele>1320</ele>
        <time>2020-08-23T12:15:06Z</time>
      </trkpt>
      <trkpt lat="45.12156" lon="5.59443">
        <ele>1319.6</ele>
        <time>2020-08-23T12:15:07Z</time>
      </trkpt>
      <trkpt lat="45.12155" lon="5.5944">
        <ele>1319</ele>
        <time>2020-08-23T12:15:08Z</time>
      </trkpt>
      <trkpt lat="45.12154" lon="5.59437">
        <ele>1318.6</ele>
        <time>2020-08-23T12:15:09Z</time>
      </trkpt>
      <trkpt lat="45.12153" lon="5.59434">
        <ele>1318.2</ele>
        <time>2020-08-23T12:15:10Z</time>
      </trkpt>
      <trkpt lat="45.12154" lon="5.59432">
        <ele>1317.8</ele>
        <time>2020-08-23T12:15:11Z</time>
      </trkpt>
      <trkpt lat="45.12154" lon="5.59432">
        <ele>1317.2</ele>
        <time>2020-08-23T12:15:12Z</time>
      </trkpt>
      <trkpt lat="45.12155" lon="5.59433">
        <ele>1316.8</ele>
        <time>2020-08-23T12:15:13Z</time>
      </trkpt>
      <trkpt lat="45.12156" lon="5.59432">
        <ele>1316.2</ele>
        <time>2020-08-23T12:15:14Z</time>
      </trkpt>
      <trkpt lat="45.12157" lon="5.59431">
        <ele>1315.8</ele>
        <time>2020-08-23T12:15:15Z</time>
      </trkpt>
      <trkpt lat="45.12158" lon="5.5943">
        <ele>1315.4</ele>
        <time>2020-08-23T12:15:16Z</time>
      </trkpt>
      <trkpt lat="45.12159" lon="5.5943">
        <ele>1314.8</ele>
        <time>2020-08-23T12:15:17Z</time>
      </trkpt>
      <trkpt lat="45.1216" lon="5.59431">
        <ele>1314.4</ele>
        <time>2020-08-23T12:15:18Z</time>
      </trkpt>
      <trkpt lat="45.12161" lon="5.59431">
        <ele>1313.8</ele>
        <time>2020-08-23T12:15:19Z</time>
      </trkpt>
      <trkpt lat="45.12162" lon="5.5943">
        <ele>1313.2</ele>
        <time>2020-08-23T12:15:20Z</time>
      </trkpt>
      <trkpt lat="45.12162" lon="5.59428">
        <ele>1312.8</ele>
        <time>2020-08-23T12:15:21Z</time>
      </trkpt>
      <trkpt lat="45.12163" lon="5.59426">
        <ele>1312.2</ele>
        <time>2020-08-23T12:15:22Z</time>
      </trkpt>
      <trkpt lat="45.12163" lon="5.59424">
        <ele>1311.6</ele>
        <time>2020-08-23T12:15:23Z</time>
      </trkpt>
      <trkpt lat="45.12164" lon="5.59423">
        <ele>1311</ele>
        <time>2020-08-23T12:15:24Z</time>
      </trkpt>
      <trkpt lat="45.12165" lon="5.59422">
        <ele>1310.6</ele>
        <time>2020-08-23T12:15:25Z</time>
      </trkpt>
      <trkpt lat="45.12166" lon="5.59424">
        <ele>1310.2</ele>
        <time>2020-08-23T12:15:26Z</time>
      </trkpt>
      <trkpt lat="45.12167" lon="5.59425">
        <ele>1309.6</ele>
        <time>2020-08-23T12:15:27Z</time>
      </trkpt>
      <trkpt lat="45.12168" lon="5.59426">
        <ele>1309.2</ele>
        <time>2020-08-23T12:15:28Z</time>
      </trkpt>
      <trkpt lat="45.12169" lon="5.59426">
        <ele>1308.6</ele>
        <time>2020-08-23T12:15:29Z</time>
      </trkpt>
      <trkpt lat="45.1217" lon="5.59424">
        <ele>1308</ele>
        <time>2020-08-23T12:15:30Z</time>
      </trkpt>
      <trkpt lat="45.12171" lon="5.59421">
        <ele>1307.4</ele>
        <time>2020-08-23T12:15:31Z</time>
      </trkpt>
      <trkpt lat="45.1217" lon="5.59419">
        <ele>1306.8</ele>
        <time>2020-08-23T12:15:32Z</time>
      </trkpt>
      <trkpt lat="45.1217" lon="5.59417">
        <ele>1306.2</ele>
        <time>2020-08-23T12:15:33Z</time>
      </trkpt>
      <trkpt lat="45.12169" lon="5.59416">
        <ele>1305.8</ele>
        <time>2020-08-23T12:15:34Z</time>
      </trkpt>
      <trkpt lat="45.12169" lon="5.59414">
        <ele>1305.4</ele>
        <time>2020-08-23T12:15:35Z</time>
      </trkpt>
      <trkpt lat="45.12169" lon="5.59412">
        <ele>1305</ele>
        <time>2020-08-23T12:15:36Z</time>
      </trkpt>
      <trkpt lat="45.1217" lon="5.59411">
        <ele>1304.4</ele>
        <time>2020-08-23T12:15:37Z</time>
      </trkpt>
      <trkpt lat="45.12172" lon="5.59411">
        <ele>1303.8</ele>
        <time>2020-08-23T12:15:38Z</time>
      </trkpt>
      <trkpt lat="45.12174" lon="5.59412">
        <ele>1303.2</ele>
        <time>2020-08-23T12:15:39Z</time>
      </trkpt>
      <trkpt lat="45.12175" lon="5.59413">
        <ele>1302.6</ele>
        <time>2020-08-23T12:15:40Z</time>
      </trkpt>
      <trkpt lat="45.12176" lon="5.59414">
        <ele>1302</ele>
        <time>2020-08-23T12:15:41Z</time>
      </trkpt>
      <trkpt lat="45.12177" lon="5.59415">
        <ele>1301.6</ele>
        <time>2020-08-23T12:15:42Z</time>
      </trkpt>
      <trkpt lat="45.12178" lon="5.59416">
        <ele>1301</ele>
        <time>2020-08-23T12:15:43Z</time>
      </trkpt>
      <trkpt lat="45.12178" lon="5.59416">
        <ele>1300.4</ele>
        <time>2020-08-23T12:15:44Z</time>
      </trkpt>
      <trkpt lat="45.1218" lon="5.59417">
        <ele>1299.8</ele>
        <time>2020-08-23T12:15:45Z</time>
      </trkpt>
      <trkpt lat="45.12182" lon="5.59417">
        <ele>1299.2</ele>
        <time>2020-08-23T12:15:46Z</time>
      </trkpt>
      <trkpt lat="45.12183" lon="5.59418">
        <ele>1298.6</ele>
        <time>2020-08-23T12:15:47Z</time>
      </trkpt>
      <trkpt lat="45.12183" lon="5.59418">
        <ele>1298</ele>
        <time>2020-08-23T12:15:48Z</time>
      </trkpt>
      <trkpt lat="45.12183" lon="5.59418">
        <ele>1297.6</ele>
        <time>2020-08-23T12:15:49Z</time>
      </trkpt>
      <trkpt lat="45.12184" lon="5.59418">
        <ele>1297</ele>
        <time>2020-08-23T12:15:50Z</time>
      </trkpt>
      <trkpt lat="45.12185" lon="5.59418">
        <ele>1296.4</ele>
        <time>2020-08-23T12:15:51Z</time>
      </trkpt>
      <trkpt lat="45.12185" lon="5.59418">
        <ele>1295.8</ele>
        <time>2020-08-23T12:15:52Z</time>
      </trkpt>
      <trkpt lat="45.12185" lon="5.59418">
        <ele>1295.4</ele>
        <time>2020-08-23T12:15:53Z</time>
      </trkpt>
      <trkpt lat="45.12185" lon="5.59418">
        <ele>1294.8</ele>
        <time>2020-08-23T12:15:54Z</time>
      </trkpt>
      <trkpt lat="45.12185" lon="5.59418">
        <ele>1294.2</ele>
        <time>2020-08-23T12:15:55Z</time>
      </trkpt>
      <trkpt lat="45.12185" lon="5.59418">
        <ele>1293.8</ele>
        <time>2020-08-23T12:15:56Z</time>
      </trkpt>
      <trkpt lat="45.12185" lon="5.59418">
        <ele>1293.2</ele>
        <time>2020-08-23T12:15:57Z</time>
      </trkpt>
      <trkpt lat="45.12185" lon="5.59418">
        <ele>1292.8</ele>
        <time>2020-08-23T12:15:58Z</time>
      </trkpt>
      <trkpt lat="45.12185" lon="5.59419">
        <ele>1289.6</ele>
        <time>2020-08-23T12:16:57Z</time>
      </trkpt>
      <trkpt lat="45.12186" lon="5.59419">
        <ele>1289.6</ele>
        <time>2020-08-23T12:16:58Z</time>
      </trkpt>
      <trkpt lat="45.12189" lon="5.5942">
        <ele>1289.4</ele>
        <time>2020-08-23T12:16:59Z</time>
      </trkpt>
      <trkpt lat="45.12191" lon="5.59422">
        <ele>1289</ele>
        <time>2020-08-23T12:17:00Z</time>
      </trkpt>
      <trkpt lat="45.12193" lon="5.59424">
        <ele>1288.6</ele>
        <time>2020-08-23T12:17:01Z</time>
      </trkpt>
      <trkpt lat="45.12195" lon="5.59426">
        <ele>1288</ele>
        <time>2020-08-23T12:17:02Z</time>
      </trkpt>
      <trkpt lat="45.12196" lon="5.59429">
        <ele>1287.6</ele>
        <time>2020-08-23T12:17:03Z</time>
      </trkpt>
      <trkpt lat="45.12198" lon="5.59431">
        <ele>1287.2</ele>
        <time>2020-08-23T12:17:04Z</time>
      </trkpt>
      <trkpt lat="45.12199" lon="5.59431">
        <ele>1286.6</ele>
        <time>2020-08-23T12:17:05Z</time>
      </trkpt>
      <trkpt lat="45.12201" lon="5.59431">
        <ele>1286.2</ele>
        <time>2020-08-23T12:17:06Z</time>
      </trkpt>
      <trkpt lat="45.12203" lon="5.59431">
        <ele>1285.6</ele>
        <time>2020-08-23T12:17:07Z</time>
      </trkpt>
      <trkpt lat="45.12205" lon="5.59431">
        <ele>1285</ele>
        <time>2020-08-23T12:17:08Z</time>
      </trkpt>
      <trkpt lat="45.12207" lon="5.59432">
        <ele>1284.6</ele>
        <time>2020-08-23T12:17:09Z</time>
      </trkpt>
      <trkpt lat="45.12209" lon="5.59432">
        <ele>1284.2</ele>
        <time>2020-08-23T12:17:10Z</time>
      </trkpt>
      <trkpt lat="45.12209" lon="5.59432">
        <ele>1283.6</ele>
        <time>2020-08-23T12:17:11Z</time>
      </trkpt>
      <trkpt lat="45.12209" lon="5.59433">
        <ele>1283</ele>
        <time>2020-08-23T12:17:12Z</time>
      </trkpt>
      <trkpt lat="45.12209" lon="5.59434">
        <ele>1282.6</ele>
        <time>2020-08-23T12:17:13Z</time>
      </trkpt>
      <trkpt lat="45.12209" lon="5.59436">
        <ele>1282.2</ele>
        <time>2020-08-23T12:17:14Z</time>
      </trkpt>
      <trkpt lat="45.1221" lon="5.59438">
        <ele>1281.6</ele>
        <time>2020-08-23T12:17:15Z</time>
      </trkpt>
      <trkpt lat="45.1221" lon="5.59441">
        <ele>1281.2</ele>
        <time>2020-08-23T12:17:16Z</time>
      </trkpt>
      <trkpt lat="45.12211" lon="5.59445">
        <ele>1280.8</ele>
        <time>2020-08-23T12:17:17Z</time>
      </trkpt>
      <trkpt lat="45.12211" lon="5.59448">
        <ele>1280.2</ele>
        <time>2020-08-23T12:17:18Z</time>
      </trkpt>
      <trkpt lat="45.12213" lon="5.59451">
        <ele>1279.8</ele>
        <time>2020-08-23T12:17:19Z</time>
      </trkpt>
      <trkpt lat="45.12215" lon="5.59453">
        <ele>1279.4</ele>
        <time>2020-08-23T12:17:20Z</time>
      </trkpt>
      <trkpt lat="45.12217" lon="5.59454">
        <ele>1278.8</ele>
        <time>2020-08-23T12:17:21Z</time>
      </trkpt>
      <trkpt lat="45.1222" lon="5.59454">
        <ele>1278.2</ele>
        <time>2020-08-23T12:17:22Z</time>
      </trkpt>
      <trkpt lat="45.12223" lon="5.59453">
        <ele>1277.8</ele>
        <time>2020-08-23T12:17:23Z</time>
      </trkpt>
      <trkpt lat="45.12227" lon="5.59454">
        <ele>1277.2</ele>
        <time>2020-08-23T12:17:24Z</time>
      </trkpt>
      <trkpt lat="45.1223" lon="5.59456">
        <ele>1276.8</ele>
        <time>2020-08-23T12:17:25Z</time>
      </trkpt>
      <trkpt lat="45.12233" lon="5.59459">
        <ele>1276.2</ele>
        <time>2020-08-23T12:17:26Z</time>
      </trkpt>
      <trkpt lat="45.12236" lon="5.59463">
        <ele>1276</ele>
        <time>2020-08-23T12:17:27Z</time>
      </trkpt>
      <trkpt lat="45.12241" lon="5.59468">
        <ele>1275.4</ele>
        <time>2020-08-23T12:17:28Z</time>
      </trkpt>
      <trkpt lat="45.12246" lon="5.59473">
        <ele>1274.8</ele>
        <time>2020-08-23T12:17:29Z</time>
      </trkpt>
      <trkpt lat="45.1225" lon="5.5948">
        <ele>1274.4</ele>
        <time>2020-08-23T12:17:30Z</time>
      </trkpt>
      <trkpt lat="45.12253" lon="5.59485">
        <ele>1274</ele>
        <time>2020-08-23T12:17:31Z</time>
      </trkpt>
      <trkpt lat="45.12256" lon="5.5949">
        <ele>1273.6</ele>
        <time>2020-08-23T12:17:32Z</time>
      </trkpt>
      <trkpt lat="45.1226" lon="5.59495">
        <ele>1273</ele>
        <time>2020-08-23T12:17:33Z</time>
      </trkpt>
      <trkpt lat="45.12264" lon="5.59501">
        <ele>1272.6</ele>
        <time>2020-08-23T12:17:34Z</time>
      </trkpt>
      <trkpt lat="45.12268" lon="5.59508">
        <ele>1272.2</ele>
        <time>2020-08-23T12:17:35Z</time>
      </trkpt>
      <trkpt lat="45.12273" lon="5.59514">
        <ele>1271.8</ele>
        <time>2020-08-23T12:17:36Z</time>
      </trkpt>
      <trkpt lat="45.12277" lon="5.5952">
        <ele>1271.6</ele>
        <time>2020-08-23T12:17:37Z</time>
      </trkpt>
      <trkpt lat="45.12281" lon="5.59525">
        <ele>1271.2</ele>
        <time>2020-08-23T12:17:38Z</time>
      </trkpt>
      <trkpt lat="45.12285" lon="5.59533">
        <ele>1270.8</ele>
        <time>2020-08-23T12:17:39Z</time>
      </trkpt>
      <trkpt lat="45.1229" lon="5.59543">
        <ele>1270.2</ele>
        <time>2020-08-23T12:17:40Z</time>
      </trkpt>
      <trkpt lat="45.12295" lon="5.59554">
        <ele>1269.8</ele>
        <time>2020-08-23T12:17:41Z</time>
      </trkpt>
      <trkpt lat="45.12299" lon="5.59565">
        <ele>1269.4</ele>
        <time>2020-08-23T12:17:42Z</time>
      </trkpt>
      <trkpt lat="45.12304" lon="5.59576">
        <ele>1269</ele>
        <time>2020-08-23T12:17:43Z</time>
      </trkpt>
      <trkpt lat="45.12307" lon="5.59583">
        <ele>1268.8</ele>
        <time>2020-08-23T12:17:44Z</time>
      </trkpt>
      <trkpt lat="45.1231" lon="5.59589">
        <ele>1268.4</ele>
        <time>2020-08-23T12:17:45Z</time>
      </trkpt>
      <trkpt lat="45.12315" lon="5.59594">
        <ele>1268</ele>
        <time>2020-08-23T12:17:46Z</time>
      </trkpt>
      <trkpt lat="45.12318" lon="5.596">
        <ele>1267.4</ele>
        <time>2020-08-23T12:17:47Z</time>
      </trkpt>
      <trkpt lat="45.1232" lon="5.59604">
        <ele>1267</ele>
        <time>2020-08-23T12:17:48Z</time>
      </trkpt>
      <trkpt lat="45.1232" lon="5.59609">
        <ele>1266.6</ele>
        <time>2020-08-23T12:17:49Z</time>
      </trkpt>
      <trkpt lat="45.12321" lon="5.59612">
        <ele>1266.2</ele>
        <time>2020-08-23T12:17:50Z</time>
      </trkpt>
      <trkpt lat="45.12322" lon="5.59615">
        <ele>1265.8</ele>
        <time>2020-08-23T12:17:51Z</time>
      </trkpt>
      <trkpt lat="45.12323" lon="5.59619">
        <ele>1265.4</ele>
        <time>2020-08-23T12:17:52Z</time>
      </trkpt>
      <trkpt lat="45.12323" lon="5.59621">
        <ele>1265</ele>
        <time>2020-08-23T12:17:53Z</time>
      </trkpt>
      <trkpt lat="45.12324" lon="5.59625">
        <ele>1264.6</ele>
        <time>2020-08-23T12:17:54Z</time>
      </trkpt>
      <trkpt lat="45.12324" lon="5.59627">
        <ele>1264.4</ele>
        <time>2020-08-23T12:17:55Z</time>
      </trkpt>
      <trkpt lat="45.12325" lon="5.5963">
        <ele>1263.8</ele>
        <time>2020-08-23T12:17:56Z</time>
      </trkpt>
      <trkpt lat="45.12326" lon="5.59633">
        <ele>1263.4</ele>
        <time>2020-08-23T12:17:57Z</time>
      </trkpt>
      <trkpt lat="45.12326" lon="5.59635">
        <ele>1263</ele>
        <time>2020-08-23T12:17:58Z</time>
      </trkpt>
      <trkpt lat="45.12327" lon="5.59637">
        <ele>1262.6</ele>
        <time>2020-08-23T12:17:59Z</time>
      </trkpt>
      <trkpt lat="45.12328" lon="5.59639">
        <ele>1262.2</ele>
        <time>2020-08-23T12:18:00Z</time>
      </trkpt>
      <trkpt lat="45.12328" lon="5.59641">
        <ele>1261.8</ele>
        <time>2020-08-23T12:18:01Z</time>
      </trkpt>
      <trkpt lat="45.1233" lon="5.59643">
        <ele>1261.4</ele>
        <time>2020-08-23T12:18:02Z</time>
      </trkpt>
      <trkpt lat="45.12332" lon="5.59645">
        <ele>1261</ele>
        <time>2020-08-23T12:18:03Z</time>
      </trkpt>
      <trkpt lat="45.12334" lon="5.59647">
        <ele>1260.4</ele>
        <time>2020-08-23T12:18:04Z</time>
      </trkpt>
      <trkpt lat="45.12336" lon="5.59649">
        <ele>1260</ele>
        <time>2020-08-23T12:18:05Z</time>
      </trkpt>
      <trkpt lat="45.12338" lon="5.59651">
        <ele>1259.6</ele>
        <time>2020-08-23T12:18:06Z</time>
      </trkpt>
      <trkpt lat="45.12341" lon="5.59651">
        <ele>1259.2</ele>
        <time>2020-08-23T12:18:07Z</time>
      </trkpt>
      <trkpt lat="45.12344" lon="5.59651">
        <ele>1258.8</ele>
        <time>2020-08-23T12:18:08Z</time>
      </trkpt>
      <trkpt lat="45.12346" lon="5.59652">
        <ele>1258.2</ele>
        <time>2020-08-23T12:18:09Z</time>
      </trkpt>
      <trkpt lat="45.12348" lon="5.59653">
        <ele>1257.8</ele>
        <time>2020-08-23T12:18:10Z</time>
      </trkpt>
      <trkpt lat="45.12351" lon="5.59653">
        <ele>1257.4</ele>
        <time>2020-08-23T12:18:11Z</time>
      </trkpt>
      <trkpt lat="45.12354" lon="5.59653">
        <ele>1257</ele>
        <time>2020-08-23T12:18:12Z</time>
      </trkpt>
      <trkpt lat="45.12357" lon="5.59652">
        <ele>1256.6</ele>
        <time>2020-08-23T12:18:13Z</time>
      </trkpt>
      <trkpt lat="45.12359" lon="5.5965">
        <ele>1256</ele>
        <time>2020-08-23T12:18:14Z</time>
      </trkpt>
      <trkpt lat="45.12363" lon="5.59648">
        <ele>1255.6</ele>
        <time>2020-08-23T12:18:15Z</time>
      </trkpt>
      <trkpt lat="45.12367" lon="5.59646">
        <ele>1255</ele>
        <time>2020-08-23T12:18:16Z</time>
      </trkpt>
      <trkpt lat="45.12371" lon="5.59642">
        <ele>1254.6</ele>
        <time>2020-08-23T12:18:17Z</time>
      </trkpt>
      <trkpt lat="45.12375" lon="5.59637">
        <ele>1254</ele>
        <time>2020-08-23T12:18:18Z</time>
      </trkpt>
      <trkpt lat="45.12379" lon="5.59632">
        <ele>1253.4</ele>
        <time>2020-08-23T12:18:19Z</time>
      </trkpt>
      <trkpt lat="45.12383" lon="5.59629">
        <ele>1252.8</ele>
        <time>2020-08-23T12:18:20Z</time>
      </trkpt>
      <trkpt lat="45.12388" lon="5.59626">
        <ele>1252.2</ele>
        <time>2020-08-23T12:18:21Z</time>
      </trkpt>
      <trkpt lat="45.12394" lon="5.59625">
        <ele>1251.6</ele>
        <time>2020-08-23T12:18:22Z</time>
      </trkpt>
      <trkpt lat="45.124" lon="5.59624">
        <ele>1251</ele>
        <time>2020-08-23T12:18:23Z</time>
      </trkpt>
      <trkpt lat="45.12406" lon="5.59622">
        <ele>1250.6</ele>
        <time>2020-08-23T12:18:24Z</time>
      </trkpt>
      <trkpt lat="45.12412" lon="5.59619">
        <ele>1250</ele>
        <time>2020-08-23T12:18:25Z</time>
      </trkpt>
      <trkpt lat="45.1242" lon="5.59615">
        <ele>1249.4</ele>
        <time>2020-08-23T12:18:26Z</time>
      </trkpt>
      <trkpt lat="45.12427" lon="5.59611">
        <ele>1248.8</ele>
        <time>2020-08-23T12:18:27Z</time>
      </trkpt>
      <trkpt lat="45.12434" lon="5.59608">
        <ele>1248.2</ele>
        <time>2020-08-23T12:18:28Z</time>
      </trkpt>
      <trkpt lat="45.1244" lon="5.59604">
        <ele>1247.6</ele>
        <time>2020-08-23T12:18:29Z</time>
      </trkpt>
      <trkpt lat="45.12447" lon="5.59601">
        <ele>1247.2</ele>
        <time>2020-08-23T12:18:30Z</time>
      </trkpt>
      <trkpt lat="45.12453" lon="5.59598">
        <ele>1246.4</ele>
        <time>2020-08-23T12:18:31Z</time>
      </trkpt>
      <trkpt lat="45.12459" lon="5.59595">
        <ele>1245.8</ele>
        <time>2020-08-23T12:18:32Z</time>
      </trkpt>
      <trkpt lat="45.12465" lon="5.59594">
        <ele>1245</ele>
        <time>2020-08-23T12:18:33Z</time>
      </trkpt>
      <trkpt lat="45.12471" lon="5.59593">
        <ele>1244.2</ele>
        <time>2020-08-23T12:18:34Z</time>
      </trkpt>
      <trkpt lat="45.12478" lon="5.59594">
        <ele>1243.6</ele>
        <time>2020-08-23T12:18:35Z</time>
      </trkpt>
      <trkpt lat="45.12483" lon="5.59597">
        <ele>1243</ele>
        <time>2020-08-23T12:18:36Z</time>
      </trkpt>
      <trkpt lat="45.12489" lon="5.59601">
        <ele>1242.4</ele>
        <time>2020-08-23T12:18:37Z</time>
      </trkpt>
      <trkpt lat="45.12494" lon="5.59606">
        <ele>1241.8</ele>
        <time>2020-08-23T12:18:38Z</time>
      </trkpt>
      <trkpt lat="45.125" lon="5.59613">
        <ele>1241.4</ele>
        <time>2020-08-23T12:18:39Z</time>
      </trkpt>
      <trkpt lat="45.12506" lon="5.5962">
        <ele>1240.8</ele>
        <time>2020-08-23T12:18:40Z</time>
      </trkpt>
      <trkpt lat="45.12512" lon="5.59628">
        <ele>1240.2</ele>
        <time>2020-08-23T12:18:41Z</time>
      </trkpt>
      <trkpt lat="45.12518" lon="5.59636">
        <ele>1239.8</ele>
        <time>2020-08-23T12:18:42Z</time>
      </trkpt>
      <trkpt lat="45.12525" lon="5.59643">
        <ele>1239.2</ele>
        <time>2020-08-23T12:18:43Z</time>
      </trkpt>
      <trkpt lat="45.12532" lon="5.59648">
        <ele>1238.8</ele>
        <time>2020-08-23T12:18:44Z</time>
      </trkpt>
      <trkpt lat="45.12539" lon="5.59653">
        <ele>1238.2</ele>
        <time>2020-08-23T12:18:45Z</time>
      </trkpt>
      <trkpt lat="45.12547" lon="5.59656">
        <ele>1237.8</ele>
        <time>2020-08-23T12:18:46Z</time>
      </trkpt>
      <trkpt lat="45.12555" lon="5.59659">
        <ele>1237.2</ele>
        <time>2020-08-23T12:18:47Z</time>
      </trkpt>
      <trkpt lat="45.12562" lon="5.5966">
        <ele>1236.8</ele>
        <time>2020-08-23T12:18:48Z</time>
      </trkpt>
      <trkpt lat="45.12569" lon="5.5966">
        <ele>1236.4</ele>
        <time>2020-08-23T12:18:49Z</time>
      </trkpt>
      <trkpt lat="45.12576" lon="5.59657">
        <ele>1236</ele>
        <time>2020-08-23T12:18:50Z</time>
      </trkpt>
      <trkpt lat="45.12582" lon="5.59654">
        <ele>1235.6</ele>
        <time>2020-08-23T12:18:51Z</time>
      </trkpt>
      <trkpt lat="45.12589" lon="5.5965">
        <ele>1235</ele>
        <time>2020-08-23T12:18:52Z</time>
      </trkpt>
      <trkpt lat="45.12594" lon="5.59646">
        <ele>1234.8</ele>
        <time>2020-08-23T12:18:53Z</time>
      </trkpt>
      <trkpt lat="45.12598" lon="5.59642">
        <ele>1234.4</ele>
        <time>2020-08-23T12:18:54Z</time>
      </trkpt>
      <trkpt lat="45.12601" lon="5.59636">
        <ele>1233.8</ele>
        <time>2020-08-23T12:18:55Z</time>
      </trkpt>
      <trkpt lat="45.12603" lon="5.5963">
        <ele>1233.4</ele>
        <time>2020-08-23T12:18:56Z</time>
      </trkpt>
      <trkpt lat="45.12603" lon="5.59624">
        <ele>1233</ele>
        <time>2020-08-23T12:18:57Z</time>
      </trkpt>
      <trkpt lat="45.12603" lon="5.59618">
        <ele>1232.6</ele>
        <time>2020-08-23T12:18:58Z</time>
      </trkpt>
      <trkpt lat="45.12604" lon="5.59613">
        <ele>1232</ele>
        <time>2020-08-23T12:18:59Z</time>
      </trkpt>
      <trkpt lat="45.12605" lon="5.59608">
        <ele>1231.6</ele>
        <time>2020-08-23T12:19:00Z</time>
      </trkpt>
      <trkpt lat="45.12606" lon="5.59604">
        <ele>1231.2</ele>
        <time>2020-08-23T12:19:01Z</time>
      </trkpt>
      <trkpt lat="45.12609" lon="5.59601">
        <ele>1230.8</ele>
        <time>2020-08-23T12:19:02Z</time>
      </trkpt>
      <trkpt lat="45.12611" lon="5.596">
        <ele>1230.2</ele>
        <time>2020-08-23T12:19:03Z</time>
      </trkpt>
      <trkpt lat="45.12613" lon="5.596">
        <ele>1229.8</ele>
        <time>2020-08-23T12:19:04Z</time>
      </trkpt>
      <trkpt lat="45.12616" lon="5.596">
        <ele>1229.4</ele>
        <time>2020-08-23T12:19:05Z</time>
      </trkpt>
      <trkpt lat="45.12618" lon="5.596">
        <ele>1229</ele>
        <time>2020-08-23T12:19:06Z</time>
      </trkpt>
      <trkpt lat="45.12621" lon="5.59599">
        <ele>1228.6</ele>
        <time>2020-08-23T12:19:07Z</time>
      </trkpt>
      <trkpt lat="45.12624" lon="5.59598">
        <ele>1228</ele>
        <time>2020-08-23T12:19:08Z</time>
      </trkpt>
      <trkpt lat="45.12627" lon="5.59598">
        <ele>1227.6</ele>
        <time>2020-08-23T12:19:09Z</time>
      </trkpt>
      <trkpt lat="45.1263" lon="5.59598">
        <ele>1227.2</ele>
        <time>2020-08-23T12:19:10Z</time>
      </trkpt>
      <trkpt lat="45.12633" lon="5.59598">
        <ele>1226.6</ele>
        <time>2020-08-23T12:19:11Z</time>
      </trkpt>
      <trkpt lat="45.12729" lon="5.593">
        <ele>1024.2</ele>
      </trkpt>
      <trkpt lat="45.12804" lon="5.59009">
        <ele>1019.4</ele>
      </trkpt>
      <trkpt lat="45.12822" lon="5.58876">
        <ele>1016.5</ele>
      </trkpt>
      <trkpt lat="45.12861" lon="5.58877">
        <ele>1010.9</ele>
      </trkpt>
      <trkpt lat="45.12858" lon="5.58975">
        <ele>1012.6</ele>
      </trkpt>
      <trkpt lat="45.1287" lon="5.58967">
        <ele>1009.9</ele>
      </trkpt>
      <trkpt lat="45.12883" lon="5.58912">
        <ele>1004.8</ele>
      </trkpt>
      <trkpt lat="45.12917" lon="5.58851">
        <ele>1002.5</ele>
      </trkpt>
      <trkpt lat="45.12976" lon="5.58817">
        <ele>997</ele>
      </trkpt>
      <trkpt lat="45.13014" lon="5.58785">
        <ele>996.7</ele>
      </trkpt>
      <trkpt lat="45.13031" lon="5.58754">
        <ele>998.9</ele>
      </trkpt>
      <trkpt lat="45.13148" lon="5.58668">
        <ele>988.5</ele>
      </trkpt>
      <trkpt lat="45.13164" lon="5.58644">
        <ele>987.7</ele>
      </trkpt>
      <trkpt lat="45.13335" lon="5.58627">
        <ele>977.7</ele>
      </trkpt>
      <trkpt lat="45.13673" lon="5.58618">
        <ele>973.8</ele>
      </trkpt>
      <trkpt lat="45.13698" lon="5.58634">
        <ele>973.6</ele>
      </trkpt>
      <trkpt lat="45.13717" lon="5.58591">
        <ele>978.3</ele>
      </trkpt>
      <trkpt lat="45.13749" lon="5.58615">
        <ele>977.5</ele>
      </trkpt>
      <trkpt lat="45.1388" lon="5.58637">
        <ele>977.8</ele>
      </trkpt>
      <trkpt lat="45.14182" lon="5.58855">
        <ele>983.7</ele>
      </trkpt>
      <trkpt lat="45.14391" lon="5.59016">
        <ele>1005.9</ele>
      </trkpt>
      <trkpt lat="45.14552" lon="5.59121">
        <ele>1025.5</ele>
      </trkpt>
      <trkpt lat="45.14614" lon="5.59138">
        <ele>1032.7</ele>
      </trkpt>
      <trkpt lat="45.14623" lon="5.59172">
        <ele>1032.2</ele>
      </trkpt>
      <trkpt lat="45.14845" lon="5.59349">
        <ele>1044.7</ele>
      </trkpt>
      <trkpt lat="45.14974" lon="5.5948">
        <ele>1050.6</ele>
      </trkpt>
      <trkpt lat="45.15072" lon="5.59449">
        <ele>1060.1</ele>
      </trkpt>
      <trkpt lat="45.15181" lon="5.59548">
        <ele>1069.1</ele>
      </trkpt>
      <trkpt lat="45.15253" lon="5.59546">
        <ele>1081.1</ele>
      </trkpt>
      <trkpt lat="45.15272" lon="5.59614">
        <ele>1079.2</ele>
      </trkpt>
      <trkpt lat="45.15411" lon="5.59702">
        <ele>1096.6</ele>
      </trkpt>
      <trkpt lat="45.1547" lon="5.59668">
        <ele>1110.1</ele>
      </trkpt>
      <trkpt lat="45.15483" lon="5.59685">
        <ele>1110.9</ele>
      </trkpt>
      <trkpt lat="45.15473" lon="5.59767">
        <ele>1104</ele>
      </trkpt>
      <trkpt lat="45.1552" lon="5.5982">
        <ele>1112.7</ele>
      </trkpt>
      <trkpt lat="45.15541" lon="5.59818">
        <ele>1116.7</ele>
      </trkpt>
      <trkpt lat="45.15514" lon="5.59757">
        <ele>1113.2</ele>
      </trkpt>
      <trkpt lat="45.15527" lon="5.59696">
        <ele>1119.1</ele>
      </trkpt>
      <trkpt lat="45.15546" lon="5.59757">
        <ele>1120.7</ele>
      </trkpt>
      <trkpt lat="45.15604" lon="5.59777">
        <ele>1131.7</ele>
      </trkpt>
      <trkpt lat="45.15634" lon="5.59745">
        <ele>1139.3</ele>
      </trkpt>
      <trkpt lat="45.15691" lon="5.59753">
        <ele>1149.6</ele>
      </trkpt>
      <trkpt lat="45.15718" lon="5.59781">
        <ele>1154.1</ele>
      </trkpt>
      <trkpt lat="45.15704" lon="5.59804">
        <ele>1150.9</ele>
      </trkpt>
      <trkpt lat="45.15676" lon="5.59806">
        <ele>1144.8</ele>
      </trkpt>
      <trkpt lat="45.15769" lon="5.59908">
        <ele>1156.6</ele>
      </trkpt>
      <trkpt lat="45.15924" lon="5.59976">
        <ele>1175.3</ele>
      </trkpt>
      <trkpt lat="45.15983" lon="5.59971">
        <ele>1182.1</ele>
      </trkpt>
      <trkpt lat="45.16022" lon="5.60025">
        <ele>1180.5</ele>
      </trkpt>
      <trkpt lat="45.16083" lon="5.59971">
        <ele>1190.5</ele>
      </trkpt>
      <trkpt lat="45.16103" lon="5.59908">
        <ele>1199.7</ele>
      </trkpt>
      <trkpt lat="45.1615" lon="5.59896">
        <ele>1204.6</ele>
      </trkpt>
      <trkpt lat="45.16176" lon="5.59865">
        <ele>1209.9</ele>
      </trkpt>
      <trkpt lat="45.16158" lon="5.59828">
        <ele>1214.3</ele>
      </trkpt>
      <trkpt lat="45.16167" lon="5.59779">
        <ele>1221.9</ele>
      </trkpt>
      <trkpt lat="45.16185" lon="5.59769">
        <ele>1224.4</ele>
      </trkpt>
      <trkpt lat="45.16226" lon="5.5976">
        <ele>1228.1</ele>
      </trkpt>
      <trkpt lat="45.1627" lon="5.59704">
        <ele>1242.1</ele>
      </trkpt>
      <trkpt lat="45.16334" lon="5.59746">
        <ele>1243.8</ele>
      </trkpt>
      <trkpt lat="45.16382" lon="5.59746">
        <ele>1249.1</ele>
      </trkpt>
      <trkpt lat="45.16388" lon="5.59714">
        <ele>1256.6</ele>
      </trkpt>
      <trkpt lat="45.16323" lon="5.5962">
        <ele>1268.4</ele>
      </trkpt>
      <trkpt lat="45.16277" lon="5.59547">
        <ele>1284.4</ele>
      </trkpt>
      <trkpt lat="45.16243" lon="5.59538">
        <ele>1282.3</ele>
      </trkpt>
      <trkpt lat="45.16215" lon="5.59495">
        <ele>1289.9</ele>
      </trkpt>
      <trkpt lat="45.16163" lon="5.59414">
        <ele>1299.8</ele>
      </trkpt>
      <trkpt lat="45.16142" lon="5.5937">
        <ele>1309.3</ele>
      </trkpt>
      <trkpt lat="45.16123" lon="5.59311">
        <ele>1323.5</ele>
      </trkpt>
      <trkpt lat="45.16001" lon="5.59232">
        <ele>1312.5</ele>
      </trkpt>
      <trkpt lat="45.16011" lon="5.5921">
        <ele>1322.9</ele>
      </trkpt>
      <trkpt lat="45.16044" lon="5.59251">
        <ele>1319.9</ele>
      </trkpt>
      <trkpt lat="45.16143" lon="5.59224">
        <ele>1359.9</ele>
      </trkpt>
      <trkpt lat="45.16175" lon="5.5925">
        <ele>1359.6</ele>
      </trkpt>
      <trkpt lat="45.16196" lon="5.59277">
        <ele>1356.7</ele>
      </trkpt>
      <trkpt lat="45.16346" lon="5.59323">
        <ele>1377.4</ele>
      </trkpt>
      <trkpt lat="45.16397" lon="5.59329">
        <ele>1380.5</ele>
      </trkpt>
      <trkpt lat="45.16468" lon="5.59243">
        <ele>1396.3</ele>
      </trkpt>
      <trkpt lat="45.1648" lon="5.59145">
        <ele>1412.2</ele>
      </trkpt>
      <trkpt lat="45.16495" lon="5.59102">
        <ele>1410.5</ele>
      </trkpt>
      <trkpt lat="45.1648" lon="5.59064">
        <ele>1416.8</ele>
      </trkpt>
      <trkpt lat="45.1633" lon="5.58798">
        <ele>1450.6</ele>
      </trkpt>
      <trkpt lat="45.16291" lon="5.58759">
        <ele>1445.5</ele>
      </trkpt>
      <trkpt lat="45.16312" lon="5.58722">
        <ele>1457.9</ele>
      </trkpt>
      <trkpt lat="45.16344" lon="5.58727">
        <ele>1463.4</ele>
      </trkpt>
      <trkpt lat="45.16456" lon="5.58694">
        <ele>1491.1</ele>
      </trkpt>
      <trkpt lat="45.1648" lon="5.58669">
        <ele>1500.9</ele>
      </trkpt>
      <trkpt lat="45.16542" lon="5.58681">
        <ele>1508.4</ele>
      </trkpt>
      <trkpt lat="45.16613" lon="5.58642">
        <ele>1525.9</ele>
      </trkpt>
      <trkpt lat="45.16633" lon="5.58652">
        <ele>1527.7</ele>
      </trkpt>
      <trkpt lat="45.16772" lon="5.58647">
        <ele>1546.7</ele>
      </trkpt>
      <trkpt lat="45.1686" lon="5.58671">
        <ele>1554.9</ele>
      </trkpt>
      <trkpt lat="45.1691" lon="5.58677">
        <ele>1561.5</ele>
      </trkpt>
      <trkpt lat="45.16973" lon="5.58671">
        <ele>1568.3</ele>
      </trkpt>
      <trkpt lat="45.17021" lon="5.58703">
        <ele>1571.8</ele>
      </trkpt>
      <trkpt lat="45.171" lon="5.5866">
        <ele>1578</ele>
      </trkpt>
      <trkpt lat="45.17137" lon="5.58673">
        <ele>1582.3</ele>
      </trkpt>
      <trkpt lat="45.1718" lon="5.58664">
        <ele>1586.9</ele>
      </trkpt>
      <trkpt lat="45.17245" lon="5.58725">
        <ele>1590.2</ele>
      </trkpt>
      <trkpt lat="45.17286" lon="5.58747">
        <ele>1591.9</ele>
      </trkpt>
      <trkpt lat="45.17298" lon="5.5876">
        <ele>1592</ele>
      </trkpt>
      <trkpt lat="45.17337" lon="5.58762">
        <ele>1593.8</ele>
      </trkpt>
      <trkpt lat="45.17432" lon="5.58818">
        <ele>1594.2</ele>
      </trkpt>
      <trkpt lat="45.17553" lon="5.58889">
        <ele>1589.7</ele>
      </trkpt>
      <trkpt lat="45.17599" lon="5.58929">
        <ele>1588.2</ele>
      </trkpt>
      <trkpt lat="45.17627" lon="5.58927">
        <ele>1589.4</ele>
      </trkpt>
      <trkpt lat="45.17752" lon="5.58996">
        <ele>1579.3</ele>
      </trkpt>
      <trkpt lat="45.17893" lon="5.58986">
        <ele>1572.9</ele>
      </trkpt>
      <trkpt lat="45.17924" lon="5.59013">
        <ele>1569.3</ele>
      </trkpt>
      <trkpt lat="45.17949" lon="5.59006">
        <ele>1566.9</ele>
      </trkpt>
      <trkpt lat="45.18" lon="5.59036">
        <ele>1556.5</ele>
      </trkpt>
      <trkpt lat="45.18119" lon="5.5914">
        <ele>1559.8</ele>
      </trkpt>
      <trkpt lat="45.18145" lon="5.59138">
        <ele>1563.5</ele>
      </trkpt>
      <trkpt lat="45.18238" lon="5.59191">
        <ele>1564.9</ele>
      </trkpt>
      <trkpt lat="45.1829" lon="5.59246">
        <ele>1561.8</ele>
      </trkpt>
      <trkpt lat="45.18303" lon="5.59277">
        <ele>1563.4</ele>
      </trkpt>
      <trkpt lat="45.18344" lon="5.5929">
        <ele>1567.3</ele>
      </trkpt>
      <trkpt lat="45.18365" lon="5.59285">
        <ele>1567.8</ele>
      </trkpt>
      <trkpt lat="45.18487" lon="5.59475">
        <ele>1564</ele>
      </trkpt>
      <trkpt lat="45.18553" lon="5.59511">
        <ele>1563.7</ele>
      </trkpt>
      <trkpt lat="45.18769" lon="5.59551">
        <ele>1574.4</ele>
      </trkpt>
      <trkpt lat="45.18803" lon="5.59535">
        <ele>1577.8</ele>
      </trkpt>
      <trkpt lat="45.18837" lon="5.5955">
        <ele>1579.5</ele>
      </trkpt>
      <trkpt lat="45.18846" lon="5.59533">
        <ele>1581</ele>
      </trkpt>
      <trkpt lat="45.18842" lon="5.59477">
        <ele>1586.2</ele>
      </trkpt>
      <trkpt lat="45.18859" lon="5.59463">
        <ele>1588.6</ele>
      </trkpt>
      <trkpt lat="45.1891" lon="5.59448">
        <ele>1592.1</ele>
      </trkpt>
      <trkpt lat="45.18946" lon="5.59439">
        <ele>1593.9</ele>
      </trkpt>
      <trkpt lat="45.19001" lon="5.59396">
        <ele>1599.5</ele>
      </trkpt>
      <trkpt lat="45.19235" lon="5.59372">
        <ele>1612.9</ele>
      </trkpt>
      <trkpt lat="45.19502" lon="5.59377">
        <ele>1621.7</ele>
      </trkpt>
      <trkpt lat="45.19654" lon="5.59311">
        <ele>1625.4</ele>
      </trkpt>
      <trkpt lat="45.19706" lon="5.59327">
        <ele>1624.2</ele>
      </trkpt>
      <trkpt lat="45.19756" lon="5.59295">
        <ele>1627.4</ele>
      </trkpt>
      <trkpt lat="45.19778" lon="5.5926">
        <ele>1629.6</ele>
      </trkpt>
      <trkpt lat="45.19792" lon="5.59196">
        <ele>1633.5</ele>
      </trkpt>
      <trkpt lat="45.19732" lon="5.59192">
        <ele>1638.4</ele>
      </trkpt>
      <trkpt lat="45.19679" lon="5.59169">
        <ele>1649.5</ele>
      </trkpt>
      <trkpt lat="45.19656" lon="5.59159">
        <ele>1652</ele>
      </trkpt>
      <trkpt lat="45.19425" lon="5.59242">
        <ele>1654.5</ele>
      </trkpt>
      <trkpt lat="45.19225" lon="5.59215">
        <ele>1641.1</ele>
      </trkpt>
      <trkpt lat="45.19104" lon="5.59171">
        <ele>1664.2</ele>
      </trkpt>
      <trkpt lat="45.19009" lon="5.59134">
        <ele>1678.7</ele>
      </trkpt>
      <trkpt lat="45.18906" lon="5.59142">
        <ele>1685.4</ele>
      </trkpt>
      <trkpt lat="45.18853" lon="5.59139">
        <ele>1689.5</ele>
      </trkpt>
      <trkpt lat="45.18803" lon="5.59158">
        <ele>1693.2</ele>
      </trkpt>
      <trkpt lat="45.18779" lon="5.59183">
        <ele>1692.4</ele>
      </trkpt>
      <trkpt lat="45.18676" lon="5.59267">
        <ele>1686.2</ele>
      </trkpt>
      <trkpt lat="45.18632" lon="5.59236">
        <ele>1689.1</ele>
      </trkpt>
      <trkpt lat="45.18589" lon="5.59163">
        <ele>1705.3</ele>
      </trkpt>
      <trkpt lat="45.18573" lon="5.59164">
        <ele>1698.7</ele>
      </trkpt>
      <trkpt lat="45.18563" lon="5.59142">
        <ele>1697.5</ele>
      </trkpt>
      <trkpt lat="45.18563" lon="5.59121">
        <ele>1701.4</ele>
      </trkpt>
      <trkpt lat="45.18536" lon="5.591">
        <ele>1695.8</ele>
      </trkpt>
      <trkpt lat="45.18504" lon="5.59052">
        <ele>1694.8</ele>
      </trkpt>
      <trkpt lat="45.18485" lon="5.59042">
        <ele>1688</ele>
      </trkpt>
      <trkpt lat="45.18474" lon="5.59002">
        <ele>1691.4</ele>
      </trkpt>
      <trkpt lat="45.18323" lon="5.58811">
        <ele>1673.8</ele>
      </trkpt>
      <trkpt lat="45.18258" lon="5.58787">
        <ele>1660.1</ele>
      </trkpt>
      <trkpt lat="45.18245" lon="5.58766">
        <ele>1662.6</ele>
      </trkpt>
      <trkpt lat="45.17979" lon="5.5859">
        <ele>1656.3</ele>
      </trkpt>
      <trkpt lat="45.17867" lon="5.58568">
        <ele>1665</ele>
      </trkpt>
      <trkpt lat="45.17846" lon="5.58611">
        <ele>1659</ele>
      </trkpt>
      <trkpt lat="45.17688" lon="5.58661">
        <ele>1666.5</ele>
      </trkpt>
      <trkpt lat="45.17557" lon="5.58582">
        <ele>1681.3</ele>
      </trkpt>
      <trkpt lat="45.17536" lon="5.58583">
        <ele>1677.5</ele>
      </trkpt>
      <trkpt lat="45.17508" lon="5.58542">
        <ele>1678.7</ele>
      </trkpt>
      <trkpt lat="45.17469" lon="5.58552">
        <ele>1670.5</ele>
      </trkpt>
      <trkpt lat="45.17361" lon="5.58469">
        <ele>1659.2</ele>
      </trkpt>
      <trkpt lat="45.17343" lon="5.58468">
        <ele>1654.1</ele>
      </trkpt>
      <trkpt lat="45.1732" lon="5.58442">
        <ele>1653.2</ele>
      </trkpt>
      <trkpt lat="45.1729" lon="5.58395">
        <ele>1651.7</ele>
      </trkpt>
      <trkpt lat="45.17223" lon="5.58383">
        <ele>1636.8</ele>
      </trkpt>
      <trkpt lat="45.17184" lon="5.58397">
        <ele>1628.6</ele>
      </trkpt>
      <trkpt lat="45.17145" lon="5.58385">
        <ele>1624.8</ele>
      </trkpt>
      <trkpt lat="45.17103" lon="5.58367">
        <ele>1627.4</ele>
      </trkpt>
      <trkpt lat="45.17083" lon="5.5836">
        <ele>1626.4000244141</ele>
        <time>2015-05-14T11:11:57.000Z</time>
      </trkpt>
      <trkpt lat="45.1708" lon="5.5836">
        <ele>1626</ele>
        <time>2015-05-14T11:11:59.000Z</time>
      </trkpt>
      <trkpt lat="45.17079" lon="5.5836">
        <ele>1625.8000488281</ele>
        <time>2015-05-14T11:12:00.000Z</time>
      </trkpt>
      <trkpt lat="45.17069" lon="5.58357">
        <ele>1625.8000488281</ele>
        <time>2015-05-14T11:12:09.000Z</time>
      </trkpt>
      <trkpt lat="45.17064" lon="5.58355">
        <ele>1625.5999755859</ele>
        <time>2015-05-14T11:12:21.000Z</time>
      </trkpt>
      <trkpt lat="45.17063" lon="5.58355">
        <ele>1625.5999755859</ele>
        <time>2015-05-14T11:12:44.000Z</time>
      </trkpt>
      <trkpt lat="45.17062" lon="5.58358">
        <ele>1624.8000488281</ele>
        <time>2015-05-14T11:13:22.000Z</time>
      </trkpt>
      <trkpt lat="45.17064" lon="5.58356">
        <ele>1625.5999755859</ele>
        <time>2015-05-14T11:13:57.000Z</time>
      </trkpt>
      <trkpt lat="45.17064" lon="5.58356">
        <ele>1625.4000244141</ele>
        <time>2015-05-14T11:14:36.000Z</time>
      </trkpt>
      <trkpt lat="45.17064" lon="5.58356">
        <ele>1625.5999755859</ele>
        <time>2015-05-14T11:15:11.000Z</time>
      </trkpt>
      <trkpt lat="45.17064" lon="5.58357">
        <ele>1625.1999511719</ele>
        <time>2015-05-14T11:15:50.000Z</time>
      </trkpt>
      <trkpt lat="45.17063" lon="5.58356">
        <ele>1625.4000244141</ele>
        <time>2015-05-14T11:16:20.000Z</time>
      </trkpt>
      <trkpt lat="45.17063" lon="5.58357">
        <ele>1625.1999511719</ele>
        <time>2015-05-14T11:16:53.000Z</time>
      </trkpt>
      <trkpt lat="45.17065" lon="5.58356">
        <ele>1625.5999755859</ele>
        <time>2015-05-14T11:17:33.000Z</time>
      </trkpt>
      <trkpt lat="45.17064" lon="5.58357">
        <ele>1625.4000244141</ele>
        <time>2015-05-14T11:18:08.000Z</time>
      </trkpt>
      <trkpt lat="45.17064" lon="5.58356">
        <ele>1625.4000244141</ele>
        <time>2015-05-14T11:18:18.000Z</time>
      </trkpt>
      <trkpt lat="45.17055" lon="5.58352">
        <ele>1625.5999755859</ele>
        <time>2015-05-14T11:18:25.000Z</time>
      </trkpt>
      <trkpt lat="45.1704" lon="5.5835">
        <ele>1626</ele>
        <time>2015-05-14T11:18:36.000Z</time>
      </trkpt>
      <trkpt lat="45.17036" lon="5.5835">
        <ele>1626.8000488281</ele>
        <time>2015-05-14T11:18:39.000Z</time>
      </trkpt>
      <trkpt lat="45.17031" lon="5.58352">
        <ele>1627.1999511719</ele>
        <time>2015-05-14T11:18:43.000Z</time>
      </trkpt>
      <trkpt lat="45.17023" lon="5.58352">
        <ele>1628.8000488281</ele>
        <time>2015-05-14T11:18:51.000Z</time>
      </trkpt>
      <trkpt lat="45.17014" lon="5.58353">
        <ele>1630.4000244141</ele>
        <time>2015-05-14T11:19:03.000Z</time>
      </trkpt>
      <trkpt lat="45.17002" lon="5.58357">
        <ele>1633.1999511719</ele>
        <time>2015-05-14T11:19:20.000Z</time>
      </trkpt>
      <trkpt lat="45.16993" lon="5.58362">
        <ele>1635.4000244141</ele>
        <time>2015-05-14T11:19:31.000Z</time>
      </trkpt>
      <trkpt lat="45.16981" lon="5.58375">
        <ele>1637.4000244141</ele>
        <time>2015-05-14T11:19:49.000Z</time>
      </trkpt>
      <trkpt lat="45.16976" lon="5.58377">
        <ele>1638.5999755859</ele>
        <time>2015-05-14T11:19:52.000Z</time>
      </trkpt>
      <trkpt lat="45.16968" lon="5.58375">
        <ele>1641</ele>
        <time>2015-05-14T11:19:57.000Z</time>
      </trkpt>
      <trkpt lat="45.16948" lon="5.58372">
        <ele>1644</ele>
        <time>2015-05-14T11:20:15.000Z</time>
      </trkpt>
      <trkpt lat="45.16946" lon="5.58371">
        <ele>1644.1999511719</ele>
        <time>2015-05-14T11:20:53.000Z</time>
      </trkpt>
      <trkpt lat="45.16947" lon="5.58371">
        <ele>1644.1999511719</ele>
        <time>2015-05-14T11:21:35.000Z</time>
      </trkpt>
      <trkpt lat="45.16945" lon="5.58373">
        <ele>1644</ele>
        <time>2015-05-14T11:22:11.000Z</time>
      </trkpt>
      <trkpt lat="45.16945" lon="5.58371">
        <ele>1644.1999511719</ele>
        <time>2015-05-14T11:22:43.000Z</time>
      </trkpt>
      <trkpt lat="45.16921" lon="5.58362">
        <ele>1645.8000488281</ele>
        <time>2015-05-14T11:22:53.000Z</time>
      </trkpt>
      <trkpt lat="45.16916" lon="5.58362">
        <ele>1645.8000488281</ele>
        <time>2015-05-14T11:22:54.000Z</time>
      </trkpt>
      <trkpt lat="45.1691" lon="5.5836">
        <ele>1646.1999511719</ele>
        <time>2015-05-14T11:22:55.000Z</time>
      </trkpt>
      <trkpt lat="45.16899" lon="5.58356">
        <ele>1646.8000488281</ele>
        <time>2015-05-14T11:22:57.000Z</time>
      </trkpt>
      <trkpt lat="45.16894" lon="5.58353">
        <ele>1647.4000244141</ele>
        <time>2015-05-14T11:22:58.000Z</time>
      </trkpt>
      <trkpt lat="45.16888" lon="5.58352">
        <ele>1647.5999755859</ele>
        <time>2015-05-14T11:22:59.000Z</time>
      </trkpt>
      <trkpt lat="45.16876" lon="5.58349">
        <ele>1648</ele>
        <time>2015-05-14T11:23:01.000Z</time>
      </trkpt>
      <trkpt lat="45.1687" lon="5.58347">
        <ele>1648</ele>
        <time>2015-05-14T11:23:02.000Z</time>
      </trkpt>
      <trkpt lat="45.16863" lon="5.58345">
        <ele>1647.5999755859</ele>
        <time>2015-05-14T11:23:03.000Z</time>
      </trkpt>
      <trkpt lat="45.16857" lon="5.58343">
        <ele>1647.5999755859</ele>
        <time>2015-05-14T11:23:04.000Z</time>
      </trkpt>
      <trkpt lat="45.16852" lon="5.58342">
        <ele>1647.4000244141</ele>
        <time>2015-05-14T11:23:05.000Z</time>
      </trkpt>
      <trkpt lat="45.16846" lon="5.58339">
        <ele>1647.1999511719</ele>
        <time>2015-05-14T11:23:06.000Z</time>
      </trkpt>
      <trkpt lat="45.16841" lon="5.58336">
        <ele>1647.4000244141</ele>
        <time>2015-05-14T11:23:07.000Z</time>
      </trkpt>
      <trkpt lat="45.16835" lon="5.58334">
        <ele>1647.1999511719</ele>
        <time>2015-05-14T11:23:08.000Z</time>
      </trkpt>
      <trkpt lat="45.16828" lon="5.58334">
        <ele>1646.8000488281</ele>
        <time>2015-05-14T11:23:09.000Z</time>
      </trkpt>
      <trkpt lat="45.16823" lon="5.58336">
        <ele>1645.1999511719</ele>
        <time>2015-05-14T11:23:10.000Z</time>
      </trkpt>
      <trkpt lat="45.16796" lon="5.58335">
        <ele>1639.5999755859</ele>
        <time>2015-05-14T11:23:15.000Z</time>
      </trkpt>
      <trkpt lat="45.1679" lon="5.58332">
        <ele>1639.8000488281</ele>
        <time>2015-05-14T11:23:16.000Z</time>
      </trkpt>
      <trkpt lat="45.16785" lon="5.58329">
        <ele>1640</ele>
        <time>2015-05-14T11:23:17.000Z</time>
      </trkpt>
      <trkpt lat="45.16772" lon="5.58323">
        <ele>1640.5999755859</ele>
        <time>2015-05-14T11:23:19.000Z</time>
      </trkpt>
      <trkpt lat="45.16765" lon="5.58319">
        <ele>1641</ele>
        <time>2015-05-14T11:23:20.000Z</time>
      </trkpt>
      <trkpt lat="45.16757" lon="5.58317">
        <ele>1641</ele>
        <time>2015-05-14T11:23:21.000Z</time>
      </trkpt>
      <trkpt lat="45.16748" lon="5.58315">
        <ele>1640.5999755859</ele>
        <time>2015-05-14T11:23:22.000Z</time>
      </trkpt>
      <trkpt lat="45.1674" lon="5.58315">
        <ele>1639.8000488281</ele>
        <time>2015-05-14T11:23:23.000Z</time>
      </trkpt>
      <trkpt lat="45.16733" lon="5.58315">
        <ele>1639.1999511719</ele>
        <time>2015-05-14T11:23:24.000Z</time>
      </trkpt>
      <trkpt lat="45.16726" lon="5.58314">
        <ele>1639</ele>
        <time>2015-05-14T11:23:25.000Z</time>
      </trkpt>
      <trkpt lat="45.16689" lon="5.58306">
        <ele>1639.1999511719</ele>
        <time>2015-05-14T11:23:34.000Z</time>
      </trkpt>
      <trkpt lat="45.16658" lon="5.58296">
        <ele>1641</ele>
        <time>2015-05-14T11:23:44.000Z</time>
      </trkpt>
      <trkpt lat="45.16639" lon="5.58293">
        <ele>1641</ele>
        <time>2015-05-14T11:23:52.000Z</time>
      </trkpt>
      <trkpt lat="45.16633" lon="5.5829">
        <ele>1641</ele>
        <time>2015-05-14T11:23:55.000Z</time>
      </trkpt>
      <trkpt lat="45.16602" lon="5.58283">
        <ele>1642.5999755859</ele>
        <time>2015-05-14T11:24:10.000Z</time>
      </trkpt>
      <trkpt lat="45.16551" lon="5.58266">
        <ele>1641.1999511719</ele>
        <time>2015-05-14T11:24:26.000Z</time>
      </trkpt>
      <trkpt lat="45.16542" lon="5.58262">
        <ele>1641.4000244141</ele>
        <time>2015-05-14T11:24:28.000Z</time>
      </trkpt>
      <trkpt lat="45.16531" lon="5.58259">
        <ele>1641.4000244141</ele>
        <time>2015-05-14T11:24:30.000Z</time>
      </trkpt>
      <trkpt lat="45.16519" lon="5.58255">
        <ele>1641.8000488281</ele>
        <time>2015-05-14T11:24:32.000Z</time>
      </trkpt>
      <trkpt lat="45.16498" lon="5.58246">
        <ele>1642.8000488281</ele>
        <time>2015-05-14T11:24:36.000Z</time>
      </trkpt>
      <trkpt lat="45.16493" lon="5.58244">
        <ele>1643</ele>
        <time>2015-05-14T11:24:37.000Z</time>
      </trkpt>
      <trkpt lat="45.16483" lon="5.58239">
        <ele>1643.8000488281</ele>
        <time>2015-05-14T11:24:39.000Z</time>
      </trkpt>
      <trkpt lat="45.16478" lon="5.58236">
        <ele>1644.4000244141</ele>
        <time>2015-05-14T11:24:40.000Z</time>
      </trkpt>
      <trkpt lat="45.16473" lon="5.58232">
        <ele>1644.8000488281</ele>
        <time>2015-05-14T11:24:41.000Z</time>
      </trkpt>
      <trkpt lat="45.16468" lon="5.5823">
        <ele>1645.1999511719</ele>
        <time>2015-05-14T11:24:42.000Z</time>
      </trkpt>
      <trkpt lat="45.16453" lon="5.58219">
        <ele>1646.5999755859</ele>
        <time>2015-05-14T11:24:45.000Z</time>
      </trkpt>
      <trkpt lat="45.16444" lon="5.5821">
        <ele>1647</ele>
        <time>2015-05-14T11:24:47.000Z</time>
      </trkpt>
      <trkpt lat="45.1644" lon="5.58204">
        <ele>1647.4000244141</ele>
        <time>2015-05-14T11:24:48.000Z</time>
      </trkpt>
      <trkpt lat="45.16437" lon="5.582">
        <ele>1647.5999755859</ele>
        <time>2015-05-14T11:24:49.000Z</time>
      </trkpt>
      <trkpt lat="45.16399" lon="5.58152">
        <ele>1649.4000244141</ele>
        <time>2015-05-14T11:25:03.000Z</time>
      </trkpt>
      <trkpt lat="45.1639" lon="5.58143">
        <ele>1649.5999755859</ele>
        <time>2015-05-14T11:25:07.000Z</time>
      </trkpt>
      <trkpt lat="45.16389" lon="5.58138">
        <ele>1649.5999755859</ele>
        <time>2015-05-14T11:25:08.000Z</time>
      </trkpt>
      <trkpt lat="45.16388" lon="5.58134">
        <ele>1649.4000244141</ele>
        <time>2015-05-14T11:25:09.000Z</time>
      </trkpt>
      <trkpt lat="45.16387" lon="5.58131">
        <ele>1649</ele>
        <time>2015-05-14T11:25:10.000Z</time>
      </trkpt>
      <trkpt lat="45.16387" lon="5.58128">
        <ele>1648.8000488281</ele>
        <time>2015-05-14T11:25:11.000Z</time>
      </trkpt>
      <trkpt lat="45.16386" lon="5.58126">
        <ele>1648.5999755859</ele>
        <time>2015-05-14T11:25:12.000Z</time>
      </trkpt>
      <trkpt lat="45.16386" lon="5.58124">
        <ele>1648.4000244141</ele>
        <time>2015-05-14T11:25:13.000Z</time>
      </trkpt>
      <trkpt lat="45.16385" lon="5.58122">
        <ele>1648.1999511719</ele>
        <time>2015-05-14T11:25:14.000Z</time>
      </trkpt>
      <trkpt lat="45.16384" lon="5.58121">
        <ele>1648</ele>
        <time>2015-05-14T11:25:15.000Z</time>
      </trkpt>
      <trkpt lat="45.16383" lon="5.58119">
        <ele>1647.8000488281</ele>
        <time>2015-05-14T11:25:16.000Z</time>
      </trkpt>
      <trkpt lat="45.16382" lon="5.58118">
        <ele>1647.8000488281</ele>
        <time>2015-05-14T11:25:17.000Z</time>
      </trkpt>
      <trkpt lat="45.1638" lon="5.58116">
        <ele>1647.5999755859</ele>
        <time>2015-05-14T11:25:20.000Z</time>
      </trkpt>
      <trkpt lat="45.1638" lon="5.58115">
        <ele>1647.4000244141</ele>
        <time>2015-05-14T11:25:21.000Z</time>
      </trkpt>
      <trkpt lat="45.16379" lon="5.58111">
        <ele>1647.1999511719</ele>
        <time>2015-05-14T11:25:23.000Z</time>
      </trkpt>
      <trkpt lat="45.16369" lon="5.58103">
        <ele>1648.1999511719</ele>
        <time>2015-05-14T11:25:32.000Z</time>
      </trkpt>
      <trkpt lat="45.16368" lon="5.58101">
        <ele>1648.4000244141</ele>
        <time>2015-05-14T11:25:33.000Z</time>
      </trkpt>
      <trkpt lat="45.16366" lon="5.581">
        <ele>1648.4000244141</ele>
        <time>2015-05-14T11:25:34.000Z</time>
      </trkpt>
      <trkpt lat="45.16365" lon="5.58098">
        <ele>1648.5999755859</ele>
        <time>2015-05-14T11:25:35.000Z</time>
      </trkpt>
      <trkpt lat="45.16363" lon="5.58097">
        <ele>1648.8000488281</ele>
        <time>2015-05-14T11:25:36.000Z</time>
      </trkpt>
      <trkpt lat="45.16361" lon="5.58095">
        <ele>1649</ele>
        <time>2015-05-14T11:25:37.000Z</time>
      </trkpt>
      <trkpt lat="45.16359" lon="5.58093">
        <ele>1649.1999511719</ele>
        <time>2015-05-14T11:25:38.000Z</time>
      </trkpt>
      <trkpt lat="45.16357" lon="5.58092">
        <ele>1649.5999755859</ele>
        <time>2015-05-14T11:25:39.000Z</time>
      </trkpt>
      <trkpt lat="45.16355" lon="5.5809">
        <ele>1649.8000488281</ele>
        <time>2015-05-14T11:25:40.000Z</time>
      </trkpt>
      <trkpt lat="45.16323" lon="5.58077">
        <ele>1655.5999755859</ele>
        <time>2015-05-14T11:25:53.000Z</time>
      </trkpt>
      <trkpt lat="45.16313" lon="5.58074">
        <ele>1655.5999755859</ele>
        <time>2015-05-14T11:25:57.000Z</time>
      </trkpt>
      <trkpt lat="45.16309" lon="5.58075">
        <ele>1654.4000244141</ele>
        <time>2015-05-14T11:25:58.000Z</time>
      </trkpt>
      <trkpt lat="45.16306" lon="5.58076">
        <ele>1653.4000244141</ele>
        <time>2015-05-14T11:25:59.000Z</time>
      </trkpt>
      <trkpt lat="45.16301" lon="5.58075">
        <ele>1652.5999755859</ele>
        <time>2015-05-14T11:26:00.000Z</time>
      </trkpt>
      <trkpt lat="45.16297" lon="5.58074">
        <ele>1652.1999511719</ele>
        <time>2015-05-14T11:26:01.000Z</time>
      </trkpt>
      <trkpt lat="45.16292" lon="5.58073">
        <ele>1652</ele>
        <time>2015-05-14T11:26:02.000Z</time>
      </trkpt>
      <trkpt lat="45.16286" lon="5.58072">
        <ele>1652.1999511719</ele>
        <time>2015-05-14T11:26:03.000Z</time>
      </trkpt>
      <trkpt lat="45.16281" lon="5.5807">
        <ele>1652.8000488281</ele>
        <time>2015-05-14T11:26:04.000Z</time>
      </trkpt>
      <trkpt lat="45.16275" lon="5.58067">
        <ele>1653.5999755859</ele>
        <time>2015-05-14T11:26:05.000Z</time>
      </trkpt>
      <trkpt lat="45.16269" lon="5.58065">
        <ele>1654.1999511719</ele>
        <time>2015-05-14T11:26:06.000Z</time>
      </trkpt>
      <trkpt lat="45.16241" lon="5.5806">
        <ele>1655.5999755859</ele>
        <time>2015-05-14T11:26:10.000Z</time>
      </trkpt>
      <trkpt lat="45.16235" lon="5.58058">
        <ele>1656.1999511719</ele>
        <time>2015-05-14T11:26:11.000Z</time>
      </trkpt>
      <trkpt lat="45.16229" lon="5.58055">
        <ele>1657</ele>
        <time>2015-05-14T11:26:12.000Z</time>
      </trkpt>
      <trkpt lat="45.16222" lon="5.58053">
        <ele>1657.5999755859</ele>
        <time>2015-05-14T11:26:13.000Z</time>
      </trkpt>
      <trkpt lat="45.16216" lon="5.58053">
        <ele>1657.5999755859</ele>
        <time>2015-05-14T11:26:14.000Z</time>
      </trkpt>
      <trkpt lat="45.16208" lon="5.58052">
        <ele>1657.4000244141</ele>
        <time>2015-05-14T11:26:15.000Z</time>
      </trkpt>
      <trkpt lat="45.16201" lon="5.5805">
        <ele>1658</ele>
        <time>2015-05-14T11:26:16.000Z</time>
      </trkpt>
      <trkpt lat="45.16195" lon="5.58048">
        <ele>1658</ele>
        <time>2015-05-14T11:26:17.000Z</time>
      </trkpt>
      <trkpt lat="45.16189" lon="5.58047">
        <ele>1658</ele>
        <time>2015-05-14T11:26:18.000Z</time>
      </trkpt>
      <trkpt lat="45.16182" lon="5.58046">
        <ele>1658</ele>
        <time>2015-05-14T11:26:19.000Z</time>
      </trkpt>
      <trkpt lat="45.16177" lon="5.58043">
        <ele>1658</ele>
        <time>2015-05-14T11:26:20.000Z</time>
      </trkpt>
      <trkpt lat="45.16172" lon="5.58039">
        <ele>1658.1999511719</ele>
        <time>2015-05-14T11:26:21.000Z</time>
      </trkpt>
      <trkpt lat="45.16167" lon="5.58034">
        <ele>1658.1999511719</ele>
        <time>2015-05-14T11:26:22.000Z</time>
      </trkpt>
      <trkpt lat="45.1616" lon="5.58032">
        <ele>1658.4000244141</ele>
        <time>2015-05-14T11:26:23.000Z</time>
      </trkpt>
      <trkpt lat="45.16154" lon="5.58032">
        <ele>1658.1999511719</ele>
        <time>2015-05-14T11:26:24.000Z</time>
      </trkpt>
      <trkpt lat="45.16147" lon="5.58032">
        <ele>1658.1999511719</ele>
        <time>2015-05-14T11:26:25.000Z</time>
      </trkpt>
      <trkpt lat="45.16141" lon="5.58034">
        <ele>1658</ele>
        <time>2015-05-14T11:26:26.000Z</time>
      </trkpt>
      <trkpt lat="45.16134" lon="5.58036">
        <ele>1657.8000488281</ele>
        <time>2015-05-14T11:26:27.000Z</time>
      </trkpt>
      <trkpt lat="45.16127" lon="5.58039">
        <ele>1657.5999755859</ele>
        <time>2015-05-14T11:26:28.000Z</time>
      </trkpt>
      <trkpt lat="45.16105" lon="5.58045">
        <ele>1657</ele>
        <time>2015-05-14T11:26:31.000Z</time>
      </trkpt>
      <trkpt lat="45.16098" lon="5.58045">
        <ele>1657</ele>
        <time>2015-05-14T11:26:32.000Z</time>
      </trkpt>
      <trkpt lat="45.1609" lon="5.58044">
        <ele>1657</ele>
        <time>2015-05-14T11:26:33.000Z</time>
      </trkpt>
      <trkpt lat="45.16083" lon="5.58041">
        <ele>1657.1999511719</ele>
        <time>2015-05-14T11:26:34.000Z</time>
      </trkpt>
      <trkpt lat="45.16075" lon="5.58038">
        <ele>1657.1999511719</ele>
        <time>2015-05-14T11:26:35.000Z</time>
      </trkpt>
      <trkpt lat="45.16068" lon="5.58037">
        <ele>1657.1999511719</ele>
        <time>2015-05-14T11:26:36.000Z</time>
      </trkpt>
      <trkpt lat="45.1606" lon="5.58036">
        <ele>1657.1999511719</ele>
        <time>2015-05-14T11:26:37.000Z</time>
      </trkpt>
      <trkpt lat="45.16053" lon="5.58035">
        <ele>1657.1999511719</ele>
        <time>2015-05-14T11:26:38.000Z</time>
      </trkpt>
      <trkpt lat="45.16045" lon="5.58033">
        <ele>1657.1999511719</ele>
        <time>2015-05-14T11:26:39.000Z</time>
      </trkpt>
      <trkpt lat="45.1602" lon="5.58026">
        <ele>1656.4000244141</ele>
        <time>2015-05-14T11:26:42.000Z</time>
      </trkpt>
      <trkpt lat="45.16012" lon="5.58026">
        <ele>1655.8000488281</ele>
        <time>2015-05-14T11:26:43.000Z</time>
      </trkpt>
      <trkpt lat="45.16004" lon="5.58027">
        <ele>1655.4000244141</ele>
        <time>2015-05-14T11:26:44.000Z</time>
      </trkpt>
      <trkpt lat="45.15998" lon="5.58025">
        <ele>1654.8000488281</ele>
        <time>2015-05-14T11:26:45.000Z</time>
      </trkpt>
      <trkpt lat="45.15992" lon="5.58022">
        <ele>1654.5999755859</ele>
        <time>2015-05-14T11:26:46.000Z</time>
      </trkpt>
      <trkpt lat="45.15988" lon="5.58019">
        <ele>1654.4000244141</ele>
        <time>2015-05-14T11:26:47.000Z</time>
      </trkpt>
      <trkpt lat="45.15985" lon="5.58016">
        <ele>1654.4000244141</ele>
        <time>2015-05-14T11:26:48.000Z</time>
      </trkpt>
      <trkpt lat="45.15982" lon="5.58013">
        <ele>1654.4000244141</ele>
        <time>2015-05-14T11:26:49.000Z</time>
      </trkpt>
      <trkpt lat="45.15972" lon="5.58006">
        <ele>1654</ele>
        <time>2015-05-14T11:26:54.000Z</time>
      </trkpt>
      <trkpt lat="45.1597" lon="5.58004">
        <ele>1654</ele>
        <time>2015-05-14T11:26:56.000Z</time>
      </trkpt>
      <trkpt lat="45.15969" lon="5.58002">
        <ele>1654</ele>
        <time>2015-05-14T11:26:57.000Z</time>
      </trkpt>
      <trkpt lat="45.15967" lon="5.58001">
        <ele>1653.8000488281</ele>
        <time>2015-05-14T11:26:58.000Z</time>
      </trkpt>
      <trkpt lat="45.15966" lon="5.58">
        <ele>1653.8000488281</ele>
        <time>2015-05-14T11:26:59.000Z</time>
      </trkpt>
      <trkpt lat="45.15964" lon="5.57998">
        <ele>1653.8000488281</ele>
        <time>2015-05-14T11:27:00.000Z</time>
      </trkpt>
      <trkpt lat="45.15961" lon="5.57997">
        <ele>1653.5999755859</ele>
        <time>2015-05-14T11:27:01.000Z</time>
      </trkpt>
      <trkpt lat="45.15946" lon="5.57992">
        <ele>1653</ele>
        <time>2015-05-14T11:27:05.000Z</time>
      </trkpt>
      <trkpt lat="45.15933" lon="5.57983">
        <ele>1652.5999755859</ele>
        <time>2015-05-14T11:27:08.000Z</time>
      </trkpt>
      <trkpt lat="45.15929" lon="5.57977">
        <ele>1652.5999755859</ele>
        <time>2015-05-14T11:27:09.000Z</time>
      </trkpt>
      <trkpt lat="45.15926" lon="5.57971">
        <ele>1652.8000488281</ele>
        <time>2015-05-14T11:27:10.000Z</time>
      </trkpt>
      <trkpt lat="45.15924" lon="5.57964">
        <ele>1652.8000488281</ele>
        <time>2015-05-14T11:27:11.000Z</time>
      </trkpt>
      <trkpt lat="45.1592" lon="5.57958">
        <ele>1653</ele>
        <time>2015-05-14T11:27:12.000Z</time>
      </trkpt>
      <trkpt lat="45.15916" lon="5.57953">
        <ele>1652.8000488281</ele>
        <time>2015-05-14T11:27:13.000Z</time>
      </trkpt>
      <trkpt lat="45.15912" lon="5.5795">
        <ele>1652.8000488281</ele>
        <time>2015-05-14T11:27:14.000Z</time>
      </trkpt>
      <trkpt lat="45.15909" lon="5.57946">
        <ele>1652.5999755859</ele>
        <time>2015-05-14T11:27:15.000Z</time>
      </trkpt>
      <trkpt lat="45.15906" lon="5.57942">
        <ele>1652.5999755859</ele>
        <time>2015-05-14T11:27:16.000Z</time>
      </trkpt>
      <trkpt lat="45.15903" lon="5.5794">
        <ele>1652.4000244141</ele>
        <time>2015-05-14T11:27:17.000Z</time>
      </trkpt>
      <trkpt lat="45.15899" lon="5.57938">
        <ele>1652.4000244141</ele>
        <time>2015-05-14T11:27:18.000Z</time>
      </trkpt>
      <trkpt lat="45.15889" lon="5.57932">
        <ele>1652</ele>
        <time>2015-05-14T11:27:30.000Z</time>
      </trkpt>
      <trkpt lat="45.15885" lon="5.57929">
        <ele>1651.8000488281</ele>
        <time>2015-05-14T11:28:24.000Z</time>
      </trkpt>
      <trkpt lat="45.15881" lon="5.57926">
        <ele>1651.8000488281</ele>
        <time>2015-05-14T11:28:54.000Z</time>
      </trkpt>
      <trkpt lat="45.15877" lon="5.57922">
        <ele>1651.5999755859</ele>
        <time>2015-05-14T11:28:55.000Z</time>
      </trkpt>
      <trkpt lat="45.15873" lon="5.57919">
        <ele>1651.5999755859</ele>
        <time>2015-05-14T11:28:56.000Z</time>
      </trkpt>
      <trkpt lat="45.15869" lon="5.57916">
        <ele>1651.5999755859</ele>
        <time>2015-05-14T11:28:57.000Z</time>
      </trkpt>
      <trkpt lat="45.15865" lon="5.57914">
        <ele>1651.5999755859</ele>
        <time>2015-05-14T11:28:58.000Z</time>
      </trkpt>
      <trkpt lat="45.1586" lon="5.57914">
        <ele>1651.5999755859</ele>
        <time>2015-05-14T11:28:59.000Z</time>
      </trkpt>
      <trkpt lat="45.15856" lon="5.57912">
        <ele>1651.4000244141</ele>
        <time>2015-05-14T11:29:00.000Z</time>
      </trkpt>
      <trkpt lat="45.15853" lon="5.57909">
        <ele>1651.5999755859</ele>
        <time>2015-05-14T11:29:01.000Z</time>
      </trkpt>
      <trkpt lat="45.15852" lon="5.57905">
        <ele>1651.5999755859</ele>
        <time>2015-05-14T11:29:02.000Z</time>
      </trkpt>
      <trkpt lat="45.1585" lon="5.57902">
        <ele>1651.8000488281</ele>
        <time>2015-05-14T11:29:03.000Z</time>
      </trkpt>
      <trkpt lat="45.15847" lon="5.57901">
        <ele>1651.5999755859</ele>
        <time>2015-05-14T11:29:04.000Z</time>
      </trkpt>
      <trkpt lat="45.15844" lon="5.579">
        <ele>1651.5999755859</ele>
        <time>2015-05-14T11:29:05.000Z</time>
      </trkpt>
      <trkpt lat="45.1584" lon="5.579">
        <ele>1651.5999755859</ele>
        <time>2015-05-14T11:29:06.000Z</time>
      </trkpt>
      <trkpt lat="45.15836" lon="5.579">
        <ele>1651.4000244141</ele>
        <time>2015-05-14T11:29:07.000Z</time>
      </trkpt>
      <trkpt lat="45.15832" lon="5.57899">
        <ele>1651.4000244141</ele>
        <time>2015-05-14T11:29:08.000Z</time>
      </trkpt>
      <trkpt lat="45.15827" lon="5.57899">
        <ele>1651.1999511719</ele>
        <time>2015-05-14T11:29:09.000Z</time>
      </trkpt>
      <trkpt lat="45.15822" lon="5.57897">
        <ele>1651.1999511719</ele>
        <time>2015-05-14T11:29:10.000Z</time>
      </trkpt>
      <trkpt lat="45.15818" lon="5.57894">
        <ele>1651.1999511719</ele>
        <time>2015-05-14T11:29:11.000Z</time>
      </trkpt>
      <trkpt lat="45.15814" lon="5.57891">
        <ele>1651.1999511719</ele>
        <time>2015-05-14T11:29:12.000Z</time>
      </trkpt>
      <trkpt lat="45.15809" lon="5.57889">
        <ele>1651.1999511719</ele>
        <time>2015-05-14T11:29:13.000Z</time>
      </trkpt>
      <trkpt lat="45.15805" lon="5.57886">
        <ele>1651.1999511719</ele>
        <time>2015-05-14T11:29:14.000Z</time>
      </trkpt>
      <trkpt lat="45.15789" lon="5.57879">
        <ele>1650.4000244141</ele>
        <time>2015-05-14T11:29:17.000Z</time>
      </trkpt>
      <trkpt lat="45.15784" lon="5.57875">
        <ele>1650</ele>
        <time>2015-05-14T11:29:18.000Z</time>
      </trkpt>
      <trkpt lat="45.15772" lon="5.57868">
        <ele>1648.8000488281</ele>
        <time>2015-05-14T11:29:20.000Z</time>
      </trkpt>
      <trkpt lat="45.15753" lon="5.57862">
        <ele>1646.5999755859</ele>
        <time>2015-05-14T11:29:23.000Z</time>
      </trkpt>
      <trkpt lat="45.15736" lon="5.5786">
        <ele>1644.5999755859</ele>
        <time>2015-05-14T11:29:25.000Z</time>
      </trkpt>
      <trkpt lat="45.15718" lon="5.57857">
        <ele>1642.4000244141</ele>
        <time>2015-05-14T11:29:27.000Z</time>
      </trkpt>
      <trkpt lat="45.15709" lon="5.57858">
        <ele>1641.5999755859</ele>
        <time>2015-05-14T11:29:28.000Z</time>
      </trkpt>
      <trkpt lat="45.15701" lon="5.57859">
        <ele>1641.1999511719</ele>
        <time>2015-05-14T11:29:29.000Z</time>
      </trkpt>
      <trkpt lat="45.15692" lon="5.5786">
        <ele>1641</ele>
        <time>2015-05-14T11:29:30.000Z</time>
      </trkpt>
      <trkpt lat="45.15684" lon="5.57862">
        <ele>1640.5999755859</ele>
        <time>2015-05-14T11:29:31.000Z</time>
      </trkpt>
      <trkpt lat="45.15677" lon="5.57864">
        <ele>1640.1999511719</ele>
        <time>2015-05-14T11:29:32.000Z</time>
      </trkpt>
      <trkpt lat="45.15672" lon="5.57865">
        <ele>1640</ele>
        <time>2015-05-14T11:29:33.000Z</time>
      </trkpt>
      <trkpt lat="45.15669" lon="5.57867">
        <ele>1639.8000488281</ele>
        <time>2015-05-14T11:29:34.000Z</time>
      </trkpt>
      <trkpt lat="45.15665" lon="5.57869">
        <ele>1639.8000488281</ele>
        <time>2015-05-14T11:29:35.000Z</time>
      </trkpt>
      <trkpt lat="45.15662" lon="5.57869">
        <ele>1639.5999755859</ele>
        <time>2015-05-14T11:29:36.000Z</time>
      </trkpt>
      <trkpt lat="45.15659" lon="5.57869">
        <ele>1639.4000244141</ele>
        <time>2015-05-14T11:29:37.000Z</time>
      </trkpt>
      <trkpt lat="45.15655" lon="5.57868">
        <ele>1639.4000244141</ele>
        <time>2015-05-14T11:29:38.000Z</time>
      </trkpt>
      <trkpt lat="45.15649" lon="5.57868">
        <ele>1639.1999511719</ele>
        <time>2015-05-14T11:29:39.000Z</time>
      </trkpt>
      <trkpt lat="45.15623" lon="5.57874">
        <ele>1637.5999755859</ele>
        <time>2015-05-14T11:29:44.000Z</time>
      </trkpt>
      <trkpt lat="45.15618" lon="5.57876">
        <ele>1637.1999511719</ele>
        <time>2015-05-14T11:29:45.000Z</time>
      </trkpt>
      <trkpt lat="45.15583" lon="5.57868">
        <ele>1632.8000488281</ele>
        <time>2015-05-14T11:29:50.000Z</time>
      </trkpt>
      <trkpt lat="45.15571" lon="5.57865">
        <ele>1631.4000244141</ele>
        <time>2015-05-14T11:29:52.000Z</time>
      </trkpt>
      <trkpt lat="45.1556" lon="5.57854">
        <ele>1630.5999755859</ele>
        <time>2015-05-14T11:29:55.000Z</time>
      </trkpt>
      <trkpt lat="45.15552" lon="5.57842">
        <ele>1630</ele>
        <time>2015-05-14T11:29:59.000Z</time>
      </trkpt>
      <trkpt lat="45.15545" lon="5.57833">
        <ele>1629.5999755859</ele>
        <time>2015-05-14T11:30:02.000Z</time>
      </trkpt>
      <trkpt lat="45.15542" lon="5.57832">
        <ele>1629.5999755859</ele>
        <time>2015-05-14T11:30:03.000Z</time>
      </trkpt>
      <trkpt lat="45.15539" lon="5.5783">
        <ele>1629.8000488281</ele>
        <time>2015-05-14T11:30:04.000Z</time>
      </trkpt>
      <trkpt lat="45.15537" lon="5.57828">
        <ele>1629.8000488281</ele>
        <time>2015-05-14T11:30:05.000Z</time>
      </trkpt>
      <trkpt lat="45.15534" lon="5.57826">
        <ele>1630</ele>
        <time>2015-05-14T11:30:06.000Z</time>
      </trkpt>
      <trkpt lat="45.15532" lon="5.57825">
        <ele>1630.1999511719</ele>
        <time>2015-05-14T11:30:07.000Z</time>
      </trkpt>
      <trkpt lat="45.15529" lon="5.57823">
        <ele>1630.4000244141</ele>
        <time>2015-05-14T11:30:08.000Z</time>
      </trkpt>
      <trkpt lat="45.15527" lon="5.57821">
        <ele>1630.4000244141</ele>
        <time>2015-05-14T11:30:09.000Z</time>
      </trkpt>
      <trkpt lat="45.15524" lon="5.57821">
        <ele>1630.5999755859</ele>
        <time>2015-05-14T11:30:10.000Z</time>
      </trkpt>
      <trkpt lat="45.15522" lon="5.5782">
        <ele>1630.5999755859</ele>
        <time>2015-05-14T11:30:11.000Z</time>
      </trkpt>
      <trkpt lat="45.1552" lon="5.57818">
        <ele>1630.8000488281</ele>
        <time>2015-05-14T11:30:12.000Z</time>
      </trkpt>
      <trkpt lat="45.15518" lon="5.57817">
        <ele>1630.8000488281</ele>
        <time>2015-05-14T11:30:13.000Z</time>
      </trkpt>
      <trkpt lat="45.15481" lon="5.57785">
        <ele>1632</ele>
        <time>2015-05-14T11:30:28.000Z</time>
      </trkpt>
      <trkpt lat="45.1543" lon="5.57785">
        <ele>1631.8000488281</ele>
        <time>2015-05-14T11:30:43.000Z</time>
      </trkpt>
      <trkpt lat="45.15408" lon="5.57793">
        <ele>1630.1999511719</ele>
        <time>2015-05-14T11:30:47.000Z</time>
      </trkpt>
      <trkpt lat="45.15402" lon="5.57793">
        <ele>1629.8000488281</ele>
        <time>2015-05-14T11:30:48.000Z</time>
      </trkpt>
      <trkpt lat="45.15379" lon="5.57791">
        <ele>1628.4000244141</ele>
        <time>2015-05-14T11:30:52.000Z</time>
      </trkpt>
      <trkpt lat="45.15374" lon="5.57791">
        <ele>1628</ele>
        <time>2015-05-14T11:30:53.000Z</time>
      </trkpt>
      <trkpt lat="45.15369" lon="5.57792">
        <ele>1627.5999755859</ele>
        <time>2015-05-14T11:30:54.000Z</time>
      </trkpt>
      <trkpt lat="45.15366" lon="5.57793">
        <ele>1627.1999511719</ele>
        <time>2015-05-14T11:30:55.000Z</time>
      </trkpt>
      <trkpt lat="45.15363" lon="5.5779">
        <ele>1627</ele>
        <time>2015-05-14T11:30:56.000Z</time>
      </trkpt>
      <trkpt lat="45.1536" lon="5.57787">
        <ele>1626.8000488281</ele>
        <time>2015-05-14T11:30:57.000Z</time>
      </trkpt>
      <trkpt lat="45.15354" lon="5.57782">
        <ele>1626.4000244141</ele>
        <time>2015-05-14T11:30:58.000Z</time>
      </trkpt>
      <trkpt lat="45.15349" lon="5.57779">
        <ele>1625.8000488281</ele>
        <time>2015-05-14T11:30:59.000Z</time>
      </trkpt>
      <trkpt lat="45.15342" lon="5.57775">
        <ele>1625.1999511719</ele>
        <time>2015-05-14T11:31:00.000Z</time>
      </trkpt>
      <trkpt lat="45.15335" lon="5.57772">
        <ele>1624.5999755859</ele>
        <time>2015-05-14T11:31:01.000Z</time>
      </trkpt>
      <trkpt lat="45.15329" lon="5.57769">
        <ele>1624.1999511719</ele>
        <time>2015-05-14T11:31:02.000Z</time>
      </trkpt>
      <trkpt lat="45.15322" lon="5.57765">
        <ele>1623.5999755859</ele>
        <time>2015-05-14T11:31:03.000Z</time>
      </trkpt>
      <trkpt lat="45.15308" lon="5.57758">
        <ele>1622.1999511719</ele>
        <time>2015-05-14T11:31:05.000Z</time>
      </trkpt>
      <trkpt lat="45.15293" lon="5.57753">
        <ele>1620.8000488281</ele>
        <time>2015-05-14T11:31:07.000Z</time>
      </trkpt>
      <trkpt lat="45.15284" lon="5.57752">
        <ele>1620</ele>
        <time>2015-05-14T11:31:08.000Z</time>
      </trkpt>
      <trkpt lat="45.15277" lon="5.57751">
        <ele>1619.4000244141</ele>
        <time>2015-05-14T11:31:09.000Z</time>
      </trkpt>
      <trkpt lat="45.1527" lon="5.5775">
        <ele>1618.8000488281</ele>
        <time>2015-05-14T11:31:10.000Z</time>
      </trkpt>
      <trkpt lat="45.15263" lon="5.57748">
        <ele>1618.1999511719</ele>
        <time>2015-05-14T11:31:11.000Z</time>
      </trkpt>
      <trkpt lat="45.15248" lon="5.57743">
        <ele>1617</ele>
        <time>2015-05-14T11:31:13.000Z</time>
      </trkpt>
      <trkpt lat="45.1524" lon="5.57739">
        <ele>1616.5999755859</ele>
        <time>2015-05-14T11:31:14.000Z</time>
      </trkpt>
      <trkpt lat="45.15231" lon="5.57734">
        <ele>1616</ele>
        <time>2015-05-14T11:31:15.000Z</time>
      </trkpt>
      <trkpt lat="45.15205" lon="5.57724">
        <ele>1613</ele>
        <time>2015-05-14T11:31:18.000Z</time>
      </trkpt>
      <trkpt lat="45.15188" lon="5.57719">
        <ele>1611</ele>
        <time>2015-05-14T11:31:20.000Z</time>
      </trkpt>
      <trkpt lat="45.15181" lon="5.57714">
        <ele>1610</ele>
        <time>2015-05-14T11:31:21.000Z</time>
      </trkpt>
      <trkpt lat="45.15147" lon="5.57691">
        <ele>1604.4000244141</ele>
        <time>2015-05-14T11:31:29.000Z</time>
      </trkpt>
      <trkpt lat="45.15145" lon="5.5769">
        <ele>1604</ele>
        <time>2015-05-14T11:32:00.000Z</time>
      </trkpt>
      <trkpt lat="45.15124" lon="5.5768">
        <ele>1600.4000244141</ele>
        <time>2015-05-14T11:32:10.000Z</time>
      </trkpt>
      <trkpt lat="45.15119" lon="5.57678">
        <ele>1599.4000244141</ele>
        <time>2015-05-14T11:32:11.000Z</time>
      </trkpt>
      <trkpt lat="45.15107" lon="5.57675">
        <ele>1597.1999511719</ele>
        <time>2015-05-14T11:32:13.000Z</time>
      </trkpt>
      <trkpt lat="45.15099" lon="5.57675">
        <ele>1596</ele>
        <time>2015-05-14T11:32:14.000Z</time>
      </trkpt>
      <trkpt lat="45.15083" lon="5.57676">
        <ele>1592.8000488281</ele>
        <time>2015-05-14T11:32:16.000Z</time>
      </trkpt>
      <trkpt lat="45.15058" lon="5.57683">
        <ele>1587.1999511719</ele>
        <time>2015-05-14T11:32:19.000Z</time>
      </trkpt>
      <trkpt lat="45.15052" lon="5.57685">
        <ele>1586</ele>
        <time>2015-05-14T11:32:20.000Z</time>
      </trkpt>
      <trkpt lat="45.15047" lon="5.57687">
        <ele>1584.5999755859</ele>
        <time>2015-05-14T11:32:21.000Z</time>
      </trkpt>
      <trkpt lat="45.15041" lon="5.57687">
        <ele>1583.8000488281</ele>
        <time>2015-05-14T11:32:22.000Z</time>
      </trkpt>
      <trkpt lat="45.15034" lon="5.57684">
        <ele>1583.4000244141</ele>
        <time>2015-05-14T11:32:23.000Z</time>
      </trkpt>
      <trkpt lat="45.15027" lon="5.57682">
        <ele>1583</ele>
        <time>2015-05-14T11:32:24.000Z</time>
      </trkpt>
      <trkpt lat="45.1502" lon="5.57682">
        <ele>1582.5999755859</ele>
        <time>2015-05-14T11:32:25.000Z</time>
      </trkpt>
      <trkpt lat="45.15013" lon="5.57685">
        <ele>1582</ele>
        <time>2015-05-14T11:32:26.000Z</time>
      </trkpt>
      <trkpt lat="45.15006" lon="5.57687">
        <ele>1580.8000488281</ele>
        <time>2015-05-14T11:32:27.000Z</time>
      </trkpt>
      <trkpt lat="45.14998" lon="5.57688">
        <ele>1579.8000488281</ele>
        <time>2015-05-14T11:32:28.000Z</time>
      </trkpt>
      <trkpt lat="45.1499" lon="5.57687">
        <ele>1578.8000488281</ele>
        <time>2015-05-14T11:32:29.000Z</time>
      </trkpt>
      <trkpt lat="45.14983" lon="5.57687">
        <ele>1577.8000488281</ele>
        <time>2015-05-14T11:32:30.000Z</time>
      </trkpt>
      <trkpt lat="45.14975" lon="5.57688">
        <ele>1576.8000488281</ele>
        <time>2015-05-14T11:32:31.000Z</time>
      </trkpt>
      <trkpt lat="45.14968" lon="5.57686">
        <ele>1576</ele>
        <time>2015-05-14T11:32:32.000Z</time>
      </trkpt>
      <trkpt lat="45.14961" lon="5.57681">
        <ele>1575.5999755859</ele>
        <time>2015-05-14T11:32:33.000Z</time>
      </trkpt>
      <trkpt lat="45.14954" lon="5.57674">
        <ele>1576</ele>
        <time>2015-05-14T11:32:34.000Z</time>
      </trkpt>
      <trkpt lat="45.14948" lon="5.57669">
        <ele>1576.1999511719</ele>
        <time>2015-05-14T11:32:35.000Z</time>
      </trkpt>
      <trkpt lat="45.14941" lon="5.57666">
        <ele>1576.1999511719</ele>
        <time>2015-05-14T11:32:36.000Z</time>
      </trkpt>
      <trkpt lat="45.14934" lon="5.57664">
        <ele>1576.1999511719</ele>
        <time>2015-05-14T11:32:37.000Z</time>
      </trkpt>
      <trkpt lat="45.14928" lon="5.5766">
        <ele>1576.4000244141</ele>
        <time>2015-05-14T11:32:38.000Z</time>
      </trkpt>
      <trkpt lat="45.14922" lon="5.57657">
        <ele>1576.4000244141</ele>
        <time>2015-05-14T11:32:39.000Z</time>
      </trkpt>
      <trkpt lat="45.14916" lon="5.57656">
        <ele>1576.4000244141</ele>
        <time>2015-05-14T11:32:40.000Z</time>
      </trkpt>
      <trkpt lat="45.1491" lon="5.57655">
        <ele>1576.1999511719</ele>
        <time>2015-05-14T11:32:41.000Z</time>
      </trkpt>
      <trkpt lat="45.14903" lon="5.57653">
        <ele>1576.1999511719</ele>
        <time>2015-05-14T11:32:42.000Z</time>
      </trkpt>
      <trkpt lat="45.14897" lon="5.57651">
        <ele>1576.1999511719</ele>
        <time>2015-05-14T11:32:43.000Z</time>
      </trkpt>
      <trkpt lat="45.14889" lon="5.57649">
        <ele>1575.8000488281</ele>
        <time>2015-05-14T11:32:44.000Z</time>
      </trkpt>
      <trkpt lat="45.14882" lon="5.57646">
        <ele>1575.4000244141</ele>
        <time>2015-05-14T11:32:45.000Z</time>
      </trkpt>
      <trkpt lat="45.14875" lon="5.57641">
        <ele>1575.4000244141</ele>
        <time>2015-05-14T11:32:46.000Z</time>
      </trkpt>
      <trkpt lat="45.14869" lon="5.57637">
        <ele>1575.4000244141</ele>
        <time>2015-05-14T11:32:47.000Z</time>
      </trkpt>
      <trkpt lat="45.14863" lon="5.57633">
        <ele>1575</ele>
        <time>2015-05-14T11:32:48.000Z</time>
      </trkpt>
      <trkpt lat="45.14858" lon="5.57628">
        <ele>1574.5999755859</ele>
        <time>2015-05-14T11:32:49.000Z</time>
      </trkpt>
      <trkpt lat="45.14854" lon="5.57621">
        <ele>1574.1999511719</ele>
        <time>2015-05-14T11:32:50.000Z</time>
      </trkpt>
      <trkpt lat="45.1485" lon="5.57613">
        <ele>1573.8000488281</ele>
        <time>2015-05-14T11:32:51.000Z</time>
      </trkpt>
      <trkpt lat="45.14847" lon="5.57605">
        <ele>1573.5999755859</ele>
        <time>2015-05-14T11:32:52.000Z</time>
      </trkpt>
      <trkpt lat="45.14843" lon="5.57597">
        <ele>1573.1999511719</ele>
        <time>2015-05-14T11:32:53.000Z</time>
      </trkpt>
      <trkpt lat="45.14837" lon="5.57592">
        <ele>1572.5999755859</ele>
        <time>2015-05-14T11:32:54.000Z</time>
      </trkpt>
      <trkpt lat="45.14831" lon="5.5759">
        <ele>1571.8000488281</ele>
        <time>2015-05-14T11:32:55.000Z</time>
      </trkpt>
      <trkpt lat="45.14824" lon="5.57591">
        <ele>1571</ele>
        <time>2015-05-14T11:32:56.000Z</time>
      </trkpt>
      <trkpt lat="45.14816" lon="5.57591">
        <ele>1570</ele>
        <time>2015-05-14T11:32:57.000Z</time>
      </trkpt>
      <trkpt lat="45.14808" lon="5.5759">
        <ele>1569</ele>
        <time>2015-05-14T11:32:58.000Z</time>
      </trkpt>
      <trkpt lat="45.148" lon="5.57588">
        <ele>1568</ele>
        <time>2015-05-14T11:32:59.000Z</time>
      </trkpt>
      <trkpt lat="45.14785" lon="5.57582">
        <ele>1566.4000244141</ele>
        <time>2015-05-14T11:33:01.000Z</time>
      </trkpt>
      <trkpt lat="45.14771" lon="5.57579">
        <ele>1565.1999511719</ele>
        <time>2015-05-14T11:33:03.000Z</time>
      </trkpt>
      <trkpt lat="45.14737" lon="5.57572">
        <ele>1562</ele>
        <time>2015-05-14T11:33:08.000Z</time>
      </trkpt>
      <trkpt lat="45.14721" lon="5.57572">
        <ele>1560.5999755859</ele>
        <time>2015-05-14T11:33:10.000Z</time>
      </trkpt>
      <trkpt lat="45.14697" lon="5.57572">
        <ele>1559.4000244141</ele>
        <time>2015-05-14T11:33:13.000Z</time>
      </trkpt>
      <trkpt lat="45.14689" lon="5.57572">
        <ele>1559.1999511719</ele>
        <time>2015-05-14T11:33:14.000Z</time>
      </trkpt>
      <trkpt lat="45.14668" lon="5.57567">
        <ele>1559.1999511719</ele>
        <time>2015-05-14T11:33:17.000Z</time>
      </trkpt>
      <trkpt lat="45.14661" lon="5.57564">
        <ele>1559</ele>
        <time>2015-05-14T11:33:18.000Z</time>
      </trkpt>
      <trkpt lat="45.14647" lon="5.57563">
        <ele>1559</ele>
        <time>2015-05-14T11:33:20.000Z</time>
      </trkpt>
      <trkpt lat="45.14639" lon="5.57563">
        <ele>1558.8000488281</ele>
        <time>2015-05-14T11:33:21.000Z</time>
      </trkpt>
      <trkpt lat="45.1461" lon="5.57565">
        <ele>1556.5999755859</ele>
        <time>2015-05-14T11:33:24.000Z</time>
      </trkpt>
      <trkpt lat="45.14602" lon="5.57564">
        <ele>1556</ele>
        <time>2015-05-14T11:33:25.000Z</time>
      </trkpt>
      <trkpt lat="45.14594" lon="5.57563">
        <ele>1555.1999511719</ele>
        <time>2015-05-14T11:33:26.000Z</time>
      </trkpt>
      <trkpt lat="45.14585" lon="5.57563">
        <ele>1554.5999755859</ele>
        <time>2015-05-14T11:33:27.000Z</time>
      </trkpt>
      <trkpt lat="45.14577" lon="5.57559">
        <ele>1554.1999511719</ele>
        <time>2015-05-14T11:33:28.000Z</time>
      </trkpt>
      <trkpt lat="45.1457" lon="5.57552">
        <ele>1554.1999511719</ele>
        <time>2015-05-14T11:33:29.000Z</time>
      </trkpt>
      <trkpt lat="45.14563" lon="5.57544">
        <ele>1553</ele>
        <time>2015-05-14T11:33:30.000Z</time>
      </trkpt>
      <trkpt lat="45.14556" lon="5.57537">
        <ele>1552</ele>
        <time>2015-05-14T11:33:31.000Z</time>
      </trkpt>
      <trkpt lat="45.14548" lon="5.57533">
        <ele>1551</ele>
        <time>2015-05-14T11:33:32.000Z</time>
      </trkpt>
      <trkpt lat="45.1454" lon="5.57532">
        <ele>1550.4000244141</ele>
        <time>2015-05-14T11:33:33.000Z</time>
      </trkpt>
      <trkpt lat="45.14532" lon="5.57533">
        <ele>1549.8000488281</ele>
        <time>2015-05-14T11:33:34.000Z</time>
      </trkpt>
      <trkpt lat="45.14509" lon="5.5753">
        <ele>1546.8000488281</ele>
        <time>2015-05-14T11:33:37.000Z</time>
      </trkpt>
      <trkpt lat="45.14494" lon="5.57528">
        <ele>1544.8000488281</ele>
        <time>2015-05-14T11:33:39.000Z</time>
      </trkpt>
      <trkpt lat="45.14486" lon="5.57529">
        <ele>1543.5999755859</ele>
        <time>2015-05-14T11:33:40.000Z</time>
      </trkpt>
      <trkpt lat="45.14478" lon="5.5753">
        <ele>1542.5999755859</ele>
        <time>2015-05-14T11:33:41.000Z</time>
      </trkpt>
      <trkpt lat="45.14471" lon="5.5753">
        <ele>1541.4000244141</ele>
        <time>2015-05-14T11:33:42.000Z</time>
      </trkpt>
      <trkpt lat="45.14464" lon="5.57528">
        <ele>1540.4000244141</ele>
        <time>2015-05-14T11:33:43.000Z</time>
      </trkpt>
      <trkpt lat="45.14456" lon="5.57528">
        <ele>1539.4000244141</ele>
        <time>2015-05-14T11:33:44.000Z</time>
      </trkpt>
      <trkpt lat="45.14448" lon="5.57528">
        <ele>1538.1999511719</ele>
        <time>2015-05-14T11:33:45.000Z</time>
      </trkpt>
      <trkpt lat="45.14439" lon="5.57529">
        <ele>1537.1999511719</ele>
        <time>2015-05-14T11:33:46.000Z</time>
      </trkpt>
      <trkpt lat="45.14431" lon="5.57532">
        <ele>1536</ele>
        <time>2015-05-14T11:33:47.000Z</time>
      </trkpt>
      <trkpt lat="45.14422" lon="5.57535">
        <ele>1535</ele>
        <time>2015-05-14T11:33:48.000Z</time>
      </trkpt>
      <trkpt lat="45.14414" lon="5.57538">
        <ele>1533.8000488281</ele>
        <time>2015-05-14T11:33:49.000Z</time>
      </trkpt>
      <trkpt lat="45.14381" lon="5.57552">
        <ele>1529.4000244141</ele>
        <time>2015-05-14T11:33:53.000Z</time>
      </trkpt>
      <trkpt lat="45.14375" lon="5.57552">
        <ele>1528.4000244141</ele>
        <time>2015-05-14T11:33:54.000Z</time>
      </trkpt>
      <trkpt lat="45.14372" lon="5.57552">
        <ele>1527.8000488281</ele>
        <time>2015-05-14T11:33:55.000Z</time>
      </trkpt>
      <trkpt lat="45.14351" lon="5.57554">
        <ele>1524.5999755859</ele>
        <time>2015-05-14T11:34:01.000Z</time>
      </trkpt>
      <trkpt lat="45.14349" lon="5.57555">
        <ele>1524</ele>
        <time>2015-05-14T11:34:02.000Z</time>
      </trkpt>
      <trkpt lat="45.14346" lon="5.57555">
        <ele>1523.5999755859</ele>
        <time>2015-05-14T11:34:03.000Z</time>
      </trkpt>
      <trkpt lat="45.14344" lon="5.57556">
        <ele>1523</ele>
        <time>2015-05-14T11:34:04.000Z</time>
      </trkpt>
      <trkpt lat="45.14341" lon="5.57557">
        <ele>1522.1999511719</ele>
        <time>2015-05-14T11:34:05.000Z</time>
      </trkpt>
      <trkpt lat="45.14338" lon="5.57558">
        <ele>1521.4000244141</ele>
        <time>2015-05-14T11:34:06.000Z</time>
      </trkpt>
      <trkpt lat="45.14336" lon="5.5756">
        <ele>1520.5999755859</ele>
        <time>2015-05-14T11:34:07.000Z</time>
      </trkpt>
      <trkpt lat="45.14334" lon="5.57561">
        <ele>1519.8000488281</ele>
        <time>2015-05-14T11:34:08.000Z</time>
      </trkpt>
      <trkpt lat="45.14331" lon="5.57562">
        <ele>1519.4000244141</ele>
        <time>2015-05-14T11:34:09.000Z</time>
      </trkpt>
      <trkpt lat="45.14329" lon="5.57562">
        <ele>1519</ele>
        <time>2015-05-14T11:34:10.000Z</time>
      </trkpt>
      <trkpt lat="45.14318" lon="5.57559">
        <ele>1518.4000244141</ele>
        <time>2015-05-14T11:34:21.000Z</time>
      </trkpt>
      <trkpt lat="45.14316" lon="5.57559">
        <ele>1518.4000244141</ele>
        <time>2015-05-14T11:34:22.000Z</time>
      </trkpt>
      <trkpt lat="45.143" lon="5.57557">
        <ele>1516.8000488281</ele>
        <time>2015-05-14T11:34:27.000Z</time>
      </trkpt>
      <trkpt lat="45.14296" lon="5.57557">
        <ele>1515.8000488281</ele>
        <time>2015-05-14T11:34:28.000Z</time>
      </trkpt>
      <trkpt lat="45.14291" lon="5.57557">
        <ele>1515.1999511719</ele>
        <time>2015-05-14T11:34:29.000Z</time>
      </trkpt>
      <trkpt lat="45.14286" lon="5.57555">
        <ele>1514.8000488281</ele>
        <time>2015-05-14T11:34:30.000Z</time>
      </trkpt>
      <trkpt lat="45.14281" lon="5.57552">
        <ele>1515.1999511719</ele>
        <time>2015-05-14T11:34:31.000Z</time>
      </trkpt>
      <trkpt lat="45.14276" lon="5.5755">
        <ele>1514.5999755859</ele>
        <time>2015-05-14T11:34:32.000Z</time>
      </trkpt>
      <trkpt lat="45.14272" lon="5.57549">
        <ele>1513.8000488281</ele>
        <time>2015-05-14T11:34:33.000Z</time>
      </trkpt>
      <trkpt lat="45.14267" lon="5.57547">
        <ele>1513</ele>
        <time>2015-05-14T11:34:34.000Z</time>
      </trkpt>
      <trkpt lat="45.14262" lon="5.57545">
        <ele>1512.4000244141</ele>
        <time>2015-05-14T11:34:35.000Z</time>
      </trkpt>
      <trkpt lat="45.14257" lon="5.57543">
        <ele>1511.4000244141</ele>
        <time>2015-05-14T11:34:36.000Z</time>
      </trkpt>
      <trkpt lat="45.14252" lon="5.5754">
        <ele>1510.8000488281</ele>
        <time>2015-05-14T11:34:37.000Z</time>
      </trkpt>
      <trkpt lat="45.14246" lon="5.57537">
        <ele>1510</ele>
        <time>2015-05-14T11:34:38.000Z</time>
      </trkpt>
      <trkpt lat="45.14241" lon="5.57532">
        <ele>1509.1999511719</ele>
        <time>2015-05-14T11:34:39.000Z</time>
      </trkpt>
      <trkpt lat="45.14236" lon="5.57527">
        <ele>1508.5999755859</ele>
        <time>2015-05-14T11:34:40.000Z</time>
      </trkpt>
      <trkpt lat="45.14231" lon="5.57522">
        <ele>1507.8000488281</ele>
        <time>2015-05-14T11:34:41.000Z</time>
      </trkpt>
      <trkpt lat="45.14216" lon="5.5751">
        <ele>1506</ele>
        <time>2015-05-14T11:34:44.000Z</time>
      </trkpt>
      <trkpt lat="45.14208" lon="5.57504">
        <ele>1505.1999511719</ele>
        <time>2015-05-14T11:34:46.000Z</time>
      </trkpt>
      <trkpt lat="45.14203" lon="5.57502">
        <ele>1504.8000488281</ele>
        <time>2015-05-14T11:34:47.000Z</time>
      </trkpt>
      <trkpt lat="45.14195" lon="5.57499">
        <ele>1504.1999511719</ele>
        <time>2015-05-14T11:34:49.000Z</time>
      </trkpt>
      <trkpt lat="45.1419" lon="5.57497">
        <ele>1504</ele>
        <time>2015-05-14T11:34:50.000Z</time>
      </trkpt>
      <trkpt lat="45.14186" lon="5.57494">
        <ele>1503.8000488281</ele>
        <time>2015-05-14T11:34:51.000Z</time>
      </trkpt>
      <trkpt lat="45.14182" lon="5.57491">
        <ele>1503.5999755859</ele>
        <time>2015-05-14T11:34:52.000Z</time>
      </trkpt>
      <trkpt lat="45.14177" lon="5.57489">
        <ele>1503.1999511719</ele>
        <time>2015-05-14T11:34:53.000Z</time>
      </trkpt>
      <trkpt lat="45.14171" lon="5.57488">
        <ele>1502.8000488281</ele>
        <time>2015-05-14T11:34:54.000Z</time>
      </trkpt>
      <trkpt lat="45.14164" lon="5.57488">
        <ele>1502.1999511719</ele>
        <time>2015-05-14T11:34:55.000Z</time>
      </trkpt>
      <trkpt lat="45.14158" lon="5.57488">
        <ele>1501.4000244141</ele>
        <time>2015-05-14T11:34:56.000Z</time>
      </trkpt>
      <trkpt lat="45.1415" lon="5.57488">
        <ele>1500.5999755859</ele>
        <time>2015-05-14T11:34:57.000Z</time>
      </trkpt>
      <trkpt lat="45.14143" lon="5.57488">
        <ele>1499.4000244141</ele>
        <time>2015-05-14T11:34:58.000Z</time>
      </trkpt>
      <trkpt lat="45.14136" lon="5.57487">
        <ele>1497.8000488281</ele>
        <time>2015-05-14T11:34:59.000Z</time>
      </trkpt>
      <trkpt lat="45.14124" lon="5.57486">
        <ele>1495.5999755859</ele>
        <time>2015-05-14T11:35:01.000Z</time>
      </trkpt>
      <trkpt lat="45.14117" lon="5.57485">
        <ele>1495.4000244141</ele>
        <time>2015-05-14T11:35:02.000Z</time>
      </trkpt>
      <trkpt lat="45.14095" lon="5.57475">
        <ele>1495.5999755859</ele>
        <time>2015-05-14T11:35:07.000Z</time>
      </trkpt>
      <trkpt lat="45.1409" lon="5.57472">
        <ele>1496</ele>
        <time>2015-05-14T11:35:08.000Z</time>
      </trkpt>
      <trkpt lat="45.14085" lon="5.57467">
        <ele>1496.4000244141</ele>
        <time>2015-05-14T11:35:09.000Z</time>
      </trkpt>
      <trkpt lat="45.14079" lon="5.57464">
        <ele>1495.8000488281</ele>
        <time>2015-05-14T11:35:10.000Z</time>
      </trkpt>
      <trkpt lat="45.14073" lon="5.57461">
        <ele>1495.1999511719</ele>
        <time>2015-05-14T11:35:11.000Z</time>
      </trkpt>
      <trkpt lat="45.14066" lon="5.57459">
        <ele>1494.5999755859</ele>
        <time>2015-05-14T11:35:12.000Z</time>
      </trkpt>
      <trkpt lat="45.14059" lon="5.57459">
        <ele>1494</ele>
        <time>2015-05-14T11:35:13.000Z</time>
      </trkpt>
      <trkpt lat="45.14052" lon="5.57461">
        <ele>1493.5999755859</ele>
        <time>2015-05-14T11:35:14.000Z</time>
      </trkpt>
      <trkpt lat="45.14047" lon="5.57463">
        <ele>1493.1999511719</ele>
        <time>2015-05-14T11:35:15.000Z</time>
      </trkpt>
      <trkpt lat="45.14043" lon="5.57464">
        <ele>1492.8000488281</ele>
        <time>2015-05-14T11:35:16.000Z</time>
      </trkpt>
      <trkpt lat="45.1404" lon="5.57461">
        <ele>1492.5999755859</ele>
        <time>2015-05-14T11:35:17.000Z</time>
      </trkpt>
      <trkpt lat="45.14039" lon="5.57457">
        <ele>1492.4000244141</ele>
        <time>2015-05-14T11:35:18.000Z</time>
      </trkpt>
      <trkpt lat="45.14037" lon="5.57452">
        <ele>1492</ele>
        <time>2015-05-14T11:35:19.000Z</time>
      </trkpt>
      <trkpt lat="45.14033" lon="5.57447">
        <ele>1491.8000488281</ele>
        <time>2015-05-14T11:35:20.000Z</time>
      </trkpt>
      <trkpt lat="45.14028" lon="5.57443">
        <ele>1491.1999511719</ele>
        <time>2015-05-14T11:35:21.000Z</time>
      </trkpt>
      <trkpt lat="45.14022" lon="5.57441">
        <ele>1490.8000488281</ele>
        <time>2015-05-14T11:35:22.000Z</time>
      </trkpt>
      <trkpt lat="45.14015" lon="5.5744">
        <ele>1490.1999511719</ele>
        <time>2015-05-14T11:35:23.000Z</time>
      </trkpt>
      <trkpt lat="45.14009" lon="5.5744">
        <ele>1488.5999755859</ele>
        <time>2015-05-14T11:35:24.000Z</time>
      </trkpt>
      <trkpt lat="45.14004" lon="5.57439">
        <ele>1487.4000244141</ele>
        <time>2015-05-14T11:35:25.000Z</time>
      </trkpt>
      <trkpt lat="45.13999" lon="5.57437">
        <ele>1486.5999755859</ele>
        <time>2015-05-14T11:35:26.000Z</time>
      </trkpt>
      <trkpt lat="45.13987" lon="5.57433">
        <ele>1484.4000244141</ele>
        <time>2015-05-14T11:35:28.000Z</time>
      </trkpt>
      <trkpt lat="45.13975" lon="5.57431">
        <ele>1481.8000488281</ele>
        <time>2015-05-14T11:35:30.000Z</time>
      </trkpt>
      <trkpt lat="45.13964" lon="5.5743">
        <ele>1479.1999511719</ele>
        <time>2015-05-14T11:35:32.000Z</time>
      </trkpt>
      <trkpt lat="45.13959" lon="5.57431">
        <ele>1478</ele>
        <time>2015-05-14T11:35:33.000Z</time>
      </trkpt>
      <trkpt lat="45.13955" lon="5.57433">
        <ele>1476.8000488281</ele>
        <time>2015-05-14T11:35:34.000Z</time>
      </trkpt>
      <trkpt lat="45.13952" lon="5.57434">
        <ele>1476</ele>
        <time>2015-05-14T11:35:35.000Z</time>
      </trkpt>
      <trkpt lat="45.13947" lon="5.57433">
        <ele>1475.4000244141</ele>
        <time>2015-05-14T11:35:36.000Z</time>
      </trkpt>
      <trkpt lat="45.13943" lon="5.57431">
        <ele>1474.5999755859</ele>
        <time>2015-05-14T11:35:37.000Z</time>
      </trkpt>
      <trkpt lat="45.13938" lon="5.57429">
        <ele>1474</ele>
        <time>2015-05-14T11:35:38.000Z</time>
      </trkpt>
      <trkpt lat="45.13933" lon="5.57428">
        <ele>1473</ele>
        <time>2015-05-14T11:35:39.000Z</time>
      </trkpt>
      <trkpt lat="45.13928" lon="5.57429">
        <ele>1471.8000488281</ele>
        <time>2015-05-14T11:35:40.000Z</time>
      </trkpt>
      <trkpt lat="45.13924" lon="5.57431">
        <ele>1470.8000488281</ele>
        <time>2015-05-14T11:35:41.000Z</time>
      </trkpt>
      <trkpt lat="45.13919" lon="5.5743">
        <ele>1469.1999511719</ele>
        <time>2015-05-14T11:35:42.000Z</time>
      </trkpt>
      <trkpt lat="45.13914" lon="5.57428">
        <ele>1468</ele>
        <time>2015-05-14T11:35:43.000Z</time>
      </trkpt>
      <trkpt lat="45.13908" lon="5.57425">
        <ele>1466.5999755859</ele>
        <time>2015-05-14T11:35:44.000Z</time>
      </trkpt>
      <trkpt lat="45.13902" lon="5.57423">
        <ele>1464.5999755859</ele>
        <time>2015-05-14T11:35:45.000Z</time>
      </trkpt>
      <trkpt lat="45.13897" lon="5.57422">
        <ele>1462.8000488281</ele>
        <time>2015-05-14T11:35:46.000Z</time>
      </trkpt>
      <trkpt lat="45.13891" lon="5.57419">
        <ele>1461.1999511719</ele>
        <time>2015-05-14T11:35:47.000Z</time>
      </trkpt>
      <trkpt lat="45.13884" lon="5.57417">
        <ele>1459</ele>
        <time>2015-05-14T11:35:48.000Z</time>
      </trkpt>
      <trkpt lat="45.13878" lon="5.57415">
        <ele>1457.4000244141</ele>
        <time>2015-05-14T11:35:49.000Z</time>
      </trkpt>
      <trkpt lat="45.13872" lon="5.5741">
        <ele>1457.5999755859</ele>
        <time>2015-05-14T11:35:50.000Z</time>
      </trkpt>
      <trkpt lat="45.13867" lon="5.57406">
        <ele>1457.8000488281</ele>
        <time>2015-05-14T11:35:51.000Z</time>
      </trkpt>
      <trkpt lat="45.13861" lon="5.57404">
        <ele>1457.1999511719</ele>
        <time>2015-05-14T11:35:52.000Z</time>
      </trkpt>
      <trkpt lat="45.13854" lon="5.57404">
        <ele>1455.8000488281</ele>
        <time>2015-05-14T11:35:53.000Z</time>
      </trkpt>
      <trkpt lat="45.13846" lon="5.57403">
        <ele>1454.1999511719</ele>
        <time>2015-05-14T11:35:54.000Z</time>
      </trkpt>
      <trkpt lat="45.1384" lon="5.57404">
        <ele>1452.4000244141</ele>
        <time>2015-05-14T11:35:55.000Z</time>
      </trkpt>
      <trkpt lat="45.13833" lon="5.57405">
        <ele>1450.4000244141</ele>
        <time>2015-05-14T11:35:56.000Z</time>
      </trkpt>
      <trkpt lat="45.13826" lon="5.57406">
        <ele>1448.5999755859</ele>
        <time>2015-05-14T11:35:57.000Z</time>
      </trkpt>
      <trkpt lat="45.13819" lon="5.57407">
        <ele>1446.5999755859</ele>
        <time>2015-05-14T11:35:58.000Z</time>
      </trkpt>
      <trkpt lat="45.13812" lon="5.57411">
        <ele>1442</ele>
        <time>2015-05-14T11:35:59.000Z</time>
      </trkpt>
      <trkpt lat="45.13806" lon="5.57417">
        <ele>1436.4000244141</ele>
        <time>2015-05-14T11:36:00.000Z</time>
      </trkpt>
      <trkpt lat="45.138" lon="5.57422">
        <ele>1431.4000244141</ele>
        <time>2015-05-14T11:36:01.000Z</time>
      </trkpt>
      <trkpt lat="45.13794" lon="5.57424">
        <ele>1427.8000488281</ele>
        <time>2015-05-14T11:36:02.000Z</time>
      </trkpt>
      <trkpt lat="45.13788" lon="5.57422">
        <ele>1427.1999511719</ele>
        <time>2015-05-14T11:36:03.000Z</time>
      </trkpt>
      <trkpt lat="45.13781" lon="5.57421">
        <ele>1426.5999755859</ele>
        <time>2015-05-14T11:36:04.000Z</time>
      </trkpt>
      <trkpt lat="45.13774" lon="5.57422">
        <ele>1424.4000244141</ele>
        <time>2015-05-14T11:36:05.000Z</time>
      </trkpt>
      <trkpt lat="45.13767" lon="5.57424">
        <ele>1422.1999511719</ele>
        <time>2015-05-14T11:36:06.000Z</time>
      </trkpt>
      <trkpt lat="45.1376" lon="5.57422">
        <ele>1421.5999755859</ele>
        <time>2015-05-14T11:36:07.000Z</time>
      </trkpt>
      <trkpt lat="45.13755" lon="5.57418">
        <ele>1422.5999755859</ele>
        <time>2015-05-14T11:36:08.000Z</time>
      </trkpt>
      <trkpt lat="45.1375" lon="5.57415">
        <ele>1423.1999511719</ele>
        <time>2015-05-14T11:36:09.000Z</time>
      </trkpt>
      <trkpt lat="45.13747" lon="5.57413">
        <ele>1423.4000244141</ele>
        <time>2015-05-14T11:36:10.000Z</time>
      </trkpt>
      <trkpt lat="45.13739" lon="5.57409">
        <ele>1423.8000488281</ele>
        <time>2015-05-14T11:36:22.000Z</time>
      </trkpt>
      <trkpt lat="45.13738" lon="5.57412">
        <ele>1422.4000244141</ele>
        <time>2015-05-14T11:36:46.000Z</time>
      </trkpt>
      <trkpt lat="45.13732" lon="5.5741">
        <ele>1422</ele>
        <time>2015-05-14T11:37:11.000Z</time>
      </trkpt>
      <trkpt lat="45.13728" lon="5.57409">
        <ele>1421.5999755859</ele>
        <time>2015-05-14T11:37:13.000Z</time>
      </trkpt>
      <trkpt lat="45.13725" lon="5.57409">
        <ele>1420.8000488281</ele>
        <time>2015-05-14T11:37:14.000Z</time>
      </trkpt>
      <trkpt lat="45.13721" lon="5.57408">
        <ele>1420.8000488281</ele>
        <time>2015-05-14T11:37:15.000Z</time>
      </trkpt>
      <trkpt lat="45.13716" lon="5.57405">
        <ele>1421.5999755859</ele>
        <time>2015-05-14T11:37:16.000Z</time>
      </trkpt>
      <trkpt lat="45.13712" lon="5.57402">
        <ele>1422</ele>
        <time>2015-05-14T11:37:17.000Z</time>
      </trkpt>
      <trkpt lat="45.13708" lon="5.57401">
        <ele>1422</ele>
        <time>2015-05-14T11:37:18.000Z</time>
      </trkpt>
      <trkpt lat="45.13703" lon="5.57398">
        <ele>1422.4000244141</ele>
        <time>2015-05-14T11:37:19.000Z</time>
      </trkpt>
      <trkpt lat="45.13699" lon="5.57396">
        <ele>1423</ele>
        <time>2015-05-14T11:37:20.000Z</time>
      </trkpt>
      <trkpt lat="45.13689" lon="5.57391">
        <ele>1423.5999755859</ele>
        <time>2015-05-14T11:37:22.000Z</time>
      </trkpt>
      <trkpt lat="45.13663" lon="5.57374">
        <ele>1423.8000488281</ele>
        <time>2015-05-14T11:37:29.000Z</time>
      </trkpt>
      <trkpt lat="45.13658" lon="5.57371">
        <ele>1423.4000244141</ele>
        <time>2015-05-14T11:37:30.000Z</time>
      </trkpt>
      <trkpt lat="45.13654" lon="5.57367">
        <ele>1423.4000244141</ele>
        <time>2015-05-14T11:37:31.000Z</time>
      </trkpt>
      <trkpt lat="45.13647" lon="5.57362">
        <ele>1422.8000488281</ele>
        <time>2015-05-14T11:37:32.000Z</time>
      </trkpt>
      <trkpt lat="45.1364" lon="5.57359">
        <ele>1421.8000488281</ele>
        <time>2015-05-14T11:37:33.000Z</time>
      </trkpt>
      <trkpt lat="45.13633" lon="5.57358">
        <ele>1420.8000488281</ele>
        <time>2015-05-14T11:37:34.000Z</time>
      </trkpt>
      <trkpt lat="45.13618" lon="5.57353">
        <ele>1420.1999511719</ele>
        <time>2015-05-14T11:37:36.000Z</time>
      </trkpt>
      <trkpt lat="45.13613" lon="5.5735">
        <ele>1420.4000244141</ele>
        <time>2015-05-14T11:37:37.000Z</time>
      </trkpt>
      <trkpt lat="45.13605" lon="5.57344">
        <ele>1420.8000488281</ele>
        <time>2015-05-14T11:37:39.000Z</time>
      </trkpt>
      <trkpt lat="45.13568" lon="5.57331">
        <ele>1419.8000488281</ele>
        <time>2015-05-14T11:37:50.000Z</time>
      </trkpt>
      <trkpt lat="45.13563" lon="5.5733">
        <ele>1419</ele>
        <time>2015-05-14T11:37:51.000Z</time>
      </trkpt>
      <trkpt lat="45.13557" lon="5.57329">
        <ele>1418</ele>
        <time>2015-05-14T11:37:52.000Z</time>
      </trkpt>
      <trkpt lat="45.13551" lon="5.57327">
        <ele>1417.4000244141</ele>
        <time>2015-05-14T11:37:53.000Z</time>
      </trkpt>
      <trkpt lat="45.13546" lon="5.57324">
        <ele>1417.1999511719</ele>
        <time>2015-05-14T11:37:54.000Z</time>
      </trkpt>
      <trkpt lat="45.13539" lon="5.57321">
        <ele>1416.5999755859</ele>
        <time>2015-05-14T11:37:55.000Z</time>
      </trkpt>
      <trkpt lat="45.13534" lon="5.57318">
        <ele>1416.8000488281</ele>
        <time>2015-05-14T11:37:56.000Z</time>
      </trkpt>
      <trkpt lat="45.13527" lon="5.57313">
        <ele>1417.1999511719</ele>
        <time>2015-05-14T11:37:57.000Z</time>
      </trkpt>
      <trkpt lat="45.13521" lon="5.57311">
        <ele>1416.8000488281</ele>
        <time>2015-05-14T11:37:58.000Z</time>
      </trkpt>
      <trkpt lat="45.13515" lon="5.57309">
        <ele>1416.1999511719</ele>
        <time>2015-05-14T11:37:59.000Z</time>
      </trkpt>
      <trkpt lat="45.13509" lon="5.57306">
        <ele>1416</ele>
        <time>2015-05-14T11:38:00.000Z</time>
      </trkpt>
      <trkpt lat="45.13502" lon="5.57303">
        <ele>1415.8000488281</ele>
        <time>2015-05-14T11:38:01.000Z</time>
      </trkpt>
      <trkpt lat="45.13496" lon="5.573">
        <ele>1415.4000244141</ele>
        <time>2015-05-14T11:38:02.000Z</time>
      </trkpt>
      <trkpt lat="45.13483" lon="5.57294">
        <ele>1413.4000244141</ele>
        <time>2015-05-14T11:38:04.000Z</time>
      </trkpt>
      <trkpt lat="45.13476" lon="5.57292">
        <ele>1412.1999511719</ele>
        <time>2015-05-14T11:38:05.000Z</time>
      </trkpt>
      <trkpt lat="45.13464" lon="5.57289">
        <ele>1410</ele>
        <time>2015-05-14T11:38:07.000Z</time>
      </trkpt>
      <trkpt lat="45.13459" lon="5.57289">
        <ele>1409.4000244141</ele>
        <time>2015-05-14T11:38:08.000Z</time>
      </trkpt>
      <trkpt lat="45.13453" lon="5.57286">
        <ele>1409.1999511719</ele>
        <time>2015-05-14T11:38:09.000Z</time>
      </trkpt>
      <trkpt lat="45.13447" lon="5.57283">
        <ele>1409.1999511719</ele>
        <time>2015-05-14T11:38:10.000Z</time>
      </trkpt>
      <trkpt lat="45.1344" lon="5.57279">
        <ele>1409</ele>
        <time>2015-05-14T11:38:11.000Z</time>
      </trkpt>
      <trkpt lat="45.13434" lon="5.57275">
        <ele>1408.8000488281</ele>
        <time>2015-05-14T11:38:12.000Z</time>
      </trkpt>
      <trkpt lat="45.1342" lon="5.57265">
        <ele>1407.1999511719</ele>
        <time>2015-05-14T11:38:14.000Z</time>
      </trkpt>
      <trkpt lat="45.13413" lon="5.57259">
        <ele>1406.8000488281</ele>
        <time>2015-05-14T11:38:15.000Z</time>
      </trkpt>
      <trkpt lat="45.13389" lon="5.5724">
        <ele>1405.4000244141</ele>
        <time>2015-05-14T11:38:18.000Z</time>
      </trkpt>
      <trkpt lat="45.13362" lon="5.57217">
        <ele>1407.1999511719</ele>
        <time>2015-05-14T11:38:22.000Z</time>
      </trkpt>
      <trkpt lat="45.13354" lon="5.57214">
        <ele>1406.4000244141</ele>
        <time>2015-05-14T11:38:23.000Z</time>
      </trkpt>
      <trkpt lat="45.13346" lon="5.5721">
        <ele>1405.5999755859</ele>
        <time>2015-05-14T11:38:24.000Z</time>
      </trkpt>
      <trkpt lat="45.13338" lon="5.57205">
        <ele>1405</ele>
        <time>2015-05-14T11:38:25.000Z</time>
      </trkpt>
      <trkpt lat="45.13331" lon="5.57198">
        <ele>1404.4000244141</ele>
        <time>2015-05-14T11:38:26.000Z</time>
      </trkpt>
      <trkpt lat="45.13304" lon="5.57171">
        <ele>1402.4000244141</ele>
        <time>2015-05-14T11:38:30.000Z</time>
      </trkpt>
      <trkpt lat="45.13277" lon="5.57148">
        <ele>1401.1999511719</ele>
        <time>2015-05-14T11:38:38.000Z</time>
      </trkpt>
      <trkpt lat="45.13273" lon="5.57147">
        <ele>1401</ele>
        <time>2015-05-14T11:38:49.000Z</time>
      </trkpt>
      <trkpt lat="45.13272" lon="5.57147">
        <ele>1400.8000488281</ele>
        <time>2015-05-14T11:38:50.000Z</time>
      </trkpt>
      <trkpt lat="45.13271" lon="5.57147">
        <ele>1400.8000488281</ele>
        <time>2015-05-14T11:38:51.000Z</time>
      </trkpt>
      <trkpt lat="45.13269" lon="5.57147">
        <ele>1400.5999755859</ele>
        <time>2015-05-14T11:38:52.000Z</time>
      </trkpt>
      <trkpt lat="45.13266" lon="5.57146">
        <ele>1400.4000244141</ele>
        <time>2015-05-14T11:38:53.000Z</time>
      </trkpt>
      <trkpt lat="45.13254" lon="5.57142">
        <ele>1399.8000488281</ele>
        <time>2015-05-14T11:38:58.000Z</time>
      </trkpt>
      <trkpt lat="45.13252" lon="5.57139">
        <ele>1399.8000488281</ele>
        <time>2015-05-14T11:38:59.000Z</time>
      </trkpt>
      <trkpt lat="45.13249" lon="5.57137">
        <ele>1399.5999755859</ele>
        <time>2015-05-14T11:39:00.000Z</time>
      </trkpt>
      <trkpt lat="45.13231" lon="5.57125">
        <ele>1398.4000244141</ele>
        <time>2015-05-14T11:39:05.000Z</time>
      </trkpt>
      <trkpt lat="45.13226" lon="5.57124">
        <ele>1398</ele>
        <time>2015-05-14T11:39:06.000Z</time>
      </trkpt>
      <trkpt lat="45.1322" lon="5.57125">
        <ele>1397.5999755859</ele>
        <time>2015-05-14T11:39:07.000Z</time>
      </trkpt>
      <trkpt lat="45.13215" lon="5.57127">
        <ele>1397.1999511719</ele>
        <time>2015-05-14T11:39:08.000Z</time>
      </trkpt>
      <trkpt lat="45.1321" lon="5.57129">
        <ele>1396.8000488281</ele>
        <time>2015-05-14T11:39:09.000Z</time>
      </trkpt>
      <trkpt lat="45.13205" lon="5.57132">
        <ele>1396</ele>
        <time>2015-05-14T11:39:10.000Z</time>
      </trkpt>
      <trkpt lat="45.132" lon="5.57133">
        <ele>1394.1999511719</ele>
        <time>2015-05-14T11:39:11.000Z</time>
      </trkpt>
      <trkpt lat="45.13194" lon="5.57132">
        <ele>1392.8000488281</ele>
        <time>2015-05-14T11:39:12.000Z</time>
      </trkpt>
      <trkpt lat="45.1319" lon="5.57129">
        <ele>1392.1999511719</ele>
        <time>2015-05-14T11:39:13.000Z</time>
      </trkpt>
      <trkpt lat="45.13185" lon="5.57126">
        <ele>1391.4000244141</ele>
        <time>2015-05-14T11:39:14.000Z</time>
      </trkpt>
      <trkpt lat="45.13181" lon="5.57123">
        <ele>1390.8000488281</ele>
        <time>2015-05-14T11:39:15.000Z</time>
      </trkpt>
      <trkpt lat="45.13171" lon="5.57118">
        <ele>1389</ele>
        <time>2015-05-14T11:39:17.000Z</time>
      </trkpt>
      <trkpt lat="45.13155" lon="5.57113">
        <ele>1385.4000244141</ele>
        <time>2015-05-14T11:39:20.000Z</time>
      </trkpt>
      <trkpt lat="45.13148" lon="5.57108">
        <ele>1384.4000244141</ele>
        <time>2015-05-14T11:39:22.000Z</time>
      </trkpt>
      <trkpt lat="45.13137" lon="5.57101">
        <ele>1382.8000488281</ele>
        <time>2015-05-14T11:39:24.000Z</time>
      </trkpt>
      <trkpt lat="45.13132" lon="5.57096">
        <ele>1382.1999511719</ele>
        <time>2015-05-14T11:39:25.000Z</time>
      </trkpt>
      <trkpt lat="45.13127" lon="5.57096">
        <ele>1381</ele>
        <time>2015-05-14T11:39:26.000Z</time>
      </trkpt>
      <trkpt lat="45.13124" lon="5.57097">
        <ele>1380.1999511719</ele>
        <time>2015-05-14T11:39:27.000Z</time>
      </trkpt>
      <trkpt lat="45.13116" lon="5.57101">
        <ele>1378.4000244141</ele>
        <time>2015-05-14T11:39:30.000Z</time>
      </trkpt>
      <trkpt lat="45.13087" lon="5.57089">
        <ele>1377</ele>
        <time>2015-05-14T11:39:36.000Z</time>
      </trkpt>
      <trkpt lat="45.13075" lon="5.57086">
        <ele>1375</ele>
        <time>2015-05-14T11:39:38.000Z</time>
      </trkpt>
      <trkpt lat="45.13062" lon="5.57076">
        <ele>1374.5999755859</ele>
        <time>2015-05-14T11:39:41.000Z</time>
      </trkpt>
      <trkpt lat="45.13057" lon="5.57076">
        <ele>1373.1999511719</ele>
        <time>2015-05-14T11:39:42.000Z</time>
      </trkpt>
      <trkpt lat="45.13033" lon="5.57083">
        <ele>1362.8000488281</ele>
        <time>2015-05-14T11:39:46.000Z</time>
      </trkpt>
      <trkpt lat="45.13021" lon="5.57094">
        <ele>1354.5999755859</ele>
        <time>2015-05-14T11:39:53.000Z</time>
      </trkpt>
      <trkpt lat="45.13017" lon="5.57091">
        <ele>1355</ele>
        <time>2015-05-14T11:39:56.000Z</time>
      </trkpt>
      <trkpt lat="45.13009" lon="5.57093">
        <ele>1352</ele>
        <time>2015-05-14T11:40:03.000Z</time>
      </trkpt>
      <trkpt lat="45.12997" lon="5.57083">
        <ele>1353.4000244141</ele>
        <time>2015-05-14T11:40:08.000Z</time>
      </trkpt>
      <trkpt lat="45.12986" lon="5.57075">
        <ele>1354.1999511719</ele>
        <time>2015-05-14T11:40:12.000Z</time>
      </trkpt>
      <trkpt lat="45.12967" lon="5.57078">
        <ele>1344.8000488281</ele>
        <time>2015-05-14T11:40:17.000Z</time>
      </trkpt>
      <trkpt lat="45.12939" lon="5.57061">
        <ele>1344.1999511719</ele>
        <time>2015-05-14T11:40:22.000Z</time>
      </trkpt>
      <trkpt lat="45.12933" lon="5.57058">
        <ele>1344.5999755859</ele>
        <time>2015-05-14T11:40:23.000Z</time>
      </trkpt>
      <trkpt lat="45.12907" lon="5.57037">
        <ele>1342.8000488281</ele>
        <time>2015-05-14T11:40:30.000Z</time>
      </trkpt>
      <trkpt lat="45.12891" lon="5.5704">
        <ele>1336.8000488281</ele>
        <time>2015-05-14T11:40:35.000Z</time>
      </trkpt>
      <trkpt lat="45.1288" lon="5.57035">
        <ele>1334.4000244141</ele>
        <time>2015-05-14T11:40:38.000Z</time>
      </trkpt>
      <trkpt lat="45.12869" lon="5.57032">
        <ele>1332.1999511719</ele>
        <time>2015-05-14T11:40:42.000Z</time>
      </trkpt>
      <trkpt lat="45.12858" lon="5.57028">
        <ele>1331</ele>
        <time>2015-05-14T11:40:46.000Z</time>
      </trkpt>
      <trkpt lat="45.12835" lon="5.57019">
        <ele>1326.5999755859</ele>
        <time>2015-05-14T11:40:50.000Z</time>
      </trkpt>
      <trkpt lat="45.12825" lon="5.57011">
        <ele>1325.5999755859</ele>
        <time>2015-05-14T11:40:56.000Z</time>
      </trkpt>
      <trkpt lat="45.12788" lon="5.5699">
        <ele>1321.1999511719</ele>
        <time>2015-05-14T11:41:03.000Z</time>
      </trkpt>
      <trkpt lat="45.12767" lon="5.56981">
        <ele>1320.1999511719</ele>
        <time>2015-05-14T11:41:10.000Z</time>
      </trkpt>
      <trkpt lat="45.12755" lon="5.56968">
        <ele>1323.1999511719</ele>
        <time>2015-05-14T11:41:23.000Z</time>
      </trkpt>
      <trkpt lat="45.12752" lon="5.56964">
        <ele>1322.5999755859</ele>
        <time>2015-05-14T11:41:56.000Z</time>
      </trkpt>
      <trkpt lat="45.1275" lon="5.5696">
        <ele>1322.5999755859</ele>
        <time>2015-05-14T11:42:27.000Z</time>
      </trkpt>
      <trkpt lat="45.12747" lon="5.56955">
        <ele>1322.4000244141</ele>
        <time>2015-05-14T11:42:30.000Z</time>
      </trkpt>
      <trkpt lat="45.12743" lon="5.56954">
        <ele>1321.4000244141</ele>
        <time>2015-05-14T11:42:32.000Z</time>
      </trkpt>
      <trkpt lat="45.12733" lon="5.56954">
        <ele>1318.8000488281</ele>
        <time>2015-05-14T11:42:35.000Z</time>
      </trkpt>
      <trkpt lat="45.1273" lon="5.56953">
        <ele>1318.1999511719</ele>
        <time>2015-05-14T11:42:36.000Z</time>
      </trkpt>
      <trkpt lat="45.12724" lon="5.56947">
        <ele>1317.1999511719</ele>
        <time>2015-05-14T11:42:38.000Z</time>
      </trkpt>
      <trkpt lat="45.12722" lon="5.56947">
        <ele>1316.5999755859</ele>
        <time>2015-05-14T11:42:39.000Z</time>
      </trkpt>
      <trkpt lat="45.1272" lon="5.56947">
        <ele>1316</ele>
        <time>2015-05-14T11:42:40.000Z</time>
      </trkpt>
      <trkpt lat="45.12714" lon="5.56942">
        <ele>1315</ele>
        <time>2015-05-14T11:42:53.000Z</time>
      </trkpt>
      <trkpt lat="45.12714" lon="5.56942">
        <ele>1315</ele>
        <time>2015-05-14T11:42:55.000Z</time>
      </trkpt>
      <trkpt lat="45.12717" lon="5.56929">
        <ele>1317</ele>
        <time>2015-05-14T11:43:00.000Z</time>
      </trkpt>
      <trkpt lat="45.1273" lon="5.56891">
        <ele>1322</ele>
        <time>2015-05-14T11:43:09.000Z</time>
      </trkpt>
      <trkpt lat="45.12734" lon="5.56876">
        <ele>1321.1999511719</ele>
        <time>2015-05-14T11:43:12.000Z</time>
      </trkpt>
      <trkpt lat="45.12736" lon="5.56867">
        <ele>1320.1999511719</ele>
        <time>2015-05-14T11:43:15.000Z</time>
      </trkpt>
      <trkpt lat="45.12727" lon="5.56868">
        <ele>1318.8000488281</ele>
        <time>2015-05-14T11:43:19.000Z</time>
      </trkpt>
      <trkpt lat="45.12725" lon="5.56864">
        <ele>1318</ele>
        <time>2015-05-14T11:43:21.000Z</time>
      </trkpt>
      <trkpt lat="45.12723" lon="5.56858">
        <ele>1316.8000488281</ele>
        <time>2015-05-14T11:43:24.000Z</time>
      </trkpt>
      <trkpt lat="45.12727" lon="5.56847">
        <ele>1315.5999755859</ele>
        <time>2015-05-14T11:43:28.000Z</time>
      </trkpt>
      <trkpt lat="45.12729" lon="5.56844">
        <ele>1315.5999755859</ele>
        <time>2015-05-14T11:43:29.000Z</time>
      </trkpt>
      <trkpt lat="45.1273" lon="5.56842">
        <ele>1315.4000244141</ele>
        <time>2015-05-14T11:43:30.000Z</time>
      </trkpt>
      <trkpt lat="45.12723" lon="5.56832">
        <ele>1312.8000488281</ele>
        <time>2015-05-14T11:43:33.000Z</time>
      </trkpt>
      <trkpt lat="45.12702" lon="5.56822">
        <ele>1308.4000244141</ele>
        <time>2015-05-14T11:43:37.000Z</time>
      </trkpt>
      <trkpt lat="45.12691" lon="5.56818">
        <ele>1306.8000488281</ele>
        <time>2015-05-14T11:43:39.000Z</time>
      </trkpt>
      <trkpt lat="45.12678" lon="5.56812">
        <ele>1304.4000244141</ele>
        <time>2015-05-14T11:43:41.000Z</time>
      </trkpt>
      <trkpt lat="45.12659" lon="5.5681">
        <ele>1302.4000244141</ele>
        <time>2015-05-14T11:43:44.000Z</time>
      </trkpt>
      <trkpt lat="45.1265" lon="5.56805">
        <ele>1300.8000488281</ele>
        <time>2015-05-14T11:43:46.000Z</time>
      </trkpt>
      <trkpt lat="45.1264" lon="5.568">
        <ele>1299.1999511719</ele>
        <time>2015-05-14T11:43:48.000Z</time>
      </trkpt>
      <trkpt lat="45.12622" lon="5.56779">
        <ele>1294.5999755859</ele>
        <time>2015-05-14T11:43:52.000Z</time>
      </trkpt>
      <trkpt lat="45.12611" lon="5.56776">
        <ele>1292.1999511719</ele>
        <time>2015-05-14T11:43:54.000Z</time>
      </trkpt>
      <trkpt lat="45.12589" lon="5.56781">
        <ele>1289</ele>
        <time>2015-05-14T11:43:57.000Z</time>
      </trkpt>
      <trkpt lat="45.1256" lon="5.56786">
        <ele>1284.5999755859</ele>
        <time>2015-05-14T11:44:01.000Z</time>
      </trkpt>
      <trkpt lat="45.12534" lon="5.56791">
        <ele>1280.8000488281</ele>
        <time>2015-05-14T11:44:07.000Z</time>
      </trkpt>
      <trkpt lat="45.12522" lon="5.56795">
        <ele>1279.8000488281</ele>
        <time>2015-05-14T11:44:23.000Z</time>
      </trkpt>
      <trkpt lat="45.12519" lon="5.56794">
        <ele>1279.1999511719</ele>
        <time>2015-05-14T11:44:25.000Z</time>
      </trkpt>
      <trkpt lat="45.12513" lon="5.5679">
        <ele>1277.5999755859</ele>
        <time>2015-05-14T11:44:27.000Z</time>
      </trkpt>
      <trkpt lat="45.12504" lon="5.56786">
        <ele>1275.5999755859</ele>
        <time>2015-05-14T11:44:29.000Z</time>
      </trkpt>
      <trkpt lat="45.12484" lon="5.56782">
        <ele>1271.8000488281</ele>
        <time>2015-05-14T11:44:33.000Z</time>
      </trkpt>
      <trkpt lat="45.12479" lon="5.56776">
        <ele>1270.1999511719</ele>
        <time>2015-05-14T11:44:42.000Z</time>
      </trkpt>
      <trkpt lat="45.12478" lon="5.56774">
        <ele>1269.8000488281</ele>
        <time>2015-05-14T11:44:43.000Z</time>
      </trkpt>
      <trkpt lat="45.12469" lon="5.56768">
        <ele>1267.4000244141</ele>
        <time>2015-05-14T11:44:47.000Z</time>
      </trkpt>
      <trkpt lat="45.12462" lon="5.56772">
        <ele>1267</ele>
        <time>2015-05-14T11:44:51.000Z</time>
      </trkpt>
      <trkpt lat="45.12455" lon="5.56775">
        <ele>1266.8000488281</ele>
        <time>2015-05-14T11:44:54.000Z</time>
      </trkpt>
      <trkpt lat="45.12448" lon="5.56777">
        <ele>1266.5999755859</ele>
        <time>2015-05-14T11:44:57.000Z</time>
      </trkpt>
      <trkpt lat="45.12428" lon="5.56784">
        <ele>1265</ele>
        <time>2015-05-14T11:45:06.000Z</time>
      </trkpt>
      <trkpt lat="45.12397" lon="5.56806">
        <ele>1261.1999511719</ele>
        <time>2015-05-14T11:45:18.000Z</time>
      </trkpt>
      <trkpt lat="45.12392" lon="5.56811">
        <ele>1260</ele>
        <time>2015-05-14T11:45:20.000Z</time>
      </trkpt>
      <trkpt lat="45.12388" lon="5.56822">
        <ele>1256.1999511719</ele>
        <time>2015-05-14T11:45:24.000Z</time>
      </trkpt>
      <trkpt lat="45.12384" lon="5.56828">
        <ele>1253.5999755859</ele>
        <time>2015-05-14T11:45:26.000Z</time>
      </trkpt>
      <trkpt lat="45.12374" lon="5.56833">
        <ele>1249.4000244141</ele>
        <time>2015-05-14T11:45:33.000Z</time>
      </trkpt>
      <trkpt lat="45.12365" lon="5.56834">
        <ele>1247</ele>
        <time>2015-05-14T11:45:38.000Z</time>
      </trkpt>
      <trkpt lat="45.12361" lon="5.56833">
        <ele>1246.5999755859</ele>
        <time>2015-05-14T11:45:39.000Z</time>
      </trkpt>
      <trkpt lat="45.12344" lon="5.56834">
        <ele>1242.8000488281</ele>
        <time>2015-05-14T11:45:43.000Z</time>
      </trkpt>
      <trkpt lat="45.12329" lon="5.56833">
        <ele>1240</ele>
        <time>2015-05-14T11:45:46.000Z</time>
      </trkpt>
      <trkpt lat="45.12309" lon="5.56829">
        <ele>1236.4000244141</ele>
        <time>2015-05-14T11:45:50.000Z</time>
      </trkpt>
      <trkpt lat="45.123" lon="5.56821">
        <ele>1236.8000488281</ele>
        <time>2015-05-14T11:45:53.000Z</time>
      </trkpt>
      <trkpt lat="45.12286" lon="5.5684">
        <ele>1227.1999511719</ele>
        <time>2015-05-14T11:45:59.000Z</time>
      </trkpt>
      <trkpt lat="45.12282" lon="5.56842">
        <ele>1225.5999755859</ele>
        <time>2015-05-14T11:46:00.000Z</time>
      </trkpt>
      <trkpt lat="45.12256" lon="5.56841">
        <ele>1220</ele>
        <time>2015-05-14T11:46:05.000Z</time>
      </trkpt>
      <trkpt lat="45.12253" lon="5.56842">
        <ele>1219</ele>
        <time>2015-05-14T11:46:06.000Z</time>
      </trkpt>
      <trkpt lat="45.12249" lon="5.56845">
        <ele>1217</ele>
        <time>2015-05-14T11:46:08.000Z</time>
      </trkpt>
      <trkpt lat="45.12243" lon="5.56847">
        <ele>1215.1999511719</ele>
        <time>2015-05-14T11:46:10.000Z</time>
      </trkpt>
      <trkpt lat="45.12229" lon="5.56846">
        <ele>1212.8000488281</ele>
        <time>2015-05-14T11:46:13.000Z</time>
      </trkpt>
      <trkpt lat="45.1221" lon="5.56841">
        <ele>1210.1999511719</ele>
        <time>2015-05-14T11:46:17.000Z</time>
      </trkpt>
      <trkpt lat="45.12201" lon="5.56841">
        <ele>1208.4000244141</ele>
        <time>2015-05-14T11:46:19.000Z</time>
      </trkpt>
      <trkpt lat="45.12196" lon="5.56848">
        <ele>1205.4000244141</ele>
        <time>2015-05-14T11:46:21.000Z</time>
      </trkpt>
      <trkpt lat="45.12184" lon="5.56851">
        <ele>1202</ele>
        <time>2015-05-14T11:46:26.000Z</time>
      </trkpt>
      <trkpt lat="45.12171" lon="5.56854">
        <ele>1198.4000244141</ele>
        <time>2015-05-14T11:46:29.000Z</time>
      </trkpt>
      <trkpt lat="45.12165" lon="5.56862">
        <ele>1195</ele>
        <time>2015-05-14T11:46:32.000Z</time>
      </trkpt>
      <trkpt lat="45.12146" lon="5.56865">
        <ele>1190.5999755859</ele>
        <time>2015-05-14T11:46:39.000Z</time>
      </trkpt>
      <trkpt lat="45.12139" lon="5.56861">
        <ele>1190.5999755859</ele>
        <time>2015-05-14T11:46:49.000Z</time>
      </trkpt>
      <trkpt lat="45.12134" lon="5.56859">
        <ele>1190.1999511719</ele>
        <time>2015-05-14T11:47:10.000Z</time>
      </trkpt>
      <trkpt lat="45.12132" lon="5.56861">
        <ele>1189.1999511719</ele>
        <time>2015-05-14T11:47:14.000Z</time>
      </trkpt>
      <trkpt lat="45.1213" lon="5.56867">
        <ele>1187.4000244141</ele>
        <time>2015-05-14T11:47:21.000Z</time>
      </trkpt>
      <trkpt lat="45.12121" lon="5.56866">
        <ele>1185.4000244141</ele>
        <time>2015-05-14T11:47:29.000Z</time>
      </trkpt>
      <trkpt lat="45.12118" lon="5.56872">
        <ele>1183.4000244141</ele>
        <time>2015-05-14T11:47:35.000Z</time>
      </trkpt>
      <trkpt lat="45.12113" lon="5.56872">
        <ele>1182</ele>
        <time>2015-05-14T11:47:39.000Z</time>
      </trkpt>
      <trkpt lat="45.12105" lon="5.5687">
        <ele>1180.5999755859</ele>
        <time>2015-05-14T11:47:41.000Z</time>
      </trkpt>
      <trkpt lat="45.121" lon="5.56868">
        <ele>1180</ele>
        <time>2015-05-14T11:47:42.000Z</time>
      </trkpt>
      <trkpt lat="45.12094" lon="5.56866">
        <ele>1179.4000244141</ele>
        <time>2015-05-14T11:47:43.000Z</time>
      </trkpt>
      <trkpt lat="45.12084" lon="5.56859">
        <ele>1178.5999755859</ele>
        <time>2015-05-14T11:47:45.000Z</time>
      </trkpt>
      <trkpt lat="45.12081" lon="5.56855">
        <ele>1178.8000488281</ele>
        <time>2015-05-14T11:47:46.000Z</time>
      </trkpt>
      <trkpt lat="45.12073" lon="5.56843">
        <ele>1180</ele>
        <time>2015-05-14T11:47:49.000Z</time>
      </trkpt>
      <trkpt lat="45.12048" lon="5.56834">
        <ele>1176.8000488281</ele>
        <time>2015-05-14T11:47:56.000Z</time>
      </trkpt>
      <trkpt lat="45.12026" lon="5.56833">
        <ele>1172.1999511719</ele>
        <time>2015-05-14T11:48:06.000Z</time>
      </trkpt>
      <trkpt lat="45.1202" lon="5.56833">
        <ele>1171</ele>
        <time>2015-05-14T11:48:26.000Z</time>
      </trkpt>
      <trkpt lat="45.12014" lon="5.56832">
        <ele>1169.8000488281</ele>
        <time>2015-05-14T11:48:27.000Z</time>
      </trkpt>
      <trkpt lat="45.12009" lon="5.56832">
        <ele>1168.8000488281</ele>
        <time>2015-05-14T11:48:28.000Z</time>
      </trkpt>
      <trkpt lat="45.12006" lon="5.56833">
        <ele>1168</ele>
        <time>2015-05-14T11:48:29.000Z</time>
      </trkpt>
      <trkpt lat="45.12003" lon="5.56831">
        <ele>1167.5999755859</ele>
        <time>2015-05-14T11:48:32.000Z</time>
      </trkpt>
      <trkpt lat="45.1199" lon="5.5681">
        <ele>1170.1999511719</ele>
        <time>2015-05-14T11:48:39.000Z</time>
      </trkpt>
      <trkpt lat="45.11988" lon="5.5681">
        <ele>1170</ele>
        <time>2015-05-14T11:48:40.000Z</time>
      </trkpt>
      <trkpt lat="45.11978" lon="5.56836">
        <ele>1161.1999511719</ele>
        <time>2015-05-14T11:48:46.000Z</time>
      </trkpt>
      <trkpt lat="45.11976" lon="5.56838">
        <ele>1160.4000244141</ele>
        <time>2015-05-14T11:48:47.000Z</time>
      </trkpt>
      <trkpt lat="45.11971" lon="5.56839">
        <ele>1159</ele>
        <time>2015-05-14T11:48:50.000Z</time>
      </trkpt>
      <trkpt lat="45.11969" lon="5.5684">
        <ele>1158.4000244141</ele>
        <time>2015-05-14T11:48:52.000Z</time>
      </trkpt>
      <trkpt lat="45.11955" lon="5.56843">
        <ele>1154.5999755859</ele>
        <time>2015-05-14T11:49:00.000Z</time>
      </trkpt>
      <trkpt lat="45.11954" lon="5.56846">
        <ele>1153.5999755859</ele>
        <time>2015-05-14T11:49:01.000Z</time>
      </trkpt>
      <trkpt lat="45.11949" lon="5.56847">
        <ele>1152.1999511719</ele>
        <time>2015-05-14T11:49:03.000Z</time>
      </trkpt>
      <trkpt lat="45.11948" lon="5.56847">
        <ele>1152</ele>
        <time>2015-05-14T11:49:04.000Z</time>
      </trkpt>
      <trkpt lat="45.11947" lon="5.56847">
        <ele>1151.5999755859</ele>
        <time>2015-05-14T11:49:05.000Z</time>
      </trkpt>
      <trkpt lat="45.11943" lon="5.56848">
        <ele>1150.4000244141</ele>
        <time>2015-05-14T11:49:11.000Z</time>
      </trkpt>
      <trkpt lat="45.11941" lon="5.5685">
        <ele>1149.4000244141</ele>
        <time>2015-05-14T11:49:13.000Z</time>
      </trkpt>
      <trkpt lat="45.11939" lon="5.56849">
        <ele>1149</ele>
        <time>2015-05-14T11:49:14.000Z</time>
      </trkpt>
      <trkpt lat="45.11937" lon="5.56848">
        <ele>1149</ele>
        <time>2015-05-14T11:49:15.000Z</time>
      </trkpt>
      <trkpt lat="45.11936" lon="5.56846">
        <ele>1149.1999511719</ele>
        <time>2015-05-14T11:49:16.000Z</time>
      </trkpt>
      <trkpt lat="45.11934" lon="5.56845">
        <ele>1148.8000488281</ele>
        <time>2015-05-14T11:49:19.000Z</time>
      </trkpt>
      <trkpt lat="45.11933" lon="5.56846">
        <ele>1148.1999511719</ele>
        <time>2015-05-14T11:49:20.000Z</time>
      </trkpt>
      <trkpt lat="45.11929" lon="5.56846">
        <ele>1147.5999755859</ele>
        <time>2015-05-14T11:49:24.000Z</time>
      </trkpt>
      <trkpt lat="45.11928" lon="5.56846">
        <ele>1147.1999511719</ele>
        <time>2015-05-14T11:49:25.000Z</time>
      </trkpt>
      <trkpt lat="45.11926" lon="5.56847">
        <ele>1146.1999511719</ele>
        <time>2015-05-14T11:49:26.000Z</time>
      </trkpt>
      <trkpt lat="45.11922" lon="5.56849">
        <ele>1145</ele>
        <time>2015-05-14T11:49:27.000Z</time>
      </trkpt>
      <trkpt lat="45.11917" lon="5.56845">
        <ele>1144.5999755859</ele>
        <time>2015-05-14T11:49:31.000Z</time>
      </trkpt>
      <trkpt lat="45.11904" lon="5.56849">
        <ele>1141</ele>
        <time>2015-05-14T11:49:36.000Z</time>
      </trkpt>
      <trkpt lat="45.11899" lon="5.56853">
        <ele>1139.4000244141</ele>
        <time>2015-05-14T11:49:37.000Z</time>
      </trkpt>
      <trkpt lat="45.11897" lon="5.56854">
        <ele>1138.5999755859</ele>
        <time>2015-05-14T11:49:38.000Z</time>
      </trkpt>
      <trkpt lat="45.11892" lon="5.56855">
        <ele>1137.4000244141</ele>
        <time>2015-05-14T11:49:39.000Z</time>
      </trkpt>
      <trkpt lat="45.11889" lon="5.56854">
        <ele>1136.8000488281</ele>
        <time>2015-05-14T11:49:40.000Z</time>
      </trkpt>
      <trkpt lat="45.11883" lon="5.56847">
        <ele>1137</ele>
        <time>2015-05-14T11:49:43.000Z</time>
      </trkpt>
      <trkpt lat="45.11881" lon="5.56847">
        <ele>1136.4000244141</ele>
        <time>2015-05-14T11:49:44.000Z</time>
      </trkpt>
      <trkpt lat="45.11879" lon="5.56848">
        <ele>1136</ele>
        <time>2015-05-14T11:49:45.000Z</time>
      </trkpt>
      <trkpt lat="45.11877" lon="5.56849">
        <ele>1135.1999511719</ele>
        <time>2015-05-14T11:49:46.000Z</time>
      </trkpt>
      <trkpt lat="45.11875" lon="5.56851">
        <ele>1134.1999511719</ele>
        <time>2015-05-14T11:49:47.000Z</time>
      </trkpt>
      <trkpt lat="45.11872" lon="5.56851">
        <ele>1133</ele>
        <time>2015-05-14T11:50:00.000Z</time>
      </trkpt>
      <trkpt lat="45.11871" lon="5.56851">
        <ele>1132.5999755859</ele>
        <time>2015-05-14T11:50:19.000Z</time>
      </trkpt>
      <trkpt lat="45.11871" lon="5.5685">
        <ele>1132.5999755859</ele>
        <time>2015-05-14T11:50:21.000Z</time>
      </trkpt>
      <trkpt lat="45.11864" lon="5.56846">
        <ele>1131</ele>
        <time>2015-05-14T11:50:25.000Z</time>
      </trkpt>
      <trkpt lat="45.11861" lon="5.56844">
        <ele>1130.1999511719</ele>
        <time>2015-05-14T11:50:27.000Z</time>
      </trkpt>
      <trkpt lat="45.11858" lon="5.56844">
        <ele>1129.1999511719</ele>
        <time>2015-05-14T11:50:29.000Z</time>
      </trkpt>
      <trkpt lat="45.11856" lon="5.56846">
        <ele>1128</ele>
        <time>2015-05-14T11:50:30.000Z</time>
      </trkpt>
      <trkpt lat="45.11854" lon="5.56847">
        <ele>1127</ele>
        <time>2015-05-14T11:50:31.000Z</time>
      </trkpt>
      <trkpt lat="45.11853" lon="5.5684">
        <ele>1128</ele>
        <time>2015-05-14T11:50:36.000Z</time>
      </trkpt>
      <trkpt lat="45.11849" lon="5.56842">
        <ele>1126.1999511719</ele>
        <time>2015-05-14T11:50:39.000Z</time>
      </trkpt>
      <trkpt lat="45.11846" lon="5.56841">
        <ele>1125.4000244141</ele>
        <time>2015-05-14T11:50:40.000Z</time>
      </trkpt>
      <trkpt lat="45.11846" lon="5.56836">
        <ele>1126.4000244141</ele>
        <time>2015-05-14T11:50:43.000Z</time>
      </trkpt>
      <trkpt lat="45.11841" lon="5.56834">
        <ele>1124.8000488281</ele>
        <time>2015-05-14T11:50:47.000Z</time>
      </trkpt>
      <trkpt lat="45.11842" lon="5.56827">
        <ele>1126.8000488281</ele>
        <time>2015-05-14T11:50:49.000Z</time>
      </trkpt>
      <trkpt lat="45.1184" lon="5.56819">
        <ele>1127.5999755859</ele>
        <time>2015-05-14T11:50:52.000Z</time>
      </trkpt>
      <trkpt lat="45.11834" lon="5.56811">
        <ele>1127</ele>
        <time>2015-05-14T11:50:56.000Z</time>
      </trkpt>
      <trkpt lat="45.11831" lon="5.56803">
        <ele>1127.4000244141</ele>
        <time>2015-05-14T11:50:58.000Z</time>
      </trkpt>
      <trkpt lat="45.11828" lon="5.568">
        <ele>1127</ele>
        <time>2015-05-14T11:50:59.000Z</time>
      </trkpt>
      <trkpt lat="45.11825" lon="5.56803">
        <ele>1125.1999511719</ele>
        <time>2015-05-14T11:51:01.000Z</time>
      </trkpt>
      <trkpt lat="45.11823" lon="5.56808">
        <ele>1123.8000488281</ele>
        <time>2015-05-14T11:51:02.000Z</time>
      </trkpt>
      <trkpt lat="45.11823" lon="5.5681">
        <ele>1123</ele>
        <time>2015-05-14T11:51:03.000Z</time>
      </trkpt>
      <trkpt lat="45.11822" lon="5.56814">
        <ele>1121.8000488281</ele>
        <time>2015-05-14T11:51:04.000Z</time>
      </trkpt>
      <trkpt lat="45.11821" lon="5.56818">
        <ele>1120.8000488281</ele>
        <time>2015-05-14T11:51:05.000Z</time>
      </trkpt>
      <trkpt lat="45.1182" lon="5.56821">
        <ele>1120</ele>
        <time>2015-05-14T11:51:06.000Z</time>
      </trkpt>
      <trkpt lat="45.1182" lon="5.56823">
        <ele>1119.1999511719</ele>
        <time>2015-05-14T11:51:07.000Z</time>
      </trkpt>
      <trkpt lat="45.11819" lon="5.56825">
        <ele>1118.4000244141</ele>
        <time>2015-05-14T11:51:08.000Z</time>
      </trkpt>
      <trkpt lat="45.118" lon="5.56863">
        <ele>1111.1999511719</ele>
        <time>2015-05-14T11:51:21.000Z</time>
      </trkpt>
      <trkpt lat="45.118" lon="5.56865">
        <ele>1110.8000488281</ele>
        <time>2015-05-14T11:51:22.000Z</time>
      </trkpt>
      <trkpt lat="45.11799" lon="5.56868">
        <ele>1110.4000244141</ele>
        <time>2015-05-14T11:51:23.000Z</time>
      </trkpt>
      <trkpt lat="45.11798" lon="5.5687">
        <ele>1110</ele>
        <time>2015-05-14T11:51:24.000Z</time>
      </trkpt>
      <trkpt lat="45.11797" lon="5.56873">
        <ele>1109.5999755859</ele>
        <time>2015-05-14T11:51:25.000Z</time>
      </trkpt>
      <trkpt lat="45.11796" lon="5.56875">
        <ele>1109.1999511719</ele>
        <time>2015-05-14T11:51:39.000Z</time>
      </trkpt>
      <trkpt lat="45.11794" lon="5.56876">
        <ele>1108.5999755859</ele>
        <time>2015-05-14T11:51:54.000Z</time>
      </trkpt>
      <trkpt lat="45.11791" lon="5.56873">
        <ele>1108</ele>
        <time>2015-05-14T11:51:57.000Z</time>
      </trkpt>
      <trkpt lat="45.11782" lon="5.56879">
        <ele>1105</ele>
        <time>2015-05-14T11:52:03.000Z</time>
      </trkpt>
      <trkpt lat="45.11776" lon="5.5689">
        <ele>1100.8000488281</ele>
        <time>2015-05-14T11:52:07.000Z</time>
      </trkpt>
      <trkpt lat="45.11775" lon="5.5689">
        <ele>1100.5999755859</ele>
        <time>2015-05-14T11:52:08.000Z</time>
      </trkpt>
      <trkpt lat="45.11769" lon="5.56891">
        <ele>1098.8000488281</ele>
        <time>2015-05-14T11:52:13.000Z</time>
      </trkpt>
      <trkpt lat="45.11764" lon="5.56886">
        <ele>1099</ele>
        <time>2015-05-14T11:52:17.000Z</time>
      </trkpt>
      <trkpt lat="45.1176" lon="5.56901">
        <ele>1092.5999755859</ele>
        <time>2015-05-14T11:52:25.000Z</time>
      </trkpt>
      <trkpt lat="45.11757" lon="5.56899">
        <ele>1092.4000244141</ele>
        <time>2015-05-14T11:52:28.000Z</time>
      </trkpt>
      <trkpt lat="45.11755" lon="5.56899">
        <ele>1092</ele>
        <time>2015-05-14T11:52:30.000Z</time>
      </trkpt>
      <trkpt lat="45.11756" lon="5.56913">
        <ele>1087.1999511719</ele>
        <time>2015-05-14T11:52:36.000Z</time>
      </trkpt>
      <trkpt lat="45.11744" lon="5.56905">
        <ele>1086.5999755859</ele>
        <time>2015-05-14T11:52:42.000Z</time>
      </trkpt>
      <trkpt lat="45.1174" lon="5.56897">
        <ele>1088.4000244141</ele>
        <time>2015-05-14T11:52:45.000Z</time>
      </trkpt>
      <trkpt lat="45.11736" lon="5.56876">
        <ele>1091.8000488281</ele>
        <time>2015-05-14T11:52:50.000Z</time>
      </trkpt>
      <trkpt lat="45.11731" lon="5.56855">
        <ele>1091.8000488281</ele>
        <time>2015-05-14T11:52:54.000Z</time>
      </trkpt>
      <trkpt lat="45.11725" lon="5.56857">
        <ele>1089.8000488281</ele>
        <time>2015-05-14T11:52:58.000Z</time>
      </trkpt>
      <trkpt lat="45.11718" lon="5.56863">
        <ele>1087.5999755859</ele>
        <time>2015-05-14T11:53:01.000Z</time>
      </trkpt>
      <trkpt lat="45.11716" lon="5.56864">
        <ele>1086.8000488281</ele>
        <time>2015-05-14T11:53:03.000Z</time>
      </trkpt>
      <trkpt lat="45.11715" lon="5.56862">
        <ele>1086.8000488281</ele>
        <time>2015-05-14T11:53:05.000Z</time>
      </trkpt>
      <trkpt lat="45.1172" lon="5.56836">
        <ele>1089.5999755859</ele>
        <time>2015-05-14T11:53:12.000Z</time>
      </trkpt>
      <trkpt lat="45.11713" lon="5.5683">
        <ele>1088.1999511719</ele>
        <time>2015-05-14T11:53:16.000Z</time>
      </trkpt>
      <trkpt lat="45.11688" lon="5.56826">
        <ele>1081.5999755859</ele>
        <time>2015-05-14T11:53:28.000Z</time>
      </trkpt>
      <trkpt lat="45.11683" lon="5.56827">
        <ele>1080.4000244141</ele>
        <time>2015-05-14T11:53:34.000Z</time>
      </trkpt>
      <trkpt lat="45.11678" lon="5.56829">
        <ele>1078.8000488281</ele>
        <time>2015-05-14T11:53:39.000Z</time>
      </trkpt>
      <trkpt lat="45.11674" lon="5.56826">
        <ele>1078</ele>
        <time>2015-05-14T11:53:56.000Z</time>
      </trkpt>
      <trkpt lat="45.11673" lon="5.56834">
        <ele>1077</ele>
        <time>2015-05-14T11:54:27.000Z</time>
      </trkpt>
      <trkpt lat="45.11671" lon="5.56833">
        <ele>1076.5999755859</ele>
        <time>2015-05-14T11:54:33.000Z</time>
      </trkpt>
      <trkpt lat="45.11663" lon="5.56833">
        <ele>1074.8000488281</ele>
        <time>2015-05-14T11:54:38.000Z</time>
      </trkpt>
      <trkpt lat="45.11663" lon="5.56834">
        <ele>1074.5999755859</ele>
        <time>2015-05-14T11:54:41.000Z</time>
      </trkpt>
      <trkpt lat="45.11664" lon="5.5684">
        <ele>1074.4000244141</ele>
        <time>2015-05-14T11:54:44.000Z</time>
      </trkpt>
      <trkpt lat="45.11666" lon="5.56842">
        <ele>1074.5999755859</ele>
        <time>2015-05-14T11:54:45.000Z</time>
      </trkpt>
      <trkpt lat="45.11665" lon="5.56846">
        <ele>1073.8000488281</ele>
        <time>2015-05-14T11:54:48.000Z</time>
      </trkpt>
      <trkpt lat="45.11665" lon="5.56849">
        <ele>1073.1999511719</ele>
        <time>2015-05-14T11:54:50.000Z</time>
      </trkpt>
      <trkpt lat="45.11669" lon="5.56854">
        <ele>1073.8000488281</ele>
        <time>2015-05-14T11:54:57.000Z</time>
      </trkpt>
      <trkpt lat="45.11664" lon="5.56855">
        <ele>1071.5999755859</ele>
        <time>2015-05-14T11:55:08.000Z</time>
      </trkpt>
      <trkpt lat="45.11655" lon="5.56853">
        <ele>1068.8000488281</ele>
        <time>2015-05-14T11:55:17.000Z</time>
      </trkpt>
      <trkpt lat="45.11652" lon="5.56853">
        <ele>1067.8000488281</ele>
        <time>2015-05-14T11:55:19.000Z</time>
      </trkpt>
      <trkpt lat="45.11649" lon="5.56858">
        <ele>1065.8000488281</ele>
        <time>2015-05-14T11:55:23.000Z</time>
      </trkpt>
      <trkpt lat="45.1165" lon="5.56859">
        <ele>1066</ele>
        <time>2015-05-14T11:55:25.000Z</time>
      </trkpt>
      <trkpt lat="45.11647" lon="5.56886">
        <ele>1059.8000488281</ele>
        <time>2015-05-14T11:55:33.000Z</time>
      </trkpt>
      <trkpt lat="45.11633" lon="5.56912">
        <ele>1047.8000488281</ele>
        <time>2015-05-14T11:55:42.000Z</time>
      </trkpt>
      <trkpt lat="45.11632" lon="5.56956">
        <ele>1035.8000488281</ele>
        <time>2015-05-14T11:55:55.000Z</time>
      </trkpt>
      <trkpt lat="45.11653" lon="5.56991">
        <ele>1031</ele>
        <time>2015-05-14T11:56:06.000Z</time>
      </trkpt>
      <trkpt lat="45.1166" lon="5.57013">
        <ele>1028.5999755859</ele>
        <time>2015-05-14T11:56:10.000Z</time>
      </trkpt>
      <trkpt lat="45.11663" lon="5.57025">
        <ele>1027.4000244141</ele>
        <time>2015-05-14T11:56:12.000Z</time>
      </trkpt>
      <trkpt lat="45.11663" lon="5.57031">
        <ele>1026.8000488281</ele>
        <time>2015-05-14T11:56:13.000Z</time>
      </trkpt>
      <trkpt lat="45.11662" lon="5.57037">
        <ele>1026</ele>
        <time>2015-05-14T11:56:14.000Z</time>
      </trkpt>
      <trkpt lat="45.11658" lon="5.57041">
        <ele>1025.1999511719</ele>
        <time>2015-05-14T11:56:15.000Z</time>
      </trkpt>
      <trkpt lat="45.11653" lon="5.57046">
        <ele>1024.4000244141</ele>
        <time>2015-05-14T11:56:16.000Z</time>
      </trkpt>
      <trkpt lat="45.11647" lon="5.57051">
        <ele>1023.5999755859</ele>
        <time>2015-05-14T11:56:17.000Z</time>
      </trkpt>
      <trkpt lat="45.11642" lon="5.57056">
        <ele>1022.200012207</ele>
        <time>2015-05-14T11:56:18.000Z</time>
      </trkpt>
      <trkpt lat="45.11633" lon="5.57068">
        <ele>1020.5999755859</ele>
        <time>2015-05-14T11:56:20.000Z</time>
      </trkpt>
      <trkpt lat="45.11625" lon="5.5708">
        <ele>1019.200012207</ele>
        <time>2015-05-14T11:56:23.000Z</time>
      </trkpt>
      <trkpt lat="45.11625" lon="5.57085">
        <ele>1018.5999755859</ele>
        <time>2015-05-14T11:56:24.000Z</time>
      </trkpt>
      <trkpt lat="45.11627" lon="5.5709">
        <ele>1018.200012207</ele>
        <time>2015-05-14T11:56:25.000Z</time>
      </trkpt>
      <trkpt lat="45.11545" lon="5.56972">
        <ele>1016.2</ele>
      </trkpt>
      <trkpt lat="45.11242" lon="5.56855">
        <ele>1001</ele>
      </trkpt>
      <trkpt lat="45.11193" lon="5.56946">
        <ele>994.6</ele>
      </trkpt>
      <trkpt lat="45.10955" lon="5.57074">
        <ele>986.5</ele>
      </trkpt>
      <trkpt lat="45.10904" lon="5.57147">
        <ele>989.5</ele>
      </trkpt>
      <trkpt lat="45.10489" lon="5.56662">
        <ele>991.2</ele>
      </trkpt>
      <trkpt lat="45.09679" lon="5.55943">
        <ele>981.1</ele>
      </trkpt>
      <trkpt lat="45.09631" lon="5.55896">
        <ele>1116.2</ele>
        <time>2020-08-23T09:50:34Z</time>
      </trkpt>
      <trkpt lat="45.0963" lon="5.55899">
        <ele>1115.8</ele>
        <time>2020-08-23T09:50:35Z</time>
      </trkpt>
      <trkpt lat="45.09629" lon="5.55902">
        <ele>1115.4</ele>
        <time>2020-08-23T09:50:36Z</time>
      </trkpt>
      <trkpt lat="45.09628" lon="5.55907">
        <ele>1115</ele>
        <time>2020-08-23T09:50:37Z</time>
      </trkpt>
      <trkpt lat="45.09626" lon="5.5591">
        <ele>1114.4</ele>
        <time>2020-08-23T09:50:38Z</time>
      </trkpt>
      <trkpt lat="45.09624" lon="5.55914">
        <ele>1114</ele>
        <time>2020-08-23T09:50:39Z</time>
      </trkpt>
      <trkpt lat="45.09622" lon="5.55917">
        <ele>1113.6</ele>
        <time>2020-08-23T09:50:40Z</time>
      </trkpt>
      <trkpt lat="45.0962" lon="5.5592">
        <ele>1113.2</ele>
        <time>2020-08-23T09:50:41Z</time>
      </trkpt>
      <trkpt lat="45.09618" lon="5.55923">
        <ele>1112.6</ele>
        <time>2020-08-23T09:50:42Z</time>
      </trkpt>
      <trkpt lat="45.09615" lon="5.55926">
        <ele>1112.2</ele>
        <time>2020-08-23T09:50:43Z</time>
      </trkpt>
      <trkpt lat="45.09613" lon="5.55929">
        <ele>1111.8</ele>
        <time>2020-08-23T09:50:44Z</time>
      </trkpt>
      <trkpt lat="45.09611" lon="5.55931">
        <ele>1111.4</ele>
        <time>2020-08-23T09:50:45Z</time>
      </trkpt>
      <trkpt lat="45.09608" lon="5.55933">
        <ele>1111</ele>
        <time>2020-08-23T09:50:46Z</time>
      </trkpt>
      <trkpt lat="45.09605" lon="5.55934">
        <ele>1110.6</ele>
        <time>2020-08-23T09:50:47Z</time>
      </trkpt>
      <trkpt lat="45.09602" lon="5.55935">
        <ele>1110</ele>
        <time>2020-08-23T09:50:48Z</time>
      </trkpt>
      <trkpt lat="45.096" lon="5.55936">
        <ele>1109.6</ele>
        <time>2020-08-23T09:50:49Z</time>
      </trkpt>
      <trkpt lat="45.09597" lon="5.55937">
        <ele>1109.2</ele>
        <time>2020-08-23T09:50:50Z</time>
      </trkpt>
      <trkpt lat="45.09594" lon="5.55938">
        <ele>1108.8</ele>
        <time>2020-08-23T09:50:51Z</time>
      </trkpt>
      <trkpt lat="45.09592" lon="5.55939">
        <ele>1108.2</ele>
        <time>2020-08-23T09:50:52Z</time>
      </trkpt>
      <trkpt lat="45.09589" lon="5.55939">
        <ele>1107.8</ele>
        <time>2020-08-23T09:50:53Z</time>
      </trkpt>
      <trkpt lat="45.09587" lon="5.5594">
        <ele>1107.4</ele>
        <time>2020-08-23T09:50:54Z</time>
      </trkpt>
      <trkpt lat="45.09584" lon="5.5594">
        <ele>1107</ele>
        <time>2020-08-23T09:50:55Z</time>
      </trkpt>
      <trkpt lat="45.09582" lon="5.55941">
        <ele>1106.6</ele>
        <time>2020-08-23T09:50:56Z</time>
      </trkpt>
      <trkpt lat="45.0958" lon="5.55941">
        <ele>1106.2</ele>
        <time>2020-08-23T09:50:57Z</time>
      </trkpt>
      <trkpt lat="45.09578" lon="5.55942">
        <ele>1105.8</ele>
        <time>2020-08-23T09:50:58Z</time>
      </trkpt>
      <trkpt lat="45.09575" lon="5.55943">
        <ele>1105.4</ele>
        <time>2020-08-23T09:50:59Z</time>
      </trkpt>
      <trkpt lat="45.09573" lon="5.55944">
        <ele>1105</ele>
        <time>2020-08-23T09:51:00Z</time>
      </trkpt>
      <trkpt lat="45.09571" lon="5.55944">
        <ele>1104.4</ele>
        <time>2020-08-23T09:51:01Z</time>
      </trkpt>
      <trkpt lat="45.09568" lon="5.55945">
        <ele>1104</ele>
        <time>2020-08-23T09:51:02Z</time>
      </trkpt>
      <trkpt lat="45.09566" lon="5.55945">
        <ele>1103.6</ele>
        <time>2020-08-23T09:51:03Z</time>
      </trkpt>
      <trkpt lat="45.09564" lon="5.55946">
        <ele>1103.2</ele>
        <time>2020-08-23T09:51:04Z</time>
      </trkpt>
      <trkpt lat="45.09562" lon="5.55946">
        <ele>1103</ele>
        <time>2020-08-23T09:51:05Z</time>
      </trkpt>
      <trkpt lat="45.0956" lon="5.55947">
        <ele>1102.6</ele>
        <time>2020-08-23T09:51:06Z</time>
      </trkpt>
      <trkpt lat="45.09558" lon="5.55947">
        <ele>1102.2</ele>
        <time>2020-08-23T09:51:07Z</time>
      </trkpt>
      <trkpt lat="45.09557" lon="5.55948">
        <ele>1101.8</ele>
        <time>2020-08-23T09:51:08Z</time>
      </trkpt>
      <trkpt lat="45.09555" lon="5.55948">
        <ele>1101.6</ele>
        <time>2020-08-23T09:51:09Z</time>
      </trkpt>
      <trkpt lat="45.09553" lon="5.55949">
        <ele>1101.2</ele>
        <time>2020-08-23T09:51:10Z</time>
      </trkpt>
      <trkpt lat="45.09551" lon="5.55949">
        <ele>1100.8</ele>
        <time>2020-08-23T09:51:11Z</time>
      </trkpt>
      <trkpt lat="45.0955" lon="5.55951">
        <ele>1100.6</ele>
        <time>2020-08-23T09:51:12Z</time>
      </trkpt>
      <trkpt lat="45.09549" lon="5.55952">
        <ele>1100.4</ele>
        <time>2020-08-23T09:51:13Z</time>
      </trkpt>
      <trkpt lat="45.09547" lon="5.55953">
        <ele>1100</ele>
        <time>2020-08-23T09:51:14Z</time>
      </trkpt>
      <trkpt lat="45.09546" lon="5.55955">
        <ele>1099.8</ele>
        <time>2020-08-23T09:51:15Z</time>
      </trkpt>
      <trkpt lat="45.09544" lon="5.55956">
        <ele>1099.4</ele>
        <time>2020-08-23T09:51:16Z</time>
      </trkpt>
      <trkpt lat="45.09543" lon="5.55957">
        <ele>1099.2</ele>
        <time>2020-08-23T09:51:17Z</time>
      </trkpt>
      <trkpt lat="45.09541" lon="5.55959">
        <ele>1098.8</ele>
        <time>2020-08-23T09:51:18Z</time>
      </trkpt>
      <trkpt lat="45.0954" lon="5.5596">
        <ele>1098.4</ele>
        <time>2020-08-23T09:51:19Z</time>
      </trkpt>
      <trkpt lat="45.09539" lon="5.55962">
        <ele>1098.2</ele>
        <time>2020-08-23T09:51:20Z</time>
      </trkpt>
      <trkpt lat="45.09538" lon="5.55963">
        <ele>1097.8</ele>
        <time>2020-08-23T09:51:21Z</time>
      </trkpt>
      <trkpt lat="45.09536" lon="5.55964">
        <ele>1097.4</ele>
        <time>2020-08-23T09:51:22Z</time>
      </trkpt>
      <trkpt lat="45.09536" lon="5.55966">
        <ele>1097</ele>
        <time>2020-08-23T09:51:23Z</time>
      </trkpt>
      <trkpt lat="45.09535" lon="5.55968">
        <ele>1096.6</ele>
        <time>2020-08-23T09:51:24Z</time>
      </trkpt>
      <trkpt lat="45.09534" lon="5.55971">
        <ele>1096.2</ele>
        <time>2020-08-23T09:51:25Z</time>
      </trkpt>
      <trkpt lat="45.09533" lon="5.55972">
        <ele>1096</ele>
        <time>2020-08-23T09:51:26Z</time>
      </trkpt>
      <trkpt lat="45.09533" lon="5.55974">
        <ele>1093.6</ele>
        <time>2020-08-23T09:52:08Z</time>
      </trkpt>
      <trkpt lat="45.09533" lon="5.55974">
        <ele>1093.8</ele>
        <time>2020-08-23T09:52:09Z</time>
      </trkpt>
      <trkpt lat="45.09533" lon="5.55974">
        <ele>1093.6</ele>
        <time>2020-08-23T09:52:10Z</time>
      </trkpt>
      <trkpt lat="45.09533" lon="5.55974">
        <ele>1093.4</ele>
        <time>2020-08-23T09:52:11Z</time>
      </trkpt>
      <trkpt lat="45.09531" lon="5.55977">
        <ele>1093.2</ele>
        <time>2020-08-23T09:52:12Z</time>
      </trkpt>
      <trkpt lat="45.0953" lon="5.5598">
        <ele>1093</ele>
        <time>2020-08-23T09:52:13Z</time>
      </trkpt>
      <trkpt lat="45.0953" lon="5.55982">
        <ele>1092.6</ele>
        <time>2020-08-23T09:52:14Z</time>
      </trkpt>
      <trkpt lat="45.09529" lon="5.55985">
        <ele>1092.4</ele>
        <time>2020-08-23T09:52:15Z</time>
      </trkpt>
      <trkpt lat="45.09528" lon="5.55987">
        <ele>1092</ele>
        <time>2020-08-23T09:52:16Z</time>
      </trkpt>
      <trkpt lat="45.09527" lon="5.5599">
        <ele>1091.8</ele>
        <time>2020-08-23T09:52:17Z</time>
      </trkpt>
      <trkpt lat="45.09526" lon="5.55992">
        <ele>1091.4</ele>
        <time>2020-08-23T09:52:18Z</time>
      </trkpt>
      <trkpt lat="45.09526" lon="5.55995">
        <ele>1091.2</ele>
        <time>2020-08-23T09:52:19Z</time>
      </trkpt>
      <trkpt lat="45.09525" lon="5.55997">
        <ele>1090.8</ele>
        <time>2020-08-23T09:52:20Z</time>
      </trkpt>
      <trkpt lat="45.09525" lon="5.56">
        <ele>1090.4</ele>
        <time>2020-08-23T09:52:21Z</time>
      </trkpt>
      <trkpt lat="45.09524" lon="5.56002">
        <ele>1090.2</ele>
        <time>2020-08-23T09:52:22Z</time>
      </trkpt>
      <trkpt lat="45.09523" lon="5.56005">
        <ele>1089.8</ele>
        <time>2020-08-23T09:52:23Z</time>
      </trkpt>
      <trkpt lat="45.09523" lon="5.56007">
        <ele>1089.6</ele>
        <time>2020-08-23T09:52:24Z</time>
      </trkpt>
      <trkpt lat="45.09522" lon="5.5601">
        <ele>1089.2</ele>
        <time>2020-08-23T09:52:25Z</time>
      </trkpt>
      <trkpt lat="45.09522" lon="5.56012">
        <ele>1089</ele>
        <time>2020-08-23T09:52:26Z</time>
      </trkpt>
      <trkpt lat="45.09521" lon="5.56015">
        <ele>1088.8</ele>
        <time>2020-08-23T09:52:27Z</time>
      </trkpt>
      <trkpt lat="45.0952" lon="5.56018">
        <ele>1088.4</ele>
        <time>2020-08-23T09:52:28Z</time>
      </trkpt>
      <trkpt lat="45.09519" lon="5.5602">
        <ele>1088.2</ele>
        <time>2020-08-23T09:52:29Z</time>
      </trkpt>
      <trkpt lat="45.09518" lon="5.56023">
        <ele>1087.8</ele>
        <time>2020-08-23T09:52:30Z</time>
      </trkpt>
      <trkpt lat="45.09518" lon="5.56026">
        <ele>1087.6</ele>
        <time>2020-08-23T09:52:31Z</time>
      </trkpt>
      <trkpt lat="45.09517" lon="5.56028">
        <ele>1087.4</ele>
        <time>2020-08-23T09:52:32Z</time>
      </trkpt>
      <trkpt lat="45.09517" lon="5.56031">
        <ele>1087</ele>
        <time>2020-08-23T09:52:33Z</time>
      </trkpt>
      <trkpt lat="45.09516" lon="5.56034">
        <ele>1086.8</ele>
        <time>2020-08-23T09:52:34Z</time>
      </trkpt>
      <trkpt lat="45.09515" lon="5.56036">
        <ele>1086.6</ele>
        <time>2020-08-23T09:52:35Z</time>
      </trkpt>
      <trkpt lat="45.09514" lon="5.56039">
        <ele>1086.4</ele>
        <time>2020-08-23T09:52:36Z</time>
      </trkpt>
      <trkpt lat="45.09513" lon="5.56042">
        <ele>1086.2</ele>
        <time>2020-08-23T09:52:37Z</time>
      </trkpt>
      <trkpt lat="45.09513" lon="5.56044">
        <ele>1086</ele>
        <time>2020-08-23T09:52:38Z</time>
      </trkpt>
      <trkpt lat="45.09512" lon="5.56047">
        <ele>1085.8</ele>
        <time>2020-08-23T09:52:39Z</time>
      </trkpt>
      <trkpt lat="45.0951" lon="5.56049">
        <ele>1085.6</ele>
        <time>2020-08-23T09:52:40Z</time>
      </trkpt>
      <trkpt lat="45.0951" lon="5.56052">
        <ele>1085.4</ele>
        <time>2020-08-23T09:52:41Z</time>
      </trkpt>
      <trkpt lat="45.09509" lon="5.56054">
        <ele>1085.4</ele>
        <time>2020-08-23T09:52:42Z</time>
      </trkpt>
      <trkpt lat="45.09508" lon="5.56056">
        <ele>1085.2</ele>
        <time>2020-08-23T09:52:43Z</time>
      </trkpt>
      <trkpt lat="45.09507" lon="5.56058">
        <ele>1085</ele>
        <time>2020-08-23T09:52:44Z</time>
      </trkpt>
      <trkpt lat="45.09506" lon="5.5606">
        <ele>1084.8</ele>
        <time>2020-08-23T09:52:45Z</time>
      </trkpt>
      <trkpt lat="45.09505" lon="5.56062">
        <ele>1084.8</ele>
        <time>2020-08-23T09:52:46Z</time>
      </trkpt>
      <trkpt lat="45.09504" lon="5.56064">
        <ele>1084.6</ele>
        <time>2020-08-23T09:52:47Z</time>
      </trkpt>
      <trkpt lat="45.09502" lon="5.56066">
        <ele>1084.6</ele>
        <time>2020-08-23T09:52:48Z</time>
      </trkpt>
      <trkpt lat="45.09501" lon="5.56068">
        <ele>1084.4</ele>
        <time>2020-08-23T09:52:49Z</time>
      </trkpt>
      <trkpt lat="45.09499" lon="5.5607">
        <ele>1084.4</ele>
        <time>2020-08-23T09:52:50Z</time>
      </trkpt>
      <trkpt lat="45.09498" lon="5.56072">
        <ele>1084.2</ele>
        <time>2020-08-23T09:52:51Z</time>
      </trkpt>
      <trkpt lat="45.09496" lon="5.56074">
        <ele>1084.2</ele>
        <time>2020-08-23T09:52:52Z</time>
      </trkpt>
      <trkpt lat="45.09495" lon="5.56076">
        <ele>1084</ele>
        <time>2020-08-23T09:52:53Z</time>
      </trkpt>
      <trkpt lat="45.09494" lon="5.56078">
        <ele>1083.8</ele>
        <time>2020-08-23T09:52:54Z</time>
      </trkpt>
      <trkpt lat="45.09493" lon="5.5608">
        <ele>1083.6</ele>
        <time>2020-08-23T09:52:55Z</time>
      </trkpt>
      <trkpt lat="45.09491" lon="5.56081">
        <ele>1083.6</ele>
        <time>2020-08-23T09:52:56Z</time>
      </trkpt>
      <trkpt lat="45.09489" lon="5.56083">
        <ele>1083.4</ele>
        <time>2020-08-23T09:52:57Z</time>
      </trkpt>
      <trkpt lat="45.09488" lon="5.56084">
        <ele>1083.4</ele>
        <time>2020-08-23T09:52:58Z</time>
      </trkpt>
      <trkpt lat="45.09486" lon="5.56086">
        <ele>1083.2</ele>
        <time>2020-08-23T09:52:59Z</time>
      </trkpt>
      <trkpt lat="45.09485" lon="5.56088">
        <ele>1083</ele>
        <time>2020-08-23T09:53:00Z</time>
      </trkpt>
      <trkpt lat="45.09483" lon="5.56089">
        <ele>1083</ele>
        <time>2020-08-23T09:53:01Z</time>
      </trkpt>
      <trkpt lat="45.09481" lon="5.56091">
        <ele>1082.8</ele>
        <time>2020-08-23T09:53:02Z</time>
      </trkpt>
      <trkpt lat="45.0948" lon="5.56093">
        <ele>1082.8</ele>
        <time>2020-08-23T09:53:03Z</time>
      </trkpt>
      <trkpt lat="45.09478" lon="5.56095">
        <ele>1082.6</ele>
        <time>2020-08-23T09:53:04Z</time>
      </trkpt>
      <trkpt lat="45.09477" lon="5.56096">
        <ele>1082.4</ele>
        <time>2020-08-23T09:53:05Z</time>
      </trkpt>
      <trkpt lat="45.09475" lon="5.56098">
        <ele>1082.2</ele>
        <time>2020-08-23T09:53:06Z</time>
      </trkpt>
      <trkpt lat="45.09474" lon="5.561">
        <ele>1082</ele>
        <time>2020-08-23T09:53:07Z</time>
      </trkpt>
      <trkpt lat="45.09472" lon="5.56102">
        <ele>1081.8</ele>
        <time>2020-08-23T09:53:08Z</time>
      </trkpt>
      <trkpt lat="45.0947" lon="5.56103">
        <ele>1081.6</ele>
        <time>2020-08-23T09:53:09Z</time>
      </trkpt>
      <trkpt lat="45.09469" lon="5.56104">
        <ele>1081.4</ele>
        <time>2020-08-23T09:53:10Z</time>
      </trkpt>
      <trkpt lat="45.09467" lon="5.56106">
        <ele>1081.4</ele>
        <time>2020-08-23T09:53:11Z</time>
      </trkpt>
      <trkpt lat="45.09465" lon="5.56107">
        <ele>1081</ele>
        <time>2020-08-23T09:53:12Z</time>
      </trkpt>
      <trkpt lat="45.09463" lon="5.56108">
        <ele>1080.8</ele>
        <time>2020-08-23T09:53:13Z</time>
      </trkpt>
      <trkpt lat="45.09461" lon="5.56109">
        <ele>1080.6</ele>
        <time>2020-08-23T09:53:14Z</time>
      </trkpt>
      <trkpt lat="45.0946" lon="5.56111">
        <ele>1080.4</ele>
        <time>2020-08-23T09:53:15Z</time>
      </trkpt>
      <trkpt lat="45.09458" lon="5.56112">
        <ele>1080.2</ele>
        <time>2020-08-23T09:53:16Z</time>
      </trkpt>
      <trkpt lat="45.09456" lon="5.56113">
        <ele>1080</ele>
        <time>2020-08-23T09:53:17Z</time>
      </trkpt>
      <trkpt lat="45.09455" lon="5.56115">
        <ele>1079.8</ele>
        <time>2020-08-23T09:53:18Z</time>
      </trkpt>
      <trkpt lat="45.09453" lon="5.56116">
        <ele>1079.6</ele>
        <time>2020-08-23T09:53:19Z</time>
      </trkpt>
      <trkpt lat="45.09451" lon="5.56118">
        <ele>1079.4</ele>
        <time>2020-08-23T09:53:20Z</time>
      </trkpt>
      <trkpt lat="45.09449" lon="5.56119">
        <ele>1079.2</ele>
        <time>2020-08-23T09:53:21Z</time>
      </trkpt>
      <trkpt lat="45.09448" lon="5.5612">
        <ele>1079.2</ele>
        <time>2020-08-23T09:53:22Z</time>
      </trkpt>
      <trkpt lat="45.09446" lon="5.56122">
        <ele>1078.8</ele>
        <time>2020-08-23T09:53:23Z</time>
      </trkpt>
      <trkpt lat="45.09445" lon="5.56124">
        <ele>1078.6</ele>
        <time>2020-08-23T09:53:24Z</time>
      </trkpt>
      <trkpt lat="45.09443" lon="5.56125">
        <ele>1078.4</ele>
        <time>2020-08-23T09:53:25Z</time>
      </trkpt>
      <trkpt lat="45.09442" lon="5.56127">
        <ele>1078.2</ele>
        <time>2020-08-23T09:53:26Z</time>
      </trkpt>
      <trkpt lat="45.0944" lon="5.56129">
        <ele>1078</ele>
        <time>2020-08-23T09:53:27Z</time>
      </trkpt>
      <trkpt lat="45.09439" lon="5.56131">
        <ele>1078</ele>
        <time>2020-08-23T09:53:28Z</time>
      </trkpt>
      <trkpt lat="45.09437" lon="5.56133">
        <ele>1077.8</ele>
        <time>2020-08-23T09:53:29Z</time>
      </trkpt>
      <trkpt lat="45.09435" lon="5.56134">
        <ele>1077.6</ele>
        <time>2020-08-23T09:53:30Z</time>
      </trkpt>
      <trkpt lat="45.09434" lon="5.56136">
        <ele>1077.4</ele>
        <time>2020-08-23T09:53:31Z</time>
      </trkpt>
      <trkpt lat="45.09432" lon="5.56138">
        <ele>1077.2</ele>
        <time>2020-08-23T09:53:32Z</time>
      </trkpt>
      <trkpt lat="45.09431" lon="5.5614">
        <ele>1077</ele>
        <time>2020-08-23T09:53:33Z</time>
      </trkpt>
      <trkpt lat="45.09429" lon="5.56141">
        <ele>1076.8</ele>
        <time>2020-08-23T09:53:34Z</time>
      </trkpt>
      <trkpt lat="45.09427" lon="5.56143">
        <ele>1076.6</ele>
        <time>2020-08-23T09:53:35Z</time>
      </trkpt>
      <trkpt lat="45.09425" lon="5.56145">
        <ele>1076.4</ele>
        <time>2020-08-23T09:53:36Z</time>
      </trkpt>
      <trkpt lat="45.09423" lon="5.56147">
        <ele>1076.2</ele>
        <time>2020-08-23T09:53:37Z</time>
      </trkpt>
      <trkpt lat="45.09421" lon="5.56149">
        <ele>1076</ele>
        <time>2020-08-23T09:53:38Z</time>
      </trkpt>
      <trkpt lat="45.09419" lon="5.56152">
        <ele>1075.8</ele>
        <time>2020-08-23T09:53:39Z</time>
      </trkpt>
      <trkpt lat="45.09417" lon="5.56154">
        <ele>1075.6</ele>
        <time>2020-08-23T09:53:40Z</time>
      </trkpt>
      <trkpt lat="45.09415" lon="5.56157">
        <ele>1075.6</ele>
        <time>2020-08-23T09:53:41Z</time>
      </trkpt>
      <trkpt lat="45.09414" lon="5.5616">
        <ele>1075.4</ele>
        <time>2020-08-23T09:53:42Z</time>
      </trkpt>
      <trkpt lat="45.09411" lon="5.56163">
        <ele>1075.2</ele>
        <time>2020-08-23T09:53:43Z</time>
      </trkpt>
      <trkpt lat="45.09409" lon="5.56165">
        <ele>1075</ele>
        <time>2020-08-23T09:53:44Z</time>
      </trkpt>
      <trkpt lat="45.09407" lon="5.56168">
        <ele>1074.6</ele>
        <time>2020-08-23T09:53:45Z</time>
      </trkpt>
      <trkpt lat="45.09405" lon="5.5617">
        <ele>1074.4</ele>
        <time>2020-08-23T09:53:46Z</time>
      </trkpt>
      <trkpt lat="45.09403" lon="5.56172">
        <ele>1074.2</ele>
        <time>2020-08-23T09:53:47Z</time>
      </trkpt>
      <trkpt lat="45.09401" lon="5.56175">
        <ele>1074</ele>
        <time>2020-08-23T09:53:48Z</time>
      </trkpt>
      <trkpt lat="45.09399" lon="5.56177">
        <ele>1073.8</ele>
        <time>2020-08-23T09:53:49Z</time>
      </trkpt>
      <trkpt lat="45.09397" lon="5.5618">
        <ele>1073.6</ele>
        <time>2020-08-23T09:53:50Z</time>
      </trkpt>
      <trkpt lat="45.09395" lon="5.56182">
        <ele>1073.4</ele>
        <time>2020-08-23T09:53:51Z</time>
      </trkpt>
      <trkpt lat="45.09393" lon="5.56185">
        <ele>1073.2</ele>
        <time>2020-08-23T09:53:52Z</time>
      </trkpt>
      <trkpt lat="45.09391" lon="5.56188">
        <ele>1073</ele>
        <time>2020-08-23T09:53:53Z</time>
      </trkpt>
      <trkpt lat="45.0939" lon="5.5619">
        <ele>1072.8</ele>
        <time>2020-08-23T09:53:54Z</time>
      </trkpt>
      <trkpt lat="45.09388" lon="5.56193">
        <ele>1072.6</ele>
        <time>2020-08-23T09:53:55Z</time>
      </trkpt>
      <trkpt lat="45.09386" lon="5.56196">
        <ele>1072.4</ele>
        <time>2020-08-23T09:53:56Z</time>
      </trkpt>
      <trkpt lat="45.09384" lon="5.56199">
        <ele>1072.2</ele>
        <time>2020-08-23T09:53:57Z</time>
      </trkpt>
      <trkpt lat="45.09382" lon="5.56202">
        <ele>1071.8</ele>
        <time>2020-08-23T09:53:58Z</time>
      </trkpt>
      <trkpt lat="45.09381" lon="5.56205">
        <ele>1071.6</ele>
        <time>2020-08-23T09:53:59Z</time>
      </trkpt>
      <trkpt lat="45.09379" lon="5.56208">
        <ele>1071.4</ele>
        <time>2020-08-23T09:54:00Z</time>
      </trkpt>
      <trkpt lat="45.09377" lon="5.56211">
        <ele>1071.2</ele>
        <time>2020-08-23T09:54:01Z</time>
      </trkpt>
      <trkpt lat="45.09376" lon="5.56213">
        <ele>1071</ele>
        <time>2020-08-23T09:54:02Z</time>
      </trkpt>
      <trkpt lat="45.09374" lon="5.56216">
        <ele>1070.8</ele>
        <time>2020-08-23T09:54:03Z</time>
      </trkpt>
      <trkpt lat="45.09373" lon="5.56219">
        <ele>1070.6</ele>
        <time>2020-08-23T09:54:04Z</time>
      </trkpt>
      <trkpt lat="45.09372" lon="5.56222">
        <ele>1070.4</ele>
        <time>2020-08-23T09:54:05Z</time>
      </trkpt>
      <trkpt lat="45.0937" lon="5.56224">
        <ele>1070.2</ele>
        <time>2020-08-23T09:54:06Z</time>
      </trkpt>
      <trkpt lat="45.09369" lon="5.56227">
        <ele>1070</ele>
        <time>2020-08-23T09:54:07Z</time>
      </trkpt>
      <trkpt lat="45.09367" lon="5.5623">
        <ele>1069.8</ele>
        <time>2020-08-23T09:54:08Z</time>
      </trkpt>
      <trkpt lat="45.09366" lon="5.56233">
        <ele>1069.6</ele>
        <time>2020-08-23T09:54:09Z</time>
      </trkpt>
      <trkpt lat="45.09364" lon="5.56236">
        <ele>1069.6</ele>
        <time>2020-08-23T09:54:10Z</time>
      </trkpt>
      <trkpt lat="45.09363" lon="5.56239">
        <ele>1069.4</ele>
        <time>2020-08-23T09:54:11Z</time>
      </trkpt>
      <trkpt lat="45.09362" lon="5.56242">
        <ele>1069.2</ele>
        <time>2020-08-23T09:54:12Z</time>
      </trkpt>
      <trkpt lat="45.09361" lon="5.56244">
        <ele>1069</ele>
        <time>2020-08-23T09:54:13Z</time>
      </trkpt>
      <trkpt lat="45.09359" lon="5.56247">
        <ele>1068.8</ele>
        <time>2020-08-23T09:54:14Z</time>
      </trkpt>
      <trkpt lat="45.09358" lon="5.5625">
        <ele>1068.6</ele>
        <time>2020-08-23T09:54:15Z</time>
      </trkpt>
      <trkpt lat="45.09357" lon="5.56252">
        <ele>1068.4</ele>
        <time>2020-08-23T09:54:16Z</time>
      </trkpt>
      <trkpt lat="45.09356" lon="5.56255">
        <ele>1068</ele>
        <time>2020-08-23T09:54:17Z</time>
      </trkpt>
      <trkpt lat="45.09354" lon="5.56258">
        <ele>1068</ele>
        <time>2020-08-23T09:54:18Z</time>
      </trkpt>
      <trkpt lat="45.09353" lon="5.5626">
        <ele>1067.8</ele>
        <time>2020-08-23T09:54:19Z</time>
      </trkpt>
      <trkpt lat="45.09353" lon="5.56263">
        <ele>1067.6</ele>
        <time>2020-08-23T09:54:20Z</time>
      </trkpt>
      <trkpt lat="45.09351" lon="5.56266">
        <ele>1067.4</ele>
        <time>2020-08-23T09:54:21Z</time>
      </trkpt>
      <trkpt lat="45.09351" lon="5.56268">
        <ele>1067.2</ele>
        <time>2020-08-23T09:54:22Z</time>
      </trkpt>
      <trkpt lat="45.09349" lon="5.56271">
        <ele>1067</ele>
        <time>2020-08-23T09:54:23Z</time>
      </trkpt>
      <trkpt lat="45.09348" lon="5.56273">
        <ele>1067</ele>
        <time>2020-08-23T09:54:24Z</time>
      </trkpt>
      <trkpt lat="45.09347" lon="5.56276">
        <ele>1066.8</ele>
        <time>2020-08-23T09:54:25Z</time>
      </trkpt>
      <trkpt lat="45.09346" lon="5.56278">
        <ele>1066.6</ele>
        <time>2020-08-23T09:54:26Z</time>
      </trkpt>
      <trkpt lat="45.09345" lon="5.56281">
        <ele>1066.6</ele>
        <time>2020-08-23T09:54:27Z</time>
      </trkpt>
      <trkpt lat="45.09344" lon="5.56283">
        <ele>1066.4</ele>
        <time>2020-08-23T09:54:28Z</time>
      </trkpt>
      <trkpt lat="45.09343" lon="5.56286">
        <ele>1066.2</ele>
        <time>2020-08-23T09:54:29Z</time>
      </trkpt>
      <trkpt lat="45.09341" lon="5.56288">
        <ele>1066</ele>
        <time>2020-08-23T09:54:30Z</time>
      </trkpt>
      <trkpt lat="45.0934" lon="5.56291">
        <ele>1065.8</ele>
        <time>2020-08-23T09:54:31Z</time>
      </trkpt>
      <trkpt lat="45.09339" lon="5.56293">
        <ele>1065.6</ele>
        <time>2020-08-23T09:54:32Z</time>
      </trkpt>
      <trkpt lat="45.09338" lon="5.56296">
        <ele>1065.6</ele>
        <time>2020-08-23T09:54:33Z</time>
      </trkpt>
      <trkpt lat="45.09337" lon="5.56298">
        <ele>1065.4</ele>
        <time>2020-08-23T09:54:34Z</time>
      </trkpt>
      <trkpt lat="45.09336" lon="5.563">
        <ele>1065.2</ele>
        <time>2020-08-23T09:54:35Z</time>
      </trkpt>
      <trkpt lat="45.09335" lon="5.56303">
        <ele>1065</ele>
        <time>2020-08-23T09:54:36Z</time>
      </trkpt>
      <trkpt lat="45.09334" lon="5.56305">
        <ele>1064.8</ele>
        <time>2020-08-23T09:54:37Z</time>
      </trkpt>
      <trkpt lat="45.09333" lon="5.56307">
        <ele>1064.6</ele>
        <time>2020-08-23T09:54:38Z</time>
      </trkpt>
      <trkpt lat="45.09332" lon="5.5631">
        <ele>1064.6</ele>
        <time>2020-08-23T09:54:39Z</time>
      </trkpt>
      <trkpt lat="45.09331" lon="5.56312">
        <ele>1064.4</ele>
        <time>2020-08-23T09:54:40Z</time>
      </trkpt>
      <trkpt lat="45.0933" lon="5.56315">
        <ele>1064.4</ele>
        <time>2020-08-23T09:54:41Z</time>
      </trkpt>
      <trkpt lat="45.0933" lon="5.56317">
        <ele>1064.2</ele>
        <time>2020-08-23T09:54:42Z</time>
      </trkpt>
      <trkpt lat="45.09329" lon="5.5632">
        <ele>1064</ele>
        <time>2020-08-23T09:54:43Z</time>
      </trkpt>
      <trkpt lat="45.09328" lon="5.56322">
        <ele>1064</ele>
        <time>2020-08-23T09:54:44Z</time>
      </trkpt>
      <trkpt lat="45.09327" lon="5.56325">
        <ele>1064</ele>
        <time>2020-08-23T09:54:45Z</time>
      </trkpt>
      <trkpt lat="45.09327" lon="5.56327">
        <ele>1063.8</ele>
        <time>2020-08-23T09:54:46Z</time>
      </trkpt>
      <trkpt lat="45.09326" lon="5.56329">
        <ele>1063.8</ele>
        <time>2020-08-23T09:54:47Z</time>
      </trkpt>
      <trkpt lat="45.09325" lon="5.56332">
        <ele>1063.6</ele>
        <time>2020-08-23T09:54:48Z</time>
      </trkpt>
      <trkpt lat="45.09325" lon="5.56334">
        <ele>1063.6</ele>
        <time>2020-08-23T09:54:49Z</time>
      </trkpt>
      <trkpt lat="45.09324" lon="5.56337">
        <ele>1063.4</ele>
        <time>2020-08-23T09:54:50Z</time>
      </trkpt>
      <trkpt lat="45.09324" lon="5.56339">
        <ele>1063.4</ele>
        <time>2020-08-23T09:54:51Z</time>
      </trkpt>
      <trkpt lat="45.09323" lon="5.56341">
        <ele>1063.2</ele>
        <time>2020-08-23T09:54:52Z</time>
      </trkpt>
      <trkpt lat="45.09322" lon="5.56344">
        <ele>1063</ele>
        <time>2020-08-23T09:54:53Z</time>
      </trkpt>
      <trkpt lat="45.09322" lon="5.56346">
        <ele>1063</ele>
        <time>2020-08-23T09:54:54Z</time>
      </trkpt>
      <trkpt lat="45.09321" lon="5.56348">
        <ele>1062.8</ele>
        <time>2020-08-23T09:54:55Z</time>
      </trkpt>
      <trkpt lat="45.0932" lon="5.56351">
        <ele>1062.8</ele>
        <time>2020-08-23T09:54:56Z</time>
      </trkpt>
      <trkpt lat="45.0932" lon="5.56353">
        <ele>1062.6</ele>
        <time>2020-08-23T09:54:57Z</time>
      </trkpt>
      <trkpt lat="45.09319" lon="5.56355">
        <ele>1062.6</ele>
        <time>2020-08-23T09:54:58Z</time>
      </trkpt>
      <trkpt lat="45.09318" lon="5.56358">
        <ele>1062.4</ele>
        <time>2020-08-23T09:54:59Z</time>
      </trkpt>
      <trkpt lat="45.09317" lon="5.5636">
        <ele>1062.4</ele>
        <time>2020-08-23T09:55:00Z</time>
      </trkpt>
      <trkpt lat="45.09317" lon="5.56362">
        <ele>1062.4</ele>
        <time>2020-08-23T09:55:01Z</time>
      </trkpt>
      <trkpt lat="45.09316" lon="5.56365">
        <ele>1062.2</ele>
        <time>2020-08-23T09:55:02Z</time>
      </trkpt>
      <trkpt lat="45.09315" lon="5.56367">
        <ele>1062.2</ele>
        <time>2020-08-23T09:55:03Z</time>
      </trkpt>
      <trkpt lat="45.09314" lon="5.56369">
        <ele>1062.2</ele>
        <time>2020-08-23T09:55:04Z</time>
      </trkpt>
      <trkpt lat="45.09314" lon="5.56372">
        <ele>1062.2</ele>
        <time>2020-08-23T09:55:05Z</time>
      </trkpt>
      <trkpt lat="45.09313" lon="5.56373">
        <ele>1062</ele>
        <time>2020-08-23T09:55:06Z</time>
      </trkpt>
      <trkpt lat="45.09312" lon="5.56375">
        <ele>1062</ele>
        <time>2020-08-23T09:55:07Z</time>
      </trkpt>
      <trkpt lat="45.09311" lon="5.56377">
        <ele>1062</ele>
        <time>2020-08-23T09:55:08Z</time>
      </trkpt>
      <trkpt lat="45.09309" lon="5.56378">
        <ele>1062</ele>
        <time>2020-08-23T09:55:09Z</time>
      </trkpt>
      <trkpt lat="45.09308" lon="5.5638">
        <ele>1061.8</ele>
        <time>2020-08-23T09:55:10Z</time>
      </trkpt>
      <trkpt lat="45.09306" lon="5.56382">
        <ele>1061.8</ele>
        <time>2020-08-23T09:55:11Z</time>
      </trkpt>
      <trkpt lat="45.09305" lon="5.56384">
        <ele>1061.8</ele>
        <time>2020-08-23T09:55:12Z</time>
      </trkpt>
      <trkpt lat="45.09304" lon="5.56385">
        <ele>1061.8</ele>
        <time>2020-08-23T09:55:13Z</time>
      </trkpt>
      <trkpt lat="45.09304" lon="5.56387">
        <ele>1061.8</ele>
        <time>2020-08-23T09:55:14Z</time>
      </trkpt>
      <trkpt lat="45.09303" lon="5.5639">
        <ele>1061.8</ele>
        <time>2020-08-23T09:55:15Z</time>
      </trkpt>
      <trkpt lat="45.09302" lon="5.56392">
        <ele>1061.8</ele>
        <time>2020-08-23T09:55:16Z</time>
      </trkpt>
      <trkpt lat="45.09301" lon="5.56394">
        <ele>1061.8</ele>
        <time>2020-08-23T09:55:17Z</time>
      </trkpt>
      <trkpt lat="45.093" lon="5.56396">
        <ele>1061.8</ele>
        <time>2020-08-23T09:55:18Z</time>
      </trkpt>
      <trkpt lat="45.09299" lon="5.56398">
        <ele>1061.8</ele>
        <time>2020-08-23T09:55:19Z</time>
      </trkpt>
      <trkpt lat="45.09298" lon="5.564">
        <ele>1061.8</ele>
        <time>2020-08-23T09:55:20Z</time>
      </trkpt>
      <trkpt lat="45.09297" lon="5.56402">
        <ele>1061.8</ele>
        <time>2020-08-23T09:55:21Z</time>
      </trkpt>
      <trkpt lat="45.09296" lon="5.56404">
        <ele>1061.8</ele>
        <time>2020-08-23T09:55:22Z</time>
      </trkpt>
      <trkpt lat="45.09295" lon="5.56406">
        <ele>1061.8</ele>
        <time>2020-08-23T09:55:23Z</time>
      </trkpt>
      <trkpt lat="45.09294" lon="5.56408">
        <ele>1061.8</ele>
        <time>2020-08-23T09:55:24Z</time>
      </trkpt>
      <trkpt lat="45.09293" lon="5.5641">
        <ele>1061.8</ele>
        <time>2020-08-23T09:55:25Z</time>
      </trkpt>
      <trkpt lat="45.09292" lon="5.56412">
        <ele>1061.8</ele>
        <time>2020-08-23T09:55:26Z</time>
      </trkpt>
      <trkpt lat="45.09291" lon="5.56414">
        <ele>1061.8</ele>
        <time>2020-08-23T09:55:27Z</time>
      </trkpt>
      <trkpt lat="45.0929" lon="5.56416">
        <ele>1061.8</ele>
        <time>2020-08-23T09:55:28Z</time>
      </trkpt>
      <trkpt lat="45.09288" lon="5.56418">
        <ele>1061.8</ele>
        <time>2020-08-23T09:55:29Z</time>
      </trkpt>
      <trkpt lat="45.09287" lon="5.5642">
        <ele>1061.8</ele>
        <time>2020-08-23T09:55:30Z</time>
      </trkpt>
      <trkpt lat="45.09286" lon="5.56422">
        <ele>1061.8</ele>
        <time>2020-08-23T09:55:31Z</time>
      </trkpt>
      <trkpt lat="45.09285" lon="5.56425">
        <ele>1061.6</ele>
        <time>2020-08-23T09:55:32Z</time>
      </trkpt>
      <trkpt lat="45.09283" lon="5.56427">
        <ele>1061.6</ele>
        <time>2020-08-23T09:55:33Z</time>
      </trkpt>
      <trkpt lat="45.09282" lon="5.56429">
        <ele>1061.6</ele>
        <time>2020-08-23T09:55:34Z</time>
      </trkpt>
      <trkpt lat="45.09281" lon="5.56432">
        <ele>1061.6</ele>
        <time>2020-08-23T09:55:35Z</time>
      </trkpt>
      <trkpt lat="45.0928" lon="5.56434">
        <ele>1061.4</ele>
        <time>2020-08-23T09:55:36Z</time>
      </trkpt>
      <trkpt lat="45.09279" lon="5.56437">
        <ele>1061.4</ele>
        <time>2020-08-23T09:55:37Z</time>
      </trkpt>
      <trkpt lat="45.09278" lon="5.56439">
        <ele>1061.4</ele>
        <time>2020-08-23T09:55:38Z</time>
      </trkpt>
      <trkpt lat="45.09276" lon="5.56442">
        <ele>1061.4</ele>
        <time>2020-08-23T09:55:39Z</time>
      </trkpt>
      <trkpt lat="45.09275" lon="5.56444">
        <ele>1061.4</ele>
        <time>2020-08-23T09:55:40Z</time>
      </trkpt>
      <trkpt lat="45.09274" lon="5.56446">
        <ele>1061.4</ele>
        <time>2020-08-23T09:55:41Z</time>
      </trkpt>
      <trkpt lat="45.09272" lon="5.56449">
        <ele>1061.2</ele>
        <time>2020-08-23T09:55:42Z</time>
      </trkpt>
      <trkpt lat="45.09271" lon="5.56451">
        <ele>1061.2</ele>
        <time>2020-08-23T09:55:43Z</time>
      </trkpt>
      <trkpt lat="45.09271" lon="5.56454">
        <ele>1061.2</ele>
        <time>2020-08-23T09:55:44Z</time>
      </trkpt>
      <trkpt lat="45.0927" lon="5.56457">
        <ele>1061.2</ele>
        <time>2020-08-23T09:55:45Z</time>
      </trkpt>
      <trkpt lat="45.09269" lon="5.56459">
        <ele>1061.2</ele>
        <time>2020-08-23T09:55:46Z</time>
      </trkpt>
      <trkpt lat="45.09267" lon="5.56462">
        <ele>1061.2</ele>
        <time>2020-08-23T09:55:47Z</time>
      </trkpt>
      <trkpt lat="45.09266" lon="5.56465">
        <ele>1061</ele>
        <time>2020-08-23T09:55:48Z</time>
      </trkpt>
      <trkpt lat="45.09266" lon="5.56468">
        <ele>1061</ele>
        <time>2020-08-23T09:55:49Z</time>
      </trkpt>
      <trkpt lat="45.09265" lon="5.5647">
        <ele>1061</ele>
        <time>2020-08-23T09:55:50Z</time>
      </trkpt>
      <trkpt lat="45.09264" lon="5.56473">
        <ele>1061</ele>
        <time>2020-08-23T09:55:51Z</time>
      </trkpt>
      <trkpt lat="45.09264" lon="5.56475">
        <ele>1061</ele>
        <time>2020-08-23T09:55:52Z</time>
      </trkpt>
      <trkpt lat="45.09263" lon="5.56478">
        <ele>1061</ele>
        <time>2020-08-23T09:55:53Z</time>
      </trkpt>
      <trkpt lat="45.09262" lon="5.5648">
        <ele>1061</ele>
        <time>2020-08-23T09:55:54Z</time>
      </trkpt>
      <trkpt lat="45.09261" lon="5.56483">
        <ele>1061</ele>
        <time>2020-08-23T09:55:55Z</time>
      </trkpt>
      <trkpt lat="45.09259" lon="5.56486">
        <ele>1060.8</ele>
        <time>2020-08-23T09:55:56Z</time>
      </trkpt>
      <trkpt lat="45.09258" lon="5.56489">
        <ele>1060.8</ele>
        <time>2020-08-23T09:55:57Z</time>
      </trkpt>
      <trkpt lat="45.09258" lon="5.56492">
        <ele>1060.6</ele>
        <time>2020-08-23T09:55:58Z</time>
      </trkpt>
      <trkpt lat="45.09256" lon="5.56494">
        <ele>1060.6</ele>
        <time>2020-08-23T09:55:59Z</time>
      </trkpt>
      <trkpt lat="45.09255" lon="5.56497">
        <ele>1060.6</ele>
        <time>2020-08-23T09:56:00Z</time>
      </trkpt>
      <trkpt lat="45.09254" lon="5.565">
        <ele>1060.4</ele>
        <time>2020-08-23T09:56:01Z</time>
      </trkpt>
      <trkpt lat="45.09253" lon="5.56503">
        <ele>1060.4</ele>
        <time>2020-08-23T09:56:02Z</time>
      </trkpt>
      <trkpt lat="45.09251" lon="5.56506">
        <ele>1060.2</ele>
        <time>2020-08-23T09:56:03Z</time>
      </trkpt>
      <trkpt lat="45.0925" lon="5.56509">
        <ele>1060.2</ele>
        <time>2020-08-23T09:56:04Z</time>
      </trkpt>
      <trkpt lat="45.09248" lon="5.56512">
        <ele>1060.2</ele>
        <time>2020-08-23T09:56:05Z</time>
      </trkpt>
      <trkpt lat="45.09246" lon="5.56515">
        <ele>1060</ele>
        <time>2020-08-23T09:56:06Z</time>
      </trkpt>
      <trkpt lat="45.09245" lon="5.56517">
        <ele>1060</ele>
        <time>2020-08-23T09:56:07Z</time>
      </trkpt>
      <trkpt lat="45.09243" lon="5.5652">
        <ele>1060</ele>
        <time>2020-08-23T09:56:08Z</time>
      </trkpt>
      <trkpt lat="45.09242" lon="5.56522">
        <ele>1060</ele>
        <time>2020-08-23T09:56:09Z</time>
      </trkpt>
      <trkpt lat="45.0924" lon="5.56525">
        <ele>1060</ele>
        <time>2020-08-23T09:56:10Z</time>
      </trkpt>
      <trkpt lat="45.09238" lon="5.56527">
        <ele>1060</ele>
        <time>2020-08-23T09:56:11Z</time>
      </trkpt>
      <trkpt lat="45.09236" lon="5.5653">
        <ele>1060</ele>
        <time>2020-08-23T09:56:12Z</time>
      </trkpt>
      <trkpt lat="45.09235" lon="5.56532">
        <ele>1059.8</ele>
        <time>2020-08-23T09:56:13Z</time>
      </trkpt>
      <trkpt lat="45.09233" lon="5.56535">
        <ele>1059.8</ele>
        <time>2020-08-23T09:56:14Z</time>
      </trkpt>
      <trkpt lat="45.09231" lon="5.56538">
        <ele>1059.8</ele>
        <time>2020-08-23T09:56:15Z</time>
      </trkpt>
      <trkpt lat="45.0923" lon="5.5654">
        <ele>1059.8</ele>
        <time>2020-08-23T09:56:16Z</time>
      </trkpt>
      <trkpt lat="45.09228" lon="5.56542">
        <ele>1059.8</ele>
        <time>2020-08-23T09:56:17Z</time>
      </trkpt>
      <trkpt lat="45.09226" lon="5.56545">
        <ele>1059.8</ele>
        <time>2020-08-23T09:56:18Z</time>
      </trkpt>
      <trkpt lat="45.09225" lon="5.56547">
        <ele>1059.8</ele>
        <time>2020-08-23T09:56:19Z</time>
      </trkpt>
      <trkpt lat="45.09223" lon="5.56549">
        <ele>1059.8</ele>
        <time>2020-08-23T09:56:20Z</time>
      </trkpt>
      <trkpt lat="45.09222" lon="5.56551">
        <ele>1059.8</ele>
        <time>2020-08-23T09:56:21Z</time>
      </trkpt>
      <trkpt lat="45.0922" lon="5.56554">
        <ele>1059.8</ele>
        <time>2020-08-23T09:56:22Z</time>
      </trkpt>
      <trkpt lat="45.09218" lon="5.56556">
        <ele>1059.8</ele>
        <time>2020-08-23T09:56:23Z</time>
      </trkpt>
      <trkpt lat="45.09217" lon="5.56558">
        <ele>1059.6</ele>
        <time>2020-08-23T09:56:24Z</time>
      </trkpt>
      <trkpt lat="45.09215" lon="5.5656">
        <ele>1059.6</ele>
        <time>2020-08-23T09:56:25Z</time>
      </trkpt>
      <trkpt lat="45.09213" lon="5.56562">
        <ele>1059.6</ele>
        <time>2020-08-23T09:56:26Z</time>
      </trkpt>
      <trkpt lat="45.09212" lon="5.56564">
        <ele>1059.6</ele>
        <time>2020-08-23T09:56:27Z</time>
      </trkpt>
      <trkpt lat="45.0921" lon="5.56567">
        <ele>1059.6</ele>
        <time>2020-08-23T09:56:28Z</time>
      </trkpt>
      <trkpt lat="45.09208" lon="5.56569">
        <ele>1059.6</ele>
        <time>2020-08-23T09:56:29Z</time>
      </trkpt>
      <trkpt lat="45.09207" lon="5.56571">
        <ele>1059.4</ele>
        <time>2020-08-23T09:56:30Z</time>
      </trkpt>
      <trkpt lat="45.09205" lon="5.56573">
        <ele>1059.4</ele>
        <time>2020-08-23T09:56:31Z</time>
      </trkpt>
      <trkpt lat="45.09203" lon="5.56575">
        <ele>1059.4</ele>
        <time>2020-08-23T09:56:32Z</time>
      </trkpt>
      <trkpt lat="45.09202" lon="5.56577">
        <ele>1059.4</ele>
        <time>2020-08-23T09:56:33Z</time>
      </trkpt>
      <trkpt lat="45.092" lon="5.56579">
        <ele>1059.4</ele>
        <time>2020-08-23T09:56:34Z</time>
      </trkpt>
      <trkpt lat="45.09198" lon="5.56581">
        <ele>1059.4</ele>
        <time>2020-08-23T09:56:35Z</time>
      </trkpt>
      <trkpt lat="45.09196" lon="5.56583">
        <ele>1059.2</ele>
        <time>2020-08-23T09:56:36Z</time>
      </trkpt>
      <trkpt lat="45.09194" lon="5.56585">
        <ele>1059.2</ele>
        <time>2020-08-23T09:56:37Z</time>
      </trkpt>
      <trkpt lat="45.09193" lon="5.56588">
        <ele>1059.2</ele>
        <time>2020-08-23T09:56:38Z</time>
      </trkpt>
      <trkpt lat="45.09191" lon="5.5659">
        <ele>1059</ele>
        <time>2020-08-23T09:56:39Z</time>
      </trkpt>
      <trkpt lat="45.09189" lon="5.56592">
        <ele>1059</ele>
        <time>2020-08-23T09:56:40Z</time>
      </trkpt>
      <trkpt lat="45.09187" lon="5.56594">
        <ele>1058.8</ele>
        <time>2020-08-23T09:56:41Z</time>
      </trkpt>
      <trkpt lat="45.09185" lon="5.56597">
        <ele>1058.8</ele>
        <time>2020-08-23T09:56:42Z</time>
      </trkpt>
      <trkpt lat="45.09184" lon="5.56599">
        <ele>1058.8</ele>
        <time>2020-08-23T09:56:43Z</time>
      </trkpt>
      <trkpt lat="45.09182" lon="5.56601">
        <ele>1058.8</ele>
        <time>2020-08-23T09:56:44Z</time>
      </trkpt>
      <trkpt lat="45.09181" lon="5.56604">
        <ele>1058.6</ele>
        <time>2020-08-23T09:56:45Z</time>
      </trkpt>
      <trkpt lat="45.09179" lon="5.56606">
        <ele>1058.6</ele>
        <time>2020-08-23T09:56:46Z</time>
      </trkpt>
      <trkpt lat="45.09177" lon="5.56609">
        <ele>1058.6</ele>
        <time>2020-08-23T09:56:47Z</time>
      </trkpt>
      <trkpt lat="45.09176" lon="5.56611">
        <ele>1058.4</ele>
        <time>2020-08-23T09:56:48Z</time>
      </trkpt>
      <trkpt lat="45.09174" lon="5.56613">
        <ele>1058.4</ele>
        <time>2020-08-23T09:56:49Z</time>
      </trkpt>
      <trkpt lat="45.09172" lon="5.56615">
        <ele>1058.2</ele>
        <time>2020-08-23T09:56:50Z</time>
      </trkpt>
      <trkpt lat="45.09171" lon="5.56618">
        <ele>1058.2</ele>
        <time>2020-08-23T09:56:51Z</time>
      </trkpt>
      <trkpt lat="45.09169" lon="5.5662">
        <ele>1058.2</ele>
        <time>2020-08-23T09:56:52Z</time>
      </trkpt>
      <trkpt lat="45.09168" lon="5.56622">
        <ele>1058.2</ele>
        <time>2020-08-23T09:56:53Z</time>
      </trkpt>
      <trkpt lat="45.09166" lon="5.56624">
        <ele>1058.2</ele>
        <time>2020-08-23T09:56:54Z</time>
      </trkpt>
      <trkpt lat="45.09165" lon="5.56626">
        <ele>1058.2</ele>
        <time>2020-08-23T09:56:55Z</time>
      </trkpt>
      <trkpt lat="45.09163" lon="5.56629">
        <ele>1058.2</ele>
        <time>2020-08-23T09:56:56Z</time>
      </trkpt>
      <trkpt lat="45.09162" lon="5.56631">
        <ele>1058.2</ele>
        <time>2020-08-23T09:56:57Z</time>
      </trkpt>
      <trkpt lat="45.0916" lon="5.56633">
        <ele>1058.2</ele>
        <time>2020-08-23T09:56:58Z</time>
      </trkpt>
      <trkpt lat="45.09159" lon="5.56635">
        <ele>1058.2</ele>
        <time>2020-08-23T09:56:59Z</time>
      </trkpt>
      <trkpt lat="45.09157" lon="5.56637">
        <ele>1058.2</ele>
        <time>2020-08-23T09:57:00Z</time>
      </trkpt>
      <trkpt lat="45.09155" lon="5.56639">
        <ele>1058.2</ele>
        <time>2020-08-23T09:57:01Z</time>
      </trkpt>
      <trkpt lat="45.09154" lon="5.56641">
        <ele>1058.2</ele>
        <time>2020-08-23T09:57:02Z</time>
      </trkpt>
      <trkpt lat="45.09152" lon="5.56643">
        <ele>1058.2</ele>
        <time>2020-08-23T09:57:03Z</time>
      </trkpt>
      <trkpt lat="45.09151" lon="5.56645">
        <ele>1058.4</ele>
        <time>2020-08-23T09:57:04Z</time>
      </trkpt>
      <trkpt lat="45.09149" lon="5.56647">
        <ele>1058.4</ele>
        <time>2020-08-23T09:57:05Z</time>
      </trkpt>
      <trkpt lat="45.09148" lon="5.56649">
        <ele>1058.4</ele>
        <time>2020-08-23T09:57:06Z</time>
      </trkpt>
      <trkpt lat="45.09146" lon="5.56651">
        <ele>1058.4</ele>
        <time>2020-08-23T09:57:07Z</time>
      </trkpt>
      <trkpt lat="45.09145" lon="5.56654">
        <ele>1058.4</ele>
        <time>2020-08-23T09:57:08Z</time>
      </trkpt>
      <trkpt lat="45.09143" lon="5.56656">
        <ele>1058.4</ele>
        <time>2020-08-23T09:57:09Z</time>
      </trkpt>
      <trkpt lat="45.09142" lon="5.56658">
        <ele>1058.4</ele>
        <time>2020-08-23T09:57:10Z</time>
      </trkpt>
      <trkpt lat="45.0914" lon="5.5666">
        <ele>1058.4</ele>
        <time>2020-08-23T09:57:11Z</time>
      </trkpt>
      <trkpt lat="45.09139" lon="5.56662">
        <ele>1058.4</ele>
        <time>2020-08-23T09:57:12Z</time>
      </trkpt>
      <trkpt lat="45.09137" lon="5.56664">
        <ele>1058.4</ele>
        <time>2020-08-23T09:57:13Z</time>
      </trkpt>
      <trkpt lat="45.09135" lon="5.56666">
        <ele>1058.4</ele>
        <time>2020-08-23T09:57:14Z</time>
      </trkpt>
      <trkpt lat="45.09134" lon="5.56668">
        <ele>1058.4</ele>
        <time>2020-08-23T09:57:15Z</time>
      </trkpt>
      <trkpt lat="45.09132" lon="5.5667">
        <ele>1058.4</ele>
        <time>2020-08-23T09:57:16Z</time>
      </trkpt>
      <trkpt lat="45.09131" lon="5.56672">
        <ele>1058.4</ele>
        <time>2020-08-23T09:57:17Z</time>
      </trkpt>
      <trkpt lat="45.09129" lon="5.56674">
        <ele>1058.4</ele>
        <time>2020-08-23T09:57:18Z</time>
      </trkpt>
      <trkpt lat="45.09127" lon="5.56677">
        <ele>1058.4</ele>
        <time>2020-08-23T09:57:19Z</time>
      </trkpt>
      <trkpt lat="45.09126" lon="5.56679">
        <ele>1058.4</ele>
        <time>2020-08-23T09:57:20Z</time>
      </trkpt>
      <trkpt lat="45.09124" lon="5.56681">
        <ele>1058.2</ele>
        <time>2020-08-23T09:57:21Z</time>
      </trkpt>
      <trkpt lat="45.09123" lon="5.56683">
        <ele>1058.2</ele>
        <time>2020-08-23T09:57:22Z</time>
      </trkpt>
      <trkpt lat="45.09121" lon="5.56686">
        <ele>1058.2</ele>
        <time>2020-08-23T09:57:23Z</time>
      </trkpt>
      <trkpt lat="45.09119" lon="5.56688">
        <ele>1058.2</ele>
        <time>2020-08-23T09:57:24Z</time>
      </trkpt>
      <trkpt lat="45.09118" lon="5.5669">
        <ele>1058.4</ele>
        <time>2020-08-23T09:57:25Z</time>
      </trkpt>
      <trkpt lat="45.09116" lon="5.56691">
        <ele>1058.4</ele>
        <time>2020-08-23T09:57:26Z</time>
      </trkpt>
      <trkpt lat="45.09115" lon="5.56693">
        <ele>1058.4</ele>
        <time>2020-08-23T09:57:27Z</time>
      </trkpt>
      <trkpt lat="45.09113" lon="5.56696">
        <ele>1058.2</ele>
        <time>2020-08-23T09:57:28Z</time>
      </trkpt>
      <trkpt lat="45.09112" lon="5.56697">
        <ele>1058.2</ele>
        <time>2020-08-23T09:57:29Z</time>
      </trkpt>
      <trkpt lat="45.09111" lon="5.56699">
        <ele>1058.2</ele>
        <time>2020-08-23T09:57:30Z</time>
      </trkpt>
      <trkpt lat="45.09109" lon="5.56701">
        <ele>1058</ele>
        <time>2020-08-23T09:57:31Z</time>
      </trkpt>
      <trkpt lat="45.09107" lon="5.56703">
        <ele>1058</ele>
        <time>2020-08-23T09:57:32Z</time>
      </trkpt>
      <trkpt lat="45.09106" lon="5.56705">
        <ele>1058</ele>
        <time>2020-08-23T09:57:33Z</time>
      </trkpt>
      <trkpt lat="45.09104" lon="5.56708">
        <ele>1058</ele>
        <time>2020-08-23T09:57:34Z</time>
      </trkpt>
      <trkpt lat="45.09102" lon="5.5671">
        <ele>1058</ele>
        <time>2020-08-23T09:57:35Z</time>
      </trkpt>
      <trkpt lat="45.09101" lon="5.56712">
        <ele>1058</ele>
        <time>2020-08-23T09:57:36Z</time>
      </trkpt>
      <trkpt lat="45.09099" lon="5.56714">
        <ele>1058</ele>
        <time>2020-08-23T09:57:37Z</time>
      </trkpt>
      <trkpt lat="45.09097" lon="5.56716">
        <ele>1057.8</ele>
        <time>2020-08-23T09:57:38Z</time>
      </trkpt>
      <trkpt lat="45.09095" lon="5.56718">
        <ele>1057.8</ele>
        <time>2020-08-23T09:57:39Z</time>
      </trkpt>
      <trkpt lat="45.09094" lon="5.5672">
        <ele>1057.8</ele>
        <time>2020-08-23T09:57:40Z</time>
      </trkpt>
      <trkpt lat="45.09092" lon="5.56722">
        <ele>1057.8</ele>
        <time>2020-08-23T09:57:41Z</time>
      </trkpt>
      <trkpt lat="45.0909" lon="5.56723">
        <ele>1057.8</ele>
        <time>2020-08-23T09:57:42Z</time>
      </trkpt>
      <trkpt lat="45.09089" lon="5.56725">
        <ele>1057.8</ele>
        <time>2020-08-23T09:57:43Z</time>
      </trkpt>
      <trkpt lat="45.09087" lon="5.56727">
        <ele>1057.8</ele>
        <time>2020-08-23T09:57:44Z</time>
      </trkpt>
      <trkpt lat="45.09085" lon="5.56729">
        <ele>1057.8</ele>
        <time>2020-08-23T09:57:45Z</time>
      </trkpt>
      <trkpt lat="45.09083" lon="5.56731">
        <ele>1057.8</ele>
        <time>2020-08-23T09:57:46Z</time>
      </trkpt>
      <trkpt lat="45.09081" lon="5.56733">
        <ele>1057.8</ele>
        <time>2020-08-23T09:57:47Z</time>
      </trkpt>
      <trkpt lat="45.09079" lon="5.56735">
        <ele>1057.8</ele>
        <time>2020-08-23T09:57:48Z</time>
      </trkpt>
      <trkpt lat="45.09077" lon="5.56737">
        <ele>1057.8</ele>
        <time>2020-08-23T09:57:49Z</time>
      </trkpt>
      <trkpt lat="45.09076" lon="5.56739">
        <ele>1057.8</ele>
        <time>2020-08-23T09:57:50Z</time>
      </trkpt>
      <trkpt lat="45.09074" lon="5.56742">
        <ele>1057.8</ele>
        <time>2020-08-23T09:57:51Z</time>
      </trkpt>
      <trkpt lat="45.09072" lon="5.56744">
        <ele>1057.8</ele>
        <time>2020-08-23T09:57:52Z</time>
      </trkpt>
      <trkpt lat="45.0907" lon="5.56746">
        <ele>1057.8</ele>
        <time>2020-08-23T09:57:53Z</time>
      </trkpt>
      <trkpt lat="45.09068" lon="5.56748">
        <ele>1057.8</ele>
        <time>2020-08-23T09:57:54Z</time>
      </trkpt>
      <trkpt lat="45.09066" lon="5.5675">
        <ele>1057.8</ele>
        <time>2020-08-23T09:57:55Z</time>
      </trkpt>
      <trkpt lat="45.09064" lon="5.56752">
        <ele>1057.8</ele>
        <time>2020-08-23T09:57:56Z</time>
      </trkpt>
      <trkpt lat="45.09062" lon="5.56754">
        <ele>1057.8</ele>
        <time>2020-08-23T09:57:57Z</time>
      </trkpt>
      <trkpt lat="45.0906" lon="5.56756">
        <ele>1057.8</ele>
        <time>2020-08-23T09:57:58Z</time>
      </trkpt>
      <trkpt lat="45.09058" lon="5.56757">
        <ele>1057.8</ele>
        <time>2020-08-23T09:57:59Z</time>
      </trkpt>
      <trkpt lat="45.09056" lon="5.56759">
        <ele>1057.8</ele>
        <time>2020-08-23T09:58:00Z</time>
      </trkpt>
      <trkpt lat="45.09053" lon="5.56761">
        <ele>1057.8</ele>
        <time>2020-08-23T09:58:01Z</time>
      </trkpt>
      <trkpt lat="45.09052" lon="5.56762">
        <ele>1057.8</ele>
        <time>2020-08-23T09:58:02Z</time>
      </trkpt>
      <trkpt lat="45.09049" lon="5.56764">
        <ele>1057.8</ele>
        <time>2020-08-23T09:58:03Z</time>
      </trkpt>
      <trkpt lat="45.09047" lon="5.56766">
        <ele>1057.8</ele>
        <time>2020-08-23T09:58:04Z</time>
      </trkpt>
      <trkpt lat="45.09045" lon="5.56768">
        <ele>1057.8</ele>
        <time>2020-08-23T09:58:05Z</time>
      </trkpt>
      <trkpt lat="45.09043" lon="5.5677">
        <ele>1057.8</ele>
        <time>2020-08-23T09:58:06Z</time>
      </trkpt>
      <trkpt lat="45.09041" lon="5.56773">
        <ele>1057.8</ele>
        <time>2020-08-23T09:58:07Z</time>
      </trkpt>
      <trkpt lat="45.0904" lon="5.56775">
        <ele>1057.6</ele>
        <time>2020-08-23T09:58:08Z</time>
      </trkpt>
      <trkpt lat="45.09038" lon="5.56777">
        <ele>1057.6</ele>
        <time>2020-08-23T09:58:09Z</time>
      </trkpt>
      <trkpt lat="45.09037" lon="5.56779">
        <ele>1057.6</ele>
        <time>2020-08-23T09:58:10Z</time>
      </trkpt>
      <trkpt lat="45.09035" lon="5.56782">
        <ele>1057.6</ele>
        <time>2020-08-23T09:58:11Z</time>
      </trkpt>
      <trkpt lat="45.09033" lon="5.56784">
        <ele>1057.6</ele>
        <time>2020-08-23T09:58:12Z</time>
      </trkpt>
      <trkpt lat="45.09032" lon="5.56786">
        <ele>1057.8</ele>
        <time>2020-08-23T09:58:13Z</time>
      </trkpt>
      <trkpt lat="45.0903" lon="5.56789">
        <ele>1057.8</ele>
        <time>2020-08-23T09:58:14Z</time>
      </trkpt>
      <trkpt lat="45.09029" lon="5.56791">
        <ele>1057.8</ele>
        <time>2020-08-23T09:58:15Z</time>
      </trkpt>
      <trkpt lat="45.09027" lon="5.56794">
        <ele>1057.8</ele>
        <time>2020-08-23T09:58:16Z</time>
      </trkpt>
      <trkpt lat="45.09026" lon="5.56796">
        <ele>1057.8</ele>
        <time>2020-08-23T09:58:17Z</time>
      </trkpt>
      <trkpt lat="45.09024" lon="5.56799">
        <ele>1057.8</ele>
        <time>2020-08-23T09:58:18Z</time>
      </trkpt>
      <trkpt lat="45.09023" lon="5.56801">
        <ele>1057.8</ele>
        <time>2020-08-23T09:58:19Z</time>
      </trkpt>
      <trkpt lat="45.09021" lon="5.56804">
        <ele>1057.8</ele>
        <time>2020-08-23T09:58:20Z</time>
      </trkpt>
      <trkpt lat="45.09019" lon="5.56807">
        <ele>1058</ele>
        <time>2020-08-23T09:58:21Z</time>
      </trkpt>
      <trkpt lat="45.09018" lon="5.56809">
        <ele>1058</ele>
        <time>2020-08-23T09:58:22Z</time>
      </trkpt>
      <trkpt lat="45.09016" lon="5.56812">
        <ele>1058</ele>
        <time>2020-08-23T09:58:23Z</time>
      </trkpt>
      <trkpt lat="45.09015" lon="5.56814">
        <ele>1058</ele>
        <time>2020-08-23T09:58:24Z</time>
      </trkpt>
      <trkpt lat="45.09013" lon="5.56817">
        <ele>1058</ele>
        <time>2020-08-23T09:58:25Z</time>
      </trkpt>
      <trkpt lat="45.09011" lon="5.56819">
        <ele>1058</ele>
        <time>2020-08-23T09:58:26Z</time>
      </trkpt>
      <trkpt lat="45.0901" lon="5.56822">
        <ele>1058.2</ele>
        <time>2020-08-23T09:58:27Z</time>
      </trkpt>
      <trkpt lat="45.09008" lon="5.56825">
        <ele>1058.2</ele>
        <time>2020-08-23T09:58:28Z</time>
      </trkpt>
      <trkpt lat="45.09007" lon="5.56827">
        <ele>1058.2</ele>
        <time>2020-08-23T09:58:29Z</time>
      </trkpt>
      <trkpt lat="45.09005" lon="5.5683">
        <ele>1058</ele>
        <time>2020-08-23T09:58:30Z</time>
      </trkpt>
      <trkpt lat="45.09003" lon="5.56832">
        <ele>1058</ele>
        <time>2020-08-23T09:58:31Z</time>
      </trkpt>
      <trkpt lat="45.09001" lon="5.56834">
        <ele>1058.2</ele>
        <time>2020-08-23T09:58:32Z</time>
      </trkpt>
      <trkpt lat="45.08999" lon="5.56835">
        <ele>1058.2</ele>
        <time>2020-08-23T09:58:33Z</time>
      </trkpt>
      <trkpt lat="45.08997" lon="5.56836">
        <ele>1058.2</ele>
        <time>2020-08-23T09:58:34Z</time>
      </trkpt>
      <trkpt lat="45.08994" lon="5.56837">
        <ele>1058.2</ele>
        <time>2020-08-23T09:58:35Z</time>
      </trkpt>
      <trkpt lat="45.08992" lon="5.56836">
        <ele>1058.2</ele>
        <time>2020-08-23T09:58:36Z</time>
      </trkpt>
      <trkpt lat="45.08989" lon="5.56836">
        <ele>1058.2</ele>
        <time>2020-08-23T09:58:37Z</time>
      </trkpt>
      <trkpt lat="45.08987" lon="5.56836">
        <ele>1058.4</ele>
        <time>2020-08-23T09:58:38Z</time>
      </trkpt>
      <trkpt lat="45.08984" lon="5.56835">
        <ele>1058.2</ele>
        <time>2020-08-23T09:58:39Z</time>
      </trkpt>
      <trkpt lat="45.08981" lon="5.56834">
        <ele>1058.2</ele>
        <time>2020-08-23T09:58:40Z</time>
      </trkpt>
      <trkpt lat="45.08979" lon="5.56833">
        <ele>1058.2</ele>
        <time>2020-08-23T09:58:41Z</time>
      </trkpt>
      <trkpt lat="45.08976" lon="5.56832">
        <ele>1058.2</ele>
        <time>2020-08-23T09:58:42Z</time>
      </trkpt>
      <trkpt lat="45.08973" lon="5.56831">
        <ele>1058.2</ele>
        <time>2020-08-23T09:58:43Z</time>
      </trkpt>
      <trkpt lat="45.0897" lon="5.5683">
        <ele>1058.4</ele>
        <time>2020-08-23T09:58:44Z</time>
      </trkpt>
      <trkpt lat="45.08968" lon="5.5683">
        <ele>1058.4</ele>
        <time>2020-08-23T09:58:45Z</time>
      </trkpt>
      <trkpt lat="45.08965" lon="5.56829">
        <ele>1058.4</ele>
        <time>2020-08-23T09:58:46Z</time>
      </trkpt>
      <trkpt lat="45.08962" lon="5.56828">
        <ele>1058.6</ele>
        <time>2020-08-23T09:58:47Z</time>
      </trkpt>
      <trkpt lat="45.08959" lon="5.56827">
        <ele>1058.8</ele>
        <time>2020-08-23T09:58:48Z</time>
      </trkpt>
      <trkpt lat="45.08956" lon="5.56826">
        <ele>1058.8</ele>
        <time>2020-08-23T09:58:49Z</time>
      </trkpt>
      <trkpt lat="45.08953" lon="5.56826">
        <ele>1058.8</ele>
        <time>2020-08-23T09:58:50Z</time>
      </trkpt>
      <trkpt lat="45.0895" lon="5.56825">
        <ele>1058.8</ele>
        <time>2020-08-23T09:58:51Z</time>
      </trkpt>
      <trkpt lat="45.08948" lon="5.56825">
        <ele>1058.8</ele>
        <time>2020-08-23T09:58:52Z</time>
      </trkpt>
      <trkpt lat="45.08945" lon="5.56824">
        <ele>1058.8</ele>
        <time>2020-08-23T09:58:53Z</time>
      </trkpt>
      <trkpt lat="45.08942" lon="5.56824">
        <ele>1058.8</ele>
        <time>2020-08-23T09:58:54Z</time>
      </trkpt>
      <trkpt lat="45.08939" lon="5.56823">
        <ele>1058.8</ele>
        <time>2020-08-23T09:58:55Z</time>
      </trkpt>
      <trkpt lat="45.08935" lon="5.56823">
        <ele>1058.8</ele>
        <time>2020-08-23T09:58:56Z</time>
      </trkpt>
      <trkpt lat="45.08932" lon="5.56822">
        <ele>1058.8</ele>
        <time>2020-08-23T09:58:57Z</time>
      </trkpt>
      <trkpt lat="45.08928" lon="5.56821">
        <ele>1058.8</ele>
        <time>2020-08-23T09:58:58Z</time>
      </trkpt>
      <trkpt lat="45.08925" lon="5.5682">
        <ele>1058.8</ele>
        <time>2020-08-23T09:58:59Z</time>
      </trkpt>
      <trkpt lat="45.08921" lon="5.5682">
        <ele>1059</ele>
        <time>2020-08-23T09:59:00Z</time>
      </trkpt>
      <trkpt lat="45.08918" lon="5.56819">
        <ele>1058.8</ele>
        <time>2020-08-23T09:59:01Z</time>
      </trkpt>
      <trkpt lat="45.08915" lon="5.56819">
        <ele>1058.8</ele>
        <time>2020-08-23T09:59:02Z</time>
      </trkpt>
      <trkpt lat="45.08912" lon="5.56819">
        <ele>1058.8</ele>
        <time>2020-08-23T09:59:03Z</time>
      </trkpt>
      <trkpt lat="45.08909" lon="5.56819">
        <ele>1058.8</ele>
        <time>2020-08-23T09:59:04Z</time>
      </trkpt>
      <trkpt lat="45.08905" lon="5.56819">
        <ele>1058.8</ele>
        <time>2020-08-23T09:59:05Z</time>
      </trkpt>
      <trkpt lat="45.08902" lon="5.56819">
        <ele>1058.8</ele>
        <time>2020-08-23T09:59:06Z</time>
      </trkpt>
      <trkpt lat="45.08899" lon="5.56819">
        <ele>1058.8</ele>
        <time>2020-08-23T09:59:07Z</time>
      </trkpt>
      <trkpt lat="45.08896" lon="5.5682">
        <ele>1058.8</ele>
        <time>2020-08-23T09:59:08Z</time>
      </trkpt>
      <trkpt lat="45.08892" lon="5.5682">
        <ele>1058.6</ele>
        <time>2020-08-23T09:59:09Z</time>
      </trkpt>
      <trkpt lat="45.08889" lon="5.56821">
        <ele>1058.6</ele>
        <time>2020-08-23T09:59:10Z</time>
      </trkpt>
      <trkpt lat="45.08886" lon="5.56821">
        <ele>1058.8</ele>
        <time>2020-08-23T09:59:11Z</time>
      </trkpt>
      <trkpt lat="45.08883" lon="5.56821">
        <ele>1058.8</ele>
        <time>2020-08-23T09:59:12Z</time>
      </trkpt>
      <trkpt lat="45.0888" lon="5.56821">
        <ele>1058.8</ele>
        <time>2020-08-23T09:59:13Z</time>
      </trkpt>
      <trkpt lat="45.08876" lon="5.5682">
        <ele>1059</ele>
        <time>2020-08-23T09:59:14Z</time>
      </trkpt>
      <trkpt lat="45.08873" lon="5.5682">
        <ele>1059</ele>
        <time>2020-08-23T09:59:15Z</time>
      </trkpt>
      <trkpt lat="45.0887" lon="5.56819">
        <ele>1059</ele>
        <time>2020-08-23T09:59:16Z</time>
      </trkpt>
      <trkpt lat="45.08867" lon="5.56819">
        <ele>1059.2</ele>
        <time>2020-08-23T09:59:17Z</time>
      </trkpt>
      <trkpt lat="45.08864" lon="5.56818">
        <ele>1059.2</ele>
        <time>2020-08-23T09:59:18Z</time>
      </trkpt>
      <trkpt lat="45.08861" lon="5.56818">
        <ele>1059.4</ele>
        <time>2020-08-23T09:59:19Z</time>
      </trkpt>
      <trkpt lat="45.08858" lon="5.56818">
        <ele>1059.4</ele>
        <time>2020-08-23T09:59:20Z</time>
      </trkpt>
      <trkpt lat="45.08854" lon="5.56817">
        <ele>1059.4</ele>
        <time>2020-08-23T09:59:21Z</time>
      </trkpt>
      <trkpt lat="45.08851" lon="5.56817">
        <ele>1059.4</ele>
        <time>2020-08-23T09:59:22Z</time>
      </trkpt>
      <trkpt lat="45.08849" lon="5.56817">
        <ele>1059.6</ele>
        <time>2020-08-23T09:59:23Z</time>
      </trkpt>
      <trkpt lat="45.08846" lon="5.56817">
        <ele>1059.6</ele>
        <time>2020-08-23T09:59:24Z</time>
      </trkpt>
      <trkpt lat="45.08843" lon="5.56817">
        <ele>1059.6</ele>
        <time>2020-08-23T09:59:25Z</time>
      </trkpt>
      <trkpt lat="45.08839" lon="5.56817">
        <ele>1059.8</ele>
        <time>2020-08-23T09:59:26Z</time>
      </trkpt>
      <trkpt lat="45.08837" lon="5.56817">
        <ele>1059.8</ele>
        <time>2020-08-23T09:59:27Z</time>
      </trkpt>
      <trkpt lat="45.08834" lon="5.56817">
        <ele>1059.8</ele>
        <time>2020-08-23T09:59:28Z</time>
      </trkpt>
      <trkpt lat="45.08831" lon="5.56817">
        <ele>1059.8</ele>
        <time>2020-08-23T09:59:29Z</time>
      </trkpt>
      <trkpt lat="45.08828" lon="5.56818">
        <ele>1060</ele>
        <time>2020-08-23T09:59:30Z</time>
      </trkpt>
      <trkpt lat="45.08825" lon="5.56818">
        <ele>1060</ele>
        <time>2020-08-23T09:59:31Z</time>
      </trkpt>
      <trkpt lat="45.08822" lon="5.56819">
        <ele>1060</ele>
        <time>2020-08-23T09:59:32Z</time>
      </trkpt>
      <trkpt lat="45.08819" lon="5.5682">
        <ele>1060</ele>
        <time>2020-08-23T09:59:33Z</time>
      </trkpt>
      <trkpt lat="45.08816" lon="5.5682">
        <ele>1060.2</ele>
        <time>2020-08-23T09:59:34Z</time>
      </trkpt>
      <trkpt lat="45.08813" lon="5.56821">
        <ele>1060.2</ele>
        <time>2020-08-23T09:59:35Z</time>
      </trkpt>
      <trkpt lat="45.08809" lon="5.56821">
        <ele>1060.2</ele>
        <time>2020-08-23T09:59:36Z</time>
      </trkpt>
      <trkpt lat="45.08806" lon="5.56821">
        <ele>1060.4</ele>
        <time>2020-08-23T09:59:37Z</time>
      </trkpt>
      <trkpt lat="45.08803" lon="5.56821">
        <ele>1060.4</ele>
        <time>2020-08-23T09:59:38Z</time>
      </trkpt>
      <trkpt lat="45.088" lon="5.56821">
        <ele>1060.4</ele>
        <time>2020-08-23T09:59:39Z</time>
      </trkpt>
      <trkpt lat="45.08797" lon="5.56821">
        <ele>1060.4</ele>
        <time>2020-08-23T09:59:40Z</time>
      </trkpt>
      <trkpt lat="45.08794" lon="5.5682">
        <ele>1060.4</ele>
        <time>2020-08-23T09:59:41Z</time>
      </trkpt>
      <trkpt lat="45.08791" lon="5.56819">
        <ele>1060.4</ele>
        <time>2020-08-23T09:59:42Z</time>
      </trkpt>
      <trkpt lat="45.08789" lon="5.56818">
        <ele>1060.4</ele>
        <time>2020-08-23T09:59:43Z</time>
      </trkpt>
      <trkpt lat="45.08786" lon="5.56817">
        <ele>1060.4</ele>
        <time>2020-08-23T09:59:44Z</time>
      </trkpt>
      <trkpt lat="45.08783" lon="5.56816">
        <ele>1060.6</ele>
        <time>2020-08-23T09:59:45Z</time>
      </trkpt>
      <trkpt lat="45.0878" lon="5.56816">
        <ele>1060.6</ele>
        <time>2020-08-23T09:59:46Z</time>
      </trkpt>
      <trkpt lat="45.08777" lon="5.56818">
        <ele>1060.6</ele>
        <time>2020-08-23T09:59:47Z</time>
      </trkpt>
      <trkpt lat="45.08774" lon="5.5682">
        <ele>1060.8</ele>
        <time>2020-08-23T09:59:48Z</time>
      </trkpt>
      <trkpt lat="45.08772" lon="5.56824">
        <ele>1060.8</ele>
        <time>2020-08-23T09:59:49Z</time>
      </trkpt>
      <trkpt lat="45.08771" lon="5.56828">
        <ele>1060.8</ele>
        <time>2020-08-23T09:59:50Z</time>
      </trkpt>
      <trkpt lat="45.0877" lon="5.56832">
        <ele>1061</ele>
        <time>2020-08-23T09:59:51Z</time>
      </trkpt>
      <trkpt lat="45.08769" lon="5.56835">
        <ele>1061</ele>
        <time>2020-08-23T09:59:52Z</time>
      </trkpt>
      <trkpt lat="45.08767" lon="5.56839">
        <ele>1061</ele>
        <time>2020-08-23T09:59:53Z</time>
      </trkpt>
      <trkpt lat="45.08766" lon="5.56843">
        <ele>1061</ele>
        <time>2020-08-23T09:59:54Z</time>
      </trkpt>
      <trkpt lat="45.08765" lon="5.56847">
        <ele>1061</ele>
        <time>2020-08-23T09:59:55Z</time>
      </trkpt>
      <trkpt lat="45.08764" lon="5.56851">
        <ele>1061.2</ele>
        <time>2020-08-23T09:59:56Z</time>
      </trkpt>
      <trkpt lat="45.08763" lon="5.56855">
        <ele>1061.2</ele>
        <time>2020-08-23T09:59:57Z</time>
      </trkpt>
      <trkpt lat="45.08762" lon="5.56859">
        <ele>1061.4</ele>
        <time>2020-08-23T09:59:58Z</time>
      </trkpt>
      <trkpt lat="45.0876" lon="5.56862">
        <ele>1061.4</ele>
        <time>2020-08-23T09:59:59Z</time>
      </trkpt>
      <trkpt lat="45.08759" lon="5.56866">
        <ele>1061.4</ele>
        <time>2020-08-23T10:00:00Z</time>
      </trkpt>
      <trkpt lat="45.08757" lon="5.5687">
        <ele>1061.6</ele>
        <time>2020-08-23T10:00:01Z</time>
      </trkpt>
      <trkpt lat="45.08756" lon="5.56873">
        <ele>1061.6</ele>
        <time>2020-08-23T10:00:02Z</time>
      </trkpt>
      <trkpt lat="45.08754" lon="5.56876">
        <ele>1061.8</ele>
        <time>2020-08-23T10:00:03Z</time>
      </trkpt>
      <trkpt lat="45.08752" lon="5.5688">
        <ele>1061.8</ele>
        <time>2020-08-23T10:00:04Z</time>
      </trkpt>
      <trkpt lat="45.08751" lon="5.56883">
        <ele>1061.8</ele>
        <time>2020-08-23T10:00:05Z</time>
      </trkpt>
      <trkpt lat="45.08749" lon="5.56886">
        <ele>1062</ele>
        <time>2020-08-23T10:00:06Z</time>
      </trkpt>
      <trkpt lat="45.08746" lon="5.56889">
        <ele>1062</ele>
        <time>2020-08-23T10:00:07Z</time>
      </trkpt>
      <trkpt lat="45.08744" lon="5.56892">
        <ele>1062</ele>
        <time>2020-08-23T10:00:08Z</time>
      </trkpt>
      <trkpt lat="45.08743" lon="5.56896">
        <ele>1062</ele>
        <time>2020-08-23T10:00:09Z</time>
      </trkpt>
      <trkpt lat="45.0874" lon="5.56899">
        <ele>1062</ele>
        <time>2020-08-23T10:00:10Z</time>
      </trkpt>
      <trkpt lat="45.08738" lon="5.56902">
        <ele>1062</ele>
        <time>2020-08-23T10:00:11Z</time>
      </trkpt>
      <trkpt lat="45.08736" lon="5.56906">
        <ele>1062.2</ele>
        <time>2020-08-23T10:00:12Z</time>
      </trkpt>
      <trkpt lat="45.08735" lon="5.56909">
        <ele>1062.2</ele>
        <time>2020-08-23T10:00:13Z</time>
      </trkpt>
      <trkpt lat="45.08733" lon="5.56913">
        <ele>1062.2</ele>
        <time>2020-08-23T10:00:14Z</time>
      </trkpt>
      <trkpt lat="45.08732" lon="5.56917">
        <ele>1062.2</ele>
        <time>2020-08-23T10:00:15Z</time>
      </trkpt>
      <trkpt lat="45.0873" lon="5.56921">
        <ele>1062.2</ele>
        <time>2020-08-23T10:00:16Z</time>
      </trkpt>
      <trkpt lat="45.08728" lon="5.56925">
        <ele>1062.2</ele>
        <time>2020-08-23T10:00:17Z</time>
      </trkpt>
      <trkpt lat="45.08727" lon="5.56929">
        <ele>1062.2</ele>
        <time>2020-08-23T10:00:18Z</time>
      </trkpt>
      <trkpt lat="45.08725" lon="5.56933">
        <ele>1062.2</ele>
        <time>2020-08-23T10:00:19Z</time>
      </trkpt>
      <trkpt lat="45.08724" lon="5.56937">
        <ele>1062.2</ele>
        <time>2020-08-23T10:00:20Z</time>
      </trkpt>
      <trkpt lat="45.08722" lon="5.56941">
        <ele>1062.2</ele>
        <time>2020-08-23T10:00:21Z</time>
      </trkpt>
      <trkpt lat="45.0872" lon="5.56945">
        <ele>1062.2</ele>
        <time>2020-08-23T10:00:22Z</time>
      </trkpt>
      <trkpt lat="45.08719" lon="5.56949">
        <ele>1062.2</ele>
        <time>2020-08-23T10:00:23Z</time>
      </trkpt>
      <trkpt lat="45.08718" lon="5.56953">
        <ele>1062.2</ele>
        <time>2020-08-23T10:00:24Z</time>
      </trkpt>
      <trkpt lat="45.08716" lon="5.56957">
        <ele>1062.2</ele>
        <time>2020-08-23T10:00:25Z</time>
      </trkpt>
      <trkpt lat="45.08715" lon="5.56961">
        <ele>1062.2</ele>
        <time>2020-08-23T10:00:26Z</time>
      </trkpt>
      <trkpt lat="45.08714" lon="5.56966">
        <ele>1062.2</ele>
        <time>2020-08-23T10:00:27Z</time>
      </trkpt>
      <trkpt lat="45.08712" lon="5.5697">
        <ele>1062.2</ele>
        <time>2020-08-23T10:00:28Z</time>
      </trkpt>
      <trkpt lat="45.08711" lon="5.56974">
        <ele>1062.2</ele>
        <time>2020-08-23T10:00:29Z</time>
      </trkpt>
      <trkpt lat="45.0871" lon="5.56978">
        <ele>1062.2</ele>
        <time>2020-08-23T10:00:30Z</time>
      </trkpt>
      <trkpt lat="45.08708" lon="5.56982">
        <ele>1062.2</ele>
        <time>2020-08-23T10:00:31Z</time>
      </trkpt>
      <trkpt lat="45.08707" lon="5.56987">
        <ele>1062.2</ele>
        <time>2020-08-23T10:00:32Z</time>
      </trkpt>
      <trkpt lat="45.08705" lon="5.56991">
        <ele>1062.2</ele>
        <time>2020-08-23T10:00:33Z</time>
      </trkpt>
      <trkpt lat="45.08704" lon="5.56996">
        <ele>1062.2</ele>
        <time>2020-08-23T10:00:34Z</time>
      </trkpt>
      <trkpt lat="45.08703" lon="5.57">
        <ele>1062.2</ele>
        <time>2020-08-23T10:00:35Z</time>
      </trkpt>
      <trkpt lat="45.08702" lon="5.57004">
        <ele>1062.2</ele>
        <time>2020-08-23T10:00:36Z</time>
      </trkpt>
      <trkpt lat="45.087" lon="5.57008">
        <ele>1062.2</ele>
        <time>2020-08-23T10:00:37Z</time>
      </trkpt>
      <trkpt lat="45.08698" lon="5.57012">
        <ele>1062.2</ele>
        <time>2020-08-23T10:00:38Z</time>
      </trkpt>
      <trkpt lat="45.08696" lon="5.57016">
        <ele>1062.2</ele>
        <time>2020-08-23T10:00:39Z</time>
      </trkpt>
      <trkpt lat="45.08694" lon="5.57019">
        <ele>1062.2</ele>
        <time>2020-08-23T10:00:40Z</time>
      </trkpt>
      <trkpt lat="45.08692" lon="5.57022">
        <ele>1062.2</ele>
        <time>2020-08-23T10:00:41Z</time>
      </trkpt>
      <trkpt lat="45.0869" lon="5.57026">
        <ele>1062.2</ele>
        <time>2020-08-23T10:00:42Z</time>
      </trkpt>
      <trkpt lat="45.08687" lon="5.5703">
        <ele>1062.2</ele>
        <time>2020-08-23T10:00:43Z</time>
      </trkpt>
      <trkpt lat="45.08685" lon="5.57033">
        <ele>1062.2</ele>
        <time>2020-08-23T10:00:44Z</time>
      </trkpt>
      <trkpt lat="45.08683" lon="5.57037">
        <ele>1062.2</ele>
        <time>2020-08-23T10:00:45Z</time>
      </trkpt>
      <trkpt lat="45.08681" lon="5.57041">
        <ele>1062.2</ele>
        <time>2020-08-23T10:00:46Z</time>
      </trkpt>
      <trkpt lat="45.08679" lon="5.57045">
        <ele>1062.2</ele>
        <time>2020-08-23T10:00:47Z</time>
      </trkpt>
      <trkpt lat="45.08677" lon="5.57049">
        <ele>1062.2</ele>
        <time>2020-08-23T10:00:48Z</time>
      </trkpt>
      <trkpt lat="45.08675" lon="5.57053">
        <ele>1062.2</ele>
        <time>2020-08-23T10:00:49Z</time>
      </trkpt>
      <trkpt lat="45.08674" lon="5.57057">
        <ele>1062.2</ele>
        <time>2020-08-23T10:00:50Z</time>
      </trkpt>
      <trkpt lat="45.08672" lon="5.57061">
        <ele>1062.2</ele>
        <time>2020-08-23T10:00:51Z</time>
      </trkpt>
      <trkpt lat="45.08671" lon="5.57066">
        <ele>1062</ele>
        <time>2020-08-23T10:00:52Z</time>
      </trkpt>
      <trkpt lat="45.0867" lon="5.57071">
        <ele>1062</ele>
        <time>2020-08-23T10:00:53Z</time>
      </trkpt>
      <trkpt lat="45.08669" lon="5.57075">
        <ele>1062</ele>
        <time>2020-08-23T10:00:54Z</time>
      </trkpt>
      <trkpt lat="45.08667" lon="5.5708">
        <ele>1062</ele>
        <time>2020-08-23T10:00:55Z</time>
      </trkpt>
      <trkpt lat="45.08666" lon="5.57084">
        <ele>1062</ele>
        <time>2020-08-23T10:00:56Z</time>
      </trkpt>
      <trkpt lat="45.08665" lon="5.57088">
        <ele>1062</ele>
        <time>2020-08-23T10:00:57Z</time>
      </trkpt>
      <trkpt lat="45.08664" lon="5.57092">
        <ele>1062</ele>
        <time>2020-08-23T10:00:58Z</time>
      </trkpt>
      <trkpt lat="45.08662" lon="5.57096">
        <ele>1062</ele>
        <time>2020-08-23T10:00:59Z</time>
      </trkpt>
      <trkpt lat="45.08661" lon="5.571">
        <ele>1062</ele>
        <time>2020-08-23T10:01:00Z</time>
      </trkpt>
      <trkpt lat="45.08659" lon="5.57104">
        <ele>1062</ele>
        <time>2020-08-23T10:01:01Z</time>
      </trkpt>
      <trkpt lat="45.08658" lon="5.57108">
        <ele>1062</ele>
        <time>2020-08-23T10:01:02Z</time>
      </trkpt>
      <trkpt lat="45.08657" lon="5.57112">
        <ele>1062</ele>
        <time>2020-08-23T10:01:03Z</time>
      </trkpt>
      <trkpt lat="45.08655" lon="5.57115">
        <ele>1062</ele>
        <time>2020-08-23T10:01:04Z</time>
      </trkpt>
      <trkpt lat="45.08654" lon="5.57119">
        <ele>1061.8</ele>
        <time>2020-08-23T10:01:05Z</time>
      </trkpt>
      <trkpt lat="45.08652" lon="5.57122">
        <ele>1061.8</ele>
        <time>2020-08-23T10:01:06Z</time>
      </trkpt>
      <trkpt lat="45.08651" lon="5.57126">
        <ele>1061.8</ele>
        <time>2020-08-23T10:01:07Z</time>
      </trkpt>
      <trkpt lat="45.08649" lon="5.57129">
        <ele>1062</ele>
        <time>2020-08-23T10:01:08Z</time>
      </trkpt>
      <trkpt lat="45.08648" lon="5.57132">
        <ele>1062</ele>
        <time>2020-08-23T10:01:09Z</time>
      </trkpt>
      <trkpt lat="45.08646" lon="5.57136">
        <ele>1062</ele>
        <time>2020-08-23T10:01:10Z</time>
      </trkpt>
      <trkpt lat="45.08645" lon="5.57139">
        <ele>1062</ele>
        <time>2020-08-23T10:01:11Z</time>
      </trkpt>
      <trkpt lat="45.08644" lon="5.57143">
        <ele>1062</ele>
        <time>2020-08-23T10:01:12Z</time>
      </trkpt>
      <trkpt lat="45.08642" lon="5.57146">
        <ele>1062</ele>
        <time>2020-08-23T10:01:13Z</time>
      </trkpt>
      <trkpt lat="45.08641" lon="5.5715">
        <ele>1062</ele>
        <time>2020-08-23T10:01:14Z</time>
      </trkpt>
      <trkpt lat="45.0864" lon="5.57154">
        <ele>1062</ele>
        <time>2020-08-23T10:01:15Z</time>
      </trkpt>
      <trkpt lat="45.08638" lon="5.57158">
        <ele>1062</ele>
        <time>2020-08-23T10:01:16Z</time>
      </trkpt>
      <trkpt lat="45.08637" lon="5.57162">
        <ele>1062</ele>
        <time>2020-08-23T10:01:17Z</time>
      </trkpt>
      <trkpt lat="45.08636" lon="5.57165">
        <ele>1062</ele>
        <time>2020-08-23T10:01:18Z</time>
      </trkpt>
      <trkpt lat="45.08634" lon="5.57169">
        <ele>1062</ele>
        <time>2020-08-23T10:01:19Z</time>
      </trkpt>
      <trkpt lat="45.08633" lon="5.57173">
        <ele>1062</ele>
        <time>2020-08-23T10:01:20Z</time>
      </trkpt>
      <trkpt lat="45.08632" lon="5.57177">
        <ele>1062</ele>
        <time>2020-08-23T10:01:21Z</time>
      </trkpt>
      <trkpt lat="45.08631" lon="5.57181">
        <ele>1062.2</ele>
        <time>2020-08-23T10:01:22Z</time>
      </trkpt>
      <trkpt lat="45.0863" lon="5.57185">
        <ele>1062.2</ele>
        <time>2020-08-23T10:01:23Z</time>
      </trkpt>
      <trkpt lat="45.08629" lon="5.57189">
        <ele>1062.2</ele>
        <time>2020-08-23T10:01:24Z</time>
      </trkpt>
      <trkpt lat="45.08629" lon="5.57193">
        <ele>1062.2</ele>
        <time>2020-08-23T10:01:25Z</time>
      </trkpt>
      <trkpt lat="45.08628" lon="5.57197">
        <ele>1062.2</ele>
        <time>2020-08-23T10:01:26Z</time>
      </trkpt>
      <trkpt lat="45.08627" lon="5.57201">
        <ele>1062.2</ele>
        <time>2020-08-23T10:01:27Z</time>
      </trkpt>
      <trkpt lat="45.08627" lon="5.57206">
        <ele>1062.2</ele>
        <time>2020-08-23T10:01:28Z</time>
      </trkpt>
      <trkpt lat="45.08627" lon="5.5721">
        <ele>1062</ele>
        <time>2020-08-23T10:01:29Z</time>
      </trkpt>
      <trkpt lat="45.08626" lon="5.57214">
        <ele>1062</ele>
        <time>2020-08-23T10:01:30Z</time>
      </trkpt>
      <trkpt lat="45.08626" lon="5.57219">
        <ele>1062</ele>
        <time>2020-08-23T10:01:31Z</time>
      </trkpt>
      <trkpt lat="45.08625" lon="5.57223">
        <ele>1062</ele>
        <time>2020-08-23T10:01:32Z</time>
      </trkpt>
      <trkpt lat="45.08625" lon="5.57227">
        <ele>1062</ele>
        <time>2020-08-23T10:01:33Z</time>
      </trkpt>
      <trkpt lat="45.08624" lon="5.57232">
        <ele>1061.8</ele>
        <time>2020-08-23T10:01:34Z</time>
      </trkpt>
      <trkpt lat="45.08624" lon="5.57236">
        <ele>1061.8</ele>
        <time>2020-08-23T10:01:35Z</time>
      </trkpt>
      <trkpt lat="45.08623" lon="5.5724">
        <ele>1061.8</ele>
        <time>2020-08-23T10:01:36Z</time>
      </trkpt>
      <trkpt lat="45.08622" lon="5.57244">
        <ele>1061.6</ele>
        <time>2020-08-23T10:01:37Z</time>
      </trkpt>
      <trkpt lat="45.08621" lon="5.57248">
        <ele>1061.6</ele>
        <time>2020-08-23T10:01:38Z</time>
      </trkpt>
      <trkpt lat="45.08621" lon="5.57252">
        <ele>1061.6</ele>
        <time>2020-08-23T10:01:39Z</time>
      </trkpt>
      <trkpt lat="45.0862" lon="5.57256">
        <ele>1061.6</ele>
        <time>2020-08-23T10:01:40Z</time>
      </trkpt>
      <trkpt lat="45.08619" lon="5.57261">
        <ele>1061.6</ele>
        <time>2020-08-23T10:01:41Z</time>
      </trkpt>
      <trkpt lat="45.08619" lon="5.57265">
        <ele>1061.4</ele>
        <time>2020-08-23T10:01:42Z</time>
      </trkpt>
      <trkpt lat="45.08618" lon="5.57268">
        <ele>1061.4</ele>
        <time>2020-08-23T10:01:43Z</time>
      </trkpt>
      <trkpt lat="45.08617" lon="5.57272">
        <ele>1061.4</ele>
        <time>2020-08-23T10:01:44Z</time>
      </trkpt>
      <trkpt lat="45.08617" lon="5.57276">
        <ele>1061.2</ele>
        <time>2020-08-23T10:01:45Z</time>
      </trkpt>
      <trkpt lat="45.08616" lon="5.5728">
        <ele>1061.2</ele>
        <time>2020-08-23T10:01:46Z</time>
      </trkpt>
      <trkpt lat="45.08615" lon="5.57284">
        <ele>1061.2</ele>
        <time>2020-08-23T10:01:47Z</time>
      </trkpt>
      <trkpt lat="45.08614" lon="5.57288">
        <ele>1061.2</ele>
        <time>2020-08-23T10:01:48Z</time>
      </trkpt>
      <trkpt lat="45.08613" lon="5.57292">
        <ele>1061</ele>
        <time>2020-08-23T10:01:49Z</time>
      </trkpt>
      <trkpt lat="45.08612" lon="5.57296">
        <ele>1061</ele>
        <time>2020-08-23T10:01:50Z</time>
      </trkpt>
      <trkpt lat="45.08611" lon="5.573">
        <ele>1061</ele>
        <time>2020-08-23T10:01:51Z</time>
      </trkpt>
      <trkpt lat="45.0861" lon="5.57304">
        <ele>1060.8</ele>
        <time>2020-08-23T10:01:52Z</time>
      </trkpt>
      <trkpt lat="45.08609" lon="5.57308">
        <ele>1060.8</ele>
        <time>2020-08-23T10:01:53Z</time>
      </trkpt>
      <trkpt lat="45.08608" lon="5.57313">
        <ele>1060.8</ele>
        <time>2020-08-23T10:01:54Z</time>
      </trkpt>
      <trkpt lat="45.08608" lon="5.57317">
        <ele>1060.8</ele>
        <time>2020-08-23T10:01:55Z</time>
      </trkpt>
      <trkpt lat="45.08607" lon="5.57321">
        <ele>1060.8</ele>
        <time>2020-08-23T10:01:56Z</time>
      </trkpt>
      <trkpt lat="45.08606" lon="5.57325">
        <ele>1060.8</ele>
        <time>2020-08-23T10:01:57Z</time>
      </trkpt>
      <trkpt lat="45.08605" lon="5.57329">
        <ele>1060.8</ele>
        <time>2020-08-23T10:01:58Z</time>
      </trkpt>
      <trkpt lat="45.08605" lon="5.57333">
        <ele>1060.8</ele>
        <time>2020-08-23T10:01:59Z</time>
      </trkpt>
      <trkpt lat="45.08605" lon="5.57337">
        <ele>1060.8</ele>
        <time>2020-08-23T10:02:00Z</time>
      </trkpt>
      <trkpt lat="45.08604" lon="5.57341">
        <ele>1061</ele>
        <time>2020-08-23T10:02:01Z</time>
      </trkpt>
      <trkpt lat="45.08604" lon="5.57345">
        <ele>1061</ele>
        <time>2020-08-23T10:02:02Z</time>
      </trkpt>
      <trkpt lat="45.08603" lon="5.57348">
        <ele>1061.2</ele>
        <time>2020-08-23T10:02:03Z</time>
      </trkpt>
      <trkpt lat="45.08603" lon="5.57351">
        <ele>1061.2</ele>
        <time>2020-08-23T10:02:04Z</time>
      </trkpt>
      <trkpt lat="45.08603" lon="5.57355">
        <ele>1061.4</ele>
        <time>2020-08-23T10:02:05Z</time>
      </trkpt>
      <trkpt lat="45.08602" lon="5.57359">
        <ele>1061.6</ele>
        <time>2020-08-23T10:02:06Z</time>
      </trkpt>
      <trkpt lat="45.08602" lon="5.57363">
        <ele>1061.6</ele>
        <time>2020-08-23T10:02:07Z</time>
      </trkpt>
      <trkpt lat="45.08601" lon="5.57367">
        <ele>1061.8</ele>
        <time>2020-08-23T10:02:08Z</time>
      </trkpt>
      <trkpt lat="45.08601" lon="5.57371">
        <ele>1061.8</ele>
        <time>2020-08-23T10:02:09Z</time>
      </trkpt>
      <trkpt lat="45.08601" lon="5.57376">
        <ele>1062</ele>
        <time>2020-08-23T10:02:10Z</time>
      </trkpt>
      <trkpt lat="45.086" lon="5.5738">
        <ele>1062</ele>
        <time>2020-08-23T10:02:11Z</time>
      </trkpt>
      <trkpt lat="45.086" lon="5.57384">
        <ele>1062</ele>
        <time>2020-08-23T10:02:12Z</time>
      </trkpt>
      <trkpt lat="45.086" lon="5.57388">
        <ele>1062</ele>
        <time>2020-08-23T10:02:13Z</time>
      </trkpt>
      <trkpt lat="45.086" lon="5.57392">
        <ele>1062</ele>
        <time>2020-08-23T10:02:14Z</time>
      </trkpt>
      <trkpt lat="45.086" lon="5.57396">
        <ele>1062.2</ele>
        <time>2020-08-23T10:02:15Z</time>
      </trkpt>
      <trkpt lat="45.086" lon="5.574">
        <ele>1062.2</ele>
        <time>2020-08-23T10:02:16Z</time>
      </trkpt>
      <trkpt lat="45.086" lon="5.57405">
        <ele>1062.2</ele>
        <time>2020-08-23T10:02:17Z</time>
      </trkpt>
      <trkpt lat="45.086" lon="5.57409">
        <ele>1062.2</ele>
        <time>2020-08-23T10:02:18Z</time>
      </trkpt>
      <trkpt lat="45.086" lon="5.57413">
        <ele>1062.2</ele>
        <time>2020-08-23T10:02:19Z</time>
      </trkpt>
      <trkpt lat="45.08599" lon="5.57418">
        <ele>1062.2</ele>
        <time>2020-08-23T10:02:20Z</time>
      </trkpt>
      <trkpt lat="45.08599" lon="5.57422">
        <ele>1062.2</ele>
        <time>2020-08-23T10:02:21Z</time>
      </trkpt>
      <trkpt lat="45.08599" lon="5.57426">
        <ele>1062.2</ele>
        <time>2020-08-23T10:02:22Z</time>
      </trkpt>
      <trkpt lat="45.08599" lon="5.57431">
        <ele>1062.2</ele>
        <time>2020-08-23T10:02:23Z</time>
      </trkpt>
      <trkpt lat="45.08599" lon="5.57435">
        <ele>1062.2</ele>
        <time>2020-08-23T10:02:24Z</time>
      </trkpt>
      <trkpt lat="45.086" lon="5.5744">
        <ele>1062.2</ele>
        <time>2020-08-23T10:02:25Z</time>
      </trkpt>
      <trkpt lat="45.086" lon="5.57444">
        <ele>1062.2</ele>
        <time>2020-08-23T10:02:26Z</time>
      </trkpt>
      <trkpt lat="45.086" lon="5.57448">
        <ele>1062</ele>
        <time>2020-08-23T10:02:27Z</time>
      </trkpt>
      <trkpt lat="45.086" lon="5.57452">
        <ele>1062</ele>
        <time>2020-08-23T10:02:28Z</time>
      </trkpt>
      <trkpt lat="45.086" lon="5.57456">
        <ele>1062</ele>
        <time>2020-08-23T10:02:29Z</time>
      </trkpt>
      <trkpt lat="45.086" lon="5.5746">
        <ele>1062</ele>
        <time>2020-08-23T10:02:30Z</time>
      </trkpt>
      <trkpt lat="45.086" lon="5.57465">
        <ele>1062</ele>
        <time>2020-08-23T10:02:31Z</time>
      </trkpt>
      <trkpt lat="45.086" lon="5.57469">
        <ele>1061.8</ele>
        <time>2020-08-23T10:02:32Z</time>
      </trkpt>
      <trkpt lat="45.086" lon="5.57473">
        <ele>1061.8</ele>
        <time>2020-08-23T10:02:33Z</time>
      </trkpt>
      <trkpt lat="45.086" lon="5.57477">
        <ele>1061.8</ele>
        <time>2020-08-23T10:02:34Z</time>
      </trkpt>
      <trkpt lat="45.086" lon="5.57481">
        <ele>1061.8</ele>
        <time>2020-08-23T10:02:35Z</time>
      </trkpt>
      <trkpt lat="45.086" lon="5.57485">
        <ele>1061.6</ele>
        <time>2020-08-23T10:02:36Z</time>
      </trkpt>
      <trkpt lat="45.086" lon="5.5749">
        <ele>1061.6</ele>
        <time>2020-08-23T10:02:37Z</time>
      </trkpt>
      <trkpt lat="45.086" lon="5.57494">
        <ele>1061.6</ele>
        <time>2020-08-23T10:02:38Z</time>
      </trkpt>
      <trkpt lat="45.086" lon="5.57499">
        <ele>1061.4</ele>
        <time>2020-08-23T10:02:39Z</time>
      </trkpt>
      <trkpt lat="45.08601" lon="5.57503">
        <ele>1061.4</ele>
        <time>2020-08-23T10:02:40Z</time>
      </trkpt>
      <trkpt lat="45.08601" lon="5.57508">
        <ele>1061.2</ele>
        <time>2020-08-23T10:02:41Z</time>
      </trkpt>
      <trkpt lat="45.08602" lon="5.57512">
        <ele>1061.2</ele>
        <time>2020-08-23T10:02:42Z</time>
      </trkpt>
      <trkpt lat="45.08602" lon="5.57517">
        <ele>1061</ele>
        <time>2020-08-23T10:02:43Z</time>
      </trkpt>
      <trkpt lat="45.08603" lon="5.57522">
        <ele>1061</ele>
        <time>2020-08-23T10:02:44Z</time>
      </trkpt>
      <trkpt lat="45.08603" lon="5.57526">
        <ele>1060.8</ele>
        <time>2020-08-23T10:02:45Z</time>
      </trkpt>
      <trkpt lat="45.08604" lon="5.57531">
        <ele>1060.8</ele>
        <time>2020-08-23T10:02:46Z</time>
      </trkpt>
      <trkpt lat="45.08604" lon="5.57535">
        <ele>1060.8</ele>
        <time>2020-08-23T10:02:47Z</time>
      </trkpt>
      <trkpt lat="45.08604" lon="5.5754">
        <ele>1060.8</ele>
        <time>2020-08-23T10:02:48Z</time>
      </trkpt>
      <trkpt lat="45.08604" lon="5.57544">
        <ele>1060.6</ele>
        <time>2020-08-23T10:02:49Z</time>
      </trkpt>
      <trkpt lat="45.08604" lon="5.57549">
        <ele>1060.6</ele>
        <time>2020-08-23T10:02:50Z</time>
      </trkpt>
      <trkpt lat="45.08603" lon="5.57554">
        <ele>1060.6</ele>
        <time>2020-08-23T10:02:51Z</time>
      </trkpt>
      <trkpt lat="45.08603" lon="5.57559">
        <ele>1060.6</ele>
        <time>2020-08-23T10:02:52Z</time>
      </trkpt>
      <trkpt lat="45.08602" lon="5.57563">
        <ele>1060.6</ele>
        <time>2020-08-23T10:02:53Z</time>
      </trkpt>
      <trkpt lat="45.08601" lon="5.57569">
        <ele>1060.4</ele>
        <time>2020-08-23T10:02:54Z</time>
      </trkpt>
      <trkpt lat="45.08601" lon="5.57574">
        <ele>1060.4</ele>
        <time>2020-08-23T10:02:55Z</time>
      </trkpt>
      <trkpt lat="45.086" lon="5.5758">
        <ele>1060.4</ele>
        <time>2020-08-23T10:02:56Z</time>
      </trkpt>
      <trkpt lat="45.08599" lon="5.57586">
        <ele>1060.2</ele>
        <time>2020-08-23T10:02:57Z</time>
      </trkpt>
      <trkpt lat="45.08596" lon="5.57592">
        <ele>1060.2</ele>
        <time>2020-08-23T10:02:58Z</time>
      </trkpt>
      <trkpt lat="45.08595" lon="5.57599">
        <ele>1060.2</ele>
        <time>2020-08-23T10:02:59Z</time>
      </trkpt>
      <trkpt lat="45.08592" lon="5.57606">
        <ele>1060</ele>
        <time>2020-08-23T10:03:00Z</time>
      </trkpt>
      <trkpt lat="45.0859" lon="5.57614">
        <ele>1060</ele>
        <time>2020-08-23T10:03:01Z</time>
      </trkpt>
      <trkpt lat="45.08587" lon="5.57622">
        <ele>1060</ele>
        <time>2020-08-23T10:03:02Z</time>
      </trkpt>
      <trkpt lat="45.08585" lon="5.5763">
        <ele>1060</ele>
        <time>2020-08-23T10:03:03Z</time>
      </trkpt>
      <trkpt lat="45.08582" lon="5.57638">
        <ele>1060</ele>
        <time>2020-08-23T10:03:04Z</time>
      </trkpt>
      <trkpt lat="45.0858" lon="5.57645">
        <ele>1060</ele>
        <time>2020-08-23T10:03:05Z</time>
      </trkpt>
      <trkpt lat="45.08578" lon="5.57653">
        <ele>1059.8</ele>
        <time>2020-08-23T10:03:06Z</time>
      </trkpt>
      <trkpt lat="45.08576" lon="5.57661">
        <ele>1059.8</ele>
        <time>2020-08-23T10:03:07Z</time>
      </trkpt>
      <trkpt lat="45.08575" lon="5.57669">
        <ele>1059.8</ele>
        <time>2020-08-23T10:03:08Z</time>
      </trkpt>
      <trkpt lat="45.08575" lon="5.57677">
        <ele>1059.6</ele>
        <time>2020-08-23T10:03:09Z</time>
      </trkpt>
      <trkpt lat="45.08575" lon="5.57684">
        <ele>1059.6</ele>
        <time>2020-08-23T10:03:10Z</time>
      </trkpt>
      <trkpt lat="45.08575" lon="5.57691">
        <ele>1059.6</ele>
        <time>2020-08-23T10:03:11Z</time>
      </trkpt>
      <trkpt lat="45.08575" lon="5.57697">
        <ele>1059.4</ele>
        <time>2020-08-23T10:03:12Z</time>
      </trkpt>
      <trkpt lat="45.08575" lon="5.57703">
        <ele>1059.4</ele>
        <time>2020-08-23T10:03:13Z</time>
      </trkpt>
      <trkpt lat="45.08575" lon="5.57708">
        <ele>1059.4</ele>
        <time>2020-08-23T10:03:14Z</time>
      </trkpt>
      <trkpt lat="45.08575" lon="5.57714">
        <ele>1059.2</ele>
        <time>2020-08-23T10:03:15Z</time>
      </trkpt>
      <trkpt lat="45.08575" lon="5.57719">
        <ele>1059.2</ele>
        <time>2020-08-23T10:03:16Z</time>
      </trkpt>
      <trkpt lat="45.08575" lon="5.57724">
        <ele>1059.2</ele>
        <time>2020-08-23T10:03:17Z</time>
      </trkpt>
      <trkpt lat="45.08575" lon="5.57729">
        <ele>1059.2</ele>
        <time>2020-08-23T10:03:18Z</time>
      </trkpt>
      <trkpt lat="45.08574" lon="5.57734">
        <ele>1059.2</ele>
        <time>2020-08-23T10:03:19Z</time>
      </trkpt>
      <trkpt lat="45.08574" lon="5.57739">
        <ele>1059.2</ele>
        <time>2020-08-23T10:03:20Z</time>
      </trkpt>
      <trkpt lat="45.08574" lon="5.57744">
        <ele>1059.4</ele>
        <time>2020-08-23T10:03:21Z</time>
      </trkpt>
      <trkpt lat="45.08573" lon="5.57749">
        <ele>1059.4</ele>
        <time>2020-08-23T10:03:22Z</time>
      </trkpt>
      <trkpt lat="45.08572" lon="5.57754">
        <ele>1059.6</ele>
        <time>2020-08-23T10:03:23Z</time>
      </trkpt>
      <trkpt lat="45.08571" lon="5.57758">
        <ele>1059.8</ele>
        <time>2020-08-23T10:03:24Z</time>
      </trkpt>
      <trkpt lat="45.0857" lon="5.57763">
        <ele>1060</ele>
        <time>2020-08-23T10:03:25Z</time>
      </trkpt>
      <trkpt lat="45.08569" lon="5.57768">
        <ele>1060.2</ele>
        <time>2020-08-23T10:03:26Z</time>
      </trkpt>
      <trkpt lat="45.08568" lon="5.57773">
        <ele>1060.4</ele>
        <time>2020-08-23T10:03:27Z</time>
      </trkpt>
      <trkpt lat="45.08567" lon="5.57778">
        <ele>1060.4</ele>
        <time>2020-08-23T10:03:28Z</time>
      </trkpt>
      <trkpt lat="45.08566" lon="5.57783">
        <ele>1060.6</ele>
        <time>2020-08-23T10:03:29Z</time>
      </trkpt>
      <trkpt lat="45.08565" lon="5.57788">
        <ele>1060.8</ele>
        <time>2020-08-23T10:03:30Z</time>
      </trkpt>
      <trkpt lat="45.08564" lon="5.57793">
        <ele>1061</ele>
        <time>2020-08-23T10:03:31Z</time>
      </trkpt>
      <trkpt lat="45.08563" lon="5.57798">
        <ele>1061.2</ele>
        <time>2020-08-23T10:03:32Z</time>
      </trkpt>
      <trkpt lat="45.08561" lon="5.57802">
        <ele>1061.4</ele>
        <time>2020-08-23T10:03:33Z</time>
      </trkpt>
      <trkpt lat="45.0856" lon="5.57807">
        <ele>1061.6</ele>
        <time>2020-08-23T10:03:34Z</time>
      </trkpt>
      <trkpt lat="45.08558" lon="5.57811">
        <ele>1061.8</ele>
        <time>2020-08-23T10:03:35Z</time>
      </trkpt>
      <trkpt lat="45.08556" lon="5.57815">
        <ele>1061.8</ele>
        <time>2020-08-23T10:03:36Z</time>
      </trkpt>
      <trkpt lat="45.08555" lon="5.5782">
        <ele>1062</ele>
        <time>2020-08-23T10:03:37Z</time>
      </trkpt>
      <trkpt lat="45.08553" lon="5.57824">
        <ele>1062.2</ele>
        <time>2020-08-23T10:03:38Z</time>
      </trkpt>
      <trkpt lat="45.08551" lon="5.57828">
        <ele>1062.2</ele>
        <time>2020-08-23T10:03:39Z</time>
      </trkpt>
      <trkpt lat="45.08549" lon="5.57832">
        <ele>1062.4</ele>
        <time>2020-08-23T10:03:40Z</time>
      </trkpt>
      <trkpt lat="45.08547" lon="5.57836">
        <ele>1062.6</ele>
        <time>2020-08-23T10:03:41Z</time>
      </trkpt>
      <trkpt lat="45.08545" lon="5.5784">
        <ele>1062.8</ele>
        <time>2020-08-23T10:03:42Z</time>
      </trkpt>
      <trkpt lat="45.08543" lon="5.57844">
        <ele>1063</ele>
        <time>2020-08-23T10:03:43Z</time>
      </trkpt>
      <trkpt lat="45.08541" lon="5.57848">
        <ele>1063</ele>
        <time>2020-08-23T10:03:44Z</time>
      </trkpt>
      <trkpt lat="45.08539" lon="5.57852">
        <ele>1063.2</ele>
        <time>2020-08-23T10:03:45Z</time>
      </trkpt>
      <trkpt lat="45.08537" lon="5.57856">
        <ele>1063.4</ele>
        <time>2020-08-23T10:03:46Z</time>
      </trkpt>
      <trkpt lat="45.08534" lon="5.5786">
        <ele>1063.6</ele>
        <time>2020-08-23T10:03:47Z</time>
      </trkpt>
      <trkpt lat="45.08532" lon="5.57864">
        <ele>1063.6</ele>
        <time>2020-08-23T10:03:48Z</time>
      </trkpt>
      <trkpt lat="45.08529" lon="5.57867">
        <ele>1063.8</ele>
        <time>2020-08-23T10:03:49Z</time>
      </trkpt>
      <trkpt lat="45.08526" lon="5.57871">
        <ele>1064</ele>
        <time>2020-08-23T10:03:50Z</time>
      </trkpt>
      <trkpt lat="45.08524" lon="5.57874">
        <ele>1064.2</ele>
        <time>2020-08-23T10:03:51Z</time>
      </trkpt>
      <trkpt lat="45.08521" lon="5.57876">
        <ele>1064.2</ele>
        <time>2020-08-23T10:03:52Z</time>
      </trkpt>
      <trkpt lat="45.08518" lon="5.57878">
        <ele>1064.4</ele>
        <time>2020-08-23T10:03:53Z</time>
      </trkpt>
      <trkpt lat="45.08514" lon="5.57881">
        <ele>1064.6</ele>
        <time>2020-08-23T10:03:54Z</time>
      </trkpt>
      <trkpt lat="45.08511" lon="5.57883">
        <ele>1064.8</ele>
        <time>2020-08-23T10:03:55Z</time>
      </trkpt>
      <trkpt lat="45.08508" lon="5.57884">
        <ele>1065</ele>
        <time>2020-08-23T10:03:56Z</time>
      </trkpt>
      <trkpt lat="45.08505" lon="5.57886">
        <ele>1065.2</ele>
        <time>2020-08-23T10:03:57Z</time>
      </trkpt>
      <trkpt lat="45.08503" lon="5.57888">
        <ele>1065.2</ele>
        <time>2020-08-23T10:03:58Z</time>
      </trkpt>
      <trkpt lat="45.085" lon="5.5789">
        <ele>1065.4</ele>
        <time>2020-08-23T10:03:59Z</time>
      </trkpt>
      <trkpt lat="45.08497" lon="5.57892">
        <ele>1065.6</ele>
        <time>2020-08-23T10:04:00Z</time>
      </trkpt>
      <trkpt lat="45.08493" lon="5.57893">
        <ele>1065.8</ele>
        <time>2020-08-23T10:04:01Z</time>
      </trkpt>
      <trkpt lat="45.08491" lon="5.57895">
        <ele>1065.8</ele>
        <time>2020-08-23T10:04:02Z</time>
      </trkpt>
      <trkpt lat="45.08487" lon="5.57896">
        <ele>1066</ele>
        <time>2020-08-23T10:04:03Z</time>
      </trkpt>
      <trkpt lat="45.08484" lon="5.57897">
        <ele>1066.2</ele>
        <time>2020-08-23T10:04:04Z</time>
      </trkpt>
      <trkpt lat="45.08481" lon="5.57898">
        <ele>1066.2</ele>
        <time>2020-08-23T10:04:05Z</time>
      </trkpt>
      <trkpt lat="45.08478" lon="5.57899">
        <ele>1066.4</ele>
        <time>2020-08-23T10:04:06Z</time>
      </trkpt>
      <trkpt lat="45.08475" lon="5.579">
        <ele>1066.4</ele>
        <time>2020-08-23T10:04:07Z</time>
      </trkpt>
      <trkpt lat="45.08473" lon="5.579">
        <ele>1066.6</ele>
        <time>2020-08-23T10:04:08Z</time>
      </trkpt>
      <trkpt lat="45.08471" lon="5.57899">
        <ele>1066.8</ele>
        <time>2020-08-23T10:04:09Z</time>
      </trkpt>
      <trkpt lat="45.08469" lon="5.57898">
        <ele>1066.8</ele>
        <time>2020-08-23T10:04:10Z</time>
      </trkpt>
      <trkpt lat="45.08468" lon="5.57896">
        <ele>1067</ele>
        <time>2020-08-23T10:04:11Z</time>
      </trkpt>
      <trkpt lat="45.08466" lon="5.57894">
        <ele>1067.2</ele>
        <time>2020-08-23T10:04:12Z</time>
      </trkpt>
      <trkpt lat="45.08466" lon="5.57891">
        <ele>1067.2</ele>
        <time>2020-08-23T10:04:13Z</time>
      </trkpt>
      <trkpt lat="45.08465" lon="5.57887">
        <ele>1067.4</ele>
        <time>2020-08-23T10:04:14Z</time>
      </trkpt>
      <trkpt lat="45.08465" lon="5.57884">
        <ele>1067.6</ele>
        <time>2020-08-23T10:04:15Z</time>
      </trkpt>
      <trkpt lat="45.08465" lon="5.57881">
        <ele>1067.6</ele>
        <time>2020-08-23T10:04:16Z</time>
      </trkpt>
      <trkpt lat="45.08465" lon="5.57878">
        <ele>1067.8</ele>
        <time>2020-08-23T10:04:17Z</time>
      </trkpt>
      <trkpt lat="45.08465" lon="5.57876">
        <ele>1068</ele>
        <time>2020-08-23T10:04:18Z</time>
      </trkpt>
      <trkpt lat="45.08464" lon="5.57874">
        <ele>1068.2</ele>
        <time>2020-08-23T10:04:19Z</time>
      </trkpt>
      <trkpt lat="45.08464" lon="5.57871">
        <ele>1068.4</ele>
        <time>2020-08-23T10:04:20Z</time>
      </trkpt>
      <trkpt lat="45.08464" lon="5.57869">
        <ele>1068.6</ele>
        <time>2020-08-23T10:04:21Z</time>
      </trkpt>
      <trkpt lat="45.08464" lon="5.57867">
        <ele>1068.8</ele>
        <time>2020-08-23T10:04:22Z</time>
      </trkpt>
      <trkpt lat="45.08464" lon="5.57865">
        <ele>1069</ele>
        <time>2020-08-23T10:04:23Z</time>
      </trkpt>
      <trkpt lat="45.08464" lon="5.57863">
        <ele>1069.2</ele>
        <time>2020-08-23T10:04:24Z</time>
      </trkpt>
      <trkpt lat="45.08464" lon="5.57861">
        <ele>1069.4</ele>
        <time>2020-08-23T10:04:25Z</time>
      </trkpt>
      <trkpt lat="45.08464" lon="5.57858">
        <ele>1069.8</ele>
        <time>2020-08-23T10:04:26Z</time>
      </trkpt>
      <trkpt lat="45.08464" lon="5.57856">
        <ele>1070</ele>
        <time>2020-08-23T10:04:27Z</time>
      </trkpt>
      <trkpt lat="45.08464" lon="5.57854">
        <ele>1070.2</ele>
        <time>2020-08-23T10:04:28Z</time>
      </trkpt>
      <trkpt lat="45.08463" lon="5.57851">
        <ele>1070.6</ele>
        <time>2020-08-23T10:04:29Z</time>
      </trkpt>
      <trkpt lat="45.08463" lon="5.57849">
        <ele>1070.8</ele>
        <time>2020-08-23T10:04:30Z</time>
      </trkpt>
      <trkpt lat="45.08463" lon="5.57846">
        <ele>1071</ele>
        <time>2020-08-23T10:04:31Z</time>
      </trkpt>
      <trkpt lat="45.08463" lon="5.57844">
        <ele>1071.2</ele>
        <time>2020-08-23T10:04:32Z</time>
      </trkpt>
      <trkpt lat="45.08463" lon="5.57842">
        <ele>1071.4</ele>
        <time>2020-08-23T10:04:33Z</time>
      </trkpt>
      <trkpt lat="45.08463" lon="5.57839">
        <ele>1071.8</ele>
        <time>2020-08-23T10:04:34Z</time>
      </trkpt>
      <trkpt lat="45.08462" lon="5.57837">
        <ele>1072</ele>
        <time>2020-08-23T10:04:35Z</time>
      </trkpt>
      <trkpt lat="45.08462" lon="5.57835">
        <ele>1072.2</ele>
        <time>2020-08-23T10:04:36Z</time>
      </trkpt>
      <trkpt lat="45.08462" lon="5.57832">
        <ele>1072.4</ele>
        <time>2020-08-23T10:04:37Z</time>
      </trkpt>
      <trkpt lat="45.08462" lon="5.5783">
        <ele>1072.6</ele>
        <time>2020-08-23T10:04:38Z</time>
      </trkpt>
      <trkpt lat="45.08463" lon="5.57827">
        <ele>1073</ele>
        <time>2020-08-23T10:04:39Z</time>
      </trkpt>
      <trkpt lat="45.08463" lon="5.57825">
        <ele>1073.2</ele>
        <time>2020-08-23T10:04:40Z</time>
      </trkpt>
      <trkpt lat="45.08463" lon="5.57822">
        <ele>1073.4</ele>
        <time>2020-08-23T10:04:41Z</time>
      </trkpt>
      <trkpt lat="45.08463" lon="5.5782">
        <ele>1073.8</ele>
        <time>2020-08-23T10:04:42Z</time>
      </trkpt>
      <trkpt lat="45.08463" lon="5.57817">
        <ele>1074</ele>
        <time>2020-08-23T10:04:43Z</time>
      </trkpt>
      <trkpt lat="45.08462" lon="5.57815">
        <ele>1074.2</ele>
        <time>2020-08-23T10:04:44Z</time>
      </trkpt>
      <trkpt lat="45.08462" lon="5.57812">
        <ele>1074.4</ele>
        <time>2020-08-23T10:04:45Z</time>
      </trkpt>
      <trkpt lat="45.08462" lon="5.57809">
        <ele>1074.4</ele>
        <time>2020-08-23T10:04:46Z</time>
      </trkpt>
      <trkpt lat="45.08461" lon="5.57807">
        <ele>1074.6</ele>
        <time>2020-08-23T10:04:47Z</time>
      </trkpt>
      <trkpt lat="45.08461" lon="5.57804">
        <ele>1074.8</ele>
        <time>2020-08-23T10:04:48Z</time>
      </trkpt>
      <trkpt lat="45.08461" lon="5.57802">
        <ele>1075</ele>
        <time>2020-08-23T10:04:49Z</time>
      </trkpt>
      <trkpt lat="45.0846" lon="5.57799">
        <ele>1075.2</ele>
        <time>2020-08-23T10:04:50Z</time>
      </trkpt>
      <trkpt lat="45.0846" lon="5.57797">
        <ele>1075.4</ele>
        <time>2020-08-23T10:04:51Z</time>
      </trkpt>
      <trkpt lat="45.0846" lon="5.57795">
        <ele>1075.4</ele>
        <time>2020-08-23T10:04:52Z</time>
      </trkpt>
      <trkpt lat="45.08459" lon="5.57792">
        <ele>1075.6</ele>
        <time>2020-08-23T10:04:53Z</time>
      </trkpt>
      <trkpt lat="45.08458" lon="5.5779">
        <ele>1075.8</ele>
        <time>2020-08-23T10:04:54Z</time>
      </trkpt>
      <trkpt lat="45.08458" lon="5.57788">
        <ele>1076</ele>
        <time>2020-08-23T10:04:55Z</time>
      </trkpt>
      <trkpt lat="45.08457" lon="5.57786">
        <ele>1076</ele>
        <time>2020-08-23T10:04:56Z</time>
      </trkpt>
      <trkpt lat="45.08456" lon="5.57784">
        <ele>1076.2</ele>
        <time>2020-08-23T10:04:57Z</time>
      </trkpt>
      <trkpt lat="45.08456" lon="5.57782">
        <ele>1076.4</ele>
        <time>2020-08-23T10:04:58Z</time>
      </trkpt>
      <trkpt lat="45.08455" lon="5.5778">
        <ele>1076.6</ele>
        <time>2020-08-23T10:04:59Z</time>
      </trkpt>
      <trkpt lat="45.08454" lon="5.57778">
        <ele>1076.6</ele>
        <time>2020-08-23T10:05:00Z</time>
      </trkpt>
      <trkpt lat="45.08453" lon="5.57776">
        <ele>1076.8</ele>
        <time>2020-08-23T10:05:01Z</time>
      </trkpt>
      <trkpt lat="45.08453" lon="5.57774">
        <ele>1077</ele>
        <time>2020-08-23T10:05:02Z</time>
      </trkpt>
      <trkpt lat="45.08452" lon="5.57772">
        <ele>1077.2</ele>
        <time>2020-08-23T10:05:03Z</time>
      </trkpt>
      <trkpt lat="45.08451" lon="5.57771">
        <ele>1077.2</ele>
        <time>2020-08-23T10:05:04Z</time>
      </trkpt>
      <trkpt lat="45.0845" lon="5.57769">
        <ele>1077.4</ele>
        <time>2020-08-23T10:05:05Z</time>
      </trkpt>
      <trkpt lat="45.08449" lon="5.57767">
        <ele>1077.6</ele>
        <time>2020-08-23T10:05:06Z</time>
      </trkpt>
      <trkpt lat="45.08448" lon="5.57766">
        <ele>1077.8</ele>
        <time>2020-08-23T10:05:07Z</time>
      </trkpt>
      <trkpt lat="45.08447" lon="5.57765">
        <ele>1078</ele>
        <time>2020-08-23T10:05:08Z</time>
      </trkpt>
      <trkpt lat="45.08446" lon="5.57764">
        <ele>1078.2</ele>
        <time>2020-08-23T10:05:09Z</time>
      </trkpt>
      <trkpt lat="45.08445" lon="5.57763">
        <ele>1078.4</ele>
        <time>2020-08-23T10:05:10Z</time>
      </trkpt>
      <trkpt lat="45.08444" lon="5.57762">
        <ele>1078.6</ele>
        <time>2020-08-23T10:05:11Z</time>
      </trkpt>
      <trkpt lat="45.08444" lon="5.5776">
        <ele>1078.8</ele>
        <time>2020-08-23T10:05:12Z</time>
      </trkpt>
      <trkpt lat="45.08442" lon="5.57759">
        <ele>1079</ele>
        <time>2020-08-23T10:05:13Z</time>
      </trkpt>
      <trkpt lat="45.08441" lon="5.57758">
        <ele>1079.4</ele>
        <time>2020-08-23T10:05:14Z</time>
      </trkpt>
      <trkpt lat="45.0844" lon="5.57757">
        <ele>1079.6</ele>
        <time>2020-08-23T10:05:15Z</time>
      </trkpt>
      <trkpt lat="45.08439" lon="5.57756">
        <ele>1079.8</ele>
        <time>2020-08-23T10:05:16Z</time>
      </trkpt>
      <trkpt lat="45.08438" lon="5.57755">
        <ele>1080</ele>
        <time>2020-08-23T10:05:17Z</time>
      </trkpt>
      <trkpt lat="45.08437" lon="5.57754">
        <ele>1080.2</ele>
        <time>2020-08-23T10:05:18Z</time>
      </trkpt>
      <trkpt lat="45.08436" lon="5.57753">
        <ele>1080.6</ele>
        <time>2020-08-23T10:05:19Z</time>
      </trkpt>
      <trkpt lat="45.08435" lon="5.57751">
        <ele>1080.8</ele>
        <time>2020-08-23T10:05:20Z</time>
      </trkpt>
      <trkpt lat="45.08433" lon="5.57749">
        <ele>1081</ele>
        <time>2020-08-23T10:05:21Z</time>
      </trkpt>
      <trkpt lat="45.08432" lon="5.57748">
        <ele>1081.4</ele>
        <time>2020-08-23T10:05:22Z</time>
      </trkpt>
      <trkpt lat="45.0843" lon="5.57747">
        <ele>1081.6</ele>
        <time>2020-08-23T10:05:23Z</time>
      </trkpt>
      <trkpt lat="45.08429" lon="5.57745">
        <ele>1081.8</ele>
        <time>2020-08-23T10:05:24Z</time>
      </trkpt>
      <trkpt lat="45.08427" lon="5.57744">
        <ele>1082</ele>
        <time>2020-08-23T10:05:25Z</time>
      </trkpt>
      <trkpt lat="45.08426" lon="5.57742">
        <ele>1082.2</ele>
        <time>2020-08-23T10:05:26Z</time>
      </trkpt>
      <trkpt lat="45.08424" lon="5.57741">
        <ele>1082.4</ele>
        <time>2020-08-23T10:05:27Z</time>
      </trkpt>
      <trkpt lat="45.08423" lon="5.57739">
        <ele>1082.6</ele>
        <time>2020-08-23T10:05:28Z</time>
      </trkpt>
      <trkpt lat="45.08421" lon="5.57738">
        <ele>1082.8</ele>
        <time>2020-08-23T10:05:29Z</time>
      </trkpt>
      <trkpt lat="45.08419" lon="5.57737">
        <ele>1083</ele>
        <time>2020-08-23T10:05:30Z</time>
      </trkpt>
      <trkpt lat="45.08417" lon="5.57735">
        <ele>1083</ele>
        <time>2020-08-23T10:05:31Z</time>
      </trkpt>
      <trkpt lat="45.08415" lon="5.57733">
        <ele>1083.2</ele>
        <time>2020-08-23T10:05:32Z</time>
      </trkpt>
      <trkpt lat="45.08413" lon="5.57732">
        <ele>1083.4</ele>
        <time>2020-08-23T10:05:33Z</time>
      </trkpt>
      <trkpt lat="45.08411" lon="5.57731">
        <ele>1083.6</ele>
        <time>2020-08-23T10:05:34Z</time>
      </trkpt>
      <trkpt lat="45.0841" lon="5.57729">
        <ele>1083.8</ele>
        <time>2020-08-23T10:05:35Z</time>
      </trkpt>
      <trkpt lat="45.08408" lon="5.57727">
        <ele>1083.8</ele>
        <time>2020-08-23T10:05:36Z</time>
      </trkpt>
      <trkpt lat="45.08406" lon="5.57726">
        <ele>1084</ele>
        <time>2020-08-23T10:05:37Z</time>
      </trkpt>
      <trkpt lat="45.08404" lon="5.57725">
        <ele>1084.2</ele>
        <time>2020-08-23T10:05:38Z</time>
      </trkpt>
      <trkpt lat="45.08402" lon="5.57724">
        <ele>1084.4</ele>
        <time>2020-08-23T10:05:39Z</time>
      </trkpt>
      <trkpt lat="45.08401" lon="5.57723">
        <ele>1084.6</ele>
        <time>2020-08-23T10:05:40Z</time>
      </trkpt>
      <trkpt lat="45.08399" lon="5.57722">
        <ele>1084.8</ele>
        <time>2020-08-23T10:05:41Z</time>
      </trkpt>
      <trkpt lat="45.08397" lon="5.57721">
        <ele>1085</ele>
        <time>2020-08-23T10:05:42Z</time>
      </trkpt>
      <trkpt lat="45.08395" lon="5.57719">
        <ele>1085.2</ele>
        <time>2020-08-23T10:05:43Z</time>
      </trkpt>
      <trkpt lat="45.08393" lon="5.57718">
        <ele>1085.4</ele>
        <time>2020-08-23T10:05:44Z</time>
      </trkpt>
      <trkpt lat="45.08392" lon="5.57715">
        <ele>1085.6</ele>
        <time>2020-08-23T10:05:45Z</time>
      </trkpt>
      <trkpt lat="45.0839" lon="5.57713">
        <ele>1085.6</ele>
        <time>2020-08-23T10:05:46Z</time>
      </trkpt>
      <trkpt lat="45.08389" lon="5.57709">
        <ele>1085.8</ele>
        <time>2020-08-23T10:05:47Z</time>
      </trkpt>
      <trkpt lat="45.08389" lon="5.57706">
        <ele>1086</ele>
        <time>2020-08-23T10:05:48Z</time>
      </trkpt>
      <trkpt lat="45.08387" lon="5.57703">
        <ele>1086.2</ele>
        <time>2020-08-23T10:05:49Z</time>
      </trkpt>
      <trkpt lat="45.08386" lon="5.577">
        <ele>1086.4</ele>
        <time>2020-08-23T10:05:50Z</time>
      </trkpt>
      <trkpt lat="45.08385" lon="5.57697">
        <ele>1086.6</ele>
        <time>2020-08-23T10:05:51Z</time>
      </trkpt>
      <trkpt lat="45.08385" lon="5.57694">
        <ele>1086.6</ele>
        <time>2020-08-23T10:05:52Z</time>
      </trkpt>
      <trkpt lat="45.08384" lon="5.57691">
        <ele>1086.8</ele>
        <time>2020-08-23T10:05:53Z</time>
      </trkpt>
      <trkpt lat="45.08384" lon="5.57688">
        <ele>1087</ele>
        <time>2020-08-23T10:05:54Z</time>
      </trkpt>
      <trkpt lat="45.08383" lon="5.57685">
        <ele>1087.2</ele>
        <time>2020-08-23T10:05:55Z</time>
      </trkpt>
      <trkpt lat="45.08382" lon="5.57682">
        <ele>1087.2</ele>
        <time>2020-08-23T10:05:56Z</time>
      </trkpt>
      <trkpt lat="45.08381" lon="5.57679">
        <ele>1087.4</ele>
        <time>2020-08-23T10:05:57Z</time>
      </trkpt>
      <trkpt lat="45.0838" lon="5.57677">
        <ele>1087.6</ele>
        <time>2020-08-23T10:05:58Z</time>
      </trkpt>
      <trkpt lat="45.08379" lon="5.57674">
        <ele>1087.8</ele>
        <time>2020-08-23T10:05:59Z</time>
      </trkpt>
      <trkpt lat="45.08377" lon="5.57671">
        <ele>1088</ele>
        <time>2020-08-23T10:06:00Z</time>
      </trkpt>
      <trkpt lat="45.08376" lon="5.57668">
        <ele>1088</ele>
        <time>2020-08-23T10:06:01Z</time>
      </trkpt>
      <trkpt lat="45.08374" lon="5.57665">
        <ele>1088.2</ele>
        <time>2020-08-23T10:06:02Z</time>
      </trkpt>
      <trkpt lat="45.08373" lon="5.57662">
        <ele>1088.2</ele>
        <time>2020-08-23T10:06:03Z</time>
      </trkpt>
      <trkpt lat="45.08371" lon="5.57659">
        <ele>1088.4</ele>
        <time>2020-08-23T10:06:04Z</time>
      </trkpt>
      <trkpt lat="45.08369" lon="5.57657">
        <ele>1088.6</ele>
        <time>2020-08-23T10:06:05Z</time>
      </trkpt>
      <trkpt lat="45.08368" lon="5.57654">
        <ele>1088.8</ele>
        <time>2020-08-23T10:06:06Z</time>
      </trkpt>
      <trkpt lat="45.08366" lon="5.57652">
        <ele>1088.8</ele>
        <time>2020-08-23T10:06:07Z</time>
      </trkpt>
      <trkpt lat="45.08365" lon="5.57649">
        <ele>1089</ele>
        <time>2020-08-23T10:06:08Z</time>
      </trkpt>
      <trkpt lat="45.08363" lon="5.57647">
        <ele>1089.2</ele>
        <time>2020-08-23T10:06:09Z</time>
      </trkpt>
      <trkpt lat="45.08361" lon="5.57644">
        <ele>1089.2</ele>
        <time>2020-08-23T10:06:10Z</time>
      </trkpt>
      <trkpt lat="45.0836" lon="5.57642">
        <ele>1089.2</ele>
        <time>2020-08-23T10:06:11Z</time>
      </trkpt>
      <trkpt lat="45.08358" lon="5.5764">
        <ele>1089.4</ele>
        <time>2020-08-23T10:06:12Z</time>
      </trkpt>
      <trkpt lat="45.08356" lon="5.57638">
        <ele>1089.6</ele>
        <time>2020-08-23T10:06:13Z</time>
      </trkpt>
      <trkpt lat="45.08354" lon="5.57636">
        <ele>1089.6</ele>
        <time>2020-08-23T10:06:14Z</time>
      </trkpt>
      <trkpt lat="45.08352" lon="5.57634">
        <ele>1089.8</ele>
        <time>2020-08-23T10:06:15Z</time>
      </trkpt>
      <trkpt lat="45.0835" lon="5.57632">
        <ele>1089.8</ele>
        <time>2020-08-23T10:06:16Z</time>
      </trkpt>
      <trkpt lat="45.08349" lon="5.5763">
        <ele>1090</ele>
        <time>2020-08-23T10:06:17Z</time>
      </trkpt>
      <trkpt lat="45.08347" lon="5.57628">
        <ele>1090</ele>
        <time>2020-08-23T10:06:18Z</time>
      </trkpt>
      <trkpt lat="45.08345" lon="5.57626">
        <ele>1090</ele>
        <time>2020-08-23T10:06:19Z</time>
      </trkpt>
      <trkpt lat="45.08343" lon="5.57624">
        <ele>1090.2</ele>
        <time>2020-08-23T10:06:20Z</time>
      </trkpt>
      <trkpt lat="45.08341" lon="5.57622">
        <ele>1090.2</ele>
        <time>2020-08-23T10:06:21Z</time>
      </trkpt>
      <trkpt lat="45.08339" lon="5.5762">
        <ele>1090.2</ele>
        <time>2020-08-23T10:06:22Z</time>
      </trkpt>
      <trkpt lat="45.08338" lon="5.57618">
        <ele>1090.4</ele>
        <time>2020-08-23T10:06:23Z</time>
      </trkpt>
      <trkpt lat="45.08336" lon="5.57616">
        <ele>1090.4</ele>
        <time>2020-08-23T10:06:24Z</time>
      </trkpt>
      <trkpt lat="45.08335" lon="5.57614">
        <ele>1090.4</ele>
        <time>2020-08-23T10:06:25Z</time>
      </trkpt>
      <trkpt lat="45.08333" lon="5.57611">
        <ele>1090.4</ele>
        <time>2020-08-23T10:06:26Z</time>
      </trkpt>
      <trkpt lat="45.08331" lon="5.57609">
        <ele>1090.6</ele>
        <time>2020-08-23T10:06:27Z</time>
      </trkpt>
      <trkpt lat="45.0833" lon="5.57607">
        <ele>1090.6</ele>
        <time>2020-08-23T10:06:28Z</time>
      </trkpt>
      <trkpt lat="45.08328" lon="5.57604">
        <ele>1090.8</ele>
        <time>2020-08-23T10:06:29Z</time>
      </trkpt>
      <trkpt lat="45.08327" lon="5.57602">
        <ele>1090.8</ele>
        <time>2020-08-23T10:06:30Z</time>
      </trkpt>
      <trkpt lat="45.08325" lon="5.576">
        <ele>1091</ele>
        <time>2020-08-23T10:06:31Z</time>
      </trkpt>
      <trkpt lat="45.08324" lon="5.57598">
        <ele>1091</ele>
        <time>2020-08-23T10:06:32Z</time>
      </trkpt>
      <trkpt lat="45.08322" lon="5.57595">
        <ele>1091.2</ele>
        <time>2020-08-23T10:06:33Z</time>
      </trkpt>
      <trkpt lat="45.08321" lon="5.57593">
        <ele>1091.2</ele>
        <time>2020-08-23T10:06:34Z</time>
      </trkpt>
      <trkpt lat="45.0832" lon="5.57591">
        <ele>1091.2</ele>
        <time>2020-08-23T10:06:35Z</time>
      </trkpt>
      <trkpt lat="45.08318" lon="5.57588">
        <ele>1091.4</ele>
        <time>2020-08-23T10:06:36Z</time>
      </trkpt>
      <trkpt lat="45.08317" lon="5.57585">
        <ele>1091.4</ele>
        <time>2020-08-23T10:06:37Z</time>
      </trkpt>
      <trkpt lat="45.08315" lon="5.57583">
        <ele>1091.4</ele>
        <time>2020-08-23T10:06:38Z</time>
      </trkpt>
      <trkpt lat="45.08314" lon="5.57581">
        <ele>1091.4</ele>
        <time>2020-08-23T10:06:39Z</time>
      </trkpt>
      <trkpt lat="45.08313" lon="5.57578">
        <ele>1091.6</ele>
        <time>2020-08-23T10:06:40Z</time>
      </trkpt>
      <trkpt lat="45.08312" lon="5.57576">
        <ele>1091.6</ele>
        <time>2020-08-23T10:06:41Z</time>
      </trkpt>
      <trkpt lat="45.0831" lon="5.57573">
        <ele>1091.8</ele>
        <time>2020-08-23T10:06:42Z</time>
      </trkpt>
      <trkpt lat="45.08309" lon="5.57571">
        <ele>1091.8</ele>
        <time>2020-08-23T10:06:43Z</time>
      </trkpt>
      <trkpt lat="45.08308" lon="5.57569">
        <ele>1091.8</ele>
        <time>2020-08-23T10:06:44Z</time>
      </trkpt>
      <trkpt lat="45.08307" lon="5.57566">
        <ele>1092</ele>
        <time>2020-08-23T10:06:45Z</time>
      </trkpt>
      <trkpt lat="45.08305" lon="5.57564">
        <ele>1092</ele>
        <time>2020-08-23T10:06:46Z</time>
      </trkpt>
      <trkpt lat="45.08304" lon="5.57561">
        <ele>1092</ele>
        <time>2020-08-23T10:06:47Z</time>
      </trkpt>
      <trkpt lat="45.08303" lon="5.57559">
        <ele>1092.2</ele>
        <time>2020-08-23T10:06:48Z</time>
      </trkpt>
      <trkpt lat="45.08301" lon="5.57557">
        <ele>1092.4</ele>
        <time>2020-08-23T10:06:49Z</time>
      </trkpt>
      <trkpt lat="45.083" lon="5.57554">
        <ele>1092.4</ele>
        <time>2020-08-23T10:06:50Z</time>
      </trkpt>
      <trkpt lat="45.08299" lon="5.57552">
        <ele>1092.4</ele>
        <time>2020-08-23T10:06:51Z</time>
      </trkpt>
      <trkpt lat="45.08297" lon="5.5755">
        <ele>1092.6</ele>
        <time>2020-08-23T10:06:52Z</time>
      </trkpt>
      <trkpt lat="45.08295" lon="5.57548">
        <ele>1092.8</ele>
        <time>2020-08-23T10:06:53Z</time>
      </trkpt>
      <trkpt lat="45.08294" lon="5.57546">
        <ele>1092.8</ele>
        <time>2020-08-23T10:06:54Z</time>
      </trkpt>
      <trkpt lat="45.08292" lon="5.57544">
        <ele>1093</ele>
        <time>2020-08-23T10:06:55Z</time>
      </trkpt>
      <trkpt lat="45.08291" lon="5.57542">
        <ele>1093</ele>
        <time>2020-08-23T10:06:56Z</time>
      </trkpt>
      <trkpt lat="45.08289" lon="5.57541">
        <ele>1093.2</ele>
        <time>2020-08-23T10:06:57Z</time>
      </trkpt>
      <trkpt lat="45.08287" lon="5.57539">
        <ele>1093.2</ele>
        <time>2020-08-23T10:06:58Z</time>
      </trkpt>
      <trkpt lat="45.08286" lon="5.57538">
        <ele>1093.4</ele>
        <time>2020-08-23T10:06:59Z</time>
      </trkpt>
      <trkpt lat="45.08284" lon="5.57536">
        <ele>1093.4</ele>
        <time>2020-08-23T10:07:00Z</time>
      </trkpt>
      <trkpt lat="45.08282" lon="5.57535">
        <ele>1093.4</ele>
        <time>2020-08-23T10:07:01Z</time>
      </trkpt>
      <trkpt lat="45.08281" lon="5.57534">
        <ele>1093.6</ele>
        <time>2020-08-23T10:07:02Z</time>
      </trkpt>
      <trkpt lat="45.08278" lon="5.57533">
        <ele>1093.6</ele>
        <time>2020-08-23T10:07:03Z</time>
      </trkpt>
      <trkpt lat="45.08276" lon="5.57533">
        <ele>1093.8</ele>
        <time>2020-08-23T10:07:04Z</time>
      </trkpt>
      <trkpt lat="45.08274" lon="5.57532">
        <ele>1093.8</ele>
        <time>2020-08-23T10:07:05Z</time>
      </trkpt>
      <trkpt lat="45.08272" lon="5.57532">
        <ele>1093.8</ele>
        <time>2020-08-23T10:07:06Z</time>
      </trkpt>
      <trkpt lat="45.0827" lon="5.57532">
        <ele>1094</ele>
        <time>2020-08-23T10:07:07Z</time>
      </trkpt>
      <trkpt lat="45.08268" lon="5.57532">
        <ele>1094</ele>
        <time>2020-08-23T10:07:08Z</time>
      </trkpt>
      <trkpt lat="45.08266" lon="5.57533">
        <ele>1094.2</ele>
        <time>2020-08-23T10:07:09Z</time>
      </trkpt>
      <trkpt lat="45.08264" lon="5.57533">
        <ele>1094.2</ele>
        <time>2020-08-23T10:07:10Z</time>
      </trkpt>
      <trkpt lat="45.08262" lon="5.57534">
        <ele>1094.4</ele>
        <time>2020-08-23T10:07:11Z</time>
      </trkpt>
      <trkpt lat="45.0826" lon="5.57534">
        <ele>1094.4</ele>
        <time>2020-08-23T10:07:12Z</time>
      </trkpt>
      <trkpt lat="45.08258" lon="5.57534">
        <ele>1094.4</ele>
        <time>2020-08-23T10:07:13Z</time>
      </trkpt>
      <trkpt lat="45.08256" lon="5.57535">
        <ele>1094.6</ele>
        <time>2020-08-23T10:07:14Z</time>
      </trkpt>
      <trkpt lat="45.08254" lon="5.57535">
        <ele>1094.6</ele>
        <time>2020-08-23T10:07:15Z</time>
      </trkpt>
      <trkpt lat="45.08252" lon="5.57536">
        <ele>1094.8</ele>
        <time>2020-08-23T10:07:16Z</time>
      </trkpt>
      <trkpt lat="45.0825" lon="5.57537">
        <ele>1094.8</ele>
        <time>2020-08-23T10:07:17Z</time>
      </trkpt>
      <trkpt lat="45.08249" lon="5.57539">
        <ele>1094.8</ele>
        <time>2020-08-23T10:07:18Z</time>
      </trkpt>
      <trkpt lat="45.08247" lon="5.5754">
        <ele>1095</ele>
        <time>2020-08-23T10:07:19Z</time>
      </trkpt>
      <trkpt lat="45.08245" lon="5.57542">
        <ele>1095</ele>
        <time>2020-08-23T10:07:20Z</time>
      </trkpt>
      <trkpt lat="45.08243" lon="5.57543">
        <ele>1095.2</ele>
        <time>2020-08-23T10:07:21Z</time>
      </trkpt>
      <trkpt lat="45.08241" lon="5.57545">
        <ele>1095.2</ele>
        <time>2020-08-23T10:07:22Z</time>
      </trkpt>
      <trkpt lat="45.08239" lon="5.57546">
        <ele>1095.4</ele>
        <time>2020-08-23T10:07:23Z</time>
      </trkpt>
      <trkpt lat="45.08237" lon="5.57548">
        <ele>1095.4</ele>
        <time>2020-08-23T10:07:24Z</time>
      </trkpt>
      <trkpt lat="45.08235" lon="5.5755">
        <ele>1095.4</ele>
        <time>2020-08-23T10:07:25Z</time>
      </trkpt>
      <trkpt lat="45.08233" lon="5.57551">
        <ele>1095.6</ele>
        <time>2020-08-23T10:07:26Z</time>
      </trkpt>
      <trkpt lat="45.08232" lon="5.57553">
        <ele>1095.6</ele>
        <time>2020-08-23T10:07:27Z</time>
      </trkpt>
      <trkpt lat="45.0823" lon="5.57554">
        <ele>1095.8</ele>
        <time>2020-08-23T10:07:28Z</time>
      </trkpt>
      <trkpt lat="45.08229" lon="5.57556">
        <ele>1095.8</ele>
        <time>2020-08-23T10:07:29Z</time>
      </trkpt>
      <trkpt lat="45.08227" lon="5.57557">
        <ele>1095.8</ele>
        <time>2020-08-23T10:07:30Z</time>
      </trkpt>
      <trkpt lat="45.08225" lon="5.57559">
        <ele>1096</ele>
        <time>2020-08-23T10:07:31Z</time>
      </trkpt>
      <trkpt lat="45.08224" lon="5.5756">
        <ele>1096</ele>
        <time>2020-08-23T10:07:32Z</time>
      </trkpt>
      <trkpt lat="45.08222" lon="5.57561">
        <ele>1096</ele>
        <time>2020-08-23T10:07:33Z</time>
      </trkpt>
      <trkpt lat="45.0822" lon="5.57562">
        <ele>1096</ele>
        <time>2020-08-23T10:07:34Z</time>
      </trkpt>
      <trkpt lat="45.08218" lon="5.57564">
        <ele>1096</ele>
        <time>2020-08-23T10:07:35Z</time>
      </trkpt>
      <trkpt lat="45.08217" lon="5.57566">
        <ele>1096</ele>
        <time>2020-08-23T10:07:36Z</time>
      </trkpt>
      <trkpt lat="45.08215" lon="5.57567">
        <ele>1096.2</ele>
        <time>2020-08-23T10:07:37Z</time>
      </trkpt>
      <trkpt lat="45.08213" lon="5.57568">
        <ele>1096.2</ele>
        <time>2020-08-23T10:07:38Z</time>
      </trkpt>
      <trkpt lat="45.08211" lon="5.5757">
        <ele>1096.2</ele>
        <time>2020-08-23T10:07:39Z</time>
      </trkpt>
      <trkpt lat="45.08209" lon="5.57572">
        <ele>1096.2</ele>
        <time>2020-08-23T10:07:40Z</time>
      </trkpt>
      <trkpt lat="45.08207" lon="5.57573">
        <ele>1096.2</ele>
        <time>2020-08-23T10:07:41Z</time>
      </trkpt>
      <trkpt lat="45.08205" lon="5.57574">
        <ele>1096.2</ele>
        <time>2020-08-23T10:07:42Z</time>
      </trkpt>
      <trkpt lat="45.08203" lon="5.57576">
        <ele>1096.2</ele>
        <time>2020-08-23T10:07:43Z</time>
      </trkpt>
      <trkpt lat="45.08201" lon="5.57577">
        <ele>1096.2</ele>
        <time>2020-08-23T10:07:44Z</time>
      </trkpt>
      <trkpt lat="45.08199" lon="5.57578">
        <ele>1096.4</ele>
        <time>2020-08-23T10:07:45Z</time>
      </trkpt>
      <trkpt lat="45.08197" lon="5.57579">
        <ele>1096.4</ele>
        <time>2020-08-23T10:07:46Z</time>
      </trkpt>
      <trkpt lat="45.08195" lon="5.5758">
        <ele>1096.4</ele>
        <time>2020-08-23T10:07:47Z</time>
      </trkpt>
      <trkpt lat="45.08193" lon="5.57581">
        <ele>1096.4</ele>
        <time>2020-08-23T10:07:48Z</time>
      </trkpt>
      <trkpt lat="45.08191" lon="5.57582">
        <ele>1096.6</ele>
        <time>2020-08-23T10:07:49Z</time>
      </trkpt>
      <trkpt lat="45.08189" lon="5.57583">
        <ele>1096.6</ele>
        <time>2020-08-23T10:07:50Z</time>
      </trkpt>
      <trkpt lat="45.08187" lon="5.57584">
        <ele>1096.6</ele>
        <time>2020-08-23T10:07:51Z</time>
      </trkpt>
      <trkpt lat="45.08184" lon="5.57585">
        <ele>1096.8</ele>
        <time>2020-08-23T10:07:52Z</time>
      </trkpt>
      <trkpt lat="45.08183" lon="5.57586">
        <ele>1096.8</ele>
        <time>2020-08-23T10:07:53Z</time>
      </trkpt>
      <trkpt lat="45.08181" lon="5.57586">
        <ele>1097</ele>
        <time>2020-08-23T10:07:54Z</time>
      </trkpt>
      <trkpt lat="45.08178" lon="5.57587">
        <ele>1097</ele>
        <time>2020-08-23T10:07:55Z</time>
      </trkpt>
      <trkpt lat="45.08176" lon="5.57588">
        <ele>1097</ele>
        <time>2020-08-23T10:07:56Z</time>
      </trkpt>
      <trkpt lat="45.08173" lon="5.57589">
        <ele>1097.2</ele>
        <time>2020-08-23T10:07:57Z</time>
      </trkpt>
      <trkpt lat="45.08171" lon="5.5759">
        <ele>1097.2</ele>
        <time>2020-08-23T10:07:58Z</time>
      </trkpt>
      <trkpt lat="45.08168" lon="5.57591">
        <ele>1097.2</ele>
        <time>2020-08-23T10:07:59Z</time>
      </trkpt>
      <trkpt lat="45.08166" lon="5.57592">
        <ele>1097.2</ele>
        <time>2020-08-23T10:08:00Z</time>
      </trkpt>
      <trkpt lat="45.08163" lon="5.57593">
        <ele>1097.2</ele>
        <time>2020-08-23T10:08:01Z</time>
      </trkpt>
      <trkpt lat="45.08161" lon="5.57594">
        <ele>1097.2</ele>
        <time>2020-08-23T10:08:02Z</time>
      </trkpt>
      <trkpt lat="45.08158" lon="5.57595">
        <ele>1097.2</ele>
        <time>2020-08-23T10:08:03Z</time>
      </trkpt>
      <trkpt lat="45.08155" lon="5.57596">
        <ele>1097.4</ele>
        <time>2020-08-23T10:08:04Z</time>
      </trkpt>
      <trkpt lat="45.08153" lon="5.57597">
        <ele>1097.4</ele>
        <time>2020-08-23T10:08:05Z</time>
      </trkpt>
      <trkpt lat="45.08151" lon="5.57598">
        <ele>1097.4</ele>
        <time>2020-08-23T10:08:06Z</time>
      </trkpt>
      <trkpt lat="45.08148" lon="5.57599">
        <ele>1097.4</ele>
        <time>2020-08-23T10:08:07Z</time>
      </trkpt>
      <trkpt lat="45.08146" lon="5.576">
        <ele>1097.4</ele>
        <time>2020-08-23T10:08:08Z</time>
      </trkpt>
      <trkpt lat="45.08144" lon="5.57602">
        <ele>1097.4</ele>
        <time>2020-08-23T10:08:09Z</time>
      </trkpt>
      <trkpt lat="45.08141" lon="5.57602">
        <ele>1097.4</ele>
        <time>2020-08-23T10:08:10Z</time>
      </trkpt>
      <trkpt lat="45.08139" lon="5.57603">
        <ele>1097.4</ele>
        <time>2020-08-23T10:08:11Z</time>
      </trkpt>
      <trkpt lat="45.08136" lon="5.57604">
        <ele>1097.6</ele>
        <time>2020-08-23T10:08:12Z</time>
      </trkpt>
      <trkpt lat="45.08134" lon="5.57606">
        <ele>1097.6</ele>
        <time>2020-08-23T10:08:13Z</time>
      </trkpt>
      <trkpt lat="45.08132" lon="5.57607">
        <ele>1097.6</ele>
        <time>2020-08-23T10:08:14Z</time>
      </trkpt>
      <trkpt lat="45.0813" lon="5.57608">
        <ele>1097.6</ele>
        <time>2020-08-23T10:08:15Z</time>
      </trkpt>
      <trkpt lat="45.08127" lon="5.57609">
        <ele>1097.8</ele>
        <time>2020-08-23T10:08:16Z</time>
      </trkpt>
      <trkpt lat="45.08125" lon="5.5761">
        <ele>1097.8</ele>
        <time>2020-08-23T10:08:17Z</time>
      </trkpt>
      <trkpt lat="45.08122" lon="5.57611">
        <ele>1097.8</ele>
        <time>2020-08-23T10:08:18Z</time>
      </trkpt>
      <trkpt lat="45.0812" lon="5.57612">
        <ele>1097.8</ele>
        <time>2020-08-23T10:08:19Z</time>
      </trkpt>
      <trkpt lat="45.08118" lon="5.57613">
        <ele>1097.8</ele>
        <time>2020-08-23T10:08:20Z</time>
      </trkpt>
      <trkpt lat="45.08115" lon="5.57613">
        <ele>1097.8</ele>
        <time>2020-08-23T10:08:21Z</time>
      </trkpt>
      <trkpt lat="45.08113" lon="5.57614">
        <ele>1098</ele>
        <time>2020-08-23T10:08:22Z</time>
      </trkpt>
      <trkpt lat="45.0811" lon="5.57615">
        <ele>1098</ele>
        <time>2020-08-23T10:08:23Z</time>
      </trkpt>
      <trkpt lat="45.08108" lon="5.57615">
        <ele>1098</ele>
        <time>2020-08-23T10:08:24Z</time>
      </trkpt>
      <trkpt lat="45.08106" lon="5.57616">
        <ele>1098</ele>
        <time>2020-08-23T10:08:25Z</time>
      </trkpt>
      <trkpt lat="45.08103" lon="5.57617">
        <ele>1098.2</ele>
        <time>2020-08-23T10:08:26Z</time>
      </trkpt>
      <trkpt lat="45.08101" lon="5.57617">
        <ele>1098.2</ele>
        <time>2020-08-23T10:08:27Z</time>
      </trkpt>
      <trkpt lat="45.08098" lon="5.57618">
        <ele>1098.2</ele>
        <time>2020-08-23T10:08:28Z</time>
      </trkpt>
      <trkpt lat="45.08095" lon="5.57618">
        <ele>1098.4</ele>
        <time>2020-08-23T10:08:29Z</time>
      </trkpt>
      <trkpt lat="45.08092" lon="5.57618">
        <ele>1098.4</ele>
        <time>2020-08-23T10:08:30Z</time>
      </trkpt>
      <trkpt lat="45.08089" lon="5.57617">
        <ele>1098.4</ele>
        <time>2020-08-23T10:08:31Z</time>
      </trkpt>
      <trkpt lat="45.08086" lon="5.57617">
        <ele>1098.6</ele>
        <time>2020-08-23T10:08:32Z</time>
      </trkpt>
      <trkpt lat="45.08083" lon="5.57616">
        <ele>1098.6</ele>
        <time>2020-08-23T10:08:33Z</time>
      </trkpt>
      <trkpt lat="45.0808" lon="5.57614">
        <ele>1098.8</ele>
        <time>2020-08-23T10:08:34Z</time>
      </trkpt>
      <trkpt lat="45.08077" lon="5.57613">
        <ele>1098.8</ele>
        <time>2020-08-23T10:08:35Z</time>
      </trkpt>
      <trkpt lat="45.08075" lon="5.57611">
        <ele>1099</ele>
        <time>2020-08-23T10:08:36Z</time>
      </trkpt>
      <trkpt lat="45.08072" lon="5.57609">
        <ele>1099</ele>
        <time>2020-08-23T10:08:37Z</time>
      </trkpt>
      <trkpt lat="45.0807" lon="5.57606">
        <ele>1099.2</ele>
        <time>2020-08-23T10:08:38Z</time>
      </trkpt>
      <trkpt lat="45.08067" lon="5.57604">
        <ele>1099.4</ele>
        <time>2020-08-23T10:08:39Z</time>
      </trkpt>
      <trkpt lat="45.08064" lon="5.57601">
        <ele>1099.4</ele>
        <time>2020-08-23T10:08:40Z</time>
      </trkpt>
      <trkpt lat="45.08062" lon="5.57598">
        <ele>1099.6</ele>
        <time>2020-08-23T10:08:41Z</time>
      </trkpt>
      <trkpt lat="45.0806" lon="5.57595">
        <ele>1099.8</ele>
        <time>2020-08-23T10:08:42Z</time>
      </trkpt>
      <trkpt lat="45.08058" lon="5.57591">
        <ele>1100</ele>
        <time>2020-08-23T10:08:43Z</time>
      </trkpt>
      <trkpt lat="45.08056" lon="5.57587">
        <ele>1100.2</ele>
        <time>2020-08-23T10:08:44Z</time>
      </trkpt>
      <trkpt lat="45.08054" lon="5.57583">
        <ele>1100.4</ele>
        <time>2020-08-23T10:08:45Z</time>
      </trkpt>
      <trkpt lat="45.08052" lon="5.57579">
        <ele>1100.6</ele>
        <time>2020-08-23T10:08:46Z</time>
      </trkpt>
      <trkpt lat="45.08051" lon="5.57575">
        <ele>1100.8</ele>
        <time>2020-08-23T10:08:47Z</time>
      </trkpt>
      <trkpt lat="45.08049" lon="5.57571">
        <ele>1101</ele>
        <time>2020-08-23T10:08:48Z</time>
      </trkpt>
      <trkpt lat="45.08047" lon="5.57568">
        <ele>1101</ele>
        <time>2020-08-23T10:08:49Z</time>
      </trkpt>
      <trkpt lat="45.08045" lon="5.57564">
        <ele>1101.2</ele>
        <time>2020-08-23T10:08:50Z</time>
      </trkpt>
      <trkpt lat="45.08043" lon="5.5756">
        <ele>1101.6</ele>
        <time>2020-08-23T10:08:51Z</time>
      </trkpt>
      <trkpt lat="45.08041" lon="5.57556">
        <ele>1101.8</ele>
        <time>2020-08-23T10:08:52Z</time>
      </trkpt>
      <trkpt lat="45.08038" lon="5.57552">
        <ele>1102</ele>
        <time>2020-08-23T10:08:53Z</time>
      </trkpt>
      <trkpt lat="45.08036" lon="5.57549">
        <ele>1102.4</ele>
        <time>2020-08-23T10:08:54Z</time>
      </trkpt>
      <trkpt lat="45.08034" lon="5.57546">
        <ele>1102.8</ele>
        <time>2020-08-23T10:08:55Z</time>
      </trkpt>
      <trkpt lat="45.08031" lon="5.57544">
        <ele>1103</ele>
        <time>2020-08-23T10:08:56Z</time>
      </trkpt>
      <trkpt lat="45.08028" lon="5.57541">
        <ele>1103.2</ele>
        <time>2020-08-23T10:08:57Z</time>
      </trkpt>
      <trkpt lat="45.08025" lon="5.57538">
        <ele>1103.4</ele>
        <time>2020-08-23T10:08:58Z</time>
      </trkpt>
      <trkpt lat="45.08022" lon="5.57536">
        <ele>1103.8</ele>
        <time>2020-08-23T10:08:59Z</time>
      </trkpt>
      <trkpt lat="45.08019" lon="5.57534">
        <ele>1104</ele>
        <time>2020-08-23T10:09:00Z</time>
      </trkpt>
      <trkpt lat="45.08015" lon="5.57532">
        <ele>1104.2</ele>
        <time>2020-08-23T10:09:01Z</time>
      </trkpt>
      <trkpt lat="45.08011" lon="5.5753">
        <ele>1104.4</ele>
        <time>2020-08-23T10:09:02Z</time>
      </trkpt>
      <trkpt lat="45.08007" lon="5.57528">
        <ele>1104.8</ele>
        <time>2020-08-23T10:09:03Z</time>
      </trkpt>
      <trkpt lat="45.08003" lon="5.57526">
        <ele>1105</ele>
        <time>2020-08-23T10:09:04Z</time>
      </trkpt>
      <trkpt lat="45.07999" lon="5.57524">
        <ele>1105.2</ele>
        <time>2020-08-23T10:09:05Z</time>
      </trkpt>
      <trkpt lat="45.07995" lon="5.57521">
        <ele>1105.4</ele>
        <time>2020-08-23T10:09:06Z</time>
      </trkpt>
      <trkpt lat="45.07991" lon="5.57518">
        <ele>1105.6</ele>
        <time>2020-08-23T10:09:07Z</time>
      </trkpt>
      <trkpt lat="45.07988" lon="5.57514">
        <ele>1106</ele>
        <time>2020-08-23T10:09:08Z</time>
      </trkpt>
      <trkpt lat="45.07985" lon="5.57511">
        <ele>1106.2</ele>
        <time>2020-08-23T10:09:09Z</time>
      </trkpt>
      <trkpt lat="45.07983" lon="5.57507">
        <ele>1106.4</ele>
        <time>2020-08-23T10:09:10Z</time>
      </trkpt>
      <trkpt lat="45.0798" lon="5.57503">
        <ele>1106.8</ele>
        <time>2020-08-23T10:09:11Z</time>
      </trkpt>
      <trkpt lat="45.07978" lon="5.57499">
        <ele>1107</ele>
        <time>2020-08-23T10:09:12Z</time>
      </trkpt>
      <trkpt lat="45.07977" lon="5.57495">
        <ele>1107.2</ele>
        <time>2020-08-23T10:09:13Z</time>
      </trkpt>
      <trkpt lat="45.07974" lon="5.57491">
        <ele>1107.6</ele>
        <time>2020-08-23T10:09:14Z</time>
      </trkpt>
      <trkpt lat="45.07972" lon="5.57488">
        <ele>1107.8</ele>
        <time>2020-08-23T10:09:15Z</time>
      </trkpt>
      <trkpt lat="45.0797" lon="5.57484">
        <ele>1108</ele>
        <time>2020-08-23T10:09:16Z</time>
      </trkpt>
      <trkpt lat="45.07968" lon="5.5748">
        <ele>1108.2</ele>
        <time>2020-08-23T10:09:17Z</time>
      </trkpt>
      <trkpt lat="45.07966" lon="5.57477">
        <ele>1108.4</ele>
        <time>2020-08-23T10:09:18Z</time>
      </trkpt>
      <trkpt lat="45.07964" lon="5.57474">
        <ele>1108.6</ele>
        <time>2020-08-23T10:09:19Z</time>
      </trkpt>
      <trkpt lat="45.07961" lon="5.57471">
        <ele>1108.8</ele>
        <time>2020-08-23T10:09:20Z</time>
      </trkpt>
      <trkpt lat="45.07958" lon="5.57469">
        <ele>1109</ele>
        <time>2020-08-23T10:09:21Z</time>
      </trkpt>
      <trkpt lat="45.07954" lon="5.57468">
        <ele>1109</ele>
        <time>2020-08-23T10:09:22Z</time>
      </trkpt>
      <trkpt lat="45.07951" lon="5.57467">
        <ele>1109.2</ele>
        <time>2020-08-23T10:09:23Z</time>
      </trkpt>
      <trkpt lat="45.07948" lon="5.57467">
        <ele>1109.4</ele>
        <time>2020-08-23T10:09:24Z</time>
      </trkpt>
      <trkpt lat="45.07944" lon="5.57467">
        <ele>1109.4</ele>
        <time>2020-08-23T10:09:25Z</time>
      </trkpt>
      <trkpt lat="45.0794" lon="5.57467">
        <ele>1109.6</ele>
        <time>2020-08-23T10:09:26Z</time>
      </trkpt>
      <trkpt lat="45.07937" lon="5.57467">
        <ele>1109.8</ele>
        <time>2020-08-23T10:09:27Z</time>
      </trkpt>
      <trkpt lat="45.07934" lon="5.57468">
        <ele>1109.8</ele>
        <time>2020-08-23T10:09:28Z</time>
      </trkpt>
      <trkpt lat="45.07931" lon="5.57469">
        <ele>1110</ele>
        <time>2020-08-23T10:09:29Z</time>
      </trkpt>
      <trkpt lat="45.07928" lon="5.57471">
        <ele>1110</ele>
        <time>2020-08-23T10:09:30Z</time>
      </trkpt>
      <trkpt lat="45.07925" lon="5.57473">
        <ele>1110.2</ele>
        <time>2020-08-23T10:09:31Z</time>
      </trkpt>
      <trkpt lat="45.07922" lon="5.57475">
        <ele>1110.2</ele>
        <time>2020-08-23T10:09:32Z</time>
      </trkpt>
      <trkpt lat="45.0792" lon="5.57478">
        <ele>1110.4</ele>
        <time>2020-08-23T10:09:33Z</time>
      </trkpt>
      <trkpt lat="45.07917" lon="5.57481">
        <ele>1110.4</ele>
        <time>2020-08-23T10:09:34Z</time>
      </trkpt>
      <trkpt lat="45.07915" lon="5.57484">
        <ele>1110.6</ele>
        <time>2020-08-23T10:09:35Z</time>
      </trkpt>
      <trkpt lat="45.07912" lon="5.57486">
        <ele>1110.6</ele>
        <time>2020-08-23T10:09:36Z</time>
      </trkpt>
      <trkpt lat="45.07909" lon="5.57489">
        <ele>1110.8</ele>
        <time>2020-08-23T10:09:37Z</time>
      </trkpt>
      <trkpt lat="45.07906" lon="5.57491">
        <ele>1110.8</ele>
        <time>2020-08-23T10:09:38Z</time>
      </trkpt>
      <trkpt lat="45.07903" lon="5.57494">
        <ele>1111</ele>
        <time>2020-08-23T10:09:39Z</time>
      </trkpt>
      <trkpt lat="45.079" lon="5.57496">
        <ele>1111</ele>
        <time>2020-08-23T10:09:40Z</time>
      </trkpt>
      <trkpt lat="45.07896" lon="5.57498">
        <ele>1111</ele>
        <time>2020-08-23T10:09:41Z</time>
      </trkpt>
      <trkpt lat="45.07893" lon="5.57499">
        <ele>1111.2</ele>
        <time>2020-08-23T10:09:42Z</time>
      </trkpt>
      <trkpt lat="45.0789" lon="5.575">
        <ele>1111.2</ele>
        <time>2020-08-23T10:09:43Z</time>
      </trkpt>
      <trkpt lat="45.07887" lon="5.57502">
        <ele>1111.2</ele>
        <time>2020-08-23T10:09:44Z</time>
      </trkpt>
      <trkpt lat="45.07884" lon="5.57503">
        <ele>1111.4</ele>
        <time>2020-08-23T10:09:45Z</time>
      </trkpt>
      <trkpt lat="45.0788" lon="5.57504">
        <ele>1111.4</ele>
        <time>2020-08-23T10:09:46Z</time>
      </trkpt>
      <trkpt lat="45.07877" lon="5.57504">
        <ele>1111.6</ele>
        <time>2020-08-23T10:09:47Z</time>
      </trkpt>
      <trkpt lat="45.07874" lon="5.57504">
        <ele>1111.8</ele>
        <time>2020-08-23T10:09:48Z</time>
      </trkpt>
      <trkpt lat="45.07871" lon="5.57504">
        <ele>1111.8</ele>
        <time>2020-08-23T10:09:49Z</time>
      </trkpt>
      <trkpt lat="45.07871" lon="5.57506">
        <ele>1112</ele>
        <time>2020-08-23T10:09:50Z</time>
      </trkpt>
      <trkpt lat="45.07867" lon="5.57506">
        <ele>1112.2</ele>
        <time>2020-08-23T10:09:51Z</time>
      </trkpt>
      <trkpt lat="45.07864" lon="5.57506">
        <ele>1112.4</ele>
        <time>2020-08-23T10:09:52Z</time>
      </trkpt>
      <trkpt lat="45.07861" lon="5.57507">
        <ele>1112.4</ele>
        <time>2020-08-23T10:09:53Z</time>
      </trkpt>
      <trkpt lat="45.07857" lon="5.57506">
        <ele>1112.6</ele>
        <time>2020-08-23T10:09:54Z</time>
      </trkpt>
      <trkpt lat="45.07854" lon="5.57507">
        <ele>1112.6</ele>
        <time>2020-08-23T10:09:55Z</time>
      </trkpt>
      <trkpt lat="45.0785" lon="5.57507">
        <ele>1112.8</ele>
        <time>2020-08-23T10:09:56Z</time>
      </trkpt>
      <trkpt lat="45.07848" lon="5.57507">
        <ele>1113</ele>
        <time>2020-08-23T10:09:57Z</time>
      </trkpt>
      <trkpt lat="45.07844" lon="5.57507">
        <ele>1113</ele>
        <time>2020-08-23T10:09:58Z</time>
      </trkpt>
      <trkpt lat="45.07841" lon="5.57507">
        <ele>1113.2</ele>
        <time>2020-08-23T10:09:59Z</time>
      </trkpt>
      <trkpt lat="45.07837" lon="5.57506">
        <ele>1113.4</ele>
        <time>2020-08-23T10:10:00Z</time>
      </trkpt>
      <trkpt lat="45.07834" lon="5.57506">
        <ele>1113.6</ele>
        <time>2020-08-23T10:10:01Z</time>
      </trkpt>
      <trkpt lat="45.07831" lon="5.57506">
        <ele>1113.8</ele>
        <time>2020-08-23T10:10:02Z</time>
      </trkpt>
      <trkpt lat="45.07828" lon="5.57506">
        <ele>1114</ele>
        <time>2020-08-23T10:10:03Z</time>
      </trkpt>
      <trkpt lat="45.07825" lon="5.57506">
        <ele>1114.2</ele>
        <time>2020-08-23T10:10:04Z</time>
      </trkpt>
      <trkpt lat="45.07822" lon="5.57505">
        <ele>1114.4</ele>
        <time>2020-08-23T10:10:05Z</time>
      </trkpt>
      <trkpt lat="45.0782" lon="5.57504">
        <ele>1114.6</ele>
        <time>2020-08-23T10:10:06Z</time>
      </trkpt>
      <trkpt lat="45.07817" lon="5.57503">
        <ele>1114.8</ele>
        <time>2020-08-23T10:10:07Z</time>
      </trkpt>
      <trkpt lat="45.07814" lon="5.57501">
        <ele>1115</ele>
        <time>2020-08-23T10:10:08Z</time>
      </trkpt>
      <trkpt lat="45.07812" lon="5.575">
        <ele>1115</ele>
        <time>2020-08-23T10:10:09Z</time>
      </trkpt>
      <trkpt lat="45.07809" lon="5.57498">
        <ele>1115.2</ele>
        <time>2020-08-23T10:10:10Z</time>
      </trkpt>
      <trkpt lat="45.07807" lon="5.57495">
        <ele>1115.4</ele>
        <time>2020-08-23T10:10:11Z</time>
      </trkpt>
      <trkpt lat="45.07805" lon="5.57493">
        <ele>1115.6</ele>
        <time>2020-08-23T10:10:12Z</time>
      </trkpt>
      <trkpt lat="45.07802" lon="5.5749">
        <ele>1115.8</ele>
        <time>2020-08-23T10:10:13Z</time>
      </trkpt>
      <trkpt lat="45.078" lon="5.57487">
        <ele>1116</ele>
        <time>2020-08-23T10:10:14Z</time>
      </trkpt>
      <trkpt lat="45.07798" lon="5.57484">
        <ele>1116.2</ele>
        <time>2020-08-23T10:10:15Z</time>
      </trkpt>
      <trkpt lat="45.07796" lon="5.5748">
        <ele>1116.4</ele>
        <time>2020-08-23T10:10:16Z</time>
      </trkpt>
      <trkpt lat="45.07795" lon="5.57477">
        <ele>1116.6</ele>
        <time>2020-08-23T10:10:17Z</time>
      </trkpt>
      <trkpt lat="45.07793" lon="5.57474">
        <ele>1116.8</ele>
        <time>2020-08-23T10:10:18Z</time>
      </trkpt>
      <trkpt lat="45.07791" lon="5.57471">
        <ele>1117</ele>
        <time>2020-08-23T10:10:19Z</time>
      </trkpt>
      <trkpt lat="45.07789" lon="5.57468">
        <ele>1117.2</ele>
        <time>2020-08-23T10:10:20Z</time>
      </trkpt>
      <trkpt lat="45.07754" lon="5.57404">
        <ele>1101</ele>
      </trkpt>
      <trkpt lat="45.07754" lon="5.57298">
        <ele>1102</ele>
      </trkpt>
      <trkpt lat="45.07708" lon="5.57153">
        <ele>1087.2</ele>
      </trkpt>
      <trkpt lat="45.07682" lon="5.56727">
        <ele>1048.6</ele>
      </trkpt>
      <trkpt lat="45.07747" lon="5.56657">
        <ele>1042</ele>
      </trkpt>
      <trkpt lat="45.07754" lon="5.56497">
        <ele>1032.8</ele>
      </trkpt>
      <trkpt lat="45.07688" lon="5.56606">
        <ele>1032.2</ele>
      </trkpt>
      <trkpt lat="45.07574" lon="5.56687">
        <ele>1026.9</ele>
      </trkpt>
      <trkpt lat="45.07466" lon="5.56606">
        <ele>1012.9</ele>
      </trkpt>
      <trkpt lat="45.07428" lon="5.56519">
        <ele>1021.4</ele>
      </trkpt>
      <trkpt lat="45.07299" lon="5.56435">
        <ele>1032.9</ele>
      </trkpt>
      <trkpt lat="45.07389" lon="5.56377">
        <ele>1031.3</ele>
      </trkpt>
      <trkpt lat="45.07412" lon="5.56169">
        <ele>1033.2</ele>
      </trkpt>
      <trkpt lat="45.07392" lon="5.56035">
        <ele>1033.3</ele>
      </trkpt>
      <trkpt lat="45.07418" lon="5.56027">
        <ele>1033.6</ele>
      </trkpt>
      <trkpt lat="45.07374" lon="5.56047">
        <ele>1033.3</ele>
      </trkpt>
    </trkseg>
  </trk>
</gpx>